<?xml version='1.0' encoding='UTF-8'?><gpx version="1.1" creator="JPX - https://github.com/jenetics/jpx" xmlns="http://www.topografix.com/GPX/1/1"><trk><trkseg><trkpt lat="45.9650364" lon="12.6108129"><ele>37.5</ele><time>2026-03-27T12:37:45.983Z</time></trkpt><trkpt lat="45.96474" lon="12.6108733"><ele>37.0</ele><time>2026-03-27T12:37:55.984Z</time></trkpt><trkpt lat="45.9646633" lon="12.6110817"><ele>37.0</ele><time>2026-03-27T12:38:00.983Z</time></trkpt><trkpt lat="45.9646017" lon="12.611155"><ele>37.0</ele><time>2026-03-27T12:38:01.985Z</time></trkpt><trkpt lat="45.9645167" lon="12.6112233"><ele>37.0</ele><time>2026-03-27T12:38:03.985Z</time></trkpt><trkpt lat="45.9644067" lon="12.61123"><ele>37.0</ele><time>2026-03-27T12:38:05.983Z</time></trkpt><trkpt lat="45.9643383" lon="12.6112333"><ele>37.0</ele><time>2026-03-27T12:38:06.984Z</time></trkpt><trkpt lat="45.964275" lon="12.6112433"><ele>37.0</ele><time>2026-03-27T12:38:07.989Z</time></trkpt><trkpt lat="45.9641733" lon="12.6112717"><ele>37.0</ele><time>2026-03-27T12:38:09.984Z</time></trkpt><trkpt lat="45.964215" lon="12.6113783"><ele>37.0</ele><time>2026-03-27T12:38:12.985Z</time></trkpt><trkpt lat="45.9643333" lon="12.6114433"><ele>37.0</ele><time>2026-03-27T12:38:14.985Z</time></trkpt><trkpt lat="45.96441" lon="12.6114467"><ele>37.0</ele><time>2026-03-27T12:38:15.984Z</time></trkpt><trkpt lat="45.964495" lon="12.611445"><ele>37.0</ele><time>2026-03-27T12:38:16.985Z</time></trkpt><trkpt lat="45.9645783" lon="12.61144"><ele>37.0</ele><time>2026-03-27T12:38:17.985Z</time></trkpt><trkpt lat="45.96466" lon="12.6114367"><ele>37.0</ele><time>2026-03-27T12:38:18.984Z</time></trkpt><trkpt lat="45.964755" lon="12.6114317"><ele>37.0</ele><time>2026-03-27T12:38:19.985Z</time></trkpt><trkpt lat="45.9648583" lon="12.6114183"><ele>37.0</ele><time>2026-03-27T12:38:20.986Z</time></trkpt><trkpt lat="45.9649733" lon="12.61141"><ele>37.0</ele><time>2026-03-27T12:38:21.984Z</time></trkpt><trkpt lat="45.96509" lon="12.611405"><ele>37.2</ele><time>2026-03-27T12:38:22.985Z</time></trkpt><trkpt lat="45.9651933" lon="12.6114"><ele>37.400000000000006</ele><time>2026-03-27T12:38:23.984Z</time></trkpt><trkpt lat="45.9652967" lon="12.6113967"><ele>37.599999999999994</ele><time>2026-03-27T12:38:24.987Z</time></trkpt><trkpt lat="45.9654033" lon="12.6113917"><ele>37.8</ele><time>2026-03-27T12:38:25.985Z</time></trkpt><trkpt lat="45.965515" lon="12.611385"><ele>38.0</ele><time>2026-03-27T12:38:26.985Z</time></trkpt><trkpt lat="45.9656233" lon="12.6113817"><ele>38.0</ele><time>2026-03-27T12:38:27.984Z</time></trkpt><trkpt lat="45.9657333" lon="12.6113767"><ele>38.0</ele><time>2026-03-27T12:38:28.985Z</time></trkpt><trkpt lat="45.9658417" lon="12.6113717"><ele>38.0</ele><time>2026-03-27T12:38:29.989Z</time></trkpt><trkpt lat="45.96595" lon="12.611365"><ele>38.0</ele><time>2026-03-27T12:38:30.986Z</time></trkpt><trkpt lat="45.9660633" lon="12.611355"><ele>38.0</ele><time>2026-03-27T12:38:31.987Z</time></trkpt><trkpt lat="45.96618" lon="12.6113517"><ele>38.25</ele><time>2026-03-27T12:38:32.988Z</time></trkpt><trkpt lat="45.9662967" lon="12.61135"><ele>38.5</ele><time>2026-03-27T12:38:33.984Z</time></trkpt><trkpt lat="45.9664167" lon="12.6113533"><ele>38.75</ele><time>2026-03-27T12:38:34.984Z</time></trkpt><trkpt lat="45.9665367" lon="12.6113633"><ele>39.0</ele><time>2026-03-27T12:38:35.984Z</time></trkpt><trkpt lat="45.9666583" lon="12.611365"><ele>39.25</ele><time>2026-03-27T12:38:36.985Z</time></trkpt><trkpt lat="45.9667783" lon="12.61136"><ele>39.5</ele><time>2026-03-27T12:38:37.984Z</time></trkpt><trkpt lat="45.9668983" lon="12.6113533"><ele>39.75</ele><time>2026-03-27T12:38:38.985Z</time></trkpt><trkpt lat="45.9670217" lon="12.6113433"><ele>40.0</ele><time>2026-03-27T12:38:39.984Z</time></trkpt><trkpt lat="45.9671517" lon="12.61133"><ele>40.0</ele><time>2026-03-27T12:38:40.985Z</time></trkpt><trkpt lat="45.967285" lon="12.6113217"><ele>40.0</ele><time>2026-03-27T12:38:41.984Z</time></trkpt><trkpt lat="45.9674183" lon="12.6113183"><ele>40.0</ele><time>2026-03-27T12:38:42.984Z</time></trkpt><trkpt lat="45.967555" lon="12.6113"><ele>40.0</ele><time>2026-03-27T12:38:43.988Z</time></trkpt><trkpt lat="45.9676817" lon="12.6112917"><ele>40.5</ele><time>2026-03-27T12:38:44.985Z</time></trkpt><trkpt lat="45.9678133" lon="12.6112883"><ele>41.0</ele><time>2026-03-27T12:38:45.984Z</time></trkpt><trkpt lat="45.9679433" lon="12.6112767"><ele>41.5</ele><time>2026-03-27T12:38:46.983Z</time></trkpt><trkpt lat="45.9680617" lon="12.6112683"><ele>42.0</ele><time>2026-03-27T12:38:47.982Z</time></trkpt><trkpt lat="45.968175" lon="12.6112633"><ele>42.0</ele><time>2026-03-27T12:38:48.983Z</time></trkpt><trkpt lat="45.968275" lon="12.611265"><ele>42.0</ele><time>2026-03-27T12:38:49.983Z</time></trkpt><trkpt lat="45.968365" lon="12.61126"><ele>42.0</ele><time>2026-03-27T12:38:50.988Z</time></trkpt><trkpt lat="45.9684417" lon="12.6112583"><ele>42.0</ele><time>2026-03-27T12:38:51.983Z</time></trkpt><trkpt lat="45.9685517" lon="12.6112783"><ele>42.0</ele><time>2026-03-27T12:38:53.983Z</time></trkpt><trkpt lat="45.9686317" lon="12.6113267"><ele>42.2</ele><time>2026-03-27T12:38:55.982Z</time></trkpt><trkpt lat="45.9686967" lon="12.6114067"><ele>42.400000000000006</ele><time>2026-03-27T12:38:57.983Z</time></trkpt><trkpt lat="45.968755" lon="12.6115367"><ele>42.599999999999994</ele><time>2026-03-27T12:38:59.983Z</time></trkpt><trkpt lat="45.9688133" lon="12.6116933"><ele>42.8</ele><time>2026-03-27T12:39:01.983Z</time></trkpt><trkpt lat="45.968825" lon="12.6117967"><ele>43.0</ele><time>2026-03-27T12:39:02.985Z</time></trkpt><trkpt lat="45.96883" lon="12.61191"><ele>42.833333333333336</ele><time>2026-03-27T12:39:03.983Z</time></trkpt><trkpt lat="45.9688267" lon="12.61203"><ele>42.66666666666667</ele><time>2026-03-27T12:39:04.983Z</time></trkpt><trkpt lat="45.9688217" lon="12.61216"><ele>42.5</ele><time>2026-03-27T12:39:05.983Z</time></trkpt><trkpt lat="45.9688083" lon="12.61229"><ele>42.333333333333336</ele><time>2026-03-27T12:39:06.983Z</time></trkpt><trkpt lat="45.968795" lon="12.61241"><ele>42.166666666666664</ele><time>2026-03-27T12:39:07.983Z</time></trkpt><trkpt lat="45.9687833" lon="12.6125283"><ele>42.0</ele><time>2026-03-27T12:39:08.984Z</time></trkpt><trkpt lat="45.9687733" lon="12.61265"><ele>42.0</ele><time>2026-03-27T12:39:09.982Z</time></trkpt><trkpt lat="45.968765" lon="12.6127767"><ele>42.0</ele><time>2026-03-27T12:39:10.983Z</time></trkpt><trkpt lat="45.96875" lon="12.6129067"><ele>42.0</ele><time>2026-03-27T12:39:11.986Z</time></trkpt><trkpt lat="45.9687417" lon="12.6130367"><ele>42.0</ele><time>2026-03-27T12:39:12.983Z</time></trkpt><trkpt lat="45.9687367" lon="12.61316"><ele>42.0</ele><time>2026-03-27T12:39:13.983Z</time></trkpt><trkpt lat="45.968735" lon="12.613275"><ele>42.0</ele><time>2026-03-27T12:39:14.984Z</time></trkpt><trkpt lat="45.9687283" lon="12.6133783"><ele>42.0</ele><time>2026-03-27T12:39:15.982Z</time></trkpt><trkpt lat="45.968715" lon="12.61348"><ele>42.0</ele><time>2026-03-27T12:39:16.984Z</time></trkpt><trkpt lat="45.9687033" lon="12.61358"><ele>42.0</ele><time>2026-03-27T12:39:17.982Z</time></trkpt><trkpt lat="45.9687167" lon="12.6136717"><ele>42.0</ele><time>2026-03-27T12:39:18.983Z</time></trkpt><trkpt lat="45.9688133" lon="12.6137617"><ele>42.0</ele><time>2026-03-27T12:39:20.984Z</time></trkpt><trkpt lat="45.96889" lon="12.61373"><ele>42.0</ele><time>2026-03-27T12:39:21.983Z</time></trkpt><trkpt lat="45.9689683" lon="12.6137033"><ele>42.0</ele><time>2026-03-27T12:39:22.983Z</time></trkpt><trkpt lat="45.9690533" lon="12.6136817"><ele>42.0</ele><time>2026-03-27T12:39:23.983Z</time></trkpt><trkpt lat="45.9691483" lon="12.6136733"><ele>42.0</ele><time>2026-03-27T12:39:24.984Z</time></trkpt><trkpt lat="45.969245" lon="12.6136617"><ele>42.0</ele><time>2026-03-27T12:39:25.983Z</time></trkpt><trkpt lat="45.9693433" lon="12.6136467"><ele>42.0</ele><time>2026-03-27T12:39:26.984Z</time></trkpt><trkpt lat="45.9694467" lon="12.6136217"><ele>42.0</ele><time>2026-03-27T12:39:27.983Z</time></trkpt><trkpt lat="45.9695517" lon="12.6136017"><ele>42.0</ele><time>2026-03-27T12:39:28.988Z</time></trkpt><trkpt lat="45.96966" lon="12.6135783"><ele>42.0</ele><time>2026-03-27T12:39:29.984Z</time></trkpt><trkpt lat="45.969775" lon="12.613555"><ele>42.0</ele><time>2026-03-27T12:39:30.985Z</time></trkpt><trkpt lat="45.9698917" lon="12.6135317"><ele>42.0</ele><time>2026-03-27T12:39:31.984Z</time></trkpt><trkpt lat="45.9700083" lon="12.6135067"><ele>42.25</ele><time>2026-03-27T12:39:32.984Z</time></trkpt><trkpt lat="45.97013" lon="12.6134867"><ele>42.5</ele><time>2026-03-27T12:39:33.983Z</time></trkpt><trkpt lat="45.970255" lon="12.613465"><ele>42.75</ele><time>2026-03-27T12:39:34.985Z</time></trkpt><trkpt lat="45.9703817" lon="12.6134517"><ele>43.0</ele><time>2026-03-27T12:39:35.984Z</time></trkpt><trkpt lat="45.9705117" lon="12.6134333"><ele>43.0</ele><time>2026-03-27T12:39:36.983Z</time></trkpt><trkpt lat="45.9706467" lon="12.61343"><ele>43.0</ele><time>2026-03-27T12:39:37.984Z</time></trkpt><trkpt lat="45.9707833" lon="12.6134317"><ele>43.0</ele><time>2026-03-27T12:39:38.983Z</time></trkpt><trkpt lat="45.970925" lon="12.6134417"><ele>43.0</ele><time>2026-03-27T12:39:39.983Z</time></trkpt><trkpt lat="45.97107" lon="12.613455"><ele>43.25</ele><time>2026-03-27T12:39:40.983Z</time></trkpt><trkpt lat="45.971215" lon="12.613475"><ele>43.5</ele><time>2026-03-27T12:39:41.983Z</time></trkpt><trkpt lat="45.9713617" lon="12.6134983"><ele>43.75</ele><time>2026-03-27T12:39:42.983Z</time></trkpt><trkpt lat="45.971505" lon="12.613525"><ele>44.0</ele><time>2026-03-27T12:39:43.984Z</time></trkpt><trkpt lat="45.9716517" lon="12.6135567"><ele>44.0</ele><time>2026-03-27T12:39:44.984Z</time></trkpt><trkpt lat="45.9717983" lon="12.61359"><ele>44.0</ele><time>2026-03-27T12:39:45.983Z</time></trkpt><trkpt lat="45.9719467" lon="12.613625"><ele>44.0</ele><time>2026-03-27T12:39:46.983Z</time></trkpt><trkpt lat="45.972095" lon="12.61366"><ele>44.0</ele><time>2026-03-27T12:39:47.983Z</time></trkpt><trkpt lat="45.9722417" lon="12.6136917"><ele>44.0</ele><time>2026-03-27T12:39:48.984Z</time></trkpt><trkpt lat="45.9723917" lon="12.6137233"><ele>44.0</ele><time>2026-03-27T12:39:49.984Z</time></trkpt><trkpt lat="45.9725367" lon="12.6137567"><ele>44.0</ele><time>2026-03-27T12:39:50.984Z</time></trkpt><trkpt lat="45.9726767" lon="12.6137933"><ele>44.0</ele><time>2026-03-27T12:39:51.983Z</time></trkpt><trkpt lat="45.9728" lon="12.6138283"><ele>44.0</ele><time>2026-03-27T12:39:52.983Z</time></trkpt><trkpt lat="45.9729083" lon="12.6138683"><ele>44.0</ele><time>2026-03-27T12:39:53.983Z</time></trkpt><trkpt lat="45.973" lon="12.6139167"><ele>44.0</ele><time>2026-03-27T12:39:54.983Z</time></trkpt><trkpt lat="45.9730883" lon="12.6139533"><ele>44.0</ele><time>2026-03-27T12:39:55.984Z</time></trkpt><trkpt lat="45.97319" lon="12.6139633"><ele>44.0</ele><time>2026-03-27T12:39:56.984Z</time></trkpt><trkpt lat="45.9733017" lon="12.6139683"><ele>44.75</ele><time>2026-03-27T12:39:57.983Z</time></trkpt><trkpt lat="45.9734183" lon="12.6139817"><ele>45.5</ele><time>2026-03-27T12:39:58.983Z</time></trkpt><trkpt lat="45.9735317" lon="12.6140217"><ele>46.25</ele><time>2026-03-27T12:39:59.983Z</time></trkpt><trkpt lat="45.97365" lon="12.6140633"><ele>47.0</ele><time>2026-03-27T12:40:00.985Z</time></trkpt><trkpt lat="45.9737717" lon="12.6141067"><ele>47.0</ele><time>2026-03-27T12:40:01.983Z</time></trkpt><trkpt lat="45.9738983" lon="12.6141583"><ele>47.0</ele><time>2026-03-27T12:40:02.984Z</time></trkpt><trkpt lat="45.974035" lon="12.614205"><ele>47.0</ele><time>2026-03-27T12:40:03.985Z</time></trkpt><trkpt lat="45.9741783" lon="12.61425"><ele>47.0</ele><time>2026-03-27T12:40:04.985Z</time></trkpt><trkpt lat="45.974325" lon="12.6143"><ele>47.33333333333333</ele><time>2026-03-27T12:40:05.983Z</time></trkpt><trkpt lat="45.9744767" lon="12.61435"><ele>47.666666666666664</ele><time>2026-03-27T12:40:06.983Z</time></trkpt><trkpt lat="45.9746283" lon="12.6143983"><ele>48.0</ele><time>2026-03-27T12:40:07.983Z</time></trkpt><trkpt lat="45.97478" lon="12.61445"><ele>47.666666666666664</ele><time>2026-03-27T12:40:08.984Z</time></trkpt><trkpt lat="45.97494" lon="12.6144883"><ele>47.33333333333333</ele><time>2026-03-27T12:40:09.984Z</time></trkpt><trkpt lat="45.9750983" lon="12.6145383"><ele>47.0</ele><time>2026-03-27T12:40:10.983Z</time></trkpt><trkpt lat="45.9752567" lon="12.61458"><ele>47.666666666666664</ele><time>2026-03-27T12:40:11.983Z</time></trkpt><trkpt lat="45.97542" lon="12.6146183"><ele>48.33333333333333</ele><time>2026-03-27T12:40:12.983Z</time></trkpt><trkpt lat="45.9755883" lon="12.6146633"><ele>49.0</ele><time>2026-03-27T12:40:13.984Z</time></trkpt><trkpt lat="45.975755" lon="12.6147083"><ele>49.33333333333333</ele><time>2026-03-27T12:40:14.983Z</time></trkpt><trkpt lat="45.9759233" lon="12.614755"><ele>49.66666666666667</ele><time>2026-03-27T12:40:15.983Z</time></trkpt><trkpt lat="45.976095" lon="12.6147967"><ele>50.0</ele><time>2026-03-27T12:40:16.984Z</time></trkpt><trkpt lat="45.9762683" lon="12.6148383"><ele>50.0</ele><time>2026-03-27T12:40:17.984Z</time></trkpt><trkpt lat="45.97644" lon="12.61488"><ele>50.0</ele><time>2026-03-27T12:40:18.984Z</time></trkpt><trkpt lat="45.97661" lon="12.614935"><ele>50.0</ele><time>2026-03-27T12:40:19.984Z</time></trkpt><trkpt lat="45.9767833" lon="12.6149833"><ele>50.66666666666667</ele><time>2026-03-27T12:40:20.984Z</time></trkpt><trkpt lat="45.9769533" lon="12.6150433"><ele>51.33333333333333</ele><time>2026-03-27T12:40:21.983Z</time></trkpt><trkpt lat="45.9771217" lon="12.615095"><ele>52.0</ele><time>2026-03-27T12:40:22.984Z</time></trkpt><trkpt lat="45.9772883" lon="12.6151517"><ele>52.0</ele><time>2026-03-27T12:40:23.984Z</time></trkpt><trkpt lat="45.9774533" lon="12.6152"><ele>52.0</ele><time>2026-03-27T12:40:24.983Z</time></trkpt><trkpt lat="45.9776217" lon="12.6152517"><ele>52.0</ele><time>2026-03-27T12:40:25.984Z</time></trkpt><trkpt lat="45.97779" lon="12.6152983"><ele>52.0</ele><time>2026-03-27T12:40:26.984Z</time></trkpt><trkpt lat="45.9779567" lon="12.6153483"><ele>52.0</ele><time>2026-03-27T12:40:27.984Z</time></trkpt><trkpt lat="45.9781233" lon="12.6154033"><ele>52.0</ele><time>2026-03-27T12:40:28.985Z</time></trkpt><trkpt lat="45.9782917" lon="12.6154483"><ele>52.33333333333333</ele><time>2026-03-27T12:40:29.985Z</time></trkpt><trkpt lat="45.97846" lon="12.6155017"><ele>52.66666666666667</ele><time>2026-03-27T12:40:30.984Z</time></trkpt><trkpt lat="45.9786283" lon="12.6155483"><ele>53.0</ele><time>2026-03-27T12:40:31.983Z</time></trkpt><trkpt lat="45.9787983" lon="12.6155983"><ele>53.0</ele><time>2026-03-27T12:40:32.984Z</time></trkpt><trkpt lat="45.978965" lon="12.6156467"><ele>53.0</ele><time>2026-03-27T12:40:33.983Z</time></trkpt><trkpt lat="45.9791333" lon="12.6156967"><ele>53.0</ele><time>2026-03-27T12:40:34.983Z</time></trkpt><trkpt lat="45.9793017" lon="12.615745"><ele>54.333333333333336</ele><time>2026-03-27T12:40:35.984Z</time></trkpt><trkpt lat="45.9794733" lon="12.6157933"><ele>55.66666666666667</ele><time>2026-03-27T12:40:36.983Z</time></trkpt><trkpt lat="45.9796467" lon="12.6158417"><ele>57.0</ele><time>2026-03-27T12:40:37.983Z</time></trkpt><trkpt lat="45.9798187" lon="12.6158899"><ele>57.0</ele><time>2026-03-27T12:40:38.985Z</time></trkpt><trkpt lat="45.9799919" lon="12.6159347"><ele>57.0</ele><time>2026-03-27T12:40:39.984Z</time></trkpt><trkpt lat="45.9801641" lon="12.6159808"><ele>57.0</ele><time>2026-03-27T12:40:40.983Z</time></trkpt><trkpt lat="45.9803388" lon="12.616023"><ele>57.33333333333333</ele><time>2026-03-27T12:40:41.984Z</time></trkpt><trkpt lat="45.9805104" lon="12.6160691"><ele>57.666666666666664</ele><time>2026-03-27T12:40:42.983Z</time></trkpt><trkpt lat="45.9806819" lon="12.6161163"><ele>58.0</ele><time>2026-03-27T12:40:43.983Z</time></trkpt><trkpt lat="45.980853" lon="12.6161518"><ele>58.0</ele><time>2026-03-27T12:40:44.985Z</time></trkpt><trkpt lat="45.9810239" lon="12.6161924"><ele>58.0</ele><time>2026-03-27T12:40:45.984Z</time></trkpt><trkpt lat="45.9811954" lon="12.6162303"><ele>58.0</ele><time>2026-03-27T12:40:46.983Z</time></trkpt><trkpt lat="45.981367" lon="12.6162637"><ele>58.0</ele><time>2026-03-27T12:40:47.983Z</time></trkpt><trkpt lat="45.9815413" lon="12.6163019"><ele>58.0</ele><time>2026-03-27T12:40:48.984Z</time></trkpt><trkpt lat="45.9817159" lon="12.6163504"><ele>58.0</ele><time>2026-03-27T12:40:49.984Z</time></trkpt><trkpt lat="45.9818885" lon="12.616397"><ele>58.0</ele><time>2026-03-27T12:40:50.984Z</time></trkpt><trkpt lat="45.9820579" lon="12.6164436"><ele>58.0</ele><time>2026-03-27T12:40:51.983Z</time></trkpt><trkpt lat="45.9822272" lon="12.6164901"><ele>58.0</ele><time>2026-03-27T12:40:52.983Z</time></trkpt><trkpt lat="45.9823954" lon="12.6165211"><ele>58.666666666666664</ele><time>2026-03-27T12:40:53.983Z</time></trkpt><trkpt lat="45.9825652" lon="12.6165363"><ele>59.33333333333333</ele><time>2026-03-27T12:40:54.983Z</time></trkpt><trkpt lat="45.982734" lon="12.6165386"><ele>60.0</ele><time>2026-03-27T12:40:55.984Z</time></trkpt><trkpt lat="45.9829037" lon="12.6165513"><ele>60.0</ele><time>2026-03-27T12:40:56.983Z</time></trkpt><trkpt lat="45.9830741" lon="12.6165623"><ele>60.0</ele><time>2026-03-27T12:40:57.983Z</time></trkpt><trkpt lat="45.9832466" lon="12.6165726"><ele>60.0</ele><time>2026-03-27T12:40:58.984Z</time></trkpt><trkpt lat="45.9834211" lon="12.6165815"><ele>60.66666666666667</ele><time>2026-03-27T12:40:59.984Z</time></trkpt><trkpt lat="45.9835948" lon="12.6165853"><ele>61.333333333333336</ele><time>2026-03-27T12:41:00.984Z</time></trkpt><trkpt lat="45.983769" lon="12.6165933"><ele>62.0</ele><time>2026-03-27T12:41:01.983Z</time></trkpt><trkpt lat="45.9839434" lon="12.6166004"><ele>62.0</ele><time>2026-03-27T12:41:02.985Z</time></trkpt><trkpt lat="45.984117" lon="12.6165988"><ele>62.0</ele><time>2026-03-27T12:41:03.984Z</time></trkpt><trkpt lat="45.9842914" lon="12.6165901"><ele>62.0</ele><time>2026-03-27T12:41:04.983Z</time></trkpt><trkpt lat="45.9844666" lon="12.6165838"><ele>62.0</ele><time>2026-03-27T12:41:05.983Z</time></trkpt><trkpt lat="45.9846417" lon="12.6165759"><ele>62.0</ele><time>2026-03-27T12:41:06.983Z</time></trkpt><trkpt lat="45.9848158" lon="12.6165724"><ele>62.0</ele><time>2026-03-27T12:41:07.983Z</time></trkpt><trkpt lat="45.9849903" lon="12.6165737"><ele>62.333333333333336</ele><time>2026-03-27T12:41:08.984Z</time></trkpt><trkpt lat="45.9851638" lon="12.6165719"><ele>62.66666666666667</ele><time>2026-03-27T12:41:09.984Z</time></trkpt><trkpt lat="45.9853371" lon="12.6165656"><ele>63.0</ele><time>2026-03-27T12:41:10.983Z</time></trkpt><trkpt lat="45.9855131" lon="12.6165552"><ele>63.0</ele><time>2026-03-27T12:41:11.985Z</time></trkpt><trkpt lat="45.985688" lon="12.6165357"><ele>63.0</ele><time>2026-03-27T12:41:12.984Z</time></trkpt><trkpt lat="45.9858647" lon="12.6165097"><ele>63.0</ele><time>2026-03-27T12:41:13.984Z</time></trkpt><trkpt lat="45.986043" lon="12.6164795"><ele>63.33333333333333</ele><time>2026-03-27T12:41:14.985Z</time></trkpt><trkpt lat="45.9862212" lon="12.6164542"><ele>63.666666666666664</ele><time>2026-03-27T12:41:15.983Z</time></trkpt><trkpt lat="45.9863997" lon="12.6164278"><ele>64.0</ele><time>2026-03-27T12:41:16.985Z</time></trkpt><trkpt lat="45.9865752" lon="12.6164015"><ele>64.0</ele><time>2026-03-27T12:41:17.986Z</time></trkpt><trkpt lat="45.9867512" lon="12.6163748"><ele>64.0</ele><time>2026-03-27T12:41:18.983Z</time></trkpt><trkpt lat="45.9869269" lon="12.6163399"><ele>64.0</ele><time>2026-03-27T12:41:19.985Z</time></trkpt><trkpt lat="45.987102" lon="12.6163025"><ele>64.0</ele><time>2026-03-27T12:41:20.987Z</time></trkpt><trkpt lat="45.9872779" lon="12.6162702"><ele>64.0</ele><time>2026-03-27T12:41:21.985Z</time></trkpt><trkpt lat="45.9874545" lon="12.6162338"><ele>64.0</ele><time>2026-03-27T12:41:22.985Z</time></trkpt><trkpt lat="45.9876324" lon="12.6161937"><ele>64.66666666666666</ele><time>2026-03-27T12:41:23.985Z</time></trkpt><trkpt lat="45.9878073" lon="12.6161549"><ele>65.33333333333333</ele><time>2026-03-27T12:41:24.986Z</time></trkpt><trkpt lat="45.9879831" lon="12.6161257"><ele>66.0</ele><time>2026-03-27T12:41:25.985Z</time></trkpt><trkpt lat="45.9881593" lon="12.6160996"><ele>66.0</ele><time>2026-03-27T12:41:26.985Z</time></trkpt><trkpt lat="45.9883361" lon="12.6160743"><ele>66.0</ele><time>2026-03-27T12:41:27.985Z</time></trkpt><trkpt lat="45.9885116" lon="12.6160516"><ele>66.0</ele><time>2026-03-27T12:41:28.985Z</time></trkpt><trkpt lat="45.9886869" lon="12.6160345"><ele>67.0</ele><time>2026-03-27T12:41:29.985Z</time></trkpt><trkpt lat="45.9888619" lon="12.6160308"><ele>68.0</ele><time>2026-03-27T12:41:30.986Z</time></trkpt><trkpt lat="45.9890366" lon="12.6160428"><ele>69.0</ele><time>2026-03-27T12:41:31.987Z</time></trkpt><trkpt lat="45.9892118" lon="12.6160666"><ele>69.0</ele><time>2026-03-27T12:41:32.984Z</time></trkpt><trkpt lat="45.9893855" lon="12.6160963"><ele>69.0</ele><time>2026-03-27T12:41:33.984Z</time></trkpt><trkpt lat="45.9895592" lon="12.61613"><ele>69.0</ele><time>2026-03-27T12:41:34.986Z</time></trkpt><trkpt lat="45.9897319" lon="12.6161587"><ele>69.0</ele><time>2026-03-27T12:41:35.984Z</time></trkpt><trkpt lat="45.989907" lon="12.6161837"><ele>69.0</ele><time>2026-03-27T12:41:36.987Z</time></trkpt><trkpt lat="45.9900813" lon="12.6162052"><ele>69.0</ele><time>2026-03-27T12:41:37.983Z</time></trkpt><trkpt lat="45.9902567" lon="12.6162291"><ele>69.0</ele><time>2026-03-27T12:41:38.985Z</time></trkpt><trkpt lat="45.9904252" lon="12.6162549"><ele>69.0</ele><time>2026-03-27T12:41:39.983Z</time></trkpt><trkpt lat="45.9905742" lon="12.6162772"><ele>69.0</ele><time>2026-03-27T12:41:40.983Z</time></trkpt><trkpt lat="45.9907001" lon="12.6162938"><ele>69.0</ele><time>2026-03-27T12:41:41.983Z</time></trkpt><trkpt lat="45.9908039" lon="12.6163137"><ele>69.33333333333333</ele><time>2026-03-27T12:41:42.983Z</time></trkpt><trkpt lat="45.9908877" lon="12.6163455"><ele>69.66666666666667</ele><time>2026-03-27T12:41:43.983Z</time></trkpt><trkpt lat="45.9909417" lon="12.6164119"><ele>70.0</ele><time>2026-03-27T12:41:44.984Z</time></trkpt><trkpt lat="45.9909767" lon="12.6164962"><ele>70.33333333333334</ele><time>2026-03-27T12:41:45.984Z</time></trkpt><trkpt lat="45.9910471" lon="12.6166028"><ele>70.66666666666667</ele><time>2026-03-27T12:41:47.983Z</time></trkpt><trkpt lat="45.9911467" lon="12.6166783"><ele>71.0</ele><time>2026-03-27T12:43:52.983Z</time></trkpt><trkpt lat="45.9912217" lon="12.616755"><ele>71.0</ele><time>2026-03-27T12:43:54.982Z</time></trkpt><trkpt lat="45.991295" lon="12.6165817"><ele>71.0</ele><time>2026-03-27T12:43:56.984Z</time></trkpt><trkpt lat="45.991395" lon="12.6164733"><ele>71.0</ele><time>2026-03-27T12:43:58.983Z</time></trkpt><trkpt lat="45.9914633" lon="12.616445"><ele>71.0</ele><time>2026-03-27T12:43:59.982Z</time></trkpt><trkpt lat="45.99155" lon="12.6164433"><ele>71.0</ele><time>2026-03-27T12:44:00.982Z</time></trkpt><trkpt lat="45.9916667" lon="12.6165"><ele>71.25</ele><time>2026-03-27T12:44:01.983Z</time></trkpt><trkpt lat="45.9917833" lon="12.6165567"><ele>71.5</ele><time>2026-03-27T12:44:02.982Z</time></trkpt><trkpt lat="45.9919167" lon="12.6165983"><ele>71.75</ele><time>2026-03-27T12:44:03.983Z</time></trkpt><trkpt lat="45.992055" lon="12.6166317"><ele>72.0</ele><time>2026-03-27T12:44:04.982Z</time></trkpt><trkpt lat="45.9921917" lon="12.61668"><ele>72.0</ele><time>2026-03-27T12:44:05.982Z</time></trkpt><trkpt lat="45.9923183" lon="12.616735"><ele>72.0</ele><time>2026-03-27T12:44:06.982Z</time></trkpt><trkpt lat="45.99245" lon="12.6167883"><ele>72.0</ele><time>2026-03-27T12:44:07.982Z</time></trkpt><trkpt lat="45.9925883" lon="12.6168417"><ele>72.0</ele><time>2026-03-27T12:44:08.985Z</time></trkpt><trkpt lat="45.9927267" lon="12.6169"><ele>72.33333333333333</ele><time>2026-03-27T12:44:09.982Z</time></trkpt><trkpt lat="45.99287" lon="12.6169617"><ele>72.66666666666666</ele><time>2026-03-27T12:44:10.982Z</time></trkpt><trkpt lat="45.99302" lon="12.6170283"><ele>73.0</ele><time>2026-03-27T12:44:11.982Z</time></trkpt><trkpt lat="45.9931717" lon="12.6170917"><ele>73.0</ele><time>2026-03-27T12:44:12.986Z</time></trkpt><trkpt lat="45.9933267" lon="12.617165"><ele>73.0</ele><time>2026-03-27T12:44:13.983Z</time></trkpt><trkpt lat="45.993485" lon="12.6172333"><ele>73.0</ele><time>2026-03-27T12:44:14.982Z</time></trkpt><trkpt lat="45.9936467" lon="12.617305"><ele>74.0</ele><time>2026-03-27T12:44:15.982Z</time></trkpt><trkpt lat="45.993815" lon="12.6173633"><ele>75.0</ele><time>2026-03-27T12:44:16.982Z</time></trkpt><trkpt lat="45.99398" lon="12.6174017"><ele>76.0</ele><time>2026-03-27T12:44:17.982Z</time></trkpt><trkpt lat="45.9941333" lon="12.6174033"><ele>76.2</ele><time>2026-03-27T12:44:18.982Z</time></trkpt><trkpt lat="45.99427" lon="12.6173883"><ele>76.39999999999999</ele><time>2026-03-27T12:44:19.983Z</time></trkpt><trkpt lat="45.9943867" lon="12.6173783"><ele>76.6</ele><time>2026-03-27T12:44:20.983Z</time></trkpt><trkpt lat="45.9944883" lon="12.6173617"><ele>76.8</ele><time>2026-03-27T12:44:21.982Z</time></trkpt><trkpt lat="45.9945783" lon="12.6173783"><ele>77.0</ele><time>2026-03-27T12:44:22.982Z</time></trkpt><trkpt lat="45.99466" lon="12.6174267"><ele>77.0</ele><time>2026-03-27T12:44:23.983Z</time></trkpt><trkpt lat="45.99474" lon="12.6175017"><ele>77.0</ele><time>2026-03-27T12:44:24.982Z</time></trkpt><trkpt lat="45.9948267" lon="12.6176083"><ele>77.0</ele><time>2026-03-27T12:44:25.982Z</time></trkpt><trkpt lat="45.994925" lon="12.617705"><ele>77.0</ele><time>2026-03-27T12:44:26.982Z</time></trkpt><trkpt lat="45.99503" lon="12.6177533"><ele>77.0</ele><time>2026-03-27T12:44:27.984Z</time></trkpt><trkpt lat="45.9951383" lon="12.61779"><ele>77.5</ele><time>2026-03-27T12:44:28.982Z</time></trkpt><trkpt lat="45.995245" lon="12.6178433"><ele>78.0</ele><time>2026-03-27T12:44:29.984Z</time></trkpt><trkpt lat="45.9953633" lon="12.61789"><ele>78.5</ele><time>2026-03-27T12:44:30.984Z</time></trkpt><trkpt lat="45.9954817" lon="12.6179383"><ele>79.0</ele><time>2026-03-27T12:44:31.985Z</time></trkpt><trkpt lat="45.9956" lon="12.6180017"><ele>79.0</ele><time>2026-03-27T12:44:32.983Z</time></trkpt><trkpt lat="45.9957117" lon="12.6180483"><ele>79.0</ele><time>2026-03-27T12:44:33.983Z</time></trkpt><trkpt lat="45.9958167" lon="12.61808"><ele>79.0</ele><time>2026-03-27T12:44:34.985Z</time></trkpt><trkpt lat="45.99592" lon="12.6181167"><ele>79.0</ele><time>2026-03-27T12:44:35.982Z</time></trkpt><trkpt lat="45.996025" lon="12.6181567"><ele>79.0</ele><time>2026-03-27T12:44:36.982Z</time></trkpt><trkpt lat="45.9961383" lon="12.61819"><ele>79.4</ele><time>2026-03-27T12:44:37.986Z</time></trkpt><trkpt lat="45.9962533" lon="12.6182167"><ele>79.80000000000001</ele><time>2026-03-27T12:44:38.983Z</time></trkpt><trkpt lat="45.9963617" lon="12.6182417"><ele>80.19999999999999</ele><time>2026-03-27T12:44:39.983Z</time></trkpt><trkpt lat="45.9964533" lon="12.6182717"><ele>80.6</ele><time>2026-03-27T12:44:40.982Z</time></trkpt><trkpt lat="45.9965233" lon="12.61831"><ele>81.0</ele><time>2026-03-27T12:44:41.983Z</time></trkpt><trkpt lat="45.996615" lon="12.6184283"><ele>81.0</ele><time>2026-03-27T12:44:43.983Z</time></trkpt><trkpt lat="45.996635" lon="12.6185483"><ele>81.0</ele><time>2026-03-27T12:44:44.983Z</time></trkpt><trkpt lat="45.9966267" lon="12.618705"><ele>81.0</ele><time>2026-03-27T12:44:45.983Z</time></trkpt><trkpt lat="45.9966183" lon="12.61888"><ele>81.0</ele><time>2026-03-27T12:44:46.982Z</time></trkpt><trkpt lat="45.9966217" lon="12.6190733"><ele>80.33333333333333</ele><time>2026-03-27T12:44:47.982Z</time></trkpt><trkpt lat="45.99663" lon="12.6192833"><ele>79.66666666666666</ele><time>2026-03-27T12:44:48.985Z</time></trkpt><trkpt lat="45.9966367" lon="12.6195033"><ele>79.0</ele><time>2026-03-27T12:44:49.983Z</time></trkpt><trkpt lat="45.9966417" lon="12.619735"><ele>79.0</ele><time>2026-03-27T12:44:50.983Z</time></trkpt><trkpt lat="45.996645" lon="12.6199733"><ele>79.0</ele><time>2026-03-27T12:44:51.983Z</time></trkpt><trkpt lat="45.9966533" lon="12.62022"><ele>79.0</ele><time>2026-03-27T12:44:52.983Z</time></trkpt><trkpt lat="45.9966617" lon="12.620475"><ele>79.0</ele><time>2026-03-27T12:44:53.983Z</time></trkpt><trkpt lat="45.996665" lon="12.6207283"><ele>79.0</ele><time>2026-03-27T12:44:54.982Z</time></trkpt><trkpt lat="45.9966717" lon="12.62096"><ele>79.0</ele><time>2026-03-27T12:44:55.983Z</time></trkpt><trkpt lat="45.99668" lon="12.6211617"><ele>78.75</ele><time>2026-03-27T12:44:56.983Z</time></trkpt><trkpt lat="45.9966967" lon="12.6213617"><ele>78.5</ele><time>2026-03-27T12:44:57.983Z</time></trkpt><trkpt lat="45.996725" lon="12.6215483"><ele>78.25</ele><time>2026-03-27T12:44:58.982Z</time></trkpt><trkpt lat="45.99677" lon="12.6217333"><ele>78.0</ele><time>2026-03-27T12:44:59.984Z</time></trkpt><trkpt lat="45.99683" lon="12.6219333"><ele>78.0</ele><time>2026-03-27T12:45:00.983Z</time></trkpt><trkpt lat="45.9968967" lon="12.6221367"><ele>78.0</ele><time>2026-03-27T12:45:01.984Z</time></trkpt><trkpt lat="45.99697" lon="12.622345"><ele>78.0</ele><time>2026-03-27T12:45:02.983Z</time></trkpt><trkpt lat="45.997045" lon="12.622565"><ele>78.0</ele><time>2026-03-27T12:45:03.983Z</time></trkpt><trkpt lat="45.9971133" lon="12.6227933"><ele>78.0</ele><time>2026-03-27T12:45:04.983Z</time></trkpt><trkpt lat="45.9971783" lon="12.62303"><ele>78.0</ele><time>2026-03-27T12:45:05.983Z</time></trkpt><trkpt lat="45.9972433" lon="12.623265"><ele>78.0</ele><time>2026-03-27T12:45:06.982Z</time></trkpt><trkpt lat="45.99731" lon="12.6234883"><ele>78.0</ele><time>2026-03-27T12:45:07.983Z</time></trkpt><trkpt lat="45.997375" lon="12.6237017"><ele>78.0</ele><time>2026-03-27T12:45:08.984Z</time></trkpt><trkpt lat="45.9974433" lon="12.6239217"><ele>78.33333333333333</ele><time>2026-03-27T12:45:09.983Z</time></trkpt><trkpt lat="45.99751" lon="12.62415"><ele>78.66666666666666</ele><time>2026-03-27T12:45:10.984Z</time></trkpt><trkpt lat="45.997575" lon="12.62437"><ele>79.0</ele><time>2026-03-27T12:45:11.982Z</time></trkpt><trkpt lat="45.9976383" lon="12.6245833"><ele>79.0</ele><time>2026-03-27T12:45:12.983Z</time></trkpt><trkpt lat="45.9976933" lon="12.6247733"><ele>79.0</ele><time>2026-03-27T12:45:13.982Z</time></trkpt><trkpt lat="45.997745" lon="12.6249333"><ele>79.0</ele><time>2026-03-27T12:45:14.984Z</time></trkpt><trkpt lat="45.9977883" lon="12.62507"><ele>79.0</ele><time>2026-03-27T12:45:15.982Z</time></trkpt><trkpt lat="45.9978233" lon="12.6252"><ele>79.0</ele><time>2026-03-27T12:45:16.982Z</time></trkpt><trkpt lat="45.997855" lon="12.625325"><ele>79.0</ele><time>2026-03-27T12:45:17.982Z</time></trkpt><trkpt lat="45.9978783" lon="12.6254283"><ele>79.0</ele><time>2026-03-27T12:45:18.983Z</time></trkpt><trkpt lat="45.9979033" lon="12.62555"><ele>79.0</ele><time>2026-03-27T12:45:20.982Z</time></trkpt><trkpt lat="45.9979883" lon="12.6256467"><ele>79.0</ele><time>2026-03-27T12:45:23.982Z</time></trkpt><trkpt lat="45.9980567" lon="12.62568"><ele>79.0</ele><time>2026-03-27T12:45:24.983Z</time></trkpt><trkpt lat="45.9981483" lon="12.6256967"><ele>79.0</ele><time>2026-03-27T12:45:25.983Z</time></trkpt><trkpt lat="45.9982533" lon="12.6257033"><ele>79.0</ele><time>2026-03-27T12:45:26.984Z</time></trkpt><trkpt lat="45.9983683" lon="12.6257133"><ele>79.0</ele><time>2026-03-27T12:45:27.983Z</time></trkpt><trkpt lat="45.9984967" lon="12.62572"><ele>79.0</ele><time>2026-03-27T12:45:28.983Z</time></trkpt><trkpt lat="45.998635" lon="12.62573"><ele>79.0</ele><time>2026-03-27T12:45:29.984Z</time></trkpt><trkpt lat="45.99878" lon="12.6257433"><ele>79.0</ele><time>2026-03-27T12:45:30.982Z</time></trkpt><trkpt lat="45.9989383" lon="12.6257567"><ele>79.0</ele><time>2026-03-27T12:45:31.984Z</time></trkpt><trkpt lat="45.9990967" lon="12.6257733"><ele>79.66666666666666</ele><time>2026-03-27T12:45:32.982Z</time></trkpt><trkpt lat="45.9992633" lon="12.625795"><ele>80.33333333333333</ele><time>2026-03-27T12:45:33.982Z</time></trkpt><trkpt lat="45.9994317" lon="12.625825"><ele>81.0</ele><time>2026-03-27T12:45:34.985Z</time></trkpt><trkpt lat="45.9996033" lon="12.6258567"><ele>81.0</ele><time>2026-03-27T12:45:35.983Z</time></trkpt><trkpt lat="45.9997817" lon="12.6258817"><ele>81.0</ele><time>2026-03-27T12:45:36.983Z</time></trkpt><trkpt lat="45.99996" lon="12.62591"><ele>81.0</ele><time>2026-03-27T12:45:37.982Z</time></trkpt><trkpt lat="46.0001433" lon="12.62594"><ele>81.0</ele><time>2026-03-27T12:45:38.983Z</time></trkpt><trkpt lat="46.000335" lon="12.6259667"><ele>81.0</ele><time>2026-03-27T12:45:39.982Z</time></trkpt><trkpt lat="46.000525" lon="12.62599"><ele>81.0</ele><time>2026-03-27T12:45:40.982Z</time></trkpt><trkpt lat="46.0007117" lon="12.6260333"><ele>81.33333333333333</ele><time>2026-03-27T12:45:41.983Z</time></trkpt><trkpt lat="46.0009017" lon="12.626075"><ele>81.66666666666666</ele><time>2026-03-27T12:45:42.983Z</time></trkpt><trkpt lat="46.001095" lon="12.6261117"><ele>82.0</ele><time>2026-03-27T12:45:43.983Z</time></trkpt><trkpt lat="46.0012917" lon="12.6261383"><ele>82.0</ele><time>2026-03-27T12:45:44.983Z</time></trkpt><trkpt lat="46.0014917" lon="12.6261717"><ele>82.0</ele><time>2026-03-27T12:45:45.983Z</time></trkpt><trkpt lat="46.0016917" lon="12.6261983"><ele>82.0</ele><time>2026-03-27T12:45:46.984Z</time></trkpt><trkpt lat="46.00188" lon="12.6262267"><ele>82.0</ele><time>2026-03-27T12:45:47.983Z</time></trkpt><trkpt lat="46.002055" lon="12.6262533"><ele>82.0</ele><time>2026-03-27T12:45:48.983Z</time></trkpt><trkpt lat="46.0022167" lon="12.6262783"><ele>82.0</ele><time>2026-03-27T12:45:49.983Z</time></trkpt><trkpt lat="46.0023667" lon="12.6262967"><ele>82.0</ele><time>2026-03-27T12:45:50.983Z</time></trkpt><trkpt lat="46.002495" lon="12.6263633"><ele>82.0</ele><time>2026-03-27T12:45:51.983Z</time></trkpt><trkpt lat="46.0026033" lon="12.6264567"><ele>82.0</ele><time>2026-03-27T12:45:52.984Z</time></trkpt><trkpt lat="46.00268" lon="12.6265467"><ele>82.0</ele><time>2026-03-27T12:45:53.983Z</time></trkpt><trkpt lat="46.002735" lon="12.6266083"><ele>82.0</ele><time>2026-03-27T12:45:54.982Z</time></trkpt><trkpt lat="46.0027733" lon="12.6266833"><ele>82.6</ele><time>2026-03-27T12:45:58.983Z</time></trkpt><trkpt lat="46.0027983" lon="12.6267817"><ele>83.19999999999999</ele><time>2026-03-27T12:46:00.983Z</time></trkpt><trkpt lat="46.002815" lon="12.62691"><ele>83.8</ele><time>2026-03-27T12:46:02.983Z</time></trkpt><trkpt lat="46.0028467" lon="12.62704"><ele>84.4</ele><time>2026-03-27T12:46:04.982Z</time></trkpt><trkpt lat="46.0028883" lon="12.62711"><ele>85.0</ele><time>2026-03-27T12:46:05.982Z</time></trkpt><trkpt lat="46.0030133" lon="12.6271883"><ele>85.0</ele><time>2026-03-27T12:46:07.984Z</time></trkpt><trkpt lat="46.0030783" lon="12.6271783"><ele>85.0</ele><time>2026-03-27T12:46:08.983Z</time></trkpt><trkpt lat="46.0031417" lon="12.627125"><ele>85.0</ele><time>2026-03-27T12:46:09.984Z</time></trkpt><trkpt lat="46.0032083" lon="12.6270533"><ele>85.0</ele><time>2026-03-27T12:46:10.983Z</time></trkpt><trkpt lat="46.003295" lon="12.6269767"><ele>85.0</ele><time>2026-03-27T12:46:11.983Z</time></trkpt><trkpt lat="46.0034067" lon="12.6269317"><ele>85.0</ele><time>2026-03-27T12:46:12.984Z</time></trkpt><trkpt lat="46.0035317" lon="12.6269217"><ele>85.5</ele><time>2026-03-27T12:46:13.982Z</time></trkpt><trkpt lat="46.0036617" lon="12.6268983"><ele>86.0</ele><time>2026-03-27T12:46:14.983Z</time></trkpt><trkpt lat="46.0037933" lon="12.626855"><ele>86.5</ele><time>2026-03-27T12:46:15.985Z</time></trkpt><trkpt lat="46.00392" lon="12.6268133"><ele>87.0</ele><time>2026-03-27T12:46:16.982Z</time></trkpt><trkpt lat="46.00403" lon="12.6267717"><ele>87.0</ele><time>2026-03-27T12:46:17.983Z</time></trkpt><trkpt lat="46.0041183" lon="12.6267417"><ele>87.0</ele><time>2026-03-27T12:46:18.982Z</time></trkpt><trkpt lat="46.0041933" lon="12.626725"><ele>87.0</ele><time>2026-03-27T12:46:19.983Z</time></trkpt><trkpt lat="46.0042917" lon="12.6267567"><ele>87.0</ele><time>2026-03-27T12:46:21.982Z</time></trkpt><trkpt lat="46.0044133" lon="12.6267617"><ele>87.0</ele><time>2026-03-27T12:46:23.982Z</time></trkpt><trkpt lat="46.0045017" lon="12.6267783"><ele>87.0</ele><time>2026-03-27T12:46:24.983Z</time></trkpt><trkpt lat="46.0046333" lon="12.6268133"><ele>87.0</ele><time>2026-03-27T12:46:25.983Z</time></trkpt><trkpt lat="46.004785" lon="12.62684"><ele>87.0</ele><time>2026-03-27T12:46:26.983Z</time></trkpt><trkpt lat="46.00493" lon="12.6268667"><ele>87.0</ele><time>2026-03-27T12:46:27.984Z</time></trkpt><trkpt lat="46.0050583" lon="12.6268833"><ele>87.0</ele><time>2026-03-27T12:46:28.983Z</time></trkpt><trkpt lat="46.0051733" lon="12.626905"><ele>87.0</ele><time>2026-03-27T12:46:29.984Z</time></trkpt><trkpt lat="46.0052733" lon="12.6269233"><ele>87.0</ele><time>2026-03-27T12:46:30.983Z</time></trkpt><trkpt lat="46.0053567" lon="12.62694"><ele>87.0</ele><time>2026-03-27T12:46:31.983Z</time></trkpt><trkpt lat="46.005425" lon="12.62695"><ele>87.0</ele><time>2026-03-27T12:46:32.983Z</time></trkpt><trkpt lat="46.005505" lon="12.6269667"><ele>87.0</ele><time>2026-03-27T12:46:34.983Z</time></trkpt><trkpt lat="46.0055717" lon="12.6269983"><ele>87.0</ele><time>2026-03-27T12:56:24.982Z</time></trkpt><trkpt lat="46.005705" lon="12.62701"><ele>87.0</ele><time>2026-03-27T12:56:26.983Z</time></trkpt><trkpt lat="46.0057917" lon="12.62703"><ele>87.0</ele><time>2026-03-27T12:56:27.982Z</time></trkpt><trkpt lat="46.00589" lon="12.6270417"><ele>87.0</ele><time>2026-03-27T12:56:28.982Z</time></trkpt><trkpt lat="46.0059933" lon="12.627055"><ele>87.25</ele><time>2026-03-27T12:56:29.982Z</time></trkpt><trkpt lat="46.0061017" lon="12.6270683"><ele>87.5</ele><time>2026-03-27T12:56:30.982Z</time></trkpt><trkpt lat="46.0062183" lon="12.6270833"><ele>87.75</ele><time>2026-03-27T12:56:31.983Z</time></trkpt><trkpt lat="46.00634" lon="12.6271017"><ele>88.0</ele><time>2026-03-27T12:56:32.984Z</time></trkpt><trkpt lat="46.0064583" lon="12.6271217"><ele>88.0</ele><time>2026-03-27T12:56:33.983Z</time></trkpt><trkpt lat="46.0065783" lon="12.62714"><ele>88.0</ele><time>2026-03-27T12:56:34.982Z</time></trkpt><trkpt lat="46.0067017" lon="12.6271567"><ele>88.0</ele><time>2026-03-27T12:56:35.983Z</time></trkpt><trkpt lat="46.0068167" lon="12.6271717"><ele>88.0</ele><time>2026-03-27T12:56:36.982Z</time></trkpt><trkpt lat="46.0069283" lon="12.6271883"><ele>88.5</ele><time>2026-03-27T12:56:37.982Z</time></trkpt><trkpt lat="46.007045" lon="12.6271933"><ele>89.0</ele><time>2026-03-27T12:56:38.984Z</time></trkpt><trkpt lat="46.0071583" lon="12.627215"><ele>89.5</ele><time>2026-03-27T12:56:39.982Z</time></trkpt><trkpt lat="46.00727" lon="12.6272367"><ele>90.0</ele><time>2026-03-27T12:56:40.982Z</time></trkpt><trkpt lat="46.0073883" lon="12.627255"><ele>90.5</ele><time>2026-03-27T12:56:41.982Z</time></trkpt><trkpt lat="46.00751" lon="12.6272733"><ele>91.0</ele><time>2026-03-27T12:56:42.982Z</time></trkpt><trkpt lat="46.0076283" lon="12.6272933"><ele>91.5</ele><time>2026-03-27T12:56:43.984Z</time></trkpt><trkpt lat="46.0077467" lon="12.6273167"><ele>92.0</ele><time>2026-03-27T12:56:44.984Z</time></trkpt><trkpt lat="46.007865" lon="12.6273383"><ele>92.0</ele><time>2026-03-27T12:56:45.982Z</time></trkpt><trkpt lat="46.007985" lon="12.62736"><ele>92.0</ele><time>2026-03-27T12:56:46.982Z</time></trkpt><trkpt lat="46.008105" lon="12.6273817"><ele>92.0</ele><time>2026-03-27T12:56:47.982Z</time></trkpt><trkpt lat="46.0082267" lon="12.6274017"><ele>92.0</ele><time>2026-03-27T12:56:48.982Z</time></trkpt><trkpt lat="46.00835" lon="12.6274183"><ele>91.5</ele><time>2026-03-27T12:56:49.982Z</time></trkpt><trkpt lat="46.0084767" lon="12.62744"><ele>91.0</ele><time>2026-03-27T12:56:50.987Z</time></trkpt><trkpt lat="46.0086" lon="12.627465"><ele>90.5</ele><time>2026-03-27T12:56:51.985Z</time></trkpt><trkpt lat="46.00873" lon="12.6274917"><ele>90.0</ele><time>2026-03-27T12:56:52.982Z</time></trkpt><trkpt lat="46.00886" lon="12.6275167"><ele>90.0</ele><time>2026-03-27T12:56:53.982Z</time></trkpt><trkpt lat="46.00899" lon="12.6275417"><ele>90.0</ele><time>2026-03-27T12:56:54.982Z</time></trkpt><trkpt lat="46.0091217" lon="12.6275667"><ele>90.0</ele><time>2026-03-27T12:56:55.982Z</time></trkpt><trkpt lat="46.00926" lon="12.627595"><ele>90.0</ele><time>2026-03-27T12:56:56.984Z</time></trkpt><trkpt lat="46.0094017" lon="12.6276183"><ele>90.75</ele><time>2026-03-27T12:56:57.982Z</time></trkpt><trkpt lat="46.0095383" lon="12.6276417"><ele>91.5</ele><time>2026-03-27T12:56:58.982Z</time></trkpt><trkpt lat="46.0096767" lon="12.627665"><ele>92.25</ele><time>2026-03-27T12:56:59.983Z</time></trkpt><trkpt lat="46.009815" lon="12.62769"><ele>93.0</ele><time>2026-03-27T12:57:00.983Z</time></trkpt><trkpt lat="46.0099567" lon="12.6277167"><ele>93.0</ele><time>2026-03-27T12:57:01.984Z</time></trkpt><trkpt lat="46.0100917" lon="12.6277417"><ele>93.0</ele><time>2026-03-27T12:57:02.986Z</time></trkpt><trkpt lat="46.01023" lon="12.6277733"><ele>93.0</ele><time>2026-03-27T12:57:03.982Z</time></trkpt><trkpt lat="46.0103683" lon="12.62781"><ele>93.0</ele><time>2026-03-27T12:57:04.982Z</time></trkpt><trkpt lat="46.0105067" lon="12.6278433"><ele>93.0</ele><time>2026-03-27T12:57:05.984Z</time></trkpt><trkpt lat="46.0106486" lon="12.6278763"><ele>93.0</ele><time>2026-03-27T12:57:06.983Z</time></trkpt><trkpt lat="46.0107921" lon="12.6279059"><ele>93.0</ele><time>2026-03-27T12:57:07.982Z</time></trkpt><trkpt lat="46.0109354" lon="12.627937"><ele>93.0</ele><time>2026-03-27T12:57:08.983Z</time></trkpt><trkpt lat="46.0110778" lon="12.6279655"><ele>93.0</ele><time>2026-03-27T12:57:09.982Z</time></trkpt><trkpt lat="46.011221" lon="12.6279939"><ele>93.0</ele><time>2026-03-27T12:57:10.982Z</time></trkpt><trkpt lat="46.0113643" lon="12.6280246"><ele>93.0</ele><time>2026-03-27T12:57:11.983Z</time></trkpt><trkpt lat="46.0115086" lon="12.6280545"><ele>93.0</ele><time>2026-03-27T12:57:12.984Z</time></trkpt><trkpt lat="46.0116575" lon="12.6280836"><ele>93.75</ele><time>2026-03-27T12:57:13.983Z</time></trkpt><trkpt lat="46.0118047" lon="12.6281077"><ele>94.5</ele><time>2026-03-27T12:57:14.985Z</time></trkpt><trkpt lat="46.0119523" lon="12.62813"><ele>95.25</ele><time>2026-03-27T12:57:15.983Z</time></trkpt><trkpt lat="46.0121006" lon="12.6281421"><ele>96.0</ele><time>2026-03-27T12:57:16.984Z</time></trkpt><trkpt lat="46.0122486" lon="12.628167"><ele>96.0</ele><time>2026-03-27T12:57:17.983Z</time></trkpt><trkpt lat="46.0123981" lon="12.6281925"><ele>96.0</ele><time>2026-03-27T12:57:18.983Z</time></trkpt><trkpt lat="46.0125494" lon="12.6282131"><ele>96.0</ele><time>2026-03-27T12:57:19.983Z</time></trkpt><trkpt lat="46.0126938" lon="12.6282363"><ele>96.0</ele><time>2026-03-27T12:57:20.983Z</time></trkpt><trkpt lat="46.0128265" lon="12.6282587"><ele>96.4</ele><time>2026-03-27T12:57:21.983Z</time></trkpt><trkpt lat="46.0129497" lon="12.6282773"><ele>96.8</ele><time>2026-03-27T12:57:22.982Z</time></trkpt><trkpt lat="46.0130571" lon="12.6282924"><ele>97.2</ele><time>2026-03-27T12:57:23.984Z</time></trkpt><trkpt lat="46.0131493" lon="12.6282959"><ele>97.60000000000001</ele><time>2026-03-27T12:57:24.983Z</time></trkpt><trkpt lat="46.0132247" lon="12.6282961"><ele>98.0</ele><time>2026-03-27T12:57:25.983Z</time></trkpt><trkpt lat="46.013311" lon="12.6282966"><ele>98.4</ele><time>2026-03-27T12:57:27.982Z</time></trkpt><trkpt lat="46.0134148" lon="12.6283005"><ele>98.80000000000001</ele><time>2026-03-27T12:57:29.984Z</time></trkpt><trkpt lat="46.0135049" lon="12.6283208"><ele>99.2</ele><time>2026-03-27T12:57:30.984Z</time></trkpt><trkpt lat="46.013618" lon="12.6283421"><ele>99.6</ele><time>2026-03-27T12:57:31.982Z</time></trkpt><trkpt lat="46.0137449" lon="12.6283546"><ele>100.0</ele><time>2026-03-27T12:57:32.983Z</time></trkpt><trkpt lat="46.0138802" lon="12.6283619"><ele>100.0</ele><time>2026-03-27T12:57:33.985Z</time></trkpt><trkpt lat="46.0140268" lon="12.6283764"><ele>100.0</ele><time>2026-03-27T12:57:34.983Z</time></trkpt><trkpt lat="46.0141797" lon="12.6283912"><ele>100.0</ele><time>2026-03-27T12:57:35.982Z</time></trkpt><trkpt lat="46.0143318" lon="12.6283998"><ele>100.33333333333334</ele><time>2026-03-27T12:57:36.987Z</time></trkpt><trkpt lat="46.0144905" lon="12.6284081"><ele>100.66666666666666</ele><time>2026-03-27T12:57:37.989Z</time></trkpt><trkpt lat="46.0146501" lon="12.6284176"><ele>101.0</ele><time>2026-03-27T12:57:38.983Z</time></trkpt><trkpt lat="46.0148062" lon="12.6284332"><ele>101.0</ele><time>2026-03-27T12:57:39.983Z</time></trkpt><trkpt lat="46.0149637" lon="12.6284492"><ele>101.0</ele><time>2026-03-27T12:57:40.982Z</time></trkpt><trkpt lat="46.0151216" lon="12.6284594"><ele>101.0</ele><time>2026-03-27T12:57:41.985Z</time></trkpt><trkpt lat="46.0152771" lon="12.6284717"><ele>101.5</ele><time>2026-03-27T12:57:42.988Z</time></trkpt><trkpt lat="46.015425" lon="12.6284878"><ele>102.0</ele><time>2026-03-27T12:57:43.983Z</time></trkpt><trkpt lat="46.0155613" lon="12.6285053"><ele>102.5</ele><time>2026-03-27T12:57:44.985Z</time></trkpt><trkpt lat="46.0156876" lon="12.6285218"><ele>103.0</ele><time>2026-03-27T12:57:45.983Z</time></trkpt><trkpt lat="46.0158025" lon="12.6285421"><ele>102.80000000000001</ele><time>2026-03-27T12:57:46.985Z</time></trkpt><trkpt lat="46.0159161" lon="12.628562"><ele>102.6</ele><time>2026-03-27T12:57:47.983Z</time></trkpt><trkpt lat="46.0160272" lon="12.6285791"><ele>102.4</ele><time>2026-03-27T12:57:48.982Z</time></trkpt><trkpt lat="46.0161241" lon="12.6285931"><ele>102.19999999999999</ele><time>2026-03-27T12:57:49.982Z</time></trkpt><trkpt lat="46.0162021" lon="12.6286059"><ele>102.0</ele><time>2026-03-27T12:57:50.984Z</time></trkpt><trkpt lat="46.0162721" lon="12.6286174"><ele>102.0</ele><time>2026-03-27T12:57:51.983Z</time></trkpt><trkpt lat="46.0163379" lon="12.6286271"><ele>102.0</ele><time>2026-03-27T12:57:52.983Z</time></trkpt><trkpt lat="46.0164023" lon="12.6286365"><ele>102.0</ele><time>2026-03-27T12:57:53.982Z</time></trkpt><trkpt lat="46.0164779" lon="12.6286538"><ele>102.0</ele><time>2026-03-27T12:57:54.982Z</time></trkpt><trkpt lat="46.0165679" lon="12.6286752"><ele>102.0</ele><time>2026-03-27T12:57:55.983Z</time></trkpt><trkpt lat="46.0166722" lon="12.6286924"><ele>102.0</ele><time>2026-03-27T12:57:56.983Z</time></trkpt><trkpt lat="46.0167818" lon="12.6287142"><ele>102.0</ele><time>2026-03-27T12:57:57.983Z</time></trkpt><trkpt lat="46.0168959" lon="12.6287412"><ele>102.0</ele><time>2026-03-27T12:57:58.983Z</time></trkpt><trkpt lat="46.0170157" lon="12.6287727"><ele>102.0</ele><time>2026-03-27T12:57:59.982Z</time></trkpt><trkpt lat="46.0171396" lon="12.6288039"><ele>102.0</ele><time>2026-03-27T12:58:00.983Z</time></trkpt><trkpt lat="46.0172679" lon="12.6288331"><ele>102.0</ele><time>2026-03-27T12:58:01.983Z</time></trkpt><trkpt lat="46.0173993" lon="12.6288577"><ele>102.0</ele><time>2026-03-27T12:58:02.984Z</time></trkpt><trkpt lat="46.0175321" lon="12.6288827"><ele>102.0</ele><time>2026-03-27T12:58:03.983Z</time></trkpt><trkpt lat="46.0176671" lon="12.628909"><ele>102.0</ele><time>2026-03-27T12:58:04.982Z</time></trkpt><trkpt lat="46.0178027" lon="12.6289367"><ele>102.0</ele><time>2026-03-27T12:58:05.983Z</time></trkpt><trkpt lat="46.0179436" lon="12.6289639"><ele>102.0</ele><time>2026-03-27T12:58:06.982Z</time></trkpt><trkpt lat="46.0180888" lon="12.6289902"><ele>102.0</ele><time>2026-03-27T12:58:07.988Z</time></trkpt><trkpt lat="46.0182347" lon="12.6290231"><ele>102.0</ele><time>2026-03-27T12:58:08.983Z</time></trkpt><trkpt lat="46.0183831" lon="12.629059"><ele>101.66666666666666</ele><time>2026-03-27T12:58:09.984Z</time></trkpt><trkpt lat="46.0185328" lon="12.6290931"><ele>101.33333333333333</ele><time>2026-03-27T12:58:10.984Z</time></trkpt><trkpt lat="46.0186846" lon="12.629127"><ele>101.0</ele><time>2026-03-27T12:58:11.985Z</time></trkpt><trkpt lat="46.0188392" lon="12.6291627"><ele>101.0</ele><time>2026-03-27T12:58:12.984Z</time></trkpt><trkpt lat="46.0189964" lon="12.629196"><ele>101.0</ele><time>2026-03-27T12:58:13.983Z</time></trkpt><trkpt lat="46.0191547" lon="12.6292305"><ele>101.0</ele><time>2026-03-27T12:58:14.983Z</time></trkpt><trkpt lat="46.0193123" lon="12.6292654"><ele>102.0</ele><time>2026-03-27T12:58:15.983Z</time></trkpt><trkpt lat="46.0194716" lon="12.6293004"><ele>103.0</ele><time>2026-03-27T12:58:16.984Z</time></trkpt><trkpt lat="46.0196318" lon="12.629332"><ele>104.0</ele><time>2026-03-27T12:58:17.987Z</time></trkpt><trkpt lat="46.0197916" lon="12.6293613"><ele>104.0</ele><time>2026-03-27T12:58:18.983Z</time></trkpt><trkpt lat="46.0199512" lon="12.6293851"><ele>104.0</ele><time>2026-03-27T12:58:19.983Z</time></trkpt><trkpt lat="46.0201057" lon="12.6294097"><ele>104.0</ele><time>2026-03-27T12:58:20.984Z</time></trkpt><trkpt lat="46.0202593" lon="12.6294306"><ele>105.0</ele><time>2026-03-27T12:58:21.984Z</time></trkpt><trkpt lat="46.0204146" lon="12.6294455"><ele>106.0</ele><time>2026-03-27T12:58:22.984Z</time></trkpt><trkpt lat="46.0205711" lon="12.6294641"><ele>107.0</ele><time>2026-03-27T12:58:23.983Z</time></trkpt><trkpt lat="46.0207289" lon="12.6294869"><ele>107.0</ele><time>2026-03-27T12:58:24.983Z</time></trkpt><trkpt lat="46.0208852" lon="12.6295102"><ele>107.0</ele><time>2026-03-27T12:58:25.984Z</time></trkpt><trkpt lat="46.0210402" lon="12.6295346"><ele>107.0</ele><time>2026-03-27T12:58:26.983Z</time></trkpt><trkpt lat="46.0211937" lon="12.6295605"><ele>107.0</ele><time>2026-03-27T12:58:27.983Z</time></trkpt><trkpt lat="46.0213481" lon="12.6295846"><ele>107.0</ele><time>2026-03-27T12:58:28.983Z</time></trkpt><trkpt lat="46.0215047" lon="12.6296071"><ele>107.0</ele><time>2026-03-27T12:58:29.984Z</time></trkpt><trkpt lat="46.0216605" lon="12.6296302"><ele>107.33333333333333</ele><time>2026-03-27T12:58:30.983Z</time></trkpt><trkpt lat="46.0218151" lon="12.6296521"><ele>107.66666666666666</ele><time>2026-03-27T12:58:31.983Z</time></trkpt><trkpt lat="46.0219719" lon="12.6296717"><ele>108.0</ele><time>2026-03-27T12:58:32.984Z</time></trkpt><trkpt lat="46.0221301" lon="12.6296893"><ele>108.0</ele><time>2026-03-27T12:58:33.983Z</time></trkpt><trkpt lat="46.0222884" lon="12.6297073"><ele>108.0</ele><time>2026-03-27T12:58:34.983Z</time></trkpt><trkpt lat="46.0224499" lon="12.6297296"><ele>108.0</ele><time>2026-03-27T12:58:35.983Z</time></trkpt><trkpt lat="46.0226119" lon="12.629756"><ele>108.66666666666666</ele><time>2026-03-27T12:58:36.983Z</time></trkpt><trkpt lat="46.0227738" lon="12.6297862"><ele>109.33333333333333</ele><time>2026-03-27T12:58:37.983Z</time></trkpt><trkpt lat="46.0229369" lon="12.6298185"><ele>110.0</ele><time>2026-03-27T12:58:38.985Z</time></trkpt><trkpt lat="46.0231" lon="12.6298516"><ele>110.0</ele><time>2026-03-27T12:58:39.983Z</time></trkpt><trkpt lat="46.0232619" lon="12.6298837"><ele>110.0</ele><time>2026-03-27T12:58:40.983Z</time></trkpt><trkpt lat="46.0234236" lon="12.6299143"><ele>110.0</ele><time>2026-03-27T12:58:41.986Z</time></trkpt><trkpt lat="46.0235851" lon="12.6299469"><ele>110.0</ele><time>2026-03-27T12:58:42.983Z</time></trkpt><trkpt lat="46.0237469" lon="12.6299762"><ele>110.0</ele><time>2026-03-27T12:58:43.984Z</time></trkpt><trkpt lat="46.0239084" lon="12.6300096"><ele>110.0</ele><time>2026-03-27T12:58:44.984Z</time></trkpt><trkpt lat="46.02407" lon="12.6300455"><ele>110.0</ele><time>2026-03-27T12:58:45.983Z</time></trkpt><trkpt lat="46.0242302" lon="12.6300818"><ele>110.0</ele><time>2026-03-27T12:58:46.983Z</time></trkpt><trkpt lat="46.0243888" lon="12.6301159"><ele>110.0</ele><time>2026-03-27T12:58:47.983Z</time></trkpt><trkpt lat="46.0245486" lon="12.6301485"><ele>110.0</ele><time>2026-03-27T12:58:48.984Z</time></trkpt><trkpt lat="46.0247081" lon="12.6301829"><ele>110.0</ele><time>2026-03-27T12:58:49.982Z</time></trkpt><trkpt lat="46.0248668" lon="12.6302172"><ele>110.0</ele><time>2026-03-27T12:58:50.984Z</time></trkpt><trkpt lat="46.0250253" lon="12.6302476"><ele>110.0</ele><time>2026-03-27T12:58:51.983Z</time></trkpt><trkpt lat="46.0251839" lon="12.6302776"><ele>110.0</ele><time>2026-03-27T12:58:52.984Z</time></trkpt><trkpt lat="46.025345" lon="12.6303077"><ele>110.0</ele><time>2026-03-27T12:58:53.983Z</time></trkpt><trkpt lat="46.0255067" lon="12.6303352"><ele>110.0</ele><time>2026-03-27T12:58:54.983Z</time></trkpt><trkpt lat="46.0256701" lon="12.6303614"><ele>110.0</ele><time>2026-03-27T12:58:55.984Z</time></trkpt><trkpt lat="46.0258363" lon="12.6303866"><ele>110.0</ele><time>2026-03-27T12:58:56.984Z</time></trkpt><trkpt lat="46.0260043" lon="12.6304116"><ele>112.0</ele><time>2026-03-27T12:58:57.983Z</time></trkpt><trkpt lat="46.0261704" lon="12.6304358"><ele>114.0</ele><time>2026-03-27T12:58:58.984Z</time></trkpt><trkpt lat="46.0263368" lon="12.6304639"><ele>116.0</ele><time>2026-03-27T12:58:59.983Z</time></trkpt><trkpt lat="46.0264993" lon="12.6304928"><ele>116.0</ele><time>2026-03-27T12:59:00.983Z</time></trkpt><trkpt lat="46.0266607" lon="12.6305218"><ele>116.0</ele><time>2026-03-27T12:59:01.983Z</time></trkpt><trkpt lat="46.0268207" lon="12.6305503"><ele>116.0</ele><time>2026-03-27T12:59:02.984Z</time></trkpt><trkpt lat="46.0269804" lon="12.6305795"><ele>116.0</ele><time>2026-03-27T12:59:03.984Z</time></trkpt><trkpt lat="46.0271417" lon="12.6306093"><ele>116.0</ele><time>2026-03-27T12:59:04.985Z</time></trkpt><trkpt lat="46.0273049" lon="12.6306372"><ele>116.0</ele><time>2026-03-27T12:59:05.984Z</time></trkpt><trkpt lat="46.0274697" lon="12.6306654"><ele>115.33333333333333</ele><time>2026-03-27T12:59:06.983Z</time></trkpt><trkpt lat="46.0276337" lon="12.6306938"><ele>114.66666666666666</ele><time>2026-03-27T12:59:07.984Z</time></trkpt><trkpt lat="46.0277998" lon="12.6307244"><ele>114.0</ele><time>2026-03-27T12:59:08.983Z</time></trkpt><trkpt lat="46.0279664" lon="12.6307546"><ele>114.0</ele><time>2026-03-27T12:59:09.983Z</time></trkpt><trkpt lat="46.0281331" lon="12.6307824"><ele>114.0</ele><time>2026-03-27T12:59:10.983Z</time></trkpt><trkpt lat="46.0283016" lon="12.6308105"><ele>114.0</ele><time>2026-03-27T12:59:11.984Z</time></trkpt><trkpt lat="46.0284699" lon="12.6308376"><ele>115.0</ele><time>2026-03-27T12:59:12.985Z</time></trkpt><trkpt lat="46.0286396" lon="12.630868"><ele>116.0</ele><time>2026-03-27T12:59:13.983Z</time></trkpt><trkpt lat="46.0288084" lon="12.6308968"><ele>117.0</ele><time>2026-03-27T12:59:14.984Z</time></trkpt><trkpt lat="46.028977" lon="12.6309243"><ele>117.0</ele><time>2026-03-27T12:59:15.984Z</time></trkpt><trkpt lat="46.0291381" lon="12.6309533"><ele>117.0</ele><time>2026-03-27T12:59:16.983Z</time></trkpt><trkpt lat="46.0292901" lon="12.6309825"><ele>117.0</ele><time>2026-03-27T12:59:17.988Z</time></trkpt><trkpt lat="46.0294381" lon="12.6310097"><ele>117.66666666666666</ele><time>2026-03-27T12:59:18.983Z</time></trkpt><trkpt lat="46.0295871" lon="12.6310376"><ele>118.33333333333333</ele><time>2026-03-27T12:59:19.984Z</time></trkpt><trkpt lat="46.0297358" lon="12.6310659"><ele>119.0</ele><time>2026-03-27T12:59:20.984Z</time></trkpt><trkpt lat="46.029885" lon="12.6310953"><ele>119.0</ele><time>2026-03-27T12:59:21.984Z</time></trkpt><trkpt lat="46.0300312" lon="12.631124"><ele>119.0</ele><time>2026-03-27T12:59:22.983Z</time></trkpt><trkpt lat="46.0301713" lon="12.6311509"><ele>119.0</ele><time>2026-03-27T12:59:23.984Z</time></trkpt><trkpt lat="46.0303077" lon="12.6311771"><ele>119.0</ele><time>2026-03-27T12:59:24.983Z</time></trkpt><trkpt lat="46.0304424" lon="12.6312003"><ele>119.0</ele><time>2026-03-27T12:59:25.984Z</time></trkpt><trkpt lat="46.0305768" lon="12.6312182"><ele>119.0</ele><time>2026-03-27T12:59:26.985Z</time></trkpt><trkpt lat="46.0307087" lon="12.6312406"><ele>119.0</ele><time>2026-03-27T12:59:27.983Z</time></trkpt><trkpt lat="46.0308389" lon="12.6312657"><ele>119.0</ele><time>2026-03-27T12:59:28.983Z</time></trkpt><trkpt lat="46.030961" lon="12.6312851"><ele>119.2</ele><time>2026-03-27T12:59:29.984Z</time></trkpt><trkpt lat="46.0310743" lon="12.6313032"><ele>119.4</ele><time>2026-03-27T12:59:30.983Z</time></trkpt><trkpt lat="46.0311753" lon="12.6313211"><ele>119.6</ele><time>2026-03-27T12:59:31.985Z</time></trkpt><trkpt lat="46.0312692" lon="12.6313377"><ele>119.8</ele><time>2026-03-27T12:59:32.984Z</time></trkpt><trkpt lat="46.031353" lon="12.6313546"><ele>120.0</ele><time>2026-03-27T12:59:33.983Z</time></trkpt><trkpt lat="46.0314216" lon="12.6313659"><ele>120.0</ele><time>2026-03-27T12:59:34.983Z</time></trkpt><trkpt lat="46.0315274" lon="12.6313795"><ele>120.0</ele><time>2026-03-27T12:59:36.983Z</time></trkpt><trkpt lat="46.0316477" lon="12.6314038"><ele>120.0</ele><time>2026-03-27T12:59:38.984Z</time></trkpt><trkpt lat="46.0317238" lon="12.631422"><ele>120.0</ele><time>2026-03-27T12:59:39.983Z</time></trkpt><trkpt lat="46.0317898" lon="12.6314377"><ele>120.0</ele><time>2026-03-27T12:59:40.984Z</time></trkpt><trkpt lat="46.0318757" lon="12.6314295"><ele>120.0</ele><time>2026-03-27T12:59:42.983Z</time></trkpt><trkpt lat="46.0319246" lon="12.6313564"><ele>120.0</ele><time>2026-03-27T12:59:44.984Z</time></trkpt><trkpt lat="46.0319389" lon="12.6312291"><ele>120.0</ele><time>2026-03-27T12:59:46.983Z</time></trkpt><trkpt lat="46.0318804" lon="12.6310646"><ele>120.0</ele><time>2026-03-27T12:59:48.984Z</time></trkpt><trkpt lat="46.0318201" lon="12.6309683"><ele>120.0</ele><time>2026-03-27T12:59:49.984Z</time></trkpt><trkpt lat="46.0317652" lon="12.6308588"><ele>120.0</ele><time>2026-03-27T12:59:50.984Z</time></trkpt><trkpt lat="46.0317235" lon="12.6307299"><ele>120.0</ele><time>2026-03-27T12:59:51.983Z</time></trkpt><trkpt lat="46.0316915" lon="12.6305962"><ele>120.0</ele><time>2026-03-27T12:59:52.985Z</time></trkpt><trkpt lat="46.0316634" lon="12.630467"><ele>120.0</ele><time>2026-03-27T12:59:53.983Z</time></trkpt><trkpt lat="46.031641" lon="12.6303356"><ele>120.0</ele><time>2026-03-27T12:59:54.985Z</time></trkpt><trkpt lat="46.0316212" lon="12.6301973"><ele>119.75</ele><time>2026-03-27T12:59:55.983Z</time></trkpt><trkpt lat="46.0316001" lon="12.6300507"><ele>119.5</ele><time>2026-03-27T12:59:56.984Z</time></trkpt><trkpt lat="46.0315739" lon="12.6298942"><ele>119.25</ele><time>2026-03-27T12:59:57.983Z</time></trkpt><trkpt lat="46.0315438" lon="12.6297305"><ele>119.0</ele><time>2026-03-27T12:59:58.986Z</time></trkpt><trkpt lat="46.0315163" lon="12.6295637"><ele>119.0</ele><time>2026-03-27T12:59:59.983Z</time></trkpt><trkpt lat="46.0314879" lon="12.6293843"><ele>119.0</ele><time>2026-03-27T13:00:00.985Z</time></trkpt><trkpt lat="46.0314582" lon="12.6291946"><ele>119.0</ele><time>2026-03-27T13:00:01.983Z</time></trkpt><trkpt lat="46.0314256" lon="12.6289989"><ele>119.0</ele><time>2026-03-27T13:00:02.985Z</time></trkpt><trkpt lat="46.0313904" lon="12.6287971"><ele>119.0</ele><time>2026-03-27T13:00:03.983Z</time></trkpt><trkpt lat="46.0313521" lon="12.6285888"><ele>119.0</ele><time>2026-03-27T13:00:04.983Z</time></trkpt><trkpt lat="46.0313133" lon="12.6283764"><ele>119.0</ele><time>2026-03-27T13:00:05.984Z</time></trkpt><trkpt lat="46.0312746" lon="12.6281596"><ele>119.0</ele><time>2026-03-27T13:00:06.983Z</time></trkpt><trkpt lat="46.0312371" lon="12.6279408"><ele>119.0</ele><time>2026-03-27T13:00:07.984Z</time></trkpt><trkpt lat="46.031199" lon="12.6277219"><ele>119.0</ele><time>2026-03-27T13:00:08.985Z</time></trkpt><trkpt lat="46.031162" lon="12.6275008"><ele>119.66666666666666</ele><time>2026-03-27T13:00:09.983Z</time></trkpt><trkpt lat="46.0311243" lon="12.6272788"><ele>120.33333333333334</ele><time>2026-03-27T13:00:10.983Z</time></trkpt><trkpt lat="46.031087" lon="12.6270553"><ele>121.0</ele><time>2026-03-27T13:00:11.983Z</time></trkpt><trkpt lat="46.0310493" lon="12.6268289"><ele>121.0</ele><time>2026-03-27T13:00:12.982Z</time></trkpt><trkpt lat="46.0310098" lon="12.6266003"><ele>121.0</ele><time>2026-03-27T13:00:13.983Z</time></trkpt><trkpt lat="46.0309696" lon="12.6263685"><ele>121.0</ele><time>2026-03-27T13:00:14.983Z</time></trkpt><trkpt lat="46.0309294" lon="12.6261419"><ele>120.33333333333334</ele><time>2026-03-27T13:00:15.983Z</time></trkpt><trkpt lat="46.0308893" lon="12.6259086"><ele>119.66666666666666</ele><time>2026-03-27T13:00:16.982Z</time></trkpt><trkpt lat="46.030851" lon="12.6256729"><ele>119.0</ele><time>2026-03-27T13:00:17.983Z</time></trkpt><trkpt lat="46.0308129" lon="12.6254334"><ele>119.0</ele><time>2026-03-27T13:00:18.983Z</time></trkpt><trkpt lat="46.0307728" lon="12.6251928"><ele>119.0</ele><time>2026-03-27T13:00:19.982Z</time></trkpt><trkpt lat="46.0307322" lon="12.6249506"><ele>119.0</ele><time>2026-03-27T13:00:20.983Z</time></trkpt><trkpt lat="46.0306925" lon="12.6247061"><ele>119.33333333333333</ele><time>2026-03-27T13:00:21.984Z</time></trkpt><trkpt lat="46.0306528" lon="12.6244583"><ele>119.66666666666666</ele><time>2026-03-27T13:00:22.982Z</time></trkpt><trkpt lat="46.0306125" lon="12.6242082"><ele>120.0</ele><time>2026-03-27T13:00:23.982Z</time></trkpt><trkpt lat="46.0305723" lon="12.6239616"><ele>120.0</ele><time>2026-03-27T13:00:24.983Z</time></trkpt><trkpt lat="46.0305311" lon="12.6237124"><ele>120.0</ele><time>2026-03-27T13:00:25.984Z</time></trkpt><trkpt lat="46.0304882" lon="12.6234646"><ele>120.0</ele><time>2026-03-27T13:00:26.983Z</time></trkpt><trkpt lat="46.030445" lon="12.6232161"><ele>120.0</ele><time>2026-03-27T13:00:27.982Z</time></trkpt><trkpt lat="46.0304016" lon="12.6229733"><ele>120.0</ele><time>2026-03-27T13:00:28.983Z</time></trkpt><trkpt lat="46.0303593" lon="12.6227437"><ele>120.0</ele><time>2026-03-27T13:00:29.984Z</time></trkpt><trkpt lat="46.030319" lon="12.6225349"><ele>119.5</ele><time>2026-03-27T13:00:30.982Z</time></trkpt><trkpt lat="46.0302849" lon="12.6223487"><ele>119.0</ele><time>2026-03-27T13:00:31.983Z</time></trkpt><trkpt lat="46.0302551" lon="12.6221746"><ele>118.5</ele><time>2026-03-27T13:00:32.984Z</time></trkpt><trkpt lat="46.0302301" lon="12.622009"><ele>118.0</ele><time>2026-03-27T13:00:33.982Z</time></trkpt><trkpt lat="46.030207" lon="12.6218554"><ele>117.80000000000001</ele><time>2026-03-27T13:00:34.982Z</time></trkpt><trkpt lat="46.0301854" lon="12.6217134"><ele>117.60000000000001</ele><time>2026-03-27T13:00:35.984Z</time></trkpt><trkpt lat="46.0301626" lon="12.621574"><ele>117.39999999999999</ele><time>2026-03-27T13:00:36.984Z</time></trkpt><trkpt lat="46.0301421" lon="12.6214309"><ele>117.19999999999999</ele><time>2026-03-27T13:00:37.984Z</time></trkpt><trkpt lat="46.0301252" lon="12.6212817"><ele>117.0</ele><time>2026-03-27T13:00:38.983Z</time></trkpt><trkpt lat="46.0301152" lon="12.6211227"><ele>117.0</ele><time>2026-03-27T13:00:39.983Z</time></trkpt><trkpt lat="46.0301101" lon="12.6209506"><ele>117.0</ele><time>2026-03-27T13:00:40.982Z</time></trkpt><trkpt lat="46.0301017" lon="12.6207677"><ele>117.0</ele><time>2026-03-27T13:00:41.982Z</time></trkpt><trkpt lat="46.0300873" lon="12.6205771"><ele>117.0</ele><time>2026-03-27T13:00:42.983Z</time></trkpt><trkpt lat="46.030073" lon="12.6203817"><ele>117.25</ele><time>2026-03-27T13:00:43.982Z</time></trkpt><trkpt lat="46.030062" lon="12.6201845"><ele>117.5</ele><time>2026-03-27T13:00:44.982Z</time></trkpt><trkpt lat="46.0300532" lon="12.6199972"><ele>117.75</ele><time>2026-03-27T13:00:45.985Z</time></trkpt><trkpt lat="46.0300497" lon="12.6198283"><ele>118.0</ele><time>2026-03-27T13:00:46.982Z</time></trkpt><trkpt lat="46.0300487" lon="12.6196757"><ele>118.0</ele><time>2026-03-27T13:00:47.982Z</time></trkpt><trkpt lat="46.0300588" lon="12.6195336"><ele>118.0</ele><time>2026-03-27T13:00:48.983Z</time></trkpt><trkpt lat="46.030096" lon="12.6193877"><ele>118.0</ele><time>2026-03-27T13:00:49.982Z</time></trkpt><trkpt lat="46.0301642" lon="12.6192334"><ele>118.0</ele><time>2026-03-27T13:00:50.983Z</time></trkpt><trkpt lat="46.0302469" lon="12.6190698"><ele>118.0</ele><time>2026-03-27T13:00:51.982Z</time></trkpt><trkpt lat="46.0303136" lon="12.6189023"><ele>118.0</ele><time>2026-03-27T13:00:52.982Z</time></trkpt><trkpt lat="46.030377" lon="12.6187478"><ele>118.0</ele><time>2026-03-27T13:00:53.982Z</time></trkpt><trkpt lat="46.03046" lon="12.6186147"><ele>118.0</ele><time>2026-03-27T13:00:54.983Z</time></trkpt><trkpt lat="46.0305618" lon="12.6185025"><ele>117.75</ele><time>2026-03-27T13:00:55.982Z</time></trkpt><trkpt lat="46.0306791" lon="12.6184025"><ele>117.5</ele><time>2026-03-27T13:00:56.982Z</time></trkpt><trkpt lat="46.030802" lon="12.6182945"><ele>117.25</ele><time>2026-03-27T13:00:57.983Z</time></trkpt><trkpt lat="46.0309278" lon="12.6181797"><ele>117.0</ele><time>2026-03-27T13:00:58.982Z</time></trkpt><trkpt lat="46.0310636" lon="12.6180711"><ele>117.0</ele><time>2026-03-27T13:00:59.984Z</time></trkpt><trkpt lat="46.0312044" lon="12.6179662"><ele>117.0</ele><time>2026-03-27T13:01:00.982Z</time></trkpt><trkpt lat="46.0313512" lon="12.6178732"><ele>117.0</ele><time>2026-03-27T13:01:01.983Z</time></trkpt><trkpt lat="46.0315029" lon="12.6177885"><ele>117.33333333333334</ele><time>2026-03-27T13:01:02.984Z</time></trkpt><trkpt lat="46.0316585" lon="12.6177116"><ele>117.66666666666667</ele><time>2026-03-27T13:01:03.982Z</time></trkpt><trkpt lat="46.0318126" lon="12.6176339"><ele>118.0</ele><time>2026-03-27T13:01:04.984Z</time></trkpt><trkpt lat="46.0319648" lon="12.6175502"><ele>118.0</ele><time>2026-03-27T13:01:05.984Z</time></trkpt><trkpt lat="46.032117" lon="12.6174664"><ele>118.0</ele><time>2026-03-27T13:01:06.982Z</time></trkpt><trkpt lat="46.0322713" lon="12.6173886"><ele>118.0</ele><time>2026-03-27T13:01:07.983Z</time></trkpt><trkpt lat="46.0324234" lon="12.6173082"><ele>117.33333333333334</ele><time>2026-03-27T13:01:08.984Z</time></trkpt><trkpt lat="46.0325751" lon="12.6172234"><ele>116.66666666666666</ele><time>2026-03-27T13:01:09.985Z</time></trkpt><trkpt lat="46.0327279" lon="12.6171385"><ele>116.0</ele><time>2026-03-27T13:01:10.983Z</time></trkpt><trkpt lat="46.0328813" lon="12.6170569"><ele>117.0</ele><time>2026-03-27T13:01:11.983Z</time></trkpt><trkpt lat="46.0330372" lon="12.6169775"><ele>118.0</ele><time>2026-03-27T13:01:12.984Z</time></trkpt><trkpt lat="46.0331916" lon="12.6168988"><ele>119.0</ele><time>2026-03-27T13:01:13.984Z</time></trkpt><trkpt lat="46.0333492" lon="12.616821"><ele>119.33333333333333</ele><time>2026-03-27T13:01:14.984Z</time></trkpt><trkpt lat="46.0335076" lon="12.6167405"><ele>119.66666666666666</ele><time>2026-03-27T13:01:15.983Z</time></trkpt><trkpt lat="46.0336689" lon="12.6166554"><ele>120.0</ele><time>2026-03-27T13:01:16.982Z</time></trkpt><trkpt lat="46.0338311" lon="12.6165677"><ele>120.0</ele><time>2026-03-27T13:01:17.983Z</time></trkpt><trkpt lat="46.0339944" lon="12.6164807"><ele>120.0</ele><time>2026-03-27T13:01:18.983Z</time></trkpt><trkpt lat="46.0341597" lon="12.6163958"><ele>120.0</ele><time>2026-03-27T13:01:19.986Z</time></trkpt><trkpt lat="46.0343246" lon="12.6163098"><ele>120.0</ele><time>2026-03-27T13:01:20.984Z</time></trkpt><trkpt lat="46.0344855" lon="12.6162236"><ele>120.0</ele><time>2026-03-27T13:01:21.983Z</time></trkpt><trkpt lat="46.0346465" lon="12.6161362"><ele>120.0</ele><time>2026-03-27T13:01:22.983Z</time></trkpt><trkpt lat="46.03481" lon="12.6160489"><ele>120.66666666666666</ele><time>2026-03-27T13:01:23.983Z</time></trkpt><trkpt lat="46.0349776" lon="12.615964"><ele>121.33333333333333</ele><time>2026-03-27T13:01:24.984Z</time></trkpt><trkpt lat="46.0351475" lon="12.6158798"><ele>122.0</ele><time>2026-03-27T13:01:25.984Z</time></trkpt><trkpt lat="46.0353163" lon="12.6157926"><ele>122.0</ele><time>2026-03-27T13:01:26.983Z</time></trkpt><trkpt lat="46.0354866" lon="12.6157045"><ele>122.0</ele><time>2026-03-27T13:01:27.983Z</time></trkpt><trkpt lat="46.0356582" lon="12.6156183"><ele>122.0</ele><time>2026-03-27T13:01:28.983Z</time></trkpt><trkpt lat="46.035831" lon="12.615534"><ele>122.33333333333333</ele><time>2026-03-27T13:01:29.984Z</time></trkpt><trkpt lat="46.036003" lon="12.6154444"><ele>122.66666666666666</ele><time>2026-03-27T13:01:30.983Z</time></trkpt><trkpt lat="46.0361747" lon="12.6153535"><ele>123.0</ele><time>2026-03-27T13:01:31.982Z</time></trkpt><trkpt lat="46.0363466" lon="12.615264"><ele>123.33333333333334</ele><time>2026-03-27T13:01:32.983Z</time></trkpt><trkpt lat="46.0365181" lon="12.6151695"><ele>123.66666666666667</ele><time>2026-03-27T13:01:33.984Z</time></trkpt><trkpt lat="46.0366881" lon="12.6150664"><ele>124.0</ele><time>2026-03-27T13:01:34.982Z</time></trkpt><trkpt lat="46.0368541" lon="12.6149571"><ele>124.66666666666667</ele><time>2026-03-27T13:01:35.983Z</time></trkpt><trkpt lat="46.037017" lon="12.6148384"><ele>125.33333333333334</ele><time>2026-03-27T13:01:36.983Z</time></trkpt><trkpt lat="46.0371764" lon="12.6147091"><ele>126.0</ele><time>2026-03-27T13:01:37.984Z</time></trkpt><trkpt lat="46.037338" lon="12.6145814"><ele>126.0</ele><time>2026-03-27T13:01:38.983Z</time></trkpt><trkpt lat="46.0374985" lon="12.6144473"><ele>126.0</ele><time>2026-03-27T13:01:39.982Z</time></trkpt><trkpt lat="46.0376602" lon="12.6143133"><ele>126.0</ele><time>2026-03-27T13:01:40.983Z</time></trkpt><trkpt lat="46.0378243" lon="12.6141875"><ele>126.0</ele><time>2026-03-27T13:01:41.983Z</time></trkpt><trkpt lat="46.0379875" lon="12.6140593"><ele>126.0</ele><time>2026-03-27T13:01:42.983Z</time></trkpt><trkpt lat="46.0381513" lon="12.6139271"><ele>126.0</ele><time>2026-03-27T13:01:43.984Z</time></trkpt><trkpt lat="46.038315" lon="12.6137975"><ele>126.0</ele><time>2026-03-27T13:01:44.984Z</time></trkpt><trkpt lat="46.0384797" lon="12.6136668"><ele>126.0</ele><time>2026-03-27T13:01:45.982Z</time></trkpt><trkpt lat="46.038646" lon="12.6135423"><ele>126.0</ele><time>2026-03-27T13:01:46.983Z</time></trkpt><trkpt lat="46.038814" lon="12.6134208"><ele>126.0</ele><time>2026-03-27T13:01:47.983Z</time></trkpt><trkpt lat="46.0389837" lon="12.6132978"><ele>126.0</ele><time>2026-03-27T13:01:48.983Z</time></trkpt><trkpt lat="46.0391536" lon="12.6131757"><ele>126.0</ele><time>2026-03-27T13:01:49.983Z</time></trkpt><trkpt lat="46.0393214" lon="12.6130492"><ele>126.0</ele><time>2026-03-27T13:01:50.984Z</time></trkpt><trkpt lat="46.0394885" lon="12.612919"><ele>126.0</ele><time>2026-03-27T13:01:51.982Z</time></trkpt><trkpt lat="46.0396576" lon="12.6127886"><ele>126.0</ele><time>2026-03-27T13:01:52.983Z</time></trkpt><trkpt lat="46.0398251" lon="12.612656"><ele>127.0</ele><time>2026-03-27T13:01:53.983Z</time></trkpt><trkpt lat="46.0399944" lon="12.6125252"><ele>128.0</ele><time>2026-03-27T13:01:54.982Z</time></trkpt><trkpt lat="46.0401631" lon="12.6123891"><ele>129.0</ele><time>2026-03-27T13:01:55.983Z</time></trkpt><trkpt lat="46.0403327" lon="12.6122572"><ele>129.0</ele><time>2026-03-27T13:01:56.983Z</time></trkpt><trkpt lat="46.0405019" lon="12.6121228"><ele>129.0</ele><time>2026-03-27T13:01:57.985Z</time></trkpt><trkpt lat="46.0406716" lon="12.611988"><ele>129.0</ele><time>2026-03-27T13:01:58.983Z</time></trkpt><trkpt lat="46.0408431" lon="12.6118527"><ele>128.0</ele><time>2026-03-27T13:01:59.983Z</time></trkpt><trkpt lat="46.0410149" lon="12.6117166"><ele>127.0</ele><time>2026-03-27T13:02:00.982Z</time></trkpt><trkpt lat="46.041187" lon="12.611581"><ele>126.0</ele><time>2026-03-27T13:02:01.982Z</time></trkpt><trkpt lat="46.04136" lon="12.6114434"><ele>126.0</ele><time>2026-03-27T13:02:02.984Z</time></trkpt><trkpt lat="46.0415321" lon="12.6113005"><ele>126.0</ele><time>2026-03-27T13:02:03.982Z</time></trkpt><trkpt lat="46.0417038" lon="12.6111597"><ele>126.0</ele><time>2026-03-27T13:02:04.983Z</time></trkpt><trkpt lat="46.0418756" lon="12.6110193"><ele>126.33333333333334</ele><time>2026-03-27T13:02:05.984Z</time></trkpt><trkpt lat="46.0420498" lon="12.6108801"><ele>126.66666666666667</ele><time>2026-03-27T13:02:06.982Z</time></trkpt><trkpt lat="46.0422249" lon="12.6107437"><ele>127.0</ele><time>2026-03-27T13:02:07.983Z</time></trkpt><trkpt lat="46.042403" lon="12.6106126"><ele>128.0</ele><time>2026-03-27T13:02:08.983Z</time></trkpt><trkpt lat="46.0425824" lon="12.6104801"><ele>129.0</ele><time>2026-03-27T13:02:09.982Z</time></trkpt><trkpt lat="46.0427604" lon="12.6103455"><ele>130.0</ele><time>2026-03-27T13:02:10.983Z</time></trkpt><trkpt lat="46.0429408" lon="12.6102165"><ele>131.0</ele><time>2026-03-27T13:02:11.982Z</time></trkpt><trkpt lat="46.043121" lon="12.6100819"><ele>132.0</ele><time>2026-03-27T13:02:12.982Z</time></trkpt><trkpt lat="46.0432997" lon="12.6099411"><ele>133.0</ele><time>2026-03-27T13:02:13.984Z</time></trkpt><trkpt lat="46.0434782" lon="12.6097984"><ele>133.0</ele><time>2026-03-27T13:02:14.983Z</time></trkpt><trkpt lat="46.0436566" lon="12.6096587"><ele>133.0</ele><time>2026-03-27T13:02:15.982Z</time></trkpt><trkpt lat="46.0438363" lon="12.6095198"><ele>133.0</ele><time>2026-03-27T13:02:16.984Z</time></trkpt><trkpt lat="46.0440149" lon="12.6093792"><ele>132.66666666666669</ele><time>2026-03-27T13:02:17.983Z</time></trkpt><trkpt lat="46.0441932" lon="12.6092378"><ele>132.33333333333334</ele><time>2026-03-27T13:02:18.983Z</time></trkpt><trkpt lat="46.04437" lon="12.6090967"><ele>132.0</ele><time>2026-03-27T13:02:19.982Z</time></trkpt><trkpt lat="46.0445492" lon="12.6089598"><ele>132.0</ele><time>2026-03-27T13:02:20.984Z</time></trkpt><trkpt lat="46.044728" lon="12.608823"><ele>132.0</ele><time>2026-03-27T13:02:21.982Z</time></trkpt><trkpt lat="46.0449036" lon="12.608688"><ele>132.0</ele><time>2026-03-27T13:02:22.983Z</time></trkpt><trkpt lat="46.0450697" lon="12.6085626"><ele>132.33333333333334</ele><time>2026-03-27T13:02:23.983Z</time></trkpt><trkpt lat="46.0452236" lon="12.6084437"><ele>132.66666666666669</ele><time>2026-03-27T13:02:24.982Z</time></trkpt><trkpt lat="46.0453729" lon="12.6083254"><ele>133.0</ele><time>2026-03-27T13:02:25.982Z</time></trkpt><trkpt lat="46.0455219" lon="12.6082087"><ele>133.0</ele><time>2026-03-27T13:02:26.984Z</time></trkpt><trkpt lat="46.0456644" lon="12.6080965"><ele>133.0</ele><time>2026-03-27T13:02:27.983Z</time></trkpt><trkpt lat="46.0457953" lon="12.6079903"><ele>133.0</ele><time>2026-03-27T13:02:28.983Z</time></trkpt><trkpt lat="46.0459165" lon="12.6078913"><ele>132.6</ele><time>2026-03-27T13:02:29.984Z</time></trkpt><trkpt lat="46.046023" lon="12.6078046"><ele>132.20000000000002</ele><time>2026-03-27T13:02:30.982Z</time></trkpt><trkpt lat="46.0461067" lon="12.6077282"><ele>131.8</ele><time>2026-03-27T13:02:31.983Z</time></trkpt><trkpt lat="46.0461737" lon="12.6076715"><ele>131.4</ele><time>2026-03-27T13:02:32.983Z</time></trkpt><trkpt lat="46.0462486" lon="12.6076685"><ele>131.0</ele><time>2026-03-27T13:02:34.982Z</time></trkpt><trkpt lat="46.0462856" lon="12.6077834"><ele>131.4</ele><time>2026-03-27T13:02:36.984Z</time></trkpt><trkpt lat="46.0463063" lon="12.6078738"><ele>131.8</ele><time>2026-03-27T13:02:37.983Z</time></trkpt><trkpt lat="46.0463012" lon="12.6079935"><ele>132.20000000000002</ele><time>2026-03-27T13:02:38.984Z</time></trkpt><trkpt lat="46.046272" lon="12.6081395"><ele>132.6</ele><time>2026-03-27T13:02:39.983Z</time></trkpt><trkpt lat="46.0462234" lon="12.6083149"><ele>133.0</ele><time>2026-03-27T13:02:40.983Z</time></trkpt><trkpt lat="46.0461716" lon="12.6085078"><ele>132.66666666666669</ele><time>2026-03-27T13:02:41.983Z</time></trkpt><trkpt lat="46.0461215" lon="12.6087175"><ele>132.33333333333334</ele><time>2026-03-27T13:02:42.982Z</time></trkpt><trkpt lat="46.0460619" lon="12.6089296"><ele>132.0</ele><time>2026-03-27T13:02:43.982Z</time></trkpt><trkpt lat="46.0459975" lon="12.6091446"><ele>132.0</ele><time>2026-03-27T13:02:44.982Z</time></trkpt><trkpt lat="46.0459388" lon="12.6093765"><ele>132.0</ele><time>2026-03-27T13:02:45.983Z</time></trkpt><trkpt lat="46.0458817" lon="12.6096138"><ele>132.0</ele><time>2026-03-27T13:02:46.983Z</time></trkpt><trkpt lat="46.045817" lon="12.609855"><ele>131.33333333333334</ele><time>2026-03-27T13:02:47.983Z</time></trkpt><trkpt lat="46.0457469" lon="12.6100976"><ele>130.66666666666669</ele><time>2026-03-27T13:02:48.983Z</time></trkpt><trkpt lat="46.0456794" lon="12.6103403"><ele>130.0</ele><time>2026-03-27T13:02:49.984Z</time></trkpt><trkpt lat="46.0456102" lon="12.6105863"><ele>129.66666666666669</ele><time>2026-03-27T13:02:50.983Z</time></trkpt><trkpt lat="46.0455435" lon="12.6108391"><ele>129.33333333333334</ele><time>2026-03-27T13:02:51.983Z</time></trkpt><trkpt lat="46.0454805" lon="12.6111023"><ele>129.0</ele><time>2026-03-27T13:02:52.983Z</time></trkpt><trkpt lat="46.0454157" lon="12.6113697"><ele>130.33333333333334</ele><time>2026-03-27T13:02:53.985Z</time></trkpt><trkpt lat="46.0453462" lon="12.611641"><ele>131.66666666666669</ele><time>2026-03-27T13:02:54.982Z</time></trkpt><trkpt lat="46.0452757" lon="12.6119143"><ele>133.0</ele><time>2026-03-27T13:02:55.983Z</time></trkpt><trkpt lat="46.0452068" lon="12.6121864"><ele>133.66666666666669</ele><time>2026-03-27T13:02:56.984Z</time></trkpt><trkpt lat="46.0451385" lon="12.612461"><ele>134.33333333333334</ele><time>2026-03-27T13:02:57.983Z</time></trkpt><trkpt lat="46.0450714" lon="12.6127369"><ele>135.0</ele><time>2026-03-27T13:02:58.984Z</time></trkpt><trkpt lat="46.0450018" lon="12.6130123"><ele>134.33333333333334</ele><time>2026-03-27T13:02:59.983Z</time></trkpt><trkpt lat="46.0449317" lon="12.61329"><ele>133.66666666666669</ele><time>2026-03-27T13:03:00.984Z</time></trkpt><trkpt lat="46.0448604" lon="12.6135626"><ele>133.0</ele><time>2026-03-27T13:03:01.983Z</time></trkpt><trkpt lat="46.0447861" lon="12.6138343"><ele>132.0</ele><time>2026-03-27T13:03:02.983Z</time></trkpt><trkpt lat="46.0447122" lon="12.6141114"><ele>131.0</ele><time>2026-03-27T13:03:03.983Z</time></trkpt><trkpt lat="46.0446416" lon="12.614386"><ele>130.0</ele><time>2026-03-27T13:03:04.984Z</time></trkpt><trkpt lat="46.0445719" lon="12.6146609"><ele>130.0</ele><time>2026-03-27T13:03:05.983Z</time></trkpt><trkpt lat="46.0445009" lon="12.6149431"><ele>130.0</ele><time>2026-03-27T13:03:06.983Z</time></trkpt><trkpt lat="46.0444293" lon="12.6152263"><ele>130.0</ele><time>2026-03-27T13:03:07.983Z</time></trkpt><trkpt lat="46.0443573" lon="12.6155057"><ele>129.66666666666669</ele><time>2026-03-27T13:03:08.984Z</time></trkpt><trkpt lat="46.0442855" lon="12.6157839"><ele>129.33333333333334</ele><time>2026-03-27T13:03:09.984Z</time></trkpt><trkpt lat="46.0442165" lon="12.6160521"><ele>129.0</ele><time>2026-03-27T13:03:10.982Z</time></trkpt><trkpt lat="46.0441473" lon="12.616323"><ele>129.0</ele><time>2026-03-27T13:03:11.983Z</time></trkpt><trkpt lat="46.0440743" lon="12.6165898"><ele>129.0</ele><time>2026-03-27T13:03:12.984Z</time></trkpt><trkpt lat="46.044001" lon="12.6168587"><ele>129.0</ele><time>2026-03-27T13:03:13.982Z</time></trkpt><trkpt lat="46.0439294" lon="12.617129"><ele>129.33333333333334</ele><time>2026-03-27T13:03:14.983Z</time></trkpt><trkpt lat="46.0438592" lon="12.6174001"><ele>129.66666666666669</ele><time>2026-03-27T13:03:15.984Z</time></trkpt><trkpt lat="46.0437873" lon="12.6176667"><ele>130.0</ele><time>2026-03-27T13:03:16.982Z</time></trkpt><trkpt lat="46.0437125" lon="12.6179354"><ele>130.33333333333334</ele><time>2026-03-27T13:03:17.984Z</time></trkpt><trkpt lat="46.04364" lon="12.6182122"><ele>130.66666666666666</ele><time>2026-03-27T13:03:18.982Z</time></trkpt><trkpt lat="46.0435715" lon="12.6184869"><ele>131.0</ele><time>2026-03-27T13:03:19.983Z</time></trkpt><trkpt lat="46.0435048" lon="12.6187623"><ele>131.33333333333331</ele><time>2026-03-27T13:03:20.983Z</time></trkpt><trkpt lat="46.0434371" lon="12.6190387"><ele>131.66666666666666</ele><time>2026-03-27T13:03:21.983Z</time></trkpt><trkpt lat="46.043369" lon="12.6193176"><ele>132.0</ele><time>2026-03-27T13:03:22.983Z</time></trkpt><trkpt lat="46.0433007" lon="12.6195978"><ele>131.66666666666666</ele><time>2026-03-27T13:03:23.983Z</time></trkpt><trkpt lat="46.0432322" lon="12.6198834"><ele>131.33333333333331</ele><time>2026-03-27T13:03:24.982Z</time></trkpt><trkpt lat="46.043161" lon="12.6201691"><ele>131.0</ele><time>2026-03-27T13:03:25.982Z</time></trkpt><trkpt lat="46.0430889" lon="12.6204466"><ele>131.0</ele><time>2026-03-27T13:03:26.983Z</time></trkpt><trkpt lat="46.0430187" lon="12.6207182"><ele>131.0</ele><time>2026-03-27T13:03:27.984Z</time></trkpt><trkpt lat="46.0429502" lon="12.6209906"><ele>131.0</ele><time>2026-03-27T13:03:28.983Z</time></trkpt><trkpt lat="46.0428804" lon="12.621254"><ele>131.0</ele><time>2026-03-27T13:03:29.983Z</time></trkpt><trkpt lat="46.0428149" lon="12.6214993"><ele>131.0</ele><time>2026-03-27T13:03:30.982Z</time></trkpt><trkpt lat="46.0427557" lon="12.6217172"><ele>131.0</ele><time>2026-03-27T13:03:31.982Z</time></trkpt><trkpt lat="46.0427061" lon="12.6218984"><ele>130.8</ele><time>2026-03-27T13:03:32.983Z</time></trkpt><trkpt lat="46.0426668" lon="12.6220386"><ele>130.6</ele><time>2026-03-27T13:03:33.984Z</time></trkpt><trkpt lat="46.0426356" lon="12.6221377"><ele>130.4</ele><time>2026-03-27T13:03:34.983Z</time></trkpt><trkpt lat="46.0426078" lon="12.6222623"><ele>130.2</ele><time>2026-03-27T13:03:36.983Z</time></trkpt><trkpt lat="46.0426128" lon="12.6224236"><ele>130.0</ele><time>2026-03-27T13:03:38.983Z</time></trkpt><trkpt lat="46.042637" lon="12.6225626"><ele>130.0</ele><time>2026-03-27T13:03:39.983Z</time></trkpt><trkpt lat="46.0426826" lon="12.6227344"><ele>130.0</ele><time>2026-03-27T13:03:40.983Z</time></trkpt><trkpt lat="46.0427303" lon="12.622917"><ele>130.0</ele><time>2026-03-27T13:03:41.982Z</time></trkpt><trkpt lat="46.0427772" lon="12.623108"><ele>130.0</ele><time>2026-03-27T13:03:42.983Z</time></trkpt><trkpt lat="46.0428226" lon="12.6232953"><ele>130.0</ele><time>2026-03-27T13:03:43.982Z</time></trkpt><trkpt lat="46.0428652" lon="12.6234766"><ele>130.0</ele><time>2026-03-27T13:03:44.983Z</time></trkpt><trkpt lat="46.0429077" lon="12.6236642"><ele>130.0</ele><time>2026-03-27T13:03:45.983Z</time></trkpt><trkpt lat="46.0429481" lon="12.6238591"><ele>130.0</ele><time>2026-03-27T13:03:46.983Z</time></trkpt><trkpt lat="46.0429893" lon="12.6240562"><ele>130.0</ele><time>2026-03-27T13:03:47.983Z</time></trkpt><trkpt lat="46.0430335" lon="12.6242548"><ele>130.0</ele><time>2026-03-27T13:03:48.982Z</time></trkpt><trkpt lat="46.0430816" lon="12.6244564"><ele>130.0</ele><time>2026-03-27T13:03:49.984Z</time></trkpt><trkpt lat="46.0431315" lon="12.6246657"><ele>130.0</ele><time>2026-03-27T13:03:50.984Z</time></trkpt><trkpt lat="46.0431816" lon="12.6248783"><ele>130.0</ele><time>2026-03-27T13:03:51.984Z</time></trkpt><trkpt lat="46.0432287" lon="12.6250921"><ele>130.0</ele><time>2026-03-27T13:03:52.983Z</time></trkpt><trkpt lat="46.0432769" lon="12.62531"><ele>130.0</ele><time>2026-03-27T13:03:53.982Z</time></trkpt><trkpt lat="46.0433284" lon="12.6255293"><ele>129.33333333333334</ele><time>2026-03-27T13:03:54.982Z</time></trkpt><trkpt lat="46.0433815" lon="12.6257534"><ele>128.66666666666666</ele><time>2026-03-27T13:03:55.983Z</time></trkpt><trkpt lat="46.0434339" lon="12.625982"><ele>128.0</ele><time>2026-03-27T13:03:56.983Z</time></trkpt><trkpt lat="46.0434839" lon="12.6262097"><ele>129.33333333333331</ele><time>2026-03-27T13:03:57.983Z</time></trkpt><trkpt lat="46.0435364" lon="12.6264405"><ele>130.66666666666666</ele><time>2026-03-27T13:03:58.982Z</time></trkpt><trkpt lat="46.0435915" lon="12.6266725"><ele>132.0</ele><time>2026-03-27T13:03:59.983Z</time></trkpt><trkpt lat="46.0436478" lon="12.6268983"><ele>132.66666666666666</ele><time>2026-03-27T13:04:00.983Z</time></trkpt><trkpt lat="46.0437034" lon="12.627113"><ele>133.33333333333331</ele><time>2026-03-27T13:04:01.983Z</time></trkpt><trkpt lat="46.0437587" lon="12.6273288"><ele>134.0</ele><time>2026-03-27T13:04:02.983Z</time></trkpt><trkpt lat="46.0438099" lon="12.627538"><ele>134.0</ele><time>2026-03-27T13:04:03.982Z</time></trkpt><trkpt lat="46.0438595" lon="12.6277458"><ele>134.0</ele><time>2026-03-27T13:04:04.984Z</time></trkpt><trkpt lat="46.0439001" lon="12.6279511"><ele>134.0</ele><time>2026-03-27T13:04:05.984Z</time></trkpt><trkpt lat="46.0439284" lon="12.6281577"><ele>134.0</ele><time>2026-03-27T13:04:06.983Z</time></trkpt><trkpt lat="46.0439585" lon="12.6283659"><ele>134.33333333333331</ele><time>2026-03-27T13:04:07.983Z</time></trkpt><trkpt lat="46.0439977" lon="12.6285856"><ele>134.66666666666666</ele><time>2026-03-27T13:04:08.983Z</time></trkpt><trkpt lat="46.0440453" lon="12.6288108"><ele>135.0</ele><time>2026-03-27T13:04:09.982Z</time></trkpt><trkpt lat="46.044099" lon="12.6290423"><ele>134.33333333333334</ele><time>2026-03-27T13:04:10.983Z</time></trkpt><trkpt lat="46.0441536" lon="12.6292803"><ele>133.66666666666669</ele><time>2026-03-27T13:04:11.983Z</time></trkpt><trkpt lat="46.0442057" lon="12.629517"><ele>133.0</ele><time>2026-03-27T13:04:12.984Z</time></trkpt><trkpt lat="46.044258" lon="12.6297533"><ele>133.0</ele><time>2026-03-27T13:04:13.983Z</time></trkpt><trkpt lat="46.0443134" lon="12.6299882"><ele>133.0</ele><time>2026-03-27T13:04:14.983Z</time></trkpt><trkpt lat="46.0443686" lon="12.6302217"><ele>133.0</ele><time>2026-03-27T13:04:15.982Z</time></trkpt><trkpt lat="46.0444224" lon="12.6304495"><ele>133.33333333333334</ele><time>2026-03-27T13:04:16.982Z</time></trkpt><trkpt lat="46.0444763" lon="12.6306738"><ele>133.66666666666666</ele><time>2026-03-27T13:04:17.982Z</time></trkpt><trkpt lat="46.044531" lon="12.6308975"><ele>134.0</ele><time>2026-03-27T13:04:18.983Z</time></trkpt><trkpt lat="46.044587" lon="12.6311257"><ele>134.33333333333331</ele><time>2026-03-27T13:04:19.983Z</time></trkpt><trkpt lat="46.0446373" lon="12.6313525"><ele>134.66666666666666</ele><time>2026-03-27T13:04:20.983Z</time></trkpt><trkpt lat="46.0446872" lon="12.6315755"><ele>135.0</ele><time>2026-03-27T13:04:21.983Z</time></trkpt><trkpt lat="46.044739" lon="12.6317985"><ele>135.0</ele><time>2026-03-27T13:04:22.982Z</time></trkpt><trkpt lat="46.0447904" lon="12.6320106"><ele>135.0</ele><time>2026-03-27T13:04:23.984Z</time></trkpt><trkpt lat="46.0448405" lon="12.6322068"><ele>135.0</ele><time>2026-03-27T13:04:24.984Z</time></trkpt><trkpt lat="46.0448886" lon="12.6323928"><ele>135.0</ele><time>2026-03-27T13:04:25.983Z</time></trkpt><trkpt lat="46.0449423" lon="12.6325841"><ele>135.0</ele><time>2026-03-27T13:04:26.984Z</time></trkpt><trkpt lat="46.0450008" lon="12.6327842"><ele>135.0</ele><time>2026-03-27T13:04:27.982Z</time></trkpt><trkpt lat="46.0450543" lon="12.632994"><ele>135.0</ele><time>2026-03-27T13:04:28.983Z</time></trkpt><trkpt lat="46.0451053" lon="12.6332104"><ele>135.0</ele><time>2026-03-27T13:04:29.983Z</time></trkpt><trkpt lat="46.0451589" lon="12.6334319"><ele>135.0</ele><time>2026-03-27T13:04:30.984Z</time></trkpt><trkpt lat="46.0452118" lon="12.6336558"><ele>135.0</ele><time>2026-03-27T13:04:31.985Z</time></trkpt><trkpt lat="46.045265" lon="12.6338795"><ele>135.33333333333334</ele><time>2026-03-27T13:04:32.986Z</time></trkpt><trkpt lat="46.0453183" lon="12.6341027"><ele>135.66666666666669</ele><time>2026-03-27T13:04:33.982Z</time></trkpt><trkpt lat="46.0453795" lon="12.634332"><ele>136.0</ele><time>2026-03-27T13:04:34.984Z</time></trkpt><trkpt lat="46.0454421" lon="12.6345615"><ele>136.0</ele><time>2026-03-27T13:04:35.983Z</time></trkpt><trkpt lat="46.0455008" lon="12.6347833"><ele>136.0</ele><time>2026-03-27T13:04:36.983Z</time></trkpt><trkpt lat="46.0455573" lon="12.6349949"><ele>136.0</ele><time>2026-03-27T13:04:37.983Z</time></trkpt><trkpt lat="46.0455996" lon="12.6351883"><ele>136.0</ele><time>2026-03-27T13:04:38.984Z</time></trkpt><trkpt lat="46.0456332" lon="12.6353625"><ele>136.0</ele><time>2026-03-27T13:04:39.983Z</time></trkpt><trkpt lat="46.0456656" lon="12.6355176"><ele>136.0</ele><time>2026-03-27T13:04:40.983Z</time></trkpt><trkpt lat="46.0457068" lon="12.6356534"><ele>136.0</ele><time>2026-03-27T13:04:41.982Z</time></trkpt><trkpt lat="46.04576" lon="12.6357654"><ele>136.0</ele><time>2026-03-27T13:04:42.985Z</time></trkpt><trkpt lat="46.0458285" lon="12.635847"><ele>136.75</ele><time>2026-03-27T13:04:43.983Z</time></trkpt><trkpt lat="46.0459253" lon="12.6359166"><ele>137.5</ele><time>2026-03-27T13:04:44.983Z</time></trkpt><trkpt lat="46.0460517" lon="12.6359853"><ele>138.25</ele><time>2026-03-27T13:04:45.986Z</time></trkpt><trkpt lat="46.046196" lon="12.6360576"><ele>139.0</ele><time>2026-03-27T13:04:46.983Z</time></trkpt><trkpt lat="46.0463415" lon="12.6361342"><ele>139.25</ele><time>2026-03-27T13:04:47.983Z</time></trkpt><trkpt lat="46.0464852" lon="12.636207"><ele>139.5</ele><time>2026-03-27T13:04:48.982Z</time></trkpt><trkpt lat="46.0466227" lon="12.6362795"><ele>139.75</ele><time>2026-03-27T13:04:49.983Z</time></trkpt><trkpt lat="46.046751" lon="12.6363468"><ele>140.0</ele><time>2026-03-27T13:04:50.984Z</time></trkpt><trkpt lat="46.0468559" lon="12.6364026"><ele>140.2</ele><time>2026-03-27T13:04:51.983Z</time></trkpt><trkpt lat="46.0469424" lon="12.6364324"><ele>140.4</ele><time>2026-03-27T13:04:52.982Z</time></trkpt><trkpt lat="46.0470147" lon="12.6364355"><ele>140.6</ele><time>2026-03-27T13:04:53.982Z</time></trkpt><trkpt lat="46.047117" lon="12.6363116"><ele>140.8</ele><time>2026-03-27T13:04:55.983Z</time></trkpt><trkpt lat="46.0471579" lon="12.6361563"><ele>141.0</ele><time>2026-03-27T13:04:56.984Z</time></trkpt><trkpt lat="46.0472089" lon="12.6359774"><ele>140.5</ele><time>2026-03-27T13:04:57.982Z</time></trkpt><trkpt lat="46.0472672" lon="12.6357908"><ele>140.0</ele><time>2026-03-27T13:04:58.982Z</time></trkpt><trkpt lat="46.0473267" lon="12.6356017"><ele>139.5</ele><time>2026-03-27T13:04:59.982Z</time></trkpt><trkpt lat="46.0473834" lon="12.6354107"><ele>139.0</ele><time>2026-03-27T13:05:00.982Z</time></trkpt><trkpt lat="46.047437" lon="12.63522"><ele>139.0</ele><time>2026-03-27T13:05:01.983Z</time></trkpt><trkpt lat="46.0474888" lon="12.6350274"><ele>139.0</ele><time>2026-03-27T13:05:02.983Z</time></trkpt><trkpt lat="46.0475371" lon="12.6348262"><ele>139.0</ele><time>2026-03-27T13:05:03.983Z</time></trkpt><trkpt lat="46.0475818" lon="12.6346222"><ele>139.0</ele><time>2026-03-27T13:05:04.984Z</time></trkpt><trkpt lat="46.0476224" lon="12.6344183"><ele>139.0</ele><time>2026-03-27T13:05:05.984Z</time></trkpt><trkpt lat="46.047663" lon="12.6342105"><ele>139.0</ele><time>2026-03-27T13:05:06.982Z</time></trkpt><trkpt lat="46.0477043" lon="12.634"><ele>139.0</ele><time>2026-03-27T13:05:07.983Z</time></trkpt><trkpt lat="46.0477462" lon="12.6337842"><ele>139.0</ele><time>2026-03-27T13:05:08.983Z</time></trkpt><trkpt lat="46.0477897" lon="12.6335644"><ele>139.0</ele><time>2026-03-27T13:05:09.982Z</time></trkpt><trkpt lat="46.04784" lon="12.6333437"><ele>139.0</ele><time>2026-03-27T13:05:10.984Z</time></trkpt><trkpt lat="46.0479021" lon="12.6331289"><ele>139.0</ele><time>2026-03-27T13:05:11.982Z</time></trkpt><trkpt lat="46.047975" lon="12.6329208"><ele>139.0</ele><time>2026-03-27T13:05:12.982Z</time></trkpt><trkpt lat="46.0480511" lon="12.6327117"><ele>139.0</ele><time>2026-03-27T13:05:13.984Z</time></trkpt><trkpt lat="46.048127" lon="12.6324998"><ele>138.0</ele><time>2026-03-27T13:05:14.985Z</time></trkpt><trkpt lat="46.0482052" lon="12.6322897"><ele>137.0</ele><time>2026-03-27T13:05:15.984Z</time></trkpt><trkpt lat="46.0482799" lon="12.6320729"><ele>136.0</ele><time>2026-03-27T13:05:16.983Z</time></trkpt><trkpt lat="46.0483563" lon="12.6318545"><ele>135.0</ele><time>2026-03-27T13:05:17.983Z</time></trkpt><trkpt lat="46.0484359" lon="12.6316431"><ele>134.0</ele><time>2026-03-27T13:05:18.983Z</time></trkpt><trkpt lat="46.0485066" lon="12.6314405"><ele>133.0</ele><time>2026-03-27T13:05:19.982Z</time></trkpt><trkpt lat="46.0485671" lon="12.6312503"><ele>133.75</ele><time>2026-03-27T13:05:20.983Z</time></trkpt><trkpt lat="46.0486322" lon="12.6310717"><ele>134.5</ele><time>2026-03-27T13:05:21.984Z</time></trkpt><trkpt lat="46.0487201" lon="12.6308988"><ele>135.25</ele><time>2026-03-27T13:05:22.982Z</time></trkpt><trkpt lat="46.0488302" lon="12.6307322"><ele>136.0</ele><time>2026-03-27T13:05:23.983Z</time></trkpt><trkpt lat="46.0489494" lon="12.6305825"><ele>136.0</ele><time>2026-03-27T13:05:24.985Z</time></trkpt><trkpt lat="46.0490556" lon="12.6304412"><ele>136.0</ele><time>2026-03-27T13:05:25.982Z</time></trkpt><trkpt lat="46.049144" lon="12.6302854"><ele>136.0</ele><time>2026-03-27T13:05:26.985Z</time></trkpt><trkpt lat="46.0492134" lon="12.6300997"><ele>136.0</ele><time>2026-03-27T13:05:27.985Z</time></trkpt><trkpt lat="46.0492661" lon="12.629901"><ele>136.75</ele><time>2026-03-27T13:05:28.983Z</time></trkpt><trkpt lat="46.0493187" lon="12.6297164"><ele>137.5</ele><time>2026-03-27T13:05:29.983Z</time></trkpt><trkpt lat="46.0493898" lon="12.6295416"><ele>138.25</ele><time>2026-03-27T13:05:30.983Z</time></trkpt><trkpt lat="46.0494712" lon="12.629358"><ele>139.0</ele><time>2026-03-27T13:05:31.983Z</time></trkpt><trkpt lat="46.0495484" lon="12.62916"><ele>139.0</ele><time>2026-03-27T13:05:32.984Z</time></trkpt><trkpt lat="46.0496167" lon="12.6289561"><ele>139.0</ele><time>2026-03-27T13:05:33.984Z</time></trkpt><trkpt lat="46.049673" lon="12.6287631"><ele>139.0</ele><time>2026-03-27T13:05:34.984Z</time></trkpt><trkpt lat="46.0497184" lon="12.6285857"><ele>139.0</ele><time>2026-03-27T13:05:35.983Z</time></trkpt><trkpt lat="46.0497552" lon="12.6284254"><ele>139.0</ele><time>2026-03-27T13:05:36.984Z</time></trkpt><trkpt lat="46.0497891" lon="12.6282887"><ele>139.0</ele><time>2026-03-27T13:05:37.986Z</time></trkpt><trkpt lat="46.0498228" lon="12.628185"><ele>139.0</ele><time>2026-03-27T13:05:38.984Z</time></trkpt><trkpt lat="46.0499074" lon="12.6280853"><ele>139.0</ele><time>2026-03-27T13:05:40.983Z</time></trkpt><trkpt lat="46.0499792" lon="12.6280962"><ele>139.0</ele><time>2026-03-27T13:05:41.985Z</time></trkpt><trkpt lat="46.0500726" lon="12.6281192"><ele>139.2</ele><time>2026-03-27T13:05:42.982Z</time></trkpt><trkpt lat="46.0501668" lon="12.628138"><ele>139.4</ele><time>2026-03-27T13:05:43.984Z</time></trkpt><trkpt lat="46.0502733" lon="12.6281633"><ele>139.6</ele><time>2026-03-27T13:05:44.983Z</time></trkpt><trkpt lat="46.0503867" lon="12.6281917"><ele>139.8</ele><time>2026-03-27T13:05:45.982Z</time></trkpt><trkpt lat="46.0505033" lon="12.6282167"><ele>140.0</ele><time>2026-03-27T13:05:46.982Z</time></trkpt><trkpt lat="46.0506017" lon="12.628225"><ele>140.0</ele><time>2026-03-27T13:05:47.983Z</time></trkpt><trkpt lat="46.05067" lon="12.628225"><ele>140.0</ele><time>2026-03-27T13:05:48.982Z</time></trkpt><trkpt lat="46.05074" lon="12.62823"><ele>140.0</ele><time>2026-03-27T13:05:49.982Z</time></trkpt><trkpt lat="46.0508383" lon="12.6282567"><ele>140.0</ele><time>2026-03-27T13:05:50.984Z</time></trkpt><trkpt lat="46.0509567" lon="12.6283017"><ele>140.0</ele><time>2026-03-27T13:05:51.983Z</time></trkpt><trkpt lat="46.0510817" lon="12.6283583"><ele>140.5</ele><time>2026-03-27T13:05:52.984Z</time></trkpt><trkpt lat="46.0511917" lon="12.6284083"><ele>141.0</ele><time>2026-03-27T13:05:53.986Z</time></trkpt><trkpt lat="46.0512867" lon="12.6284483"><ele>141.5</ele><time>2026-03-27T13:05:54.983Z</time></trkpt><trkpt lat="46.0513967" lon="12.628475"><ele>142.0</ele><time>2026-03-27T13:05:55.982Z</time></trkpt><trkpt lat="46.05153" lon="12.628495"><ele>142.25</ele><time>2026-03-27T13:05:56.983Z</time></trkpt><trkpt lat="46.05168" lon="12.6285083"><ele>142.5</ele><time>2026-03-27T13:05:57.984Z</time></trkpt><trkpt lat="46.0518283" lon="12.62852"><ele>142.75</ele><time>2026-03-27T13:05:58.982Z</time></trkpt><trkpt lat="46.0519667" lon="12.628545"><ele>143.0</ele><time>2026-03-27T13:05:59.983Z</time></trkpt><trkpt lat="46.0521083" lon="12.6285867"><ele>143.0</ele><time>2026-03-27T13:06:00.982Z</time></trkpt><trkpt lat="46.0522483" lon="12.628635"><ele>143.0</ele><time>2026-03-27T13:06:01.983Z</time></trkpt><trkpt lat="46.05238" lon="12.6286717"><ele>143.0</ele><time>2026-03-27T13:06:02.984Z</time></trkpt><trkpt lat="46.05249" lon="12.62869"><ele>143.0</ele><time>2026-03-27T13:06:03.983Z</time></trkpt><trkpt lat="46.0525833" lon="12.6286767"><ele>143.25</ele><time>2026-03-27T13:06:04.982Z</time></trkpt><trkpt lat="46.0526833" lon="12.62863"><ele>143.5</ele><time>2026-03-27T13:06:05.983Z</time></trkpt><trkpt lat="46.0527933" lon="12.62856"><ele>143.75</ele><time>2026-03-27T13:06:06.982Z</time></trkpt><trkpt lat="46.0529117" lon="12.6284983"><ele>144.0</ele><time>2026-03-27T13:06:07.983Z</time></trkpt><trkpt lat="46.0530133" lon="12.6284617"><ele>144.0</ele><time>2026-03-27T13:06:08.983Z</time></trkpt><trkpt lat="46.0530767" lon="12.628455"><ele>144.0</ele><time>2026-03-27T13:06:09.982Z</time></trkpt><trkpt lat="46.0531333" lon="12.6283967"><ele>144.0</ele><time>2026-03-27T13:06:11.982Z</time></trkpt><trkpt lat="46.05317" lon="12.6283"><ele>144.0</ele><time>2026-03-27T13:06:12.982Z</time></trkpt><trkpt lat="46.0532283" lon="12.6281717"><ele>144.0</ele><time>2026-03-27T13:06:13.983Z</time></trkpt><trkpt lat="46.0532967" lon="12.6280317"><ele>144.0</ele><time>2026-03-27T13:06:14.983Z</time></trkpt><trkpt lat="46.0533683" lon="12.6278867"><ele>144.16666666666666</ele><time>2026-03-27T13:06:15.983Z</time></trkpt><trkpt lat="46.053425" lon="12.6277683"><ele>144.33333333333334</ele><time>2026-03-27T13:06:16.985Z</time></trkpt><trkpt lat="46.0534583" lon="12.6276783"><ele>144.5</ele><time>2026-03-27T13:06:17.983Z</time></trkpt><trkpt lat="46.053485" lon="12.6275783"><ele>144.66666666666669</ele><time>2026-03-27T13:06:18.984Z</time></trkpt><trkpt lat="46.0535183" lon="12.6274483"><ele>144.83333333333334</ele><time>2026-03-27T13:06:19.982Z</time></trkpt><trkpt lat="46.053555" lon="12.62732"><ele>145.0</ele><time>2026-03-27T13:06:20.983Z</time></trkpt><trkpt lat="46.0535783" lon="12.62719"><ele>145.0</ele><time>2026-03-27T13:06:21.982Z</time></trkpt><trkpt lat="46.0536017" lon="12.6270583"><ele>145.0</ele><time>2026-03-27T13:06:22.983Z</time></trkpt><trkpt lat="46.053635" lon="12.6269183"><ele>145.0</ele><time>2026-03-27T13:06:23.983Z</time></trkpt><trkpt lat="46.0536717" lon="12.6267583"><ele>145.0</ele><time>2026-03-27T13:06:24.983Z</time></trkpt><trkpt lat="46.0537017" lon="12.626615"><ele>145.0</ele><time>2026-03-27T13:06:25.983Z</time></trkpt><trkpt lat="46.053725" lon="12.6265117"><ele>144.8</ele><time>2026-03-27T13:06:26.983Z</time></trkpt><trkpt lat="46.0537683" lon="12.62636"><ele>144.6</ele><time>2026-03-27T13:06:28.982Z</time></trkpt><trkpt lat="46.0538183" lon="12.6262633"><ele>144.4</ele><time>2026-03-27T13:06:30.983Z</time></trkpt><trkpt lat="46.0539333" lon="12.6263183"><ele>144.2</ele><time>2026-03-27T13:06:32.983Z</time></trkpt><trkpt lat="46.05402" lon="12.6264433"><ele>144.0</ele><time>2026-03-27T13:06:33.982Z</time></trkpt><trkpt lat="46.0541133" lon="12.6265983"><ele>144.25</ele><time>2026-03-27T13:06:34.983Z</time></trkpt><trkpt lat="46.054215" lon="12.6267667"><ele>144.5</ele><time>2026-03-27T13:06:35.982Z</time></trkpt><trkpt lat="46.0543217" lon="12.6269033"><ele>144.75</ele><time>2026-03-27T13:06:36.983Z</time></trkpt><trkpt lat="46.054435" lon="12.6270133"><ele>145.0</ele><time>2026-03-27T13:06:37.983Z</time></trkpt><trkpt lat="46.05457" lon="12.627115"><ele>145.0</ele><time>2026-03-27T13:06:38.983Z</time></trkpt><trkpt lat="46.0547267" lon="12.627205"><ele>145.0</ele><time>2026-03-27T13:06:39.982Z</time></trkpt><trkpt lat="46.0548983" lon="12.627285"><ele>145.0</ele><time>2026-03-27T13:06:40.982Z</time></trkpt><trkpt lat="46.0550767" lon="12.6273683"><ele>144.75</ele><time>2026-03-27T13:06:41.983Z</time></trkpt><trkpt lat="46.0552417" lon="12.627445"><ele>144.5</ele><time>2026-03-27T13:06:42.982Z</time></trkpt><trkpt lat="46.055375" lon="12.6275133"><ele>144.25</ele><time>2026-03-27T13:06:43.982Z</time></trkpt><trkpt lat="46.0554833" lon="12.6275833"><ele>144.0</ele><time>2026-03-27T13:06:44.983Z</time></trkpt><trkpt lat="46.0555783" lon="12.62768"><ele>144.0</ele><time>2026-03-27T13:06:45.984Z</time></trkpt><trkpt lat="46.0556717" lon="12.6278233"><ele>144.0</ele><time>2026-03-27T13:06:46.984Z</time></trkpt><trkpt lat="46.05576" lon="12.6280067"><ele>144.0</ele><time>2026-03-27T13:06:47.983Z</time></trkpt><trkpt lat="46.0558383" lon="12.6281967"><ele>144.0</ele><time>2026-03-27T13:06:48.982Z</time></trkpt><trkpt lat="46.0559233" lon="12.6283883"><ele>144.0</ele><time>2026-03-27T13:06:49.983Z</time></trkpt><trkpt lat="46.0560033" lon="12.6285683"><ele>144.0</ele><time>2026-03-27T13:06:50.984Z</time></trkpt><trkpt lat="46.05607" lon="12.6287067"><ele>144.0</ele><time>2026-03-27T13:06:51.983Z</time></trkpt><trkpt lat="46.0561367" lon="12.6288"><ele>144.0</ele><time>2026-03-27T13:06:52.982Z</time></trkpt><trkpt lat="46.0562233" lon="12.6288767"><ele>144.16666666666666</ele><time>2026-03-27T13:06:53.982Z</time></trkpt><trkpt lat="46.0563267" lon="12.6289333"><ele>144.33333333333334</ele><time>2026-03-27T13:06:54.982Z</time></trkpt><trkpt lat="46.0564167" lon="12.628975"><ele>144.5</ele><time>2026-03-27T13:06:55.982Z</time></trkpt><trkpt lat="46.05649" lon="12.6289983"><ele>144.66666666666669</ele><time>2026-03-27T13:06:56.984Z</time></trkpt><trkpt lat="46.0565517" lon="12.6290333"><ele>144.83333333333334</ele><time>2026-03-27T13:06:59.982Z</time></trkpt><trkpt lat="46.0565417" lon="12.6291567"><ele>145.0</ele><time>2026-03-27T13:07:03.983Z</time></trkpt><trkpt lat="46.056505" lon="12.6292567"><ele>145.0</ele><time>2026-03-27T13:07:04.985Z</time></trkpt><trkpt lat="46.05646" lon="12.62938"><ele>145.0</ele><time>2026-03-27T13:07:05.986Z</time></trkpt><trkpt lat="46.056415" lon="12.6295217"><ele>145.0</ele><time>2026-03-27T13:07:06.984Z</time></trkpt><trkpt lat="46.0563667" lon="12.6296733"><ele>145.0</ele><time>2026-03-27T13:07:07.985Z</time></trkpt><trkpt lat="46.056315" lon="12.6298333"><ele>145.0</ele><time>2026-03-27T13:07:08.983Z</time></trkpt><trkpt lat="46.0562583" lon="12.63"><ele>145.0</ele><time>2026-03-27T13:07:09.983Z</time></trkpt><trkpt lat="46.0562" lon="12.63018"><ele>145.0</ele><time>2026-03-27T13:07:10.983Z</time></trkpt><trkpt lat="46.0561383" lon="12.63037"><ele>145.0</ele><time>2026-03-27T13:07:11.984Z</time></trkpt><trkpt lat="46.0560767" lon="12.6305617"><ele>145.0</ele><time>2026-03-27T13:07:12.983Z</time></trkpt><trkpt lat="46.056015" lon="12.6307583"><ele>145.0</ele><time>2026-03-27T13:07:13.983Z</time></trkpt><trkpt lat="46.0559517" lon="12.6309667"><ele>145.0</ele><time>2026-03-27T13:07:14.983Z</time></trkpt><trkpt lat="46.0558833" lon="12.6311717"><ele>145.0</ele><time>2026-03-27T13:07:15.983Z</time></trkpt><trkpt lat="46.0558167" lon="12.63138"><ele>145.0</ele><time>2026-03-27T13:07:16.983Z</time></trkpt><trkpt lat="46.0557517" lon="12.6315933"><ele>145.0</ele><time>2026-03-27T13:07:17.984Z</time></trkpt><trkpt lat="46.055685" lon="12.6318083"><ele>145.0</ele><time>2026-03-27T13:07:18.983Z</time></trkpt><trkpt lat="46.055615" lon="12.6320233"><ele>145.0</ele><time>2026-03-27T13:07:19.984Z</time></trkpt><trkpt lat="46.0555483" lon="12.6322317"><ele>145.0</ele><time>2026-03-27T13:07:20.983Z</time></trkpt><trkpt lat="46.0554833" lon="12.6324433"><ele>145.0</ele><time>2026-03-27T13:07:21.983Z</time></trkpt><trkpt lat="46.055415" lon="12.632655"><ele>145.33333333333334</ele><time>2026-03-27T13:07:22.983Z</time></trkpt><trkpt lat="46.0553417" lon="12.6328683"><ele>145.66666666666666</ele><time>2026-03-27T13:07:23.982Z</time></trkpt><trkpt lat="46.055265" lon="12.63308"><ele>146.0</ele><time>2026-03-27T13:07:24.983Z</time></trkpt><trkpt lat="46.05518" lon="12.6332883"><ele>146.0</ele><time>2026-03-27T13:07:25.983Z</time></trkpt><trkpt lat="46.0550833" lon="12.6334917"><ele>146.0</ele><time>2026-03-27T13:07:26.983Z</time></trkpt><trkpt lat="46.0549783" lon="12.633695"><ele>146.0</ele><time>2026-03-27T13:07:27.984Z</time></trkpt><trkpt lat="46.0548717" lon="12.6339"><ele>146.0</ele><time>2026-03-27T13:07:28.983Z</time></trkpt><trkpt lat="46.0547683" lon="12.63411"><ele>146.0</ele><time>2026-03-27T13:07:29.982Z</time></trkpt><trkpt lat="46.0546633" lon="12.63432"><ele>146.0</ele><time>2026-03-27T13:07:30.983Z</time></trkpt><trkpt lat="46.05456" lon="12.6345317"><ele>146.0</ele><time>2026-03-27T13:07:31.982Z</time></trkpt><trkpt lat="46.0544533" lon="12.6347433"><ele>146.0</ele><time>2026-03-27T13:07:32.983Z</time></trkpt><trkpt lat="46.0543517" lon="12.634945"><ele>146.0</ele><time>2026-03-27T13:07:33.983Z</time></trkpt><trkpt lat="46.0542567" lon="12.6351383"><ele>146.25</ele><time>2026-03-27T13:07:34.983Z</time></trkpt><trkpt lat="46.05417" lon="12.6353183"><ele>146.5</ele><time>2026-03-27T13:07:35.983Z</time></trkpt><trkpt lat="46.054085" lon="12.6354833"><ele>146.75</ele><time>2026-03-27T13:07:36.983Z</time></trkpt><trkpt lat="46.0540017" lon="12.635635"><ele>147.0</ele><time>2026-03-27T13:07:37.983Z</time></trkpt><trkpt lat="46.053925" lon="12.635785"><ele>146.75</ele><time>2026-03-27T13:07:38.984Z</time></trkpt><trkpt lat="46.0538683" lon="12.6359383"><ele>146.5</ele><time>2026-03-27T13:07:39.982Z</time></trkpt><trkpt lat="46.0538233" lon="12.6361067"><ele>146.25</ele><time>2026-03-27T13:07:40.983Z</time></trkpt><trkpt lat="46.0537917" lon="12.6362933"><ele>146.0</ele><time>2026-03-27T13:07:41.985Z</time></trkpt><trkpt lat="46.0537667" lon="12.6364867"><ele>146.0</ele><time>2026-03-27T13:07:42.982Z</time></trkpt><trkpt lat="46.053745" lon="12.6366883"><ele>146.0</ele><time>2026-03-27T13:07:43.982Z</time></trkpt><trkpt lat="46.0537267" lon="12.636895"><ele>146.0</ele><time>2026-03-27T13:07:44.985Z</time></trkpt><trkpt lat="46.0537198" lon="12.6371066"><ele>146.0</ele><time>2026-03-27T13:07:45.982Z</time></trkpt><trkpt lat="46.0537092" lon="12.6373093"><ele>146.0</ele><time>2026-03-27T13:07:46.984Z</time></trkpt><trkpt lat="46.0536969" lon="12.6374898"><ele>146.0</ele><time>2026-03-27T13:07:47.984Z</time></trkpt><trkpt lat="46.0536891" lon="12.6376433"><ele>146.0</ele><time>2026-03-27T13:07:48.984Z</time></trkpt><trkpt lat="46.0536813" lon="12.6377613"><ele>146.0</ele><time>2026-03-27T13:07:49.982Z</time></trkpt><trkpt lat="46.0537474" lon="12.6378902"><ele>146.0</ele><time>2026-03-27T13:07:51.984Z</time></trkpt><trkpt lat="46.0538168" lon="12.6379189"><ele>146.0</ele><time>2026-03-27T13:07:52.982Z</time></trkpt><trkpt lat="46.053901" lon="12.6379436"><ele>146.0</ele><time>2026-03-27T13:07:53.983Z</time></trkpt><trkpt lat="46.0539963" lon="12.637968"><ele>146.0</ele><time>2026-03-27T13:07:54.983Z</time></trkpt><trkpt lat="46.0540989" lon="12.6379944"><ele>146.0</ele><time>2026-03-27T13:07:55.983Z</time></trkpt><trkpt lat="46.0542025" lon="12.6380218"><ele>146.0</ele><time>2026-03-27T13:07:56.983Z</time></trkpt><trkpt lat="46.0543071" lon="12.6380506"><ele>146.6</ele><time>2026-03-27T13:07:57.982Z</time></trkpt><trkpt lat="46.0544121" lon="12.6380803"><ele>147.2</ele><time>2026-03-27T13:07:58.982Z</time></trkpt><trkpt lat="46.0545162" lon="12.6381078"><ele>147.8</ele><time>2026-03-27T13:07:59.983Z</time></trkpt><trkpt lat="46.0546218" lon="12.638141"><ele>148.4</ele><time>2026-03-27T13:08:00.984Z</time></trkpt><trkpt lat="46.0547265" lon="12.6381785"><ele>149.0</ele><time>2026-03-27T13:08:01.985Z</time></trkpt><trkpt lat="46.0548207" lon="12.6382149"><ele>149.0</ele><time>2026-03-27T13:08:02.983Z</time></trkpt><trkpt lat="46.054913" lon="12.6382482"><ele>149.0</ele><time>2026-03-27T13:08:03.983Z</time></trkpt><trkpt lat="46.0550105" lon="12.6382764"><ele>149.0</ele><time>2026-03-27T13:08:04.983Z</time></trkpt><trkpt lat="46.0551078" lon="12.6383065"><ele>149.0</ele><time>2026-03-27T13:08:05.984Z</time></trkpt><trkpt lat="46.0552078" lon="12.6383432"><ele>149.0</ele><time>2026-03-27T13:08:06.982Z</time></trkpt><trkpt lat="46.0553077" lon="12.6383832"><ele>149.2</ele><time>2026-03-27T13:08:07.982Z</time></trkpt><trkpt lat="46.0554077" lon="12.6384342"><ele>149.4</ele><time>2026-03-27T13:08:08.983Z</time></trkpt><trkpt lat="46.0555122" lon="12.6384926"><ele>149.6</ele><time>2026-03-27T13:08:09.983Z</time></trkpt><trkpt lat="46.055618" lon="12.6385481"><ele>149.8</ele><time>2026-03-27T13:08:10.984Z</time></trkpt><trkpt lat="46.0557234" lon="12.6385959"><ele>150.0</ele><time>2026-03-27T13:08:11.983Z</time></trkpt><trkpt lat="46.0558286" lon="12.6386446"><ele>150.0</ele><time>2026-03-27T13:08:12.982Z</time></trkpt><trkpt lat="46.0559319" lon="12.6386963"><ele>150.0</ele><time>2026-03-27T13:08:13.984Z</time></trkpt><trkpt lat="46.0560383" lon="12.6387433"><ele>150.0</ele><time>2026-03-27T13:08:14.984Z</time></trkpt><trkpt lat="46.0561469" lon="12.6387932"><ele>150.0</ele><time>2026-03-27T13:08:15.982Z</time></trkpt><trkpt lat="46.0562538" lon="12.6388501"><ele>150.0</ele><time>2026-03-27T13:08:16.982Z</time></trkpt><trkpt lat="46.0563608" lon="12.6389103"><ele>150.0</ele><time>2026-03-27T13:08:17.983Z</time></trkpt><trkpt lat="46.0564717" lon="12.6389715"><ele>150.0</ele><time>2026-03-27T13:08:18.983Z</time></trkpt><trkpt lat="46.0565874" lon="12.6390397"><ele>150.0</ele><time>2026-03-27T13:08:19.983Z</time></trkpt><trkpt lat="46.0567046" lon="12.6391096"><ele>150.0</ele><time>2026-03-27T13:08:20.985Z</time></trkpt><trkpt lat="46.0568245" lon="12.63918"><ele>150.5</ele><time>2026-03-27T13:08:21.982Z</time></trkpt><trkpt lat="46.056949" lon="12.6392494"><ele>151.0</ele><time>2026-03-27T13:08:22.983Z</time></trkpt><trkpt lat="46.0570743" lon="12.6393207"><ele>151.5</ele><time>2026-03-27T13:08:23.983Z</time></trkpt><trkpt lat="46.0572025" lon="12.6393925"><ele>152.0</ele><time>2026-03-27T13:08:24.984Z</time></trkpt><trkpt lat="46.0573337" lon="12.6394637"><ele>152.5</ele><time>2026-03-27T13:08:25.982Z</time></trkpt><trkpt lat="46.0574658" lon="12.6395385"><ele>153.0</ele><time>2026-03-27T13:08:26.984Z</time></trkpt><trkpt lat="46.0576059" lon="12.6396097"><ele>153.5</ele><time>2026-03-27T13:08:27.984Z</time></trkpt><trkpt lat="46.0577486" lon="12.6396885"><ele>154.0</ele><time>2026-03-27T13:08:28.985Z</time></trkpt><trkpt lat="46.0578938" lon="12.639765"><ele>154.0</ele><time>2026-03-27T13:08:29.986Z</time></trkpt><trkpt lat="46.0580408" lon="12.6398455"><ele>154.0</ele><time>2026-03-27T13:08:30.983Z</time></trkpt><trkpt lat="46.0581885" lon="12.639922"><ele>154.0</ele><time>2026-03-27T13:08:31.982Z</time></trkpt><trkpt lat="46.0583403" lon="12.6399936"><ele>154.33333333333334</ele><time>2026-03-27T13:08:32.983Z</time></trkpt><trkpt lat="46.0584961" lon="12.6400523"><ele>154.66666666666666</ele><time>2026-03-27T13:08:33.982Z</time></trkpt><trkpt lat="46.0586503" lon="12.6400889"><ele>155.0</ele><time>2026-03-27T13:08:34.984Z</time></trkpt><trkpt lat="46.0588068" lon="12.6401058"><ele>155.0</ele><time>2026-03-27T13:08:35.983Z</time></trkpt><trkpt lat="46.0589682" lon="12.6401057"><ele>155.0</ele><time>2026-03-27T13:08:36.987Z</time></trkpt><trkpt lat="46.0591364" lon="12.640094"><ele>155.0</ele><time>2026-03-27T13:08:37.982Z</time></trkpt><trkpt lat="46.0593057" lon="12.6400778"><ele>155.0</ele><time>2026-03-27T13:08:38.983Z</time></trkpt><trkpt lat="46.0594746" lon="12.6400617"><ele>155.0</ele><time>2026-03-27T13:08:39.983Z</time></trkpt><trkpt lat="46.0596444" lon="12.6400448"><ele>155.0</ele><time>2026-03-27T13:08:40.983Z</time></trkpt><trkpt lat="46.0598145" lon="12.6400317"><ele>155.66666666666666</ele><time>2026-03-27T13:08:41.983Z</time></trkpt><trkpt lat="46.0599902" lon="12.6400303"><ele>156.33333333333334</ele><time>2026-03-27T13:08:42.983Z</time></trkpt><trkpt lat="46.0601614" lon="12.6400426"><ele>157.0</ele><time>2026-03-27T13:08:43.983Z</time></trkpt><trkpt lat="46.0603303" lon="12.6400659"><ele>157.0</ele><time>2026-03-27T13:08:44.984Z</time></trkpt><trkpt lat="46.0605013" lon="12.640098"><ele>157.0</ele><time>2026-03-27T13:08:45.983Z</time></trkpt><trkpt lat="46.0606692" lon="12.6401241"><ele>157.0</ele><time>2026-03-27T13:08:46.987Z</time></trkpt><trkpt lat="46.0608383" lon="12.6401506"><ele>157.33333333333334</ele><time>2026-03-27T13:08:47.983Z</time></trkpt><trkpt lat="46.0610084" lon="12.6401841"><ele>157.66666666666666</ele><time>2026-03-27T13:08:48.984Z</time></trkpt><trkpt lat="46.0611772" lon="12.6402285"><ele>158.0</ele><time>2026-03-27T13:08:49.984Z</time></trkpt><trkpt lat="46.061344" lon="12.6402842"><ele>158.0</ele><time>2026-03-27T13:08:50.983Z</time></trkpt><trkpt lat="46.0615119" lon="12.6403402"><ele>158.0</ele><time>2026-03-27T13:08:51.983Z</time></trkpt><trkpt lat="46.0616833" lon="12.640388"><ele>158.0</ele><time>2026-03-27T13:08:52.983Z</time></trkpt><trkpt lat="46.0618594" lon="12.6404309"><ele>158.33333333333331</ele><time>2026-03-27T13:08:53.984Z</time></trkpt><trkpt lat="46.0620387" lon="12.6404671"><ele>158.66666666666666</ele><time>2026-03-27T13:08:54.983Z</time></trkpt><trkpt lat="46.0622215" lon="12.6405023"><ele>159.0</ele><time>2026-03-27T13:08:55.983Z</time></trkpt><trkpt lat="46.0624053" lon="12.6405403"><ele>159.66666666666666</ele><time>2026-03-27T13:08:56.987Z</time></trkpt><trkpt lat="46.062584" lon="12.640581"><ele>160.33333333333331</ele><time>2026-03-27T13:08:57.983Z</time></trkpt><trkpt lat="46.0627668" lon="12.6406142"><ele>161.0</ele><time>2026-03-27T13:08:58.982Z</time></trkpt><trkpt lat="46.0629479" lon="12.640645"><ele>161.0</ele><time>2026-03-27T13:08:59.984Z</time></trkpt><trkpt lat="46.0631289" lon="12.6406761"><ele>161.0</ele><time>2026-03-27T13:09:00.982Z</time></trkpt><trkpt lat="46.0633088" lon="12.6407092"><ele>161.0</ele><time>2026-03-27T13:09:01.984Z</time></trkpt><trkpt lat="46.0634801" lon="12.640744"><ele>161.0</ele><time>2026-03-27T13:09:02.985Z</time></trkpt><trkpt lat="46.0636358" lon="12.6407816"><ele>161.0</ele><time>2026-03-27T13:09:03.984Z</time></trkpt><trkpt lat="46.0637773" lon="12.6408273"><ele>161.0</ele><time>2026-03-27T13:09:04.984Z</time></trkpt><trkpt lat="46.0639149" lon="12.640886"><ele>161.0</ele><time>2026-03-27T13:09:05.983Z</time></trkpt><trkpt lat="46.0640504" lon="12.6409474"><ele>161.4</ele><time>2026-03-27T13:09:06.982Z</time></trkpt><trkpt lat="46.0641747" lon="12.6410057"><ele>161.8</ele><time>2026-03-27T13:09:07.984Z</time></trkpt><trkpt lat="46.0642835" lon="12.6410621"><ele>162.20000000000002</ele><time>2026-03-27T13:09:08.984Z</time></trkpt><trkpt lat="46.064379" lon="12.6411103"><ele>162.60000000000002</ele><time>2026-03-27T13:09:09.984Z</time></trkpt><trkpt lat="46.0644528" lon="12.641149"><ele>163.0</ele><time>2026-03-27T13:09:10.983Z</time></trkpt><trkpt lat="46.0645542" lon="12.6411681"><ele>163.0</ele><time>2026-03-27T13:09:12.984Z</time></trkpt><trkpt lat="46.0645971" lon="12.640981"><ele>163.0</ele><time>2026-03-27T13:09:14.983Z</time></trkpt><trkpt lat="46.0646096" lon="12.6408259"><ele>163.0</ele><time>2026-03-27T13:09:15.983Z</time></trkpt><trkpt lat="46.064616" lon="12.6406082"><ele>163.0</ele><time>2026-03-27T13:09:16.982Z</time></trkpt><trkpt lat="46.0646259" lon="12.6403736"><ele>162.66666666666669</ele><time>2026-03-27T13:09:17.982Z</time></trkpt><trkpt lat="46.0646363" lon="12.6401313"><ele>162.33333333333334</ele><time>2026-03-27T13:09:18.983Z</time></trkpt><trkpt lat="46.0646468" lon="12.6398787"><ele>162.0</ele><time>2026-03-27T13:09:19.983Z</time></trkpt><trkpt lat="46.064658" lon="12.6396185"><ele>161.33333333333334</ele><time>2026-03-27T13:09:20.984Z</time></trkpt><trkpt lat="46.0646725" lon="12.6393492"><ele>160.66666666666669</ele><time>2026-03-27T13:09:21.983Z</time></trkpt><trkpt lat="46.0646864" lon="12.6390741"><ele>160.0</ele><time>2026-03-27T13:09:22.985Z</time></trkpt><trkpt lat="46.0646998" lon="12.6387933"><ele>160.66666666666669</ele><time>2026-03-27T13:09:23.983Z</time></trkpt><trkpt lat="46.0647151" lon="12.6385045"><ele>161.33333333333334</ele><time>2026-03-27T13:09:24.983Z</time></trkpt><trkpt lat="46.0647333" lon="12.6382117"><ele>162.0</ele><time>2026-03-27T13:09:25.982Z</time></trkpt><trkpt lat="46.06475" lon="12.6379133"><ele>161.66666666666666</ele><time>2026-03-27T13:09:26.983Z</time></trkpt><trkpt lat="46.0647667" lon="12.6376167"><ele>161.33333333333331</ele><time>2026-03-27T13:09:27.983Z</time></trkpt><trkpt lat="46.0647833" lon="12.6373133"><ele>161.0</ele><time>2026-03-27T13:09:28.983Z</time></trkpt><trkpt lat="46.0648017" lon="12.6370017"><ele>160.66666666666666</ele><time>2026-03-27T13:09:29.983Z</time></trkpt><trkpt lat="46.0648183" lon="12.6366833"><ele>160.33333333333334</ele><time>2026-03-27T13:09:30.983Z</time></trkpt><trkpt lat="46.0648333" lon="12.6363867"><ele>160.0</ele><time>2026-03-27T13:09:31.983Z</time></trkpt><trkpt lat="46.0648483" lon="12.6361517"><ele>160.0</ele><time>2026-03-27T13:09:32.983Z</time></trkpt><trkpt lat="46.0648667" lon="12.6359567"><ele>160.0</ele><time>2026-03-27T13:09:33.983Z</time></trkpt><trkpt lat="46.0649033" lon="12.6357833"><ele>160.0</ele><time>2026-03-27T13:09:34.983Z</time></trkpt><trkpt lat="46.064965" lon="12.635615"><ele>160.0</ele><time>2026-03-27T13:09:35.983Z</time></trkpt><trkpt lat="46.06502" lon="12.635455"><ele>161.0</ele><time>2026-03-27T13:09:36.983Z</time></trkpt><trkpt lat="46.0650517" lon="12.6352933"><ele>162.0</ele><time>2026-03-27T13:09:37.983Z</time></trkpt><trkpt lat="46.06508" lon="12.6351383"><ele>163.0</ele><time>2026-03-27T13:09:38.983Z</time></trkpt><trkpt lat="46.06513" lon="12.6349883"><ele>164.0</ele><time>2026-03-27T13:09:39.983Z</time></trkpt><trkpt lat="46.06521" lon="12.6348133"><ele>164.0</ele><time>2026-03-27T13:09:40.984Z</time></trkpt><trkpt lat="46.0652933" lon="12.6346233"><ele>164.0</ele><time>2026-03-27T13:09:41.984Z</time></trkpt><trkpt lat="46.06538" lon="12.6344333"><ele>164.0</ele><time>2026-03-27T13:09:42.985Z</time></trkpt><trkpt lat="46.0654767" lon="12.6342367"><ele>163.33333333333331</ele><time>2026-03-27T13:09:43.985Z</time></trkpt><trkpt lat="46.0655867" lon="12.6340417"><ele>162.66666666666666</ele><time>2026-03-27T13:09:44.987Z</time></trkpt><trkpt lat="46.0656917" lon="12.6338533"><ele>162.0</ele><time>2026-03-27T13:09:45.983Z</time></trkpt><trkpt lat="46.0657767" lon="12.6336867"><ele>161.83333333333334</ele><time>2026-03-27T13:09:46.983Z</time></trkpt><trkpt lat="46.0658433" lon="12.6335533"><ele>161.66666666666666</ele><time>2026-03-27T13:09:47.983Z</time></trkpt><trkpt lat="46.0659017" lon="12.63345"><ele>161.5</ele><time>2026-03-27T13:09:48.984Z</time></trkpt><trkpt lat="46.0659583" lon="12.6333667"><ele>161.33333333333331</ele><time>2026-03-27T13:09:49.983Z</time></trkpt><trkpt lat="46.0660067" lon="12.6333"><ele>161.16666666666666</ele><time>2026-03-27T13:09:50.984Z</time></trkpt><trkpt lat="46.06606" lon="12.633245"><ele>161.0</ele><time>2026-03-27T13:09:53.982Z</time></trkpt><trkpt lat="46.0661317" lon="12.6332667"><ele>161.0</ele><time>2026-03-27T13:10:39.982Z</time></trkpt><trkpt lat="46.0662083" lon="12.63322"><ele>161.0</ele><time>2026-03-27T13:10:40.982Z</time></trkpt><trkpt lat="46.0662933" lon="12.6331733"><ele>161.0</ele><time>2026-03-27T13:10:41.983Z</time></trkpt><trkpt lat="46.0663667" lon="12.6331233"><ele>161.0</ele><time>2026-03-27T13:10:42.982Z</time></trkpt><trkpt lat="46.0664267" lon="12.633075"><ele>161.0</ele><time>2026-03-27T13:10:43.983Z</time></trkpt><trkpt lat="46.0664933" lon="12.63294"><ele>161.0</ele><time>2026-03-27T13:10:45.984Z</time></trkpt><trkpt lat="46.0665283" lon="12.6328217"><ele>161.66666666666666</ele><time>2026-03-27T13:10:46.984Z</time></trkpt><trkpt lat="46.0665633" lon="12.6326517"><ele>162.33333333333334</ele><time>2026-03-27T13:10:47.983Z</time></trkpt><trkpt lat="46.0666067" lon="12.6324083"><ele>163.0</ele><time>2026-03-27T13:10:48.985Z</time></trkpt><trkpt lat="46.066655" lon="12.632135"><ele>163.25</ele><time>2026-03-27T13:10:49.983Z</time></trkpt><trkpt lat="46.066705" lon="12.631885"><ele>163.5</ele><time>2026-03-27T13:10:50.984Z</time></trkpt><trkpt lat="46.0667433" lon="12.631705"><ele>163.75</ele><time>2026-03-27T13:10:51.982Z</time></trkpt><trkpt lat="46.0667667" lon="12.6315383"><ele>164.0</ele><time>2026-03-27T13:10:52.983Z</time></trkpt><trkpt lat="46.0667883" lon="12.6313617"><ele>164.0</ele><time>2026-03-27T13:10:53.987Z</time></trkpt><trkpt lat="46.0668067" lon="12.6311983"><ele>164.0</ele><time>2026-03-27T13:10:54.983Z</time></trkpt><trkpt lat="46.0668133" lon="12.63105"><ele>164.0</ele><time>2026-03-27T13:10:55.983Z</time></trkpt><trkpt lat="46.0668117" lon="12.630915"><ele>164.0</ele><time>2026-03-27T13:10:56.984Z</time></trkpt><trkpt lat="46.0667933" lon="12.6307933"><ele>164.0</ele><time>2026-03-27T13:10:57.983Z</time></trkpt><trkpt lat="46.0667583" lon="12.630675"><ele>164.25</ele><time>2026-03-27T13:10:58.985Z</time></trkpt><trkpt lat="46.0666983" lon="12.6305433"><ele>164.5</ele><time>2026-03-27T13:10:59.985Z</time></trkpt><trkpt lat="46.0666133" lon="12.6304017"><ele>164.75</ele><time>2026-03-27T13:11:00.983Z</time></trkpt><trkpt lat="46.0665283" lon="12.6302583"><ele>165.0</ele><time>2026-03-27T13:11:01.983Z</time></trkpt><trkpt lat="46.0664533" lon="12.630135"><ele>164.66666666666666</ele><time>2026-03-27T13:11:02.983Z</time></trkpt><trkpt lat="46.0663967" lon="12.63003"><ele>164.33333333333334</ele><time>2026-03-27T13:11:03.984Z</time></trkpt><trkpt lat="46.0663633" lon="12.62993"><ele>164.0</ele><time>2026-03-27T13:11:04.984Z</time></trkpt><trkpt lat="46.0663633" lon="12.6298333"><ele>163.66666666666669</ele><time>2026-03-27T13:11:05.983Z</time></trkpt><trkpt lat="46.0663933" lon="12.6297383"><ele>163.33333333333334</ele><time>2026-03-27T13:11:06.984Z</time></trkpt><trkpt lat="46.0664567" lon="12.6296483"><ele>163.0</ele><time>2026-03-27T13:11:07.983Z</time></trkpt><trkpt lat="46.06654" lon="12.6295683"><ele>163.0</ele><time>2026-03-27T13:11:08.983Z</time></trkpt><trkpt lat="46.066625" lon="12.6294967"><ele>163.0</ele><time>2026-03-27T13:11:09.982Z</time></trkpt><trkpt lat="46.0667117" lon="12.6294067"><ele>163.0</ele><time>2026-03-27T13:11:10.983Z</time></trkpt><trkpt lat="46.066795" lon="12.6292917"><ele>163.0</ele><time>2026-03-27T13:11:11.985Z</time></trkpt><trkpt lat="46.0668733" lon="12.6291667"><ele>163.0</ele><time>2026-03-27T13:11:12.985Z</time></trkpt><trkpt lat="46.0669517" lon="12.62904"><ele>163.0</ele><time>2026-03-27T13:11:13.984Z</time></trkpt><trkpt lat="46.0670317" lon="12.62891"><ele>163.0</ele><time>2026-03-27T13:11:14.983Z</time></trkpt><trkpt lat="46.0671067" lon="12.6287517"><ele>163.0</ele><time>2026-03-27T13:11:15.984Z</time></trkpt><trkpt lat="46.0671767" lon="12.6285667"><ele>163.0</ele><time>2026-03-27T13:11:16.984Z</time></trkpt><trkpt lat="46.06725" lon="12.628375"><ele>162.75</ele><time>2026-03-27T13:11:17.983Z</time></trkpt><trkpt lat="46.0673217" lon="12.628195"><ele>162.5</ele><time>2026-03-27T13:11:18.982Z</time></trkpt><trkpt lat="46.0673917" lon="12.628035"><ele>162.25</ele><time>2026-03-27T13:11:19.982Z</time></trkpt><trkpt lat="46.0674567" lon="12.6278967"><ele>162.0</ele><time>2026-03-27T13:11:20.983Z</time></trkpt><trkpt lat="46.06754" lon="12.627785"><ele>162.5</ele><time>2026-03-27T13:11:21.982Z</time></trkpt><trkpt lat="46.06766" lon="12.6276767"><ele>163.0</ele><time>2026-03-27T13:11:22.982Z</time></trkpt><trkpt lat="46.0677783" lon="12.6275767"><ele>163.5</ele><time>2026-03-27T13:11:23.982Z</time></trkpt><trkpt lat="46.0678783" lon="12.62747"><ele>164.0</ele><time>2026-03-27T13:11:24.982Z</time></trkpt><trkpt lat="46.0679733" lon="12.62733"><ele>164.0</ele><time>2026-03-27T13:11:25.984Z</time></trkpt><trkpt lat="46.06807" lon="12.6271517"><ele>164.0</ele><time>2026-03-27T13:11:26.985Z</time></trkpt><trkpt lat="46.0681567" lon="12.6269483"><ele>164.0</ele><time>2026-03-27T13:11:27.984Z</time></trkpt><trkpt lat="46.0682367" lon="12.62674"><ele>164.5</ele><time>2026-03-27T13:11:28.982Z</time></trkpt><trkpt lat="46.0683033" lon="12.626555"><ele>165.0</ele><time>2026-03-27T13:11:29.982Z</time></trkpt><trkpt lat="46.0683633" lon="12.62639"><ele>165.5</ele><time>2026-03-27T13:11:30.982Z</time></trkpt><trkpt lat="46.0684233" lon="12.626235"><ele>166.0</ele><time>2026-03-27T13:11:31.983Z</time></trkpt><trkpt lat="46.0684867" lon="12.6260733"><ele>166.25</ele><time>2026-03-27T13:11:32.983Z</time></trkpt><trkpt lat="46.0685517" lon="12.6259017"><ele>166.5</ele><time>2026-03-27T13:11:33.983Z</time></trkpt><trkpt lat="46.0686083" lon="12.6257117"><ele>166.75</ele><time>2026-03-27T13:11:34.984Z</time></trkpt><trkpt lat="46.0686533" lon="12.6254967"><ele>167.0</ele><time>2026-03-27T13:11:35.983Z</time></trkpt><trkpt lat="46.06869" lon="12.6252633"><ele>166.0</ele><time>2026-03-27T13:11:36.983Z</time></trkpt><trkpt lat="46.0687217" lon="12.6250167"><ele>165.0</ele><time>2026-03-27T13:11:37.982Z</time></trkpt><trkpt lat="46.0687517" lon="12.6247633"><ele>164.0</ele><time>2026-03-27T13:11:38.982Z</time></trkpt><trkpt lat="46.0687867" lon="12.6245267"><ele>163.66666666666666</ele><time>2026-03-27T13:11:39.982Z</time></trkpt><trkpt lat="46.068845" lon="12.6242983"><ele>163.33333333333334</ele><time>2026-03-27T13:11:40.983Z</time></trkpt><trkpt lat="46.0689267" lon="12.6240717"><ele>163.0</ele><time>2026-03-27T13:11:41.982Z</time></trkpt><trkpt lat="46.0690033" lon="12.6238633"><ele>163.0</ele><time>2026-03-27T13:11:42.982Z</time></trkpt><trkpt lat="46.0690733" lon="12.62366"><ele>163.0</ele><time>2026-03-27T13:11:43.984Z</time></trkpt><trkpt lat="46.0691317" lon="12.623435"><ele>163.0</ele><time>2026-03-27T13:11:44.984Z</time></trkpt><trkpt lat="46.069185" lon="12.6231833"><ele>164.33333333333334</ele><time>2026-03-27T13:11:45.982Z</time></trkpt><trkpt lat="46.06924" lon="12.6229217"><ele>165.66666666666666</ele><time>2026-03-27T13:11:46.982Z</time></trkpt><trkpt lat="46.0693017" lon="12.6226517"><ele>167.0</ele><time>2026-03-27T13:11:47.983Z</time></trkpt><trkpt lat="46.0693667" lon="12.6223633"><ele>167.0</ele><time>2026-03-27T13:11:48.982Z</time></trkpt><trkpt lat="46.0694333" lon="12.6220633"><ele>167.0</ele><time>2026-03-27T13:11:49.983Z</time></trkpt><trkpt lat="46.0694967" lon="12.6217583"><ele>167.0</ele><time>2026-03-27T13:11:50.983Z</time></trkpt><trkpt lat="46.06956" lon="12.6214483"><ele>167.5</ele><time>2026-03-27T13:11:51.982Z</time></trkpt><trkpt lat="46.0696283" lon="12.6211367"><ele>168.0</ele><time>2026-03-27T13:11:52.982Z</time></trkpt><trkpt lat="46.069705" lon="12.6208267"><ele>168.0</ele><time>2026-03-27T13:11:53.982Z</time></trkpt><trkpt lat="46.0697817" lon="12.620545"><ele>168.0</ele><time>2026-03-27T13:11:54.983Z</time></trkpt><trkpt lat="46.0698517" lon="12.620315"><ele>168.0</ele><time>2026-03-27T13:11:55.982Z</time></trkpt><trkpt lat="46.0699183" lon="12.62013"><ele>168.2</ele><time>2026-03-27T13:11:56.982Z</time></trkpt><trkpt lat="46.0699733" lon="12.6199917"><ele>168.4</ele><time>2026-03-27T13:11:57.982Z</time></trkpt><trkpt lat="46.0700133" lon="12.61989"><ele>168.6</ele><time>2026-03-27T13:11:58.983Z</time></trkpt><trkpt lat="46.0700446" lon="12.6198036"><ele>168.79999999999998</ele><time>2026-03-27T13:11:59.983Z</time></trkpt><trkpt lat="46.0700898" lon="12.6196932"><ele>169.0</ele><time>2026-03-27T13:12:01.982Z</time></trkpt><trkpt lat="46.0701524" lon="12.6195571"><ele>168.33333333333334</ele><time>2026-03-27T13:12:33.034Z</time></trkpt><trkpt lat="46.070211" lon="12.6193572"><ele>167.66666666666666</ele><time>2026-03-27T13:12:33.984Z</time></trkpt><trkpt lat="46.0702781" lon="12.6191431"><ele>167.0</ele><time>2026-03-27T13:12:34.982Z</time></trkpt><trkpt lat="46.0703422" lon="12.6189541"><ele>167.0</ele><time>2026-03-27T13:12:35.983Z</time></trkpt><trkpt lat="46.0704043" lon="12.6187776"><ele>167.0</ele><time>2026-03-27T13:12:36.983Z</time></trkpt><trkpt lat="46.0704596" lon="12.6186133"><ele>167.0</ele><time>2026-03-27T13:12:37.982Z</time></trkpt><trkpt lat="46.0705111" lon="12.6184496"><ele>167.0</ele><time>2026-03-27T13:12:38.984Z</time></trkpt><trkpt lat="46.0705601" lon="12.6182787"><ele>167.0</ele><time>2026-03-27T13:12:39.982Z</time></trkpt><trkpt lat="46.0706086" lon="12.6181055"><ele>167.0</ele><time>2026-03-27T13:12:40.984Z</time></trkpt><trkpt lat="46.0706581" lon="12.6179292"><ele>167.0</ele><time>2026-03-27T13:12:41.982Z</time></trkpt><trkpt lat="46.0707119" lon="12.6177491"><ele>167.0</ele><time>2026-03-27T13:12:42.982Z</time></trkpt><trkpt lat="46.0707712" lon="12.6175666"><ele>167.0</ele><time>2026-03-27T13:12:43.983Z</time></trkpt><trkpt lat="46.0708358" lon="12.6173808"><ele>167.0</ele><time>2026-03-27T13:12:44.983Z</time></trkpt><trkpt lat="46.070903" lon="12.6171925"><ele>167.0</ele><time>2026-03-27T13:12:45.983Z</time></trkpt><trkpt lat="46.0709715" lon="12.6170092"><ele>167.0</ele><time>2026-03-27T13:12:46.985Z</time></trkpt><trkpt lat="46.071039" lon="12.6168359"><ele>167.0</ele><time>2026-03-27T13:12:47.982Z</time></trkpt><trkpt lat="46.0711069" lon="12.6166664"><ele>167.0</ele><time>2026-03-27T13:12:48.982Z</time></trkpt><trkpt lat="46.0711757" lon="12.6164981"><ele>167.0</ele><time>2026-03-27T13:12:49.982Z</time></trkpt><trkpt lat="46.0712488" lon="12.6163272"><ele>167.0</ele><time>2026-03-27T13:12:50.982Z</time></trkpt><trkpt lat="46.0713256" lon="12.6161504"><ele>166.33333333333331</ele><time>2026-03-27T13:12:51.982Z</time></trkpt><trkpt lat="46.0714054" lon="12.6159704"><ele>165.66666666666666</ele><time>2026-03-27T13:12:52.983Z</time></trkpt><trkpt lat="46.0714888" lon="12.6157899"><ele>165.0</ele><time>2026-03-27T13:12:53.983Z</time></trkpt><trkpt lat="46.0715752" lon="12.6156067"><ele>165.5</ele><time>2026-03-27T13:12:54.982Z</time></trkpt><trkpt lat="46.0716555" lon="12.6154277"><ele>166.0</ele><time>2026-03-27T13:12:55.983Z</time></trkpt><trkpt lat="46.0717292" lon="12.615265"><ele>166.5</ele><time>2026-03-27T13:12:56.983Z</time></trkpt><trkpt lat="46.0718002" lon="12.6151052"><ele>167.0</ele><time>2026-03-27T13:12:57.982Z</time></trkpt><trkpt lat="46.0718658" lon="12.6149404"><ele>167.0</ele><time>2026-03-27T13:12:58.982Z</time></trkpt><trkpt lat="46.0719305" lon="12.6147723"><ele>167.0</ele><time>2026-03-27T13:12:59.986Z</time></trkpt><trkpt lat="46.0719934" lon="12.6145996"><ele>167.0</ele><time>2026-03-27T13:13:00.984Z</time></trkpt><trkpt lat="46.0720518" lon="12.6144228"><ele>167.0</ele><time>2026-03-27T13:13:01.982Z</time></trkpt><trkpt lat="46.0721054" lon="12.6142387"><ele>167.0</ele><time>2026-03-27T13:13:02.983Z</time></trkpt><trkpt lat="46.0721526" lon="12.6140465"><ele>167.0</ele><time>2026-03-27T13:13:03.982Z</time></trkpt><trkpt lat="46.0721943" lon="12.6138489"><ele>167.0</ele><time>2026-03-27T13:13:04.987Z</time></trkpt><trkpt lat="46.0722288" lon="12.6136471"><ele>167.0</ele><time>2026-03-27T13:13:05.983Z</time></trkpt><trkpt lat="46.0722598" lon="12.6134447"><ele>167.0</ele><time>2026-03-27T13:13:06.983Z</time></trkpt><trkpt lat="46.0722927" lon="12.6132531"><ele>167.0</ele><time>2026-03-27T13:13:07.984Z</time></trkpt><trkpt lat="46.0723246" lon="12.6130741"><ele>167.0</ele><time>2026-03-27T13:13:08.986Z</time></trkpt><trkpt lat="46.0723528" lon="12.6129123"><ele>167.0</ele><time>2026-03-27T13:13:09.982Z</time></trkpt><trkpt lat="46.0723751" lon="12.6127562"><ele>167.0</ele><time>2026-03-27T13:13:10.983Z</time></trkpt><trkpt lat="46.0723893" lon="12.6125926"><ele>167.0</ele><time>2026-03-27T13:13:11.982Z</time></trkpt><trkpt lat="46.0723961" lon="12.6124333"><ele>167.0</ele><time>2026-03-27T13:13:12.982Z</time></trkpt><trkpt lat="46.072402" lon="12.6122893"><ele>167.0</ele><time>2026-03-27T13:13:13.982Z</time></trkpt><trkpt lat="46.0724196" lon="12.6121509"><ele>167.0</ele><time>2026-03-27T13:13:14.983Z</time></trkpt><trkpt lat="46.0724653" lon="12.6119983"><ele>166.75</ele><time>2026-03-27T13:13:15.982Z</time></trkpt><trkpt lat="46.0725381" lon="12.6118344"><ele>166.5</ele><time>2026-03-27T13:13:16.983Z</time></trkpt><trkpt lat="46.0726212" lon="12.6116691"><ele>166.25</ele><time>2026-03-27T13:13:17.984Z</time></trkpt><trkpt lat="46.0726991" lon="12.6115069"><ele>166.0</ele><time>2026-03-27T13:13:18.982Z</time></trkpt><trkpt lat="46.072774" lon="12.6113414"><ele>166.0</ele><time>2026-03-27T13:13:19.982Z</time></trkpt><trkpt lat="46.0728523" lon="12.6111656"><ele>166.0</ele><time>2026-03-27T13:13:20.984Z</time></trkpt><trkpt lat="46.0729341" lon="12.6109767"><ele>166.0</ele><time>2026-03-27T13:13:21.984Z</time></trkpt><trkpt lat="46.0730203" lon="12.6107797"><ele>165.5</ele><time>2026-03-27T13:13:22.982Z</time></trkpt><trkpt lat="46.0731091" lon="12.6105922"><ele>165.0</ele><time>2026-03-27T13:13:23.982Z</time></trkpt><trkpt lat="46.0731951" lon="12.610427"><ele>164.5</ele><time>2026-03-27T13:13:24.982Z</time></trkpt><trkpt lat="46.0732774" lon="12.6102748"><ele>164.0</ele><time>2026-03-27T13:13:25.982Z</time></trkpt><trkpt lat="46.0733592" lon="12.610122"><ele>165.0</ele><time>2026-03-27T13:13:26.982Z</time></trkpt><trkpt lat="46.0734449" lon="12.6099629"><ele>166.0</ele><time>2026-03-27T13:13:27.982Z</time></trkpt><trkpt lat="46.0735306" lon="12.6098002"><ele>167.0</ele><time>2026-03-27T13:13:28.982Z</time></trkpt><trkpt lat="46.0736216" lon="12.609639"><ele>168.0</ele><time>2026-03-27T13:13:29.983Z</time></trkpt><trkpt lat="46.073716" lon="12.6094799"><ele>168.33333333333334</ele><time>2026-03-27T13:13:30.982Z</time></trkpt><trkpt lat="46.0738084" lon="12.609317"><ele>168.66666666666669</ele><time>2026-03-27T13:13:31.983Z</time></trkpt><trkpt lat="46.073893" lon="12.6091358"><ele>169.0</ele><time>2026-03-27T13:13:32.984Z</time></trkpt><trkpt lat="46.0739692" lon="12.6089403"><ele>169.0</ele><time>2026-03-27T13:13:33.982Z</time></trkpt><trkpt lat="46.0740415" lon="12.6087273"><ele>169.0</ele><time>2026-03-27T13:13:34.982Z</time></trkpt><trkpt lat="46.074115" lon="12.6085219"><ele>169.0</ele><time>2026-03-27T13:13:35.983Z</time></trkpt><trkpt lat="46.0741913" lon="12.608334"><ele>168.25</ele><time>2026-03-27T13:13:36.984Z</time></trkpt><trkpt lat="46.0742724" lon="12.6081509"><ele>167.5</ele><time>2026-03-27T13:13:37.982Z</time></trkpt><trkpt lat="46.074353" lon="12.6079673"><ele>166.75</ele><time>2026-03-27T13:13:38.983Z</time></trkpt><trkpt lat="46.0744306" lon="12.6077881"><ele>166.0</ele><time>2026-03-27T13:13:39.983Z</time></trkpt><trkpt lat="46.0745059" lon="12.6076022"><ele>165.75</ele><time>2026-03-27T13:13:40.982Z</time></trkpt><trkpt lat="46.0745858" lon="12.607414"><ele>165.5</ele><time>2026-03-27T13:13:41.983Z</time></trkpt><trkpt lat="46.0746672" lon="12.6072296"><ele>165.25</ele><time>2026-03-27T13:13:42.983Z</time></trkpt><trkpt lat="46.0747483" lon="12.6070583"><ele>165.0</ele><time>2026-03-27T13:13:43.982Z</time></trkpt><trkpt lat="46.0748233" lon="12.6068983"><ele>165.0</ele><time>2026-03-27T13:13:44.984Z</time></trkpt><trkpt lat="46.0748883" lon="12.6067567"><ele>165.0</ele><time>2026-03-27T13:13:45.985Z</time></trkpt><trkpt lat="46.0749433" lon="12.60664"><ele>165.0</ele><time>2026-03-27T13:13:46.984Z</time></trkpt><trkpt lat="46.0749933" lon="12.6065233"><ele>165.0</ele><time>2026-03-27T13:13:47.983Z</time></trkpt><trkpt lat="46.07505" lon="12.606395"><ele>165.0</ele><time>2026-03-27T13:13:48.982Z</time></trkpt><trkpt lat="46.0751217" lon="12.606255"><ele>165.25</ele><time>2026-03-27T13:13:49.984Z</time></trkpt><trkpt lat="46.0752083" lon="12.6061033"><ele>165.5</ele><time>2026-03-27T13:13:50.983Z</time></trkpt><trkpt lat="46.0752983" lon="12.60594"><ele>165.75</ele><time>2026-03-27T13:13:51.982Z</time></trkpt><trkpt lat="46.0753883" lon="12.6057583"><ele>166.0</ele><time>2026-03-27T13:13:52.983Z</time></trkpt><trkpt lat="46.07548" lon="12.6055717"><ele>166.0</ele><time>2026-03-27T13:13:53.984Z</time></trkpt><trkpt lat="46.0755783" lon="12.605385"><ele>166.0</ele><time>2026-03-27T13:13:54.982Z</time></trkpt><trkpt lat="46.0756767" lon="12.605205"><ele>166.0</ele><time>2026-03-27T13:13:55.983Z</time></trkpt><trkpt lat="46.0757717" lon="12.60503"><ele>166.0</ele><time>2026-03-27T13:13:56.983Z</time></trkpt><trkpt lat="46.0758567" lon="12.6048783"><ele>166.0</ele><time>2026-03-27T13:13:57.983Z</time></trkpt><trkpt lat="46.075935" lon="12.6047417"><ele>166.0</ele><time>2026-03-27T13:13:58.983Z</time></trkpt><trkpt lat="46.0760133" lon="12.604625"><ele>166.0</ele><time>2026-03-27T13:13:59.984Z</time></trkpt><trkpt lat="46.07609" lon="12.60451"><ele>165.75</ele><time>2026-03-27T13:14:00.982Z</time></trkpt><trkpt lat="46.0761617" lon="12.6043833"><ele>165.5</ele><time>2026-03-27T13:14:01.982Z</time></trkpt><trkpt lat="46.07623" lon="12.6042533"><ele>165.25</ele><time>2026-03-27T13:14:02.983Z</time></trkpt><trkpt lat="46.0763" lon="12.6041133"><ele>165.0</ele><time>2026-03-27T13:14:03.982Z</time></trkpt><trkpt lat="46.0763633" lon="12.6039667"><ele>165.0</ele><time>2026-03-27T13:14:04.982Z</time></trkpt><trkpt lat="46.0764183" lon="12.6038517"><ele>165.0</ele><time>2026-03-27T13:14:05.982Z</time></trkpt><trkpt lat="46.0764583" lon="12.6037483"><ele>165.0</ele><time>2026-03-27T13:14:06.983Z</time></trkpt><trkpt lat="46.076495" lon="12.60364"><ele>165.0</ele><time>2026-03-27T13:14:07.982Z</time></trkpt><trkpt lat="46.0765533" lon="12.6035267"><ele>165.0</ele><time>2026-03-27T13:14:08.984Z</time></trkpt><trkpt lat="46.0766283" lon="12.6034067"><ele>165.75</ele><time>2026-03-27T13:14:09.982Z</time></trkpt><trkpt lat="46.0767133" lon="12.6032767"><ele>166.5</ele><time>2026-03-27T13:14:10.982Z</time></trkpt><trkpt lat="46.0768033" lon="12.6031433"><ele>167.25</ele><time>2026-03-27T13:14:11.983Z</time></trkpt><trkpt lat="46.076895" lon="12.603005"><ele>168.0</ele><time>2026-03-27T13:14:12.982Z</time></trkpt><trkpt lat="46.0769833" lon="12.6028683"><ele>167.75</ele><time>2026-03-27T13:14:13.984Z</time></trkpt><trkpt lat="46.07706" lon="12.60273"><ele>167.5</ele><time>2026-03-27T13:14:14.982Z</time></trkpt><trkpt lat="46.07714" lon="12.60259"><ele>167.25</ele><time>2026-03-27T13:14:15.984Z</time></trkpt><trkpt lat="46.0772233" lon="12.602445"><ele>167.0</ele><time>2026-03-27T13:14:16.982Z</time></trkpt><trkpt lat="46.0773067" lon="12.6022867"><ele>167.0</ele><time>2026-03-27T13:14:17.984Z</time></trkpt><trkpt lat="46.077385" lon="12.6021333"><ele>167.0</ele><time>2026-03-27T13:14:18.984Z</time></trkpt><trkpt lat="46.0774467" lon="12.601995"><ele>167.0</ele><time>2026-03-27T13:14:19.983Z</time></trkpt><trkpt lat="46.0774867" lon="12.6018817"><ele>167.0</ele><time>2026-03-27T13:14:20.983Z</time></trkpt><trkpt lat="46.0775167" lon="12.6017967"><ele>167.0</ele><time>2026-03-27T13:14:21.983Z</time></trkpt><trkpt lat="46.0775483" lon="12.6017167"><ele>166.83333333333331</ele><time>2026-03-27T13:14:22.982Z</time></trkpt><trkpt lat="46.077585" lon="12.6016233"><ele>166.66666666666666</ele><time>2026-03-27T13:14:23.983Z</time></trkpt><trkpt lat="46.0776283" lon="12.6015067"><ele>166.5</ele><time>2026-03-27T13:14:24.982Z</time></trkpt><trkpt lat="46.0776717" lon="12.6013833"><ele>166.33333333333334</ele><time>2026-03-27T13:14:25.983Z</time></trkpt><trkpt lat="46.0777117" lon="12.60126"><ele>166.16666666666669</ele><time>2026-03-27T13:14:26.988Z</time></trkpt><trkpt lat="46.07775" lon="12.60114"><ele>166.0</ele><time>2026-03-27T13:14:27.982Z</time></trkpt><trkpt lat="46.0777917" lon="12.60102"><ele>166.0</ele><time>2026-03-27T13:14:28.984Z</time></trkpt><trkpt lat="46.077835" lon="12.600915"><ele>166.0</ele><time>2026-03-27T13:14:29.983Z</time></trkpt><trkpt lat="46.0778733" lon="12.6008317"><ele>166.0</ele><time>2026-03-27T13:14:30.983Z</time></trkpt><trkpt lat="46.0779217" lon="12.6006867"><ele>166.0</ele><time>2026-03-27T13:14:32.985Z</time></trkpt><trkpt lat="46.0779517" lon="12.6006067"><ele>166.0</ele><time>2026-03-27T13:14:33.982Z</time></trkpt><trkpt lat="46.0779867" lon="12.6005217"><ele>166.0</ele><time>2026-03-27T13:14:34.983Z</time></trkpt><trkpt lat="46.0780233" lon="12.60043"><ele>166.16666666666669</ele><time>2026-03-27T13:14:35.982Z</time></trkpt><trkpt lat="46.07806" lon="12.6003283"><ele>166.33333333333334</ele><time>2026-03-27T13:14:36.982Z</time></trkpt><trkpt lat="46.0780967" lon="12.60022"><ele>166.5</ele><time>2026-03-27T13:14:37.983Z</time></trkpt><trkpt lat="46.0781317" lon="12.60011"><ele>166.66666666666666</ele><time>2026-03-27T13:14:38.985Z</time></trkpt><trkpt lat="46.07816" lon="12.600005"><ele>166.83333333333331</ele><time>2026-03-27T13:14:39.984Z</time></trkpt><trkpt lat="46.0781833" lon="12.5999133"><ele>167.0</ele><time>2026-03-27T13:14:40.982Z</time></trkpt><trkpt lat="46.078205" lon="12.59974"><ele>167.0</ele><time>2026-03-27T13:14:42.983Z</time></trkpt><trkpt lat="46.0782067" lon="12.5995883"><ele>167.0</ele><time>2026-03-27T13:14:44.985Z</time></trkpt><trkpt lat="46.0782117" lon="12.5994617"><ele>167.0</ele><time>2026-03-27T13:14:46.981Z</time></trkpt><trkpt lat="46.0782217" lon="12.5992733"><ele>167.0</ele><time>2026-03-27T13:14:48.982Z</time></trkpt><trkpt lat="46.078235" lon="12.5991667"><ele>167.0</ele><time>2026-03-27T13:14:49.984Z</time></trkpt><trkpt lat="46.0782633" lon="12.59906"><ele>167.28571428571428</ele><time>2026-03-27T13:14:50.984Z</time></trkpt><trkpt lat="46.078305" lon="12.5989717"><ele>167.57142857142858</ele><time>2026-03-27T13:14:51.982Z</time></trkpt><trkpt lat="46.0783583" lon="12.5989067"><ele>167.85714285714286</ele><time>2026-03-27T13:14:52.982Z</time></trkpt><trkpt lat="46.07842" lon="12.5988617"><ele>168.14285714285714</ele><time>2026-03-27T13:14:53.984Z</time></trkpt><trkpt lat="46.07849" lon="12.598825"><ele>168.42857142857142</ele><time>2026-03-27T13:14:54.982Z</time></trkpt><trkpt lat="46.07856" lon="12.5987833"><ele>168.71428571428572</ele><time>2026-03-27T13:14:55.983Z</time></trkpt><trkpt lat="46.0786283" lon="12.5987317"><ele>169.0</ele><time>2026-03-27T13:14:56.983Z</time></trkpt><trkpt lat="46.0787017" lon="12.5986783"><ele>168.83333333333334</ele><time>2026-03-27T13:14:57.982Z</time></trkpt><trkpt lat="46.0787733" lon="12.5986283"><ele>168.66666666666669</ele><time>2026-03-27T13:14:58.983Z</time></trkpt><trkpt lat="46.078845" lon="12.5985767"><ele>168.5</ele><time>2026-03-27T13:14:59.983Z</time></trkpt><trkpt lat="46.0789217" lon="12.59852"><ele>168.33333333333334</ele><time>2026-03-27T13:15:00.983Z</time></trkpt><trkpt lat="46.0789933" lon="12.598455"><ele>168.16666666666666</ele><time>2026-03-27T13:15:01.982Z</time></trkpt><trkpt lat="46.0790567" lon="12.5983783"><ele>168.0</ele><time>2026-03-27T13:15:02.984Z</time></trkpt><trkpt lat="46.0791183" lon="12.598295"><ele>168.0</ele><time>2026-03-27T13:15:03.983Z</time></trkpt><trkpt lat="46.079175" lon="12.5982033"><ele>168.0</ele><time>2026-03-27T13:15:04.982Z</time></trkpt><trkpt lat="46.07923" lon="12.5981083"><ele>168.0</ele><time>2026-03-27T13:15:05.982Z</time></trkpt><trkpt lat="46.07928" lon="12.5980067"><ele>168.0</ele><time>2026-03-27T13:15:06.983Z</time></trkpt><trkpt lat="46.0793183" lon="12.5979083"><ele>168.0</ele><time>2026-03-27T13:15:07.984Z</time></trkpt><trkpt lat="46.0793483" lon="12.597745"><ele>167.8</ele><time>2026-03-27T13:15:09.984Z</time></trkpt><trkpt lat="46.079395" lon="12.59758"><ele>167.60000000000002</ele><time>2026-03-27T13:15:11.984Z</time></trkpt><trkpt lat="46.07944" lon="12.59749"><ele>167.39999999999998</ele><time>2026-03-27T13:15:12.983Z</time></trkpt><trkpt lat="46.0794883" lon="12.5973933"><ele>167.2</ele><time>2026-03-27T13:15:13.982Z</time></trkpt><trkpt lat="46.0795383" lon="12.59728"><ele>167.0</ele><time>2026-03-27T13:15:14.982Z</time></trkpt><trkpt lat="46.0795867" lon="12.5971483"><ele>167.0</ele><time>2026-03-27T13:15:15.982Z</time></trkpt><trkpt lat="46.079635" lon="12.5970067"><ele>167.0</ele><time>2026-03-27T13:15:16.982Z</time></trkpt><trkpt lat="46.0796833" lon="12.5968567"><ele>167.0</ele><time>2026-03-27T13:15:17.983Z</time></trkpt><trkpt lat="46.07973" lon="12.5967033"><ele>167.0</ele><time>2026-03-27T13:15:18.982Z</time></trkpt><trkpt lat="46.0797767" lon="12.59655"><ele>167.0</ele><time>2026-03-27T13:15:19.983Z</time></trkpt><trkpt lat="46.079825" lon="12.596395"><ele>167.0</ele><time>2026-03-27T13:15:20.983Z</time></trkpt><trkpt lat="46.0798714" lon="12.5962401"><ele>167.0</ele><time>2026-03-27T13:15:21.984Z</time></trkpt><trkpt lat="46.0799168" lon="12.5960826"><ele>167.0</ele><time>2026-03-27T13:15:22.984Z</time></trkpt><trkpt lat="46.0799591" lon="12.5959238"><ele>167.6</ele><time>2026-03-27T13:15:23.982Z</time></trkpt><trkpt lat="46.0799999" lon="12.595767"><ele>168.2</ele><time>2026-03-27T13:15:24.983Z</time></trkpt><trkpt lat="46.0800417" lon="12.5956159"><ele>168.8</ele><time>2026-03-27T13:15:25.982Z</time></trkpt><trkpt lat="46.0800845" lon="12.5954829"><ele>169.4</ele><time>2026-03-27T13:15:26.983Z</time></trkpt><trkpt lat="46.0801347" lon="12.5953593"><ele>170.0</ele><time>2026-03-27T13:15:27.984Z</time></trkpt><trkpt lat="46.080196" lon="12.595239"><ele>171.25</ele><time>2026-03-27T13:15:28.984Z</time></trkpt><trkpt lat="46.0802633" lon="12.5951176"><ele>172.5</ele><time>2026-03-27T13:15:29.982Z</time></trkpt><trkpt lat="46.0803342" lon="12.5949858"><ele>173.75</ele><time>2026-03-27T13:15:30.983Z</time></trkpt><trkpt lat="46.0804007" lon="12.5948431"><ele>175.0</ele><time>2026-03-27T13:15:31.982Z</time></trkpt><trkpt lat="46.0804666" lon="12.5946987"><ele>175.0</ele><time>2026-03-27T13:15:32.983Z</time></trkpt><trkpt lat="46.080535" lon="12.5945593"><ele>175.0</ele><time>2026-03-27T13:15:33.983Z</time></trkpt><trkpt lat="46.0805987" lon="12.5944211"><ele>175.0</ele><time>2026-03-27T13:15:34.983Z</time></trkpt><trkpt lat="46.0806499" lon="12.5942786"><ele>175.0</ele><time>2026-03-27T13:15:35.984Z</time></trkpt><trkpt lat="46.0806865" lon="12.5941335"><ele>176.0</ele><time>2026-03-27T13:15:36.982Z</time></trkpt><trkpt lat="46.0807125" lon="12.5939837"><ele>177.0</ele><time>2026-03-27T13:15:37.983Z</time></trkpt><trkpt lat="46.0807246" lon="12.593829"><ele>178.0</ele><time>2026-03-27T13:15:38.983Z</time></trkpt><trkpt lat="46.0807237" lon="12.5936656"><ele>179.0</ele><time>2026-03-27T13:15:39.984Z</time></trkpt><trkpt lat="46.0807147" lon="12.5935074"><ele>180.0</ele><time>2026-03-27T13:15:40.984Z</time></trkpt><trkpt lat="46.0807086" lon="12.5933569"><ele>180.4</ele><time>2026-03-27T13:15:41.983Z</time></trkpt><trkpt lat="46.0807116" lon="12.5932052"><ele>180.8</ele><time>2026-03-27T13:15:42.983Z</time></trkpt><trkpt lat="46.0807237" lon="12.5930588"><ele>181.2</ele><time>2026-03-27T13:15:43.983Z</time></trkpt><trkpt lat="46.0807435" lon="12.5929355"><ele>181.6</ele><time>2026-03-27T13:15:44.983Z</time></trkpt><trkpt lat="46.0807783" lon="12.5928222"><ele>182.0</ele><time>2026-03-27T13:15:45.984Z</time></trkpt><trkpt lat="46.0808339" lon="12.592717"><ele>182.2</ele><time>2026-03-27T13:15:46.983Z</time></trkpt><trkpt lat="46.0809017" lon="12.5926336"><ele>182.39999999999998</ele><time>2026-03-27T13:15:47.982Z</time></trkpt><trkpt lat="46.0809612" lon="12.5925683"><ele>182.60000000000002</ele><time>2026-03-27T13:15:48.983Z</time></trkpt><trkpt lat="46.0810274" lon="12.5925053"><ele>182.8</ele><time>2026-03-27T13:15:50.983Z</time></trkpt><trkpt lat="46.0811595" lon="12.5925566"><ele>183.0</ele><time>2026-03-27T13:15:53.985Z</time></trkpt><trkpt lat="46.081238" lon="12.5926256"><ele>183.0</ele><time>2026-03-27T13:15:54.983Z</time></trkpt><trkpt lat="46.0813271" lon="12.5927085"><ele>183.0</ele><time>2026-03-27T13:15:55.983Z</time></trkpt><trkpt lat="46.0814176" lon="12.5927965"><ele>183.0</ele><time>2026-03-27T13:15:56.983Z</time></trkpt><trkpt lat="46.0815076" lon="12.5928811"><ele>183.0</ele><time>2026-03-27T13:15:57.983Z</time></trkpt><trkpt lat="46.0815997" lon="12.5929709"><ele>183.0</ele><time>2026-03-27T13:15:58.984Z</time></trkpt><trkpt lat="46.0816974" lon="12.5930701"><ele>183.8</ele><time>2026-03-27T13:15:59.982Z</time></trkpt><trkpt lat="46.0817937" lon="12.5931677"><ele>184.60000000000002</ele><time>2026-03-27T13:16:00.984Z</time></trkpt><trkpt lat="46.08188" lon="12.5932559"><ele>185.39999999999998</ele><time>2026-03-27T13:16:01.983Z</time></trkpt><trkpt lat="46.0819637" lon="12.5932963"><ele>186.2</ele><time>2026-03-27T13:16:02.984Z</time></trkpt><trkpt lat="46.0820514" lon="12.5932681"><ele>187.0</ele><time>2026-03-27T13:16:03.984Z</time></trkpt><trkpt lat="46.0821418" lon="12.5931921"><ele>187.0</ele><time>2026-03-27T13:16:04.984Z</time></trkpt><trkpt lat="46.0822331" lon="12.5930887"><ele>187.0</ele><time>2026-03-27T13:16:05.982Z</time></trkpt><trkpt lat="46.0823336" lon="12.5929712"><ele>187.0</ele><time>2026-03-27T13:16:06.982Z</time></trkpt><trkpt lat="46.0824383" lon="12.5928409"><ele>187.0</ele><time>2026-03-27T13:16:07.983Z</time></trkpt><trkpt lat="46.0825481" lon="12.5927195"><ele>186.25</ele><time>2026-03-27T13:16:08.983Z</time></trkpt><trkpt lat="46.0826601" lon="12.5926108"><ele>185.5</ele><time>2026-03-27T13:16:09.982Z</time></trkpt><trkpt lat="46.0827782" lon="12.5925225"><ele>184.75</ele><time>2026-03-27T13:16:10.982Z</time></trkpt><trkpt lat="46.0829053" lon="12.5924573"><ele>184.0</ele><time>2026-03-27T13:16:11.982Z</time></trkpt><trkpt lat="46.0830369" lon="12.5924275"><ele>184.0</ele><time>2026-03-27T13:16:12.983Z</time></trkpt><trkpt lat="46.0831636" lon="12.5924171"><ele>184.0</ele><time>2026-03-27T13:16:13.984Z</time></trkpt><trkpt lat="46.0832794" lon="12.5924067"><ele>184.0</ele><time>2026-03-27T13:16:14.985Z</time></trkpt><trkpt lat="46.0833918" lon="12.5923953"><ele>184.0</ele><time>2026-03-27T13:16:15.983Z</time></trkpt><trkpt lat="46.0834986" lon="12.5923877"><ele>184.0</ele><time>2026-03-27T13:16:16.982Z</time></trkpt><trkpt lat="46.0836045" lon="12.5923877"><ele>184.0</ele><time>2026-03-27T13:16:17.982Z</time></trkpt><trkpt lat="46.083708" lon="12.5923867"><ele>184.0</ele><time>2026-03-27T13:16:18.984Z</time></trkpt><trkpt lat="46.0838059" lon="12.59236"><ele>184.0</ele><time>2026-03-27T13:16:19.984Z</time></trkpt><trkpt lat="46.0838982" lon="12.59232"><ele>184.0</ele><time>2026-03-27T13:16:20.983Z</time></trkpt><trkpt lat="46.0839853" lon="12.5922737"><ele>184.0</ele><time>2026-03-27T13:16:21.983Z</time></trkpt><trkpt lat="46.08406" lon="12.5922022"><ele>184.0</ele><time>2026-03-27T13:16:22.983Z</time></trkpt><trkpt lat="46.0841308" lon="12.59211"><ele>184.0</ele><time>2026-03-27T13:16:23.982Z</time></trkpt><trkpt lat="46.0841971" lon="12.5920028"><ele>184.0</ele><time>2026-03-27T13:16:24.985Z</time></trkpt><trkpt lat="46.0842587" lon="12.5919063"><ele>184.0</ele><time>2026-03-27T13:16:25.984Z</time></trkpt><trkpt lat="46.0843254" lon="12.5918123"><ele>184.0</ele><time>2026-03-27T13:16:26.983Z</time></trkpt><trkpt lat="46.0843844" lon="12.5916965"><ele>184.0</ele><time>2026-03-27T13:16:27.983Z</time></trkpt><trkpt lat="46.084432" lon="12.5915464"><ele>184.0</ele><time>2026-03-27T13:16:28.984Z</time></trkpt><trkpt lat="46.0844819" lon="12.5913873"><ele>184.0</ele><time>2026-03-27T13:16:29.984Z</time></trkpt><trkpt lat="46.0845502" lon="12.5912439"><ele>183.5</ele><time>2026-03-27T13:16:30.982Z</time></trkpt><trkpt lat="46.0846156" lon="12.5910979"><ele>183.0</ele><time>2026-03-27T13:16:31.982Z</time></trkpt><trkpt lat="46.0846779" lon="12.5909522"><ele>182.5</ele><time>2026-03-27T13:16:32.984Z</time></trkpt><trkpt lat="46.0847423" lon="12.5908046"><ele>182.0</ele><time>2026-03-27T13:16:33.982Z</time></trkpt><trkpt lat="46.0848104" lon="12.5906628"><ele>182.0</ele><time>2026-03-27T13:16:34.982Z</time></trkpt><trkpt lat="46.0848806" lon="12.5905265"><ele>182.0</ele><time>2026-03-27T13:16:35.982Z</time></trkpt><trkpt lat="46.0849566" lon="12.5903933"><ele>182.0</ele><time>2026-03-27T13:16:36.982Z</time></trkpt><trkpt lat="46.0850397" lon="12.5902665"><ele>182.0</ele><time>2026-03-27T13:16:37.983Z</time></trkpt><trkpt lat="46.0851237" lon="12.5901546"><ele>182.33333333333331</ele><time>2026-03-27T13:16:38.984Z</time></trkpt><trkpt lat="46.0852048" lon="12.59006"><ele>182.66666666666666</ele><time>2026-03-27T13:16:39.983Z</time></trkpt><trkpt lat="46.0852814" lon="12.5899781"><ele>183.0</ele><time>2026-03-27T13:16:40.984Z</time></trkpt><trkpt lat="46.0853505" lon="12.5899092"><ele>183.33333333333334</ele><time>2026-03-27T13:16:41.982Z</time></trkpt><trkpt lat="46.0854037" lon="12.5898369"><ele>183.66666666666669</ele><time>2026-03-27T13:16:42.982Z</time></trkpt><trkpt lat="46.0854448" lon="12.5897622"><ele>184.0</ele><time>2026-03-27T13:16:43.982Z</time></trkpt><trkpt lat="46.0854725" lon="12.5895844"><ele>184.79999999999998</ele><time>2026-03-27T13:16:45.982Z</time></trkpt><trkpt lat="46.0854727" lon="12.5894791"><ele>185.6</ele><time>2026-03-27T13:16:46.983Z</time></trkpt><trkpt lat="46.0854787" lon="12.5893646"><ele>186.4</ele><time>2026-03-27T13:16:47.983Z</time></trkpt><trkpt lat="46.0854871" lon="12.5892313"><ele>187.2</ele><time>2026-03-27T13:16:48.984Z</time></trkpt><trkpt lat="46.0855013" lon="12.589089"><ele>188.0</ele><time>2026-03-27T13:16:49.983Z</time></trkpt><trkpt lat="46.0855173" lon="12.5889359"><ele>188.0</ele><time>2026-03-27T13:16:50.983Z</time></trkpt><trkpt lat="46.0855399" lon="12.5887762"><ele>188.0</ele><time>2026-03-27T13:16:51.983Z</time></trkpt><trkpt lat="46.0855685" lon="12.5886169"><ele>188.0</ele><time>2026-03-27T13:16:52.982Z</time></trkpt><trkpt lat="46.085596" lon="12.5884547"><ele>188.0</ele><time>2026-03-27T13:16:53.982Z</time></trkpt><trkpt lat="46.0856161" lon="12.5882932"><ele>189.0</ele><time>2026-03-27T13:16:54.985Z</time></trkpt><trkpt lat="46.0856312" lon="12.5881332"><ele>190.0</ele><time>2026-03-27T13:16:55.984Z</time></trkpt><trkpt lat="46.0856455" lon="12.5879701"><ele>191.0</ele><time>2026-03-27T13:16:56.983Z</time></trkpt><trkpt lat="46.0856553" lon="12.5878012"><ele>192.0</ele><time>2026-03-27T13:16:57.982Z</time></trkpt><trkpt lat="46.0856623" lon="12.5876283"><ele>192.0</ele><time>2026-03-27T13:16:58.984Z</time></trkpt><trkpt lat="46.0856681" lon="12.5874517"><ele>192.0</ele><time>2026-03-27T13:16:59.984Z</time></trkpt><trkpt lat="46.0856702" lon="12.5872729"><ele>192.0</ele><time>2026-03-27T13:17:00.982Z</time></trkpt><trkpt lat="46.0856703" lon="12.5870945"><ele>192.0</ele><time>2026-03-27T13:17:01.982Z</time></trkpt><trkpt lat="46.0856689" lon="12.5869305"><ele>192.25</ele><time>2026-03-27T13:17:02.984Z</time></trkpt><trkpt lat="46.0856794" lon="12.5867794"><ele>192.5</ele><time>2026-03-27T13:17:03.983Z</time></trkpt><trkpt lat="46.0857067" lon="12.5866383"><ele>192.75</ele><time>2026-03-27T13:17:04.982Z</time></trkpt><trkpt lat="46.0857583" lon="12.5864833"><ele>193.0</ele><time>2026-03-27T13:17:05.983Z</time></trkpt><trkpt lat="46.0858283" lon="12.5863133"><ele>193.75</ele><time>2026-03-27T13:17:06.985Z</time></trkpt><trkpt lat="46.0859067" lon="12.5861467"><ele>194.5</ele><time>2026-03-27T13:17:07.982Z</time></trkpt><trkpt lat="46.0859833" lon="12.585975"><ele>195.25</ele><time>2026-03-27T13:17:08.983Z</time></trkpt><trkpt lat="46.0860583" lon="12.5858033"><ele>196.0</ele><time>2026-03-27T13:17:09.985Z</time></trkpt><trkpt lat="46.08613" lon="12.5856233"><ele>196.0</ele><time>2026-03-27T13:17:10.984Z</time></trkpt><trkpt lat="46.0862117" lon="12.5854417"><ele>196.0</ele><time>2026-03-27T13:17:11.983Z</time></trkpt><trkpt lat="46.0862983" lon="12.5852533"><ele>196.0</ele><time>2026-03-27T13:17:12.984Z</time></trkpt><trkpt lat="46.0863833" lon="12.5850567"><ele>196.25</ele><time>2026-03-27T13:17:13.983Z</time></trkpt><trkpt lat="46.08646" lon="12.5848717"><ele>196.5</ele><time>2026-03-27T13:17:14.983Z</time></trkpt><trkpt lat="46.086535" lon="12.58471"><ele>196.75</ele><time>2026-03-27T13:17:15.983Z</time></trkpt><trkpt lat="46.0866033" lon="12.5845733"><ele>197.0</ele><time>2026-03-27T13:17:16.985Z</time></trkpt><trkpt lat="46.0866617" lon="12.58447"><ele>197.8</ele><time>2026-03-27T13:17:17.983Z</time></trkpt><trkpt lat="46.0867067" lon="12.5843717"><ele>198.6</ele><time>2026-03-27T13:17:18.984Z</time></trkpt><trkpt lat="46.0867383" lon="12.584265"><ele>199.4</ele><time>2026-03-27T13:17:19.983Z</time></trkpt><trkpt lat="46.0867483" lon="12.5841483"><ele>200.20000000000002</ele><time>2026-03-27T13:17:20.983Z</time></trkpt><trkpt lat="46.0867117" lon="12.5840083"><ele>201.0</ele><time>2026-03-27T13:17:21.983Z</time></trkpt><trkpt lat="46.08666" lon="12.5838767"><ele>201.0</ele><time>2026-03-27T13:17:22.983Z</time></trkpt><trkpt lat="46.0866033" lon="12.583755"><ele>201.0</ele><time>2026-03-27T13:17:23.983Z</time></trkpt><trkpt lat="46.0865533" lon="12.58365"><ele>201.0</ele><time>2026-03-27T13:17:24.982Z</time></trkpt><trkpt lat="46.08649" lon="12.58354"><ele>201.0</ele><time>2026-03-27T13:17:26.984Z</time></trkpt><trkpt lat="46.086457" lon="12.5831259"><ele>201.60000000000002</ele><time>2026-03-27T13:17:45.983Z</time></trkpt><trkpt lat="46.0864626" lon="12.582919"><ele>202.2</ele><time>2026-03-27T13:17:46.984Z</time></trkpt><trkpt lat="46.0864701" lon="12.5827565"><ele>202.8</ele><time>2026-03-27T13:17:47.982Z</time></trkpt><trkpt lat="46.0864824" lon="12.5826233"><ele>203.39999999999998</ele><time>2026-03-27T13:17:48.983Z</time></trkpt><trkpt lat="46.0864922" lon="12.5825133"><ele>204.0</ele><time>2026-03-27T13:17:49.983Z</time></trkpt><trkpt lat="46.0865029" lon="12.5823565"><ele>205.39999999999998</ele><time>2026-03-27T13:17:51.983Z</time></trkpt><trkpt lat="46.0864854" lon="12.5822678"><ele>206.8</ele><time>2026-03-27T13:17:52.982Z</time></trkpt><trkpt lat="46.0864471" lon="12.5821604"><ele>208.2</ele><time>2026-03-27T13:17:53.982Z</time></trkpt><trkpt lat="46.0863911" lon="12.5820365"><ele>209.60000000000002</ele><time>2026-03-27T13:17:54.982Z</time></trkpt><trkpt lat="46.08633" lon="12.5819021"><ele>211.0</ele><time>2026-03-27T13:17:55.983Z</time></trkpt><trkpt lat="46.0862662" lon="12.5817511"><ele>212.4</ele><time>2026-03-27T13:17:56.984Z</time></trkpt><trkpt lat="46.0862161" lon="12.5815969"><ele>213.8</ele><time>2026-03-27T13:17:57.983Z</time></trkpt><trkpt lat="46.0861792" lon="12.581439"><ele>215.20000000000002</ele><time>2026-03-27T13:17:58.984Z</time></trkpt><trkpt lat="46.0861475" lon="12.5812915"><ele>216.60000000000002</ele><time>2026-03-27T13:17:59.983Z</time></trkpt><trkpt lat="46.0861147" lon="12.5811663"><ele>218.0</ele><time>2026-03-27T13:18:00.982Z</time></trkpt><trkpt lat="46.0860628" lon="12.5810532"><ele>217.33333333333334</ele><time>2026-03-27T13:18:01.982Z</time></trkpt><trkpt lat="46.085995" lon="12.5809534"><ele>216.66666666666669</ele><time>2026-03-27T13:18:02.983Z</time></trkpt><trkpt lat="46.0859259" lon="12.5808732"><ele>216.0</ele><time>2026-03-27T13:18:03.982Z</time></trkpt><trkpt lat="46.0858686" lon="12.5808013"><ele>215.33333333333331</ele><time>2026-03-27T13:18:04.982Z</time></trkpt><trkpt lat="46.0858234" lon="12.5807232"><ele>214.66666666666666</ele><time>2026-03-27T13:18:05.983Z</time></trkpt><trkpt lat="46.0857857" lon="12.5806286"><ele>214.0</ele><time>2026-03-27T13:18:06.984Z</time></trkpt><trkpt lat="46.0857525" lon="12.5805136"><ele>214.0</ele><time>2026-03-27T13:18:07.983Z</time></trkpt><trkpt lat="46.0857143" lon="12.5803834"><ele>213.99999999999997</ele><time>2026-03-27T13:18:08.984Z</time></trkpt><trkpt lat="46.0856639" lon="12.5802526"><ele>213.99999999999997</ele><time>2026-03-27T13:18:09.983Z</time></trkpt><trkpt lat="46.0856092" lon="12.5801407"><ele>214.0</ele><time>2026-03-27T13:18:10.983Z</time></trkpt><trkpt lat="46.085553" lon="12.5800452"><ele>214.0</ele><time>2026-03-27T13:18:11.983Z</time></trkpt><trkpt lat="46.0854987" lon="12.5799574"><ele>214.85714285714286</ele><time>2026-03-27T13:18:12.983Z</time></trkpt><trkpt lat="46.0854484" lon="12.5798831"><ele>215.71428571428572</ele><time>2026-03-27T13:18:13.982Z</time></trkpt><trkpt lat="46.0853976" lon="12.5798169"><ele>216.57142857142856</ele><time>2026-03-27T13:18:14.983Z</time></trkpt><trkpt lat="46.0853372" lon="12.5797523"><ele>217.42857142857144</ele><time>2026-03-27T13:18:15.983Z</time></trkpt><trkpt lat="46.085276" lon="12.5796814"><ele>218.28571428571428</ele><time>2026-03-27T13:18:16.982Z</time></trkpt><trkpt lat="46.0852262" lon="12.579601"><ele>219.14285714285714</ele><time>2026-03-27T13:18:17.984Z</time></trkpt><trkpt lat="46.0851823" lon="12.5795225"><ele>220.0</ele><time>2026-03-27T13:18:18.984Z</time></trkpt><trkpt lat="46.0851447" lon="12.5794479"><ele>220.33333333333331</ele><time>2026-03-27T13:18:19.982Z</time></trkpt><trkpt lat="46.0851154" lon="12.5793293"><ele>220.66666666666666</ele><time>2026-03-27T13:18:21.985Z</time></trkpt><trkpt lat="46.0851446" lon="12.5791861"><ele>221.0</ele><time>2026-03-27T13:18:23.984Z</time></trkpt><trkpt lat="46.085164" lon="12.5790784"><ele>221.33333333333331</ele><time>2026-03-27T13:18:24.982Z</time></trkpt><trkpt lat="46.0851845" lon="12.5789605"><ele>221.66666666666666</ele><time>2026-03-27T13:18:25.982Z</time></trkpt><trkpt lat="46.0852096" lon="12.5788625"><ele>222.0</ele><time>2026-03-27T13:18:26.983Z</time></trkpt><trkpt lat="46.085209" lon="12.5787171"><ele>221.75</ele><time>2026-03-27T13:18:28.983Z</time></trkpt><trkpt lat="46.0851184" lon="12.5785522"><ele>221.5</ele><time>2026-03-27T13:18:30.982Z</time></trkpt><trkpt lat="46.0850014" lon="12.5784816"><ele>221.25</ele><time>2026-03-27T13:18:31.983Z</time></trkpt><trkpt lat="46.08484" lon="12.5784233"><ele>221.0</ele><time>2026-03-27T13:18:32.983Z</time></trkpt><trkpt lat="46.0847217" lon="12.5783483"><ele>221.0</ele><time>2026-03-27T13:18:33.982Z</time></trkpt><trkpt lat="46.0846067" lon="12.5782583"><ele>221.00000000000003</ele><time>2026-03-27T13:18:34.983Z</time></trkpt><trkpt lat="46.084505" lon="12.5781717"><ele>221.00000000000003</ele><time>2026-03-27T13:18:35.984Z</time></trkpt><trkpt lat="46.0844217" lon="12.57809"><ele>221.0</ele><time>2026-03-27T13:18:36.982Z</time></trkpt><trkpt lat="46.0843417" lon="12.578005"><ele>221.0</ele><time>2026-03-27T13:18:37.984Z</time></trkpt><trkpt lat="46.0842617" lon="12.5779133"><ele>220.8</ele><time>2026-03-27T13:18:38.983Z</time></trkpt><trkpt lat="46.08418" lon="12.5778367"><ele>220.60000000000002</ele><time>2026-03-27T13:18:39.984Z</time></trkpt><trkpt lat="46.08409" lon="12.5777767"><ele>220.4</ele><time>2026-03-27T13:18:40.983Z</time></trkpt><trkpt lat="46.0839917" lon="12.577725"><ele>220.2</ele><time>2026-03-27T13:18:41.983Z</time></trkpt><trkpt lat="46.0839" lon="12.57767"><ele>220.0</ele><time>2026-03-27T13:18:42.982Z</time></trkpt><trkpt lat="46.08382" lon="12.5776117"><ele>219.99999999999997</ele><time>2026-03-27T13:18:43.985Z</time></trkpt><trkpt lat="46.083755" lon="12.577555"><ele>220.0</ele><time>2026-03-27T13:18:44.983Z</time></trkpt><trkpt lat="46.0837" lon="12.5774983"><ele>220.0</ele><time>2026-03-27T13:18:45.982Z</time></trkpt><trkpt lat="46.0836483" lon="12.577445"><ele>220.0</ele><time>2026-03-27T13:18:46.984Z</time></trkpt><trkpt lat="46.0836" lon="12.577375"><ele>220.0</ele><time>2026-03-27T13:18:47.982Z</time></trkpt><trkpt lat="46.083545" lon="12.5772983"><ele>219.99999999999997</ele><time>2026-03-27T13:18:48.984Z</time></trkpt><trkpt lat="46.0834867" lon="12.5772233"><ele>220.0</ele><time>2026-03-27T13:18:49.983Z</time></trkpt><trkpt lat="46.083425" lon="12.5771467"><ele>219.99999999999997</ele><time>2026-03-27T13:18:50.984Z</time></trkpt><trkpt lat="46.0833667" lon="12.5770667"><ele>220.0</ele><time>2026-03-27T13:18:51.983Z</time></trkpt><trkpt lat="46.08331" lon="12.5769967"><ele>220.0</ele><time>2026-03-27T13:18:52.983Z</time></trkpt><trkpt lat="46.083255" lon="12.57694"><ele>220.0</ele><time>2026-03-27T13:18:53.983Z</time></trkpt><trkpt lat="46.083175" lon="12.5768433"><ele>219.99999999999997</ele><time>2026-03-27T13:18:55.983Z</time></trkpt><trkpt lat="46.083145" lon="12.5767583"><ele>220.0</ele><time>2026-03-27T13:19:15.982Z</time></trkpt><trkpt lat="46.0831583" lon="12.57658"><ele>219.8</ele><time>2026-03-27T13:19:17.984Z</time></trkpt><trkpt lat="46.08318" lon="12.5764467"><ele>219.6</ele><time>2026-03-27T13:19:18.982Z</time></trkpt><trkpt lat="46.0832" lon="12.576295"><ele>219.39999999999998</ele><time>2026-03-27T13:19:19.984Z</time></trkpt><trkpt lat="46.08323" lon="12.5761383"><ele>219.2</ele><time>2026-03-27T13:19:20.983Z</time></trkpt><trkpt lat="46.08328" lon="12.5759883"><ele>219.0</ele><time>2026-03-27T13:19:21.987Z</time></trkpt><trkpt lat="46.083355" lon="12.57584"><ele>220.5</ele><time>2026-03-27T13:19:22.983Z</time></trkpt><trkpt lat="46.083455" lon="12.5757067"><ele>222.0</ele><time>2026-03-27T13:19:23.982Z</time></trkpt><trkpt lat="46.0835633" lon="12.5755817"><ele>223.5</ele><time>2026-03-27T13:19:24.983Z</time></trkpt><trkpt lat="46.0836767" lon="12.5754533"><ele>225.0</ele><time>2026-03-27T13:19:25.982Z</time></trkpt><trkpt lat="46.0837883" lon="12.5753033"><ele>225.66666666666669</ele><time>2026-03-27T13:19:26.985Z</time></trkpt><trkpt lat="46.083905" lon="12.5751533"><ele>226.33333333333334</ele><time>2026-03-27T13:19:27.984Z</time></trkpt><trkpt lat="46.0840367" lon="12.57503"><ele>227.0</ele><time>2026-03-27T13:19:28.982Z</time></trkpt><trkpt lat="46.0841967" lon="12.5749633"><ele>229.0</ele><time>2026-03-27T13:19:29.983Z</time></trkpt><trkpt lat="46.0843617" lon="12.57491"><ele>231.0</ele><time>2026-03-27T13:19:30.983Z</time></trkpt><trkpt lat="46.0845267" lon="12.5748333"><ele>233.0</ele><time>2026-03-27T13:19:31.982Z</time></trkpt><trkpt lat="46.0846883" lon="12.5747283"><ele>233.0</ele><time>2026-03-27T13:19:32.984Z</time></trkpt><trkpt lat="46.084855" lon="12.5746433"><ele>233.0</ele><time>2026-03-27T13:19:33.983Z</time></trkpt><trkpt lat="46.08501" lon="12.57457"><ele>233.0</ele><time>2026-03-27T13:19:34.983Z</time></trkpt><trkpt lat="46.0851467" lon="12.5744967"><ele>234.4</ele><time>2026-03-27T13:19:35.983Z</time></trkpt><trkpt lat="46.0852567" lon="12.5744167"><ele>235.8</ele><time>2026-03-27T13:19:36.983Z</time></trkpt><trkpt lat="46.0853333" lon="12.5743433"><ele>237.2</ele><time>2026-03-27T13:19:37.984Z</time></trkpt><trkpt lat="46.0854033" lon="12.574275"><ele>238.6</ele><time>2026-03-27T13:19:38.983Z</time></trkpt><trkpt lat="46.0854667" lon="12.5741733"><ele>240.0</ele><time>2026-03-27T13:19:39.982Z</time></trkpt><trkpt lat="46.0855333" lon="12.574065"><ele>240.0</ele><time>2026-03-27T13:19:40.983Z</time></trkpt><trkpt lat="46.0856017" lon="12.5739533"><ele>240.0</ele><time>2026-03-27T13:19:41.982Z</time></trkpt><trkpt lat="46.0856783" lon="12.5738467"><ele>240.0</ele><time>2026-03-27T13:19:42.983Z</time></trkpt><trkpt lat="46.0857567" lon="12.57374"><ele>240.0</ele><time>2026-03-27T13:19:43.983Z</time></trkpt><trkpt lat="46.0858367" lon="12.5736333"><ele>240.0</ele><time>2026-03-27T13:19:44.984Z</time></trkpt><trkpt lat="46.08592" lon="12.57352"><ele>242.5</ele><time>2026-03-27T13:19:45.982Z</time></trkpt><trkpt lat="46.0860017" lon="12.5734083"><ele>245.0</ele><time>2026-03-27T13:19:46.983Z</time></trkpt><trkpt lat="46.0860883" lon="12.5732983"><ele>247.5</ele><time>2026-03-27T13:19:47.982Z</time></trkpt><trkpt lat="46.0861767" lon="12.5731883"><ele>250.0</ele><time>2026-03-27T13:19:48.983Z</time></trkpt><trkpt lat="46.086265" lon="12.573075"><ele>250.0</ele><time>2026-03-27T13:19:49.984Z</time></trkpt><trkpt lat="46.08635" lon="12.57297"><ele>250.0</ele><time>2026-03-27T13:19:50.983Z</time></trkpt><trkpt lat="46.0864283" lon="12.5728717"><ele>250.0</ele><time>2026-03-27T13:19:51.983Z</time></trkpt><trkpt lat="46.0865083" lon="12.572775"><ele>250.0</ele><time>2026-03-27T13:19:52.983Z</time></trkpt><trkpt lat="46.0865833" lon="12.5726917"><ele>250.0</ele><time>2026-03-27T13:19:53.984Z</time></trkpt><trkpt lat="46.0866433" lon="12.5726267"><ele>253.4</ele><time>2026-03-27T13:19:54.983Z</time></trkpt><trkpt lat="46.0867267" lon="12.5724917"><ele>256.8</ele><time>2026-03-27T13:19:56.986Z</time></trkpt><trkpt lat="46.0867617" lon="12.572415"><ele>260.2</ele><time>2026-03-27T13:19:57.983Z</time></trkpt><trkpt lat="46.0868217" lon="12.5722733"><ele>263.6</ele><time>2026-03-27T13:19:59.983Z</time></trkpt><trkpt lat="46.0868483" lon="12.5721683"><ele>267.0</ele><time>2026-03-27T13:20:00.983Z</time></trkpt><trkpt lat="46.0868667" lon="12.5720667"><ele>266.8333333333333</ele><time>2026-03-27T13:20:01.983Z</time></trkpt><trkpt lat="46.0868817" lon="12.5719783"><ele>266.6666666666667</ele><time>2026-03-27T13:20:02.983Z</time></trkpt><trkpt lat="46.0868983" lon="12.5718867"><ele>266.5</ele><time>2026-03-27T13:20:03.982Z</time></trkpt><trkpt lat="46.0869133" lon="12.571795"><ele>266.33333333333337</ele><time>2026-03-27T13:20:04.984Z</time></trkpt><trkpt lat="46.086935" lon="12.57162"><ele>266.1666666666667</ele><time>2026-03-27T13:20:06.983Z</time></trkpt><trkpt lat="46.08695" lon="12.57146"><ele>266.0</ele><time>2026-03-27T13:20:08.984Z</time></trkpt><trkpt lat="46.0869683" lon="12.5713617"><ele>266.0</ele><time>2026-03-27T13:20:09.984Z</time></trkpt><trkpt lat="46.08698" lon="12.57125"><ele>266.0</ele><time>2026-03-27T13:20:10.984Z</time></trkpt><trkpt lat="46.0870017" lon="12.5711467"><ele>266.0</ele><time>2026-03-27T13:20:11.984Z</time></trkpt><trkpt lat="46.0870117" lon="12.571055"><ele>266.0</ele><time>2026-03-27T13:20:12.982Z</time></trkpt><trkpt lat="46.087045" lon="12.5709083"><ele>266.0</ele><time>2026-03-27T13:20:14.983Z</time></trkpt><trkpt lat="46.0870883" lon="12.5707583"><ele>266.0</ele><time>2026-03-27T13:20:16.984Z</time></trkpt><trkpt lat="46.0871433" lon="12.5706633"><ele>268.33333333333337</ele><time>2026-03-27T13:20:18.983Z</time></trkpt><trkpt lat="46.08719" lon="12.5705867"><ele>270.6666666666667</ele><time>2026-03-27T13:20:20.984Z</time></trkpt><trkpt lat="46.0872283" lon="12.570505"><ele>273.0</ele><time>2026-03-27T13:20:22.982Z</time></trkpt><trkpt lat="46.0871433" lon="12.57051"><ele>275.3333333333333</ele><time>2026-03-27T13:21:31.982Z</time></trkpt><trkpt lat="46.087095" lon="12.5706267"><ele>277.66666666666663</ele><time>2026-03-27T13:24:21.981Z</time></trkpt><trkpt lat="46.0870533" lon="12.57077"><ele>280.0</ele><time>2026-03-27T13:25:28.982Z</time></trkpt><trkpt lat="46.08699" lon="12.5708383"><ele>280.0</ele><time>2026-03-27T13:25:30.982Z</time></trkpt><trkpt lat="46.086935" lon="12.57092"><ele>280.0</ele><time>2026-03-27T13:25:32.983Z</time></trkpt><trkpt lat="46.0868867" lon="12.571035"><ele>280.0</ele><time>2026-03-27T13:25:34.983Z</time></trkpt><trkpt lat="46.0868733" lon="12.5711333"><ele>280.0</ele><time>2026-03-27T13:25:35.984Z</time></trkpt><trkpt lat="46.0868733" lon="12.5712467"><ele>280.0</ele><time>2026-03-27T13:25:36.984Z</time></trkpt><trkpt lat="46.086865" lon="12.5713583"><ele>280.0</ele><time>2026-03-27T13:25:37.984Z</time></trkpt><trkpt lat="46.0868633" lon="12.5714583"><ele>277.8333333333333</ele><time>2026-03-27T13:25:38.984Z</time></trkpt><trkpt lat="46.0868567" lon="12.571555"><ele>275.66666666666663</ele><time>2026-03-27T13:25:39.985Z</time></trkpt><trkpt lat="46.0868433" lon="12.5717217"><ele>273.5</ele><time>2026-03-27T13:25:41.984Z</time></trkpt><trkpt lat="46.08683" lon="12.5718267"><ele>271.3333333333333</ele><time>2026-03-27T13:25:42.985Z</time></trkpt><trkpt lat="46.0868167" lon="12.571935"><ele>269.1666666666667</ele><time>2026-03-27T13:25:43.986Z</time></trkpt><trkpt lat="46.0867933" lon="12.5720417"><ele>267.0</ele><time>2026-03-27T13:25:44.984Z</time></trkpt><trkpt lat="46.0867667" lon="12.5721883"><ele>267.00000000000006</ele><time>2026-03-27T13:25:46.985Z</time></trkpt><trkpt lat="46.0867083" lon="12.572325"><ele>267.0</ele><time>2026-03-27T13:25:48.982Z</time></trkpt><trkpt lat="46.086675" lon="12.5724033"><ele>267.0</ele><time>2026-03-27T13:25:49.982Z</time></trkpt><trkpt lat="46.086635" lon="12.5724767"><ele>267.0</ele><time>2026-03-27T13:25:50.984Z</time></trkpt><trkpt lat="46.086585" lon="12.572545"><ele>267.0</ele><time>2026-03-27T13:25:51.982Z</time></trkpt><trkpt lat="46.0865367" lon="12.5726167"><ele>267.00000000000006</ele><time>2026-03-27T13:25:52.983Z</time></trkpt><trkpt lat="46.0864917" lon="12.57269"><ele>267.0</ele><time>2026-03-27T13:25:53.982Z</time></trkpt><trkpt lat="46.0864383" lon="12.5727733"><ele>265.1666666666667</ele><time>2026-03-27T13:25:54.983Z</time></trkpt><trkpt lat="46.0863833" lon="12.57285"><ele>263.3333333333333</ele><time>2026-03-27T13:25:55.985Z</time></trkpt><trkpt lat="46.086325" lon="12.57294"><ele>261.5</ele><time>2026-03-27T13:25:56.985Z</time></trkpt><trkpt lat="46.086265" lon="12.5730267"><ele>259.66666666666663</ele><time>2026-03-27T13:25:57.984Z</time></trkpt><trkpt lat="46.0862" lon="12.5731167"><ele>257.8333333333333</ele><time>2026-03-27T13:25:58.984Z</time></trkpt><trkpt lat="46.0861283" lon="12.5732167"><ele>256.0</ele><time>2026-03-27T13:25:59.983Z</time></trkpt><trkpt lat="46.086055" lon="12.5733183"><ele>254.8</ele><time>2026-03-27T13:26:00.983Z</time></trkpt><trkpt lat="46.085975" lon="12.5734233"><ele>253.60000000000002</ele><time>2026-03-27T13:26:01.983Z</time></trkpt><trkpt lat="46.0858933" lon="12.5735417"><ele>252.4</ele><time>2026-03-27T13:26:02.982Z</time></trkpt><trkpt lat="46.0858083" lon="12.5736567"><ele>251.2</ele><time>2026-03-27T13:26:03.984Z</time></trkpt><trkpt lat="46.08573" lon="12.5737583"><ele>250.0</ele><time>2026-03-27T13:26:04.983Z</time></trkpt><trkpt lat="46.085655" lon="12.57387"><ele>248.33333333333331</ele><time>2026-03-27T13:26:05.983Z</time></trkpt><trkpt lat="46.08559" lon="12.573955"><ele>246.66666666666666</ele><time>2026-03-27T13:26:06.983Z</time></trkpt><trkpt lat="46.0855283" lon="12.5740467"><ele>245.0</ele><time>2026-03-27T13:26:07.984Z</time></trkpt><trkpt lat="46.0854733" lon="12.5741367"><ele>243.33333333333331</ele><time>2026-03-27T13:26:08.984Z</time></trkpt><trkpt lat="46.0854317" lon="12.5742067"><ele>241.66666666666666</ele><time>2026-03-27T13:26:09.983Z</time></trkpt><trkpt lat="46.0853733" lon="12.5742767"><ele>240.0</ele><time>2026-03-27T13:26:10.984Z</time></trkpt><trkpt lat="46.0853" lon="12.574345"><ele>240.0</ele><time>2026-03-27T13:26:11.984Z</time></trkpt><trkpt lat="46.0852117" lon="12.5744283"><ele>240.0</ele><time>2026-03-27T13:26:12.984Z</time></trkpt><trkpt lat="46.0851167" lon="12.5745117"><ele>240.0</ele><time>2026-03-27T13:26:13.984Z</time></trkpt><trkpt lat="46.0850133" lon="12.5745767"><ele>240.0</ele><time>2026-03-27T13:26:14.983Z</time></trkpt><trkpt lat="46.0848933" lon="12.5746467"><ele>238.25</ele><time>2026-03-27T13:26:15.983Z</time></trkpt><trkpt lat="46.0847717" lon="12.5747083"><ele>236.5</ele><time>2026-03-27T13:26:16.983Z</time></trkpt><trkpt lat="46.0846517" lon="12.57477"><ele>234.75</ele><time>2026-03-27T13:26:17.982Z</time></trkpt><trkpt lat="46.0845367" lon="12.5748333"><ele>233.0</ele><time>2026-03-27T13:26:18.983Z</time></trkpt><trkpt lat="46.0844217" lon="12.5748917"><ele>233.0</ele><time>2026-03-27T13:26:19.983Z</time></trkpt><trkpt lat="46.0842917" lon="12.5749483"><ele>233.0</ele><time>2026-03-27T13:26:20.982Z</time></trkpt><trkpt lat="46.0841533" lon="12.5750017"><ele>233.0</ele><time>2026-03-27T13:26:21.982Z</time></trkpt><trkpt lat="46.084025" lon="12.5750517"><ele>233.0</ele><time>2026-03-27T13:26:22.982Z</time></trkpt><trkpt lat="46.083895" lon="12.5751483"><ele>231.0</ele><time>2026-03-27T13:26:23.984Z</time></trkpt><trkpt lat="46.0837717" lon="12.57528"><ele>229.0</ele><time>2026-03-27T13:26:24.982Z</time></trkpt><trkpt lat="46.0836483" lon="12.575425"><ele>227.0</ele><time>2026-03-27T13:26:25.982Z</time></trkpt><trkpt lat="46.083525" lon="12.5755667"><ele>226.5</ele><time>2026-03-27T13:26:26.988Z</time></trkpt><trkpt lat="46.0834067" lon="12.57571"><ele>226.0</ele><time>2026-03-27T13:26:27.982Z</time></trkpt><trkpt lat="46.0833017" lon="12.57585"><ele>225.5</ele><time>2026-03-27T13:26:28.982Z</time></trkpt><trkpt lat="46.0832233" lon="12.5760067"><ele>225.0</ele><time>2026-03-27T13:26:29.983Z</time></trkpt><trkpt lat="46.0831767" lon="12.5761617"><ele>223.4</ele><time>2026-03-27T13:26:30.983Z</time></trkpt><trkpt lat="46.0831533" lon="12.576325"><ele>221.8</ele><time>2026-03-27T13:26:31.984Z</time></trkpt><trkpt lat="46.0831417" lon="12.576475"><ele>220.2</ele><time>2026-03-27T13:26:32.984Z</time></trkpt><trkpt lat="46.0831317" lon="12.5766067"><ele>218.6</ele><time>2026-03-27T13:26:33.983Z</time></trkpt><trkpt lat="46.0831183" lon="12.5767133"><ele>217.0</ele><time>2026-03-27T13:26:34.983Z</time></trkpt><trkpt lat="46.0830667" lon="12.576775"><ele>216.99999999999997</ele><time>2026-03-27T13:26:36.982Z</time></trkpt><trkpt lat="46.0830133" lon="12.5766983"><ele>217.0</ele><time>2026-03-27T13:26:38.983Z</time></trkpt><trkpt lat="46.08297" lon="12.5766217"><ele>217.0</ele><time>2026-03-27T13:26:39.982Z</time></trkpt><trkpt lat="46.0829117" lon="12.576495"><ele>217.0</ele><time>2026-03-27T13:26:41.982Z</time></trkpt><trkpt lat="46.0829083" lon="12.5763633"><ele>216.99999999999997</ele><time>2026-03-27T13:26:43.982Z</time></trkpt><trkpt lat="46.08289" lon="12.5762217"><ele>217.0</ele><time>2026-03-27T13:26:45.983Z</time></trkpt><trkpt lat="46.08297" lon="12.5760483"><ele>217.33333333333331</ele><time>2026-03-27T13:26:47.982Z</time></trkpt><trkpt lat="46.0830183" lon="12.5759583"><ele>217.66666666666666</ele><time>2026-03-27T13:26:48.983Z</time></trkpt><trkpt lat="46.0830567" lon="12.5758817"><ele>218.0</ele><time>2026-03-27T13:26:49.983Z</time></trkpt><trkpt lat="46.0830933" lon="12.5757667"><ele>218.33333333333331</ele><time>2026-03-27T13:26:51.987Z</time></trkpt><trkpt lat="46.0830867" lon="12.5756483"><ele>218.66666666666666</ele><time>2026-03-27T13:26:53.985Z</time></trkpt><trkpt lat="46.0830333" lon="12.5755267"><ele>219.0</ele><time>2026-03-27T13:26:55.983Z</time></trkpt><trkpt lat="46.0829517" lon="12.5754833"><ele>219.0</ele><time>2026-03-27T13:26:57.982Z</time></trkpt><trkpt lat="46.0828433" lon="12.57553"><ele>218.99999999999997</ele><time>2026-03-27T13:26:59.983Z</time></trkpt><trkpt lat="46.08275" lon="12.5755483"><ele>218.99999999999997</ele><time>2026-03-27T13:27:01.982Z</time></trkpt><trkpt lat="46.0826933" lon="12.5754467"><ele>219.0</ele><time>2026-03-27T13:27:03.983Z</time></trkpt><trkpt lat="46.0826567" lon="12.5753617"><ele>219.0</ele><time>2026-03-27T13:27:04.983Z</time></trkpt><trkpt lat="46.08261" lon="12.5752533"><ele>219.2</ele><time>2026-03-27T13:27:05.982Z</time></trkpt><trkpt lat="46.0825617" lon="12.575135"><ele>219.39999999999998</ele><time>2026-03-27T13:27:06.982Z</time></trkpt><trkpt lat="46.082515" lon="12.5750133"><ele>219.6</ele><time>2026-03-27T13:27:07.983Z</time></trkpt><trkpt lat="46.0824617" lon="12.57489"><ele>219.8</ele><time>2026-03-27T13:27:08.985Z</time></trkpt><trkpt lat="46.0824083" lon="12.57477"><ele>220.0</ele><time>2026-03-27T13:27:09.982Z</time></trkpt><trkpt lat="46.082355" lon="12.5746667"><ele>219.0</ele><time>2026-03-27T13:27:10.982Z</time></trkpt><trkpt lat="46.082315" lon="12.574565"><ele>218.0</ele><time>2026-03-27T13:27:11.984Z</time></trkpt><trkpt lat="46.0822617" lon="12.5744583"><ele>217.0</ele><time>2026-03-27T13:27:12.984Z</time></trkpt><trkpt lat="46.08221" lon="12.5743367"><ele>216.0</ele><time>2026-03-27T13:27:13.984Z</time></trkpt><trkpt lat="46.0821567" lon="12.5742183"><ele>215.0</ele><time>2026-03-27T13:27:14.983Z</time></trkpt><trkpt lat="46.08211" lon="12.574115"><ele>215.00000000000003</ele><time>2026-03-27T13:27:15.982Z</time></trkpt><trkpt lat="46.08207" lon="12.5740267"><ele>215.0</ele><time>2026-03-27T13:27:16.983Z</time></trkpt><trkpt lat="46.08206" lon="12.57393"><ele>215.0</ele><time>2026-03-27T13:27:17.984Z</time></trkpt><trkpt lat="46.0820983" lon="12.573825"><ele>215.0</ele><time>2026-03-27T13:27:18.982Z</time></trkpt><trkpt lat="46.0821383" lon="12.5737233"><ele>215.00000000000003</ele><time>2026-03-27T13:27:19.982Z</time></trkpt><trkpt lat="46.0821917" lon="12.5736167"><ele>215.0</ele><time>2026-03-27T13:27:20.983Z</time></trkpt><trkpt lat="46.0822433" lon="12.5735017"><ele>215.6</ele><time>2026-03-27T13:27:21.983Z</time></trkpt><trkpt lat="46.082285" lon="12.573375"><ele>216.2</ele><time>2026-03-27T13:27:22.984Z</time></trkpt><trkpt lat="46.0823233" lon="12.57325"><ele>216.8</ele><time>2026-03-27T13:27:23.984Z</time></trkpt><trkpt lat="46.082345" lon="12.573115"><ele>217.4</ele><time>2026-03-27T13:27:24.983Z</time></trkpt><trkpt lat="46.0823533" lon="12.572975"><ele>218.0</ele><time>2026-03-27T13:27:25.983Z</time></trkpt><trkpt lat="46.082355" lon="12.5728367"><ele>218.0</ele><time>2026-03-27T13:27:26.983Z</time></trkpt><trkpt lat="46.082345" lon="12.572675"><ele>218.0</ele><time>2026-03-27T13:27:27.984Z</time></trkpt><trkpt lat="46.082335" lon="12.57252"><ele>218.0</ele><time>2026-03-27T13:27:28.985Z</time></trkpt><trkpt lat="46.08232" lon="12.5723833"><ele>218.0</ele><time>2026-03-27T13:27:29.982Z</time></trkpt><trkpt lat="46.0823" lon="12.5722467"><ele>218.0</ele><time>2026-03-27T13:27:30.986Z</time></trkpt><trkpt lat="46.0822783" lon="12.5721283"><ele>218.00000000000003</ele><time>2026-03-27T13:27:31.983Z</time></trkpt><trkpt lat="46.0822667" lon="12.5720367"><ele>218.0</ele><time>2026-03-27T13:27:32.985Z</time></trkpt><trkpt lat="46.0822933" lon="12.5718583"><ele>218.0</ele><time>2026-03-27T13:27:34.983Z</time></trkpt><trkpt lat="46.0823267" lon="12.5717533"><ele>218.0</ele><time>2026-03-27T13:27:35.984Z</time></trkpt><trkpt lat="46.0823667" lon="12.57165"><ele>218.00000000000003</ele><time>2026-03-27T13:27:36.983Z</time></trkpt><trkpt lat="46.0824133" lon="12.57155"><ele>218.0</ele><time>2026-03-27T13:27:37.984Z</time></trkpt><trkpt lat="46.0824417" lon="12.5714333"><ele>219.83333333333334</ele><time>2026-03-27T13:27:38.982Z</time></trkpt><trkpt lat="46.08246" lon="12.5713283"><ele>221.66666666666669</ele><time>2026-03-27T13:27:39.983Z</time></trkpt><trkpt lat="46.082465" lon="12.571235"><ele>223.5</ele><time>2026-03-27T13:27:40.983Z</time></trkpt><trkpt lat="46.0824583" lon="12.5710967"><ele>225.33333333333331</ele><time>2026-03-27T13:27:42.982Z</time></trkpt><trkpt lat="46.08246" lon="12.57097"><ele>227.16666666666666</ele><time>2026-03-27T13:27:44.982Z</time></trkpt><trkpt lat="46.0824683" lon="12.5708683"><ele>229.0</ele><time>2026-03-27T13:27:45.983Z</time></trkpt><trkpt lat="46.0824767" lon="12.5707567"><ele>228.99999999999997</ele><time>2026-03-27T13:27:46.982Z</time></trkpt><trkpt lat="46.08248" lon="12.570625"><ele>229.0</ele><time>2026-03-27T13:27:47.983Z</time></trkpt><trkpt lat="46.0824883" lon="12.5704917"><ele>229.0</ele><time>2026-03-27T13:27:48.983Z</time></trkpt><trkpt lat="46.0824967" lon="12.5703733"><ele>229.0</ele><time>2026-03-27T13:27:49.982Z</time></trkpt><trkpt lat="46.0825083" lon="12.570265"><ele>228.99999999999997</ele><time>2026-03-27T13:27:50.984Z</time></trkpt><trkpt lat="46.0825233" lon="12.57013"><ele>229.0</ele><time>2026-03-27T13:27:52.982Z</time></trkpt><trkpt lat="46.0825267" lon="12.57"><ele>228.99999999999997</ele><time>2026-03-27T13:27:54.983Z</time></trkpt><trkpt lat="46.0825383" lon="12.5698817"><ele>229.0</ele><time>2026-03-27T13:27:56.983Z</time></trkpt><trkpt lat="46.0825933" lon="12.5697833"><ele>229.0</ele><time>2026-03-27T13:27:58.982Z</time></trkpt><trkpt lat="46.0826367" lon="12.569695"><ele>229.0</ele><time>2026-03-27T13:28:00.982Z</time></trkpt><trkpt lat="46.0825917" lon="12.5696017"><ele>228.99999999999997</ele><time>2026-03-27T13:28:03.982Z</time></trkpt><trkpt lat="46.0825183" lon="12.56954"><ele>229.0</ele><time>2026-03-27T13:28:05.983Z</time></trkpt><trkpt lat="46.0824483" lon="12.5694767"><ele>231.0</ele><time>2026-03-27T13:28:09.982Z</time></trkpt><trkpt lat="46.0823683" lon="12.569385"><ele>232.99999999999997</ele><time>2026-03-27T13:28:11.982Z</time></trkpt><trkpt lat="46.082285" lon="12.5692983"><ele>234.99999999999997</ele><time>2026-03-27T13:28:13.986Z</time></trkpt><trkpt lat="46.0822367" lon="12.56921"><ele>237.0</ele><time>2026-03-27T13:28:16.985Z</time></trkpt><trkpt lat="46.0822783" lon="12.5690817"><ele>239.0</ele><time>2026-03-27T13:28:22.984Z</time></trkpt><trkpt lat="46.0822933" lon="12.5689767"><ele>239.00000000000003</ele><time>2026-03-27T13:28:24.982Z</time></trkpt><trkpt lat="46.0823067" lon="12.5688467"><ele>239.0</ele><time>2026-03-27T13:28:27.983Z</time></trkpt><trkpt lat="46.08231" lon="12.5687467"><ele>239.0</ele><time>2026-03-27T13:28:30.983Z</time></trkpt><trkpt lat="46.0822933" lon="12.5685883"><ele>239.0</ele><time>2026-03-27T13:28:33.982Z</time></trkpt><trkpt lat="46.08227" lon="12.5684783"><ele>239.00000000000003</ele><time>2026-03-27T13:28:35.984Z</time></trkpt><trkpt lat="46.0821967" lon="12.568565"><ele>239.0</ele><time>2026-03-27T13:28:44.985Z</time></trkpt><trkpt lat="46.0821367" lon="12.56868"><ele>239.0</ele><time>2026-03-27T13:28:46.983Z</time></trkpt><trkpt lat="46.08208" lon="12.56879"><ele>238.99999999999997</ele><time>2026-03-27T13:28:48.983Z</time></trkpt><trkpt lat="46.0819967" lon="12.568865"><ele>238.99999999999997</ele><time>2026-03-27T13:28:51.983Z</time></trkpt><trkpt lat="46.0819367" lon="12.5690167"><ele>239.0</ele><time>2026-03-27T13:28:53.983Z</time></trkpt><trkpt lat="46.08191" lon="12.5691267"><ele>239.0</ele><time>2026-03-27T13:28:54.984Z</time></trkpt><trkpt lat="46.0818817" lon="12.56923"><ele>239.00000000000003</ele><time>2026-03-27T13:28:55.984Z</time></trkpt><trkpt lat="46.08185" lon="12.5693117"><ele>239.0</ele><time>2026-03-27T13:28:56.986Z</time></trkpt><trkpt lat="46.0818133" lon="12.5694117"><ele>239.0</ele><time>2026-03-27T13:28:57.983Z</time></trkpt><trkpt lat="46.0817583" lon="12.569515"><ele>239.0</ele><time>2026-03-27T13:28:58.982Z</time></trkpt><trkpt lat="46.08171" lon="12.5696"><ele>239.00000000000003</ele><time>2026-03-27T13:28:59.983Z</time></trkpt><trkpt lat="46.0816683" lon="12.5696683"><ele>239.0</ele><time>2026-03-27T13:29:00.983Z</time></trkpt><trkpt lat="46.0815967" lon="12.56978"><ele>236.33333333333334</ele><time>2026-03-27T13:29:02.983Z</time></trkpt><trkpt lat="46.0815067" lon="12.569865"><ele>233.66666666666669</ele><time>2026-03-27T13:29:04.983Z</time></trkpt><trkpt lat="46.0814033" lon="12.56991"><ele>231.0</ele><time>2026-03-27T13:29:06.983Z</time></trkpt><trkpt lat="46.0813283" lon="12.569915"><ele>228.33333333333331</ele><time>2026-03-27T13:29:08.983Z</time></trkpt><trkpt lat="46.0812767" lon="12.5698333"><ele>225.66666666666666</ele><time>2026-03-27T13:29:10.982Z</time></trkpt><trkpt lat="46.0812283" lon="12.569775"><ele>223.0</ele><time>2026-03-27T13:29:11.983Z</time></trkpt><trkpt lat="46.0811783" lon="12.5697117"><ele>222.99999999999997</ele><time>2026-03-27T13:29:12.983Z</time></trkpt><trkpt lat="46.081125" lon="12.5696333"><ele>223.0</ele><time>2026-03-27T13:29:13.983Z</time></trkpt><trkpt lat="46.08106" lon="12.5695467"><ele>223.0</ele><time>2026-03-27T13:29:14.983Z</time></trkpt><trkpt lat="46.0809967" lon="12.569455"><ele>223.0</ele><time>2026-03-27T13:29:15.983Z</time></trkpt><trkpt lat="46.080925" lon="12.5693667"><ele>222.99999999999997</ele><time>2026-03-27T13:29:16.983Z</time></trkpt><trkpt lat="46.0808467" lon="12.56929"><ele>223.0</ele><time>2026-03-27T13:29:17.983Z</time></trkpt><trkpt lat="46.080755" lon="12.5692267"><ele>228.60000000000002</ele><time>2026-03-27T13:29:18.983Z</time></trkpt><trkpt lat="46.0806667" lon="12.5691583"><ele>234.20000000000002</ele><time>2026-03-27T13:29:19.983Z</time></trkpt><trkpt lat="46.0805767" lon="12.5691017"><ele>239.8</ele><time>2026-03-27T13:29:20.984Z</time></trkpt><trkpt lat="46.0804967" lon="12.5690417"><ele>245.4</ele><time>2026-03-27T13:29:21.984Z</time></trkpt><trkpt lat="46.0804133" lon="12.5689983"><ele>251.0</ele><time>2026-03-27T13:29:22.983Z</time></trkpt><trkpt lat="46.0803267" lon="12.5689867"><ele>250.99999999999997</ele><time>2026-03-27T13:29:23.983Z</time></trkpt><trkpt lat="46.08024" lon="12.5689833"><ele>251.0</ele><time>2026-03-27T13:29:24.983Z</time></trkpt><trkpt lat="46.08016" lon="12.568995"><ele>250.99999999999997</ele><time>2026-03-27T13:29:25.983Z</time></trkpt><trkpt lat="46.08009" lon="12.5690267"><ele>250.99999999999997</ele><time>2026-03-27T13:29:26.985Z</time></trkpt><trkpt lat="46.0800333" lon="12.5690867"><ele>251.0</ele><time>2026-03-27T13:29:27.982Z</time></trkpt><trkpt lat="46.07999" lon="12.5691583"><ele>250.99999999999997</ele><time>2026-03-27T13:29:28.984Z</time></trkpt><trkpt lat="46.0799467" lon="12.569235"><ele>250.99999999999997</ele><time>2026-03-27T13:29:29.986Z</time></trkpt><trkpt lat="46.0799017" lon="12.5693183"><ele>253.16666666666669</ele><time>2026-03-27T13:29:30.983Z</time></trkpt><trkpt lat="46.0798583" lon="12.5694"><ele>255.33333333333334</ele><time>2026-03-27T13:29:31.984Z</time></trkpt><trkpt lat="46.079815" lon="12.5695"><ele>257.5</ele><time>2026-03-27T13:29:32.984Z</time></trkpt><trkpt lat="46.0797767" lon="12.56961"><ele>259.6666666666667</ele><time>2026-03-27T13:29:33.983Z</time></trkpt><trkpt lat="46.0797433" lon="12.56973"><ele>261.8333333333333</ele><time>2026-03-27T13:29:34.984Z</time></trkpt><trkpt lat="46.0797083" lon="12.569855"><ele>264.0</ele><time>2026-03-27T13:29:35.983Z</time></trkpt><trkpt lat="46.0796733" lon="12.5699817"><ele>264.0</ele><time>2026-03-27T13:29:36.982Z</time></trkpt><trkpt lat="46.0796467" lon="12.5701"><ele>264.0</ele><time>2026-03-27T13:29:37.983Z</time></trkpt><trkpt lat="46.07962" lon="12.570195"><ele>264.0</ele><time>2026-03-27T13:29:38.984Z</time></trkpt><trkpt lat="46.07955" lon="12.5703367"><ele>264.0</ele><time>2026-03-27T13:29:40.982Z</time></trkpt><trkpt lat="46.07947" lon="12.5704317"><ele>264.0</ele><time>2026-03-27T13:29:42.983Z</time></trkpt><trkpt lat="46.0793433" lon="12.5704483"><ele>263.3333333333333</ele><time>2026-03-27T13:29:44.983Z</time></trkpt><trkpt lat="46.0792667" lon="12.5704533"><ele>262.6666666666667</ele><time>2026-03-27T13:29:45.983Z</time></trkpt><trkpt lat="46.07919" lon="12.570445"><ele>262.0</ele><time>2026-03-27T13:29:46.983Z</time></trkpt><trkpt lat="46.0791083" lon="12.5704483"><ele>261.33333333333337</ele><time>2026-03-27T13:29:47.983Z</time></trkpt><trkpt lat="46.0790183" lon="12.570445"><ele>260.6666666666667</ele><time>2026-03-27T13:29:48.984Z</time></trkpt><trkpt lat="46.0789217" lon="12.570455"><ele>260.0</ele><time>2026-03-27T13:29:49.983Z</time></trkpt><trkpt lat="46.0788233" lon="12.570465"><ele>260.0</ele><time>2026-03-27T13:29:50.983Z</time></trkpt><trkpt lat="46.0787233" lon="12.57048"><ele>260.0</ele><time>2026-03-27T13:29:51.983Z</time></trkpt><trkpt lat="46.0786267" lon="12.5704983"><ele>260.0</ele><time>2026-03-27T13:29:52.983Z</time></trkpt><trkpt lat="46.0785417" lon="12.57051"><ele>260.0</ele><time>2026-03-27T13:29:53.984Z</time></trkpt><trkpt lat="46.078455" lon="12.57052"><ele>260.0</ele><time>2026-03-27T13:29:54.983Z</time></trkpt><trkpt lat="46.07837" lon="12.57054"><ele>260.0</ele><time>2026-03-27T13:29:55.984Z</time></trkpt><trkpt lat="46.0782867" lon="12.5705617"><ele>260.0</ele><time>2026-03-27T13:29:56.983Z</time></trkpt><trkpt lat="46.0782" lon="12.5705767"><ele>260.0</ele><time>2026-03-27T13:29:57.984Z</time></trkpt><trkpt lat="46.07811" lon="12.5706117"><ele>260.0</ele><time>2026-03-27T13:29:58.984Z</time></trkpt><trkpt lat="46.07803" lon="12.570645"><ele>260.0</ele><time>2026-03-27T13:29:59.984Z</time></trkpt><trkpt lat="46.077965" lon="12.57068"><ele>260.0</ele><time>2026-03-27T13:30:00.983Z</time></trkpt><trkpt lat="46.077905" lon="12.57072"><ele>260.8571428571429</ele><time>2026-03-27T13:30:01.985Z</time></trkpt><trkpt lat="46.0778433" lon="12.5707433"><ele>261.7142857142857</ele><time>2026-03-27T13:30:02.984Z</time></trkpt><trkpt lat="46.0777783" lon="12.5707733"><ele>262.57142857142856</ele><time>2026-03-27T13:30:03.984Z</time></trkpt><trkpt lat="46.0777133" lon="12.5707983"><ele>263.42857142857144</ele><time>2026-03-27T13:30:04.982Z</time></trkpt><trkpt lat="46.0776483" lon="12.5708133"><ele>264.2857142857143</ele><time>2026-03-27T13:30:05.983Z</time></trkpt><trkpt lat="46.0775833" lon="12.5708317"><ele>265.14285714285717</ele><time>2026-03-27T13:30:06.984Z</time></trkpt><trkpt lat="46.0774717" lon="12.5708767"><ele>266.0</ele><time>2026-03-27T13:30:08.984Z</time></trkpt><trkpt lat="46.0774067" lon="12.5708967"><ele>266.0</ele><time>2026-03-27T13:30:09.983Z</time></trkpt><trkpt lat="46.07734" lon="12.5709167"><ele>266.0</ele><time>2026-03-27T13:30:10.983Z</time></trkpt><trkpt lat="46.0772383" lon="12.5708633"><ele>266.0</ele><time>2026-03-27T13:30:12.982Z</time></trkpt><trkpt lat="46.07719" lon="12.5708033"><ele>266.0</ele><time>2026-03-27T13:30:13.983Z</time></trkpt><trkpt lat="46.077135" lon="12.5707233"><ele>266.0</ele><time>2026-03-27T13:30:14.984Z</time></trkpt><trkpt lat="46.07708" lon="12.5706367"><ele>266.0</ele><time>2026-03-27T13:30:15.984Z</time></trkpt><trkpt lat="46.0770267" lon="12.570565"><ele>266.0</ele><time>2026-03-27T13:30:16.987Z</time></trkpt><trkpt lat="46.0769867" lon="12.5704933"><ele>266.0</ele><time>2026-03-27T13:30:17.982Z</time></trkpt><trkpt lat="46.0769367" lon="12.570345"><ele>266.0</ele><time>2026-03-27T13:30:19.984Z</time></trkpt><trkpt lat="46.0769933" lon="12.5701717"><ele>266.0</ele><time>2026-03-27T13:30:21.983Z</time></trkpt><trkpt lat="46.0770567" lon="12.5701"><ele>266.0</ele><time>2026-03-27T13:30:22.983Z</time></trkpt><trkpt lat="46.0771283" lon="12.57004"><ele>266.0</ele><time>2026-03-27T13:30:23.984Z</time></trkpt><trkpt lat="46.0772117" lon="12.56998"><ele>266.0</ele><time>2026-03-27T13:30:24.983Z</time></trkpt><trkpt lat="46.077305" lon="12.5699433"><ele>266.0</ele><time>2026-03-27T13:30:25.982Z</time></trkpt><trkpt lat="46.077405" lon="12.5699267"><ele>266.0</ele><time>2026-03-27T13:30:26.984Z</time></trkpt><trkpt lat="46.0775083" lon="12.5699117"><ele>266.0</ele><time>2026-03-27T13:30:27.984Z</time></trkpt><trkpt lat="46.0776083" lon="12.5699"><ele>268.0</ele><time>2026-03-27T13:30:28.985Z</time></trkpt><trkpt lat="46.0777017" lon="12.5698883"><ele>270.0</ele><time>2026-03-27T13:30:29.984Z</time></trkpt><trkpt lat="46.0777867" lon="12.5698683"><ele>272.0</ele><time>2026-03-27T13:30:30.983Z</time></trkpt><trkpt lat="46.07787" lon="12.56983"><ele>274.0</ele><time>2026-03-27T13:30:31.983Z</time></trkpt><trkpt lat="46.0779483" lon="12.5697683"><ele>276.0</ele><time>2026-03-27T13:30:32.984Z</time></trkpt><trkpt lat="46.0780217" lon="12.5696917"><ele>278.0</ele><time>2026-03-27T13:30:33.983Z</time></trkpt><trkpt lat="46.0780933" lon="12.5696083"><ele>278.0</ele><time>2026-03-27T13:30:34.983Z</time></trkpt><trkpt lat="46.0781633" lon="12.569545"><ele>278.0</ele><time>2026-03-27T13:30:35.984Z</time></trkpt><trkpt lat="46.07822" lon="12.5694983"><ele>278.0</ele><time>2026-03-27T13:30:37.067Z</time></trkpt><trkpt lat="46.078275" lon="12.5694433"><ele>278.0</ele><time>2026-03-27T13:30:37.983Z</time></trkpt><trkpt lat="46.0783167" lon="12.5693733"><ele>278.0</ele><time>2026-03-27T13:30:38.984Z</time></trkpt><trkpt lat="46.0783583" lon="12.5692883"><ele>278.0</ele><time>2026-03-27T13:30:39.983Z</time></trkpt><trkpt lat="46.078405" lon="12.5692033"><ele>278.0</ele><time>2026-03-27T13:30:40.983Z</time></trkpt><trkpt lat="46.0784583" lon="12.5690883"><ele>279.6</ele><time>2026-03-27T13:30:41.983Z</time></trkpt><trkpt lat="46.0785" lon="12.5689783"><ele>281.20000000000005</ele><time>2026-03-27T13:30:42.983Z</time></trkpt><trkpt lat="46.0785433" lon="12.5688617"><ele>282.8</ele><time>2026-03-27T13:30:43.984Z</time></trkpt><trkpt lat="46.0785867" lon="12.5687433"><ele>284.40000000000003</ele><time>2026-03-27T13:30:44.983Z</time></trkpt><trkpt lat="46.0786183" lon="12.5686167"><ele>286.0</ele><time>2026-03-27T13:30:45.983Z</time></trkpt><trkpt lat="46.0786383" lon="12.56848"><ele>286.57142857142856</ele><time>2026-03-27T13:30:46.982Z</time></trkpt><trkpt lat="46.0786417" lon="12.5683467"><ele>287.1428571428571</ele><time>2026-03-27T13:30:47.984Z</time></trkpt><trkpt lat="46.0786383" lon="12.5682283"><ele>287.7142857142857</ele><time>2026-03-27T13:30:48.983Z</time></trkpt><trkpt lat="46.0786283" lon="12.5681267"><ele>288.2857142857143</ele><time>2026-03-27T13:30:49.984Z</time></trkpt><trkpt lat="46.0786183" lon="12.5680317"><ele>288.8571428571429</ele><time>2026-03-27T13:30:50.983Z</time></trkpt><trkpt lat="46.0786133" lon="12.56794"><ele>289.42857142857144</ele><time>2026-03-27T13:30:51.982Z</time></trkpt><trkpt lat="46.078605" lon="12.5678433"><ele>290.0</ele><time>2026-03-27T13:30:52.983Z</time></trkpt><trkpt lat="46.0786333" lon="12.5676767"><ele>291.0</ele><time>2026-03-27T13:30:54.983Z</time></trkpt><trkpt lat="46.0786533" lon="12.5675833"><ele>292.0</ele><time>2026-03-27T13:30:55.983Z</time></trkpt><trkpt lat="46.0786817" lon="12.5674783"><ele>293.0</ele><time>2026-03-27T13:30:56.983Z</time></trkpt><trkpt lat="46.0787167" lon="12.5673817"><ele>294.0</ele><time>2026-03-27T13:30:57.983Z</time></trkpt><trkpt lat="46.078755" lon="12.567275"><ele>295.0</ele><time>2026-03-27T13:30:58.983Z</time></trkpt><trkpt lat="46.0787917" lon="12.56716"><ele>296.0</ele><time>2026-03-27T13:30:59.985Z</time></trkpt><trkpt lat="46.07883" lon="12.5670683"><ele>295.8</ele><time>2026-03-27T13:31:00.984Z</time></trkpt><trkpt lat="46.078875" lon="12.5669233"><ele>295.6</ele><time>2026-03-27T13:31:02.984Z</time></trkpt><trkpt lat="46.07891" lon="12.56678"><ele>295.4</ele><time>2026-03-27T13:31:04.983Z</time></trkpt><trkpt lat="46.0789583" lon="12.5666433"><ele>295.2</ele><time>2026-03-27T13:31:06.983Z</time></trkpt><trkpt lat="46.0790417" lon="12.56652"><ele>295.0</ele><time>2026-03-27T13:31:08.986Z</time></trkpt><trkpt lat="46.0790917" lon="12.5664383"><ele>298.4</ele><time>2026-03-27T13:31:09.982Z</time></trkpt><trkpt lat="46.07914" lon="12.5663467"><ele>301.8</ele><time>2026-03-27T13:31:10.983Z</time></trkpt><trkpt lat="46.0791767" lon="12.5662467"><ele>305.2</ele><time>2026-03-27T13:31:11.983Z</time></trkpt><trkpt lat="46.0791983" lon="12.5661533"><ele>308.6</ele><time>2026-03-27T13:31:12.984Z</time></trkpt><trkpt lat="46.0791883" lon="12.5659733"><ele>312.0</ele><time>2026-03-27T13:31:14.983Z</time></trkpt><trkpt lat="46.079185" lon="12.5657767"><ele>312.0</ele><time>2026-03-27T13:31:16.983Z</time></trkpt><trkpt lat="46.0792017" lon="12.5656783"><ele>312.0</ele><time>2026-03-27T13:31:17.983Z</time></trkpt><trkpt lat="46.0792383" lon="12.5655983"><ele>312.0</ele><time>2026-03-27T13:31:18.983Z</time></trkpt><trkpt lat="46.0792783" lon="12.5655133"><ele>312.0</ele><time>2026-03-27T13:31:19.983Z</time></trkpt><trkpt lat="46.0793233" lon="12.565425"><ele>312.0</ele><time>2026-03-27T13:31:20.985Z</time></trkpt><trkpt lat="46.0793667" lon="12.5653317"><ele>312.0</ele><time>2026-03-27T13:31:21.983Z</time></trkpt><trkpt lat="46.07941" lon="12.5652533"><ele>312.0</ele><time>2026-03-27T13:31:22.982Z</time></trkpt><trkpt lat="46.0794983" lon="12.5651483"><ele>311.0</ele><time>2026-03-27T13:31:24.983Z</time></trkpt><trkpt lat="46.079585" lon="12.5650383"><ele>310.0</ele><time>2026-03-27T13:31:26.983Z</time></trkpt><trkpt lat="46.0796717" lon="12.5649067"><ele>309.0</ele><time>2026-03-27T13:31:28.984Z</time></trkpt><trkpt lat="46.07972" lon="12.5648383"><ele>308.0</ele><time>2026-03-27T13:31:29.986Z</time></trkpt><trkpt lat="46.079765" lon="12.5647633"><ele>307.0</ele><time>2026-03-27T13:31:30.983Z</time></trkpt><trkpt lat="46.0798" lon="12.5646767"><ele>306.0</ele><time>2026-03-27T13:31:31.984Z</time></trkpt><trkpt lat="46.0798283" lon="12.564565"><ele>304.8333333333333</ele><time>2026-03-27T13:31:32.985Z</time></trkpt><trkpt lat="46.079845" lon="12.5644667"><ele>303.6666666666667</ele><time>2026-03-27T13:31:33.983Z</time></trkpt><trkpt lat="46.0798533" lon="12.5643667"><ele>302.5</ele><time>2026-03-27T13:31:34.983Z</time></trkpt><trkpt lat="46.079865" lon="12.5642717"><ele>301.33333333333337</ele><time>2026-03-27T13:31:35.984Z</time></trkpt><trkpt lat="46.0798833" lon="12.5641817"><ele>300.1666666666667</ele><time>2026-03-27T13:31:36.983Z</time></trkpt><trkpt lat="46.0798983" lon="12.5640917"><ele>299.0</ele><time>2026-03-27T13:31:37.985Z</time></trkpt><trkpt lat="46.07991" lon="12.563915"><ele>299.0</ele><time>2026-03-27T13:31:39.983Z</time></trkpt><trkpt lat="46.0799" lon="12.5638067"><ele>299.0</ele><time>2026-03-27T13:31:40.983Z</time></trkpt><trkpt lat="46.079875" lon="12.5637083"><ele>299.0</ele><time>2026-03-27T13:31:41.984Z</time></trkpt><trkpt lat="46.0798183" lon="12.563575"><ele>299.0</ele><time>2026-03-27T13:31:43.983Z</time></trkpt><trkpt lat="46.0797217" lon="12.5635"><ele>299.0</ele><time>2026-03-27T13:31:46.984Z</time></trkpt><trkpt lat="46.0796467" lon="12.5634683"><ele>299.0</ele><time>2026-03-27T13:31:47.982Z</time></trkpt><trkpt lat="46.0795783" lon="12.5634383"><ele>300.33333333333337</ele><time>2026-03-27T13:31:48.983Z</time></trkpt><trkpt lat="46.0795067" lon="12.5633883"><ele>301.6666666666667</ele><time>2026-03-27T13:31:49.983Z</time></trkpt><trkpt lat="46.0794433" lon="12.563335"><ele>303.0</ele><time>2026-03-27T13:31:50.985Z</time></trkpt><trkpt lat="46.0793817" lon="12.5632783"><ele>304.3333333333333</ele><time>2026-03-27T13:31:51.983Z</time></trkpt><trkpt lat="46.0793133" lon="12.5631733"><ele>305.66666666666663</ele><time>2026-03-27T13:31:53.985Z</time></trkpt><trkpt lat="46.0792767" lon="12.5630883"><ele>307.0</ele><time>2026-03-27T13:31:55.985Z</time></trkpt><trkpt lat="46.0792467" lon="12.5629933"><ele>307.0</ele><time>2026-03-27T13:31:57.982Z</time></trkpt><trkpt lat="46.0792017" lon="12.5628983"><ele>307.0</ele><time>2026-03-27T13:31:59.984Z</time></trkpt><trkpt lat="46.07916" lon="12.5628033"><ele>307.0</ele><time>2026-03-27T13:32:01.986Z</time></trkpt><trkpt lat="46.0791333" lon="12.5626683"><ele>307.0</ele><time>2026-03-27T13:32:03.982Z</time></trkpt><trkpt lat="46.0791183" lon="12.5625417"><ele>307.0</ele><time>2026-03-27T13:32:05.983Z</time></trkpt><trkpt lat="46.0790783" lon="12.5624217"><ele>307.0</ele><time>2026-03-27T13:32:07.983Z</time></trkpt><trkpt lat="46.0789817" lon="12.5623767"><ele>309.4285714285714</ele><time>2026-03-27T13:32:09.984Z</time></trkpt><trkpt lat="46.0789067" lon="12.5623817"><ele>311.85714285714283</ele><time>2026-03-27T13:32:10.983Z</time></trkpt><trkpt lat="46.0788233" lon="12.5623917"><ele>314.2857142857143</ele><time>2026-03-27T13:32:11.985Z</time></trkpt><trkpt lat="46.078755" lon="12.562405"><ele>316.71428571428567</ele><time>2026-03-27T13:32:12.983Z</time></trkpt><trkpt lat="46.07868" lon="12.5624233"><ele>319.1428571428571</ele><time>2026-03-27T13:32:13.985Z</time></trkpt><trkpt lat="46.0786117" lon="12.5624483"><ele>321.57142857142856</ele><time>2026-03-27T13:32:14.985Z</time></trkpt><trkpt lat="46.0785517" lon="12.5624817"><ele>324.0</ele><time>2026-03-27T13:32:15.983Z</time></trkpt><trkpt lat="46.0784267" lon="12.56252"><ele>324.0</ele><time>2026-03-27T13:32:17.983Z</time></trkpt><trkpt lat="46.0783567" lon="12.56254"><ele>324.0</ele><time>2026-03-27T13:32:18.983Z</time></trkpt><trkpt lat="46.0782817" lon="12.5625617"><ele>324.0</ele><time>2026-03-27T13:32:19.984Z</time></trkpt><trkpt lat="46.07821" lon="12.5625967"><ele>324.0</ele><time>2026-03-27T13:32:20.984Z</time></trkpt><trkpt lat="46.0781433" lon="12.5626317"><ele>324.0</ele><time>2026-03-27T13:32:21.984Z</time></trkpt><trkpt lat="46.0780267" lon="12.5626733"><ele>324.0</ele><time>2026-03-27T13:32:23.983Z</time></trkpt><trkpt lat="46.0779083" lon="12.562735"><ele>323.3333333333333</ele><time>2026-03-27T13:32:25.984Z</time></trkpt><trkpt lat="46.077845" lon="12.5627717"><ele>322.6666666666667</ele><time>2026-03-27T13:32:26.983Z</time></trkpt><trkpt lat="46.0777217" lon="12.5627933"><ele>322.0</ele><time>2026-03-27T13:32:28.983Z</time></trkpt><trkpt lat="46.077645" lon="12.5628183"><ele>321.33333333333337</ele><time>2026-03-27T13:32:29.984Z</time></trkpt><trkpt lat="46.0775767" lon="12.562845"><ele>320.6666666666667</ele><time>2026-03-27T13:32:30.983Z</time></trkpt><trkpt lat="46.0775167" lon="12.5628917"><ele>320.0</ele><time>2026-03-27T13:32:31.984Z</time></trkpt><trkpt lat="46.0774067" lon="12.5629783"><ele>320.0</ele><time>2026-03-27T13:32:33.984Z</time></trkpt><trkpt lat="46.0773483" lon="12.5630267"><ele>320.0</ele><time>2026-03-27T13:32:34.983Z</time></trkpt><trkpt lat="46.0772417" lon="12.5630967"><ele>320.0</ele><time>2026-03-27T13:32:36.983Z</time></trkpt><trkpt lat="46.07715" lon="12.56313"><ele>320.0</ele><time>2026-03-27T13:32:38.986Z</time></trkpt><trkpt lat="46.0770833" lon="12.56316"><ele>320.0</ele><time>2026-03-27T13:32:40.983Z</time></trkpt><trkpt lat="46.0770117" lon="12.5631483"><ele>320.0</ele><time>2026-03-27T13:32:42.984Z</time></trkpt><trkpt lat="46.0769133" lon="12.5631317"><ele>320.0</ele><time>2026-03-27T13:32:44.984Z</time></trkpt><trkpt lat="46.0768167" lon="12.563095"><ele>320.0</ele><time>2026-03-27T13:32:46.983Z</time></trkpt><trkpt lat="46.07674" lon="12.56303"><ele>320.0</ele><time>2026-03-27T13:32:48.983Z</time></trkpt><trkpt lat="46.07668" lon="12.562955"><ele>320.0</ele><time>2026-03-27T13:32:51.983Z</time></trkpt><trkpt lat="46.07659" lon="12.5629567"><ele>320.0</ele><time>2026-03-27T13:33:16.983Z</time></trkpt><trkpt lat="46.0765217" lon="12.5629483"><ele>320.0</ele><time>2026-03-27T13:33:17.983Z</time></trkpt><trkpt lat="46.0764367" lon="12.5629433"><ele>317.8</ele><time>2026-03-27T13:33:18.983Z</time></trkpt><trkpt lat="46.0763433" lon="12.5629283"><ele>315.6</ele><time>2026-03-27T13:33:19.983Z</time></trkpt><trkpt lat="46.0762533" lon="12.5629233"><ele>313.4</ele><time>2026-03-27T13:33:20.984Z</time></trkpt><trkpt lat="46.0761667" lon="12.5629067"><ele>311.2</ele><time>2026-03-27T13:33:21.983Z</time></trkpt><trkpt lat="46.0760733" lon="12.5628867"><ele>309.0</ele><time>2026-03-27T13:33:22.983Z</time></trkpt><trkpt lat="46.0759767" lon="12.56287"><ele>309.0</ele><time>2026-03-27T13:33:23.983Z</time></trkpt><trkpt lat="46.07589" lon="12.562865"><ele>309.0</ele><time>2026-03-27T13:33:24.983Z</time></trkpt><trkpt lat="46.075805" lon="12.5628717"><ele>309.0</ele><time>2026-03-27T13:33:25.983Z</time></trkpt><trkpt lat="46.0757233" lon="12.5628617"><ele>309.0</ele><time>2026-03-27T13:33:26.984Z</time></trkpt><trkpt lat="46.0756333" lon="12.5628533"><ele>309.0</ele><time>2026-03-27T13:33:27.983Z</time></trkpt><trkpt lat="46.0755483" lon="12.56283"><ele>309.0</ele><time>2026-03-27T13:33:28.984Z</time></trkpt><trkpt lat="46.07547" lon="12.5627983"><ele>309.1666666666667</ele><time>2026-03-27T13:33:29.984Z</time></trkpt><trkpt lat="46.0753867" lon="12.562775"><ele>309.3333333333333</ele><time>2026-03-27T13:33:30.986Z</time></trkpt><trkpt lat="46.0753017" lon="12.5627483"><ele>309.5</ele><time>2026-03-27T13:33:31.984Z</time></trkpt><trkpt lat="46.0752083" lon="12.562745"><ele>309.66666666666663</ele><time>2026-03-27T13:33:32.985Z</time></trkpt><trkpt lat="46.0751217" lon="12.56274"><ele>309.8333333333333</ele><time>2026-03-27T13:33:33.984Z</time></trkpt><trkpt lat="46.07503" lon="12.5627333"><ele>310.0</ele><time>2026-03-27T13:33:34.984Z</time></trkpt><trkpt lat="46.07494" lon="12.5627117"><ele>307.66666666666663</ele><time>2026-03-27T13:33:35.984Z</time></trkpt><trkpt lat="46.0748533" lon="12.5626883"><ele>305.3333333333333</ele><time>2026-03-27T13:33:36.984Z</time></trkpt><trkpt lat="46.074775" lon="12.562665"><ele>303.0</ele><time>2026-03-27T13:33:37.985Z</time></trkpt><trkpt lat="46.0747033" lon="12.5626533"><ele>300.6666666666667</ele><time>2026-03-27T13:33:38.984Z</time></trkpt><trkpt lat="46.0746" lon="12.5626433"><ele>298.33333333333337</ele><time>2026-03-27T13:33:40.983Z</time></trkpt><trkpt lat="46.0745267" lon="12.5625533"><ele>296.0</ele><time>2026-03-27T13:33:42.983Z</time></trkpt><trkpt lat="46.0744717" lon="12.562425"><ele>296.0</ele><time>2026-03-27T13:33:44.984Z</time></trkpt><trkpt lat="46.0743817" lon="12.562405"><ele>296.0</ele><time>2026-03-27T13:33:46.983Z</time></trkpt><trkpt lat="46.0743133" lon="12.5625133"><ele>296.0</ele><time>2026-03-27T13:33:48.983Z</time></trkpt><trkpt lat="46.0742667" lon="12.56259"><ele>296.0</ele><time>2026-03-27T13:33:49.984Z</time></trkpt><trkpt lat="46.0742083" lon="12.5626683"><ele>296.0</ele><time>2026-03-27T13:33:50.983Z</time></trkpt><trkpt lat="46.07415" lon="12.5627183"><ele>296.0</ele><time>2026-03-27T13:33:51.983Z</time></trkpt><trkpt lat="46.074035" lon="12.562745"><ele>298.8</ele><time>2026-03-27T13:33:53.984Z</time></trkpt><trkpt lat="46.07395" lon="12.56266"><ele>301.6</ele><time>2026-03-27T13:33:55.983Z</time></trkpt><trkpt lat="46.07389" lon="12.5625183"><ele>304.4</ele><time>2026-03-27T13:33:57.983Z</time></trkpt><trkpt lat="46.0738433" lon="12.5624417"><ele>307.2</ele><time>2026-03-27T13:33:59.985Z</time></trkpt><trkpt lat="46.07374" lon="12.56246"><ele>310.0</ele><time>2026-03-27T13:34:02.985Z</time></trkpt><trkpt lat="46.073715" lon="12.5625517"><ele>310.0</ele><time>2026-03-27T13:34:03.984Z</time></trkpt><trkpt lat="46.0737083" lon="12.5626567"><ele>310.0</ele><time>2026-03-27T13:34:04.985Z</time></trkpt><trkpt lat="46.07371" lon="12.5627617"><ele>310.0</ele><time>2026-03-27T13:34:05.984Z</time></trkpt><trkpt lat="46.073715" lon="12.562905"><ele>310.0</ele><time>2026-03-27T13:34:07.982Z</time></trkpt><trkpt lat="46.0737433" lon="12.5630133"><ele>310.0</ele><time>2026-03-27T13:34:09.983Z</time></trkpt><trkpt lat="46.0737733" lon="12.5630983"><ele>310.0</ele><time>2026-03-27T13:34:12.984Z</time></trkpt><trkpt lat="46.073705" lon="12.56312"><ele>308.6</ele><time>2026-03-27T13:34:24.982Z</time></trkpt><trkpt lat="46.0736117" lon="12.5631083"><ele>307.2</ele><time>2026-03-27T13:34:26.985Z</time></trkpt><trkpt lat="46.0735333" lon="12.5630967"><ele>305.8</ele><time>2026-03-27T13:34:28.983Z</time></trkpt><trkpt lat="46.0734433" lon="12.5630933"><ele>304.4</ele><time>2026-03-27T13:34:30.983Z</time></trkpt><trkpt lat="46.0733317" lon="12.5631267"><ele>303.0</ele><time>2026-03-27T13:34:32.983Z</time></trkpt><trkpt lat="46.0732017" lon="12.5631683"><ele>303.0</ele><time>2026-03-27T13:34:34.984Z</time></trkpt><trkpt lat="46.0731267" lon="12.5631917"><ele>303.0</ele><time>2026-03-27T13:34:35.986Z</time></trkpt><trkpt lat="46.07302" lon="12.5631833"><ele>303.0</ele><time>2026-03-27T13:34:37.983Z</time></trkpt><trkpt lat="46.072955" lon="12.5630933"><ele>303.0</ele><time>2026-03-27T13:34:40.987Z</time></trkpt><trkpt lat="46.072965" lon="12.562925"><ele>303.0</ele><time>2026-03-27T13:34:42.984Z</time></trkpt><trkpt lat="46.07298" lon="12.5627533"><ele>306.2</ele><time>2026-03-27T13:34:44.983Z</time></trkpt><trkpt lat="46.07298" lon="12.56258"><ele>309.4</ele><time>2026-03-27T13:34:46.984Z</time></trkpt><trkpt lat="46.072995" lon="12.56241"><ele>312.59999999999997</ele><time>2026-03-27T13:34:48.983Z</time></trkpt><trkpt lat="46.0730283" lon="12.5622383"><ele>315.8</ele><time>2026-03-27T13:34:50.983Z</time></trkpt><trkpt lat="46.0730383" lon="12.5621433"><ele>319.0</ele><time>2026-03-27T13:34:51.984Z</time></trkpt><trkpt lat="46.0730367" lon="12.562045"><ele>321.0</ele><time>2026-03-27T13:34:52.983Z</time></trkpt><trkpt lat="46.0730167" lon="12.5619417"><ele>323.0</ele><time>2026-03-27T13:34:53.983Z</time></trkpt><trkpt lat="46.0729817" lon="12.5618367"><ele>325.0</ele><time>2026-03-27T13:34:54.985Z</time></trkpt><trkpt lat="46.0729483" lon="12.5617433"><ele>327.0</ele><time>2026-03-27T13:34:55.985Z</time></trkpt><trkpt lat="46.0729267" lon="12.5615967"><ele>329.0</ele><time>2026-03-27T13:34:57.984Z</time></trkpt><trkpt lat="46.0729183" lon="12.5614217"><ele>329.0</ele><time>2026-03-27T13:34:59.983Z</time></trkpt><trkpt lat="46.07295" lon="12.5613317"><ele>329.0</ele><time>2026-03-27T13:35:00.983Z</time></trkpt><trkpt lat="46.0729717" lon="12.5612367"><ele>329.0</ele><time>2026-03-27T13:35:01.983Z</time></trkpt><trkpt lat="46.07298" lon="12.56114"><ele>329.0</ele><time>2026-03-27T13:35:02.984Z</time></trkpt><trkpt lat="46.07298" lon="12.5610167"><ele>329.0</ele><time>2026-03-27T13:35:03.984Z</time></trkpt><trkpt lat="46.0729917" lon="12.560905"><ele>329.0</ele><time>2026-03-27T13:35:04.984Z</time></trkpt><trkpt lat="46.0730083" lon="12.560815"><ele>329.0</ele><time>2026-03-27T13:35:05.983Z</time></trkpt><trkpt lat="46.0730317" lon="12.5606417"><ele>330.6</ele><time>2026-03-27T13:35:07.984Z</time></trkpt><trkpt lat="46.0730383" lon="12.5605017"><ele>332.2</ele><time>2026-03-27T13:35:09.983Z</time></trkpt><trkpt lat="46.0730133" lon="12.560315"><ele>333.8</ele><time>2026-03-27T13:35:11.984Z</time></trkpt><trkpt lat="46.0729833" lon="12.5601617"><ele>335.40000000000003</ele><time>2026-03-27T13:35:12.983Z</time></trkpt><trkpt lat="46.0729567" lon="12.5600083"><ele>337.0</ele><time>2026-03-27T13:35:13.984Z</time></trkpt><trkpt lat="46.07293" lon="12.5598467"><ele>338.28571428571433</ele><time>2026-03-27T13:35:14.983Z</time></trkpt><trkpt lat="46.072915" lon="12.55974"><ele>339.57142857142856</ele><time>2026-03-27T13:35:15.983Z</time></trkpt><trkpt lat="46.0729217" lon="12.5596417"><ele>340.8571428571429</ele><time>2026-03-27T13:35:16.983Z</time></trkpt><trkpt lat="46.07293" lon="12.5595383"><ele>342.14285714285717</ele><time>2026-03-27T13:35:17.983Z</time></trkpt><trkpt lat="46.0729383" lon="12.5594467"><ele>343.42857142857144</ele><time>2026-03-27T13:35:18.986Z</time></trkpt><trkpt lat="46.0729733" lon="12.5593633"><ele>344.7142857142857</ele><time>2026-03-27T13:35:19.986Z</time></trkpt><trkpt lat="46.07301" lon="12.5592667"><ele>346.0</ele><time>2026-03-27T13:35:20.983Z</time></trkpt><trkpt lat="46.07305" lon="12.5591517"><ele>347.0</ele><time>2026-03-27T13:35:21.983Z</time></trkpt><trkpt lat="46.0730783" lon="12.5590483"><ele>348.0</ele><time>2026-03-27T13:35:22.983Z</time></trkpt><trkpt lat="46.0731017" lon="12.5589233"><ele>349.0</ele><time>2026-03-27T13:35:23.984Z</time></trkpt><trkpt lat="46.0731283" lon="12.5587983"><ele>350.0</ele><time>2026-03-27T13:35:24.983Z</time></trkpt><trkpt lat="46.0731483" lon="12.5586633"><ele>351.0</ele><time>2026-03-27T13:35:25.985Z</time></trkpt><trkpt lat="46.0731767" lon="12.5585433"><ele>352.0</ele><time>2026-03-27T13:35:26.985Z</time></trkpt><trkpt lat="46.0732083" lon="12.5584217"><ele>352.5</ele><time>2026-03-27T13:35:27.982Z</time></trkpt><trkpt lat="46.0732333" lon="12.5582933"><ele>353.0</ele><time>2026-03-27T13:35:28.983Z</time></trkpt><trkpt lat="46.07325" lon="12.55817"><ele>353.5</ele><time>2026-03-27T13:35:29.984Z</time></trkpt><trkpt lat="46.073265" lon="12.55806"><ele>354.0</ele><time>2026-03-27T13:35:30.983Z</time></trkpt><trkpt lat="46.07329" lon="12.557975"><ele>354.5</ele><time>2026-03-27T13:35:31.983Z</time></trkpt><trkpt lat="46.07333" lon="12.5578733"><ele>355.0</ele><time>2026-03-27T13:35:32.984Z</time></trkpt><trkpt lat="46.0733667" lon="12.557725"><ele>356.16666666666663</ele><time>2026-03-27T13:35:34.983Z</time></trkpt><trkpt lat="46.07342" lon="12.5575817"><ele>357.3333333333333</ele><time>2026-03-27T13:35:36.983Z</time></trkpt><trkpt lat="46.073425" lon="12.5574883"><ele>358.5</ele><time>2026-03-27T13:35:37.983Z</time></trkpt><trkpt lat="46.0734267" lon="12.5573967"><ele>359.6666666666667</ele><time>2026-03-27T13:35:38.984Z</time></trkpt><trkpt lat="46.0734367" lon="12.5572367"><ele>360.83333333333337</ele><time>2026-03-27T13:35:39.984Z</time></trkpt><trkpt lat="46.0734583" lon="12.5571333"><ele>362.0</ele><time>2026-03-27T13:35:40.983Z</time></trkpt><trkpt lat="46.0734983" lon="12.55702"><ele>363.6666666666667</ele><time>2026-03-27T13:35:42.984Z</time></trkpt><trkpt lat="46.0735517" lon="12.5569333"><ele>365.33333333333337</ele><time>2026-03-27T13:35:44.985Z</time></trkpt><trkpt lat="46.0736067" lon="12.5568283"><ele>367.0</ele><time>2026-03-27T13:35:46.983Z</time></trkpt><trkpt lat="46.0736467" lon="12.5567317"><ele>368.6666666666667</ele><time>2026-03-27T13:35:48.983Z</time></trkpt><trkpt lat="46.0736517" lon="12.5566383"><ele>370.3333333333333</ele><time>2026-03-27T13:35:50.984Z</time></trkpt><trkpt lat="46.0736033" lon="12.5565033"><ele>372.0</ele><time>2026-03-27T13:35:52.984Z</time></trkpt><trkpt lat="46.0735617" lon="12.5564067"><ele>372.0</ele><time>2026-03-27T13:35:53.983Z</time></trkpt><trkpt lat="46.0735317" lon="12.5562933"><ele>372.0</ele><time>2026-03-27T13:35:55.983Z</time></trkpt><trkpt lat="46.07352" lon="12.5561317"><ele>372.0</ele><time>2026-03-27T13:35:57.984Z</time></trkpt><trkpt lat="46.07354" lon="12.556025"><ele>372.0</ele><time>2026-03-27T13:35:59.984Z</time></trkpt><trkpt lat="46.0735817" lon="12.5559467"><ele>372.0</ele><time>2026-03-27T13:36:01.983Z</time></trkpt><trkpt lat="46.0736267" lon="12.55582"><ele>372.0</ele><time>2026-03-27T13:36:03.983Z</time></trkpt><trkpt lat="46.0736833" lon="12.5557183"><ele>374.6</ele><time>2026-03-27T13:36:05.983Z</time></trkpt><trkpt lat="46.07374" lon="12.55561"><ele>377.20000000000005</ele><time>2026-03-27T13:36:07.985Z</time></trkpt><trkpt lat="46.0737833" lon="12.5554533"><ele>379.8</ele><time>2026-03-27T13:36:09.983Z</time></trkpt><trkpt lat="46.0738233" lon="12.55527"><ele>382.4</ele><time>2026-03-27T13:36:11.984Z</time></trkpt><trkpt lat="46.0737883" lon="12.5551383"><ele>385.0</ele><time>2026-03-27T13:36:13.984Z</time></trkpt><trkpt lat="46.0737483" lon="12.55502"><ele>386.83333333333337</ele><time>2026-03-27T13:36:15.984Z</time></trkpt><trkpt lat="46.0736967" lon="12.5549333"><ele>388.6666666666667</ele><time>2026-03-27T13:36:17.983Z</time></trkpt><trkpt lat="46.0736267" lon="12.5548783"><ele>390.5</ele><time>2026-03-27T13:36:19.987Z</time></trkpt><trkpt lat="46.073565" lon="12.5548333"><ele>392.33333333333337</ele><time>2026-03-27T13:36:20.983Z</time></trkpt><trkpt lat="46.0735" lon="12.5548283"><ele>394.1666666666667</ele><time>2026-03-27T13:36:21.984Z</time></trkpt><trkpt lat="46.0734317" lon="12.5547817"><ele>396.0</ele><time>2026-03-27T13:36:22.983Z</time></trkpt><trkpt lat="46.0733467" lon="12.5546667"><ele>398.0</ele><time>2026-03-27T13:36:24.983Z</time></trkpt><trkpt lat="46.0732783" lon="12.5545333"><ele>400.0</ele><time>2026-03-27T13:36:26.986Z</time></trkpt><trkpt lat="46.07322" lon="12.5543883"><ele>402.0</ele><time>2026-03-27T13:36:28.983Z</time></trkpt><trkpt lat="46.0732183" lon="12.554215"><ele>404.0</ele><time>2026-03-27T13:36:30.983Z</time></trkpt><trkpt lat="46.07324" lon="12.554115"><ele>406.0</ele><time>2026-03-27T13:36:31.984Z</time></trkpt><trkpt lat="46.0732567" lon="12.55402"><ele>406.00000000000006</ele><time>2026-03-27T13:36:32.983Z</time></trkpt><trkpt lat="46.073285" lon="12.5539333"><ele>406.0</ele><time>2026-03-27T13:36:33.983Z</time></trkpt><trkpt lat="46.0733183" lon="12.55385"><ele>406.0</ele><time>2026-03-27T13:36:34.983Z</time></trkpt><trkpt lat="46.0733883" lon="12.5537033"><ele>406.0</ele><time>2026-03-27T13:36:36.984Z</time></trkpt><trkpt lat="46.0733883" lon="12.5535767"><ele>406.00000000000006</ele><time>2026-03-27T13:36:38.983Z</time></trkpt><trkpt lat="46.0733267" lon="12.553485"><ele>406.0</ele><time>2026-03-27T13:36:40.984Z</time></trkpt><trkpt lat="46.0732267" lon="12.5533817"><ele>408.6</ele><time>2026-03-27T13:36:42.984Z</time></trkpt><trkpt lat="46.0731783" lon="12.5533117"><ele>411.20000000000005</ele><time>2026-03-27T13:36:43.984Z</time></trkpt><trkpt lat="46.0731183" lon="12.55323"><ele>413.79999999999995</ele><time>2026-03-27T13:36:44.984Z</time></trkpt><trkpt lat="46.073065" lon="12.5531217"><ele>416.4</ele><time>2026-03-27T13:36:45.984Z</time></trkpt><trkpt lat="46.07301" lon="12.5529967"><ele>419.0</ele><time>2026-03-27T13:36:46.983Z</time></trkpt><trkpt lat="46.072975" lon="12.5528383"><ele>419.16666666666663</ele><time>2026-03-27T13:36:47.985Z</time></trkpt><trkpt lat="46.0729383" lon="12.5526917"><ele>419.3333333333333</ele><time>2026-03-27T13:36:48.984Z</time></trkpt><trkpt lat="46.0729067" lon="12.5525717"><ele>419.5</ele><time>2026-03-27T13:36:49.983Z</time></trkpt><trkpt lat="46.072885" lon="12.552465"><ele>419.66666666666663</ele><time>2026-03-27T13:36:50.987Z</time></trkpt><trkpt lat="46.0728683" lon="12.5523517"><ele>419.8333333333333</ele><time>2026-03-27T13:36:51.983Z</time></trkpt><trkpt lat="46.0728567" lon="12.5522217"><ele>420.0</ele><time>2026-03-27T13:36:52.984Z</time></trkpt><trkpt lat="46.0728367" lon="12.5520683"><ele>419.5</ele><time>2026-03-27T13:36:53.984Z</time></trkpt><trkpt lat="46.0728133" lon="12.5519233"><ele>419.0</ele><time>2026-03-27T13:36:54.983Z</time></trkpt><trkpt lat="46.07278" lon="12.551795"><ele>418.5</ele><time>2026-03-27T13:36:55.984Z</time></trkpt><trkpt lat="46.072745" lon="12.5516867"><ele>418.0</ele><time>2026-03-27T13:36:56.985Z</time></trkpt><trkpt lat="46.0727083" lon="12.5515833"><ele>417.5</ele><time>2026-03-27T13:36:57.983Z</time></trkpt><trkpt lat="46.072675" lon="12.5514717"><ele>417.0</ele><time>2026-03-27T13:36:58.983Z</time></trkpt><trkpt lat="46.0726417" lon="12.551375"><ele>417.0</ele><time>2026-03-27T13:36:59.983Z</time></trkpt><trkpt lat="46.0726017" lon="12.5512117"><ele>417.0</ele><time>2026-03-27T13:37:01.985Z</time></trkpt><trkpt lat="46.0725733" lon="12.5510567"><ele>417.0</ele><time>2026-03-27T13:37:03.983Z</time></trkpt><trkpt lat="46.0725533" lon="12.55091"><ele>417.0</ele><time>2026-03-27T13:37:05.983Z</time></trkpt><trkpt lat="46.0725183" lon="12.5507967"><ele>417.0</ele><time>2026-03-27T13:37:07.983Z</time></trkpt><trkpt lat="46.0725167" lon="12.5506433"><ele>417.20000000000005</ele><time>2026-03-27T13:38:12.984Z</time></trkpt><trkpt lat="46.072575" lon="12.55054"><ele>417.4</ele><time>2026-03-27T13:38:15.983Z</time></trkpt><trkpt lat="46.0726217" lon="12.550455"><ele>417.6</ele><time>2026-03-27T13:38:17.983Z</time></trkpt><trkpt lat="46.072705" lon="12.550315"><ele>417.79999999999995</ele><time>2026-03-27T13:38:19.984Z</time></trkpt><trkpt lat="46.072775" lon="12.5502133"><ele>418.0</ele><time>2026-03-27T13:38:20.987Z</time></trkpt><trkpt lat="46.0728567" lon="12.5501167"><ele>418.75</ele><time>2026-03-27T13:38:21.983Z</time></trkpt><trkpt lat="46.0729517" lon="12.5500067"><ele>419.5</ele><time>2026-03-27T13:38:22.983Z</time></trkpt><trkpt lat="46.0730533" lon="12.54988"><ele>420.25</ele><time>2026-03-27T13:38:23.986Z</time></trkpt><trkpt lat="46.07316" lon="12.549745"><ele>421.0</ele><time>2026-03-27T13:38:24.985Z</time></trkpt><trkpt lat="46.0732733" lon="12.5496017"><ele>423.0</ele><time>2026-03-27T13:38:25.984Z</time></trkpt><trkpt lat="46.073395" lon="12.5494517"><ele>425.0</ele><time>2026-03-27T13:38:26.984Z</time></trkpt><trkpt lat="46.0735283" lon="12.5493017"><ele>427.0</ele><time>2026-03-27T13:38:27.983Z</time></trkpt><trkpt lat="46.0736717" lon="12.5491567"><ele>427.0</ele><time>2026-03-27T13:38:28.984Z</time></trkpt><trkpt lat="46.073815" lon="12.54899"><ele>427.0</ele><time>2026-03-27T13:38:29.983Z</time></trkpt><trkpt lat="46.0739433" lon="12.5487917"><ele>427.0</ele><time>2026-03-27T13:38:30.983Z</time></trkpt><trkpt lat="46.0740517" lon="12.54855"><ele>432.0</ele><time>2026-03-27T13:38:31.984Z</time></trkpt><trkpt lat="46.0741617" lon="12.5483"><ele>437.0</ele><time>2026-03-27T13:38:32.985Z</time></trkpt><trkpt lat="46.0742933" lon="12.5480783"><ele>442.0</ele><time>2026-03-27T13:38:33.983Z</time></trkpt><trkpt lat="46.0744217" lon="12.5478933"><ele>443.33333333333337</ele><time>2026-03-27T13:38:34.985Z</time></trkpt><trkpt lat="46.0745233" lon="12.5477217"><ele>444.66666666666663</ele><time>2026-03-27T13:38:35.983Z</time></trkpt><trkpt lat="46.0745867" lon="12.5475333"><ele>446.0</ele><time>2026-03-27T13:38:36.983Z</time></trkpt><trkpt lat="46.0745933" lon="12.5472983"><ele>446.0</ele><time>2026-03-27T13:38:37.984Z</time></trkpt><trkpt lat="46.07458" lon="12.5470467"><ele>446.0</ele><time>2026-03-27T13:38:38.983Z</time></trkpt><trkpt lat="46.07459" lon="12.5467883"><ele>446.0</ele><time>2026-03-27T13:38:39.984Z</time></trkpt><trkpt lat="46.0746133" lon="12.5465167"><ele>447.0</ele><time>2026-03-27T13:38:40.983Z</time></trkpt><trkpt lat="46.0746117" lon="12.5462417"><ele>448.0</ele><time>2026-03-27T13:38:41.983Z</time></trkpt><trkpt lat="46.07457" lon="12.5459533"><ele>449.0</ele><time>2026-03-27T13:38:42.984Z</time></trkpt><trkpt lat="46.0745117" lon="12.545675"><ele>451.3333333333333</ele><time>2026-03-27T13:38:43.983Z</time></trkpt><trkpt lat="46.0744633" lon="12.5454067"><ele>453.66666666666663</ele><time>2026-03-27T13:38:44.983Z</time></trkpt><trkpt lat="46.0744267" lon="12.5451367"><ele>456.0</ele><time>2026-03-27T13:38:45.983Z</time></trkpt><trkpt lat="46.0743933" lon="12.5448983"><ele>457.4</ele><time>2026-03-27T13:38:46.983Z</time></trkpt><trkpt lat="46.0743617" lon="12.5447067"><ele>458.8</ele><time>2026-03-27T13:38:47.983Z</time></trkpt><trkpt lat="46.0743817" lon="12.5445733"><ele>460.19999999999993</ele><time>2026-03-27T13:38:48.986Z</time></trkpt><trkpt lat="46.0744383" lon="12.5444983"><ele>461.59999999999997</ele><time>2026-03-27T13:38:49.983Z</time></trkpt><trkpt lat="46.07452" lon="12.54449"><ele>463.0</ele><time>2026-03-27T13:38:50.983Z</time></trkpt><trkpt lat="46.074585" lon="12.5446567"><ele>463.0</ele><time>2026-03-27T13:38:51.983Z</time></trkpt><trkpt lat="46.0746317" lon="12.5448317"><ele>463.0</ele><time>2026-03-27T13:38:52.983Z</time></trkpt><trkpt lat="46.074685" lon="12.5450233"><ele>463.0</ele><time>2026-03-27T13:38:53.985Z</time></trkpt><trkpt lat="46.0747533" lon="12.54522"><ele>463.0</ele><time>2026-03-27T13:38:54.984Z</time></trkpt><trkpt lat="46.0748417" lon="12.5454283"><ele>460.6666666666667</ele><time>2026-03-27T13:38:55.983Z</time></trkpt><trkpt lat="46.0749317" lon="12.5456467"><ele>458.33333333333337</ele><time>2026-03-27T13:38:56.983Z</time></trkpt><trkpt lat="46.0750217" lon="12.5458483"><ele>456.0</ele><time>2026-03-27T13:38:57.983Z</time></trkpt><trkpt lat="46.0751267" lon="12.5460017"><ele>461.66666666666663</ele><time>2026-03-27T13:38:58.982Z</time></trkpt><trkpt lat="46.075265" lon="12.5461133"><ele>467.3333333333333</ele><time>2026-03-27T13:38:59.983Z</time></trkpt><trkpt lat="46.0754333" lon="12.5461817"><ele>473.0</ele><time>2026-03-27T13:39:00.983Z</time></trkpt><trkpt lat="46.0756267" lon="12.5462233"><ele>480.0</ele><time>2026-03-27T13:39:01.983Z</time></trkpt><trkpt lat="46.07583" lon="12.5462467"><ele>487.0</ele><time>2026-03-27T13:39:02.983Z</time></trkpt><trkpt lat="46.0760317" lon="12.54626"><ele>494.0</ele><time>2026-03-27T13:39:03.984Z</time></trkpt><trkpt lat="46.07621" lon="12.546255"><ele>494.0</ele><time>2026-03-27T13:39:04.985Z</time></trkpt><trkpt lat="46.0763367" lon="12.54629"><ele>494.0</ele><time>2026-03-27T13:39:05.982Z</time></trkpt><trkpt lat="46.0764183" lon="12.5463933"><ele>494.0</ele><time>2026-03-27T13:39:06.982Z</time></trkpt><trkpt lat="46.0764583" lon="12.5465617"><ele>494.0</ele><time>2026-03-27T13:39:07.984Z</time></trkpt><trkpt lat="46.0764667" lon="12.5467767"><ele>494.0</ele><time>2026-03-27T13:39:08.982Z</time></trkpt><trkpt lat="46.0764817" lon="12.5470133"><ele>494.0</ele><time>2026-03-27T13:39:09.983Z</time></trkpt><trkpt lat="46.076515" lon="12.5472667"><ele>494.0</ele><time>2026-03-27T13:39:10.982Z</time></trkpt><trkpt lat="46.0765683" lon="12.5475167"><ele>498.3333333333333</ele><time>2026-03-27T13:39:11.982Z</time></trkpt><trkpt lat="46.076645" lon="12.5477717"><ele>502.66666666666663</ele><time>2026-03-27T13:39:12.982Z</time></trkpt><trkpt lat="46.0767617" lon="12.548005"><ele>507.0</ele><time>2026-03-27T13:39:13.984Z</time></trkpt><trkpt lat="46.0768933" lon="12.5482133"><ele>507.0</ele><time>2026-03-27T13:39:14.982Z</time></trkpt><trkpt lat="46.0770033" lon="12.5484117"><ele>507.0</ele><time>2026-03-27T13:39:15.982Z</time></trkpt><trkpt lat="46.0770717" lon="12.5486233"><ele>507.0</ele><time>2026-03-27T13:39:16.982Z</time></trkpt><trkpt lat="46.0771067" lon="12.54882"><ele>506.0</ele><time>2026-03-27T13:39:17.982Z</time></trkpt><trkpt lat="46.07714" lon="12.5489567"><ele>505.00000000000006</ele><time>2026-03-27T13:39:18.984Z</time></trkpt><trkpt lat="46.0771983" lon="12.5490433"><ele>504.00000000000006</ele><time>2026-03-27T13:39:19.983Z</time></trkpt><trkpt lat="46.0772667" lon="12.5490717"><ele>503.0</ele><time>2026-03-27T13:39:20.983Z</time></trkpt><trkpt lat="46.0773533" lon="12.5489783"><ele>502.0</ele><time>2026-03-27T13:39:21.981Z</time></trkpt><trkpt lat="46.0774167" lon="12.5488217"><ele>510.33333333333337</ele><time>2026-03-27T13:39:22.982Z</time></trkpt><trkpt lat="46.077445" lon="12.5486017"><ele>518.6666666666666</ele><time>2026-03-27T13:39:23.982Z</time></trkpt><trkpt lat="46.0774517" lon="12.54835"><ele>527.0</ele><time>2026-03-27T13:39:24.984Z</time></trkpt><trkpt lat="46.0774583" lon="12.5480917"><ele>528.3333333333333</ele><time>2026-03-27T13:39:25.984Z</time></trkpt><trkpt lat="46.0774667" lon="12.5478233"><ele>529.6666666666666</ele><time>2026-03-27T13:39:26.984Z</time></trkpt><trkpt lat="46.0774983" lon="12.54755"><ele>531.0</ele><time>2026-03-27T13:39:27.982Z</time></trkpt><trkpt lat="46.077565" lon="12.5472733"><ele>531.3333333333334</ele><time>2026-03-27T13:39:28.981Z</time></trkpt><trkpt lat="46.0776483" lon="12.5469917"><ele>531.6666666666667</ele><time>2026-03-27T13:39:29.984Z</time></trkpt><trkpt lat="46.0777383" lon="12.5467117"><ele>532.0</ele><time>2026-03-27T13:39:30.983Z</time></trkpt><trkpt lat="46.0778233" lon="12.5464333"><ele>533.6666666666667</ele><time>2026-03-27T13:39:31.986Z</time></trkpt><trkpt lat="46.077885" lon="12.5461533"><ele>535.3333333333334</ele><time>2026-03-27T13:39:32.982Z</time></trkpt><trkpt lat="46.0779067" lon="12.5458817"><ele>537.0</ele><time>2026-03-27T13:39:33.982Z</time></trkpt><trkpt lat="46.07788" lon="12.54563"><ele>537.0</ele><time>2026-03-27T13:39:34.982Z</time></trkpt><trkpt lat="46.077805" lon="12.5453817"><ele>537.0</ele><time>2026-03-27T13:39:36.064Z</time></trkpt><trkpt lat="46.07772" lon="12.545145"><ele>537.0</ele><time>2026-03-27T13:39:36.981Z</time></trkpt><trkpt lat="46.0776533" lon="12.5448917"><ele>541.3333333333334</ele><time>2026-03-27T13:39:37.982Z</time></trkpt><trkpt lat="46.0776017" lon="12.5446183"><ele>545.6666666666667</ele><time>2026-03-27T13:39:38.983Z</time></trkpt><trkpt lat="46.0775717" lon="12.5443283"><ele>550.0</ele><time>2026-03-27T13:39:39.982Z</time></trkpt><trkpt lat="46.0775517" lon="12.5440433"><ele>551.8</ele><time>2026-03-27T13:39:40.984Z</time></trkpt><trkpt lat="46.0775467" lon="12.5438183"><ele>553.6</ele><time>2026-03-27T13:39:41.983Z</time></trkpt><trkpt lat="46.0775633" lon="12.54366"><ele>555.4</ele><time>2026-03-27T13:39:42.981Z</time></trkpt><trkpt lat="46.0776033" lon="12.5435483"><ele>557.2</ele><time>2026-03-27T13:39:43.981Z</time></trkpt><trkpt lat="46.077665" lon="12.5434717"><ele>559.0</ele><time>2026-03-27T13:39:44.984Z</time></trkpt><trkpt lat="46.0777617" lon="12.5435183"><ele>559.0</ele><time>2026-03-27T13:39:45.982Z</time></trkpt><trkpt lat="46.0778617" lon="12.543635"><ele>559.0</ele><time>2026-03-27T13:39:46.982Z</time></trkpt><trkpt lat="46.077955" lon="12.5437933"><ele>559.0</ele><time>2026-03-27T13:39:47.982Z</time></trkpt><trkpt lat="46.0780417" lon="12.5439833"><ele>559.0</ele><time>2026-03-27T13:39:48.982Z</time></trkpt><trkpt lat="46.0781317" lon="12.5441983"><ele>559.0</ele><time>2026-03-27T13:39:49.982Z</time></trkpt><trkpt lat="46.0782317" lon="12.544425"><ele>559.0</ele><time>2026-03-27T13:39:50.983Z</time></trkpt><trkpt lat="46.0783483" lon="12.54464"><ele>559.0</ele><time>2026-03-27T13:39:51.982Z</time></trkpt><trkpt lat="46.07848" lon="12.54485"><ele>560.6666666666667</ele><time>2026-03-27T13:39:52.982Z</time></trkpt><trkpt lat="46.0786233" lon="12.5450617"><ele>562.3333333333334</ele><time>2026-03-27T13:39:53.982Z</time></trkpt><trkpt lat="46.07877" lon="12.5452733"><ele>564.0</ele><time>2026-03-27T13:39:54.984Z</time></trkpt><trkpt lat="46.07892" lon="12.54549"><ele>564.0</ele><time>2026-03-27T13:39:55.983Z</time></trkpt><trkpt lat="46.079065" lon="12.5457217"><ele>564.0</ele><time>2026-03-27T13:39:56.983Z</time></trkpt><trkpt lat="46.0791983" lon="12.5459717"><ele>564.0</ele><time>2026-03-27T13:39:57.982Z</time></trkpt><trkpt lat="46.079325" lon="12.546235"><ele>575.5</ele><time>2026-03-27T13:39:58.983Z</time></trkpt><trkpt lat="46.0794533" lon="12.5465067"><ele>587.0</ele><time>2026-03-27T13:39:59.982Z</time></trkpt><trkpt lat="46.0795933" lon="12.5467683"><ele>587.0</ele><time>2026-03-27T13:40:00.982Z</time></trkpt><trkpt lat="46.0797483" lon="12.5470167"><ele>587.0</ele><time>2026-03-27T13:40:01.983Z</time></trkpt><trkpt lat="46.0798933" lon="12.5472683"><ele>593.3333333333333</ele><time>2026-03-27T13:40:02.983Z</time></trkpt><trkpt lat="46.0800083" lon="12.5475067"><ele>599.6666666666666</ele><time>2026-03-27T13:40:03.982Z</time></trkpt><trkpt lat="46.0800767" lon="12.547685"><ele>606.0</ele><time>2026-03-27T13:40:04.982Z</time></trkpt><trkpt lat="46.08014" lon="12.54781"><ele>606.0</ele><time>2026-03-27T13:40:05.984Z</time></trkpt><trkpt lat="46.080225" lon="12.5478733"><ele>606.0</ele><time>2026-03-27T13:40:06.984Z</time></trkpt><trkpt lat="46.0803217" lon="12.54788"><ele>606.0</ele><time>2026-03-27T13:40:07.983Z</time></trkpt><trkpt lat="46.0803833" lon="12.5478033"><ele>606.0</ele><time>2026-03-27T13:40:08.987Z</time></trkpt><trkpt lat="46.080405" lon="12.5476683"><ele>606.0</ele><time>2026-03-27T13:40:09.982Z</time></trkpt><trkpt lat="46.08034" lon="12.5474733"><ele>606.0</ele><time>2026-03-27T13:40:10.984Z</time></trkpt><trkpt lat="46.0802633" lon="12.54729"><ele>606.0</ele><time>2026-03-27T13:40:11.982Z</time></trkpt><trkpt lat="46.08021" lon="12.5470767"><ele>606.0</ele><time>2026-03-27T13:40:12.982Z</time></trkpt><trkpt lat="46.0802017" lon="12.54684"><ele>608.6666666666666</ele><time>2026-03-27T13:40:14.065Z</time></trkpt><trkpt lat="46.0802183" lon="12.5465967"><ele>611.3333333333333</ele><time>2026-03-27T13:40:14.983Z</time></trkpt><trkpt lat="46.0802467" lon="12.54635"><ele>614.0</ele><time>2026-03-27T13:40:15.989Z</time></trkpt><trkpt lat="46.0802717" lon="12.5460883"><ele>617.0</ele><time>2026-03-27T13:40:16.984Z</time></trkpt><trkpt lat="46.080285" lon="12.5458117"><ele>620.0</ele><time>2026-03-27T13:40:17.982Z</time></trkpt><trkpt lat="46.080285" lon="12.5455267"><ele>623.0</ele><time>2026-03-27T13:40:18.99Z</time></trkpt><trkpt lat="46.080255" lon="12.5452383"><ele>626.6666666666666</ele><time>2026-03-27T13:40:19.982Z</time></trkpt><trkpt lat="46.0801883" lon="12.5449517"><ele>630.3333333333334</ele><time>2026-03-27T13:40:20.985Z</time></trkpt><trkpt lat="46.0800967" lon="12.544665"><ele>634.0</ele><time>2026-03-27T13:40:21.982Z</time></trkpt><trkpt lat="46.080015" lon="12.544375"><ele>633.0</ele><time>2026-03-27T13:40:22.982Z</time></trkpt><trkpt lat="46.0799417" lon="12.5440833"><ele>632.0</ele><time>2026-03-27T13:40:23.982Z</time></trkpt><trkpt lat="46.07985" lon="12.5437933"><ele>631.0</ele><time>2026-03-27T13:40:24.982Z</time></trkpt><trkpt lat="46.07976" lon="12.5435017"><ele>631.0</ele><time>2026-03-27T13:40:25.983Z</time></trkpt><trkpt lat="46.07969" lon="12.5431933"><ele>631.0</ele><time>2026-03-27T13:40:26.983Z</time></trkpt><trkpt lat="46.0796117" lon="12.5428883"><ele>642.5</ele><time>2026-03-27T13:40:27.982Z</time></trkpt><trkpt lat="46.079525" lon="12.5425867"><ele>654.0</ele><time>2026-03-27T13:40:28.982Z</time></trkpt><trkpt lat="46.0794417" lon="12.542285"><ele>665.5</ele><time>2026-03-27T13:40:29.986Z</time></trkpt><trkpt lat="46.079345" lon="12.5419883"><ele>677.0</ele><time>2026-03-27T13:40:30.982Z</time></trkpt><trkpt lat="46.0792317" lon="12.5417033"><ele>677.0</ele><time>2026-03-27T13:40:31.983Z</time></trkpt><trkpt lat="46.07911" lon="12.5414233"><ele>677.0</ele><time>2026-03-27T13:40:32.982Z</time></trkpt><trkpt lat="46.0789883" lon="12.541145"><ele>675.5</ele><time>2026-03-27T13:40:33.983Z</time></trkpt><trkpt lat="46.0788683" lon="12.5408633"><ele>674.0</ele><time>2026-03-27T13:40:34.983Z</time></trkpt><trkpt lat="46.0787517" lon="12.5405817"><ele>684.0</ele><time>2026-03-27T13:40:35.983Z</time></trkpt><trkpt lat="46.078635" lon="12.540295"><ele>694.0</ele><time>2026-03-27T13:40:36.984Z</time></trkpt><trkpt lat="46.0785167" lon="12.5400133"><ele>694.0</ele><time>2026-03-27T13:40:37.985Z</time></trkpt><trkpt lat="46.0784133" lon="12.539745"><ele>694.0</ele><time>2026-03-27T13:40:38.983Z</time></trkpt><trkpt lat="46.0783233" lon="12.5395"><ele>694.0</ele><time>2026-03-27T13:40:39.984Z</time></trkpt><trkpt lat="46.0782133" lon="12.5392933"><ele>693.0</ele><time>2026-03-27T13:40:40.983Z</time></trkpt><trkpt lat="46.0780717" lon="12.5391317"><ele>692.0</ele><time>2026-03-27T13:40:41.982Z</time></trkpt><trkpt lat="46.077925" lon="12.5389967"><ele>691.0</ele><time>2026-03-27T13:40:42.984Z</time></trkpt><trkpt lat="46.07779" lon="12.5388433"><ele>695.0</ele><time>2026-03-27T13:40:43.982Z</time></trkpt><trkpt lat="46.0776733" lon="12.5386633"><ele>699.0</ele><time>2026-03-27T13:40:44.982Z</time></trkpt><trkpt lat="46.0775833" lon="12.5385033"><ele>703.0</ele><time>2026-03-27T13:40:45.982Z</time></trkpt><trkpt lat="46.0775083" lon="12.5384083"><ele>707.0</ele><time>2026-03-27T13:40:46.982Z</time></trkpt><trkpt lat="46.0775033" lon="12.53829"><ele>707.0</ele><time>2026-03-27T13:40:47.984Z</time></trkpt><trkpt lat="46.0775483" lon="12.5381917"><ele>707.0</ele><time>2026-03-27T13:40:48.984Z</time></trkpt><trkpt lat="46.0776533" lon="12.53819"><ele>707.0</ele><time>2026-03-27T13:40:49.982Z</time></trkpt><trkpt lat="46.07775" lon="12.5382817"><ele>707.0</ele><time>2026-03-27T13:40:50.988Z</time></trkpt><trkpt lat="46.0778517" lon="12.5384067"><ele>707.0</ele><time>2026-03-27T13:40:51.983Z</time></trkpt><trkpt lat="46.0779733" lon="12.5385267"><ele>707.0</ele><time>2026-03-27T13:40:52.982Z</time></trkpt><trkpt lat="46.0781283" lon="12.53859"><ele>707.0</ele><time>2026-03-27T13:40:53.986Z</time></trkpt><trkpt lat="46.07831" lon="12.538615"><ele>707.0</ele><time>2026-03-27T13:40:54.983Z</time></trkpt><trkpt lat="46.078495" lon="12.5386517"><ele>709.3333333333333</ele><time>2026-03-27T13:40:55.982Z</time></trkpt><trkpt lat="46.07867" lon="12.5387383"><ele>711.6666666666666</ele><time>2026-03-27T13:40:56.984Z</time></trkpt><trkpt lat="46.0788267" lon="12.5389017"><ele>714.0</ele><time>2026-03-27T13:40:57.983Z</time></trkpt><trkpt lat="46.07897" lon="12.5391083"><ele>716.0</ele><time>2026-03-27T13:40:58.984Z</time></trkpt><trkpt lat="46.07912" lon="12.5393233"><ele>718.0</ele><time>2026-03-27T13:40:59.983Z</time></trkpt><trkpt lat="46.0792917" lon="12.5395267"><ele>720.0</ele><time>2026-03-27T13:41:00.982Z</time></trkpt><trkpt lat="46.079465" lon="12.5397333"><ele>720.0</ele><time>2026-03-27T13:41:01.984Z</time></trkpt><trkpt lat="46.0796333" lon="12.5399417"><ele>720.0</ele><time>2026-03-27T13:41:02.983Z</time></trkpt><trkpt lat="46.079805" lon="12.5401583"><ele>726.0</ele><time>2026-03-27T13:41:03.982Z</time></trkpt><trkpt lat="46.0799817" lon="12.5403817"><ele>732.0</ele><time>2026-03-27T13:41:04.983Z</time></trkpt><trkpt lat="46.0801583" lon="12.5406133"><ele>732.0</ele><time>2026-03-27T13:41:05.982Z</time></trkpt><trkpt lat="46.08033" lon="12.5408583"><ele>732.0</ele><time>2026-03-27T13:41:06.983Z</time></trkpt><trkpt lat="46.0805033" lon="12.5411033"><ele>739.0</ele><time>2026-03-27T13:41:07.982Z</time></trkpt><trkpt lat="46.08069" lon="12.5413417"><ele>746.0</ele><time>2026-03-27T13:41:08.983Z</time></trkpt><trkpt lat="46.0808867" lon="12.54157"><ele>746.0</ele><time>2026-03-27T13:41:09.982Z</time></trkpt><trkpt lat="46.0810867" lon="12.541775"><ele>746.0</ele><time>2026-03-27T13:41:10.983Z</time></trkpt><trkpt lat="46.081295" lon="12.541955"><ele>752.0</ele><time>2026-03-27T13:41:11.983Z</time></trkpt><trkpt lat="46.0815" lon="12.5421117"><ele>758.0</ele><time>2026-03-27T13:41:12.982Z</time></trkpt><trkpt lat="46.0816933" lon="12.5422567"><ele>758.0</ele><time>2026-03-27T13:41:13.984Z</time></trkpt><trkpt lat="46.08187" lon="12.5423833"><ele>758.0</ele><time>2026-03-27T13:41:14.984Z</time></trkpt><trkpt lat="46.082015" lon="12.54251"><ele>758.0</ele><time>2026-03-27T13:41:15.983Z</time></trkpt><trkpt lat="46.0821033" lon="12.5426283"><ele>758.0</ele><time>2026-03-27T13:41:16.985Z</time></trkpt><trkpt lat="46.0821583" lon="12.54274"><ele>758.0</ele><time>2026-03-27T13:41:17.985Z</time></trkpt><trkpt lat="46.0822" lon="12.54285"><ele>758.0</ele><time>2026-03-27T13:41:18.984Z</time></trkpt><trkpt lat="46.08224" lon="12.5429517"><ele>758.0</ele><time>2026-03-27T13:41:19.982Z</time></trkpt><trkpt lat="46.08229" lon="12.5430217"><ele>758.0</ele><time>2026-03-27T13:41:20.982Z</time></trkpt><trkpt lat="46.082345" lon="12.5430667"><ele>758.0</ele><time>2026-03-27T13:41:21.983Z</time></trkpt><trkpt lat="46.08241" lon="12.5430833"><ele>758.5999999999999</ele><time>2026-03-27T13:41:22.982Z</time></trkpt><trkpt lat="46.0825267" lon="12.5431217"><ele>759.1999999999999</ele><time>2026-03-27T13:41:24.984Z</time></trkpt><trkpt lat="46.0826183" lon="12.5431383"><ele>759.8</ele><time>2026-03-27T13:41:26.984Z</time></trkpt><trkpt lat="46.0826883" lon="12.5431467"><ele>760.4</ele><time>2026-03-27T13:41:28.982Z</time></trkpt><trkpt lat="46.0827617" lon="12.5431267"><ele>761.0</ele><time>2026-03-27T13:41:30.985Z</time></trkpt><trkpt lat="46.0828667" lon="12.54311"><ele>761.0</ele><time>2026-03-27T13:41:32.983Z</time></trkpt><trkpt lat="46.0829333" lon="12.5431117"><ele>761.0</ele><time>2026-03-27T13:41:33.983Z</time></trkpt><trkpt lat="46.083005" lon="12.5430833"><ele>761.0</ele><time>2026-03-27T13:41:34.982Z</time></trkpt><trkpt lat="46.083095" lon="12.54304"><ele>761.0</ele><time>2026-03-27T13:41:35.982Z</time></trkpt><trkpt lat="46.083175" lon="12.543015"><ele>761.0</ele><time>2026-03-27T13:41:36.982Z</time></trkpt><trkpt lat="46.0832583" lon="12.5429967"><ele>761.0</ele><time>2026-03-27T13:41:37.982Z</time></trkpt><trkpt lat="46.083345" lon="12.542985"><ele>762.0</ele><time>2026-03-27T13:41:38.983Z</time></trkpt><trkpt lat="46.0834267" lon="12.542995"><ele>763.0</ele><time>2026-03-27T13:41:39.983Z</time></trkpt><trkpt lat="46.083505" lon="12.5430417"><ele>764.0</ele><time>2026-03-27T13:41:40.982Z</time></trkpt><trkpt lat="46.0835917" lon="12.54311"><ele>765.0</ele><time>2026-03-27T13:41:41.987Z</time></trkpt><trkpt lat="46.0836733" lon="12.5431767"><ele>766.0</ele><time>2026-03-27T13:41:42.983Z</time></trkpt><trkpt lat="46.0837483" lon="12.543235"><ele>767.0</ele><time>2026-03-27T13:41:43.988Z</time></trkpt><trkpt lat="46.0838233" lon="12.5432717"><ele>767.0</ele><time>2026-03-27T13:41:44.982Z</time></trkpt><trkpt lat="46.0838933" lon="12.5433"><ele>767.0</ele><time>2026-03-27T13:41:45.982Z</time></trkpt><trkpt lat="46.0839617" lon="12.54333"><ele>767.0</ele><time>2026-03-27T13:41:46.984Z</time></trkpt><trkpt lat="46.08402" lon="12.54337"><ele>767.0</ele><time>2026-03-27T13:41:47.989Z</time></trkpt><trkpt lat="46.0840767" lon="12.54345"><ele>767.0</ele><time>2026-03-27T13:41:49.984Z</time></trkpt><trkpt lat="46.08403" lon="12.5435433"><ele>767.0</ele><time>2026-03-27T13:41:52.984Z</time></trkpt><trkpt lat="46.0839033" lon="12.5435917"><ele>767.0</ele><time>2026-03-27T13:41:54.982Z</time></trkpt><trkpt lat="46.083815" lon="12.5435917"><ele>767.0</ele><time>2026-03-27T13:41:55.982Z</time></trkpt><trkpt lat="46.0837333" lon="12.5435883"><ele>767.0</ele><time>2026-03-27T13:41:56.983Z</time></trkpt><trkpt lat="46.08365" lon="12.54359"><ele>767.0</ele><time>2026-03-27T13:41:57.983Z</time></trkpt><trkpt lat="46.083575" lon="12.54359"><ele>767.0</ele><time>2026-03-27T13:41:58.983Z</time></trkpt><trkpt lat="46.0834917" lon="12.54357"><ele>767.0</ele><time>2026-03-27T13:41:59.983Z</time></trkpt><trkpt lat="46.08342" lon="12.543555"><ele>767.0</ele><time>2026-03-27T13:42:00.982Z</time></trkpt><trkpt lat="46.08334" lon="12.5435533"><ele>767.0</ele><time>2026-03-27T13:42:01.982Z</time></trkpt><trkpt lat="46.0832567" lon="12.5435667"><ele>767.0</ele><time>2026-03-27T13:42:02.984Z</time></trkpt><trkpt lat="46.08319" lon="12.54359"><ele>767.0</ele><time>2026-03-27T13:42:03.982Z</time></trkpt><trkpt lat="46.0831267" lon="12.543625"><ele>767.0</ele><time>2026-03-27T13:42:04.982Z</time></trkpt><trkpt lat="46.08308" lon="12.5437867"><ele>767.0</ele><time>2026-03-27T13:42:06.983Z</time></trkpt><trkpt lat="46.0830917" lon="12.5439083"><ele>760.3333333333333</ele><time>2026-03-27T13:42:07.985Z</time></trkpt><trkpt lat="46.0831" lon="12.5440083"><ele>753.6666666666666</ele><time>2026-03-27T13:42:08.984Z</time></trkpt><trkpt lat="46.0831417" lon="12.5441217"><ele>747.0</ele><time>2026-03-27T13:42:09.982Z</time></trkpt><trkpt lat="46.0831683" lon="12.5442333"><ele>740.3333333333334</ele><time>2026-03-27T13:42:10.984Z</time></trkpt><trkpt lat="46.0831933" lon="12.5443517"><ele>733.6666666666667</ele><time>2026-03-27T13:42:11.983Z</time></trkpt><trkpt lat="46.0831933" lon="12.5444817"><ele>727.0</ele><time>2026-03-27T13:42:12.984Z</time></trkpt><trkpt lat="46.0831967" lon="12.544635"><ele>722.2</ele><time>2026-03-27T13:42:13.984Z</time></trkpt><trkpt lat="46.083195" lon="12.5447667"><ele>717.4000000000001</ele><time>2026-03-27T13:42:14.983Z</time></trkpt><trkpt lat="46.083205" lon="12.5449083"><ele>712.5999999999999</ele><time>2026-03-27T13:42:15.982Z</time></trkpt><trkpt lat="46.0832267" lon="12.5450467"><ele>707.8</ele><time>2026-03-27T13:42:16.983Z</time></trkpt><trkpt lat="46.08326" lon="12.5451717"><ele>703.0</ele><time>2026-03-27T13:42:17.982Z</time></trkpt><trkpt lat="46.0833133" lon="12.5452817"><ele>710.4</ele><time>2026-03-27T13:42:18.983Z</time></trkpt><trkpt lat="46.083375" lon="12.5453967"><ele>717.8</ele><time>2026-03-27T13:42:20.07Z</time></trkpt><trkpt lat="46.08344" lon="12.5454967"><ele>725.2</ele><time>2026-03-27T13:42:20.984Z</time></trkpt><trkpt lat="46.0834967" lon="12.54561"><ele>732.6</ele><time>2026-03-27T13:42:21.982Z</time></trkpt><trkpt lat="46.0835567" lon="12.5457383"><ele>740.0</ele><time>2026-03-27T13:42:22.982Z</time></trkpt><trkpt lat="46.08361" lon="12.5458767"><ele>740.0</ele><time>2026-03-27T13:42:23.982Z</time></trkpt><trkpt lat="46.0836683" lon="12.546015"><ele>740.0</ele><time>2026-03-27T13:42:24.983Z</time></trkpt><trkpt lat="46.0837267" lon="12.54616"><ele>740.0</ele><time>2026-03-27T13:42:25.982Z</time></trkpt><trkpt lat="46.0837983" lon="12.5462933"><ele>740.0</ele><time>2026-03-27T13:42:26.982Z</time></trkpt><trkpt lat="46.0838767" lon="12.5464283"><ele>743.5</ele><time>2026-03-27T13:42:27.982Z</time></trkpt><trkpt lat="46.083945" lon="12.546575"><ele>747.0</ele><time>2026-03-27T13:42:28.982Z</time></trkpt><trkpt lat="46.084005" lon="12.5467317"><ele>750.5</ele><time>2026-03-27T13:42:29.982Z</time></trkpt><trkpt lat="46.0840683" lon="12.5468833"><ele>754.0</ele><time>2026-03-27T13:42:30.982Z</time></trkpt><trkpt lat="46.0841383" lon="12.54703"><ele>747.75</ele><time>2026-03-27T13:42:31.983Z</time></trkpt><trkpt lat="46.0842083" lon="12.5471617"><ele>741.5</ele><time>2026-03-27T13:42:32.982Z</time></trkpt><trkpt lat="46.0842817" lon="12.5472833"><ele>735.25</ele><time>2026-03-27T13:42:33.982Z</time></trkpt><trkpt lat="46.0843567" lon="12.5474"><ele>729.0</ele><time>2026-03-27T13:42:34.982Z</time></trkpt><trkpt lat="46.084425" lon="12.547535"><ele>729.0</ele><time>2026-03-27T13:42:35.982Z</time></trkpt><trkpt lat="46.0844933" lon="12.547695"><ele>729.0</ele><time>2026-03-27T13:42:36.984Z</time></trkpt><trkpt lat="46.0845533" lon="12.5478667"><ele>729.0</ele><time>2026-03-27T13:42:37.982Z</time></trkpt><trkpt lat="46.084615" lon="12.548045"><ele>729.0</ele><time>2026-03-27T13:42:38.982Z</time></trkpt><trkpt lat="46.0846833" lon="12.54822"><ele>724.0</ele><time>2026-03-27T13:42:39.982Z</time></trkpt><trkpt lat="46.0847517" lon="12.5483917"><ele>719.0</ele><time>2026-03-27T13:42:40.982Z</time></trkpt><trkpt lat="46.084815" lon="12.5485633"><ele>714.0</ele><time>2026-03-27T13:42:41.983Z</time></trkpt><trkpt lat="46.0848733" lon="12.5487383"><ele>709.0</ele><time>2026-03-27T13:42:42.983Z</time></trkpt><trkpt lat="46.0849267" lon="12.548925"><ele>710.25</ele><time>2026-03-27T13:42:43.982Z</time></trkpt><trkpt lat="46.0849833" lon="12.5491083"><ele>711.5</ele><time>2026-03-27T13:42:44.982Z</time></trkpt><trkpt lat="46.0850333" lon="12.5492817"><ele>712.75</ele><time>2026-03-27T13:42:45.982Z</time></trkpt><trkpt lat="46.08507" lon="12.5494583"><ele>714.0</ele><time>2026-03-27T13:42:46.984Z</time></trkpt><trkpt lat="46.0851067" lon="12.5496233"><ele>714.0</ele><time>2026-03-27T13:42:47.984Z</time></trkpt><trkpt lat="46.085155" lon="12.5497717"><ele>714.0</ele><time>2026-03-27T13:42:48.984Z</time></trkpt><trkpt lat="46.08522" lon="12.5499"><ele>714.0</ele><time>2026-03-27T13:42:49.983Z</time></trkpt><trkpt lat="46.0852983" lon="12.5500133"><ele>714.0</ele><time>2026-03-27T13:42:50.983Z</time></trkpt><trkpt lat="46.0853767" lon="12.55012"><ele>714.0</ele><time>2026-03-27T13:42:51.982Z</time></trkpt><trkpt lat="46.0854433" lon="12.5502067"><ele>714.0</ele><time>2026-03-27T13:42:52.982Z</time></trkpt><trkpt lat="46.0854817" lon="12.5503167"><ele>714.0</ele><time>2026-03-27T13:42:53.982Z</time></trkpt><trkpt lat="46.0854967" lon="12.5504167"><ele>714.0</ele><time>2026-03-27T13:42:54.982Z</time></trkpt><trkpt lat="46.0855117" lon="12.5506"><ele>714.0</ele><time>2026-03-27T13:42:56.983Z</time></trkpt><trkpt lat="46.0855433" lon="12.5506983"><ele>714.0</ele><time>2026-03-27T13:42:57.983Z</time></trkpt><trkpt lat="46.0855833" lon="12.5508217"><ele>712.6</ele><time>2026-03-27T13:42:58.984Z</time></trkpt><trkpt lat="46.0856283" lon="12.55094"><ele>711.2</ele><time>2026-03-27T13:42:59.983Z</time></trkpt><trkpt lat="46.0856933" lon="12.5510667"><ele>709.8000000000001</ele><time>2026-03-27T13:43:00.982Z</time></trkpt><trkpt lat="46.085775" lon="12.5512067"><ele>708.4000000000001</ele><time>2026-03-27T13:43:01.983Z</time></trkpt><trkpt lat="46.0858517" lon="12.5513283"><ele>707.0</ele><time>2026-03-27T13:43:02.982Z</time></trkpt><trkpt lat="46.085935" lon="12.5514333"><ele>707.0</ele><time>2026-03-27T13:43:03.982Z</time></trkpt><trkpt lat="46.0860167" lon="12.551515"><ele>707.0</ele><time>2026-03-27T13:43:04.982Z</time></trkpt><trkpt lat="46.0861117" lon="12.5515917"><ele>707.0</ele><time>2026-03-27T13:43:05.982Z</time></trkpt><trkpt lat="46.0862167" lon="12.55164"><ele>707.0</ele><time>2026-03-27T13:43:06.982Z</time></trkpt><trkpt lat="46.0863267" lon="12.5516867"><ele>707.0</ele><time>2026-03-27T13:43:07.983Z</time></trkpt><trkpt lat="46.0864217" lon="12.55176"><ele>707.0</ele><time>2026-03-27T13:43:08.983Z</time></trkpt><trkpt lat="46.0865017" lon="12.5518817"><ele>707.0</ele><time>2026-03-27T13:43:09.983Z</time></trkpt><trkpt lat="46.0865783" lon="12.5519983"><ele>707.0</ele><time>2026-03-27T13:43:10.982Z</time></trkpt><trkpt lat="46.0866617" lon="12.5521283"><ele>707.0</ele><time>2026-03-27T13:43:11.982Z</time></trkpt><trkpt lat="46.0867417" lon="12.5522483"><ele>705.5</ele><time>2026-03-27T13:43:12.982Z</time></trkpt><trkpt lat="46.0868233" lon="12.552375"><ele>704.0</ele><time>2026-03-27T13:43:13.982Z</time></trkpt><trkpt lat="46.0869067" lon="12.5525017"><ele>702.5</ele><time>2026-03-27T13:43:14.982Z</time></trkpt><trkpt lat="46.08699" lon="12.5526233"><ele>701.0</ele><time>2026-03-27T13:43:15.982Z</time></trkpt><trkpt lat="46.0870767" lon="12.552725"><ele>701.0</ele><time>2026-03-27T13:43:16.982Z</time></trkpt><trkpt lat="46.0871733" lon="12.552815"><ele>701.0</ele><time>2026-03-27T13:43:17.982Z</time></trkpt><trkpt lat="46.087275" lon="12.5528983"><ele>701.0</ele><time>2026-03-27T13:43:18.982Z</time></trkpt><trkpt lat="46.087375" lon="12.5529817"><ele>701.0</ele><time>2026-03-27T13:43:19.985Z</time></trkpt><trkpt lat="46.0874717" lon="12.5530733"><ele>699.5999999999999</ele><time>2026-03-27T13:43:20.983Z</time></trkpt><trkpt lat="46.0875483" lon="12.553195"><ele>698.2</ele><time>2026-03-27T13:43:21.982Z</time></trkpt><trkpt lat="46.0876133" lon="12.5533267"><ele>696.8</ele><time>2026-03-27T13:43:22.983Z</time></trkpt><trkpt lat="46.0876767" lon="12.5534567"><ele>695.4000000000001</ele><time>2026-03-27T13:43:23.982Z</time></trkpt><trkpt lat="46.0877433" lon="12.55358"><ele>694.0</ele><time>2026-03-27T13:43:24.982Z</time></trkpt><trkpt lat="46.087825" lon="12.553675"><ele>694.4000000000001</ele><time>2026-03-27T13:43:25.982Z</time></trkpt><trkpt lat="46.0879183" lon="12.553745"><ele>694.8</ele><time>2026-03-27T13:43:26.982Z</time></trkpt><trkpt lat="46.0880167" lon="12.5538017"><ele>695.2</ele><time>2026-03-27T13:43:27.982Z</time></trkpt><trkpt lat="46.08811" lon="12.5538633"><ele>695.5999999999999</ele><time>2026-03-27T13:43:28.983Z</time></trkpt><trkpt lat="46.0881933" lon="12.5539467"><ele>696.0</ele><time>2026-03-27T13:43:29.983Z</time></trkpt><trkpt lat="46.0882733" lon="12.5540467"><ele>696.0</ele><time>2026-03-27T13:43:30.983Z</time></trkpt><trkpt lat="46.0883517" lon="12.5541617"><ele>696.0</ele><time>2026-03-27T13:43:31.983Z</time></trkpt><trkpt lat="46.088425" lon="12.554275"><ele>696.0</ele><time>2026-03-27T13:43:32.985Z</time></trkpt><trkpt lat="46.0884983" lon="12.5543833"><ele>696.0</ele><time>2026-03-27T13:43:33.982Z</time></trkpt><trkpt lat="46.088575" lon="12.5544883"><ele>696.0</ele><time>2026-03-27T13:43:34.982Z</time></trkpt><trkpt lat="46.088655" lon="12.5545817"><ele>691.0</ele><time>2026-03-27T13:43:35.982Z</time></trkpt><trkpt lat="46.0887417" lon="12.5546733"><ele>686.0</ele><time>2026-03-27T13:43:36.983Z</time></trkpt><trkpt lat="46.0888333" lon="12.554755"><ele>681.0</ele><time>2026-03-27T13:43:38.063Z</time></trkpt><trkpt lat="46.088925" lon="12.5548383"><ele>676.0</ele><time>2026-03-27T13:43:38.982Z</time></trkpt><trkpt lat="46.0890117" lon="12.5549417"><ele>671.0</ele><time>2026-03-27T13:43:39.982Z</time></trkpt><trkpt lat="46.0890917" lon="12.5550617"><ele>670.8</ele><time>2026-03-27T13:43:40.982Z</time></trkpt><trkpt lat="46.08916" lon="12.55519"><ele>670.5999999999999</ele><time>2026-03-27T13:43:41.982Z</time></trkpt><trkpt lat="46.08923" lon="12.5553167"><ele>670.4</ele><time>2026-03-27T13:43:42.982Z</time></trkpt><trkpt lat="46.0892983" lon="12.5554317"><ele>670.2</ele><time>2026-03-27T13:43:43.982Z</time></trkpt><trkpt lat="46.0893717" lon="12.5555417"><ele>670.0</ele><time>2026-03-27T13:43:44.985Z</time></trkpt><trkpt lat="46.0894483" lon="12.5556467"><ele>670.0</ele><time>2026-03-27T13:43:45.982Z</time></trkpt><trkpt lat="46.0895267" lon="12.5557633"><ele>670.0</ele><time>2026-03-27T13:43:46.982Z</time></trkpt><trkpt lat="46.0896067" lon="12.55588"><ele>670.0</ele><time>2026-03-27T13:43:47.982Z</time></trkpt><trkpt lat="46.0896883" lon="12.555995"><ele>670.0</ele><time>2026-03-27T13:43:48.983Z</time></trkpt><trkpt lat="46.0897817" lon="12.5561133"><ele>670.0</ele><time>2026-03-27T13:43:49.982Z</time></trkpt><trkpt lat="46.0898767" lon="12.55623"><ele>670.0</ele><time>2026-03-27T13:43:50.984Z</time></trkpt><trkpt lat="46.08997" lon="12.5563417"><ele>670.0</ele><time>2026-03-27T13:43:51.982Z</time></trkpt><trkpt lat="46.090065" lon="12.5564467"><ele>670.0</ele><time>2026-03-27T13:43:52.982Z</time></trkpt><trkpt lat="46.0901683" lon="12.556545"><ele>670.0</ele><time>2026-03-27T13:43:53.982Z</time></trkpt><trkpt lat="46.0902717" lon="12.55664"><ele>670.0</ele><time>2026-03-27T13:43:54.983Z</time></trkpt><trkpt lat="46.0903733" lon="12.55672"><ele>670.0</ele><time>2026-03-27T13:43:55.985Z</time></trkpt><trkpt lat="46.090475" lon="12.5567717"><ele>670.0</ele><time>2026-03-27T13:43:56.982Z</time></trkpt><trkpt lat="46.0905667" lon="12.556795"><ele>670.0</ele><time>2026-03-27T13:43:57.982Z</time></trkpt><trkpt lat="46.090645" lon="12.5568233"><ele>670.0</ele><time>2026-03-27T13:43:58.982Z</time></trkpt><trkpt lat="46.0907033" lon="12.5568767"><ele>670.0</ele><time>2026-03-27T13:43:59.983Z</time></trkpt><trkpt lat="46.090615" lon="12.5569083"><ele>670.0</ele><time>2026-03-27T13:44:01.983Z</time></trkpt><trkpt lat="46.0905233" lon="12.5568817"><ele>670.0</ele><time>2026-03-27T13:44:02.983Z</time></trkpt><trkpt lat="46.090435" lon="12.55684"><ele>670.0</ele><time>2026-03-27T13:44:03.984Z</time></trkpt><trkpt lat="46.0903517" lon="12.5567883"><ele>670.0</ele><time>2026-03-27T13:44:04.982Z</time></trkpt><trkpt lat="46.0902717" lon="12.55674"><ele>670.0</ele><time>2026-03-27T13:44:06.067Z</time></trkpt><trkpt lat="46.0901867" lon="12.556695"><ele>670.0</ele><time>2026-03-27T13:44:06.982Z</time></trkpt><trkpt lat="46.0901" lon="12.5566383"><ele>670.0</ele><time>2026-03-27T13:44:07.982Z</time></trkpt><trkpt lat="46.090005" lon="12.5565767"><ele>670.0</ele><time>2026-03-27T13:44:08.984Z</time></trkpt><trkpt lat="46.0898983" lon="12.556515"><ele>670.0</ele><time>2026-03-27T13:44:09.982Z</time></trkpt><trkpt lat="46.08979" lon="12.5564483"><ele>670.0</ele><time>2026-03-27T13:44:10.984Z</time></trkpt><trkpt lat="46.0896817" lon="12.55638"><ele>670.0</ele><time>2026-03-27T13:44:11.983Z</time></trkpt><trkpt lat="46.0895833" lon="12.556305"><ele>670.0</ele><time>2026-03-27T13:44:12.982Z</time></trkpt><trkpt lat="46.0894883" lon="12.55622"><ele>670.0</ele><time>2026-03-27T13:44:13.983Z</time></trkpt><trkpt lat="46.0893917" lon="12.5561333"><ele>670.0</ele><time>2026-03-27T13:44:14.982Z</time></trkpt><trkpt lat="46.089295" lon="12.5560483"><ele>670.0</ele><time>2026-03-27T13:44:15.982Z</time></trkpt><trkpt lat="46.089195" lon="12.555975"><ele>670.0</ele><time>2026-03-27T13:44:16.982Z</time></trkpt><trkpt lat="46.0891017" lon="12.5559083"><ele>670.0</ele><time>2026-03-27T13:44:17.983Z</time></trkpt><trkpt lat="46.08901" lon="12.5558317"><ele>670.0</ele><time>2026-03-27T13:44:18.982Z</time></trkpt><trkpt lat="46.0889233" lon="12.555735"><ele>665.4</ele><time>2026-03-27T13:44:19.982Z</time></trkpt><trkpt lat="46.0888433" lon="12.555635"><ele>660.8</ele><time>2026-03-27T13:44:20.984Z</time></trkpt><trkpt lat="46.0887667" lon="12.555545"><ele>656.2</ele><time>2026-03-27T13:44:21.982Z</time></trkpt><trkpt lat="46.088685" lon="12.5554783"><ele>651.6</ele><time>2026-03-27T13:44:22.982Z</time></trkpt><trkpt lat="46.0886017" lon="12.5554267"><ele>647.0</ele><time>2026-03-27T13:44:23.983Z</time></trkpt><trkpt lat="46.0885083" lon="12.5553867"><ele>646.6</ele><time>2026-03-27T13:44:24.984Z</time></trkpt><trkpt lat="46.08841" lon="12.555355"><ele>646.2</ele><time>2026-03-27T13:44:25.983Z</time></trkpt><trkpt lat="46.0883117" lon="12.5553333"><ele>645.8</ele><time>2026-03-27T13:44:26.983Z</time></trkpt><trkpt lat="46.0882167" lon="12.5553033"><ele>645.4</ele><time>2026-03-27T13:44:27.982Z</time></trkpt><trkpt lat="46.0881217" lon="12.5552667"><ele>645.0</ele><time>2026-03-27T13:44:28.983Z</time></trkpt><trkpt lat="46.0880333" lon="12.5552217"><ele>645.0</ele><time>2026-03-27T13:44:29.984Z</time></trkpt><trkpt lat="46.087955" lon="12.55516"><ele>645.0</ele><time>2026-03-27T13:44:30.982Z</time></trkpt><trkpt lat="46.0878817" lon="12.5550867"><ele>645.0</ele><time>2026-03-27T13:44:31.982Z</time></trkpt><trkpt lat="46.0878167" lon="12.5549933"><ele>645.0</ele><time>2026-03-27T13:44:32.983Z</time></trkpt><trkpt lat="46.087755" lon="12.554895"><ele>645.0</ele><time>2026-03-27T13:44:33.982Z</time></trkpt><trkpt lat="46.0876883" lon="12.5548033"><ele>645.0</ele><time>2026-03-27T13:44:34.985Z</time></trkpt><trkpt lat="46.08762" lon="12.5547183"><ele>645.0</ele><time>2026-03-27T13:44:35.982Z</time></trkpt><trkpt lat="46.0875467" lon="12.554635"><ele>645.0</ele><time>2026-03-27T13:44:36.982Z</time></trkpt><trkpt lat="46.087465" lon="12.554565"><ele>645.0</ele><time>2026-03-27T13:44:37.982Z</time></trkpt><trkpt lat="46.08737" lon="12.55451"><ele>645.0</ele><time>2026-03-27T13:44:38.982Z</time></trkpt><trkpt lat="46.0872717" lon="12.55446"><ele>645.2</ele><time>2026-03-27T13:44:39.984Z</time></trkpt><trkpt lat="46.087175" lon="12.5544117"><ele>645.4</ele><time>2026-03-27T13:44:40.982Z</time></trkpt><trkpt lat="46.0870833" lon="12.5543633"><ele>645.5999999999999</ele><time>2026-03-27T13:44:41.984Z</time></trkpt><trkpt lat="46.0869883" lon="12.5543233"><ele>645.8</ele><time>2026-03-27T13:44:42.982Z</time></trkpt><trkpt lat="46.0868967" lon="12.554285"><ele>646.0</ele><time>2026-03-27T13:44:43.982Z</time></trkpt><trkpt lat="46.0868067" lon="12.5542467"><ele>646.0</ele><time>2026-03-27T13:44:44.983Z</time></trkpt><trkpt lat="46.0867217" lon="12.5542117"><ele>646.0</ele><time>2026-03-27T13:44:45.982Z</time></trkpt><trkpt lat="46.08665" lon="12.554185"><ele>646.0</ele><time>2026-03-27T13:44:46.982Z</time></trkpt><trkpt lat="46.0865867" lon="12.5541667"><ele>646.0</ele><time>2026-03-27T13:44:47.984Z</time></trkpt><trkpt lat="46.0864867" lon="12.5541083"><ele>646.0</ele><time>2026-03-27T13:44:49.983Z</time></trkpt><trkpt lat="46.0864333" lon="12.55405"><ele>646.0</ele><time>2026-03-27T13:44:50.983Z</time></trkpt><trkpt lat="46.0863767" lon="12.55398"><ele>646.5999999999999</ele><time>2026-03-27T13:44:51.983Z</time></trkpt><trkpt lat="46.0863117" lon="12.5539"><ele>647.2</ele><time>2026-03-27T13:44:52.983Z</time></trkpt><trkpt lat="46.0862433" lon="12.5538267"><ele>647.8</ele><time>2026-03-27T13:44:53.983Z</time></trkpt><trkpt lat="46.0861667" lon="12.5537517"><ele>648.4000000000001</ele><time>2026-03-27T13:44:54.982Z</time></trkpt><trkpt lat="46.0860783" lon="12.5536767"><ele>649.0</ele><time>2026-03-27T13:44:55.984Z</time></trkpt><trkpt lat="46.0859883" lon="12.55361"><ele>649.0</ele><time>2026-03-27T13:44:56.983Z</time></trkpt><trkpt lat="46.0859033" lon="12.5535483"><ele>649.0</ele><time>2026-03-27T13:44:57.983Z</time></trkpt><trkpt lat="46.0858217" lon="12.5534867"><ele>649.0</ele><time>2026-03-27T13:44:58.982Z</time></trkpt><trkpt lat="46.08574" lon="12.553425"><ele>649.0</ele><time>2026-03-27T13:44:59.983Z</time></trkpt><trkpt lat="46.0856633" lon="12.5533717"><ele>649.0</ele><time>2026-03-27T13:45:00.983Z</time></trkpt><trkpt lat="46.0855917" lon="12.5533367"><ele>649.0</ele><time>2026-03-27T13:45:01.982Z</time></trkpt><trkpt lat="46.0855167" lon="12.553325"><ele>646.6</ele><time>2026-03-27T13:45:02.983Z</time></trkpt><trkpt lat="46.0854217" lon="12.5533567"><ele>644.2</ele><time>2026-03-27T13:45:03.983Z</time></trkpt><trkpt lat="46.08532" lon="12.5534083"><ele>641.8000000000001</ele><time>2026-03-27T13:45:04.982Z</time></trkpt><trkpt lat="46.0852233" lon="12.5534517"><ele>639.4000000000001</ele><time>2026-03-27T13:45:06.067Z</time></trkpt><trkpt lat="46.0851333" lon="12.5534817"><ele>637.0</ele><time>2026-03-27T13:45:06.982Z</time></trkpt><trkpt lat="46.0850467" lon="12.5534867"><ele>637.0</ele><time>2026-03-27T13:45:07.982Z</time></trkpt><trkpt lat="46.08496" lon="12.5534733"><ele>637.0</ele><time>2026-03-27T13:45:08.983Z</time></trkpt><trkpt lat="46.0848717" lon="12.553435"><ele>637.0</ele><time>2026-03-27T13:45:09.982Z</time></trkpt><trkpt lat="46.084785" lon="12.5534017"><ele>637.0</ele><time>2026-03-27T13:45:11.066Z</time></trkpt><trkpt lat="46.0846967" lon="12.5533883"><ele>637.0</ele><time>2026-03-27T13:45:11.983Z</time></trkpt><trkpt lat="46.0846033" lon="12.553385"><ele>634.0</ele><time>2026-03-27T13:45:12.982Z</time></trkpt><trkpt lat="46.0845167" lon="12.5533767"><ele>631.0</ele><time>2026-03-27T13:45:13.983Z</time></trkpt><trkpt lat="46.0844433" lon="12.5533633"><ele>628.0</ele><time>2026-03-27T13:45:14.983Z</time></trkpt><trkpt lat="46.0843817" lon="12.55332"><ele>625.0</ele><time>2026-03-27T13:45:15.983Z</time></trkpt><trkpt lat="46.0843267" lon="12.5532467"><ele>622.0</ele><time>2026-03-27T13:45:16.982Z</time></trkpt><trkpt lat="46.0842733" lon="12.5531417"><ele>619.0</ele><time>2026-03-27T13:45:17.982Z</time></trkpt><trkpt lat="46.0842183" lon="12.5530333"><ele>619.0</ele><time>2026-03-27T13:45:18.983Z</time></trkpt><trkpt lat="46.0841633" lon="12.5529383"><ele>619.0</ele><time>2026-03-27T13:45:19.982Z</time></trkpt><trkpt lat="46.0840983" lon="12.5528583"><ele>619.0</ele><time>2026-03-27T13:45:20.983Z</time></trkpt><trkpt lat="46.0840167" lon="12.5527917"><ele>619.0</ele><time>2026-03-27T13:45:21.982Z</time></trkpt><trkpt lat="46.08394" lon="12.552735"><ele>619.0</ele><time>2026-03-27T13:45:22.982Z</time></trkpt><trkpt lat="46.0838683" lon="12.5526967"><ele>619.0</ele><time>2026-03-27T13:45:23.983Z</time></trkpt><trkpt lat="46.0837983" lon="12.5526983"><ele>619.6666666666667</ele><time>2026-03-27T13:45:24.982Z</time></trkpt><trkpt lat="46.0837383" lon="12.552735"><ele>620.3333333333334</ele><time>2026-03-27T13:45:25.983Z</time></trkpt><trkpt lat="46.0836733" lon="12.5528033"><ele>621.0</ele><time>2026-03-27T13:45:26.989Z</time></trkpt><trkpt lat="46.0836" lon="12.55286"><ele>621.6666666666666</ele><time>2026-03-27T13:45:27.983Z</time></trkpt><trkpt lat="46.0835133" lon="12.5529217"><ele>622.3333333333333</ele><time>2026-03-27T13:45:28.982Z</time></trkpt><trkpt lat="46.083415" lon="12.5529267"><ele>623.0</ele><time>2026-03-27T13:45:29.982Z</time></trkpt><trkpt lat="46.0833117" lon="12.552905"><ele>619.1999999999999</ele><time>2026-03-27T13:45:30.983Z</time></trkpt><trkpt lat="46.0832067" lon="12.5528817"><ele>615.4</ele><time>2026-03-27T13:45:31.988Z</time></trkpt><trkpt lat="46.083095" lon="12.552845"><ele>611.5999999999999</ele><time>2026-03-27T13:45:32.983Z</time></trkpt><trkpt lat="46.0829883" lon="12.552775"><ele>607.8</ele><time>2026-03-27T13:45:33.982Z</time></trkpt><trkpt lat="46.0828883" lon="12.552715"><ele>604.0</ele><time>2026-03-27T13:45:34.982Z</time></trkpt><trkpt lat="46.0827983" lon="12.5526467"><ele>604.0</ele><time>2026-03-27T13:45:35.983Z</time></trkpt><trkpt lat="46.0827233" lon="12.552575"><ele>604.0</ele><time>2026-03-27T13:45:36.984Z</time></trkpt><trkpt lat="46.0826617" lon="12.5524917"><ele>604.0</ele><time>2026-03-27T13:45:37.982Z</time></trkpt><trkpt lat="46.08261" lon="12.55239"><ele>604.0</ele><time>2026-03-27T13:45:38.983Z</time></trkpt><trkpt lat="46.08256" lon="12.5522783"><ele>604.0</ele><time>2026-03-27T13:45:39.984Z</time></trkpt><trkpt lat="46.0824983" lon="12.5521917"><ele>604.0</ele><time>2026-03-27T13:45:40.982Z</time></trkpt><trkpt lat="46.0824283" lon="12.5521367"><ele>602.1666666666667</ele><time>2026-03-27T13:45:41.982Z</time></trkpt><trkpt lat="46.0823567" lon="12.5521117"><ele>600.3333333333334</ele><time>2026-03-27T13:45:42.983Z</time></trkpt><trkpt lat="46.08228" lon="12.552135"><ele>598.5</ele><time>2026-03-27T13:45:43.982Z</time></trkpt><trkpt lat="46.0822067" lon="12.5521583"><ele>596.6666666666666</ele><time>2026-03-27T13:45:44.983Z</time></trkpt><trkpt lat="46.0821317" lon="12.552165"><ele>594.8333333333333</ele><time>2026-03-27T13:45:45.982Z</time></trkpt><trkpt lat="46.082045" lon="12.5521683"><ele>593.0</ele><time>2026-03-27T13:45:46.982Z</time></trkpt><trkpt lat="46.0819567" lon="12.552125"><ele>593.0</ele><time>2026-03-27T13:45:47.982Z</time></trkpt><trkpt lat="46.0818633" lon="12.552075"><ele>593.0</ele><time>2026-03-27T13:45:48.982Z</time></trkpt><trkpt lat="46.0817817" lon="12.5520233"><ele>593.0</ele><time>2026-03-27T13:45:49.982Z</time></trkpt><trkpt lat="46.0817083" lon="12.551975"><ele>593.0</ele><time>2026-03-27T13:45:50.983Z</time></trkpt><trkpt lat="46.081635" lon="12.551945"><ele>593.0</ele><time>2026-03-27T13:45:51.983Z</time></trkpt><trkpt lat="46.0815683" lon="12.5519383"><ele>593.0</ele><time>2026-03-27T13:45:52.982Z</time></trkpt><trkpt lat="46.081505" lon="12.5519783"><ele>592.0</ele><time>2026-03-27T13:45:53.982Z</time></trkpt><trkpt lat="46.0814417" lon="12.5520383"><ele>591.0</ele><time>2026-03-27T13:45:55.983Z</time></trkpt><trkpt lat="46.0813867" lon="12.55197"><ele>590.0</ele><time>2026-03-27T13:45:58.983Z</time></trkpt><trkpt lat="46.081415" lon="12.5518517"><ele>589.0</ele><time>2026-03-27T13:46:01.064Z</time></trkpt><trkpt lat="46.0814567" lon="12.551775"><ele>588.0</ele><time>2026-03-27T13:46:02.983Z</time></trkpt><trkpt lat="46.0814017" lon="12.5516567"><ele>587.0</ele><time>2026-03-27T13:46:05.984Z</time></trkpt><trkpt lat="46.0813183" lon="12.55164"><ele>587.0</ele><time>2026-03-27T13:46:07.982Z</time></trkpt><trkpt lat="46.0812417" lon="12.55162"><ele>587.0</ele><time>2026-03-27T13:46:09.984Z</time></trkpt><trkpt lat="46.0811267" lon="12.5515917"><ele>587.0</ele><time>2026-03-27T13:46:11.983Z</time></trkpt><trkpt lat="46.0810617" lon="12.551575"><ele>587.0</ele><time>2026-03-27T13:46:12.983Z</time></trkpt><trkpt lat="46.080985" lon="12.5515817"><ele>587.0</ele><time>2026-03-27T13:46:13.983Z</time></trkpt><trkpt lat="46.0809033" lon="12.5515917"><ele>587.0</ele><time>2026-03-27T13:46:14.983Z</time></trkpt><trkpt lat="46.0808417" lon="12.5516383"><ele>584.3333333333333</ele><time>2026-03-27T13:46:15.982Z</time></trkpt><trkpt lat="46.0807617" lon="12.5516933"><ele>581.6666666666666</ele><time>2026-03-27T13:46:16.983Z</time></trkpt><trkpt lat="46.0806933" lon="12.55174"><ele>579.0</ele><time>2026-03-27T13:46:17.982Z</time></trkpt><trkpt lat="46.08063" lon="12.5517767"><ele>576.3333333333334</ele><time>2026-03-27T13:46:18.982Z</time></trkpt><trkpt lat="46.0805667" lon="12.5518133"><ele>573.6666666666667</ele><time>2026-03-27T13:46:19.984Z</time></trkpt><trkpt lat="46.0804567" lon="12.55183"><ele>571.0</ele><time>2026-03-27T13:46:21.983Z</time></trkpt><trkpt lat="46.0803567" lon="12.5517933"><ele>571.0</ele><time>2026-03-27T13:46:23.982Z</time></trkpt><trkpt lat="46.0802783" lon="12.551655"><ele>571.0</ele><time>2026-03-27T13:46:25.982Z</time></trkpt><trkpt lat="46.080245" lon="12.5515733"><ele>571.0</ele><time>2026-03-27T13:46:26.984Z</time></trkpt><trkpt lat="46.0802017" lon="12.5515067"><ele>571.0</ele><time>2026-03-27T13:46:27.982Z</time></trkpt><trkpt lat="46.0801283" lon="12.5514883"><ele>571.0</ele><time>2026-03-27T13:46:29.982Z</time></trkpt><trkpt lat="46.0800617" lon="12.5516067"><ele>571.0</ele><time>2026-03-27T13:46:31.982Z</time></trkpt><trkpt lat="46.08004" lon="12.551705"><ele>571.0</ele><time>2026-03-27T13:46:32.984Z</time></trkpt><trkpt lat="46.0800133" lon="12.5518167"><ele>571.0</ele><time>2026-03-27T13:46:33.983Z</time></trkpt><trkpt lat="46.0799883" lon="12.5519267"><ele>571.0</ele><time>2026-03-27T13:46:34.982Z</time></trkpt><trkpt lat="46.0799633" lon="12.552045"><ele>571.0</ele><time>2026-03-27T13:46:35.982Z</time></trkpt><trkpt lat="46.0799367" lon="12.5521433"><ele>571.0</ele><time>2026-03-27T13:46:36.984Z</time></trkpt><trkpt lat="46.0799133" lon="12.5522467"><ele>571.0</ele><time>2026-03-27T13:46:37.985Z</time></trkpt><trkpt lat="46.079895" lon="12.5523567"><ele>566.3333333333334</ele><time>2026-03-27T13:46:38.984Z</time></trkpt><trkpt lat="46.0798867" lon="12.55246"><ele>561.6666666666667</ele><time>2026-03-27T13:46:39.982Z</time></trkpt><trkpt lat="46.0798867" lon="12.552555"><ele>557.0</ele><time>2026-03-27T13:46:40.983Z</time></trkpt><trkpt lat="46.0798933" lon="12.5526483"><ele>552.3333333333334</ele><time>2026-03-27T13:46:41.982Z</time></trkpt><trkpt lat="46.079895" lon="12.5527967"><ele>547.6666666666666</ele><time>2026-03-27T13:46:43.982Z</time></trkpt><trkpt lat="46.07985" lon="12.5528983"><ele>543.0</ele><time>2026-03-27T13:46:45.983Z</time></trkpt><trkpt lat="46.0797567" lon="12.5529067"><ele>543.0</ele><time>2026-03-27T13:46:47.982Z</time></trkpt><trkpt lat="46.07967" lon="12.5527633"><ele>543.0</ele><time>2026-03-27T13:46:49.983Z</time></trkpt><trkpt lat="46.0795933" lon="12.5526867"><ele>543.0</ele><time>2026-03-27T13:46:50.983Z</time></trkpt><trkpt lat="46.0794959" lon="12.5525954"><ele>543.0</ele><time>2026-03-27T13:46:51.982Z</time></trkpt><trkpt lat="46.0794138" lon="12.5525011"><ele>543.0</ele><time>2026-03-27T13:46:52.982Z</time></trkpt><trkpt lat="46.079332" lon="12.5524201"><ele>543.0</ele><time>2026-03-27T13:46:53.988Z</time></trkpt><trkpt lat="46.0792502" lon="12.5523567"><ele>543.0</ele><time>2026-03-27T13:46:54.982Z</time></trkpt><trkpt lat="46.0791764" lon="12.5522907"><ele>543.0</ele><time>2026-03-27T13:46:55.983Z</time></trkpt><trkpt lat="46.0791054" lon="12.5522043"><ele>543.0</ele><time>2026-03-27T13:46:57.066Z</time></trkpt><trkpt lat="46.0790524" lon="12.5521057"><ele>543.0</ele><time>2026-03-27T13:46:57.987Z</time></trkpt><trkpt lat="46.0790008" lon="12.5519991"><ele>543.0</ele><time>2026-03-27T13:46:58.982Z</time></trkpt><trkpt lat="46.0789548" lon="12.5518952"><ele>540.3333333333334</ele><time>2026-03-27T13:46:59.987Z</time></trkpt><trkpt lat="46.0789193" lon="12.551796"><ele>537.6666666666666</ele><time>2026-03-27T13:47:00.983Z</time></trkpt><trkpt lat="46.0788923" lon="12.5517035"><ele>535.0</ele><time>2026-03-27T13:47:01.983Z</time></trkpt><trkpt lat="46.0788382" lon="12.5515769"><ele>532.3333333333333</ele><time>2026-03-27T13:47:03.982Z</time></trkpt><trkpt lat="46.0787717" lon="12.5515529"><ele>529.6666666666666</ele><time>2026-03-27T13:47:05.983Z</time></trkpt><trkpt lat="46.0787098" lon="12.5515888"><ele>527.0</ele><time>2026-03-27T13:47:06.984Z</time></trkpt><trkpt lat="46.0786326" lon="12.5516558"><ele>527.0</ele><time>2026-03-27T13:47:07.982Z</time></trkpt><trkpt lat="46.0785579" lon="12.5517276"><ele>527.0</ele><time>2026-03-27T13:47:08.984Z</time></trkpt><trkpt lat="46.0785011" lon="12.5517866"><ele>527.0</ele><time>2026-03-27T13:47:09.983Z</time></trkpt><trkpt lat="46.0784396" lon="12.5519193"><ele>527.0</ele><time>2026-03-27T13:47:11.983Z</time></trkpt><trkpt lat="46.0784392" lon="12.5520985"><ele>527.0</ele><time>2026-03-27T13:47:13.983Z</time></trkpt><trkpt lat="46.0784618" lon="12.5522078"><ele>525.25</ele><time>2026-03-27T13:47:14.988Z</time></trkpt><trkpt lat="46.0785026" lon="12.5523271"><ele>523.5</ele><time>2026-03-27T13:47:15.984Z</time></trkpt><trkpt lat="46.0785622" lon="12.5524557"><ele>521.75</ele><time>2026-03-27T13:47:16.984Z</time></trkpt><trkpt lat="46.0786447" lon="12.5526111"><ele>520.0</ele><time>2026-03-27T13:47:17.982Z</time></trkpt><trkpt lat="46.0787214" lon="12.5527746"><ele>517.6</ele><time>2026-03-27T13:47:18.982Z</time></trkpt><trkpt lat="46.0787808" lon="12.5529117"><ele>515.2</ele><time>2026-03-27T13:47:19.987Z</time></trkpt><trkpt lat="46.0788291" lon="12.5530228"><ele>512.8</ele><time>2026-03-27T13:47:20.984Z</time></trkpt><trkpt lat="46.0788748" lon="12.553114"><ele>510.4</ele><time>2026-03-27T13:47:21.982Z</time></trkpt><trkpt lat="46.0789419" lon="12.5532432"><ele>508.0</ele><time>2026-03-27T13:47:23.983Z</time></trkpt><trkpt lat="46.0789533" lon="12.5533567"><ele>508.0</ele><time>2026-03-27T13:47:25.983Z</time></trkpt><trkpt lat="46.0788917" lon="12.553395"><ele>507.99999999999994</ele><time>2026-03-27T13:47:27.983Z</time></trkpt><trkpt lat="46.0787967" lon="12.5532683"><ele>507.99999999999994</ele><time>2026-03-27T13:47:28.984Z</time></trkpt><trkpt lat="46.07872" lon="12.5532083"><ele>508.0</ele><time>2026-03-27T13:47:29.984Z</time></trkpt><trkpt lat="46.078645" lon="12.553135"><ele>508.0</ele><time>2026-03-27T13:47:30.983Z</time></trkpt><trkpt lat="46.0785733" lon="12.553075"><ele>508.0</ele><time>2026-03-27T13:47:31.982Z</time></trkpt><trkpt lat="46.07852" lon="12.553005"><ele>507.99999999999994</ele><time>2026-03-27T13:47:32.983Z</time></trkpt><trkpt lat="46.0784433" lon="12.5529317"><ele>507.99999999999994</ele><time>2026-03-27T13:47:33.983Z</time></trkpt><trkpt lat="46.078355" lon="12.5528283"><ele>508.0</ele><time>2026-03-27T13:47:34.982Z</time></trkpt><trkpt lat="46.078265" lon="12.5527317"><ele>508.0</ele><time>2026-03-27T13:47:36.069Z</time></trkpt><trkpt lat="46.0781767" lon="12.5526367"><ele>504.79999999999995</ele><time>2026-03-27T13:47:36.983Z</time></trkpt><trkpt lat="46.0780933" lon="12.5525417"><ele>501.59999999999997</ele><time>2026-03-27T13:47:37.984Z</time></trkpt><trkpt lat="46.0780233" lon="12.5524567"><ele>498.40000000000003</ele><time>2026-03-27T13:47:38.983Z</time></trkpt><trkpt lat="46.07797" lon="12.55239"><ele>495.20000000000005</ele><time>2026-03-27T13:47:39.983Z</time></trkpt><trkpt lat="46.0778867" lon="12.5522833"><ele>492.0</ele><time>2026-03-27T13:47:41.982Z</time></trkpt><trkpt lat="46.0778067" lon="12.552155"><ele>492.0</ele><time>2026-03-27T13:47:43.982Z</time></trkpt><trkpt lat="46.0777467" lon="12.5520933"><ele>492.0</ele><time>2026-03-27T13:47:44.983Z</time></trkpt><trkpt lat="46.0776483" lon="12.5520083"><ele>492.0</ele><time>2026-03-27T13:47:46.982Z</time></trkpt><trkpt lat="46.0775767" lon="12.552025"><ele>492.0</ele><time>2026-03-27T13:47:49.982Z</time></trkpt><trkpt lat="46.0776317" lon="12.55214"><ele>492.0</ele><time>2026-03-27T13:47:52.982Z</time></trkpt><trkpt lat="46.0776467" lon="12.55223"><ele>492.0</ele><time>2026-03-27T13:47:53.989Z</time></trkpt><trkpt lat="46.0776683" lon="12.55234"><ele>492.0</ele><time>2026-03-27T13:47:54.982Z</time></trkpt><trkpt lat="46.0777017" lon="12.55243"><ele>492.00000000000006</ele><time>2026-03-27T13:47:55.984Z</time></trkpt><trkpt lat="46.07774" lon="12.5525983"><ele>492.00000000000006</ele><time>2026-03-27T13:47:57.983Z</time></trkpt><trkpt lat="46.07774" lon="12.552735"><ele>492.0</ele><time>2026-03-27T13:47:58.984Z</time></trkpt><trkpt lat="46.0777183" lon="12.552915"><ele>492.0</ele><time>2026-03-27T13:47:59.982Z</time></trkpt><trkpt lat="46.077705" lon="12.55305"><ele>491.0</ele><time>2026-03-27T13:48:00.982Z</time></trkpt><trkpt lat="46.07769" lon="12.5532133"><ele>490.0</ele><time>2026-03-27T13:48:01.985Z</time></trkpt><trkpt lat="46.0776783" lon="12.5533933"><ele>489.0</ele><time>2026-03-27T13:48:02.983Z</time></trkpt><trkpt lat="46.0776683" lon="12.5535733"><ele>488.0</ele><time>2026-03-27T13:48:03.982Z</time></trkpt><trkpt lat="46.0776683" lon="12.55372"><ele>487.49999999999994</ele><time>2026-03-27T13:48:04.983Z</time></trkpt><trkpt lat="46.0776617" lon="12.5538633"><ele>487.0</ele><time>2026-03-27T13:48:05.983Z</time></trkpt><trkpt lat="46.0776617" lon="12.5539667"><ele>486.5</ele><time>2026-03-27T13:48:06.982Z</time></trkpt><trkpt lat="46.0776833" lon="12.5540633"><ele>486.0</ele><time>2026-03-27T13:48:07.982Z</time></trkpt><trkpt lat="46.0777333" lon="12.5541617"><ele>485.49999999999994</ele><time>2026-03-27T13:48:08.983Z</time></trkpt><trkpt lat="46.0777917" lon="12.55425"><ele>485.0</ele><time>2026-03-27T13:48:09.982Z</time></trkpt><trkpt lat="46.0778767" lon="12.55435"><ele>485.0</ele><time>2026-03-27T13:48:10.983Z</time></trkpt><trkpt lat="46.0779633" lon="12.55446"><ele>485.0</ele><time>2026-03-27T13:48:11.982Z</time></trkpt><trkpt lat="46.078025" lon="12.55453"><ele>485.0</ele><time>2026-03-27T13:48:12.982Z</time></trkpt><trkpt lat="46.078075" lon="12.55462"><ele>485.0</ele><time>2026-03-27T13:48:13.983Z</time></trkpt><trkpt lat="46.0781117" lon="12.5547217"><ele>485.0</ele><time>2026-03-27T13:48:14.983Z</time></trkpt><trkpt lat="46.0781533" lon="12.5548867"><ele>483.49999999999994</ele><time>2026-03-27T13:48:16.983Z</time></trkpt><trkpt lat="46.0781617" lon="12.5549817"><ele>482.0</ele><time>2026-03-27T13:48:17.982Z</time></trkpt><trkpt lat="46.0781417" lon="12.5550717"><ele>480.5</ele><time>2026-03-27T13:48:18.984Z</time></trkpt><trkpt lat="46.078105" lon="12.555165"><ele>479.0</ele><time>2026-03-27T13:48:19.983Z</time></trkpt><trkpt lat="46.07805" lon="12.555255"><ele>477.49999999999994</ele><time>2026-03-27T13:48:20.983Z</time></trkpt><trkpt lat="46.077985" lon="12.5553367"><ele>476.0</ele><time>2026-03-27T13:48:21.982Z</time></trkpt><trkpt lat="46.0779217" lon="12.5554133"><ele>474.49999999999994</ele><time>2026-03-27T13:48:22.983Z</time></trkpt><trkpt lat="46.0778583" lon="12.555505"><ele>473.0</ele><time>2026-03-27T13:48:23.982Z</time></trkpt><trkpt lat="46.0778083" lon="12.5556"><ele>471.5</ele><time>2026-03-27T13:48:24.983Z</time></trkpt><trkpt lat="46.07778" lon="12.5556933"><ele>470.0</ele><time>2026-03-27T13:48:25.983Z</time></trkpt><trkpt lat="46.0777567" lon="12.55581"><ele>468.49999999999994</ele><time>2026-03-27T13:48:26.983Z</time></trkpt><trkpt lat="46.0777433" lon="12.5559483"><ele>467.0</ele><time>2026-03-27T13:48:27.982Z</time></trkpt><trkpt lat="46.0777383" lon="12.55608"><ele>465.8</ele><time>2026-03-27T13:48:28.982Z</time></trkpt><trkpt lat="46.0777533" lon="12.55622"><ele>464.6</ele><time>2026-03-27T13:48:29.983Z</time></trkpt><trkpt lat="46.077765" lon="12.5564"><ele>463.40000000000003</ele><time>2026-03-27T13:48:30.983Z</time></trkpt><trkpt lat="46.0777617" lon="12.55656"><ele>462.20000000000005</ele><time>2026-03-27T13:48:31.982Z</time></trkpt><trkpt lat="46.0777617" lon="12.5567067"><ele>461.0</ele><time>2026-03-27T13:48:32.985Z</time></trkpt><trkpt lat="46.0777633" lon="12.5568633"><ele>460.99999999999994</ele><time>2026-03-27T13:48:33.982Z</time></trkpt><trkpt lat="46.077775" lon="12.557005"><ele>461.0</ele><time>2026-03-27T13:48:34.982Z</time></trkpt><trkpt lat="46.0777883" lon="12.5571383"><ele>461.0</ele><time>2026-03-27T13:48:35.982Z</time></trkpt><trkpt lat="46.0777983" lon="12.557255"><ele>461.0</ele><time>2026-03-27T13:48:36.982Z</time></trkpt><trkpt lat="46.0777883" lon="12.5573783"><ele>460.99999999999994</ele><time>2026-03-27T13:48:37.983Z</time></trkpt><trkpt lat="46.077775" lon="12.5574817"><ele>461.0</ele><time>2026-03-27T13:48:38.984Z</time></trkpt><trkpt lat="46.077765" lon="12.55758"><ele>459.28571428571433</ele><time>2026-03-27T13:48:39.982Z</time></trkpt><trkpt lat="46.0777683" lon="12.5576783"><ele>457.5714285714286</ele><time>2026-03-27T13:48:40.984Z</time></trkpt><trkpt lat="46.077795" lon="12.55778"><ele>455.8571428571429</ele><time>2026-03-27T13:48:41.982Z</time></trkpt><trkpt lat="46.0778317" lon="12.5578683"><ele>454.1428571428571</ele><time>2026-03-27T13:48:42.982Z</time></trkpt><trkpt lat="46.0778633" lon="12.5579583"><ele>452.4285714285714</ele><time>2026-03-27T13:48:43.982Z</time></trkpt><trkpt lat="46.0778917" lon="12.55805"><ele>450.71428571428567</ele><time>2026-03-27T13:48:44.983Z</time></trkpt><trkpt lat="46.07791" lon="12.5581517"><ele>449.0</ele><time>2026-03-27T13:48:45.982Z</time></trkpt><trkpt lat="46.0779167" lon="12.5582717"><ele>445.79999999999995</ele><time>2026-03-27T13:48:46.984Z</time></trkpt><trkpt lat="46.0779183" lon="12.5584133"><ele>442.59999999999997</ele><time>2026-03-27T13:48:47.982Z</time></trkpt><trkpt lat="46.0779167" lon="12.55856"><ele>439.4</ele><time>2026-03-27T13:48:48.984Z</time></trkpt><trkpt lat="46.0779133" lon="12.5587017"><ele>436.2</ele><time>2026-03-27T13:48:49.982Z</time></trkpt><trkpt lat="46.077915" lon="12.558825"><ele>433.0</ele><time>2026-03-27T13:48:50.984Z</time></trkpt><trkpt lat="46.0779217" lon="12.5589267"><ele>431.4285714285714</ele><time>2026-03-27T13:48:51.983Z</time></trkpt><trkpt lat="46.07794" lon="12.5590217"><ele>429.85714285714283</ele><time>2026-03-27T13:48:52.982Z</time></trkpt><trkpt lat="46.077955" lon="12.55913"><ele>428.2857142857143</ele><time>2026-03-27T13:48:53.982Z</time></trkpt><trkpt lat="46.07797" lon="12.55922"><ele>426.71428571428567</ele><time>2026-03-27T13:48:54.983Z</time></trkpt><trkpt lat="46.0779967" lon="12.5593117"><ele>425.14285714285717</ele><time>2026-03-27T13:48:55.982Z</time></trkpt><trkpt lat="46.0780133" lon="12.5594067"><ele>423.57142857142856</ele><time>2026-03-27T13:48:56.984Z</time></trkpt><trkpt lat="46.0780117" lon="12.55951"><ele>422.0</ele><time>2026-03-27T13:48:57.982Z</time></trkpt><trkpt lat="46.0780033" lon="12.559605"><ele>419.8</ele><time>2026-03-27T13:48:58.984Z</time></trkpt><trkpt lat="46.0779967" lon="12.5597017"><ele>417.6</ele><time>2026-03-27T13:48:59.984Z</time></trkpt><trkpt lat="46.07798" lon="12.5598667"><ele>415.40000000000003</ele><time>2026-03-27T13:49:01.983Z</time></trkpt><trkpt lat="46.077935" lon="12.56001"><ele>413.20000000000005</ele><time>2026-03-27T13:49:03.983Z</time></trkpt><trkpt lat="46.0778517" lon="12.5600867"><ele>411.0</ele><time>2026-03-27T13:49:05.982Z</time></trkpt><trkpt lat="46.0777883" lon="12.5600767"><ele>411.0</ele><time>2026-03-27T13:49:06.983Z</time></trkpt><trkpt lat="46.077675" lon="12.560065"><ele>411.0</ele><time>2026-03-27T13:49:08.983Z</time></trkpt><trkpt lat="46.07761" lon="12.5600783"><ele>411.0</ele><time>2026-03-27T13:49:10.985Z</time></trkpt><trkpt lat="46.0775567" lon="12.560165"><ele>411.0</ele><time>2026-03-27T13:49:18.982Z</time></trkpt><trkpt lat="46.077475" lon="12.5602"><ele>411.0</ele><time>2026-03-27T13:49:22.984Z</time></trkpt><trkpt lat="46.07741" lon="12.5602917"><ele>411.0</ele><time>2026-03-27T13:49:25.983Z</time></trkpt><trkpt lat="46.0773717" lon="12.5603667"><ele>408.0</ele><time>2026-03-27T13:49:27.983Z</time></trkpt><trkpt lat="46.0773267" lon="12.560455"><ele>405.0</ele><time>2026-03-27T13:49:29.983Z</time></trkpt><trkpt lat="46.0772817" lon="12.5605233"><ele>402.0</ele><time>2026-03-27T13:49:31.982Z</time></trkpt><trkpt lat="46.0772167" lon="12.5605733"><ele>399.0</ele><time>2026-03-27T13:49:33.983Z</time></trkpt><trkpt lat="46.0771433" lon="12.560555"><ele>396.0</ele><time>2026-03-27T13:49:36.985Z</time></trkpt><trkpt lat="46.07712" lon="12.5604283"><ele>393.0</ele><time>2026-03-27T13:49:38.983Z</time></trkpt><trkpt lat="46.0771233" lon="12.56025"><ele>393.0</ele><time>2026-03-27T13:49:40.984Z</time></trkpt><trkpt lat="46.0771233" lon="12.560095"><ele>393.0</ele><time>2026-03-27T13:49:42.983Z</time></trkpt><trkpt lat="46.0770983" lon="12.5600117"><ele>393.0</ele><time>2026-03-27T13:49:44.983Z</time></trkpt><trkpt lat="46.0770567" lon="12.5599333"><ele>393.0</ele><time>2026-03-27T13:49:47.982Z</time></trkpt><trkpt lat="46.0769667" lon="12.55987"><ele>393.0</ele><time>2026-03-27T13:49:50.983Z</time></trkpt><trkpt lat="46.0768533" lon="12.5598133"><ele>393.0</ele><time>2026-03-27T13:49:52.984Z</time></trkpt><trkpt lat="46.0767967" lon="12.5597233"><ele>393.0</ele><time>2026-03-27T13:49:54.984Z</time></trkpt><trkpt lat="46.0767247" lon="12.5596637"><ele>393.0</ele><time>2026-03-27T13:49:58.08Z</time></trkpt><trkpt lat="46.0766308" lon="12.5596177"><ele>393.0</ele><time>2026-03-27T13:50:00.018Z</time></trkpt><trkpt lat="46.0764433" lon="12.559545"><ele>390.6666666666667</ele><time>2026-03-27T13:50:01.982Z</time></trkpt><trkpt lat="46.07637" lon="12.5594933"><ele>388.3333333333333</ele><time>2026-03-27T13:50:03.982Z</time></trkpt><trkpt lat="46.0763083" lon="12.5594017"><ele>386.0</ele><time>2026-03-27T13:50:06.982Z</time></trkpt><trkpt lat="46.0762567" lon="12.5593167"><ele>383.66666666666663</ele><time>2026-03-27T13:50:09.982Z</time></trkpt><trkpt lat="46.0762417" lon="12.5592217"><ele>381.3333333333333</ele><time>2026-03-27T13:50:12.982Z</time></trkpt><trkpt lat="46.0761933" lon="12.55915"><ele>379.0</ele><time>2026-03-27T13:50:15.983Z</time></trkpt><trkpt lat="46.0761467" lon="12.55906"><ele>379.0</ele><time>2026-03-27T13:50:19.985Z</time></trkpt><trkpt lat="46.0760967" lon="12.558935"><ele>379.0</ele><time>2026-03-27T13:50:23.982Z</time></trkpt><trkpt lat="46.076055" lon="12.5588267"><ele>379.0</ele><time>2026-03-27T13:50:25.983Z</time></trkpt><trkpt lat="46.07601" lon="12.558695"><ele>379.0</ele><time>2026-03-27T13:50:27.982Z</time></trkpt><trkpt lat="46.0759483" lon="12.558545"><ele>379.0</ele><time>2026-03-27T13:50:29.982Z</time></trkpt><trkpt lat="46.0759033" lon="12.5584267"><ele>379.0</ele><time>2026-03-27T13:50:31.983Z</time></trkpt><trkpt lat="46.0758217" lon="12.5583433"><ele>379.0</ele><time>2026-03-27T13:50:33.984Z</time></trkpt><trkpt lat="46.0757233" lon="12.55834"><ele>379.0</ele><time>2026-03-27T13:50:35.982Z</time></trkpt><trkpt lat="46.07566" lon="12.5583417"><ele>379.0</ele><time>2026-03-27T13:50:36.982Z</time></trkpt><trkpt lat="46.07559" lon="12.558325"><ele>379.0</ele><time>2026-03-27T13:50:37.982Z</time></trkpt><trkpt lat="46.0754967" lon="12.5582917"><ele>379.0</ele><time>2026-03-27T13:50:38.983Z</time></trkpt><trkpt lat="46.0753867" lon="12.55823"><ele>379.0</ele><time>2026-03-27T13:50:39.983Z</time></trkpt><trkpt lat="46.0753" lon="12.55817"><ele>379.0</ele><time>2026-03-27T13:50:40.982Z</time></trkpt><trkpt lat="46.075225" lon="12.5581133"><ele>379.0</ele><time>2026-03-27T13:50:41.983Z</time></trkpt><trkpt lat="46.0751533" lon="12.558055"><ele>379.0</ele><time>2026-03-27T13:50:42.983Z</time></trkpt><trkpt lat="46.07509" lon="12.5580067"><ele>379.0</ele><time>2026-03-27T13:50:43.983Z</time></trkpt><trkpt lat="46.0750283" lon="12.5579617"><ele>379.0</ele><time>2026-03-27T13:50:44.983Z</time></trkpt><trkpt lat="46.074925" lon="12.5578583"><ele>378.3333333333333</ele><time>2026-03-27T13:50:46.982Z</time></trkpt><trkpt lat="46.07482" lon="12.5577783"><ele>377.66666666666663</ele><time>2026-03-27T13:50:48.983Z</time></trkpt><trkpt lat="46.0747633" lon="12.5577333"><ele>377.0</ele><time>2026-03-27T13:50:49.984Z</time></trkpt><trkpt lat="46.0746733" lon="12.5576583"><ele>376.3333333333333</ele><time>2026-03-27T13:50:51.982Z</time></trkpt><trkpt lat="46.0746167" lon="12.5576117"><ele>375.6666666666667</ele><time>2026-03-27T13:50:53.982Z</time></trkpt><trkpt lat="46.0745633" lon="12.5577067"><ele>375.0</ele><time>2026-03-27T13:51:08.983Z</time></trkpt><trkpt lat="46.0745467" lon="12.55782"><ele>373.4</ele><time>2026-03-27T13:51:10.982Z</time></trkpt><trkpt lat="46.07459" lon="12.558"><ele>371.8</ele><time>2026-03-27T13:51:12.982Z</time></trkpt><trkpt lat="46.0746167" lon="12.5581267"><ele>370.20000000000005</ele><time>2026-03-27T13:51:13.983Z</time></trkpt><trkpt lat="46.0746283" lon="12.5582767"><ele>368.6</ele><time>2026-03-27T13:51:14.983Z</time></trkpt><trkpt lat="46.0746333" lon="12.5584067"><ele>367.0</ele><time>2026-03-27T13:51:15.982Z</time></trkpt><trkpt lat="46.07464" lon="12.558535"><ele>367.0</ele><time>2026-03-27T13:51:16.984Z</time></trkpt><trkpt lat="46.0746583" lon="12.55866"><ele>367.0</ele><time>2026-03-27T13:51:17.982Z</time></trkpt><trkpt lat="46.074685" lon="12.5587817"><ele>367.0</ele><time>2026-03-27T13:51:18.983Z</time></trkpt><trkpt lat="46.074735" lon="12.5589167"><ele>367.0</ele><time>2026-03-27T13:51:19.982Z</time></trkpt><trkpt lat="46.0747967" lon="12.5590467"><ele>367.0</ele><time>2026-03-27T13:51:20.983Z</time></trkpt><trkpt lat="46.0748533" lon="12.5591933"><ele>367.16666666666663</ele><time>2026-03-27T13:51:21.984Z</time></trkpt><trkpt lat="46.0749067" lon="12.55932"><ele>367.3333333333333</ele><time>2026-03-27T13:51:22.983Z</time></trkpt><trkpt lat="46.07495" lon="12.5594033"><ele>367.5</ele><time>2026-03-27T13:51:23.984Z</time></trkpt><trkpt lat="46.075" lon="12.5594783"><ele>367.6666666666667</ele><time>2026-03-27T13:51:24.982Z</time></trkpt><trkpt lat="46.0751033" lon="12.5595717"><ele>367.83333333333337</ele><time>2026-03-27T13:51:26.984Z</time></trkpt><trkpt lat="46.0751683" lon="12.5596067"><ele>368.0</ele><time>2026-03-27T13:51:27.982Z</time></trkpt><trkpt lat="46.0752417" lon="12.5596067"><ele>368.0</ele><time>2026-03-27T13:51:28.983Z</time></trkpt><trkpt lat="46.075335" lon="12.5595417"><ele>368.0</ele><time>2026-03-27T13:51:30.982Z</time></trkpt><trkpt lat="46.0754167" lon="12.5595267"><ele>368.0</ele><time>2026-03-27T13:51:32.984Z</time></trkpt><trkpt lat="46.0754633" lon="12.5596067"><ele>368.0</ele><time>2026-03-27T13:51:35.986Z</time></trkpt><trkpt lat="46.07544" lon="12.5597"><ele>368.0</ele><time>2026-03-27T13:51:38.982Z</time></trkpt><trkpt lat="46.07544" lon="12.559815"><ele>368.0</ele><time>2026-03-27T13:51:42.982Z</time></trkpt><trkpt lat="46.075455" lon="12.5599217"><ele>366.0</ele><time>2026-03-27T13:51:44.987Z</time></trkpt><trkpt lat="46.0754767" lon="12.5600183"><ele>364.0</ele><time>2026-03-27T13:51:46.983Z</time></trkpt><trkpt lat="46.0755167" lon="12.56011"><ele>362.0</ele><time>2026-03-27T13:51:48.982Z</time></trkpt><trkpt lat="46.07555" lon="12.5602033"><ele>360.0</ele><time>2026-03-27T13:51:50.984Z</time></trkpt><trkpt lat="46.0755817" lon="12.560295"><ele>358.0</ele><time>2026-03-27T13:51:52.982Z</time></trkpt><trkpt lat="46.0756133" lon="12.5604133"><ele>356.0</ele><time>2026-03-27T13:51:54.983Z</time></trkpt><trkpt lat="46.075625" lon="12.5605167"><ele>353.6666666666667</ele><time>2026-03-27T13:51:56.984Z</time></trkpt><trkpt lat="46.0756217" lon="12.5606617"><ele>351.33333333333337</ele><time>2026-03-27T13:51:58.983Z</time></trkpt><trkpt lat="46.0756083" lon="12.5607583"><ele>349.0</ele><time>2026-03-27T13:51:59.984Z</time></trkpt><trkpt lat="46.0755917" lon="12.5608533"><ele>346.6666666666667</ele><time>2026-03-27T13:52:00.982Z</time></trkpt><trkpt lat="46.0755833" lon="12.56104"><ele>344.3333333333333</ele><time>2026-03-27T13:52:02.984Z</time></trkpt><trkpt lat="46.075595" lon="12.5611467"><ele>342.0</ele><time>2026-03-27T13:52:03.982Z</time></trkpt><trkpt lat="46.07562" lon="12.5612433"><ele>342.8333333333333</ele><time>2026-03-27T13:52:04.983Z</time></trkpt><trkpt lat="46.0756633" lon="12.5613367"><ele>343.6666666666667</ele><time>2026-03-27T13:52:05.983Z</time></trkpt><trkpt lat="46.0757117" lon="12.561425"><ele>344.5</ele><time>2026-03-27T13:52:06.983Z</time></trkpt><trkpt lat="46.0757633" lon="12.5615067"><ele>345.33333333333337</ele><time>2026-03-27T13:52:07.983Z</time></trkpt><trkpt lat="46.07581" lon="12.5615717"><ele>346.1666666666667</ele><time>2026-03-27T13:52:08.982Z</time></trkpt><trkpt lat="46.0758767" lon="12.56162"><ele>347.0</ele><time>2026-03-27T13:52:09.983Z</time></trkpt><trkpt lat="46.075955" lon="12.56167"><ele>347.0</ele><time>2026-03-27T13:52:10.983Z</time></trkpt><trkpt lat="46.07603" lon="12.5617067"><ele>347.0</ele><time>2026-03-27T13:52:11.983Z</time></trkpt><trkpt lat="46.0761017" lon="12.5617383"><ele>347.0</ele><time>2026-03-27T13:52:12.984Z</time></trkpt><trkpt lat="46.076185" lon="12.5617983"><ele>347.0</ele><time>2026-03-27T13:52:13.982Z</time></trkpt><trkpt lat="46.0762483" lon="12.5618867"><ele>347.0</ele><time>2026-03-27T13:52:14.983Z</time></trkpt><trkpt lat="46.0763" lon="12.56199"><ele>347.0</ele><time>2026-03-27T13:52:15.982Z</time></trkpt><trkpt lat="46.07635" lon="12.5620717"><ele>345.6</ele><time>2026-03-27T13:52:16.982Z</time></trkpt><trkpt lat="46.076455" lon="12.5621983"><ele>344.20000000000005</ele><time>2026-03-27T13:52:18.982Z</time></trkpt><trkpt lat="46.076535" lon="12.5622767"><ele>342.8</ele><time>2026-03-27T13:52:19.982Z</time></trkpt><trkpt lat="46.0766117" lon="12.56235"><ele>341.4</ele><time>2026-03-27T13:52:20.983Z</time></trkpt><trkpt lat="46.07668" lon="12.5624233"><ele>340.0</ele><time>2026-03-27T13:52:21.984Z</time></trkpt><trkpt lat="46.0767383" lon="12.5624917"><ele>340.0</ele><time>2026-03-27T13:52:22.982Z</time></trkpt><trkpt lat="46.0767983" lon="12.5625633"><ele>340.0</ele><time>2026-03-27T13:52:23.983Z</time></trkpt><trkpt lat="46.0768517" lon="12.562615"><ele>340.0</ele><time>2026-03-27T13:52:24.984Z</time></trkpt><trkpt lat="46.0769133" lon="12.5626533"><ele>340.0</ele><time>2026-03-27T13:52:25.985Z</time></trkpt><trkpt lat="46.077015" lon="12.56272"><ele>340.0</ele><time>2026-03-27T13:52:27.982Z</time></trkpt><trkpt lat="46.0770883" lon="12.5628"><ele>340.0</ele><time>2026-03-27T13:52:29.982Z</time></trkpt><trkpt lat="46.077035" lon="12.56291"><ele>340.0</ele><time>2026-03-27T13:52:32.982Z</time></trkpt><trkpt lat="46.0769217" lon="12.5628967"><ele>340.0</ele><time>2026-03-27T13:52:34.982Z</time></trkpt><trkpt lat="46.076825" lon="12.5628667"><ele>340.0</ele><time>2026-03-27T13:52:36.982Z</time></trkpt><trkpt lat="46.0767617" lon="12.56285"><ele>340.0</ele><time>2026-03-27T13:52:38.982Z</time></trkpt><trkpt lat="46.076775" lon="12.56296"><ele>340.0</ele><time>2026-03-27T13:52:44.982Z</time></trkpt><trkpt lat="46.07683" lon="12.5630383"><ele>340.0</ele><time>2026-03-27T13:52:46.983Z</time></trkpt><trkpt lat="46.0769067" lon="12.56309"><ele>336.66666666666663</ele><time>2026-03-27T13:52:49.982Z</time></trkpt><trkpt lat="46.0769883" lon="12.56313"><ele>333.3333333333333</ele><time>2026-03-27T13:52:52.982Z</time></trkpt><trkpt lat="46.077115" lon="12.563145"><ele>330.0</ele><time>2026-03-27T13:52:58.983Z</time></trkpt><trkpt lat="46.0771883" lon="12.5631617"><ele>326.6666666666667</ele><time>2026-03-27T13:53:00.983Z</time></trkpt><trkpt lat="46.0772733" lon="12.56312"><ele>323.33333333333337</ele><time>2026-03-27T13:53:03.983Z</time></trkpt><trkpt lat="46.07733" lon="12.56307"><ele>320.0</ele><time>2026-03-27T13:53:05.987Z</time></trkpt><trkpt lat="46.0774117" lon="12.5630333"><ele>319.6</ele><time>2026-03-27T13:53:07.983Z</time></trkpt><trkpt lat="46.077495" lon="12.5629883"><ele>319.2</ele><time>2026-03-27T13:53:09.982Z</time></trkpt><trkpt lat="46.0776017" lon="12.5629317"><ele>318.8</ele><time>2026-03-27T13:53:11.982Z</time></trkpt><trkpt lat="46.077705" lon="12.5628767"><ele>318.4</ele><time>2026-03-27T13:53:13.982Z</time></trkpt><trkpt lat="46.0777883" lon="12.5628383"><ele>318.0</ele><time>2026-03-27T13:53:15.982Z</time></trkpt><trkpt lat="46.0778667" lon="12.5627733"><ele>319.0</ele><time>2026-03-27T13:53:17.982Z</time></trkpt><trkpt lat="46.0779283" lon="12.5627333"><ele>320.0</ele><time>2026-03-27T13:53:18.982Z</time></trkpt><trkpt lat="46.0780467" lon="12.5626567"><ele>321.0</ele><time>2026-03-27T13:53:20.983Z</time></trkpt><trkpt lat="46.0781067" lon="12.5626083"><ele>322.0</ele><time>2026-03-27T13:53:21.982Z</time></trkpt><trkpt lat="46.07818" lon="12.56257"><ele>323.0</ele><time>2026-03-27T13:53:22.983Z</time></trkpt><trkpt lat="46.078245" lon="12.56254"><ele>324.0</ele><time>2026-03-27T13:53:23.982Z</time></trkpt><trkpt lat="46.07831" lon="12.5625167"><ele>324.0</ele><time>2026-03-27T13:53:24.983Z</time></trkpt><trkpt lat="46.0783767" lon="12.56248"><ele>324.0</ele><time>2026-03-27T13:53:25.983Z</time></trkpt><trkpt lat="46.07844" lon="12.5624417"><ele>324.0</ele><time>2026-03-27T13:53:26.983Z</time></trkpt><trkpt lat="46.0785033" lon="12.5624083"><ele>324.0</ele><time>2026-03-27T13:53:27.983Z</time></trkpt><trkpt lat="46.0786283" lon="12.5623567"><ele>324.0</ele><time>2026-03-27T13:53:29.983Z</time></trkpt><trkpt lat="46.0787283" lon="12.562325"><ele>324.0</ele><time>2026-03-27T13:53:31.982Z</time></trkpt><trkpt lat="46.0788433" lon="12.562315"><ele>324.0</ele><time>2026-03-27T13:53:33.982Z</time></trkpt><trkpt lat="46.0789367" lon="12.56237"><ele>324.0</ele><time>2026-03-27T13:53:35.985Z</time></trkpt><trkpt lat="46.0789817" lon="12.562435"><ele>324.0</ele><time>2026-03-27T13:53:36.984Z</time></trkpt><trkpt lat="46.0790183" lon="12.5625283"><ele>324.0</ele><time>2026-03-27T13:53:37.984Z</time></trkpt><trkpt lat="46.0790583" lon="12.5626217"><ele>324.0</ele><time>2026-03-27T13:53:38.983Z</time></trkpt><trkpt lat="46.079095" lon="12.5627067"><ele>324.0</ele><time>2026-03-27T13:53:39.982Z</time></trkpt><trkpt lat="46.0791417" lon="12.562795"><ele>321.1666666666667</ele><time>2026-03-27T13:53:40.982Z</time></trkpt><trkpt lat="46.0791717" lon="12.562875"><ele>318.3333333333333</ele><time>2026-03-27T13:53:41.982Z</time></trkpt><trkpt lat="46.0792017" lon="12.5629617"><ele>315.5</ele><time>2026-03-27T13:53:42.982Z</time></trkpt><trkpt lat="46.0792383" lon="12.5630567"><ele>312.66666666666663</ele><time>2026-03-27T13:53:43.982Z</time></trkpt><trkpt lat="46.0793167" lon="12.5632"><ele>309.8333333333333</ele><time>2026-03-27T13:53:45.982Z</time></trkpt><trkpt lat="46.079375" lon="12.5632567"><ele>307.0</ele><time>2026-03-27T13:53:46.983Z</time></trkpt><trkpt lat="46.07944" lon="12.5633"><ele>307.0</ele><time>2026-03-27T13:53:47.983Z</time></trkpt><trkpt lat="46.0795133" lon="12.5633333"><ele>307.0</ele><time>2026-03-27T13:53:48.983Z</time></trkpt><trkpt lat="46.0795883" lon="12.5633533"><ele>307.0</ele><time>2026-03-27T13:53:49.982Z</time></trkpt><trkpt lat="46.0796867" lon="12.563385"><ele>307.0</ele><time>2026-03-27T13:53:51.985Z</time></trkpt><trkpt lat="46.07976" lon="12.563445"><ele>307.0</ele><time>2026-03-27T13:53:54.985Z</time></trkpt><trkpt lat="46.0798533" lon="12.5635117"><ele>307.0</ele><time>2026-03-27T13:54:08.982Z</time></trkpt><trkpt lat="46.07991" lon="12.5635967"><ele>306.4</ele><time>2026-03-27T13:54:10.983Z</time></trkpt><trkpt lat="46.079965" lon="12.5637233"><ele>305.79999999999995</ele><time>2026-03-27T13:54:12.983Z</time></trkpt><trkpt lat="46.07997" lon="12.5638583"><ele>305.2</ele><time>2026-03-27T13:54:14.983Z</time></trkpt><trkpt lat="46.0798983" lon="12.5639617"><ele>304.59999999999997</ele><time>2026-03-27T13:54:16.983Z</time></trkpt><trkpt lat="46.0798383" lon="12.564065"><ele>304.0</ele><time>2026-03-27T13:54:19.986Z</time></trkpt><trkpt lat="46.079825" lon="12.5642483"><ele>304.4</ele><time>2026-03-27T13:54:21.982Z</time></trkpt><trkpt lat="46.0798083" lon="12.564445"><ele>304.79999999999995</ele><time>2026-03-27T13:54:23.984Z</time></trkpt><trkpt lat="46.0798067" lon="12.564545"><ele>305.20000000000005</ele><time>2026-03-27T13:54:24.983Z</time></trkpt><trkpt lat="46.0797833" lon="12.5647183"><ele>305.6</ele><time>2026-03-27T13:54:26.987Z</time></trkpt><trkpt lat="46.0797633" lon="12.5648617"><ele>306.0</ele><time>2026-03-27T13:54:28.982Z</time></trkpt><trkpt lat="46.079755" lon="12.56502"><ele>306.0</ele><time>2026-03-27T13:54:30.982Z</time></trkpt><trkpt lat="46.07974" lon="12.5652"><ele>306.0</ele><time>2026-03-27T13:54:32.983Z</time></trkpt><trkpt lat="46.0797117" lon="12.565365"><ele>306.0</ele><time>2026-03-27T13:54:34.983Z</time></trkpt><trkpt lat="46.0796817" lon="12.565445"><ele>306.0</ele><time>2026-03-27T13:54:35.983Z</time></trkpt><trkpt lat="46.0796567" lon="12.5655317"><ele>306.0</ele><time>2026-03-27T13:54:36.983Z</time></trkpt><trkpt lat="46.0796383" lon="12.565635"><ele>306.0</ele><time>2026-03-27T13:54:37.986Z</time></trkpt><trkpt lat="46.0796133" lon="12.5657633"><ele>307.0</ele><time>2026-03-27T13:54:38.983Z</time></trkpt><trkpt lat="46.079595" lon="12.565885"><ele>308.0</ele><time>2026-03-27T13:54:39.983Z</time></trkpt><trkpt lat="46.0795833" lon="12.5660017"><ele>309.0</ele><time>2026-03-27T13:54:40.983Z</time></trkpt><trkpt lat="46.07958" lon="12.5661083"><ele>310.0</ele><time>2026-03-27T13:54:41.983Z</time></trkpt><trkpt lat="46.079575" lon="12.56622"><ele>311.0</ele><time>2026-03-27T13:54:42.982Z</time></trkpt><trkpt lat="46.0795583" lon="12.5663617"><ele>312.0</ele><time>2026-03-27T13:54:44.983Z</time></trkpt><trkpt lat="46.0795333" lon="12.5664483"><ele>312.0</ele><time>2026-03-27T13:54:46.987Z</time></trkpt><trkpt lat="46.0795017" lon="12.5665467"><ele>312.0</ele><time>2026-03-27T13:54:48.986Z</time></trkpt><trkpt lat="46.0794733" lon="12.5666733"><ele>312.0</ele><time>2026-03-27T13:54:50.986Z</time></trkpt><trkpt lat="46.0794467" lon="12.5668167"><ele>312.0</ele><time>2026-03-27T13:54:52.982Z</time></trkpt><trkpt lat="46.0793833" lon="12.566965"><ele>312.0</ele><time>2026-03-27T13:54:54.982Z</time></trkpt><trkpt lat="46.0793317" lon="12.5670217"><ele>311.2</ele><time>2026-03-27T13:54:55.986Z</time></trkpt><trkpt lat="46.0792367" lon="12.5671233"><ele>310.4</ele><time>2026-03-27T13:54:57.982Z</time></trkpt><trkpt lat="46.0791783" lon="12.5672583"><ele>309.6</ele><time>2026-03-27T13:54:59.983Z</time></trkpt><trkpt lat="46.0791883" lon="12.5674233"><ele>308.8</ele><time>2026-03-27T13:55:01.983Z</time></trkpt><trkpt lat="46.07918" lon="12.56752"><ele>308.0</ele><time>2026-03-27T13:55:02.984Z</time></trkpt><trkpt lat="46.0791617" lon="12.5676267"><ele>308.0</ele><time>2026-03-27T13:55:04.067Z</time></trkpt><trkpt lat="46.07914" lon="12.56774"><ele>308.0</ele><time>2026-03-27T13:55:04.982Z</time></trkpt><trkpt lat="46.07912" lon="12.56785"><ele>308.0</ele><time>2026-03-27T13:55:05.982Z</time></trkpt><trkpt lat="46.079105" lon="12.5679483"><ele>308.0</ele><time>2026-03-27T13:55:06.982Z</time></trkpt><trkpt lat="46.0790767" lon="12.56813"><ele>308.0</ele><time>2026-03-27T13:55:08.983Z</time></trkpt><trkpt lat="46.0790617" lon="12.5682367"><ele>308.0</ele><time>2026-03-27T13:55:09.983Z</time></trkpt><trkpt lat="46.0790383" lon="12.568365"><ele>305.0</ele><time>2026-03-27T13:55:10.982Z</time></trkpt><trkpt lat="46.079015" lon="12.5685033"><ele>302.0</ele><time>2026-03-27T13:55:11.982Z</time></trkpt><trkpt lat="46.07899" lon="12.5686167"><ele>299.0</ele><time>2026-03-27T13:55:12.983Z</time></trkpt><trkpt lat="46.0789583" lon="12.5687167"><ele>296.0</ele><time>2026-03-27T13:55:13.984Z</time></trkpt><trkpt lat="46.0789183" lon="12.5687983"><ele>293.0</ele><time>2026-03-27T13:55:14.982Z</time></trkpt><trkpt lat="46.0788833" lon="12.568885"><ele>290.0</ele><time>2026-03-27T13:55:15.986Z</time></trkpt><trkpt lat="46.0788383" lon="12.5690317"><ele>289.33333333333337</ele><time>2026-03-27T13:55:17.983Z</time></trkpt><trkpt lat="46.0788133" lon="12.56913"><ele>288.6666666666667</ele><time>2026-03-27T13:55:19.982Z</time></trkpt><trkpt lat="46.0787633" lon="12.5692133"><ele>288.0</ele><time>2026-03-27T13:55:22.982Z</time></trkpt><trkpt lat="46.07868" lon="12.5692867"><ele>287.3333333333333</ele><time>2026-03-27T13:55:25.983Z</time></trkpt><trkpt lat="46.078585" lon="12.56937"><ele>286.66666666666663</ele><time>2026-03-27T13:55:27.982Z</time></trkpt><trkpt lat="46.0785067" lon="12.569425"><ele>286.0</ele><time>2026-03-27T13:55:29.983Z</time></trkpt><trkpt lat="46.0784183" lon="12.5694717"><ele>285.16666666666663</ele><time>2026-03-27T13:55:32.985Z</time></trkpt><trkpt lat="46.0783833" lon="12.5695883"><ele>284.3333333333333</ele><time>2026-03-27T13:55:35.982Z</time></trkpt><trkpt lat="46.07834" lon="12.56966"><ele>283.5</ele><time>2026-03-27T13:55:37.983Z</time></trkpt><trkpt lat="46.0782533" lon="12.569745"><ele>282.6666666666667</ele><time>2026-03-27T13:55:39.985Z</time></trkpt><trkpt lat="46.0781867" lon="12.56983"><ele>281.83333333333337</ele><time>2026-03-27T13:55:41.982Z</time></trkpt><trkpt lat="46.0781483" lon="12.56993"><ele>281.0</ele><time>2026-03-27T13:55:43.983Z</time></trkpt><trkpt lat="46.0780783" lon="12.5700533"><ele>280.40000000000003</ele><time>2026-03-27T13:55:45.982Z</time></trkpt><trkpt lat="46.0780367" lon="12.570125"><ele>279.8</ele><time>2026-03-27T13:55:46.983Z</time></trkpt><trkpt lat="46.0779933" lon="12.5701967"><ele>279.20000000000005</ele><time>2026-03-27T13:55:47.982Z</time></trkpt><trkpt lat="46.0779167" lon="12.5703283"><ele>278.6</ele><time>2026-03-27T13:55:49.987Z</time></trkpt><trkpt lat="46.0778067" lon="12.5704417"><ele>278.0</ele><time>2026-03-27T13:55:51.983Z</time></trkpt><trkpt lat="46.0777433" lon="12.5705117"><ele>277.0</ele><time>2026-03-27T13:55:52.983Z</time></trkpt><trkpt lat="46.07768" lon="12.5705933"><ele>276.0</ele><time>2026-03-27T13:55:53.983Z</time></trkpt><trkpt lat="46.0775867" lon="12.57066"><ele>275.0</ele><time>2026-03-27T13:55:55.984Z</time></trkpt><trkpt lat="46.0776667" lon="12.57066"><ele>274.0</ele><time>2026-03-27T13:56:03.982Z</time></trkpt><trkpt lat="46.0777467" lon="12.5706467"><ele>273.0</ele><time>2026-03-27T13:56:05.984Z</time></trkpt><trkpt lat="46.077815" lon="12.5706433"><ele>272.0</ele><time>2026-03-27T13:56:07.982Z</time></trkpt><trkpt lat="46.077885" lon="12.57063"><ele>272.0</ele><time>2026-03-27T13:56:10.982Z</time></trkpt><trkpt lat="46.0780317" lon="12.5706633"><ele>272.0</ele><time>2026-03-27T14:00:56.983Z</time></trkpt><trkpt lat="46.0780617" lon="12.5705233"><ele>272.0</ele><time>2026-03-27T14:05:56.985Z</time></trkpt><trkpt lat="46.0781417" lon="12.5704667"><ele>272.0</ele><time>2026-03-27T14:05:58.984Z</time></trkpt><trkpt lat="46.078205" lon="12.5704567"><ele>272.0</ele><time>2026-03-27T14:05:59.984Z</time></trkpt><trkpt lat="46.0782733" lon="12.5704383"><ele>269.6</ele><time>2026-03-27T14:06:00.984Z</time></trkpt><trkpt lat="46.07839" lon="12.57042"><ele>267.2</ele><time>2026-03-27T14:06:02.983Z</time></trkpt><trkpt lat="46.0784567" lon="12.57043"><ele>264.8</ele><time>2026-03-27T14:06:03.984Z</time></trkpt><trkpt lat="46.07857" lon="12.570425"><ele>262.4</ele><time>2026-03-27T14:06:05.983Z</time></trkpt><trkpt lat="46.0786433" lon="12.570405"><ele>260.0</ele><time>2026-03-27T14:06:06.983Z</time></trkpt><trkpt lat="46.0787433" lon="12.5704067"><ele>260.0</ele><time>2026-03-27T14:06:07.986Z</time></trkpt><trkpt lat="46.07884" lon="12.5704083"><ele>260.0</ele><time>2026-03-27T14:06:08.984Z</time></trkpt><trkpt lat="46.0789067" lon="12.5704183"><ele>260.0</ele><time>2026-03-27T14:06:09.983Z</time></trkpt><trkpt lat="46.07898" lon="12.5704183"><ele>260.0</ele><time>2026-03-27T14:06:10.983Z</time></trkpt><trkpt lat="46.079055" lon="12.5704067"><ele>260.0</ele><time>2026-03-27T14:06:11.986Z</time></trkpt><trkpt lat="46.0791317" lon="12.5703983"><ele>260.0</ele><time>2026-03-27T14:06:12.984Z</time></trkpt><trkpt lat="46.079205" lon="12.5704"><ele>260.6666666666667</ele><time>2026-03-27T14:06:13.985Z</time></trkpt><trkpt lat="46.0792683" lon="12.5703967"><ele>261.33333333333337</ele><time>2026-03-27T14:06:14.984Z</time></trkpt><trkpt lat="46.079335" lon="12.5703833"><ele>262.0</ele><time>2026-03-27T14:06:15.984Z</time></trkpt><trkpt lat="46.0793967" lon="12.570355"><ele>262.6666666666667</ele><time>2026-03-27T14:06:16.983Z</time></trkpt><trkpt lat="46.0794633" lon="12.5703183"><ele>263.3333333333333</ele><time>2026-03-27T14:06:17.984Z</time></trkpt><trkpt lat="46.0795683" lon="12.5702333"><ele>264.0</ele><time>2026-03-27T14:06:19.983Z</time></trkpt><trkpt lat="46.0796567" lon="12.57006"><ele>264.0</ele><time>2026-03-27T14:06:21.983Z</time></trkpt><trkpt lat="46.0797067" lon="12.5699417"><ele>264.0</ele><time>2026-03-27T14:06:22.983Z</time></trkpt><trkpt lat="46.079765" lon="12.5698167"><ele>264.0</ele><time>2026-03-27T14:06:23.985Z</time></trkpt><trkpt lat="46.0798217" lon="12.569715"><ele>264.0</ele><time>2026-03-27T14:06:24.983Z</time></trkpt><trkpt lat="46.0798617" lon="12.5696017"><ele>264.0</ele><time>2026-03-27T14:06:25.985Z</time></trkpt><trkpt lat="46.079905" lon="12.569515"><ele>261.4</ele><time>2026-03-27T14:06:26.984Z</time></trkpt><trkpt lat="46.079955" lon="12.5694267"><ele>258.79999999999995</ele><time>2026-03-27T14:06:27.983Z</time></trkpt><trkpt lat="46.08001" lon="12.5693317"><ele>256.20000000000005</ele><time>2026-03-27T14:06:28.983Z</time></trkpt><trkpt lat="46.0800517" lon="12.5692067"><ele>253.60000000000002</ele><time>2026-03-27T14:06:29.984Z</time></trkpt><trkpt lat="46.080125" lon="12.5691167"><ele>251.0</ele><time>2026-03-27T14:06:31.983Z</time></trkpt><trkpt lat="46.0802167" lon="12.569145"><ele>251.00000000000003</ele><time>2026-03-27T14:06:33.983Z</time></trkpt><trkpt lat="46.0802917" lon="12.569175"><ele>251.0</ele><time>2026-03-27T14:06:34.985Z</time></trkpt><trkpt lat="46.080375" lon="12.5691983"><ele>251.0</ele><time>2026-03-27T14:06:35.984Z</time></trkpt><trkpt lat="46.0804517" lon="12.56923"><ele>251.0</ele><time>2026-03-27T14:06:36.986Z</time></trkpt><trkpt lat="46.0805367" lon="12.5692883"><ele>251.00000000000003</ele><time>2026-03-27T14:06:37.984Z</time></trkpt><trkpt lat="46.0806317" lon="12.5693633"><ele>251.0</ele><time>2026-03-27T14:06:38.984Z</time></trkpt><trkpt lat="46.080725" lon="12.5694333"><ele>249.20000000000002</ele><time>2026-03-27T14:06:39.983Z</time></trkpt><trkpt lat="46.0808283" lon="12.5695217"><ele>247.40000000000003</ele><time>2026-03-27T14:06:40.983Z</time></trkpt><trkpt lat="46.0809033" lon="12.569615"><ele>245.6</ele><time>2026-03-27T14:06:41.983Z</time></trkpt><trkpt lat="46.0809667" lon="12.5697017"><ele>243.8</ele><time>2026-03-27T14:06:42.984Z</time></trkpt><trkpt lat="46.08103" lon="12.569785"><ele>242.0</ele><time>2026-03-27T14:06:43.983Z</time></trkpt><trkpt lat="46.0810833" lon="12.569845"><ele>238.2</ele><time>2026-03-27T14:06:44.983Z</time></trkpt><trkpt lat="46.0811367" lon="12.5699017"><ele>234.39999999999998</ele><time>2026-03-27T14:06:45.983Z</time></trkpt><trkpt lat="46.0812117" lon="12.57"><ele>230.60000000000002</ele><time>2026-03-27T14:06:47.983Z</time></trkpt><trkpt lat="46.0811917" lon="12.5700917"><ele>226.8</ele><time>2026-03-27T14:06:49.983Z</time></trkpt><trkpt lat="46.0810983" lon="12.57019"><ele>223.0</ele><time>2026-03-27T14:06:51.983Z</time></trkpt><trkpt lat="46.0810067" lon="12.5702883"><ele>224.0</ele><time>2026-03-27T14:06:53.982Z</time></trkpt><trkpt lat="46.0809533" lon="12.57038"><ele>225.0</ele><time>2026-03-27T14:06:55.982Z</time></trkpt><trkpt lat="46.0808883" lon="12.570495"><ele>226.0</ele><time>2026-03-27T14:06:57.982Z</time></trkpt><trkpt lat="46.0808267" lon="12.5705767"><ele>227.0</ele><time>2026-03-27T14:06:58.982Z</time></trkpt><trkpt lat="46.0807517" lon="12.5706567"><ele>228.0</ele><time>2026-03-27T14:06:59.982Z</time></trkpt><trkpt lat="46.0806667" lon="12.5707383"><ele>228.0</ele><time>2026-03-27T14:07:00.982Z</time></trkpt><trkpt lat="46.0805833" lon="12.570825"><ele>228.0</ele><time>2026-03-27T14:07:01.982Z</time></trkpt><trkpt lat="46.0805" lon="12.5709183"><ele>228.0</ele><time>2026-03-27T14:07:02.984Z</time></trkpt><trkpt lat="46.0804117" lon="12.571025"><ele>228.0</ele><time>2026-03-27T14:07:03.982Z</time></trkpt><trkpt lat="46.0803183" lon="12.571145"><ele>228.0</ele><time>2026-03-27T14:07:04.982Z</time></trkpt><trkpt lat="46.0802167" lon="12.57128"><ele>227.5</ele><time>2026-03-27T14:07:05.982Z</time></trkpt><trkpt lat="46.080115" lon="12.5713983"><ele>227.0</ele><time>2026-03-27T14:07:06.983Z</time></trkpt><trkpt lat="46.0800283" lon="12.5715417"><ele>226.5</ele><time>2026-03-27T14:07:07.982Z</time></trkpt><trkpt lat="46.079945" lon="12.5717033"><ele>226.0</ele><time>2026-03-27T14:07:08.982Z</time></trkpt><trkpt lat="46.0798733" lon="12.5718633"><ele>225.99999999999997</ele><time>2026-03-27T14:07:09.982Z</time></trkpt><trkpt lat="46.0798117" lon="12.5719733"><ele>226.0</ele><time>2026-03-27T14:07:10.983Z</time></trkpt><trkpt lat="46.0797617" lon="12.5720583"><ele>226.0</ele><time>2026-03-27T14:07:11.982Z</time></trkpt><trkpt lat="46.0797167" lon="12.5721267"><ele>226.0</ele><time>2026-03-27T14:07:12.982Z</time></trkpt><trkpt lat="46.079645" lon="12.5722267"><ele>225.99999999999997</ele><time>2026-03-27T14:07:14.983Z</time></trkpt><trkpt lat="46.0795733" lon="12.5722867"><ele>226.0</ele><time>2026-03-27T14:07:16.982Z</time></trkpt><trkpt lat="46.0794417" lon="12.572305"><ele>224.60000000000002</ele><time>2026-03-27T14:07:18.982Z</time></trkpt><trkpt lat="46.0793533" lon="12.5723233"><ele>223.20000000000002</ele><time>2026-03-27T14:07:19.982Z</time></trkpt><trkpt lat="46.0792517" lon="12.57235"><ele>221.79999999999998</ele><time>2026-03-27T14:07:20.982Z</time></trkpt><trkpt lat="46.0791467" lon="12.5724"><ele>220.39999999999998</ele><time>2026-03-27T14:07:21.982Z</time></trkpt><trkpt lat="46.0790483" lon="12.5724617"><ele>219.0</ele><time>2026-03-27T14:07:22.982Z</time></trkpt><trkpt lat="46.0789633" lon="12.5725033"><ele>219.0</ele><time>2026-03-27T14:07:23.983Z</time></trkpt><trkpt lat="46.0788867" lon="12.5725383"><ele>219.0</ele><time>2026-03-27T14:07:24.983Z</time></trkpt><trkpt lat="46.0788167" lon="12.57258"><ele>219.0</ele><time>2026-03-27T14:07:25.983Z</time></trkpt><trkpt lat="46.0787467" lon="12.5726233"><ele>219.0</ele><time>2026-03-27T14:07:26.982Z</time></trkpt><trkpt lat="46.078685" lon="12.57266"><ele>219.0</ele><time>2026-03-27T14:07:27.983Z</time></trkpt><trkpt lat="46.0785883" lon="12.5727317"><ele>219.0</ele><time>2026-03-27T14:07:29.984Z</time></trkpt><trkpt lat="46.0785117" lon="12.5728117"><ele>217.6</ele><time>2026-03-27T14:07:31.983Z</time></trkpt><trkpt lat="46.0784117" lon="12.572885"><ele>216.2</ele><time>2026-03-27T14:07:33.982Z</time></trkpt><trkpt lat="46.0783367" lon="12.5729317"><ele>214.79999999999998</ele><time>2026-03-27T14:07:36.983Z</time></trkpt><trkpt lat="46.0783117" lon="12.5730817"><ele>213.39999999999998</ele><time>2026-03-27T14:07:38.982Z</time></trkpt><trkpt lat="46.0782867" lon="12.5732133"><ele>212.0</ele><time>2026-03-27T14:07:40.982Z</time></trkpt><trkpt lat="46.07824" lon="12.5732817"><ele>213.83333333333334</ele><time>2026-03-27T14:07:42.982Z</time></trkpt><trkpt lat="46.07821" lon="12.5733717"><ele>215.66666666666669</ele><time>2026-03-27T14:07:44.984Z</time></trkpt><trkpt lat="46.0782067" lon="12.573505"><ele>217.5</ele><time>2026-03-27T14:07:46.982Z</time></trkpt><trkpt lat="46.0782233" lon="12.5736083"><ele>219.33333333333331</ele><time>2026-03-27T14:07:48.982Z</time></trkpt><trkpt lat="46.0782333" lon="12.573725"><ele>221.16666666666666</ele><time>2026-03-27T14:07:50.982Z</time></trkpt><trkpt lat="46.0782317" lon="12.5738433"><ele>223.0</ele><time>2026-03-27T14:07:52.983Z</time></trkpt><trkpt lat="46.0782067" lon="12.5739683"><ele>222.99999999999997</ele><time>2026-03-27T14:07:54.982Z</time></trkpt><trkpt lat="46.0781567" lon="12.5741067"><ele>223.0</ele><time>2026-03-27T14:07:56.981Z</time></trkpt><trkpt lat="46.07812" lon="12.574185"><ele>223.0</ele><time>2026-03-27T14:07:57.982Z</time></trkpt><trkpt lat="46.0780733" lon="12.57425"><ele>223.0</ele><time>2026-03-27T14:07:58.983Z</time></trkpt><trkpt lat="46.078025" lon="12.5743233"><ele>222.99999999999997</ele><time>2026-03-27T14:07:59.982Z</time></trkpt><trkpt lat="46.0779733" lon="12.5743917"><ele>223.0</ele><time>2026-03-27T14:08:00.982Z</time></trkpt><trkpt lat="46.0779117" lon="12.5744733"><ele>218.4</ele><time>2026-03-27T14:08:01.982Z</time></trkpt><trkpt lat="46.0778383" lon="12.57458"><ele>213.8</ele><time>2026-03-27T14:08:02.983Z</time></trkpt><trkpt lat="46.0777633" lon="12.5746883"><ele>209.2</ele><time>2026-03-27T14:08:03.983Z</time></trkpt><trkpt lat="46.0776833" lon="12.57477"><ele>204.6</ele><time>2026-03-27T14:08:04.982Z</time></trkpt><trkpt lat="46.0775833" lon="12.5748317"><ele>200.0</ele><time>2026-03-27T14:08:05.983Z</time></trkpt><trkpt lat="46.0774517" lon="12.5748933"><ele>201.0</ele><time>2026-03-27T14:08:06.983Z</time></trkpt><trkpt lat="46.0773" lon="12.574975"><ele>202.0</ele><time>2026-03-27T14:08:07.983Z</time></trkpt><trkpt lat="46.07715" lon="12.5750517"><ele>203.0</ele><time>2026-03-27T14:08:08.984Z</time></trkpt><trkpt lat="46.077015" lon="12.5751067"><ele>203.0</ele><time>2026-03-27T14:08:09.982Z</time></trkpt><trkpt lat="46.0768767" lon="12.5751317"><ele>203.0</ele><time>2026-03-27T14:08:10.983Z</time></trkpt><trkpt lat="46.0767217" lon="12.57515"><ele>203.0</ele><time>2026-03-27T14:08:11.982Z</time></trkpt><trkpt lat="46.0765717" lon="12.5751667"><ele>203.0</ele><time>2026-03-27T14:08:12.982Z</time></trkpt><trkpt lat="46.076445" lon="12.5751817"><ele>202.33333333333334</ele><time>2026-03-27T14:08:13.983Z</time></trkpt><trkpt lat="46.0763517" lon="12.5751867"><ele>201.66666666666669</ele><time>2026-03-27T14:08:14.983Z</time></trkpt><trkpt lat="46.07628" lon="12.5751917"><ele>201.0</ele><time>2026-03-27T14:08:15.982Z</time></trkpt><trkpt lat="46.0762167" lon="12.575195"><ele>200.33333333333331</ele><time>2026-03-27T14:08:16.982Z</time></trkpt><trkpt lat="46.0761267" lon="12.5751717"><ele>199.66666666666666</ele><time>2026-03-27T14:08:18.983Z</time></trkpt><trkpt lat="46.076035" lon="12.5751683"><ele>199.0</ele><time>2026-03-27T14:08:20.983Z</time></trkpt><trkpt lat="46.07593" lon="12.5751583"><ele>198.99999999999997</ele><time>2026-03-27T14:08:22.988Z</time></trkpt><trkpt lat="46.0758367" lon="12.5751083"><ele>199.0</ele><time>2026-03-27T14:08:24.982Z</time></trkpt><trkpt lat="46.07579" lon="12.5750217"><ele>199.0</ele><time>2026-03-27T14:08:26.983Z</time></trkpt><trkpt lat="46.0757583" lon="12.5748733"><ele>199.0</ele><time>2026-03-27T14:08:28.982Z</time></trkpt><trkpt lat="46.0757417" lon="12.574785"><ele>198.99999999999997</ele><time>2026-03-27T14:08:29.987Z</time></trkpt><trkpt lat="46.0757217" lon="12.574685"><ele>199.0</ele><time>2026-03-27T14:08:30.982Z</time></trkpt><trkpt lat="46.0757033" lon="12.5745767"><ele>200.0</ele><time>2026-03-27T14:08:31.982Z</time></trkpt><trkpt lat="46.0757" lon="12.5744783"><ele>201.0</ele><time>2026-03-27T14:08:32.983Z</time></trkpt><trkpt lat="46.075705" lon="12.5743017"><ele>202.0</ele><time>2026-03-27T14:08:34.984Z</time></trkpt><trkpt lat="46.0757267" lon="12.57415"><ele>203.0</ele><time>2026-03-27T14:08:36.983Z</time></trkpt><trkpt lat="46.0756967" lon="12.5739817"><ele>204.0</ele><time>2026-03-27T14:08:38.983Z</time></trkpt><trkpt lat="46.075665" lon="12.5738917"><ele>204.0</ele><time>2026-03-27T14:08:39.982Z</time></trkpt><trkpt lat="46.075635" lon="12.5738017"><ele>204.0</ele><time>2026-03-27T14:08:40.983Z</time></trkpt><trkpt lat="46.075595" lon="12.573715"><ele>204.0</ele><time>2026-03-27T14:08:41.986Z</time></trkpt><trkpt lat="46.07555" lon="12.5736333"><ele>204.0</ele><time>2026-03-27T14:08:42.982Z</time></trkpt><trkpt lat="46.0755" lon="12.573545"><ele>204.0</ele><time>2026-03-27T14:08:43.983Z</time></trkpt><trkpt lat="46.0754433" lon="12.5734333"><ele>204.0</ele><time>2026-03-27T14:08:44.983Z</time></trkpt><trkpt lat="46.07541" lon="12.5733183"><ele>206.0</ele><time>2026-03-27T14:08:45.983Z</time></trkpt><trkpt lat="46.075355" lon="12.5731733"><ele>208.0</ele><time>2026-03-27T14:08:46.984Z</time></trkpt><trkpt lat="46.0752983" lon="12.5730483"><ele>209.99999999999997</ele><time>2026-03-27T14:08:47.982Z</time></trkpt><trkpt lat="46.07525" lon="12.57292"><ele>212.0</ele><time>2026-03-27T14:08:48.984Z</time></trkpt><trkpt lat="46.07521" lon="12.5728183"><ele>214.0</ele><time>2026-03-27T14:08:49.983Z</time></trkpt><trkpt lat="46.0751933" lon="12.5727217"><ele>215.6</ele><time>2026-03-27T14:08:50.983Z</time></trkpt><trkpt lat="46.075205" lon="12.572615"><ele>217.2</ele><time>2026-03-27T14:08:51.982Z</time></trkpt><trkpt lat="46.0751883" lon="12.57247"><ele>218.79999999999998</ele><time>2026-03-27T14:08:52.989Z</time></trkpt><trkpt lat="46.075165" lon="12.5722717"><ele>220.39999999999998</ele><time>2026-03-27T14:08:53.984Z</time></trkpt><trkpt lat="46.0751347" lon="12.5721044"><ele>222.0</ele><time>2026-03-27T14:08:54.982Z</time></trkpt><trkpt lat="46.0751103" lon="12.5719797"><ele>222.6</ele><time>2026-03-27T14:08:55.983Z</time></trkpt><trkpt lat="46.0750928" lon="12.5718861"><ele>223.2</ele><time>2026-03-27T14:08:56.984Z</time></trkpt><trkpt lat="46.0750753" lon="12.5717409"><ele>223.8</ele><time>2026-03-27T14:08:58.983Z</time></trkpt><trkpt lat="46.0750672" lon="12.5715842"><ele>224.4</ele><time>2026-03-27T14:09:00.982Z</time></trkpt><trkpt lat="46.07499" lon="12.571405"><ele>225.0</ele><time>2026-03-27T14:09:11.982Z</time></trkpt><trkpt lat="46.07489" lon="12.5713333"><ele>222.4</ele><time>2026-03-27T14:09:13.984Z</time></trkpt><trkpt lat="46.0747733" lon="12.5712617"><ele>219.8</ele><time>2026-03-27T14:09:15.982Z</time></trkpt><trkpt lat="46.07471" lon="12.5712433"><ele>217.2</ele><time>2026-03-27T14:09:16.983Z</time></trkpt><trkpt lat="46.0746283" lon="12.5712267"><ele>214.6</ele><time>2026-03-27T14:09:17.983Z</time></trkpt><trkpt lat="46.0745517" lon="12.571225"><ele>212.0</ele><time>2026-03-27T14:09:18.983Z</time></trkpt><trkpt lat="46.074425" lon="12.5712067"><ele>212.00000000000003</ele><time>2026-03-27T14:09:20.983Z</time></trkpt><trkpt lat="46.0743083" lon="12.5712183"><ele>212.0</ele><time>2026-03-27T14:09:22.984Z</time></trkpt><trkpt lat="46.0741933" lon="12.5712567"><ele>212.0</ele><time>2026-03-27T14:09:24.984Z</time></trkpt><trkpt lat="46.0741283" lon="12.5712683"><ele>212.0</ele><time>2026-03-27T14:09:25.985Z</time></trkpt><trkpt lat="46.0740633" lon="12.571285"><ele>212.00000000000003</ele><time>2026-03-27T14:09:26.983Z</time></trkpt><trkpt lat="46.0739933" lon="12.5713367"><ele>212.0</ele><time>2026-03-27T14:09:27.982Z</time></trkpt><trkpt lat="46.0739267" lon="12.57139"><ele>209.71428571428572</ele><time>2026-03-27T14:09:28.983Z</time></trkpt><trkpt lat="46.0738667" lon="12.5714417"><ele>207.42857142857142</ele><time>2026-03-27T14:09:29.983Z</time></trkpt><trkpt lat="46.0738067" lon="12.5714917"><ele>205.14285714285714</ele><time>2026-03-27T14:09:30.982Z</time></trkpt><trkpt lat="46.0737467" lon="12.5715333"><ele>202.85714285714286</ele><time>2026-03-27T14:09:31.982Z</time></trkpt><trkpt lat="46.0736683" lon="12.571545"><ele>200.57142857142856</ele><time>2026-03-27T14:09:33.983Z</time></trkpt><trkpt lat="46.073635" lon="12.5714667"><ele>198.28571428571428</ele><time>2026-03-27T14:09:36.983Z</time></trkpt><trkpt lat="46.0736317" lon="12.5713567"><ele>196.0</ele><time>2026-03-27T14:09:38.984Z</time></trkpt><trkpt lat="46.07365" lon="12.571215"><ele>194.0</ele><time>2026-03-27T14:09:40.982Z</time></trkpt><trkpt lat="46.0736867" lon="12.571075"><ele>192.0</ele><time>2026-03-27T14:09:42.983Z</time></trkpt><trkpt lat="46.0737433" lon="12.5709483"><ele>190.0</ele><time>2026-03-27T14:09:44.983Z</time></trkpt><trkpt lat="46.073805" lon="12.5708117"><ele>188.0</ele><time>2026-03-27T14:09:46.981Z</time></trkpt><trkpt lat="46.0738833" lon="12.570715"><ele>186.0</ele><time>2026-03-27T14:09:48.982Z</time></trkpt><trkpt lat="46.0739567" lon="12.57068"><ele>186.0</ele><time>2026-03-27T14:09:50.984Z</time></trkpt><trkpt lat="46.0740167" lon="12.5706383"><ele>186.0</ele><time>2026-03-27T14:09:52.982Z</time></trkpt><trkpt lat="46.07409" lon="12.570585"><ele>186.0</ele><time>2026-03-27T14:09:54.982Z</time></trkpt><trkpt lat="46.0741633" lon="12.5705617"><ele>186.0</ele><time>2026-03-27T14:09:56.983Z</time></trkpt><trkpt lat="46.0742483" lon="12.5705117"><ele>186.0</ele><time>2026-03-27T14:09:58.983Z</time></trkpt><trkpt lat="46.0743417" lon="12.57045"><ele>186.0</ele><time>2026-03-27T14:10:00.983Z</time></trkpt><trkpt lat="46.0744417" lon="12.57042"><ele>185.4</ele><time>2026-03-27T14:10:02.983Z</time></trkpt><trkpt lat="46.0745083" lon="12.5703883"><ele>184.8</ele><time>2026-03-27T14:10:04.982Z</time></trkpt><trkpt lat="46.0744783" lon="12.5703083"><ele>184.20000000000002</ele><time>2026-03-27T14:10:11.982Z</time></trkpt><trkpt lat="46.07435" lon="12.570245"><ele>183.60000000000002</ele><time>2026-03-27T14:10:20.982Z</time></trkpt><trkpt lat="46.0742633" lon="12.570225"><ele>183.0</ele><time>2026-03-27T14:10:21.982Z</time></trkpt><trkpt lat="46.0741533" lon="12.5702017"><ele>180.75</ele><time>2026-03-27T14:10:22.981Z</time></trkpt><trkpt lat="46.074025" lon="12.5701817"><ele>178.5</ele><time>2026-03-27T14:10:23.982Z</time></trkpt><trkpt lat="46.07389" lon="12.5701633"><ele>176.25</ele><time>2026-03-27T14:10:24.982Z</time></trkpt><trkpt lat="46.0737567" lon="12.570155"><ele>174.0</ele><time>2026-03-27T14:10:25.982Z</time></trkpt><trkpt lat="46.0736333" lon="12.5701417"><ele>174.0</ele><time>2026-03-27T14:10:26.982Z</time></trkpt><trkpt lat="46.07353" lon="12.5701117"><ele>174.0</ele><time>2026-03-27T14:10:27.982Z</time></trkpt><trkpt lat="46.073425" lon="12.5700817"><ele>174.0</ele><time>2026-03-27T14:10:28.983Z</time></trkpt><trkpt lat="46.0733033" lon="12.5700567"><ele>174.0</ele><time>2026-03-27T14:10:29.984Z</time></trkpt><trkpt lat="46.073185" lon="12.5700367"><ele>172.75</ele><time>2026-03-27T14:10:30.982Z</time></trkpt><trkpt lat="46.0730767" lon="12.5700317"><ele>171.5</ele><time>2026-03-27T14:10:31.983Z</time></trkpt><trkpt lat="46.0729717" lon="12.570045"><ele>170.25</ele><time>2026-03-27T14:10:32.984Z</time></trkpt><trkpt lat="46.0728633" lon="12.57009"><ele>169.0</ele><time>2026-03-27T14:10:33.982Z</time></trkpt><trkpt lat="46.0727467" lon="12.5701967"><ele>169.0</ele><time>2026-03-27T14:10:34.982Z</time></trkpt><trkpt lat="46.0726267" lon="12.57034"><ele>169.0</ele><time>2026-03-27T14:10:35.983Z</time></trkpt><trkpt lat="46.0725083" lon="12.5705183"><ele>169.0</ele><time>2026-03-27T14:10:36.983Z</time></trkpt><trkpt lat="46.0724" lon="12.57072"><ele>167.66666666666669</ele><time>2026-03-27T14:10:37.987Z</time></trkpt><trkpt lat="46.0722983" lon="12.570925"><ele>166.33333333333334</ele><time>2026-03-27T14:10:38.983Z</time></trkpt><trkpt lat="46.0722017" lon="12.5711083"><ele>165.0</ele><time>2026-03-27T14:10:39.982Z</time></trkpt><trkpt lat="46.0721183" lon="12.5712767"><ele>164.8</ele><time>2026-03-27T14:10:40.985Z</time></trkpt><trkpt lat="46.0720483" lon="12.5714167"><ele>164.6</ele><time>2026-03-27T14:10:41.982Z</time></trkpt><trkpt lat="46.0719883" lon="12.5715417"><ele>164.39999999999998</ele><time>2026-03-27T14:10:42.982Z</time></trkpt><trkpt lat="46.0719317" lon="12.5716517"><ele>164.2</ele><time>2026-03-27T14:10:43.982Z</time></trkpt><trkpt lat="46.0718767" lon="12.5717467"><ele>164.0</ele><time>2026-03-27T14:10:44.983Z</time></trkpt><trkpt lat="46.0718217" lon="12.5718333"><ele>164.0</ele><time>2026-03-27T14:10:45.982Z</time></trkpt><trkpt lat="46.0717567" lon="12.5719333"><ele>164.0</ele><time>2026-03-27T14:10:46.984Z</time></trkpt><trkpt lat="46.0716883" lon="12.5720483"><ele>164.0</ele><time>2026-03-27T14:10:47.982Z</time></trkpt><trkpt lat="46.0716217" lon="12.572145"><ele>164.0</ele><time>2026-03-27T14:10:48.983Z</time></trkpt><trkpt lat="46.0715533" lon="12.5722033"><ele>164.0</ele><time>2026-03-27T14:10:49.982Z</time></trkpt><trkpt lat="46.0714717" lon="12.5722033"><ele>163.33333333333331</ele><time>2026-03-27T14:10:50.989Z</time></trkpt><trkpt lat="46.0713767" lon="12.5721517"><ele>162.66666666666666</ele><time>2026-03-27T14:10:51.982Z</time></trkpt><trkpt lat="46.0712883" lon="12.5720783"><ele>162.0</ele><time>2026-03-27T14:10:52.984Z</time></trkpt><trkpt lat="46.0712067" lon="12.572025"><ele>161.33333333333334</ele><time>2026-03-27T14:10:53.983Z</time></trkpt><trkpt lat="46.0711267" lon="12.572"><ele>160.66666666666669</ele><time>2026-03-27T14:10:54.982Z</time></trkpt><trkpt lat="46.071055" lon="12.5719967"><ele>160.0</ele><time>2026-03-27T14:10:55.982Z</time></trkpt><trkpt lat="46.0709417" lon="12.5720083"><ele>160.0</ele><time>2026-03-27T14:10:57.982Z</time></trkpt><trkpt lat="46.0708783" lon="12.572015"><ele>160.0</ele><time>2026-03-27T14:11:00.984Z</time></trkpt><trkpt lat="46.0707983" lon="12.5719683"><ele>160.0</ele><time>2026-03-27T14:11:22.981Z</time></trkpt><trkpt lat="46.07071" lon="12.5719"><ele>160.0</ele><time>2026-03-27T14:11:23.982Z</time></trkpt><trkpt lat="46.0706033" lon="12.571825"><ele>160.0</ele><time>2026-03-27T14:11:24.982Z</time></trkpt><trkpt lat="46.07048" lon="12.5717683"><ele>159.5</ele><time>2026-03-27T14:11:25.984Z</time></trkpt><trkpt lat="46.0703433" lon="12.5717267"><ele>159.0</ele><time>2026-03-27T14:11:26.983Z</time></trkpt><trkpt lat="46.0701983" lon="12.57169"><ele>158.5</ele><time>2026-03-27T14:11:27.982Z</time></trkpt><trkpt lat="46.0700483" lon="12.5716767"><ele>158.0</ele><time>2026-03-27T14:11:28.982Z</time></trkpt><trkpt lat="46.0698917" lon="12.5716883"><ele>158.0</ele><time>2026-03-27T14:11:29.983Z</time></trkpt><trkpt lat="46.0697367" lon="12.5717167"><ele>158.0</ele><time>2026-03-27T14:11:30.983Z</time></trkpt><trkpt lat="46.06958" lon="12.5717317"><ele>158.0</ele><time>2026-03-27T14:11:31.984Z</time></trkpt><trkpt lat="46.0694267" lon="12.5717417"><ele>158.0</ele><time>2026-03-27T14:11:32.983Z</time></trkpt><trkpt lat="46.0692817" lon="12.5717567"><ele>158.0</ele><time>2026-03-27T14:11:33.988Z</time></trkpt><trkpt lat="46.0691433" lon="12.5717733"><ele>158.0</ele><time>2026-03-27T14:11:34.982Z</time></trkpt><trkpt lat="46.0690083" lon="12.57178"><ele>158.0</ele><time>2026-03-27T14:11:35.982Z</time></trkpt><trkpt lat="46.0688817" lon="12.5717633"><ele>157.0</ele><time>2026-03-27T14:11:36.982Z</time></trkpt><trkpt lat="46.068765" lon="12.5717467"><ele>156.0</ele><time>2026-03-27T14:11:37.982Z</time></trkpt><trkpt lat="46.0686633" lon="12.5717033"><ele>155.0</ele><time>2026-03-27T14:11:38.983Z</time></trkpt><trkpt lat="46.0685667" lon="12.5716483"><ele>154.0</ele><time>2026-03-27T14:11:39.984Z</time></trkpt><trkpt lat="46.0684667" lon="12.5715817"><ele>153.0</ele><time>2026-03-27T14:11:40.983Z</time></trkpt><trkpt lat="46.0683583" lon="12.5715067"><ele>152.25</ele><time>2026-03-27T14:11:41.983Z</time></trkpt><trkpt lat="46.06825" lon="12.57141"><ele>151.5</ele><time>2026-03-27T14:11:42.982Z</time></trkpt><trkpt lat="46.0681483" lon="12.5712867"><ele>150.75</ele><time>2026-03-27T14:11:43.983Z</time></trkpt><trkpt lat="46.0680433" lon="12.5711567"><ele>150.0</ele><time>2026-03-27T14:11:44.984Z</time></trkpt><trkpt lat="46.067935" lon="12.5710217"><ele>150.0</ele><time>2026-03-27T14:11:45.982Z</time></trkpt><trkpt lat="46.0678283" lon="12.570885"><ele>150.0</ele><time>2026-03-27T14:11:46.982Z</time></trkpt><trkpt lat="46.067715" lon="12.570745"><ele>150.0</ele><time>2026-03-27T14:11:47.986Z</time></trkpt><trkpt lat="46.0675983" lon="12.5706033"><ele>150.0</ele><time>2026-03-27T14:11:48.983Z</time></trkpt><trkpt lat="46.0674767" lon="12.570465"><ele>149.0</ele><time>2026-03-27T14:11:49.982Z</time></trkpt><trkpt lat="46.0673567" lon="12.57032"><ele>148.0</ele><time>2026-03-27T14:11:50.983Z</time></trkpt><trkpt lat="46.06724" lon="12.5701583"><ele>147.0</ele><time>2026-03-27T14:11:51.982Z</time></trkpt><trkpt lat="46.0671233" lon="12.57"><ele>147.0</ele><time>2026-03-27T14:11:52.983Z</time></trkpt><trkpt lat="46.0670033" lon="12.5698517"><ele>147.0</ele><time>2026-03-27T14:11:53.983Z</time></trkpt><trkpt lat="46.0668867" lon="12.569705"><ele>147.0</ele><time>2026-03-27T14:11:54.983Z</time></trkpt><trkpt lat="46.0667667" lon="12.5695617"><ele>146.66666666666666</ele><time>2026-03-27T14:11:55.982Z</time></trkpt><trkpt lat="46.0666467" lon="12.5694133"><ele>146.33333333333331</ele><time>2026-03-27T14:11:56.983Z</time></trkpt><trkpt lat="46.06653" lon="12.5692583"><ele>146.0</ele><time>2026-03-27T14:11:57.982Z</time></trkpt><trkpt lat="46.0664083" lon="12.5691033"><ele>146.0</ele><time>2026-03-27T14:11:58.984Z</time></trkpt><trkpt lat="46.0662861" lon="12.5689434"><ele>146.0</ele><time>2026-03-27T14:11:59.984Z</time></trkpt><trkpt lat="46.0661639" lon="12.5687833"><ele>146.0</ele><time>2026-03-27T14:12:00.984Z</time></trkpt><trkpt lat="46.0660391" lon="12.5686202"><ele>146.0</ele><time>2026-03-27T14:12:01.983Z</time></trkpt><trkpt lat="46.0659101" lon="12.5684546"><ele>146.0</ele><time>2026-03-27T14:12:02.983Z</time></trkpt><trkpt lat="46.0657837" lon="12.5682841"><ele>146.0</ele><time>2026-03-27T14:12:03.983Z</time></trkpt><trkpt lat="46.0656517" lon="12.5681192"><ele>145.66666666666666</ele><time>2026-03-27T14:12:04.983Z</time></trkpt><trkpt lat="46.0655217" lon="12.5679487"><ele>145.33333333333334</ele><time>2026-03-27T14:12:05.983Z</time></trkpt><trkpt lat="46.0653918" lon="12.5677877"><ele>145.0</ele><time>2026-03-27T14:12:06.983Z</time></trkpt><trkpt lat="46.0652581" lon="12.5676473"><ele>144.66666666666669</ele><time>2026-03-27T14:12:07.983Z</time></trkpt><trkpt lat="46.0651132" lon="12.5675325"><ele>144.33333333333334</ele><time>2026-03-27T14:12:08.984Z</time></trkpt><trkpt lat="46.0649535" lon="12.5674519"><ele>144.0</ele><time>2026-03-27T14:12:09.983Z</time></trkpt><trkpt lat="46.0647828" lon="12.5674073"><ele>144.0</ele><time>2026-03-27T14:12:10.983Z</time></trkpt><trkpt lat="46.0646059" lon="12.5673775"><ele>144.0</ele><time>2026-03-27T14:12:11.983Z</time></trkpt><trkpt lat="46.0644276" lon="12.5673522"><ele>144.0</ele><time>2026-03-27T14:12:12.982Z</time></trkpt><trkpt lat="46.0642524" lon="12.5673304"><ele>142.66666666666666</ele><time>2026-03-27T14:12:13.983Z</time></trkpt><trkpt lat="46.0640833" lon="12.5673037"><ele>141.33333333333331</ele><time>2026-03-27T14:12:14.983Z</time></trkpt><trkpt lat="46.0639179" lon="12.5672715"><ele>140.0</ele><time>2026-03-27T14:12:15.984Z</time></trkpt><trkpt lat="46.0637514" lon="12.5672393"><ele>140.0</ele><time>2026-03-27T14:12:16.982Z</time></trkpt><trkpt lat="46.0635851" lon="12.5672014"><ele>140.0</ele><time>2026-03-27T14:12:17.982Z</time></trkpt><trkpt lat="46.0634226" lon="12.5671375"><ele>140.0</ele><time>2026-03-27T14:12:18.982Z</time></trkpt><trkpt lat="46.0632653" lon="12.5670448"><ele>138.33333333333331</ele><time>2026-03-27T14:12:19.985Z</time></trkpt><trkpt lat="46.0631131" lon="12.5669282"><ele>136.66666666666666</ele><time>2026-03-27T14:12:20.984Z</time></trkpt><trkpt lat="46.0629676" lon="12.5668003"><ele>135.0</ele><time>2026-03-27T14:12:21.982Z</time></trkpt><trkpt lat="46.062829" lon="12.5666549"><ele>135.0</ele><time>2026-03-27T14:12:22.983Z</time></trkpt><trkpt lat="46.0627053" lon="12.5664811"><ele>135.0</ele><time>2026-03-27T14:12:23.982Z</time></trkpt><trkpt lat="46.0625905" lon="12.5662895"><ele>135.0</ele><time>2026-03-27T14:12:24.983Z</time></trkpt><trkpt lat="46.06248" lon="12.5660877"><ele>135.33333333333334</ele><time>2026-03-27T14:12:25.982Z</time></trkpt><trkpt lat="46.0623692" lon="12.5658768"><ele>135.66666666666669</ele><time>2026-03-27T14:12:26.983Z</time></trkpt><trkpt lat="46.0622482" lon="12.5656671"><ele>136.0</ele><time>2026-03-27T14:12:27.982Z</time></trkpt><trkpt lat="46.0621241" lon="12.5654541"><ele>136.33333333333334</ele><time>2026-03-27T14:12:28.984Z</time></trkpt><trkpt lat="46.062" lon="12.5652363"><ele>136.66666666666666</ele><time>2026-03-27T14:12:29.983Z</time></trkpt><trkpt lat="46.061874" lon="12.5650173"><ele>137.0</ele><time>2026-03-27T14:12:30.983Z</time></trkpt><trkpt lat="46.0617437" lon="12.5648"><ele>137.0</ele><time>2026-03-27T14:12:31.983Z</time></trkpt><trkpt lat="46.0616175" lon="12.5645876"><ele>137.0</ele><time>2026-03-27T14:12:32.983Z</time></trkpt><trkpt lat="46.0614962" lon="12.5643829"><ele>137.0</ele><time>2026-03-27T14:12:33.982Z</time></trkpt><trkpt lat="46.061381" lon="12.5641742"><ele>135.66666666666666</ele><time>2026-03-27T14:12:34.983Z</time></trkpt><trkpt lat="46.0612687" lon="12.563964"><ele>134.33333333333334</ele><time>2026-03-27T14:12:35.984Z</time></trkpt><trkpt lat="46.061161" lon="12.5637516"><ele>133.0</ele><time>2026-03-27T14:12:36.983Z</time></trkpt><trkpt lat="46.0610479" lon="12.563546"><ele>133.0</ele><time>2026-03-27T14:12:37.983Z</time></trkpt><trkpt lat="46.0609349" lon="12.5633401"><ele>133.0</ele><time>2026-03-27T14:12:38.983Z</time></trkpt><trkpt lat="46.0608235" lon="12.5631322"><ele>133.0</ele><time>2026-03-27T14:12:39.982Z</time></trkpt><trkpt lat="46.0607106" lon="12.5629299"><ele>132.66666666666669</ele><time>2026-03-27T14:12:40.982Z</time></trkpt><trkpt lat="46.0606002" lon="12.5627421"><ele>132.33333333333334</ele><time>2026-03-27T14:12:41.982Z</time></trkpt><trkpt lat="46.0604941" lon="12.5625636"><ele>132.0</ele><time>2026-03-27T14:12:42.984Z</time></trkpt><trkpt lat="46.0603913" lon="12.5623817"><ele>132.0</ele><time>2026-03-27T14:12:43.982Z</time></trkpt><trkpt lat="46.0602826" lon="12.5621996"><ele>132.0</ele><time>2026-03-27T14:12:44.983Z</time></trkpt><trkpt lat="46.0601794" lon="12.5620323"><ele>132.0</ele><time>2026-03-27T14:12:45.982Z</time></trkpt><trkpt lat="46.0600952" lon="12.5618798"><ele>132.0</ele><time>2026-03-27T14:12:46.982Z</time></trkpt><trkpt lat="46.0600185" lon="12.5617336"><ele>132.0</ele><time>2026-03-27T14:12:47.982Z</time></trkpt><trkpt lat="46.0599444" lon="12.5615939"><ele>132.0</ele><time>2026-03-27T14:12:48.983Z</time></trkpt><trkpt lat="46.059873" lon="12.5614522"><ele>132.0</ele><time>2026-03-27T14:12:49.982Z</time></trkpt><trkpt lat="46.0597973" lon="12.5612939"><ele>131.33333333333334</ele><time>2026-03-27T14:12:50.983Z</time></trkpt><trkpt lat="46.0597178" lon="12.5611174"><ele>130.66666666666669</ele><time>2026-03-27T14:12:51.983Z</time></trkpt><trkpt lat="46.0596426" lon="12.5609232"><ele>130.0</ele><time>2026-03-27T14:12:52.983Z</time></trkpt><trkpt lat="46.0595689" lon="12.5607198"><ele>130.0</ele><time>2026-03-27T14:12:53.983Z</time></trkpt><trkpt lat="46.0594953" lon="12.5605088"><ele>130.0</ele><time>2026-03-27T14:12:54.982Z</time></trkpt><trkpt lat="46.0594192" lon="12.5602914"><ele>130.0</ele><time>2026-03-27T14:12:55.983Z</time></trkpt><trkpt lat="46.0593417" lon="12.5600734"><ele>130.33333333333334</ele><time>2026-03-27T14:12:56.984Z</time></trkpt><trkpt lat="46.0592642" lon="12.5598523"><ele>130.66666666666666</ele><time>2026-03-27T14:12:57.982Z</time></trkpt><trkpt lat="46.0591872" lon="12.5596309"><ele>131.0</ele><time>2026-03-27T14:12:58.982Z</time></trkpt><trkpt lat="46.0591088" lon="12.5594094"><ele>131.0</ele><time>2026-03-27T14:12:59.983Z</time></trkpt><trkpt lat="46.0590313" lon="12.5591866"><ele>131.0</ele><time>2026-03-27T14:13:00.982Z</time></trkpt><trkpt lat="46.058954" lon="12.5589633"><ele>131.0</ele><time>2026-03-27T14:13:01.983Z</time></trkpt><trkpt lat="46.0588755" lon="12.5587404"><ele>131.66666666666666</ele><time>2026-03-27T14:13:02.984Z</time></trkpt><trkpt lat="46.0587945" lon="12.5585194"><ele>132.33333333333334</ele><time>2026-03-27T14:13:03.982Z</time></trkpt><trkpt lat="46.0587194" lon="12.5582949"><ele>133.0</ele><time>2026-03-27T14:13:04.984Z</time></trkpt><trkpt lat="46.058643" lon="12.5580659"><ele>134.0</ele><time>2026-03-27T14:13:05.983Z</time></trkpt><trkpt lat="46.0585663" lon="12.5578358"><ele>135.0</ele><time>2026-03-27T14:13:06.983Z</time></trkpt><trkpt lat="46.0584807" lon="12.557613"><ele>136.0</ele><time>2026-03-27T14:13:07.983Z</time></trkpt><trkpt lat="46.0583974" lon="12.557396"><ele>136.0</ele><time>2026-03-27T14:13:08.983Z</time></trkpt><trkpt lat="46.0583263" lon="12.5572044"><ele>136.0</ele><time>2026-03-27T14:13:09.982Z</time></trkpt><trkpt lat="46.0582678" lon="12.5570497"><ele>136.0</ele><time>2026-03-27T14:13:10.983Z</time></trkpt><trkpt lat="46.0582251" lon="12.5569329"><ele>136.0</ele><time>2026-03-27T14:13:11.982Z</time></trkpt><trkpt lat="46.0582033" lon="12.5568428"><ele>136.0</ele><time>2026-03-27T14:13:12.983Z</time></trkpt><trkpt lat="46.058262" lon="12.5567177"><ele>136.2</ele><time>2026-03-27T14:13:14.983Z</time></trkpt><trkpt lat="46.0583127" lon="12.5566632"><ele>136.39999999999998</ele><time>2026-03-27T14:13:15.982Z</time></trkpt><trkpt lat="46.0583768" lon="12.5566116"><ele>136.6</ele><time>2026-03-27T14:13:16.982Z</time></trkpt><trkpt lat="46.0584608" lon="12.55655"><ele>136.79999999999998</ele><time>2026-03-27T14:13:17.983Z</time></trkpt><trkpt lat="46.0585612" lon="12.5564744"><ele>137.0</ele><time>2026-03-27T14:13:18.982Z</time></trkpt><trkpt lat="46.0586718" lon="12.5563925"><ele>137.0</ele><time>2026-03-27T14:13:19.983Z</time></trkpt><trkpt lat="46.0587869" lon="12.5563168"><ele>137.0</ele><time>2026-03-27T14:13:20.983Z</time></trkpt><trkpt lat="46.0588998" lon="12.5562579"><ele>137.0</ele><time>2026-03-27T14:13:21.982Z</time></trkpt><trkpt lat="46.0590059" lon="12.556195"><ele>137.0</ele><time>2026-03-27T14:13:22.982Z</time></trkpt><trkpt lat="46.0591066" lon="12.5560991"><ele>138.5</ele><time>2026-03-27T14:13:23.985Z</time></trkpt><trkpt lat="46.0591998" lon="12.5559802"><ele>140.0</ele><time>2026-03-27T14:13:24.984Z</time></trkpt><trkpt lat="46.059285" lon="12.5558678"><ele>141.5</ele><time>2026-03-27T14:13:25.985Z</time></trkpt><trkpt lat="46.059358" lon="12.5557598"><ele>143.0</ele><time>2026-03-27T14:13:26.983Z</time></trkpt><trkpt lat="46.0594246" lon="12.5556328"><ele>143.0</ele><time>2026-03-27T14:13:27.982Z</time></trkpt><trkpt lat="46.0594855" lon="12.5554697"><ele>143.0</ele><time>2026-03-27T14:13:28.983Z</time></trkpt><trkpt lat="46.0595413" lon="12.5552884"><ele>143.0</ele><time>2026-03-27T14:13:29.983Z</time></trkpt><trkpt lat="46.0595969" lon="12.5551177"><ele>143.0</ele><time>2026-03-27T14:13:30.982Z</time></trkpt><trkpt lat="46.0596599" lon="12.5549463"><ele>143.0</ele><time>2026-03-27T14:13:31.983Z</time></trkpt><trkpt lat="46.0597234" lon="12.55477"><ele>143.0</ele><time>2026-03-27T14:13:32.983Z</time></trkpt><trkpt lat="46.0597856" lon="12.5545954"><ele>143.0</ele><time>2026-03-27T14:13:33.984Z</time></trkpt><trkpt lat="46.0598472" lon="12.554411"><ele>143.0</ele><time>2026-03-27T14:13:34.982Z</time></trkpt><trkpt lat="46.0599127" lon="12.5542263"><ele>144.0</ele><time>2026-03-27T14:13:35.983Z</time></trkpt><trkpt lat="46.0599741" lon="12.5540532"><ele>145.0</ele><time>2026-03-27T14:13:36.983Z</time></trkpt><trkpt lat="46.0600316" lon="12.5538975"><ele>146.0</ele><time>2026-03-27T14:13:37.983Z</time></trkpt><trkpt lat="46.0600873" lon="12.5537498"><ele>147.0</ele><time>2026-03-27T14:13:38.983Z</time></trkpt><trkpt lat="46.0601347" lon="12.5536062"><ele>147.66666666666666</ele><time>2026-03-27T14:13:39.982Z</time></trkpt><trkpt lat="46.0601667" lon="12.5534833"><ele>148.33333333333334</ele><time>2026-03-27T14:13:40.987Z</time></trkpt><trkpt lat="46.0601983" lon="12.5533767"><ele>149.0</ele><time>2026-03-27T14:13:41.982Z</time></trkpt><trkpt lat="46.0602333" lon="12.55327"><ele>149.66666666666669</ele><time>2026-03-27T14:13:42.982Z</time></trkpt><trkpt lat="46.0602867" lon="12.55318"><ele>150.33333333333334</ele><time>2026-03-27T14:13:43.982Z</time></trkpt><trkpt lat="46.0603433" lon="12.55309"><ele>151.0</ele><time>2026-03-27T14:13:44.985Z</time></trkpt><trkpt lat="46.0604283" lon="12.553"><ele>151.0</ele><time>2026-03-27T14:13:45.985Z</time></trkpt><trkpt lat="46.0605567" lon="12.55291"><ele>151.0</ele><time>2026-03-27T14:13:46.984Z</time></trkpt><trkpt lat="46.06071" lon="12.5528117"><ele>151.0</ele><time>2026-03-27T14:13:47.982Z</time></trkpt><trkpt lat="46.0608517" lon="12.55271"><ele>151.0</ele><time>2026-03-27T14:13:48.984Z</time></trkpt><trkpt lat="46.0609767" lon="12.552615"><ele>151.0</ele><time>2026-03-27T14:13:49.982Z</time></trkpt><trkpt lat="46.0610817" lon="12.552525"><ele>151.0</ele><time>2026-03-27T14:13:50.983Z</time></trkpt><trkpt lat="46.06117" lon="12.5524317"><ele>151.0</ele><time>2026-03-27T14:13:51.982Z</time></trkpt><trkpt lat="46.0612383" lon="12.5523533"><ele>151.0</ele><time>2026-03-27T14:13:52.983Z</time></trkpt><trkpt lat="46.0612883" lon="12.5522833"><ele>151.0</ele><time>2026-03-27T14:13:53.983Z</time></trkpt><trkpt lat="46.0613583" lon="12.55217"><ele>151.0</ele><time>2026-03-27T14:13:55.982Z</time></trkpt><trkpt lat="46.0614217" lon="12.5520867"><ele>151.0</ele><time>2026-03-27T14:13:57.982Z</time></trkpt><trkpt lat="46.0614883" lon="12.5520167"><ele>151.0</ele><time>2026-03-27T14:13:59.982Z</time></trkpt><trkpt lat="46.0615817" lon="12.55194"><ele>151.4</ele><time>2026-03-27T14:14:01.984Z</time></trkpt><trkpt lat="46.061695" lon="12.5518717"><ele>151.8</ele><time>2026-03-27T14:14:03.983Z</time></trkpt><trkpt lat="46.0617933" lon="12.5518217"><ele>152.20000000000002</ele><time>2026-03-27T14:14:05.983Z</time></trkpt><trkpt lat="46.0618633" lon="12.5517617"><ele>152.6</ele><time>2026-03-27T14:14:07.984Z</time></trkpt><trkpt lat="46.0618917" lon="12.5516117"><ele>153.0</ele><time>2026-03-27T14:14:09.983Z</time></trkpt><trkpt lat="46.061885" lon="12.5514783"><ele>153.0</ele><time>2026-03-27T14:14:10.984Z</time></trkpt><trkpt lat="46.061895" lon="12.5512867"><ele>153.0</ele><time>2026-03-27T14:14:11.982Z</time></trkpt><trkpt lat="46.0619133" lon="12.551065"><ele>153.0</ele><time>2026-03-27T14:14:12.983Z</time></trkpt><trkpt lat="46.0619233" lon="12.5508133"><ele>153.0</ele><time>2026-03-27T14:14:13.983Z</time></trkpt><trkpt lat="46.0619267" lon="12.5505633"><ele>153.0</ele><time>2026-03-27T14:14:14.983Z</time></trkpt><trkpt lat="46.0619167" lon="12.5503517"><ele>153.0</ele><time>2026-03-27T14:14:15.982Z</time></trkpt><trkpt lat="46.0619067" lon="12.550185"><ele>153.0</ele><time>2026-03-27T14:14:16.984Z</time></trkpt><trkpt lat="46.0618967" lon="12.5500467"><ele>153.8</ele><time>2026-03-27T14:14:17.984Z</time></trkpt><trkpt lat="46.061895" lon="12.5499267"><ele>154.60000000000002</ele><time>2026-03-27T14:14:18.984Z</time></trkpt><trkpt lat="46.0619183" lon="12.54978"><ele>155.39999999999998</ele><time>2026-03-27T14:14:19.982Z</time></trkpt><trkpt lat="46.06194" lon="12.549635"><ele>156.2</ele><time>2026-03-27T14:14:20.984Z</time></trkpt><trkpt lat="46.0619583" lon="12.5495"><ele>157.0</ele><time>2026-03-27T14:14:21.982Z</time></trkpt><trkpt lat="46.0619633" lon="12.5493917"><ele>158.0</ele><time>2026-03-27T14:14:22.982Z</time></trkpt><trkpt lat="46.0619233" lon="12.5492767"><ele>159.0</ele><time>2026-03-27T14:14:24.984Z</time></trkpt><trkpt lat="46.0618583" lon="12.5492217"><ele>160.0</ele><time>2026-03-27T14:14:25.984Z</time></trkpt><trkpt lat="46.06178" lon="12.5491467"><ele>161.0</ele><time>2026-03-27T14:14:26.983Z</time></trkpt><trkpt lat="46.0617083" lon="12.5490417"><ele>162.0</ele><time>2026-03-27T14:14:27.986Z</time></trkpt><trkpt lat="46.0616217" lon="12.5489283"><ele>162.39999999999998</ele><time>2026-03-27T14:14:28.984Z</time></trkpt><trkpt lat="46.0615333" lon="12.5488267"><ele>162.79999999999998</ele><time>2026-03-27T14:14:29.986Z</time></trkpt><trkpt lat="46.0614467" lon="12.5487333"><ele>163.2</ele><time>2026-03-27T14:14:30.982Z</time></trkpt><trkpt lat="46.0613667" lon="12.5486667"><ele>163.6</ele><time>2026-03-27T14:14:31.983Z</time></trkpt><trkpt lat="46.0612883" lon="12.5486"><ele>164.0</ele><time>2026-03-27T14:14:32.985Z</time></trkpt><trkpt lat="46.0612417" lon="12.5485383"><ele>164.5</ele><time>2026-03-27T14:14:33.983Z</time></trkpt><trkpt lat="46.061195" lon="12.5484483"><ele>165.0</ele><time>2026-03-27T14:14:35.984Z</time></trkpt><trkpt lat="46.0612117" lon="12.5483183"><ele>165.5</ele><time>2026-03-27T14:14:38.985Z</time></trkpt><trkpt lat="46.0611817" lon="12.54819"><ele>166.0</ele><time>2026-03-27T14:14:40.982Z</time></trkpt><trkpt lat="46.0611517" lon="12.5480983"><ele>166.5</ele><time>2026-03-27T14:14:41.986Z</time></trkpt><trkpt lat="46.06111" lon="12.54801"><ele>167.0</ele><time>2026-03-27T14:14:42.986Z</time></trkpt><trkpt lat="46.0610633" lon="12.5478533"><ele>167.39999999999998</ele><time>2026-03-27T14:14:44.985Z</time></trkpt><trkpt lat="46.0610233" lon="12.547765"><ele>167.79999999999998</ele><time>2026-03-27T14:14:45.984Z</time></trkpt><trkpt lat="46.06096" lon="12.5476583"><ele>168.2</ele><time>2026-03-27T14:14:46.984Z</time></trkpt><trkpt lat="46.0608617" lon="12.547475"><ele>168.6</ele><time>2026-03-27T14:14:48.983Z</time></trkpt><trkpt lat="46.060795" lon="12.5473733"><ele>169.0</ele><time>2026-03-27T14:14:49.983Z</time></trkpt><trkpt lat="46.0607117" lon="12.5472667"><ele>169.0</ele><time>2026-03-27T14:14:50.984Z</time></trkpt><trkpt lat="46.060615" lon="12.5471717"><ele>169.0</ele><time>2026-03-27T14:14:51.983Z</time></trkpt><trkpt lat="46.0605267" lon="12.547085"><ele>169.0</ele><time>2026-03-27T14:14:52.983Z</time></trkpt><trkpt lat="46.0604317" lon="12.5470167"><ele>169.0</ele><time>2026-03-27T14:14:53.984Z</time></trkpt><trkpt lat="46.0603433" lon="12.546945"><ele>169.0</ele><time>2026-03-27T14:14:54.982Z</time></trkpt><trkpt lat="46.0602517" lon="12.546855"><ele>169.6</ele><time>2026-03-27T14:14:55.985Z</time></trkpt><trkpt lat="46.0601783" lon="12.5467367"><ele>170.2</ele><time>2026-03-27T14:14:56.984Z</time></trkpt><trkpt lat="46.0600933" lon="12.5466183"><ele>170.79999999999998</ele><time>2026-03-27T14:14:57.985Z</time></trkpt><trkpt lat="46.0600217" lon="12.5464967"><ele>171.39999999999998</ele><time>2026-03-27T14:14:58.982Z</time></trkpt><trkpt lat="46.0599567" lon="12.54637"><ele>172.0</ele><time>2026-03-27T14:14:59.984Z</time></trkpt><trkpt lat="46.0599133" lon="12.5462183"><ele>172.8</ele><time>2026-03-27T14:15:00.982Z</time></trkpt><trkpt lat="46.059865" lon="12.5460683"><ele>173.6</ele><time>2026-03-27T14:15:01.984Z</time></trkpt><trkpt lat="46.0598267" lon="12.5459467"><ele>174.4</ele><time>2026-03-27T14:15:02.983Z</time></trkpt><trkpt lat="46.0597917" lon="12.5458517"><ele>175.20000000000002</ele><time>2026-03-27T14:15:03.983Z</time></trkpt><trkpt lat="46.0597417" lon="12.5457067"><ele>176.0</ele><time>2026-03-27T14:15:05.983Z</time></trkpt><trkpt lat="46.0596902" lon="12.5456202"><ele>176.0</ele><time>2026-03-27T14:15:07.983Z</time></trkpt><trkpt lat="46.0595934" lon="12.5455481"><ele>176.0</ele><time>2026-03-27T14:15:09.983Z</time></trkpt><trkpt lat="46.0594989" lon="12.545482"><ele>176.0</ele><time>2026-03-27T14:15:11.982Z</time></trkpt><trkpt lat="46.0594716" lon="12.5453918"><ele>176.0</ele><time>2026-03-27T14:15:13.983Z</time></trkpt><trkpt lat="46.0594392" lon="12.5452711"><ele>176.0</ele><time>2026-03-27T14:15:15.984Z</time></trkpt><trkpt lat="46.0593947" lon="12.5451891"><ele>176.0</ele><time>2026-03-27T14:15:16.983Z</time></trkpt><trkpt lat="46.0593456" lon="12.5450839"><ele>177.20000000000002</ele><time>2026-03-27T14:15:17.983Z</time></trkpt><trkpt lat="46.0593055" lon="12.5449684"><ele>178.4</ele><time>2026-03-27T14:15:18.984Z</time></trkpt><trkpt lat="46.0592846" lon="12.5448541"><ele>179.6</ele><time>2026-03-27T14:15:19.984Z</time></trkpt><trkpt lat="46.0592681" lon="12.5447555"><ele>180.8</ele><time>2026-03-27T14:15:20.983Z</time></trkpt><trkpt lat="46.0592095" lon="12.544579"><ele>182.0</ele><time>2026-03-27T14:15:22.983Z</time></trkpt><trkpt lat="46.0591726" lon="12.5444747"><ele>183.2</ele><time>2026-03-27T14:15:23.983Z</time></trkpt><trkpt lat="46.0591476" lon="12.5443509"><ele>184.39999999999998</ele><time>2026-03-27T14:15:24.982Z</time></trkpt><trkpt lat="46.0591347" lon="12.5442117"><ele>185.60000000000002</ele><time>2026-03-27T14:15:25.983Z</time></trkpt><trkpt lat="46.0591368" lon="12.5440598"><ele>186.8</ele><time>2026-03-27T14:15:26.984Z</time></trkpt><trkpt lat="46.0591456" lon="12.5439132"><ele>188.0</ele><time>2026-03-27T14:15:27.984Z</time></trkpt><trkpt lat="46.0591475" lon="12.5437562"><ele>188.4</ele><time>2026-03-27T14:15:28.982Z</time></trkpt><trkpt lat="46.0591403" lon="12.5435837"><ele>188.8</ele><time>2026-03-27T14:15:29.984Z</time></trkpt><trkpt lat="46.0591311" lon="12.5434258"><ele>189.2</ele><time>2026-03-27T14:15:30.982Z</time></trkpt><trkpt lat="46.059124" lon="12.5432991"><ele>189.6</ele><time>2026-03-27T14:15:31.983Z</time></trkpt><trkpt lat="46.0591249" lon="12.5431845"><ele>190.0</ele><time>2026-03-27T14:15:32.984Z</time></trkpt><trkpt lat="46.059129" lon="12.5430705"><ele>190.0</ele><time>2026-03-27T14:15:33.987Z</time></trkpt><trkpt lat="46.0591411" lon="12.5429644"><ele>190.0</ele><time>2026-03-27T14:15:34.984Z</time></trkpt><trkpt lat="46.0591543" lon="12.5428624"><ele>190.0</ele><time>2026-03-27T14:15:35.982Z</time></trkpt><trkpt lat="46.0591613" lon="12.5427663"><ele>190.0</ele><time>2026-03-27T14:15:36.984Z</time></trkpt><trkpt lat="46.0591685" lon="12.5426716"><ele>190.0</ele><time>2026-03-27T14:15:37.983Z</time></trkpt><trkpt lat="46.0591811" lon="12.5424937"><ele>190.0</ele><time>2026-03-27T14:15:39.982Z</time></trkpt><trkpt lat="46.0591717" lon="12.54239"><ele>189.8</ele><time>2026-03-27T14:15:40.983Z</time></trkpt><trkpt lat="46.0591633" lon="12.5422833"><ele>189.6</ele><time>2026-03-27T14:15:41.983Z</time></trkpt><trkpt lat="46.05912" lon="12.54217"><ele>189.39999999999998</ele><time>2026-03-27T14:15:42.982Z</time></trkpt><trkpt lat="46.05904" lon="12.542115"><ele>189.2</ele><time>2026-03-27T14:15:44.983Z</time></trkpt><trkpt lat="46.0589083" lon="12.542135"><ele>189.0</ele><time>2026-03-27T14:15:46.983Z</time></trkpt><trkpt lat="46.0588083" lon="12.5421717"><ele>189.0</ele><time>2026-03-27T14:15:47.983Z</time></trkpt><trkpt lat="46.05873" lon="12.542195"><ele>189.0</ele><time>2026-03-27T14:15:48.984Z</time></trkpt><trkpt lat="46.0586467" lon="12.5422083"><ele>189.0</ele><time>2026-03-27T14:15:49.983Z</time></trkpt><trkpt lat="46.0585483" lon="12.5422333"><ele>189.0</ele><time>2026-03-27T14:15:50.983Z</time></trkpt><trkpt lat="46.058415" lon="12.5422533"><ele>189.0</ele><time>2026-03-27T14:15:51.986Z</time></trkpt><trkpt lat="46.0582567" lon="12.5422833"><ele>188.33333333333334</ele><time>2026-03-27T14:15:52.984Z</time></trkpt><trkpt lat="46.0580833" lon="12.5423083"><ele>187.66666666666669</ele><time>2026-03-27T14:15:53.983Z</time></trkpt><trkpt lat="46.0579267" lon="12.5423383"><ele>187.0</ele><time>2026-03-27T14:15:54.983Z</time></trkpt><trkpt lat="46.0577967" lon="12.5423717"><ele>187.0</ele><time>2026-03-27T14:15:55.982Z</time></trkpt><trkpt lat="46.0577017" lon="12.5423917"><ele>187.0</ele><time>2026-03-27T14:15:56.984Z</time></trkpt><trkpt lat="46.0576233" lon="12.5423967"><ele>187.0</ele><time>2026-03-27T14:15:57.983Z</time></trkpt><trkpt lat="46.0575583" lon="12.542395"><ele>187.0</ele><time>2026-03-27T14:15:58.982Z</time></trkpt><trkpt lat="46.0574683" lon="12.5423583"><ele>187.0</ele><time>2026-03-27T14:16:00.982Z</time></trkpt><trkpt lat="46.0574133" lon="12.5422917"><ele>187.0</ele><time>2026-03-27T14:16:02.983Z</time></trkpt><trkpt lat="46.0573967" lon="12.54218"><ele>186.5</ele><time>2026-03-27T14:16:04.983Z</time></trkpt><trkpt lat="46.057405" lon="12.5419833"><ele>186.0</ele><time>2026-03-27T14:16:06.982Z</time></trkpt><trkpt lat="46.0574067" lon="12.5418667"><ele>185.5</ele><time>2026-03-27T14:16:07.983Z</time></trkpt><trkpt lat="46.057405" lon="12.541755"><ele>185.0</ele><time>2026-03-27T14:16:08.984Z</time></trkpt><trkpt lat="46.057405" lon="12.5416433"><ele>184.5</ele><time>2026-03-27T14:16:09.983Z</time></trkpt><trkpt lat="46.0574083" lon="12.5415417"><ele>184.0</ele><time>2026-03-27T14:16:10.983Z</time></trkpt><trkpt lat="46.05741" lon="12.5414317"><ele>184.0</ele><time>2026-03-27T14:16:11.985Z</time></trkpt><trkpt lat="46.0574133" lon="12.5413167"><ele>184.0</ele><time>2026-03-27T14:16:12.983Z</time></trkpt><trkpt lat="46.0574033" lon="12.5411883"><ele>184.0</ele><time>2026-03-27T14:16:13.982Z</time></trkpt><trkpt lat="46.0574017" lon="12.54107"><ele>184.0</ele><time>2026-03-27T14:16:14.983Z</time></trkpt><trkpt lat="46.057385" lon="12.5409367"><ele>184.0</ele><time>2026-03-27T14:16:15.982Z</time></trkpt><trkpt lat="46.0573617" lon="12.540815"><ele>184.0</ele><time>2026-03-27T14:16:16.983Z</time></trkpt><trkpt lat="46.05734" lon="12.5407117"><ele>184.0</ele><time>2026-03-27T14:16:17.983Z</time></trkpt><trkpt lat="46.057315" lon="12.5405817"><ele>184.0</ele><time>2026-03-27T14:16:19.983Z</time></trkpt><trkpt lat="46.057335" lon="12.540455"><ele>184.0</ele><time>2026-03-27T14:16:21.983Z</time></trkpt><trkpt lat="46.0574083" lon="12.5403417"><ele>184.0</ele><time>2026-03-27T14:16:23.984Z</time></trkpt><trkpt lat="46.057465" lon="12.5402633"><ele>184.0</ele><time>2026-03-27T14:16:24.983Z</time></trkpt><trkpt lat="46.0574983" lon="12.54017"><ele>184.0</ele><time>2026-03-27T14:16:25.983Z</time></trkpt><trkpt lat="46.0575383" lon="12.5400433"><ele>186.75</ele><time>2026-03-27T14:16:26.984Z</time></trkpt><trkpt lat="46.0575633" lon="12.53985"><ele>189.5</ele><time>2026-03-27T14:16:27.983Z</time></trkpt><trkpt lat="46.057595" lon="12.5396433"><ele>192.25</ele><time>2026-03-27T14:16:28.983Z</time></trkpt><trkpt lat="46.0576233" lon="12.539435"><ele>195.0</ele><time>2026-03-27T14:16:29.984Z</time></trkpt><trkpt lat="46.0576683" lon="12.5392383"><ele>195.2</ele><time>2026-03-27T14:16:30.983Z</time></trkpt><trkpt lat="46.0577117" lon="12.5390583"><ele>195.4</ele><time>2026-03-27T14:16:31.983Z</time></trkpt><trkpt lat="46.057745" lon="12.538905"><ele>195.60000000000002</ele><time>2026-03-27T14:16:32.984Z</time></trkpt><trkpt lat="46.0577667" lon="12.5387633"><ele>195.8</ele><time>2026-03-27T14:16:33.982Z</time></trkpt><trkpt lat="46.0577767" lon="12.5386233"><ele>196.0</ele><time>2026-03-27T14:16:34.982Z</time></trkpt><trkpt lat="46.0577933" lon="12.538485"><ele>196.83333333333331</ele><time>2026-03-27T14:16:35.982Z</time></trkpt><trkpt lat="46.0578233" lon="12.53837"><ele>197.66666666666666</ele><time>2026-03-27T14:16:36.982Z</time></trkpt><trkpt lat="46.0578417" lon="12.5382717"><ele>198.5</ele><time>2026-03-27T14:16:37.983Z</time></trkpt><trkpt lat="46.0578633" lon="12.5381767"><ele>199.33333333333331</ele><time>2026-03-27T14:16:38.984Z</time></trkpt><trkpt lat="46.0578833" lon="12.5380767"><ele>200.16666666666666</ele><time>2026-03-27T14:16:39.982Z</time></trkpt><trkpt lat="46.05789" lon="12.5379767"><ele>201.0</ele><time>2026-03-27T14:16:40.984Z</time></trkpt><trkpt lat="46.0579083" lon="12.5378367"><ele>201.4</ele><time>2026-03-27T14:16:42.983Z</time></trkpt><trkpt lat="46.05792" lon="12.5376883"><ele>201.8</ele><time>2026-03-27T14:16:44.983Z</time></trkpt><trkpt lat="46.0579333" lon="12.5375867"><ele>202.20000000000002</ele><time>2026-03-27T14:16:45.982Z</time></trkpt><trkpt lat="46.0579433" lon="12.5374667"><ele>202.60000000000002</ele><time>2026-03-27T14:16:46.983Z</time></trkpt><trkpt lat="46.057955" lon="12.53734"><ele>203.0</ele><time>2026-03-27T14:16:47.983Z</time></trkpt><trkpt lat="46.0579733" lon="12.53718"><ele>203.00000000000003</ele><time>2026-03-27T14:16:48.983Z</time></trkpt><trkpt lat="46.057995" lon="12.5370383"><ele>203.0</ele><time>2026-03-27T14:16:49.982Z</time></trkpt><trkpt lat="46.05802" lon="12.5369283"><ele>203.0</ele><time>2026-03-27T14:16:50.984Z</time></trkpt><trkpt lat="46.0580217" lon="12.5368333"><ele>203.0</ele><time>2026-03-27T14:16:51.984Z</time></trkpt><trkpt lat="46.058" lon="12.5367267"><ele>203.00000000000003</ele><time>2026-03-27T14:16:52.984Z</time></trkpt><trkpt lat="46.0579667" lon="12.53656"><ele>203.0</ele><time>2026-03-27T14:16:54.983Z</time></trkpt><trkpt lat="46.0579767" lon="12.5364217"><ele>203.0</ele><time>2026-03-27T14:16:56.983Z</time></trkpt><trkpt lat="46.0579983" lon="12.5362817"><ele>203.0</ele><time>2026-03-27T14:16:58.982Z</time></trkpt><trkpt lat="46.0580367" lon="12.5361283"><ele>203.0</ele><time>2026-03-27T14:17:00.983Z</time></trkpt><trkpt lat="46.058085" lon="12.535995"><ele>203.0</ele><time>2026-03-27T14:17:02.983Z</time></trkpt><trkpt lat="46.058115" lon="12.5358733"><ele>203.0</ele><time>2026-03-27T14:17:04.982Z</time></trkpt><trkpt lat="46.0581067" lon="12.5357683"><ele>203.33333333333334</ele><time>2026-03-27T14:17:06.984Z</time></trkpt><trkpt lat="46.0581233" lon="12.5356733"><ele>203.66666666666669</ele><time>2026-03-27T14:17:08.985Z</time></trkpt><trkpt lat="46.0581567" lon="12.5355517"><ele>204.0</ele><time>2026-03-27T14:17:10.983Z</time></trkpt><trkpt lat="46.0581533" lon="12.5354317"><ele>204.33333333333331</ele><time>2026-03-27T14:17:12.984Z</time></trkpt><trkpt lat="46.0580983" lon="12.5353383"><ele>204.66666666666666</ele><time>2026-03-27T14:17:14.984Z</time></trkpt><trkpt lat="46.0580067" lon="12.5352817"><ele>205.0</ele><time>2026-03-27T14:17:16.987Z</time></trkpt><trkpt lat="46.0579433" lon="12.5352317"><ele>205.16666666666666</ele><time>2026-03-27T14:17:18.983Z</time></trkpt><trkpt lat="46.057895" lon="12.535155"><ele>205.33333333333331</ele><time>2026-03-27T14:17:29.982Z</time></trkpt><trkpt lat="46.0579083" lon="12.535055"><ele>205.5</ele><time>2026-03-27T14:17:31.982Z</time></trkpt><trkpt lat="46.05797" lon="12.5349767"><ele>205.66666666666669</ele><time>2026-03-27T14:17:33.983Z</time></trkpt><trkpt lat="46.0580433" lon="12.534895"><ele>205.83333333333334</ele><time>2026-03-27T14:17:35.982Z</time></trkpt><trkpt lat="46.0581117" lon="12.5348567"><ele>206.0</ele><time>2026-03-27T14:17:37.983Z</time></trkpt><trkpt lat="46.0581817" lon="12.534815"><ele>206.00000000000003</ele><time>2026-03-27T14:17:40.982Z</time></trkpt><trkpt lat="46.058235" lon="12.5347583"><ele>206.0</ele><time>2026-03-27T14:17:42.982Z</time></trkpt><trkpt lat="46.0582867" lon="12.53465"><ele>206.0</ele><time>2026-03-27T14:17:44.983Z</time></trkpt><trkpt lat="46.05833" lon="12.53454"><ele>206.0</ele><time>2026-03-27T14:17:46.982Z</time></trkpt><trkpt lat="46.0583733" lon="12.5344317"><ele>206.00000000000003</ele><time>2026-03-27T14:17:48.983Z</time></trkpt><trkpt lat="46.05843" lon="12.53433"><ele>206.0</ele><time>2026-03-27T14:17:50.983Z</time></trkpt><trkpt lat="46.0584567" lon="12.5342417"><ele>207.33333333333334</ele><time>2026-03-27T14:17:52.982Z</time></trkpt><trkpt lat="46.058485" lon="12.5341283"><ele>208.66666666666669</ele><time>2026-03-27T14:17:54.982Z</time></trkpt><trkpt lat="46.0585183" lon="12.534015"><ele>210.0</ele><time>2026-03-27T14:17:56.982Z</time></trkpt><trkpt lat="46.058555" lon="12.53391"><ele>211.33333333333331</ele><time>2026-03-27T14:17:58.982Z</time></trkpt><trkpt lat="46.0586283" lon="12.5338467"><ele>212.66666666666666</ele><time>2026-03-27T14:18:01.984Z</time></trkpt><trkpt lat="46.0586917" lon="12.5337783"><ele>214.0</ele><time>2026-03-27T14:18:04.982Z</time></trkpt><trkpt lat="46.05876" lon="12.5337233"><ele>213.83333333333331</ele><time>2026-03-27T14:18:06.982Z</time></trkpt><trkpt lat="46.0587983" lon="12.533635"><ele>213.66666666666666</ele><time>2026-03-27T14:18:08.984Z</time></trkpt><trkpt lat="46.058855" lon="12.5335533"><ele>213.5</ele><time>2026-03-27T14:18:10.982Z</time></trkpt><trkpt lat="46.0589183" lon="12.5334767"><ele>213.33333333333331</ele><time>2026-03-27T14:18:12.983Z</time></trkpt><trkpt lat="46.05899" lon="12.533355"><ele>213.16666666666666</ele><time>2026-03-27T14:18:14.983Z</time></trkpt><trkpt lat="46.0590217" lon="12.5332617"><ele>213.0</ele><time>2026-03-27T14:18:15.982Z</time></trkpt><trkpt lat="46.0590517" lon="12.533175"><ele>213.0</ele><time>2026-03-27T14:18:16.983Z</time></trkpt><trkpt lat="46.0590983" lon="12.5331033"><ele>213.0</ele><time>2026-03-27T14:18:17.982Z</time></trkpt><trkpt lat="46.0591517" lon="12.533035"><ele>213.0</ele><time>2026-03-27T14:18:18.985Z</time></trkpt><trkpt lat="46.0592" lon="12.532955"><ele>213.0</ele><time>2026-03-27T14:18:19.983Z</time></trkpt><trkpt lat="46.0592467" lon="12.5328617"><ele>213.0</ele><time>2026-03-27T14:18:20.983Z</time></trkpt><trkpt lat="46.059285" lon="12.5327117"><ele>213.0</ele><time>2026-03-27T14:18:22.982Z</time></trkpt><trkpt lat="46.0593233" lon="12.53263"><ele>214.5</ele><time>2026-03-27T14:18:23.983Z</time></trkpt><trkpt lat="46.059365" lon="12.53256"><ele>216.0</ele><time>2026-03-27T14:18:24.983Z</time></trkpt><trkpt lat="46.05942" lon="12.5324483"><ele>217.5</ele><time>2026-03-27T14:18:26.983Z</time></trkpt><trkpt lat="46.0594517" lon="12.5322967"><ele>219.0</ele><time>2026-03-27T14:18:28.983Z</time></trkpt><trkpt lat="46.0595167" lon="12.5322"><ele>220.5</ele><time>2026-03-27T14:18:30.983Z</time></trkpt><trkpt lat="46.0595283" lon="12.53208"><ele>222.0</ele><time>2026-03-27T14:18:32.984Z</time></trkpt><trkpt lat="46.0595367" lon="12.531965"><ele>222.0</ele><time>2026-03-27T14:18:34.983Z</time></trkpt><trkpt lat="46.0595333" lon="12.5318367"><ele>222.0</ele><time>2026-03-27T14:18:36.982Z</time></trkpt><trkpt lat="46.0595033" lon="12.5317117"><ele>222.0</ele><time>2026-03-27T14:18:38.983Z</time></trkpt><trkpt lat="46.059455" lon="12.5316033"><ele>222.0</ele><time>2026-03-27T14:18:40.982Z</time></trkpt><trkpt lat="46.0593717" lon="12.53157"><ele>222.0</ele><time>2026-03-27T14:18:43.982Z</time></trkpt><trkpt lat="46.0592517" lon="12.5316067"><ele>222.0</ele><time>2026-03-27T14:18:45.982Z</time></trkpt><trkpt lat="46.0591467" lon="12.531575"><ele>222.0</ele><time>2026-03-27T14:18:47.982Z</time></trkpt><trkpt lat="46.0590583" lon="12.53149"><ele>222.0</ele><time>2026-03-27T14:18:49.983Z</time></trkpt><trkpt lat="46.0589567" lon="12.5313917"><ele>222.0</ele><time>2026-03-27T14:18:51.983Z</time></trkpt><trkpt lat="46.0589133" lon="12.5313183"><ele>222.0</ele><time>2026-03-27T14:18:52.982Z</time></trkpt><trkpt lat="46.05888" lon="12.53123"><ele>223.83333333333334</ele><time>2026-03-27T14:18:53.982Z</time></trkpt><trkpt lat="46.0588633" lon="12.5311317"><ele>225.66666666666669</ele><time>2026-03-27T14:18:54.983Z</time></trkpt><trkpt lat="46.058855" lon="12.5310267"><ele>227.5</ele><time>2026-03-27T14:18:55.983Z</time></trkpt><trkpt lat="46.058845" lon="12.5309267"><ele>229.33333333333334</ele><time>2026-03-27T14:18:56.983Z</time></trkpt><trkpt lat="46.058845" lon="12.53076"><ele>231.16666666666669</ele><time>2026-03-27T14:18:58.984Z</time></trkpt><trkpt lat="46.058835" lon="12.5306"><ele>233.0</ele><time>2026-03-27T14:19:00.982Z</time></trkpt><trkpt lat="46.058835" lon="12.5305083"><ele>233.00000000000003</ele><time>2026-03-27T14:19:01.986Z</time></trkpt><trkpt lat="46.0588417" lon="12.530405"><ele>233.0</ele><time>2026-03-27T14:19:02.985Z</time></trkpt><trkpt lat="46.058845" lon="12.5302983"><ele>233.0</ele><time>2026-03-27T14:19:03.983Z</time></trkpt><trkpt lat="46.0588517" lon="12.5301917"><ele>233.0</ele><time>2026-03-27T14:19:04.983Z</time></trkpt><trkpt lat="46.0588367" lon="12.53007"><ele>233.00000000000003</ele><time>2026-03-27T14:19:05.982Z</time></trkpt><trkpt lat="46.0588267" lon="12.529955"><ele>233.0</ele><time>2026-03-27T14:19:06.983Z</time></trkpt><trkpt lat="46.0587867" lon="12.5298133"><ele>235.33333333333334</ele><time>2026-03-27T14:19:08.982Z</time></trkpt><trkpt lat="46.058725" lon="12.5297767"><ele>237.66666666666669</ele><time>2026-03-27T14:19:12.982Z</time></trkpt><trkpt lat="46.0586883" lon="12.52987"><ele>240.0</ele><time>2026-03-27T14:19:15.982Z</time></trkpt><trkpt lat="46.05865" lon="12.5299717"><ele>242.33333333333331</ele><time>2026-03-27T14:19:18.982Z</time></trkpt><trkpt lat="46.0586117" lon="12.53007"><ele>244.66666666666666</ele><time>2026-03-27T14:19:21.982Z</time></trkpt><trkpt lat="46.0585883" lon="12.530165"><ele>247.0</ele><time>2026-03-27T14:19:23.983Z</time></trkpt><trkpt lat="46.05855" lon="12.530285"><ele>244.66666666666666</ele><time>2026-03-27T14:19:25.983Z</time></trkpt><trkpt lat="46.058505" lon="12.5304033"><ele>242.33333333333331</ele><time>2026-03-27T14:19:27.983Z</time></trkpt><trkpt lat="46.0584633" lon="12.53049"><ele>240.0</ele><time>2026-03-27T14:19:29.983Z</time></trkpt><trkpt lat="46.0584183" lon="12.5306117"><ele>237.66666666666669</ele><time>2026-03-27T14:19:31.981Z</time></trkpt><trkpt lat="46.0583717" lon="12.5307117"><ele>235.33333333333334</ele><time>2026-03-27T14:19:33.983Z</time></trkpt><trkpt lat="46.0583283" lon="12.5306217"><ele>233.0</ele><time>2026-03-27T14:19:36.982Z</time></trkpt><trkpt lat="46.058365" lon="12.53053"><ele>233.0</ele><time>2026-03-27T14:19:37.983Z</time></trkpt><trkpt lat="46.0584083" lon="12.5304283"><ele>233.0</ele><time>2026-03-27T14:19:38.985Z</time></trkpt><trkpt lat="46.0584483" lon="12.53031"><ele>233.0</ele><time>2026-03-27T14:19:39.982Z</time></trkpt><trkpt lat="46.0584833" lon="12.53018"><ele>233.0</ele><time>2026-03-27T14:19:40.982Z</time></trkpt><trkpt lat="46.0585167" lon="12.5300383"><ele>233.0</ele><time>2026-03-27T14:19:41.983Z</time></trkpt><trkpt lat="46.0585483" lon="12.5298817"><ele>236.5</ele><time>2026-03-27T14:19:42.982Z</time></trkpt><trkpt lat="46.0585717" lon="12.5297217"><ele>240.0</ele><time>2026-03-27T14:19:43.983Z</time></trkpt><trkpt lat="46.058585" lon="12.52955"><ele>243.5</ele><time>2026-03-27T14:19:44.983Z</time></trkpt><trkpt lat="46.05858" lon="12.5293717"><ele>247.0</ele><time>2026-03-27T14:19:45.983Z</time></trkpt><trkpt lat="46.058565" lon="12.5291833"><ele>249.0</ele><time>2026-03-27T14:19:46.984Z</time></trkpt><trkpt lat="46.05855" lon="12.5289917"><ele>251.0</ele><time>2026-03-27T14:19:47.984Z</time></trkpt><trkpt lat="46.0585333" lon="12.5288"><ele>253.0</ele><time>2026-03-27T14:19:48.982Z</time></trkpt><trkpt lat="46.0585167" lon="12.5286033"><ele>255.0</ele><time>2026-03-27T14:19:49.983Z</time></trkpt><trkpt lat="46.0584933" lon="12.5284017"><ele>255.25</ele><time>2026-03-27T14:19:50.984Z</time></trkpt><trkpt lat="46.0584664" lon="12.5281992"><ele>255.5</ele><time>2026-03-27T14:19:51.982Z</time></trkpt><trkpt lat="46.0584366" lon="12.5279946"><ele>255.75</ele><time>2026-03-27T14:19:52.983Z</time></trkpt><trkpt lat="46.0584054" lon="12.5277845"><ele>256.0</ele><time>2026-03-27T14:19:53.984Z</time></trkpt><trkpt lat="46.0583711" lon="12.5275685"><ele>256.0</ele><time>2026-03-27T14:19:54.983Z</time></trkpt><trkpt lat="46.0583388" lon="12.5273532"><ele>256.0</ele><time>2026-03-27T14:19:55.985Z</time></trkpt><trkpt lat="46.0583052" lon="12.5271423"><ele>256.0</ele><time>2026-03-27T14:19:56.984Z</time></trkpt><trkpt lat="46.0582665" lon="12.5269313"><ele>268.0</ele><time>2026-03-27T14:19:57.982Z</time></trkpt><trkpt lat="46.0582356" lon="12.5267125"><ele>280.0</ele><time>2026-03-27T14:19:58.984Z</time></trkpt><trkpt lat="46.0582157" lon="12.5264841"><ele>292.0</ele><time>2026-03-27T14:19:59.984Z</time></trkpt><trkpt lat="46.0582078" lon="12.5262487"><ele>294.66666666666663</ele><time>2026-03-27T14:20:00.982Z</time></trkpt><trkpt lat="46.0582127" lon="12.526007"><ele>297.3333333333333</ele><time>2026-03-27T14:20:01.983Z</time></trkpt><trkpt lat="46.0582234" lon="12.5257649"><ele>300.0</ele><time>2026-03-27T14:20:02.984Z</time></trkpt><trkpt lat="46.0582429" lon="12.5255196"><ele>301.0</ele><time>2026-03-27T14:20:03.982Z</time></trkpt><trkpt lat="46.0582639" lon="12.5252723"><ele>302.0</ele><time>2026-03-27T14:20:04.983Z</time></trkpt><trkpt lat="46.0582847" lon="12.5250245"><ele>303.0</ele><time>2026-03-27T14:20:05.983Z</time></trkpt><trkpt lat="46.0583151" lon="12.5247785"><ele>291.3333333333333</ele><time>2026-03-27T14:20:06.983Z</time></trkpt><trkpt lat="46.0583545" lon="12.5245333"><ele>279.66666666666663</ele><time>2026-03-27T14:20:07.982Z</time></trkpt><trkpt lat="46.0584018" lon="12.524298"><ele>268.0</ele><time>2026-03-27T14:20:08.982Z</time></trkpt><trkpt lat="46.0584489" lon="12.5240695"><ele>268.0</ele><time>2026-03-27T14:20:09.983Z</time></trkpt><trkpt lat="46.0585018" lon="12.5238484"><ele>268.0</ele><time>2026-03-27T14:20:10.982Z</time></trkpt><trkpt lat="46.0585577" lon="12.5236245"><ele>268.0</ele><time>2026-03-27T14:20:11.984Z</time></trkpt><trkpt lat="46.0586141" lon="12.5234048"><ele>268.5</ele><time>2026-03-27T14:20:12.982Z</time></trkpt><trkpt lat="46.0586807" lon="12.5232058"><ele>269.0</ele><time>2026-03-27T14:20:13.983Z</time></trkpt><trkpt lat="46.0587408" lon="12.523043"><ele>269.5</ele><time>2026-03-27T14:20:14.983Z</time></trkpt><trkpt lat="46.0587992" lon="12.5229082"><ele>270.0</ele><time>2026-03-27T14:20:15.982Z</time></trkpt><trkpt lat="46.0588523" lon="12.522791"><ele>270.3333333333333</ele><time>2026-03-27T14:20:17.067Z</time></trkpt><trkpt lat="46.0588992" lon="12.5227048"><ele>270.6666666666667</ele><time>2026-03-27T14:20:17.986Z</time></trkpt><trkpt lat="46.0589394" lon="12.5226233"><ele>271.0</ele><time>2026-03-27T14:20:18.983Z</time></trkpt><trkpt lat="46.0589294" lon="12.5225056"><ele>271.33333333333337</ele><time>2026-03-27T14:20:20.983Z</time></trkpt><trkpt lat="46.0588457" lon="12.5224486"><ele>271.6666666666667</ele><time>2026-03-27T14:20:22.983Z</time></trkpt><trkpt lat="46.0587815" lon="12.5224181"><ele>272.0</ele><time>2026-03-27T14:20:23.982Z</time></trkpt><trkpt lat="46.0586914" lon="12.5223836"><ele>272.0</ele><time>2026-03-27T14:20:24.982Z</time></trkpt><trkpt lat="46.0586099" lon="12.5223472"><ele>272.0</ele><time>2026-03-27T14:20:25.982Z</time></trkpt><trkpt lat="46.0585345" lon="12.5223118"><ele>272.0</ele><time>2026-03-27T14:20:26.984Z</time></trkpt><trkpt lat="46.058459" lon="12.522276"><ele>272.0</ele><time>2026-03-27T14:20:27.983Z</time></trkpt><trkpt lat="46.0583817" lon="12.5222434"><ele>272.0</ele><time>2026-03-27T14:20:28.983Z</time></trkpt><trkpt lat="46.0583055" lon="12.5222218"><ele>272.0</ele><time>2026-03-27T14:20:29.984Z</time></trkpt><trkpt lat="46.0582335" lon="12.5222165"><ele>271.6666666666667</ele><time>2026-03-27T14:20:30.983Z</time></trkpt><trkpt lat="46.0581635" lon="12.5222441"><ele>271.33333333333337</ele><time>2026-03-27T14:20:31.983Z</time></trkpt><trkpt lat="46.0580961" lon="12.5222807"><ele>271.0</ele><time>2026-03-27T14:20:32.983Z</time></trkpt><trkpt lat="46.0579752" lon="12.5223048"><ele>270.6666666666667</ele><time>2026-03-27T14:20:34.982Z</time></trkpt><trkpt lat="46.0579107" lon="12.5223031"><ele>270.3333333333333</ele><time>2026-03-27T14:20:35.982Z</time></trkpt><trkpt lat="46.0578434" lon="12.5222986"><ele>270.0</ele><time>2026-03-27T14:20:36.984Z</time></trkpt><trkpt lat="46.0577802" lon="12.5222789"><ele>270.0</ele><time>2026-03-27T14:20:37.984Z</time></trkpt><trkpt lat="46.0577156" lon="12.5222709"><ele>270.0</ele><time>2026-03-27T14:20:38.984Z</time></trkpt><trkpt lat="46.0576205" lon="12.5222364"><ele>270.0</ele><time>2026-03-27T14:20:40.982Z</time></trkpt><trkpt lat="46.0575993" lon="12.5221188"><ele>270.0</ele><time>2026-03-27T14:20:42.983Z</time></trkpt><trkpt lat="46.0576018" lon="12.5219373"><ele>270.0</ele><time>2026-03-27T14:20:44.983Z</time></trkpt><trkpt lat="46.0575853" lon="12.5217721"><ele>269.8</ele><time>2026-03-27T14:20:46.983Z</time></trkpt><trkpt lat="46.0575379" lon="12.5217045"><ele>269.6</ele><time>2026-03-27T14:20:47.985Z</time></trkpt><trkpt lat="46.057474" lon="12.5216575"><ele>269.4</ele><time>2026-03-27T14:20:48.984Z</time></trkpt><trkpt lat="46.0573816" lon="12.5216077"><ele>269.2</ele><time>2026-03-27T14:20:49.983Z</time></trkpt><trkpt lat="46.0572671" lon="12.5215343"><ele>269.0</ele><time>2026-03-27T14:20:50.984Z</time></trkpt><trkpt lat="46.0571513" lon="12.5214457"><ele>269.0</ele><time>2026-03-27T14:20:51.982Z</time></trkpt><trkpt lat="46.0570457" lon="12.5213505"><ele>269.0</ele><time>2026-03-27T14:20:52.984Z</time></trkpt><trkpt lat="46.0569524" lon="12.5212553"><ele>269.0</ele><time>2026-03-27T14:20:53.982Z</time></trkpt><trkpt lat="46.0568765" lon="12.5211541"><ele>269.0</ele><time>2026-03-27T14:20:54.984Z</time></trkpt><trkpt lat="46.0568165" lon="12.5210541"><ele>269.0</ele><time>2026-03-27T14:20:55.983Z</time></trkpt><trkpt lat="46.0567654" lon="12.5209642"><ele>269.0</ele><time>2026-03-27T14:20:56.984Z</time></trkpt><trkpt lat="46.0567167" lon="12.5208217"><ele>269.0</ele><time>2026-03-27T14:20:58.984Z</time></trkpt><trkpt lat="46.0566683" lon="12.5206433"><ele>269.0</ele><time>2026-03-27T14:21:00.982Z</time></trkpt><trkpt lat="46.0566367" lon="12.5205233"><ele>269.0</ele><time>2026-03-27T14:21:01.984Z</time></trkpt><trkpt lat="46.0565967" lon="12.5204067"><ele>269.0</ele><time>2026-03-27T14:21:02.985Z</time></trkpt><trkpt lat="46.0565467" lon="12.5202883"><ele>269.0</ele><time>2026-03-27T14:21:03.983Z</time></trkpt><trkpt lat="46.0564967" lon="12.52016"><ele>269.0</ele><time>2026-03-27T14:21:04.983Z</time></trkpt><trkpt lat="46.056455" lon="12.5200267"><ele>269.0</ele><time>2026-03-27T14:21:05.983Z</time></trkpt><trkpt lat="46.0564233" lon="12.519905"><ele>269.0</ele><time>2026-03-27T14:21:06.982Z</time></trkpt><trkpt lat="46.056405" lon="12.519795"><ele>269.0</ele><time>2026-03-27T14:21:07.983Z</time></trkpt><trkpt lat="46.0563917" lon="12.5196783"><ele>270.0</ele><time>2026-03-27T14:21:08.983Z</time></trkpt><trkpt lat="46.0563783" lon="12.519555"><ele>271.0</ele><time>2026-03-27T14:21:09.984Z</time></trkpt><trkpt lat="46.05636" lon="12.5194217"><ele>272.0</ele><time>2026-03-27T14:21:10.983Z</time></trkpt><trkpt lat="46.0563483" lon="12.5192833"><ele>273.0</ele><time>2026-03-27T14:21:11.982Z</time></trkpt><trkpt lat="46.0563517" lon="12.51914"><ele>274.0</ele><time>2026-03-27T14:21:12.982Z</time></trkpt><trkpt lat="46.0563517" lon="12.5189933"><ele>274.0</ele><time>2026-03-27T14:21:13.982Z</time></trkpt><trkpt lat="46.05634" lon="12.518835"><ele>274.0</ele><time>2026-03-27T14:21:14.984Z</time></trkpt><trkpt lat="46.0563183" lon="12.5186783"><ele>274.0</ele><time>2026-03-27T14:21:15.982Z</time></trkpt><trkpt lat="46.0562883" lon="12.51852"><ele>274.0</ele><time>2026-03-27T14:21:16.982Z</time></trkpt><trkpt lat="46.0562467" lon="12.5183533"><ele>276.0</ele><time>2026-03-27T14:21:17.982Z</time></trkpt><trkpt lat="46.0561983" lon="12.51819"><ele>278.0</ele><time>2026-03-27T14:21:18.983Z</time></trkpt><trkpt lat="46.05616" lon="12.5180333"><ele>280.0</ele><time>2026-03-27T14:21:19.983Z</time></trkpt><trkpt lat="46.0561383" lon="12.51789"><ele>282.0</ele><time>2026-03-27T14:21:20.986Z</time></trkpt><trkpt lat="46.0561183" lon="12.5177717"><ele>284.0</ele><time>2026-03-27T14:21:21.982Z</time></trkpt><trkpt lat="46.0561167" lon="12.5176133"><ele>284.0</ele><time>2026-03-27T14:21:23.985Z</time></trkpt><trkpt lat="46.0561783" lon="12.5175883"><ele>284.0</ele><time>2026-03-27T14:21:26.984Z</time></trkpt><trkpt lat="46.056225" lon="12.5177017"><ele>284.0</ele><time>2026-03-27T14:21:28.982Z</time></trkpt><trkpt lat="46.056305" lon="12.5178217"><ele>284.0</ele><time>2026-03-27T14:21:30.983Z</time></trkpt><trkpt lat="46.056385" lon="12.51792"><ele>284.0</ele><time>2026-03-27T14:21:32.983Z</time></trkpt><trkpt lat="46.05647" lon="12.5180367"><ele>284.0</ele><time>2026-03-27T14:21:34.982Z</time></trkpt><trkpt lat="46.0565283" lon="12.518095"><ele>284.0</ele><time>2026-03-27T14:21:35.982Z</time></trkpt><trkpt lat="46.0565967" lon="12.518155"><ele>284.0</ele><time>2026-03-27T14:21:36.982Z</time></trkpt><trkpt lat="46.056675" lon="12.5182117"><ele>284.0</ele><time>2026-03-27T14:21:37.983Z</time></trkpt><trkpt lat="46.05676" lon="12.5182733"><ele>284.0</ele><time>2026-03-27T14:21:38.985Z</time></trkpt><trkpt lat="46.0568517" lon="12.5183383"><ele>284.0</ele><time>2026-03-27T14:21:39.982Z</time></trkpt><trkpt lat="46.0569433" lon="12.5184117"><ele>288.2</ele><time>2026-03-27T14:21:40.983Z</time></trkpt><trkpt lat="46.05704" lon="12.5184933"><ele>292.4</ele><time>2026-03-27T14:21:41.982Z</time></trkpt><trkpt lat="46.057145" lon="12.5185783"><ele>296.6</ele><time>2026-03-27T14:21:42.982Z</time></trkpt><trkpt lat="46.057245" lon="12.5186617"><ele>300.8</ele><time>2026-03-27T14:21:43.983Z</time></trkpt><trkpt lat="46.057325" lon="12.5187433"><ele>305.0</ele><time>2026-03-27T14:21:44.984Z</time></trkpt><trkpt lat="46.0573883" lon="12.5188267"><ele>305.0</ele><time>2026-03-27T14:21:45.982Z</time></trkpt><trkpt lat="46.05744" lon="12.51889"><ele>305.0</ele><time>2026-03-27T14:21:46.984Z</time></trkpt><trkpt lat="46.0575" lon="12.5189383"><ele>305.0</ele><time>2026-03-27T14:21:47.984Z</time></trkpt><trkpt lat="46.0575733" lon="12.518955"><ele>305.0</ele><time>2026-03-27T14:21:48.982Z</time></trkpt><trkpt lat="46.0576467" lon="12.518955"><ele>305.0</ele><time>2026-03-27T14:21:49.983Z</time></trkpt><trkpt lat="46.057705" lon="12.5189183"><ele>305.0</ele><time>2026-03-27T14:21:50.984Z</time></trkpt><trkpt lat="46.0576933" lon="12.5187167"><ele>311.6</ele><time>2026-03-27T14:21:52.983Z</time></trkpt><trkpt lat="46.0576533" lon="12.518565"><ele>318.2</ele><time>2026-03-27T14:21:53.983Z</time></trkpt><trkpt lat="46.0576117" lon="12.5184067"><ele>324.79999999999995</ele><time>2026-03-27T14:21:54.983Z</time></trkpt><trkpt lat="46.057565" lon="12.5182517"><ele>331.4</ele><time>2026-03-27T14:21:55.983Z</time></trkpt><trkpt lat="46.057525" lon="12.51812"><ele>338.0</ele><time>2026-03-27T14:21:56.984Z</time></trkpt><trkpt lat="46.057475" lon="12.5179967"><ele>336.4</ele><time>2026-03-27T14:21:57.984Z</time></trkpt><trkpt lat="46.0574067" lon="12.517875"><ele>334.79999999999995</ele><time>2026-03-27T14:21:58.982Z</time></trkpt><trkpt lat="46.05734" lon="12.5177467"><ele>333.2</ele><time>2026-03-27T14:21:59.983Z</time></trkpt><trkpt lat="46.057275" lon="12.5176333"><ele>331.6</ele><time>2026-03-27T14:22:00.984Z</time></trkpt><trkpt lat="46.0572183" lon="12.5175283"><ele>330.0</ele><time>2026-03-27T14:22:01.983Z</time></trkpt><trkpt lat="46.057165" lon="12.5174133"><ele>330.0</ele><time>2026-03-27T14:22:02.983Z</time></trkpt><trkpt lat="46.057105" lon="12.5172833"><ele>330.0</ele><time>2026-03-27T14:22:03.982Z</time></trkpt><trkpt lat="46.0570333" lon="12.5171533"><ele>330.0</ele><time>2026-03-27T14:22:04.983Z</time></trkpt><trkpt lat="46.0569783" lon="12.5170117"><ele>330.0</ele><time>2026-03-27T14:22:05.983Z</time></trkpt><trkpt lat="46.0569383" lon="12.5168467"><ele>334.25</ele><time>2026-03-27T14:22:06.984Z</time></trkpt><trkpt lat="46.0569" lon="12.5166567"><ele>338.5</ele><time>2026-03-27T14:22:07.985Z</time></trkpt><trkpt lat="46.056855" lon="12.5164433"><ele>342.75</ele><time>2026-03-27T14:22:08.984Z</time></trkpt><trkpt lat="46.0568033" lon="12.51623"><ele>347.0</ele><time>2026-03-27T14:22:09.983Z</time></trkpt><trkpt lat="46.0567533" lon="12.516045"><ele>348.25</ele><time>2026-03-27T14:22:10.983Z</time></trkpt><trkpt lat="46.0567133" lon="12.5158717"><ele>349.5</ele><time>2026-03-27T14:22:11.983Z</time></trkpt><trkpt lat="46.0566717" lon="12.51572"><ele>350.75</ele><time>2026-03-27T14:22:12.983Z</time></trkpt><trkpt lat="46.0566167" lon="12.5155817"><ele>352.0</ele><time>2026-03-27T14:22:13.984Z</time></trkpt><trkpt lat="46.05655" lon="12.5154583"><ele>358.0</ele><time>2026-03-27T14:22:14.983Z</time></trkpt><trkpt lat="46.0565" lon="12.5153383"><ele>364.0</ele><time>2026-03-27T14:22:15.983Z</time></trkpt><trkpt lat="46.0564667" lon="12.5152183"><ele>370.0</ele><time>2026-03-27T14:22:16.983Z</time></trkpt><trkpt lat="46.0564383" lon="12.5151"><ele>376.0</ele><time>2026-03-27T14:22:17.983Z</time></trkpt><trkpt lat="46.05641" lon="12.5149967"><ele>382.00000000000006</ele><time>2026-03-27T14:22:18.983Z</time></trkpt><trkpt lat="46.0563833" lon="12.51487"><ele>388.0</ele><time>2026-03-27T14:22:20.983Z</time></trkpt><trkpt lat="46.05631" lon="12.514875"><ele>388.0</ele><time>2026-03-27T14:22:24.983Z</time></trkpt><trkpt lat="46.0562083" lon="12.514925"><ele>388.0</ele><time>2026-03-27T14:22:26.983Z</time></trkpt><trkpt lat="46.0561417" lon="12.5149383"><ele>388.0</ele><time>2026-03-27T14:22:27.982Z</time></trkpt><trkpt lat="46.05606" lon="12.5149383"><ele>388.0</ele><time>2026-03-27T14:22:28.983Z</time></trkpt><trkpt lat="46.0559617" lon="12.5149517"><ele>388.0</ele><time>2026-03-27T14:22:29.986Z</time></trkpt><trkpt lat="46.0558517" lon="12.5149633"><ele>390.5</ele><time>2026-03-27T14:22:30.983Z</time></trkpt><trkpt lat="46.0557383" lon="12.51498"><ele>393.0</ele><time>2026-03-27T14:22:31.984Z</time></trkpt><trkpt lat="46.055625" lon="12.51501"><ele>395.5</ele><time>2026-03-27T14:22:32.985Z</time></trkpt><trkpt lat="46.0555023" lon="12.5150572"><ele>398.0</ele><time>2026-03-27T14:22:33.982Z</time></trkpt><trkpt lat="46.055374" lon="12.5151302"><ele>398.0</ele><time>2026-03-27T14:22:34.983Z</time></trkpt><trkpt lat="46.0552414" lon="12.5152144"><ele>398.0</ele><time>2026-03-27T14:22:35.984Z</time></trkpt><trkpt lat="46.0550997" lon="12.515291"><ele>398.0</ele><time>2026-03-27T14:22:36.983Z</time></trkpt><trkpt lat="46.054949" lon="12.5153441"><ele>397.25</ele><time>2026-03-27T14:22:37.983Z</time></trkpt><trkpt lat="46.0547989" lon="12.5153704"><ele>396.5</ele><time>2026-03-27T14:22:38.985Z</time></trkpt><trkpt lat="46.0546555" lon="12.5153828"><ele>395.75</ele><time>2026-03-27T14:22:39.983Z</time></trkpt><trkpt lat="46.0545119" lon="12.5153847"><ele>395.0</ele><time>2026-03-27T14:22:40.984Z</time></trkpt><trkpt lat="46.0543613" lon="12.5153641"><ele>395.0</ele><time>2026-03-27T14:22:41.983Z</time></trkpt><trkpt lat="46.0542073" lon="12.5153273"><ele>395.0</ele><time>2026-03-27T14:22:42.982Z</time></trkpt><trkpt lat="46.0540613" lon="12.5152707"><ele>395.0</ele><time>2026-03-27T14:22:43.983Z</time></trkpt><trkpt lat="46.0539365" lon="12.5152136"><ele>395.0</ele><time>2026-03-27T14:22:44.985Z</time></trkpt><trkpt lat="46.0538528" lon="12.5151649"><ele>389.8</ele><time>2026-03-27T14:22:45.983Z</time></trkpt><trkpt lat="46.0537981" lon="12.5151116"><ele>384.6</ele><time>2026-03-27T14:22:46.982Z</time></trkpt><trkpt lat="46.053738" lon="12.5149486"><ele>379.4</ele><time>2026-03-27T14:22:48.983Z</time></trkpt><trkpt lat="46.0537458" lon="12.5148215"><ele>374.2</ele><time>2026-03-27T14:22:49.982Z</time></trkpt><trkpt lat="46.0537699" lon="12.5146672"><ele>369.0</ele><time>2026-03-27T14:22:50.983Z</time></trkpt><trkpt lat="46.0537971" lon="12.514501"><ele>369.0</ele><time>2026-03-27T14:22:51.983Z</time></trkpt><trkpt lat="46.0538329" lon="12.5143209"><ele>369.0</ele><time>2026-03-27T14:22:52.983Z</time></trkpt><trkpt lat="46.0538691" lon="12.5141209"><ele>369.0</ele><time>2026-03-27T14:22:53.983Z</time></trkpt><trkpt lat="46.0538991" lon="12.5139173"><ele>369.0</ele><time>2026-03-27T14:22:54.983Z</time></trkpt><trkpt lat="46.0539256" lon="12.5137167"><ele>373.0</ele><time>2026-03-27T14:22:55.982Z</time></trkpt><trkpt lat="46.0539496" lon="12.5135184"><ele>377.0</ele><time>2026-03-27T14:22:56.984Z</time></trkpt><trkpt lat="46.0539715" lon="12.5133465"><ele>381.0</ele><time>2026-03-27T14:22:57.983Z</time></trkpt><trkpt lat="46.0539988" lon="12.5131934"><ele>385.0</ele><time>2026-03-27T14:22:58.982Z</time></trkpt><trkpt lat="46.054037" lon="12.5130402"><ele>387.83333333333337</ele><time>2026-03-27T14:22:59.983Z</time></trkpt><trkpt lat="46.054077" lon="12.5129035"><ele>390.6666666666667</ele><time>2026-03-27T14:23:00.983Z</time></trkpt><trkpt lat="46.0541088" lon="12.5127955"><ele>393.5</ele><time>2026-03-27T14:23:01.984Z</time></trkpt><trkpt lat="46.0541271" lon="12.512699"><ele>396.33333333333337</ele><time>2026-03-27T14:23:02.984Z</time></trkpt><trkpt lat="46.0541223" lon="12.5125974"><ele>399.1666666666667</ele><time>2026-03-27T14:23:03.983Z</time></trkpt><trkpt lat="46.0541078" lon="12.5124745"><ele>402.0</ele><time>2026-03-27T14:23:04.982Z</time></trkpt><trkpt lat="46.0540864" lon="12.5123101"><ele>402.0</ele><time>2026-03-27T14:23:05.984Z</time></trkpt><trkpt lat="46.0540644" lon="12.5121424"><ele>402.0</ele><time>2026-03-27T14:23:06.982Z</time></trkpt><trkpt lat="46.0540439" lon="12.5120031"><ele>402.0</ele><time>2026-03-27T14:23:07.982Z</time></trkpt><trkpt lat="46.0540222" lon="12.5118871"><ele>402.0</ele><time>2026-03-27T14:23:08.983Z</time></trkpt><trkpt lat="46.0539496" lon="12.5117853"><ele>402.0</ele><time>2026-03-27T14:23:10.983Z</time></trkpt><trkpt lat="46.0538293" lon="12.5118365"><ele>402.0</ele><time>2026-03-27T14:23:12.982Z</time></trkpt><trkpt lat="46.0537504" lon="12.5119562"><ele>402.0</ele><time>2026-03-27T14:23:13.983Z</time></trkpt><trkpt lat="46.0536706" lon="12.5121011"><ele>402.0</ele><time>2026-03-27T14:23:14.984Z</time></trkpt><trkpt lat="46.0535851" lon="12.5122596"><ele>402.0</ele><time>2026-03-27T14:23:15.983Z</time></trkpt><trkpt lat="46.053507" lon="12.5124077"><ele>402.0</ele><time>2026-03-27T14:23:16.983Z</time></trkpt><trkpt lat="46.0534271" lon="12.5125338"><ele>402.0</ele><time>2026-03-27T14:23:17.983Z</time></trkpt><trkpt lat="46.0533436" lon="12.5126263"><ele>402.0</ele><time>2026-03-27T14:23:18.982Z</time></trkpt><trkpt lat="46.0532493" lon="12.5127036"><ele>402.0</ele><time>2026-03-27T14:23:19.982Z</time></trkpt><trkpt lat="46.0531348" lon="12.5127812"><ele>399.5</ele><time>2026-03-27T14:23:20.983Z</time></trkpt><trkpt lat="46.0530014" lon="12.512854"><ele>397.0</ele><time>2026-03-27T14:23:21.983Z</time></trkpt><trkpt lat="46.0528567" lon="12.5129228"><ele>394.5</ele><time>2026-03-27T14:23:22.983Z</time></trkpt><trkpt lat="46.0527218" lon="12.5129819"><ele>392.0</ele><time>2026-03-27T14:23:23.983Z</time></trkpt><trkpt lat="46.0526074" lon="12.5130264"><ele>389.49999999999994</ele><time>2026-03-27T14:23:24.983Z</time></trkpt><trkpt lat="46.0525188" lon="12.5130571"><ele>387.0</ele><time>2026-03-27T14:23:25.985Z</time></trkpt><trkpt lat="46.0524529" lon="12.5130904"><ele>384.5</ele><time>2026-03-27T14:23:26.984Z</time></trkpt><trkpt lat="46.0523453" lon="12.5130397"><ele>382.0</ele><time>2026-03-27T14:23:28.983Z</time></trkpt><trkpt lat="46.0523047" lon="12.5129503"><ele>379.5</ele><time>2026-03-27T14:23:29.987Z</time></trkpt><trkpt lat="46.0522695" lon="12.5128242"><ele>377.0</ele><time>2026-03-27T14:23:30.983Z</time></trkpt><trkpt lat="46.0522437" lon="12.5126321"><ele>369.6666666666667</ele><time>2026-03-27T14:23:31.984Z</time></trkpt><trkpt lat="46.0522212" lon="12.5124185"><ele>362.3333333333333</ele><time>2026-03-27T14:23:32.984Z</time></trkpt><trkpt lat="46.0522029" lon="12.5121832"><ele>355.0</ele><time>2026-03-27T14:23:33.983Z</time></trkpt><trkpt lat="46.0521869" lon="12.5119349"><ele>355.0</ele><time>2026-03-27T14:23:34.983Z</time></trkpt><trkpt lat="46.0521725" lon="12.5117038"><ele>355.0</ele><time>2026-03-27T14:23:35.983Z</time></trkpt><trkpt lat="46.0521606" lon="12.5115157"><ele>355.0</ele><time>2026-03-27T14:23:36.983Z</time></trkpt><trkpt lat="46.0521347" lon="12.5113619"><ele>355.0</ele><time>2026-03-27T14:23:37.983Z</time></trkpt><trkpt lat="46.0520906" lon="12.511223"><ele>359.5</ele><time>2026-03-27T14:23:38.983Z</time></trkpt><trkpt lat="46.0520185" lon="12.5110835"><ele>364.0</ele><time>2026-03-27T14:23:39.983Z</time></trkpt><trkpt lat="46.0519262" lon="12.5109229"><ele>368.5</ele><time>2026-03-27T14:23:40.984Z</time></trkpt><trkpt lat="46.0518135" lon="12.5107467"><ele>373.0</ele><time>2026-03-27T14:23:41.983Z</time></trkpt><trkpt lat="46.0516938" lon="12.5105741"><ele>371.5</ele><time>2026-03-27T14:23:42.983Z</time></trkpt><trkpt lat="46.0515777" lon="12.5104317"><ele>370.0</ele><time>2026-03-27T14:23:43.984Z</time></trkpt><trkpt lat="46.0514707" lon="12.5103199"><ele>368.5</ele><time>2026-03-27T14:23:44.985Z</time></trkpt><trkpt lat="46.0513646" lon="12.5102345"><ele>367.0</ele><time>2026-03-27T14:23:45.983Z</time></trkpt><trkpt lat="46.0512475" lon="12.5101677"><ele>367.0</ele><time>2026-03-27T14:23:46.984Z</time></trkpt><trkpt lat="46.0511427" lon="12.5100987"><ele>367.0</ele><time>2026-03-27T14:23:47.984Z</time></trkpt><trkpt lat="46.0510515" lon="12.5100283"><ele>367.0</ele><time>2026-03-27T14:23:48.983Z</time></trkpt><trkpt lat="46.050982" lon="12.5099506"><ele>367.0</ele><time>2026-03-27T14:23:49.983Z</time></trkpt><trkpt lat="46.0509304" lon="12.5098633"><ele>367.0</ele><time>2026-03-27T14:23:50.983Z</time></trkpt><trkpt lat="46.0508992" lon="12.5097521"><ele>367.0</ele><time>2026-03-27T14:23:51.982Z</time></trkpt><trkpt lat="46.050877" lon="12.5096048"><ele>367.0</ele><time>2026-03-27T14:23:52.983Z</time></trkpt><trkpt lat="46.0508573" lon="12.5094357"><ele>367.0</ele><time>2026-03-27T14:23:53.983Z</time></trkpt><trkpt lat="46.0508269" lon="12.5092648"><ele>367.0</ele><time>2026-03-27T14:23:54.983Z</time></trkpt><trkpt lat="46.0507844" lon="12.5091046"><ele>361.75</ele><time>2026-03-27T14:23:55.984Z</time></trkpt><trkpt lat="46.0507431" lon="12.5089537"><ele>356.5</ele><time>2026-03-27T14:23:56.984Z</time></trkpt><trkpt lat="46.0507042" lon="12.5087972"><ele>351.25</ele><time>2026-03-27T14:23:57.984Z</time></trkpt><trkpt lat="46.0506688" lon="12.5086294"><ele>346.0</ele><time>2026-03-27T14:23:58.983Z</time></trkpt><trkpt lat="46.0506355" lon="12.5084485"><ele>346.0</ele><time>2026-03-27T14:23:59.983Z</time></trkpt><trkpt lat="46.0506027" lon="12.5082641"><ele>346.0</ele><time>2026-03-27T14:24:00.984Z</time></trkpt><trkpt lat="46.0505616" lon="12.508088"><ele>346.0</ele><time>2026-03-27T14:24:01.985Z</time></trkpt><trkpt lat="46.050511" lon="12.5079286"><ele>346.0</ele><time>2026-03-27T14:24:02.983Z</time></trkpt><trkpt lat="46.0504579" lon="12.50778"><ele>347.5</ele><time>2026-03-27T14:24:03.984Z</time></trkpt><trkpt lat="46.0504172" lon="12.5076403"><ele>349.0</ele><time>2026-03-27T14:24:04.983Z</time></trkpt><trkpt lat="46.0503934" lon="12.5075244"><ele>350.5</ele><time>2026-03-27T14:24:05.982Z</time></trkpt><trkpt lat="46.0503702" lon="12.5074251"><ele>352.0</ele><time>2026-03-27T14:24:06.982Z</time></trkpt><trkpt lat="46.0503401" lon="12.5072759"><ele>353.5</ele><time>2026-03-27T14:24:08.983Z</time></trkpt><trkpt lat="46.0503114" lon="12.5071807"><ele>355.0</ele><time>2026-03-27T14:24:11.983Z</time></trkpt><trkpt lat="46.0502833" lon="12.5070683"><ele>356.16666666666663</ele><time>2026-03-27T14:27:03.982Z</time></trkpt><trkpt lat="46.05026" lon="12.5069033"><ele>357.3333333333333</ele><time>2026-03-27T14:27:05.983Z</time></trkpt><trkpt lat="46.0502517" lon="12.5067933"><ele>358.5</ele><time>2026-03-27T14:27:06.983Z</time></trkpt><trkpt lat="46.0502467" lon="12.5066833"><ele>359.6666666666667</ele><time>2026-03-27T14:27:07.983Z</time></trkpt><trkpt lat="46.05023" lon="12.506585"><ele>360.83333333333337</ele><time>2026-03-27T14:27:08.983Z</time></trkpt><trkpt lat="46.05021" lon="12.5064917"><ele>362.0</ele><time>2026-03-27T14:27:09.982Z</time></trkpt><trkpt lat="46.050165" lon="12.50638"><ele>362.0</ele><time>2026-03-27T14:27:10.984Z</time></trkpt><trkpt lat="46.0501233" lon="12.506275"><ele>362.0</ele><time>2026-03-27T14:27:11.983Z</time></trkpt><trkpt lat="46.0500817" lon="12.5061667"><ele>362.0</ele><time>2026-03-27T14:27:12.982Z</time></trkpt><trkpt lat="46.05005" lon="12.5060517"><ele>362.0</ele><time>2026-03-27T14:27:13.983Z</time></trkpt><trkpt lat="46.0500317" lon="12.5059217"><ele>362.0</ele><time>2026-03-27T14:27:14.983Z</time></trkpt><trkpt lat="46.0500167" lon="12.5057633"><ele>367.0</ele><time>2026-03-27T14:27:15.982Z</time></trkpt><trkpt lat="46.0500167" lon="12.5055567"><ele>372.0</ele><time>2026-03-27T14:27:16.984Z</time></trkpt><trkpt lat="46.0500283" lon="12.5053283"><ele>377.0</ele><time>2026-03-27T14:27:17.983Z</time></trkpt><trkpt lat="46.0500417" lon="12.5050983"><ele>379.0</ele><time>2026-03-27T14:27:18.983Z</time></trkpt><trkpt lat="46.050055" lon="12.50487"><ele>381.0</ele><time>2026-03-27T14:27:19.983Z</time></trkpt><trkpt lat="46.050065" lon="12.5046533"><ele>383.0</ele><time>2026-03-27T14:27:20.983Z</time></trkpt><trkpt lat="46.0500717" lon="12.5044533"><ele>385.0</ele><time>2026-03-27T14:27:21.983Z</time></trkpt><trkpt lat="46.05008" lon="12.5042767"><ele>386.4</ele><time>2026-03-27T14:27:22.982Z</time></trkpt><trkpt lat="46.0501033" lon="12.5041233"><ele>387.8</ele><time>2026-03-27T14:27:23.983Z</time></trkpt><trkpt lat="46.050115" lon="12.5039917"><ele>389.20000000000005</ele><time>2026-03-27T14:27:24.984Z</time></trkpt><trkpt lat="46.0501183" lon="12.503865"><ele>390.6</ele><time>2026-03-27T14:27:25.983Z</time></trkpt><trkpt lat="46.0501067" lon="12.5037133"><ele>392.0</ele><time>2026-03-27T14:27:26.984Z</time></trkpt><trkpt lat="46.0500867" lon="12.5035567"><ele>394.0</ele><time>2026-03-27T14:27:27.989Z</time></trkpt><trkpt lat="46.05008" lon="12.5034083"><ele>396.0</ele><time>2026-03-27T14:27:28.987Z</time></trkpt><trkpt lat="46.0500683" lon="12.503235"><ele>398.0</ele><time>2026-03-27T14:27:29.983Z</time></trkpt><trkpt lat="46.0500833" lon="12.5030617"><ele>400.0</ele><time>2026-03-27T14:27:30.984Z</time></trkpt><trkpt lat="46.050105" lon="12.50288"><ele>400.8</ele><time>2026-03-27T14:27:31.983Z</time></trkpt><trkpt lat="46.0501233" lon="12.5026983"><ele>401.6</ele><time>2026-03-27T14:27:32.985Z</time></trkpt><trkpt lat="46.0501517" lon="12.50255"><ele>402.4</ele><time>2026-03-27T14:27:33.983Z</time></trkpt><trkpt lat="46.050175" lon="12.50244"><ele>403.2</ele><time>2026-03-27T14:27:34.982Z</time></trkpt><trkpt lat="46.0501833" lon="12.502335"><ele>404.0</ele><time>2026-03-27T14:27:35.982Z</time></trkpt><trkpt lat="46.0501717" lon="12.5022283"><ele>404.0</ele><time>2026-03-27T14:27:36.982Z</time></trkpt><trkpt lat="46.0501333" lon="12.5021217"><ele>404.0</ele><time>2026-03-27T14:27:37.983Z</time></trkpt><trkpt lat="46.050075" lon="12.502015"><ele>404.0</ele><time>2026-03-27T14:27:38.984Z</time></trkpt><trkpt lat="46.04998" lon="12.5019117"><ele>404.0</ele><time>2026-03-27T14:27:39.983Z</time></trkpt><trkpt lat="46.04987" lon="12.50181"><ele>404.0</ele><time>2026-03-27T14:27:40.983Z</time></trkpt><trkpt lat="46.0497583" lon="12.5017017"><ele>402.4</ele><time>2026-03-27T14:27:41.982Z</time></trkpt><trkpt lat="46.0496667" lon="12.5016067"><ele>400.79999999999995</ele><time>2026-03-27T14:27:42.982Z</time></trkpt><trkpt lat="46.0495957" lon="12.5015401"><ele>399.20000000000005</ele><time>2026-03-27T14:27:43.983Z</time></trkpt><trkpt lat="46.0495397" lon="12.5014861"><ele>397.6</ele><time>2026-03-27T14:27:44.983Z</time></trkpt><trkpt lat="46.0495054" lon="12.5013689"><ele>396.0</ele><time>2026-03-27T14:27:46.982Z</time></trkpt><trkpt lat="46.0495708" lon="12.5012579"><ele>398.0</ele><time>2026-03-27T14:27:48.983Z</time></trkpt><trkpt lat="46.0496367" lon="12.5012028"><ele>400.0</ele><time>2026-03-27T14:27:49.983Z</time></trkpt><trkpt lat="46.0497143" lon="12.5011456"><ele>402.0</ele><time>2026-03-27T14:27:50.984Z</time></trkpt><trkpt lat="46.0498017" lon="12.5010842"><ele>404.0</ele><time>2026-03-27T14:27:51.982Z</time></trkpt><trkpt lat="46.0499022" lon="12.5010288"><ele>406.0</ele><time>2026-03-27T14:27:52.987Z</time></trkpt><trkpt lat="46.0500064" lon="12.5009765"><ele>406.0</ele><time>2026-03-27T14:27:53.983Z</time></trkpt><trkpt lat="46.0501103" lon="12.5009228"><ele>406.0</ele><time>2026-03-27T14:27:54.983Z</time></trkpt><trkpt lat="46.0502117" lon="12.5008567"><ele>406.0</ele><time>2026-03-27T14:27:55.983Z</time></trkpt><trkpt lat="46.050309" lon="12.5007823"><ele>406.0</ele><time>2026-03-27T14:27:56.983Z</time></trkpt><trkpt lat="46.0504036" lon="12.5007041"><ele>406.0</ele><time>2026-03-27T14:27:57.982Z</time></trkpt><trkpt lat="46.050498" lon="12.50063"><ele>406.0</ele><time>2026-03-27T14:27:58.983Z</time></trkpt><trkpt lat="46.0505981" lon="12.5005568"><ele>406.0</ele><time>2026-03-27T14:27:59.984Z</time></trkpt><trkpt lat="46.0507088" lon="12.500487"><ele>406.0</ele><time>2026-03-27T14:28:00.984Z</time></trkpt><trkpt lat="46.0508194" lon="12.500418"><ele>406.0</ele><time>2026-03-27T14:28:01.982Z</time></trkpt><trkpt lat="46.0509201" lon="12.5003474"><ele>406.1666666666667</ele><time>2026-03-27T14:28:02.983Z</time></trkpt><trkpt lat="46.0510002" lon="12.5002887"><ele>406.33333333333337</ele><time>2026-03-27T14:28:03.983Z</time></trkpt><trkpt lat="46.0510689" lon="12.500242"><ele>406.5</ele><time>2026-03-27T14:28:04.982Z</time></trkpt><trkpt lat="46.0511891" lon="12.5002132"><ele>406.66666666666663</ele><time>2026-03-27T14:28:06.982Z</time></trkpt><trkpt lat="46.0512575" lon="12.5002334"><ele>406.8333333333333</ele><time>2026-03-27T14:28:07.982Z</time></trkpt><trkpt lat="46.0513401" lon="12.5002669"><ele>407.0</ele><time>2026-03-27T14:28:08.986Z</time></trkpt><trkpt lat="46.0514278" lon="12.5003113"><ele>406.99999999999994</ele><time>2026-03-27T14:28:09.984Z</time></trkpt><trkpt lat="46.0515057" lon="12.5003615"><ele>407.0</ele><time>2026-03-27T14:28:10.982Z</time></trkpt><trkpt lat="46.0515711" lon="12.5004105"><ele>407.0</ele><time>2026-03-27T14:28:11.983Z</time></trkpt><trkpt lat="46.0516356" lon="12.500443"><ele>407.0</ele><time>2026-03-27T14:28:12.985Z</time></trkpt><trkpt lat="46.0517007" lon="12.5004593"><ele>406.99999999999994</ele><time>2026-03-27T14:28:13.985Z</time></trkpt><trkpt lat="46.0518095" lon="12.500436"><ele>407.0</ele><time>2026-03-27T14:28:15.985Z</time></trkpt><trkpt lat="46.0518998" lon="12.5003619"><ele>412.0</ele><time>2026-03-27T14:28:17.983Z</time></trkpt><trkpt lat="46.0519998" lon="12.5003182"><ele>417.0</ele><time>2026-03-27T14:28:19.983Z</time></trkpt><trkpt lat="46.0520872" lon="12.500325"><ele>422.00000000000006</ele><time>2026-03-27T14:28:21.982Z</time></trkpt><trkpt lat="46.0521779" lon="12.5002509"><ele>427.0</ele><time>2026-03-27T14:28:24.983Z</time></trkpt><trkpt lat="46.0522542" lon="12.5001235"><ele>432.0</ele><time>2026-03-27T14:28:26.983Z</time></trkpt><trkpt lat="46.0523215" lon="12.5000191"><ele>432.0</ele><time>2026-03-27T14:28:28.983Z</time></trkpt><trkpt lat="46.052404" lon="12.4999301"><ele>432.00000000000006</ele><time>2026-03-27T14:28:30.983Z</time></trkpt><trkpt lat="46.052496" lon="12.4998431"><ele>432.00000000000006</ele><time>2026-03-27T14:28:32.984Z</time></trkpt><trkpt lat="46.0525531" lon="12.4997695"><ele>432.0</ele><time>2026-03-27T14:28:34.983Z</time></trkpt><trkpt lat="46.0525475" lon="12.4996634"><ele>432.0</ele><time>2026-03-27T14:28:37.984Z</time></trkpt><trkpt lat="46.0524815" lon="12.4995468"><ele>432.8</ele><time>2026-03-27T14:28:40.982Z</time></trkpt><trkpt lat="46.0523894" lon="12.4994564"><ele>433.6</ele><time>2026-03-27T14:28:42.982Z</time></trkpt><trkpt lat="46.0523031" lon="12.4993651"><ele>434.40000000000003</ele><time>2026-03-27T14:28:44.984Z</time></trkpt><trkpt lat="46.0522264" lon="12.4992623"><ele>435.20000000000005</ele><time>2026-03-27T14:28:46.983Z</time></trkpt><trkpt lat="46.0521614" lon="12.4991794"><ele>436.0</ele><time>2026-03-27T14:28:48.983Z</time></trkpt><trkpt lat="46.0521034" lon="12.499104"><ele>436.00000000000006</ele><time>2026-03-27T14:28:49.984Z</time></trkpt><trkpt lat="46.0520383" lon="12.4990252"><ele>436.0</ele><time>2026-03-27T14:28:50.983Z</time></trkpt><trkpt lat="46.0519793" lon="12.4989491"><ele>436.0</ele><time>2026-03-27T14:28:51.982Z</time></trkpt><trkpt lat="46.0519251" lon="12.4988765"><ele>436.0</ele><time>2026-03-27T14:28:52.984Z</time></trkpt><trkpt lat="46.0518767" lon="12.4988101"><ele>436.00000000000006</ele><time>2026-03-27T14:28:53.984Z</time></trkpt><trkpt lat="46.0518249" lon="12.4986667"><ele>436.0</ele><time>2026-03-27T14:28:55.983Z</time></trkpt><trkpt lat="46.0518194" lon="12.4985235"><ele>437.1666666666667</ele><time>2026-03-27T14:28:57.983Z</time></trkpt><trkpt lat="46.0517975" lon="12.4983588"><ele>438.33333333333337</ele><time>2026-03-27T14:28:59.983Z</time></trkpt><trkpt lat="46.0517786" lon="12.4982702"><ele>439.5</ele><time>2026-03-27T14:29:00.983Z</time></trkpt><trkpt lat="46.0517517" lon="12.4981873"><ele>440.66666666666663</ele><time>2026-03-27T14:29:01.982Z</time></trkpt><trkpt lat="46.0517245" lon="12.4981041"><ele>441.8333333333333</ele><time>2026-03-27T14:29:02.983Z</time></trkpt><trkpt lat="46.051677" lon="12.49795"><ele>443.0</ele><time>2026-03-27T14:29:04.982Z</time></trkpt><trkpt lat="46.0516205" lon="12.4977945"><ele>443.0</ele><time>2026-03-27T14:29:06.982Z</time></trkpt><trkpt lat="46.0515831" lon="12.4977183"><ele>443.0</ele><time>2026-03-27T14:29:07.982Z</time></trkpt><trkpt lat="46.051553" lon="12.4976361"><ele>443.0</ele><time>2026-03-27T14:29:08.983Z</time></trkpt><trkpt lat="46.0515252" lon="12.4975476"><ele>443.0</ele><time>2026-03-27T14:29:09.983Z</time></trkpt><trkpt lat="46.0514968" lon="12.4974509"><ele>443.0</ele><time>2026-03-27T14:29:10.983Z</time></trkpt><trkpt lat="46.0514702" lon="12.4973514"><ele>443.0</ele><time>2026-03-27T14:29:11.984Z</time></trkpt><trkpt lat="46.05144" lon="12.4972586"><ele>443.0</ele><time>2026-03-27T14:29:12.983Z</time></trkpt><trkpt lat="46.0514096" lon="12.4971745"><ele>443.0</ele><time>2026-03-27T14:29:13.983Z</time></trkpt><trkpt lat="46.0513938" lon="12.4970293"><ele>442.99999999999994</ele><time>2026-03-27T14:29:15.984Z</time></trkpt><trkpt lat="46.0514651" lon="12.4971491"><ele>442.99999999999994</ele><time>2026-03-27T14:29:18.983Z</time></trkpt><trkpt lat="46.0515045" lon="12.4972596"><ele>443.0</ele><time>2026-03-27T14:29:19.983Z</time></trkpt><trkpt lat="46.0515498" lon="12.4973804"><ele>443.0</ele><time>2026-03-27T14:29:20.983Z</time></trkpt><trkpt lat="46.0515983" lon="12.4975044"><ele>446.0</ele><time>2026-03-27T14:29:21.984Z</time></trkpt><trkpt lat="46.0516437" lon="12.4976298"><ele>448.99999999999994</ele><time>2026-03-27T14:29:22.983Z</time></trkpt><trkpt lat="46.051686" lon="12.4977634"><ele>451.99999999999994</ele><time>2026-03-27T14:29:23.985Z</time></trkpt><trkpt lat="46.0517277" lon="12.4978911"><ele>455.0</ele><time>2026-03-27T14:29:24.983Z</time></trkpt><trkpt lat="46.0517643" lon="12.4980015"><ele>458.0</ele><time>2026-03-27T14:29:25.983Z</time></trkpt><trkpt lat="46.0517879" lon="12.4980952"><ele>457.99999999999994</ele><time>2026-03-27T14:29:26.983Z</time></trkpt><trkpt lat="46.0518307" lon="12.4982348"><ele>458.0</ele><time>2026-03-27T14:29:28.982Z</time></trkpt><trkpt lat="46.0518855" lon="12.4981817"><ele>458.0</ele><time>2026-03-27T14:29:32.986Z</time></trkpt><trkpt lat="46.0518779" lon="12.4980593"><ele>458.0</ele><time>2026-03-27T14:29:34.983Z</time></trkpt><trkpt lat="46.0518685" lon="12.4979562"><ele>457.99999999999994</ele><time>2026-03-27T14:29:35.982Z</time></trkpt><trkpt lat="46.0518634" lon="12.4978267"><ele>458.0</ele><time>2026-03-27T14:29:36.982Z</time></trkpt><trkpt lat="46.0518609" lon="12.4976946"><ele>460.3333333333333</ele><time>2026-03-27T14:29:37.983Z</time></trkpt><trkpt lat="46.0518497" lon="12.497565"><ele>462.66666666666663</ele><time>2026-03-27T14:29:38.985Z</time></trkpt><trkpt lat="46.051847" lon="12.4974388"><ele>465.0</ele><time>2026-03-27T14:29:39.983Z</time></trkpt><trkpt lat="46.0518526" lon="12.4973171"><ele>467.33333333333337</ele><time>2026-03-27T14:29:40.983Z</time></trkpt><trkpt lat="46.0518649" lon="12.4971996"><ele>469.6666666666667</ele><time>2026-03-27T14:29:41.984Z</time></trkpt><trkpt lat="46.0518798" lon="12.4970828"><ele>472.0</ele><time>2026-03-27T14:29:42.982Z</time></trkpt><trkpt lat="46.0518932" lon="12.4969641"><ele>473.50000000000006</ele><time>2026-03-27T14:29:43.986Z</time></trkpt><trkpt lat="46.0519059" lon="12.4968427"><ele>475.0</ele><time>2026-03-27T14:29:44.986Z</time></trkpt><trkpt lat="46.0519178" lon="12.4967222"><ele>476.5</ele><time>2026-03-27T14:29:45.983Z</time></trkpt><trkpt lat="46.0519277" lon="12.4965962"><ele>478.0</ele><time>2026-03-27T14:29:46.984Z</time></trkpt><trkpt lat="46.0519304" lon="12.496473"><ele>479.50000000000006</ele><time>2026-03-27T14:29:47.983Z</time></trkpt><trkpt lat="46.0519188" lon="12.4963557"><ele>481.0</ele><time>2026-03-27T14:29:48.983Z</time></trkpt><trkpt lat="46.051885" lon="12.4962516"><ele>480.1666666666667</ele><time>2026-03-27T14:29:49.982Z</time></trkpt><trkpt lat="46.0518376" lon="12.496159"><ele>479.33333333333337</ele><time>2026-03-27T14:29:50.984Z</time></trkpt><trkpt lat="46.0517824" lon="12.4960778"><ele>478.5</ele><time>2026-03-27T14:29:51.983Z</time></trkpt><trkpt lat="46.051717" lon="12.4960189"><ele>477.66666666666663</ele><time>2026-03-27T14:29:52.983Z</time></trkpt><trkpt lat="46.0516441" lon="12.4959741"><ele>476.8333333333333</ele><time>2026-03-27T14:29:53.983Z</time></trkpt><trkpt lat="46.0515668" lon="12.4959424"><ele>476.0</ele><time>2026-03-27T14:29:54.984Z</time></trkpt><trkpt lat="46.0514922" lon="12.4959137"><ele>475.99999999999994</ele><time>2026-03-27T14:29:55.983Z</time></trkpt><trkpt lat="46.0514202" lon="12.4958826"><ele>476.0</ele><time>2026-03-27T14:29:56.983Z</time></trkpt><trkpt lat="46.0513575" lon="12.4958406"><ele>476.0</ele><time>2026-03-27T14:29:57.983Z</time></trkpt><trkpt lat="46.0513056" lon="12.4957884"><ele>476.0</ele><time>2026-03-27T14:29:59.068Z</time></trkpt><trkpt lat="46.0512218" lon="12.49564"><ele>475.99999999999994</ele><time>2026-03-27T14:30:00.983Z</time></trkpt><trkpt lat="46.0511902" lon="12.4955357"><ele>476.0</ele><time>2026-03-27T14:30:01.983Z</time></trkpt><trkpt lat="46.051162" lon="12.4954274"><ele>475.99999999999994</ele><time>2026-03-27T14:30:02.983Z</time></trkpt><trkpt lat="46.0511241" lon="12.4953315"><ele>476.0</ele><time>2026-03-27T14:30:03.983Z</time></trkpt><trkpt lat="46.0510755" lon="12.4952578"><ele>476.0</ele><time>2026-03-27T14:30:04.984Z</time></trkpt><trkpt lat="46.0509697" lon="12.495227"><ele>476.0</ele><time>2026-03-27T14:30:06.983Z</time></trkpt><trkpt lat="46.0509062" lon="12.4952934"><ele>475.99999999999994</ele><time>2026-03-27T14:30:07.983Z</time></trkpt><trkpt lat="46.050844" lon="12.4953494"><ele>476.0</ele><time>2026-03-27T14:30:08.984Z</time></trkpt><trkpt lat="46.0507786" lon="12.4953731"><ele>476.0</ele><time>2026-03-27T14:30:09.983Z</time></trkpt><trkpt lat="46.0507054" lon="12.4953562"><ele>476.0</ele><time>2026-03-27T14:30:10.984Z</time></trkpt><trkpt lat="46.050615" lon="12.4953069"><ele>476.0</ele><time>2026-03-27T14:30:11.983Z</time></trkpt><trkpt lat="46.0505209" lon="12.495235"><ele>476.0</ele><time>2026-03-27T14:30:12.983Z</time></trkpt><trkpt lat="46.0504368" lon="12.4951615"><ele>476.0</ele><time>2026-03-27T14:30:13.983Z</time></trkpt><trkpt lat="46.0503685" lon="12.4950876"><ele>475.99999999999994</ele><time>2026-03-27T14:30:14.985Z</time></trkpt><trkpt lat="46.0503004" lon="12.4950175"><ele>476.0</ele><time>2026-03-27T14:30:15.985Z</time></trkpt><trkpt lat="46.0502348" lon="12.4949367"><ele>476.0</ele><time>2026-03-27T14:30:16.983Z</time></trkpt><trkpt lat="46.050167" lon="12.4948509"><ele>476.0</ele><time>2026-03-27T14:30:17.982Z</time></trkpt><trkpt lat="46.0500951" lon="12.4947665"><ele>475.99999999999994</ele><time>2026-03-27T14:30:18.984Z</time></trkpt><trkpt lat="46.0500251" lon="12.4946794"><ele>476.0</ele><time>2026-03-27T14:30:19.983Z</time></trkpt><trkpt lat="46.0499521" lon="12.4945923"><ele>475.16666666666663</ele><time>2026-03-27T14:30:20.983Z</time></trkpt><trkpt lat="46.0498777" lon="12.4945108"><ele>474.3333333333333</ele><time>2026-03-27T14:30:21.983Z</time></trkpt><trkpt lat="46.049801" lon="12.4944417"><ele>473.5</ele><time>2026-03-27T14:30:22.982Z</time></trkpt><trkpt lat="46.0497241" lon="12.4943746"><ele>472.66666666666663</ele><time>2026-03-27T14:30:23.983Z</time></trkpt><trkpt lat="46.0496496" lon="12.4943148"><ele>471.8333333333333</ele><time>2026-03-27T14:30:24.984Z</time></trkpt><trkpt lat="46.0495748" lon="12.494255"><ele>471.0</ele><time>2026-03-27T14:30:25.985Z</time></trkpt><trkpt lat="46.0495058" lon="12.4941923"><ele>471.0</ele><time>2026-03-27T14:30:26.983Z</time></trkpt><trkpt lat="46.0494442" lon="12.4941245"><ele>471.0</ele><time>2026-03-27T14:30:27.983Z</time></trkpt><trkpt lat="46.0493805" lon="12.4940605"><ele>471.0</ele><time>2026-03-27T14:30:28.985Z</time></trkpt><trkpt lat="46.0493073" lon="12.4940037"><ele>471.0</ele><time>2026-03-27T14:30:29.983Z</time></trkpt><trkpt lat="46.0492307" lon="12.4939479"><ele>471.0</ele><time>2026-03-27T14:30:30.982Z</time></trkpt><trkpt lat="46.0491523" lon="12.4938963"><ele>471.0</ele><time>2026-03-27T14:30:31.983Z</time></trkpt><trkpt lat="46.0490737" lon="12.4938378"><ele>471.3333333333333</ele><time>2026-03-27T14:30:32.983Z</time></trkpt><trkpt lat="46.0489932" lon="12.4937773"><ele>471.66666666666663</ele><time>2026-03-27T14:30:33.984Z</time></trkpt><trkpt lat="46.0489122" lon="12.4937215"><ele>472.0</ele><time>2026-03-27T14:30:34.985Z</time></trkpt><trkpt lat="46.0488361" lon="12.4936677"><ele>472.3333333333333</ele><time>2026-03-27T14:30:35.984Z</time></trkpt><trkpt lat="46.0487638" lon="12.493623"><ele>472.66666666666663</ele><time>2026-03-27T14:30:36.984Z</time></trkpt><trkpt lat="46.0486953" lon="12.4935795"><ele>473.0</ele><time>2026-03-27T14:30:37.986Z</time></trkpt><trkpt lat="46.0486239" lon="12.4935403"><ele>473.0</ele><time>2026-03-27T14:30:38.984Z</time></trkpt><trkpt lat="46.0485499" lon="12.4935047"><ele>473.0</ele><time>2026-03-27T14:30:39.984Z</time></trkpt><trkpt lat="46.0484747" lon="12.4934807"><ele>473.0</ele><time>2026-03-27T14:30:40.984Z</time></trkpt><trkpt lat="46.0484088" lon="12.4934406"><ele>473.0</ele><time>2026-03-27T14:30:41.983Z</time></trkpt><trkpt lat="46.0483517" lon="12.4933864"><ele>473.0</ele><time>2026-03-27T14:30:42.984Z</time></trkpt><trkpt lat="46.0483043" lon="12.493307"><ele>473.0</ele><time>2026-03-27T14:30:43.983Z</time></trkpt><trkpt lat="46.0482612" lon="12.4932072"><ele>473.0</ele><time>2026-03-27T14:30:44.984Z</time></trkpt><trkpt lat="46.0482142" lon="12.4931117"><ele>472.16666666666663</ele><time>2026-03-27T14:30:45.983Z</time></trkpt><trkpt lat="46.0481704" lon="12.4930297"><ele>471.3333333333333</ele><time>2026-03-27T14:30:46.983Z</time></trkpt><trkpt lat="46.0480958" lon="12.4929056"><ele>470.5</ele><time>2026-03-27T14:30:48.983Z</time></trkpt><trkpt lat="46.0480436" lon="12.4928548"><ele>469.66666666666663</ele><time>2026-03-27T14:30:49.983Z</time></trkpt><trkpt lat="46.0479595" lon="12.4927372"><ele>468.8333333333333</ele><time>2026-03-27T14:30:51.984Z</time></trkpt><trkpt lat="46.0479271" lon="12.4926447"><ele>468.0</ele><time>2026-03-27T14:30:52.984Z</time></trkpt><trkpt lat="46.0478949" lon="12.492546"><ele>468.0</ele><time>2026-03-27T14:30:53.982Z</time></trkpt><trkpt lat="46.0478621" lon="12.4924512"><ele>468.0</ele><time>2026-03-27T14:30:54.988Z</time></trkpt><trkpt lat="46.047833" lon="12.4923665"><ele>468.0</ele><time>2026-03-27T14:30:55.983Z</time></trkpt><trkpt lat="46.0477847" lon="12.492249"><ele>468.0</ele><time>2026-03-27T14:30:57.983Z</time></trkpt><trkpt lat="46.0477383" lon="12.492145"><ele>468.0</ele><time>2026-03-27T14:31:12.983Z</time></trkpt><trkpt lat="46.0477" lon="12.4920667"><ele>468.0</ele><time>2026-03-27T14:31:13.983Z</time></trkpt><trkpt lat="46.0476667" lon="12.4919583"><ele>471.79999999999995</ele><time>2026-03-27T14:31:14.983Z</time></trkpt><trkpt lat="46.04764" lon="12.4918333"><ele>475.59999999999997</ele><time>2026-03-27T14:31:15.983Z</time></trkpt><trkpt lat="46.0476067" lon="12.491695"><ele>479.40000000000003</ele><time>2026-03-27T14:31:16.983Z</time></trkpt><trkpt lat="46.0475717" lon="12.491545"><ele>483.20000000000005</ele><time>2026-03-27T14:31:17.983Z</time></trkpt><trkpt lat="46.047535" lon="12.4913883"><ele>487.0</ele><time>2026-03-27T14:31:18.984Z</time></trkpt><trkpt lat="46.0474933" lon="12.491225"><ele>483.5</ele><time>2026-03-27T14:31:19.984Z</time></trkpt><trkpt lat="46.0474517" lon="12.4910567"><ele>480.0</ele><time>2026-03-27T14:31:20.983Z</time></trkpt><trkpt lat="46.0474083" lon="12.4908867"><ele>476.5</ele><time>2026-03-27T14:31:21.985Z</time></trkpt><trkpt lat="46.0473717" lon="12.4907167"><ele>473.0</ele><time>2026-03-27T14:31:22.984Z</time></trkpt><trkpt lat="46.0473283" lon="12.4905467"><ele>477.25</ele><time>2026-03-27T14:31:23.984Z</time></trkpt><trkpt lat="46.0472683" lon="12.49038"><ele>481.5</ele><time>2026-03-27T14:31:24.984Z</time></trkpt><trkpt lat="46.047195" lon="12.49022"><ele>485.75</ele><time>2026-03-27T14:31:25.984Z</time></trkpt><trkpt lat="46.0471133" lon="12.4900583"><ele>490.0</ele><time>2026-03-27T14:31:26.983Z</time></trkpt><trkpt lat="46.0470283" lon="12.4898867"><ele>490.0</ele><time>2026-03-27T14:31:27.983Z</time></trkpt><trkpt lat="46.0469483" lon="12.4897133"><ele>490.0</ele><time>2026-03-27T14:31:28.983Z</time></trkpt><trkpt lat="46.0468683" lon="12.4895417"><ele>490.0</ele><time>2026-03-27T14:31:29.985Z</time></trkpt><trkpt lat="46.046785" lon="12.4893767"><ele>490.0</ele><time>2026-03-27T14:31:30.984Z</time></trkpt><trkpt lat="46.0467033" lon="12.4892067"><ele>487.25</ele><time>2026-03-27T14:31:31.983Z</time></trkpt><trkpt lat="46.0466283" lon="12.4890333"><ele>484.5</ele><time>2026-03-27T14:31:32.984Z</time></trkpt><trkpt lat="46.0465583" lon="12.4888583"><ele>481.75</ele><time>2026-03-27T14:31:33.983Z</time></trkpt><trkpt lat="46.0464883" lon="12.4886767"><ele>479.0</ele><time>2026-03-27T14:31:34.983Z</time></trkpt><trkpt lat="46.04643" lon="12.4884867"><ele>487.0</ele><time>2026-03-27T14:31:35.988Z</time></trkpt><trkpt lat="46.0463533" lon="12.4882933"><ele>495.0</ele><time>2026-03-27T14:31:36.985Z</time></trkpt><trkpt lat="46.0462583" lon="12.4881133"><ele>503.0</ele><time>2026-03-27T14:31:37.984Z</time></trkpt><trkpt lat="46.0461533" lon="12.48794"><ele>509.75</ele><time>2026-03-27T14:31:38.983Z</time></trkpt><trkpt lat="46.0460533" lon="12.4877867"><ele>516.5</ele><time>2026-03-27T14:31:39.984Z</time></trkpt><trkpt lat="46.04597" lon="12.4876367"><ele>523.25</ele><time>2026-03-27T14:31:40.983Z</time></trkpt><trkpt lat="46.0459" lon="12.48748"><ele>530.0</ele><time>2026-03-27T14:31:41.984Z</time></trkpt><trkpt lat="46.0458317" lon="12.4873167"><ele>521.75</ele><time>2026-03-27T14:31:42.987Z</time></trkpt><trkpt lat="46.0457667" lon="12.4871467"><ele>513.5</ele><time>2026-03-27T14:31:43.985Z</time></trkpt><trkpt lat="46.0457083" lon="12.486965"><ele>505.25</ele><time>2026-03-27T14:31:44.983Z</time></trkpt><trkpt lat="46.0456567" lon="12.4867767"><ele>497.0</ele><time>2026-03-27T14:31:45.982Z</time></trkpt><trkpt lat="46.0456067" lon="12.4865783"><ele>497.0</ele><time>2026-03-27T14:31:46.984Z</time></trkpt><trkpt lat="46.0455633" lon="12.486365"><ele>497.0</ele><time>2026-03-27T14:31:47.984Z</time></trkpt><trkpt lat="46.0455383" lon="12.486135"><ele>497.0</ele><time>2026-03-27T14:31:48.984Z</time></trkpt><trkpt lat="46.0455133" lon="12.485895"><ele>502.3333333333333</ele><time>2026-03-27T14:31:49.986Z</time></trkpt><trkpt lat="46.0454917" lon="12.4856633"><ele>507.66666666666663</ele><time>2026-03-27T14:31:50.984Z</time></trkpt><trkpt lat="46.0454783" lon="12.4854533"><ele>513.0</ele><time>2026-03-27T14:31:51.983Z</time></trkpt><trkpt lat="46.04549" lon="12.48525"><ele>514.25</ele><time>2026-03-27T14:31:52.983Z</time></trkpt><trkpt lat="46.045505" lon="12.4850367"><ele>515.5</ele><time>2026-03-27T14:31:53.983Z</time></trkpt><trkpt lat="46.0455217" lon="12.4848283"><ele>516.75</ele><time>2026-03-27T14:31:54.984Z</time></trkpt><trkpt lat="46.0455467" lon="12.4846367"><ele>518.0</ele><time>2026-03-27T14:31:55.983Z</time></trkpt><trkpt lat="46.0455767" lon="12.4844617"><ele>518.0</ele><time>2026-03-27T14:31:56.984Z</time></trkpt><trkpt lat="46.0455933" lon="12.4842917"><ele>518.0</ele><time>2026-03-27T14:31:57.984Z</time></trkpt><trkpt lat="46.045595" lon="12.4841133"><ele>518.0</ele><time>2026-03-27T14:31:58.984Z</time></trkpt><trkpt lat="46.0455833" lon="12.4839217"><ele>518.0</ele><time>2026-03-27T14:31:59.983Z</time></trkpt><trkpt lat="46.0455617" lon="12.4837217"><ele>519.6</ele><time>2026-03-27T14:32:00.986Z</time></trkpt><trkpt lat="46.045545" lon="12.4835367"><ele>521.1999999999999</ele><time>2026-03-27T14:32:01.984Z</time></trkpt><trkpt lat="46.045545" lon="12.4833817"><ele>522.8</ele><time>2026-03-27T14:32:02.983Z</time></trkpt><trkpt lat="46.0455667" lon="12.4832583"><ele>524.4</ele><time>2026-03-27T14:32:03.983Z</time></trkpt><trkpt lat="46.0456167" lon="12.483155"><ele>526.0</ele><time>2026-03-27T14:32:04.983Z</time></trkpt><trkpt lat="46.04572" lon="12.4830833"><ele>531.6</ele><time>2026-03-27T14:32:05.983Z</time></trkpt><trkpt lat="46.0458217" lon="12.4830117"><ele>537.2</ele><time>2026-03-27T14:32:06.982Z</time></trkpt><trkpt lat="46.04591" lon="12.482915"><ele>542.8</ele><time>2026-03-27T14:32:07.985Z</time></trkpt><trkpt lat="46.0459833" lon="12.482815"><ele>548.4</ele><time>2026-03-27T14:32:08.984Z</time></trkpt><trkpt lat="46.0460467" lon="12.4827117"><ele>554.0</ele><time>2026-03-27T14:32:09.983Z</time></trkpt><trkpt lat="46.0461217" lon="12.4826217"><ele>554.0</ele><time>2026-03-27T14:32:10.985Z</time></trkpt><trkpt lat="46.0461983" lon="12.482535"><ele>554.0</ele><time>2026-03-27T14:32:11.983Z</time></trkpt><trkpt lat="46.0462733" lon="12.4824483"><ele>554.0</ele><time>2026-03-27T14:32:12.983Z</time></trkpt><trkpt lat="46.0463367" lon="12.4823617"><ele>554.0</ele><time>2026-03-27T14:32:13.983Z</time></trkpt><trkpt lat="46.0463983" lon="12.48229"><ele>554.0</ele><time>2026-03-27T14:32:14.983Z</time></trkpt><trkpt lat="46.0464667" lon="12.482215"><ele>554.0</ele><time>2026-03-27T14:32:15.983Z</time></trkpt><trkpt lat="46.046555" lon="12.4821483"><ele>557.5</ele><time>2026-03-27T14:32:16.983Z</time></trkpt><trkpt lat="46.0466483" lon="12.482085"><ele>561.0</ele><time>2026-03-27T14:32:17.982Z</time></trkpt><trkpt lat="46.0467467" lon="12.4820083"><ele>564.5</ele><time>2026-03-27T14:32:18.983Z</time></trkpt><trkpt lat="46.0468483" lon="12.4819233"><ele>568.0</ele><time>2026-03-27T14:32:19.983Z</time></trkpt><trkpt lat="46.04695" lon="12.4818333"><ele>568.0</ele><time>2026-03-27T14:32:20.984Z</time></trkpt><trkpt lat="46.0470517" lon="12.48175"><ele>568.0</ele><time>2026-03-27T14:32:21.983Z</time></trkpt><trkpt lat="46.0471633" lon="12.481675"><ele>568.0</ele><time>2026-03-27T14:32:23.065Z</time></trkpt><trkpt lat="46.04728" lon="12.4816117"><ele>568.0</ele><time>2026-03-27T14:32:23.983Z</time></trkpt><trkpt lat="46.047405" lon="12.4815633"><ele>578.0</ele><time>2026-03-27T14:32:24.983Z</time></trkpt><trkpt lat="46.0475367" lon="12.4815317"><ele>588.0</ele><time>2026-03-27T14:32:25.984Z</time></trkpt><trkpt lat="46.0476717" lon="12.4814867"><ele>598.0</ele><time>2026-03-27T14:32:26.983Z</time></trkpt><trkpt lat="46.0478117" lon="12.4814117"><ele>608.0</ele><time>2026-03-27T14:32:27.983Z</time></trkpt><trkpt lat="46.0479483" lon="12.4813067"><ele>611.25</ele><time>2026-03-27T14:32:28.983Z</time></trkpt><trkpt lat="46.0480783" lon="12.481185"><ele>614.5</ele><time>2026-03-27T14:32:29.983Z</time></trkpt><trkpt lat="46.0481933" lon="12.4810667"><ele>617.75</ele><time>2026-03-27T14:32:30.983Z</time></trkpt><trkpt lat="46.0482733" lon="12.4809533"><ele>621.0</ele><time>2026-03-27T14:32:31.983Z</time></trkpt><trkpt lat="46.048325" lon="12.4808217"><ele>621.0</ele><time>2026-03-27T14:32:32.986Z</time></trkpt><trkpt lat="46.0483583" lon="12.480655"><ele>621.0</ele><time>2026-03-27T14:32:33.984Z</time></trkpt><trkpt lat="46.0483917" lon="12.48046"><ele>621.0</ele><time>2026-03-27T14:32:34.984Z</time></trkpt><trkpt lat="46.0484167" lon="12.4802517"><ele>621.0</ele><time>2026-03-27T14:32:35.983Z</time></trkpt><trkpt lat="46.0484383" lon="12.4800417"><ele>619.25</ele><time>2026-03-27T14:32:36.983Z</time></trkpt><trkpt lat="46.0484567" lon="12.4798483"><ele>617.5</ele><time>2026-03-27T14:32:37.984Z</time></trkpt><trkpt lat="46.048505" lon="12.4796783"><ele>615.75</ele><time>2026-03-27T14:32:38.984Z</time></trkpt><trkpt lat="46.048565" lon="12.4795117"><ele>614.0</ele><time>2026-03-27T14:32:39.983Z</time></trkpt><trkpt lat="46.048635" lon="12.4793417"><ele>611.6666666666666</ele><time>2026-03-27T14:32:40.983Z</time></trkpt><trkpt lat="46.048705" lon="12.47916"><ele>609.3333333333334</ele><time>2026-03-27T14:32:41.983Z</time></trkpt><trkpt lat="46.0487717" lon="12.47896"><ele>607.0</ele><time>2026-03-27T14:32:42.983Z</time></trkpt><trkpt lat="46.0488317" lon="12.4787533"><ele>606.6</ele><time>2026-03-27T14:32:43.983Z</time></trkpt><trkpt lat="46.04888" lon="12.4785617"><ele>606.2</ele><time>2026-03-27T14:32:44.984Z</time></trkpt><trkpt lat="46.0489167" lon="12.478395"><ele>605.8</ele><time>2026-03-27T14:32:45.983Z</time></trkpt><trkpt lat="46.04894" lon="12.4782633"><ele>605.4</ele><time>2026-03-27T14:32:46.982Z</time></trkpt><trkpt lat="46.0489567" lon="12.4781567"><ele>605.0</ele><time>2026-03-27T14:32:47.984Z</time></trkpt><trkpt lat="46.0489733" lon="12.478345"><ele>605.0</ele><time>2026-03-27T14:32:51.988Z</time></trkpt><trkpt lat="46.0489367" lon="12.4785033"><ele>605.0</ele><time>2026-03-27T14:32:52.983Z</time></trkpt><trkpt lat="46.0489117" lon="12.4786967"><ele>605.0</ele><time>2026-03-27T14:32:53.984Z</time></trkpt><trkpt lat="46.0489033" lon="12.4789233"><ele>605.0</ele><time>2026-03-27T14:32:54.987Z</time></trkpt><trkpt lat="46.0488917" lon="12.4791617"><ele>605.6666666666666</ele><time>2026-03-27T14:32:55.983Z</time></trkpt><trkpt lat="46.0488683" lon="12.4794083"><ele>606.3333333333334</ele><time>2026-03-27T14:32:56.984Z</time></trkpt><trkpt lat="46.0488333" lon="12.4796433"><ele>607.0</ele><time>2026-03-27T14:32:57.983Z</time></trkpt><trkpt lat="46.048805" lon="12.4798317"><ele>608.4</ele><time>2026-03-27T14:32:58.983Z</time></trkpt><trkpt lat="46.0488033" lon="12.4799717"><ele>609.8000000000001</ele><time>2026-03-27T14:32:59.983Z</time></trkpt><trkpt lat="46.0488183" lon="12.48011"><ele>611.2</ele><time>2026-03-27T14:33:00.983Z</time></trkpt><trkpt lat="46.0488433" lon="12.4802683"><ele>612.6</ele><time>2026-03-27T14:33:01.983Z</time></trkpt><trkpt lat="46.0488717" lon="12.48044"><ele>614.0</ele><time>2026-03-27T14:33:02.984Z</time></trkpt><trkpt lat="46.0488983" lon="12.480625"><ele>615.4</ele><time>2026-03-27T14:33:03.982Z</time></trkpt><trkpt lat="46.0489267" lon="12.4808133"><ele>616.8</ele><time>2026-03-27T14:33:04.984Z</time></trkpt><trkpt lat="46.0489483" lon="12.480985"><ele>618.2</ele><time>2026-03-27T14:33:05.983Z</time></trkpt><trkpt lat="46.0489683" lon="12.4811267"><ele>619.6</ele><time>2026-03-27T14:33:06.985Z</time></trkpt><trkpt lat="46.0489767" lon="12.4812583"><ele>621.0</ele><time>2026-03-27T14:33:07.983Z</time></trkpt><trkpt lat="46.04898" lon="12.4814017"><ele>624.8</ele><time>2026-03-27T14:33:08.983Z</time></trkpt><trkpt lat="46.048965" lon="12.481535"><ele>628.6</ele><time>2026-03-27T14:33:09.983Z</time></trkpt><trkpt lat="46.04892" lon="12.481665"><ele>632.4</ele><time>2026-03-27T14:33:10.983Z</time></trkpt><trkpt lat="46.04884" lon="12.48178"><ele>636.2</ele><time>2026-03-27T14:33:11.983Z</time></trkpt><trkpt lat="46.0487567" lon="12.4818817"><ele>640.0</ele><time>2026-03-27T14:33:12.983Z</time></trkpt><trkpt lat="46.0486833" lon="12.481975"><ele>640.0</ele><time>2026-03-27T14:33:13.986Z</time></trkpt><trkpt lat="46.04862" lon="12.4820867"><ele>640.0</ele><time>2026-03-27T14:33:14.982Z</time></trkpt><trkpt lat="46.0485683" lon="12.4822583"><ele>640.0</ele><time>2026-03-27T14:33:15.985Z</time></trkpt><trkpt lat="46.0484933" lon="12.4824283"><ele>640.0</ele><time>2026-03-27T14:33:16.982Z</time></trkpt><trkpt lat="46.048395" lon="12.4825783"><ele>640.0</ele><time>2026-03-27T14:33:17.983Z</time></trkpt><trkpt lat="46.0482817" lon="12.4827167"><ele>640.0</ele><time>2026-03-27T14:33:18.982Z</time></trkpt><trkpt lat="46.0481583" lon="12.4828417"><ele>640.0</ele><time>2026-03-27T14:33:19.983Z</time></trkpt><trkpt lat="46.0480467" lon="12.4829467"><ele>640.0</ele><time>2026-03-27T14:33:20.983Z</time></trkpt><trkpt lat="46.0479633" lon="12.4830383"><ele>645.75</ele><time>2026-03-27T14:33:21.983Z</time></trkpt><trkpt lat="46.047905" lon="12.4831517"><ele>651.5</ele><time>2026-03-27T14:33:22.983Z</time></trkpt><trkpt lat="46.0478567" lon="12.4833083"><ele>657.25</ele><time>2026-03-27T14:33:23.983Z</time></trkpt><trkpt lat="46.0478267" lon="12.4834983"><ele>663.0</ele><time>2026-03-27T14:33:24.984Z</time></trkpt><trkpt lat="46.0478133" lon="12.483705"><ele>666.0</ele><time>2026-03-27T14:33:25.984Z</time></trkpt><trkpt lat="46.0478117" lon="12.4839233"><ele>669.0</ele><time>2026-03-27T14:33:26.984Z</time></trkpt><trkpt lat="46.04781" lon="12.4841483"><ele>672.0</ele><time>2026-03-27T14:33:27.982Z</time></trkpt><trkpt lat="46.0478067" lon="12.484355"><ele>672.0</ele><time>2026-03-27T14:33:28.983Z</time></trkpt><trkpt lat="46.0477933" lon="12.48451"><ele>672.0</ele><time>2026-03-27T14:33:29.983Z</time></trkpt><trkpt lat="46.0477933" lon="12.48461"><ele>672.0</ele><time>2026-03-27T14:33:30.983Z</time></trkpt><trkpt lat="46.04786" lon="12.484765"><ele>672.0</ele><time>2026-03-27T14:33:32.984Z</time></trkpt><trkpt lat="46.04797" lon="12.484865"><ele>672.0</ele><time>2026-03-27T14:33:33.984Z</time></trkpt><trkpt lat="46.0480933" lon="12.4849367"><ele>671.25</ele><time>2026-03-27T14:33:34.983Z</time></trkpt><trkpt lat="46.0482233" lon="12.484995"><ele>670.5</ele><time>2026-03-27T14:33:35.985Z</time></trkpt><trkpt lat="46.048355" lon="12.4850533"><ele>669.75</ele><time>2026-03-27T14:33:36.983Z</time></trkpt><trkpt lat="46.04849" lon="12.485135"><ele>669.0</ele><time>2026-03-27T14:33:37.984Z</time></trkpt><trkpt lat="46.0486217" lon="12.4852267"><ele>671.75</ele><time>2026-03-27T14:33:38.986Z</time></trkpt><trkpt lat="46.048735" lon="12.48532"><ele>674.5</ele><time>2026-03-27T14:33:39.986Z</time></trkpt><trkpt lat="46.0488233" lon="12.48541"><ele>677.25</ele><time>2026-03-27T14:33:40.983Z</time></trkpt><trkpt lat="46.0488783" lon="12.48553"><ele>680.0</ele><time>2026-03-27T14:33:41.988Z</time></trkpt><trkpt lat="46.0489133" lon="12.485695"><ele>680.0</ele><time>2026-03-27T14:33:42.983Z</time></trkpt><trkpt lat="46.0489417" lon="12.485845"><ele>680.0</ele><time>2026-03-27T14:33:43.984Z</time></trkpt><trkpt lat="46.0490083" lon="12.485975"><ele>680.0</ele><time>2026-03-27T14:33:44.984Z</time></trkpt><trkpt lat="46.0491033" lon="12.4861217"><ele>680.0</ele><time>2026-03-27T14:33:45.983Z</time></trkpt><trkpt lat="46.0492017" lon="12.4862817"><ele>688.0</ele><time>2026-03-27T14:33:46.983Z</time></trkpt><trkpt lat="46.0492933" lon="12.4864533"><ele>696.0</ele><time>2026-03-27T14:33:47.984Z</time></trkpt><trkpt lat="46.0493783" lon="12.4866483"><ele>704.0</ele><time>2026-03-27T14:33:48.985Z</time></trkpt><trkpt lat="46.049465" lon="12.48682"><ele>704.0</ele><time>2026-03-27T14:33:49.984Z</time></trkpt><trkpt lat="46.049565" lon="12.4869633"><ele>704.0</ele><time>2026-03-27T14:33:50.985Z</time></trkpt><trkpt lat="46.0496867" lon="12.48709"><ele>704.0</ele><time>2026-03-27T14:33:51.985Z</time></trkpt><trkpt lat="46.0498233" lon="12.4872017"><ele>704.0</ele><time>2026-03-27T14:33:52.984Z</time></trkpt><trkpt lat="46.0499433" lon="12.4873017"><ele>707.2</ele><time>2026-03-27T14:33:53.983Z</time></trkpt><trkpt lat="46.0500267" lon="12.4874167"><ele>710.4000000000001</ele><time>2026-03-27T14:33:54.983Z</time></trkpt><trkpt lat="46.0500917" lon="12.4875583"><ele>713.6</ele><time>2026-03-27T14:33:55.983Z</time></trkpt><trkpt lat="46.0501617" lon="12.487665"><ele>716.8</ele><time>2026-03-27T14:33:56.984Z</time></trkpt><trkpt lat="46.0502483" lon="12.487745"><ele>720.0</ele><time>2026-03-27T14:33:57.985Z</time></trkpt><trkpt lat="46.0503583" lon="12.4877883"><ele>720.0</ele><time>2026-03-27T14:33:58.983Z</time></trkpt><trkpt lat="46.0504917" lon="12.4878083"><ele>720.0</ele><time>2026-03-27T14:33:59.983Z</time></trkpt><trkpt lat="46.0506233" lon="12.487825"><ele>720.0</ele><time>2026-03-27T14:34:00.983Z</time></trkpt><trkpt lat="46.0507333" lon="12.4878617"><ele>720.0</ele><time>2026-03-27T14:34:01.984Z</time></trkpt><trkpt lat="46.0508333" lon="12.487935"><ele>720.0</ele><time>2026-03-27T14:34:02.987Z</time></trkpt><trkpt lat="46.0509283" lon="12.4880267"><ele>720.0</ele><time>2026-03-27T14:34:03.983Z</time></trkpt><trkpt lat="46.05101" lon="12.488085"><ele>720.0</ele><time>2026-03-27T14:34:04.982Z</time></trkpt><trkpt lat="46.051095" lon="12.488105"><ele>720.0</ele><time>2026-03-27T14:34:05.983Z</time></trkpt><trkpt lat="46.0511967" lon="12.48809"><ele>720.0</ele><time>2026-03-27T14:34:06.983Z</time></trkpt><trkpt lat="46.0512983" lon="12.4880583"><ele>720.0</ele><time>2026-03-27T14:34:07.985Z</time></trkpt><trkpt lat="46.0513867" lon="12.4880217"><ele>720.0</ele><time>2026-03-27T14:34:08.984Z</time></trkpt><trkpt lat="46.051445" lon="12.48796"><ele>720.0</ele><time>2026-03-27T14:34:09.983Z</time></trkpt><trkpt lat="46.0513833" lon="12.4878233"><ele>720.0</ele><time>2026-03-27T14:34:11.983Z</time></trkpt><trkpt lat="46.0513017" lon="12.4877633"><ele>720.0</ele><time>2026-03-27T14:34:12.988Z</time></trkpt><trkpt lat="46.05124" lon="12.4876867"><ele>723.8333333333334</ele><time>2026-03-27T14:34:13.984Z</time></trkpt><trkpt lat="46.0512083" lon="12.4875733"><ele>727.6666666666666</ele><time>2026-03-27T14:34:14.983Z</time></trkpt><trkpt lat="46.0512167" lon="12.48744"><ele>731.5</ele><time>2026-03-27T14:34:15.985Z</time></trkpt><trkpt lat="46.0512367" lon="12.4873167"><ele>735.3333333333333</ele><time>2026-03-27T14:34:16.984Z</time></trkpt><trkpt lat="46.05126" lon="12.4872283"><ele>739.1666666666666</ele><time>2026-03-27T14:34:17.983Z</time></trkpt><trkpt lat="46.051355" lon="12.48719"><ele>743.0</ele><time>2026-03-27T14:34:19.982Z</time></trkpt><trkpt lat="46.051425" lon="12.4872533"><ele>743.0</ele><time>2026-03-27T14:34:20.983Z</time></trkpt><trkpt lat="46.0515217" lon="12.4873383"><ele>743.0</ele><time>2026-03-27T14:34:21.984Z</time></trkpt><trkpt lat="46.0516017" lon="12.4874"><ele>743.0</ele><time>2026-03-27T14:34:22.983Z</time></trkpt><trkpt lat="46.0516883" lon="12.487435"><ele>743.0</ele><time>2026-03-27T14:34:23.984Z</time></trkpt><trkpt lat="46.0517717" lon="12.4874617"><ele>743.0</ele><time>2026-03-27T14:34:24.983Z</time></trkpt><trkpt lat="46.0518467" lon="12.4874883"><ele>744.5999999999999</ele><time>2026-03-27T14:34:25.983Z</time></trkpt><trkpt lat="46.0519283" lon="12.48749"><ele>746.1999999999999</ele><time>2026-03-27T14:34:26.984Z</time></trkpt><trkpt lat="46.0520117" lon="12.4874683"><ele>747.8</ele><time>2026-03-27T14:34:27.983Z</time></trkpt><trkpt lat="46.0521033" lon="12.487425"><ele>749.4</ele><time>2026-03-27T14:34:28.984Z</time></trkpt><trkpt lat="46.05219" lon="12.4873517"><ele>751.0</ele><time>2026-03-27T14:34:29.984Z</time></trkpt><trkpt lat="46.0522733" lon="12.4872267"><ele>751.0</ele><time>2026-03-27T14:34:30.983Z</time></trkpt><trkpt lat="46.0523667" lon="12.4871133"><ele>751.0</ele><time>2026-03-27T14:34:31.985Z</time></trkpt><trkpt lat="46.05247" lon="12.4870183"><ele>751.0</ele><time>2026-03-27T14:34:32.985Z</time></trkpt><trkpt lat="46.0525683" lon="12.48694"><ele>751.0</ele><time>2026-03-27T14:34:33.984Z</time></trkpt><trkpt lat="46.0526733" lon="12.4868783"><ele>756.1999999999999</ele><time>2026-03-27T14:34:34.983Z</time></trkpt><trkpt lat="46.0527767" lon="12.4868333"><ele>761.4</ele><time>2026-03-27T14:34:35.983Z</time></trkpt><trkpt lat="46.0528767" lon="12.486795"><ele>766.6</ele><time>2026-03-27T14:34:36.983Z</time></trkpt><trkpt lat="46.05297" lon="12.48677"><ele>771.8</ele><time>2026-03-27T14:34:37.985Z</time></trkpt><trkpt lat="46.0530467" lon="12.4867433"><ele>777.0</ele><time>2026-03-27T14:34:38.984Z</time></trkpt><trkpt lat="46.053075" lon="12.48664"><ele>777.0</ele><time>2026-03-27T14:34:40.985Z</time></trkpt><trkpt lat="46.0530133" lon="12.4866133"><ele>777.0</ele><time>2026-03-27T14:34:41.984Z</time></trkpt><trkpt lat="46.0529417" lon="12.4866117"><ele>777.0</ele><time>2026-03-27T14:34:42.983Z</time></trkpt><trkpt lat="46.0528467" lon="12.486635"><ele>777.0</ele><time>2026-03-27T14:34:43.983Z</time></trkpt><trkpt lat="46.05272" lon="12.4866417"><ele>777.0</ele><time>2026-03-27T14:34:44.983Z</time></trkpt><trkpt lat="46.05258" lon="12.4866283"><ele>774.0</ele><time>2026-03-27T14:34:45.983Z</time></trkpt><trkpt lat="46.0524267" lon="12.4866183"><ele>771.0</ele><time>2026-03-27T14:34:46.983Z</time></trkpt><trkpt lat="46.0522667" lon="12.48662"><ele>768.0</ele><time>2026-03-27T14:34:47.987Z</time></trkpt><trkpt lat="46.05212" lon="12.4866383"><ele>768.0</ele><time>2026-03-27T14:34:48.982Z</time></trkpt><trkpt lat="46.0520033" lon="12.4866817"><ele>768.0</ele><time>2026-03-27T14:34:49.984Z</time></trkpt><trkpt lat="46.051925" lon="12.4866967"><ele>768.0</ele><time>2026-03-27T14:34:50.984Z</time></trkpt><trkpt lat="46.0518383" lon="12.4866217"><ele>768.0</ele><time>2026-03-27T14:34:52.983Z</time></trkpt><trkpt lat="46.0518133" lon="12.4865033"><ele>768.0</ele><time>2026-03-27T14:34:53.983Z</time></trkpt><trkpt lat="46.0518033" lon="12.486365"><ele>771.0</ele><time>2026-03-27T14:34:54.982Z</time></trkpt><trkpt lat="46.0518283" lon="12.4862217"><ele>774.0</ele><time>2026-03-27T14:34:55.984Z</time></trkpt><trkpt lat="46.05185" lon="12.486085"><ele>777.0</ele><time>2026-03-27T14:34:56.983Z</time></trkpt><trkpt lat="46.05186" lon="12.485965"><ele>780.0</ele><time>2026-03-27T14:34:57.982Z</time></trkpt><trkpt lat="46.051855" lon="12.48586"><ele>783.0</ele><time>2026-03-27T14:34:58.983Z</time></trkpt><trkpt lat="46.0518183" lon="12.4857617"><ele>786.0</ele><time>2026-03-27T14:34:59.985Z</time></trkpt><trkpt lat="46.0517367" lon="12.4856667"><ele>786.0</ele><time>2026-03-27T14:35:00.983Z</time></trkpt><trkpt lat="46.051675" lon="12.4855383"><ele>786.0</ele><time>2026-03-27T14:35:01.983Z</time></trkpt><trkpt lat="46.0516033" lon="12.4853883"><ele>786.0</ele><time>2026-03-27T14:35:02.986Z</time></trkpt><trkpt lat="46.0515233" lon="12.48522"><ele>786.0</ele><time>2026-03-27T14:35:03.984Z</time></trkpt><trkpt lat="46.0514433" lon="12.4850883"><ele>786.5999999999999</ele><time>2026-03-27T14:35:04.984Z</time></trkpt><trkpt lat="46.0513783" lon="12.4849917"><ele>787.2</ele><time>2026-03-27T14:35:05.985Z</time></trkpt><trkpt lat="46.0513183" lon="12.4849333"><ele>787.8</ele><time>2026-03-27T14:35:06.984Z</time></trkpt><trkpt lat="46.051175" lon="12.484935"><ele>788.4000000000001</ele><time>2026-03-27T14:35:08.988Z</time></trkpt><trkpt lat="46.05108" lon="12.4849283"><ele>789.0</ele><time>2026-03-27T14:35:09.984Z</time></trkpt><trkpt lat="46.050985" lon="12.48489"><ele>789.0</ele><time>2026-03-27T14:35:10.985Z</time></trkpt><trkpt lat="46.050895" lon="12.48481"><ele>789.0</ele><time>2026-03-27T14:35:11.983Z</time></trkpt><trkpt lat="46.0508183" lon="12.4846783"><ele>789.0</ele><time>2026-03-27T14:35:12.983Z</time></trkpt><trkpt lat="46.0507517" lon="12.4845583"><ele>789.0</ele><time>2026-03-27T14:35:13.983Z</time></trkpt><trkpt lat="46.0507083" lon="12.4844617"><ele>789.0</ele><time>2026-03-27T14:35:14.983Z</time></trkpt><trkpt lat="46.05078" lon="12.4844367"><ele>789.0</ele><time>2026-03-27T14:35:17.983Z</time></trkpt><trkpt lat="46.0508133" lon="12.4845183"><ele>789.0</ele><time>2026-03-27T14:35:18.984Z</time></trkpt><trkpt lat="46.050865" lon="12.4846233"><ele>789.0</ele><time>2026-03-27T14:35:19.983Z</time></trkpt><trkpt lat="46.0509367" lon="12.4847017"><ele>789.0</ele><time>2026-03-27T14:35:20.984Z</time></trkpt><trkpt lat="46.05101" lon="12.4847283"><ele>789.0</ele><time>2026-03-27T14:35:21.984Z</time></trkpt><trkpt lat="46.051085" lon="12.484695"><ele>789.0</ele><time>2026-03-27T14:35:22.984Z</time></trkpt><trkpt lat="46.0511633" lon="12.48463"><ele>792.0</ele><time>2026-03-27T14:35:23.984Z</time></trkpt><trkpt lat="46.051245" lon="12.4845733"><ele>795.0</ele><time>2026-03-27T14:35:24.983Z</time></trkpt><trkpt lat="46.0513283" lon="12.4845267"><ele>798.0</ele><time>2026-03-27T14:35:25.986Z</time></trkpt><trkpt lat="46.05141" lon="12.4844983"><ele>801.0</ele><time>2026-03-27T14:35:26.983Z</time></trkpt><trkpt lat="46.051485" lon="12.4845033"><ele>804.0</ele><time>2026-03-27T14:35:27.984Z</time></trkpt><trkpt lat="46.05155" lon="12.48459"><ele>807.0</ele><time>2026-03-27T14:35:28.983Z</time></trkpt><trkpt lat="46.0516433" lon="12.484705"><ele>807.0</ele><time>2026-03-27T14:35:29.983Z</time></trkpt><trkpt lat="46.0517233" lon="12.4848383"><ele>807.0</ele><time>2026-03-27T14:35:30.984Z</time></trkpt><trkpt lat="46.0518067" lon="12.48494"><ele>807.0</ele><time>2026-03-27T14:35:31.985Z</time></trkpt><trkpt lat="46.051905" lon="12.4850083"><ele>807.0</ele><time>2026-03-27T14:35:32.985Z</time></trkpt><trkpt lat="46.0520283" lon="12.48504"><ele>807.0</ele><time>2026-03-27T14:35:33.984Z</time></trkpt><trkpt lat="46.0521683" lon="12.4850567"><ele>807.0</ele><time>2026-03-27T14:35:34.984Z</time></trkpt><trkpt lat="46.05231" lon="12.4850683"><ele>807.0</ele><time>2026-03-27T14:35:35.983Z</time></trkpt><trkpt lat="46.0524717" lon="12.4850667"><ele>807.0</ele><time>2026-03-27T14:35:36.984Z</time></trkpt><trkpt lat="46.0526367" lon="12.4850467"><ele>813.6666666666667</ele><time>2026-03-27T14:35:37.983Z</time></trkpt><trkpt lat="46.05281" lon="12.485055"><ele>820.3333333333334</ele><time>2026-03-27T14:35:38.984Z</time></trkpt><trkpt lat="46.052995" lon="12.4850433"><ele>827.0</ele><time>2026-03-27T14:35:39.983Z</time></trkpt><trkpt lat="46.0531817" lon="12.4850183"><ele>829.0</ele><time>2026-03-27T14:35:40.984Z</time></trkpt><trkpt lat="46.05337" lon="12.484985"><ele>831.0</ele><time>2026-03-27T14:35:41.983Z</time></trkpt><trkpt lat="46.0535633" lon="12.48496"><ele>833.0</ele><time>2026-03-27T14:35:42.983Z</time></trkpt><trkpt lat="46.0537517" lon="12.4849383"><ele>833.0</ele><time>2026-03-27T14:35:43.984Z</time></trkpt><trkpt lat="46.05393" lon="12.4849267"><ele>833.0</ele><time>2026-03-27T14:35:44.984Z</time></trkpt><trkpt lat="46.0540867" lon="12.4849067"><ele>833.0</ele><time>2026-03-27T14:35:45.983Z</time></trkpt><trkpt lat="46.0542383" lon="12.48487"><ele>836.0</ele><time>2026-03-27T14:35:46.985Z</time></trkpt><trkpt lat="46.0543783" lon="12.4848467"><ele>839.0</ele><time>2026-03-27T14:35:47.988Z</time></trkpt><trkpt lat="46.05452" lon="12.4848283"><ele>842.0</ele><time>2026-03-27T14:35:48.983Z</time></trkpt><trkpt lat="46.0546667" lon="12.4848383"><ele>845.0</ele><time>2026-03-27T14:35:49.983Z</time></trkpt><trkpt lat="46.054825" lon="12.484865"><ele>847.3333333333334</ele><time>2026-03-27T14:35:50.983Z</time></trkpt><trkpt lat="46.0549867" lon="12.4848883"><ele>849.6666666666667</ele><time>2026-03-27T14:35:51.983Z</time></trkpt><trkpt lat="46.0551533" lon="12.4849067"><ele>852.0</ele><time>2026-03-27T14:35:52.983Z</time></trkpt><trkpt lat="46.0553017" lon="12.4849433"><ele>852.0</ele><time>2026-03-27T14:35:53.984Z</time></trkpt><trkpt lat="46.0554433" lon="12.484985"><ele>852.0</ele><time>2026-03-27T14:35:54.983Z</time></trkpt><trkpt lat="46.0555867" lon="12.4850167"><ele>852.0</ele><time>2026-03-27T14:35:55.984Z</time></trkpt><trkpt lat="46.0557383" lon="12.485045"><ele>852.0</ele><time>2026-03-27T14:35:56.983Z</time></trkpt><trkpt lat="46.055915" lon="12.4850767"><ele>856.3333333333333</ele><time>2026-03-27T14:35:57.982Z</time></trkpt><trkpt lat="46.056095" lon="12.4851417"><ele>860.6666666666666</ele><time>2026-03-27T14:35:58.983Z</time></trkpt><trkpt lat="46.0562717" lon="12.48521"><ele>865.0</ele><time>2026-03-27T14:35:59.984Z</time></trkpt><trkpt lat="46.05645" lon="12.4852967"><ele>861.0</ele><time>2026-03-27T14:36:00.983Z</time></trkpt><trkpt lat="46.056635" lon="12.4854267"><ele>857.0</ele><time>2026-03-27T14:36:01.983Z</time></trkpt><trkpt lat="46.0568" lon="12.4855517"><ele>853.0</ele><time>2026-03-27T14:36:02.983Z</time></trkpt><trkpt lat="46.056945" lon="12.48569"><ele>853.0</ele><time>2026-03-27T14:36:03.983Z</time></trkpt><trkpt lat="46.05707" lon="12.4858217"><ele>853.0</ele><time>2026-03-27T14:36:04.985Z</time></trkpt><trkpt lat="46.0571783" lon="12.485945"><ele>853.0</ele><time>2026-03-27T14:36:05.983Z</time></trkpt><trkpt lat="46.0572717" lon="12.4860417"><ele>853.0</ele><time>2026-03-27T14:36:06.984Z</time></trkpt><trkpt lat="46.0573483" lon="12.4861133"><ele>853.0</ele><time>2026-03-27T14:36:07.983Z</time></trkpt><trkpt lat="46.0574483" lon="12.4860783"><ele>853.0</ele><time>2026-03-27T14:36:09.984Z</time></trkpt><trkpt lat="46.0573617" lon="12.4859283"><ele>853.0</ele><time>2026-03-27T14:36:11.984Z</time></trkpt><trkpt lat="46.0572867" lon="12.4858117"><ele>853.0</ele><time>2026-03-27T14:36:12.983Z</time></trkpt><trkpt lat="46.057195" lon="12.4856783"><ele>853.0</ele><time>2026-03-27T14:36:13.983Z</time></trkpt><trkpt lat="46.0570967" lon="12.4855367"><ele>853.0</ele><time>2026-03-27T14:36:14.983Z</time></trkpt><trkpt lat="46.05702" lon="12.48543"><ele>853.0</ele><time>2026-03-27T14:36:15.983Z</time></trkpt><trkpt lat="46.056975" lon="12.4853467"><ele>853.0</ele><time>2026-03-27T14:36:16.983Z</time></trkpt><trkpt lat="46.0570917" lon="12.4853733"><ele>853.0</ele><time>2026-03-27T14:36:19.983Z</time></trkpt><trkpt lat="46.0571717" lon="12.4854483"><ele>853.0</ele><time>2026-03-27T14:36:20.983Z</time></trkpt><trkpt lat="46.0572733" lon="12.4855183"><ele>853.0</ele><time>2026-03-27T14:36:21.982Z</time></trkpt><trkpt lat="46.0574067" lon="12.4855683"><ele>853.0</ele><time>2026-03-27T14:36:22.984Z</time></trkpt><trkpt lat="46.0575517" lon="12.4856133"><ele>853.0</ele><time>2026-03-27T14:36:23.983Z</time></trkpt><trkpt lat="46.0577067" lon="12.485665"><ele>861.3333333333333</ele><time>2026-03-27T14:36:24.983Z</time></trkpt><trkpt lat="46.0578683" lon="12.4857233"><ele>869.6666666666667</ele><time>2026-03-27T14:36:25.983Z</time></trkpt><trkpt lat="46.0580333" lon="12.4857833"><ele>878.0</ele><time>2026-03-27T14:36:26.983Z</time></trkpt><trkpt lat="46.0581983" lon="12.4858483"><ele>887.6666666666667</ele><time>2026-03-27T14:36:27.983Z</time></trkpt><trkpt lat="46.0583567" lon="12.4859283"><ele>897.3333333333333</ele><time>2026-03-27T14:36:28.983Z</time></trkpt><trkpt lat="46.0585133" lon="12.4860317"><ele>907.0</ele><time>2026-03-27T14:36:29.983Z</time></trkpt><trkpt lat="46.058675" lon="12.4861267"><ele>907.0</ele><time>2026-03-27T14:36:30.982Z</time></trkpt><trkpt lat="46.0588217" lon="12.48619"><ele>907.0</ele><time>2026-03-27T14:36:31.983Z</time></trkpt><trkpt lat="46.0589317" lon="12.4862633"><ele>907.0</ele><time>2026-03-27T14:36:32.985Z</time></trkpt><trkpt lat="46.058995" lon="12.4863633"><ele>907.0</ele><time>2026-03-27T14:36:33.984Z</time></trkpt><trkpt lat="46.0590367" lon="12.4865017"><ele>907.1666666666666</ele><time>2026-03-27T14:36:34.983Z</time></trkpt><trkpt lat="46.059055" lon="12.4866417"><ele>907.3333333333333</ele><time>2026-03-27T14:36:35.983Z</time></trkpt><trkpt lat="46.0590633" lon="12.4867483"><ele>907.5</ele><time>2026-03-27T14:36:36.982Z</time></trkpt><trkpt lat="46.05903" lon="12.4868367"><ele>907.6666666666667</ele><time>2026-03-27T14:36:37.984Z</time></trkpt><trkpt lat="46.05896" lon="12.48692"><ele>907.8333333333334</ele><time>2026-03-27T14:36:38.989Z</time></trkpt><trkpt lat="46.05888" lon="12.487035"><ele>908.0</ele><time>2026-03-27T14:36:39.983Z</time></trkpt><trkpt lat="46.0587783" lon="12.4871767"><ele>908.0</ele><time>2026-03-27T14:36:40.984Z</time></trkpt><trkpt lat="46.0586817" lon="12.4873"><ele>908.0</ele><time>2026-03-27T14:36:41.986Z</time></trkpt><trkpt lat="46.0585983" lon="12.487395"><ele>908.0</ele><time>2026-03-27T14:36:42.982Z</time></trkpt><trkpt lat="46.058555" lon="12.4874967"><ele>908.0</ele><time>2026-03-27T14:36:44.984Z</time></trkpt><trkpt lat="46.05862" lon="12.48752"><ele>908.0</ele><time>2026-03-27T14:36:46.984Z</time></trkpt><trkpt lat="46.058745" lon="12.4874167"><ele>908.0</ele><time>2026-03-27T14:36:47.985Z</time></trkpt><trkpt lat="46.058865" lon="12.48734"><ele>908.0</ele><time>2026-03-27T14:36:48.983Z</time></trkpt><trkpt lat="46.0590017" lon="12.487265"><ele>908.0</ele><time>2026-03-27T14:36:49.983Z</time></trkpt><trkpt lat="46.0591517" lon="12.487185"><ele>908.0</ele><time>2026-03-27T14:36:50.983Z</time></trkpt><trkpt lat="46.0592933" lon="12.4871067"><ele>911.0</ele><time>2026-03-27T14:36:51.983Z</time></trkpt><trkpt lat="46.0594083" lon="12.4870233"><ele>914.0</ele><time>2026-03-27T14:36:52.983Z</time></trkpt><trkpt lat="46.0594817" lon="12.4869217"><ele>917.0</ele><time>2026-03-27T14:36:53.984Z</time></trkpt><trkpt lat="46.0595233" lon="12.4867733"><ele>920.0</ele><time>2026-03-27T14:36:54.985Z</time></trkpt><trkpt lat="46.0595633" lon="12.4865917"><ele>920.0</ele><time>2026-03-27T14:36:55.983Z</time></trkpt><trkpt lat="46.0595983" lon="12.486385"><ele>920.0</ele><time>2026-03-27T14:36:56.983Z</time></trkpt><trkpt lat="46.0596267" lon="12.4861717"><ele>920.0</ele><time>2026-03-27T14:36:57.984Z</time></trkpt><trkpt lat="46.0596383" lon="12.4859783"><ele>920.0</ele><time>2026-03-27T14:36:58.983Z</time></trkpt><trkpt lat="46.0596483" lon="12.4858633"><ele>920.0</ele><time>2026-03-27T14:36:59.986Z</time></trkpt><trkpt lat="46.0597117" lon="12.4860117"><ele>920.0</ele><time>2026-03-27T14:37:03.983Z</time></trkpt><trkpt lat="46.0597267" lon="12.4861883"><ele>920.0</ele><time>2026-03-27T14:37:04.983Z</time></trkpt><trkpt lat="46.0597383" lon="12.4863867"><ele>920.0</ele><time>2026-03-27T14:37:05.984Z</time></trkpt><trkpt lat="46.05974" lon="12.4866067"><ele>920.0</ele><time>2026-03-27T14:37:06.983Z</time></trkpt><trkpt lat="46.0597333" lon="12.4868383"><ele>920.0</ele><time>2026-03-27T14:37:07.984Z</time></trkpt><trkpt lat="46.0597333" lon="12.4870467"><ele>920.0</ele><time>2026-03-27T14:37:08.983Z</time></trkpt><trkpt lat="46.059745" lon="12.4872233"><ele>920.0</ele><time>2026-03-27T14:37:09.983Z</time></trkpt><trkpt lat="46.0597383" lon="12.4873467"><ele>922.8333333333334</ele><time>2026-03-27T14:37:10.983Z</time></trkpt><trkpt lat="46.0597217" lon="12.4874383"><ele>925.6666666666667</ele><time>2026-03-27T14:37:11.983Z</time></trkpt><trkpt lat="46.0596583" lon="12.4875117"><ele>928.5</ele><time>2026-03-27T14:37:12.983Z</time></trkpt><trkpt lat="46.0596017" lon="12.4875967"><ele>931.3333333333333</ele><time>2026-03-27T14:37:13.986Z</time></trkpt><trkpt lat="46.0595233" lon="12.4876933"><ele>934.1666666666666</ele><time>2026-03-27T14:37:14.983Z</time></trkpt><trkpt lat="46.059435" lon="12.4878"><ele>937.0</ele><time>2026-03-27T14:37:15.982Z</time></trkpt><trkpt lat="46.0593383" lon="12.4879233"><ele>941.0</ele><time>2026-03-27T14:37:16.983Z</time></trkpt><trkpt lat="46.0592417" lon="12.488045"><ele>945.0</ele><time>2026-03-27T14:37:17.983Z</time></trkpt><trkpt lat="46.0591667" lon="12.488145"><ele>949.0</ele><time>2026-03-27T14:37:18.982Z</time></trkpt><trkpt lat="46.05911" lon="12.4882133"><ele>953.0</ele><time>2026-03-27T14:37:19.983Z</time></trkpt><trkpt lat="46.0590967" lon="12.4883083"><ele>957.0</ele><time>2026-03-27T14:37:21.983Z</time></trkpt><trkpt lat="46.0592067" lon="12.4882317"><ele>957.0</ele><time>2026-03-27T14:37:23.983Z</time></trkpt><trkpt lat="46.05929" lon="12.4881517"><ele>957.0</ele><time>2026-03-27T14:37:24.983Z</time></trkpt><trkpt lat="46.05939" lon="12.4880667"><ele>957.0</ele><time>2026-03-27T14:37:25.983Z</time></trkpt><trkpt lat="46.059515" lon="12.4879767"><ele>957.0</ele><time>2026-03-27T14:37:26.984Z</time></trkpt><trkpt lat="46.0596583" lon="12.4879033"><ele>960.5</ele><time>2026-03-27T14:37:27.982Z</time></trkpt><trkpt lat="46.0598183" lon="12.4878633"><ele>964.0</ele><time>2026-03-27T14:37:28.983Z</time></trkpt><trkpt lat="46.0599683" lon="12.4878183"><ele>967.5</ele><time>2026-03-27T14:37:29.984Z</time></trkpt><trkpt lat="46.0600767" lon="12.4877667"><ele>971.0</ele><time>2026-03-27T14:37:30.984Z</time></trkpt><trkpt lat="46.0601433" lon="12.4877083"><ele>971.0</ele><time>2026-03-27T14:37:31.983Z</time></trkpt><trkpt lat="46.0601267" lon="12.487825"><ele>970.9999999999999</ele><time>2026-03-27T14:37:33.983Z</time></trkpt><trkpt lat="46.06003" lon="12.4878867"><ele>970.9999999999999</ele><time>2026-03-27T14:37:34.984Z</time></trkpt><trkpt lat="46.0599233" lon="12.48795"><ele>971.0</ele><time>2026-03-27T14:37:35.983Z</time></trkpt><trkpt lat="46.0598467" lon="12.4880533"><ele>971.0</ele><time>2026-03-27T14:37:36.983Z</time></trkpt><trkpt lat="46.0597583" lon="12.4881633"><ele>968.1999999999999</ele><time>2026-03-27T14:37:37.985Z</time></trkpt><trkpt lat="46.059665" lon="12.488285"><ele>965.3999999999999</ele><time>2026-03-27T14:37:38.984Z</time></trkpt><trkpt lat="46.059585" lon="12.4884"><ele>962.6</ele><time>2026-03-27T14:37:39.985Z</time></trkpt><trkpt lat="46.0595267" lon="12.4884983"><ele>959.8</ele><time>2026-03-27T14:37:40.984Z</time></trkpt><trkpt lat="46.0594967" lon="12.4885933"><ele>957.0</ele><time>2026-03-27T14:37:41.984Z</time></trkpt><trkpt lat="46.0595267" lon="12.4887033"><ele>957.0</ele><time>2026-03-27T14:37:43.985Z</time></trkpt><trkpt lat="46.0596583" lon="12.4885967"><ele>957.0</ele><time>2026-03-27T14:37:45.985Z</time></trkpt><trkpt lat="46.0597633" lon="12.48851"><ele>957.0</ele><time>2026-03-27T14:37:46.984Z</time></trkpt><trkpt lat="46.05987" lon="12.488455"><ele>957.0</ele><time>2026-03-27T14:37:47.984Z</time></trkpt><trkpt lat="46.06" lon="12.4884067"><ele>968.3333333333333</ele><time>2026-03-27T14:37:48.983Z</time></trkpt><trkpt lat="46.0601433" lon="12.4883617"><ele>979.6666666666666</ele><time>2026-03-27T14:37:49.983Z</time></trkpt><trkpt lat="46.060295" lon="12.488315"><ele>991.0</ele><time>2026-03-27T14:37:50.983Z</time></trkpt><trkpt lat="46.06046" lon="12.4882667"><ele>991.0</ele><time>2026-03-27T14:37:51.983Z</time></trkpt><trkpt lat="46.0606067" lon="12.4882283"><ele>990.9999999999999</ele><time>2026-03-27T14:37:52.983Z</time></trkpt><trkpt lat="46.0607217" lon="12.4881883"><ele>990.9999999999999</ele><time>2026-03-27T14:37:53.983Z</time></trkpt><trkpt lat="46.060815" lon="12.4881433"><ele>991.0</ele><time>2026-03-27T14:37:54.984Z</time></trkpt><trkpt lat="46.060855" lon="12.4880667"><ele>991.0</ele><time>2026-03-27T14:37:55.984Z</time></trkpt><trkpt lat="46.06088" lon="12.4879733"><ele>994.1999999999999</ele><time>2026-03-27T14:37:56.984Z</time></trkpt><trkpt lat="46.0609083" lon="12.48786"><ele>997.3999999999999</ele><time>2026-03-27T14:37:57.983Z</time></trkpt><trkpt lat="46.0609417" lon="12.487725"><ele>1000.6</ele><time>2026-03-27T14:37:58.983Z</time></trkpt><trkpt lat="46.0609633" lon="12.487545"><ele>1003.8</ele><time>2026-03-27T14:37:59.984Z</time></trkpt><trkpt lat="46.0610117" lon="12.4873883"><ele>1007.0</ele><time>2026-03-27T14:38:00.983Z</time></trkpt><trkpt lat="46.0610517" lon="12.487205"><ele>1006.0</ele><time>2026-03-27T14:38:01.983Z</time></trkpt><trkpt lat="46.0610883" lon="12.4870033"><ele>1005.0</ele><time>2026-03-27T14:38:02.984Z</time></trkpt><trkpt lat="46.0611217" lon="12.4867817"><ele>1004.0</ele><time>2026-03-27T14:38:03.982Z</time></trkpt><trkpt lat="46.06115" lon="12.4865467"><ele>1004.0</ele><time>2026-03-27T14:38:04.984Z</time></trkpt><trkpt lat="46.06118" lon="12.4863067"><ele>1004.0</ele><time>2026-03-27T14:38:05.984Z</time></trkpt><trkpt lat="46.0612167" lon="12.486065"><ele>1004.0</ele><time>2026-03-27T14:38:06.984Z</time></trkpt><trkpt lat="46.0612483" lon="12.4858067"><ele>1005.3333333333334</ele><time>2026-03-27T14:38:07.983Z</time></trkpt><trkpt lat="46.0612783" lon="12.4855383"><ele>1006.6666666666667</ele><time>2026-03-27T14:38:08.983Z</time></trkpt><trkpt lat="46.0613067" lon="12.4852533"><ele>1008.0</ele><time>2026-03-27T14:38:09.982Z</time></trkpt><trkpt lat="46.0613267" lon="12.4849633"><ele>1009.0</ele><time>2026-03-27T14:38:10.983Z</time></trkpt><trkpt lat="46.0613517" lon="12.4846783"><ele>1010.0</ele><time>2026-03-27T14:38:11.985Z</time></trkpt><trkpt lat="46.0613817" lon="12.4843883"><ele>1011.0</ele><time>2026-03-27T14:38:12.983Z</time></trkpt><trkpt lat="46.0614117" lon="12.4841017"><ele>1013.3333333333333</ele><time>2026-03-27T14:38:13.984Z</time></trkpt><trkpt lat="46.061435" lon="12.4838267"><ele>1015.6666666666666</ele><time>2026-03-27T14:38:14.983Z</time></trkpt><trkpt lat="46.0614533" lon="12.4836017"><ele>1018.0</ele><time>2026-03-27T14:38:15.983Z</time></trkpt><trkpt lat="46.0614533" lon="12.4834267"><ele>1022.0</ele><time>2026-03-27T14:38:16.984Z</time></trkpt><trkpt lat="46.0614333" lon="12.4832983"><ele>1026.0</ele><time>2026-03-27T14:38:17.985Z</time></trkpt><trkpt lat="46.0614083" lon="12.4831883"><ele>1030.0</ele><time>2026-03-27T14:38:18.983Z</time></trkpt><trkpt lat="46.0613617" lon="12.4831"><ele>1034.0</ele><time>2026-03-27T14:38:19.984Z</time></trkpt><trkpt lat="46.0612783" lon="12.48302"><ele>1038.0</ele><time>2026-03-27T14:38:20.983Z</time></trkpt><trkpt lat="46.06118" lon="12.4829433"><ele>1044.0</ele><time>2026-03-27T14:38:21.984Z</time></trkpt><trkpt lat="46.0610767" lon="12.4828683"><ele>1050.0</ele><time>2026-03-27T14:38:22.983Z</time></trkpt><trkpt lat="46.0609717" lon="12.4828283"><ele>1056.0</ele><time>2026-03-27T14:38:23.984Z</time></trkpt><trkpt lat="46.0608917" lon="12.4827783"><ele>1062.0</ele><time>2026-03-27T14:38:24.983Z</time></trkpt><trkpt lat="46.0608233" lon="12.4827217"><ele>1068.0</ele><time>2026-03-27T14:38:25.983Z</time></trkpt><trkpt lat="46.06089" lon="12.482625"><ele>1068.0</ele><time>2026-03-27T14:38:28.988Z</time></trkpt><trkpt lat="46.0610317" lon="12.482635"><ele>1068.0</ele><time>2026-03-27T14:38:30.983Z</time></trkpt><trkpt lat="46.06112" lon="12.48265"><ele>1068.0</ele><time>2026-03-27T14:38:31.983Z</time></trkpt><trkpt lat="46.061205" lon="12.4826433"><ele>1068.0</ele><time>2026-03-27T14:38:32.983Z</time></trkpt><trkpt lat="46.0613017" lon="12.4825867"><ele>1068.0</ele><time>2026-03-27T14:38:33.983Z</time></trkpt><trkpt lat="46.06141" lon="12.4825367"><ele>1068.0</ele><time>2026-03-27T14:38:34.983Z</time></trkpt><trkpt lat="46.061515" lon="12.4824883"><ele>1068.0</ele><time>2026-03-27T14:38:35.984Z</time></trkpt><trkpt lat="46.0616083" lon="12.4824583"><ele>1068.0</ele><time>2026-03-27T14:38:36.983Z</time></trkpt><trkpt lat="46.06169" lon="12.4823967"><ele>1068.0</ele><time>2026-03-27T14:38:37.983Z</time></trkpt><trkpt lat="46.0617633" lon="12.48232"><ele>1068.0</ele><time>2026-03-27T14:38:38.985Z</time></trkpt><trkpt lat="46.0618333" lon="12.4822267"><ele>1068.6666666666667</ele><time>2026-03-27T14:38:39.983Z</time></trkpt><trkpt lat="46.061915" lon="12.4821417"><ele>1069.3333333333333</ele><time>2026-03-27T14:38:40.984Z</time></trkpt><trkpt lat="46.061985" lon="12.4820933"><ele>1070.0</ele><time>2026-03-27T14:38:41.984Z</time></trkpt><trkpt lat="46.0620467" lon="12.4820667"><ele>1070.6666666666665</ele><time>2026-03-27T14:38:42.984Z</time></trkpt><trkpt lat="46.0621067" lon="12.4820267"><ele>1071.3333333333333</ele><time>2026-03-27T14:38:43.983Z</time></trkpt><trkpt lat="46.0621983" lon="12.4820483"><ele>1072.0</ele><time>2026-03-27T14:38:45.983Z</time></trkpt><trkpt lat="46.0622317" lon="12.48219"><ele>1072.0</ele><time>2026-03-27T14:38:47.983Z</time></trkpt><trkpt lat="46.0622217" lon="12.48243"><ele>1072.0</ele><time>2026-03-27T14:38:49.983Z</time></trkpt><trkpt lat="46.0622217" lon="12.4825683"><ele>1072.0</ele><time>2026-03-27T14:38:50.983Z</time></trkpt><trkpt lat="46.0622517" lon="12.482735"><ele>1072.0</ele><time>2026-03-27T14:38:51.983Z</time></trkpt><trkpt lat="46.0622867" lon="12.4828767"><ele>1069.0</ele><time>2026-03-27T14:38:52.983Z</time></trkpt><trkpt lat="46.0623233" lon="12.4830467"><ele>1066.0</ele><time>2026-03-27T14:38:53.983Z</time></trkpt><trkpt lat="46.0623583" lon="12.4832483"><ele>1063.0</ele><time>2026-03-27T14:38:54.983Z</time></trkpt><trkpt lat="46.0623917" lon="12.483465"><ele>1060.0</ele><time>2026-03-27T14:38:55.984Z</time></trkpt><trkpt lat="46.0624117" lon="12.4836617"><ele>1058.75</ele><time>2026-03-27T14:38:56.983Z</time></trkpt><trkpt lat="46.0624083" lon="12.4838533"><ele>1057.5</ele><time>2026-03-27T14:38:57.983Z</time></trkpt><trkpt lat="46.0623917" lon="12.48406"><ele>1056.25</ele><time>2026-03-27T14:38:58.984Z</time></trkpt><trkpt lat="46.0623783" lon="12.4842733"><ele>1055.0</ele><time>2026-03-27T14:38:59.986Z</time></trkpt><trkpt lat="46.0623833" lon="12.4845083"><ele>1054.3333333333335</ele><time>2026-03-27T14:39:00.983Z</time></trkpt><trkpt lat="46.0624033" lon="12.4847367"><ele>1053.6666666666667</ele><time>2026-03-27T14:39:01.984Z</time></trkpt><trkpt lat="46.0624217" lon="12.48495"><ele>1053.0</ele><time>2026-03-27T14:39:02.984Z</time></trkpt><trkpt lat="46.0624417" lon="12.4851517"><ele>1064.25</ele><time>2026-03-27T14:39:03.984Z</time></trkpt><trkpt lat="46.06247" lon="12.4853583"><ele>1075.5</ele><time>2026-03-27T14:39:04.983Z</time></trkpt><trkpt lat="46.0624933" lon="12.48555"><ele>1086.75</ele><time>2026-03-27T14:39:05.983Z</time></trkpt><trkpt lat="46.0625233" lon="12.4857367"><ele>1098.0</ele><time>2026-03-27T14:39:06.984Z</time></trkpt><trkpt lat="46.06257" lon="12.4859283"><ele>1098.0</ele><time>2026-03-27T14:39:07.983Z</time></trkpt><trkpt lat="46.0626283" lon="12.4861233"><ele>1098.0</ele><time>2026-03-27T14:39:08.983Z</time></trkpt><trkpt lat="46.0626783" lon="12.486295"><ele>1098.0</ele><time>2026-03-27T14:39:09.984Z</time></trkpt><trkpt lat="46.06271" lon="12.4864267"><ele>1098.0</ele><time>2026-03-27T14:39:10.984Z</time></trkpt><trkpt lat="46.06274" lon="12.486535"><ele>1098.0</ele><time>2026-03-27T14:39:11.984Z</time></trkpt><trkpt lat="46.0628117" lon="12.4866417"><ele>1098.0</ele><time>2026-03-27T14:39:13.984Z</time></trkpt><trkpt lat="46.06289" lon="12.48656"><ele>1098.0</ele><time>2026-03-27T14:39:15.982Z</time></trkpt><trkpt lat="46.0628983" lon="12.4864617"><ele>1098.0</ele><time>2026-03-27T14:39:16.984Z</time></trkpt><trkpt lat="46.062865" lon="12.4863317"><ele>1098.0</ele><time>2026-03-27T14:39:17.982Z</time></trkpt><trkpt lat="46.0628283" lon="12.4861667"><ele>1098.0</ele><time>2026-03-27T14:39:18.984Z</time></trkpt><trkpt lat="46.0627917" lon="12.48597"><ele>1098.0</ele><time>2026-03-27T14:39:19.982Z</time></trkpt><trkpt lat="46.0627733" lon="12.48576"><ele>1098.0</ele><time>2026-03-27T14:39:20.984Z</time></trkpt><trkpt lat="46.062775" lon="12.48555"><ele>1098.0</ele><time>2026-03-27T14:39:21.984Z</time></trkpt><trkpt lat="46.0627783" lon="12.4853583"><ele>1098.6</ele><time>2026-03-27T14:39:22.983Z</time></trkpt><trkpt lat="46.06277" lon="12.4852"><ele>1099.1999999999998</ele><time>2026-03-27T14:39:23.984Z</time></trkpt><trkpt lat="46.062775" lon="12.4850617"><ele>1099.8</ele><time>2026-03-27T14:39:24.984Z</time></trkpt><trkpt lat="46.062795" lon="12.4849217"><ele>1100.3999999999999</ele><time>2026-03-27T14:39:25.983Z</time></trkpt><trkpt lat="46.06284" lon="12.4847683"><ele>1101.0</ele><time>2026-03-27T14:39:26.983Z</time></trkpt><trkpt lat="46.0629" lon="12.484605"><ele>1101.0</ele><time>2026-03-27T14:39:27.984Z</time></trkpt><trkpt lat="46.0629683" lon="12.484415"><ele>1101.0</ele><time>2026-03-27T14:39:28.984Z</time></trkpt><trkpt lat="46.0630433" lon="12.484205"><ele>1101.0</ele><time>2026-03-27T14:39:29.984Z</time></trkpt><trkpt lat="46.0631167" lon="12.4839817"><ele>1100.3333333333333</ele><time>2026-03-27T14:39:30.983Z</time></trkpt><trkpt lat="46.0631767" lon="12.4837433"><ele>1099.6666666666665</ele><time>2026-03-27T14:39:31.983Z</time></trkpt><trkpt lat="46.06323" lon="12.4834867"><ele>1099.0</ele><time>2026-03-27T14:39:32.984Z</time></trkpt><trkpt lat="46.0632717" lon="12.4832167"><ele>1113.3333333333333</ele><time>2026-03-27T14:39:33.985Z</time></trkpt><trkpt lat="46.0633067" lon="12.48294"><ele>1127.6666666666667</ele><time>2026-03-27T14:39:34.982Z</time></trkpt><trkpt lat="46.0633483" lon="12.4826717"><ele>1142.0</ele><time>2026-03-27T14:39:35.983Z</time></trkpt><trkpt lat="46.0633983" lon="12.4824283"><ele>1142.0</ele><time>2026-03-27T14:39:36.983Z</time></trkpt><trkpt lat="46.0634467" lon="12.4822367"><ele>1142.0</ele><time>2026-03-27T14:39:37.983Z</time></trkpt><trkpt lat="46.0635033" lon="12.48206"><ele>1142.0</ele><time>2026-03-27T14:39:38.984Z</time></trkpt><trkpt lat="46.0635783" lon="12.4818767"><ele>1142.0</ele><time>2026-03-27T14:39:39.984Z</time></trkpt><trkpt lat="46.063665" lon="12.4816817"><ele>1140.6666666666667</ele><time>2026-03-27T14:39:40.983Z</time></trkpt><trkpt lat="46.063745" lon="12.4814767"><ele>1139.3333333333333</ele><time>2026-03-27T14:39:41.983Z</time></trkpt><trkpt lat="46.0638117" lon="12.481245"><ele>1138.0</ele><time>2026-03-27T14:39:42.984Z</time></trkpt><trkpt lat="46.0638667" lon="12.4810317"><ele>1138.0</ele><time>2026-03-27T14:39:43.983Z</time></trkpt><trkpt lat="46.063915" lon="12.4808683"><ele>1138.0</ele><time>2026-03-27T14:39:44.983Z</time></trkpt><trkpt lat="46.0639533" lon="12.480725"><ele>1138.0</ele><time>2026-03-27T14:39:45.984Z</time></trkpt><trkpt lat="46.0639833" lon="12.4805933"><ele>1138.0</ele><time>2026-03-27T14:39:46.983Z</time></trkpt><trkpt lat="46.0640167" lon="12.4804583"><ele>1138.0</ele><time>2026-03-27T14:39:47.984Z</time></trkpt><trkpt lat="46.0640433" lon="12.4803367"><ele>1138.0</ele><time>2026-03-27T14:39:48.983Z</time></trkpt><trkpt lat="46.0640517" lon="12.4802083"><ele>1138.0</ele><time>2026-03-27T14:39:49.983Z</time></trkpt><trkpt lat="46.0640467" lon="12.4800517"><ele>1138.0</ele><time>2026-03-27T14:39:50.983Z</time></trkpt><trkpt lat="46.0640367" lon="12.4798733"><ele>1138.0</ele><time>2026-03-27T14:39:51.983Z</time></trkpt><trkpt lat="46.0640217" lon="12.479675"><ele>1141.75</ele><time>2026-03-27T14:39:52.983Z</time></trkpt><trkpt lat="46.0639983" lon="12.4794783"><ele>1145.5</ele><time>2026-03-27T14:39:53.985Z</time></trkpt><trkpt lat="46.06397" lon="12.47929"><ele>1149.25</ele><time>2026-03-27T14:39:54.983Z</time></trkpt><trkpt lat="46.063945" lon="12.4790983"><ele>1153.0</ele><time>2026-03-27T14:39:55.983Z</time></trkpt><trkpt lat="46.06391" lon="12.47891"><ele>1157.75</ele><time>2026-03-27T14:39:56.983Z</time></trkpt><trkpt lat="46.0638633" lon="12.4787233"><ele>1162.5</ele><time>2026-03-27T14:39:57.983Z</time></trkpt><trkpt lat="46.0638083" lon="12.4785433"><ele>1167.25</ele><time>2026-03-27T14:39:58.983Z</time></trkpt><trkpt lat="46.0637433" lon="12.4783667"><ele>1172.0</ele><time>2026-03-27T14:39:59.984Z</time></trkpt><trkpt lat="46.0636833" lon="12.478205"><ele>1172.0</ele><time>2026-03-27T14:40:00.986Z</time></trkpt><trkpt lat="46.0636283" lon="12.47807"><ele>1172.0</ele><time>2026-03-27T14:40:01.983Z</time></trkpt><trkpt lat="46.063585" lon="12.4779533"><ele>1172.0</ele><time>2026-03-27T14:40:02.983Z</time></trkpt><trkpt lat="46.0635417" lon="12.4778517"><ele>1172.0</ele><time>2026-03-27T14:40:03.983Z</time></trkpt><trkpt lat="46.06348" lon="12.4777633"><ele>1172.0</ele><time>2026-03-27T14:40:04.983Z</time></trkpt><trkpt lat="46.0634083" lon="12.47769"><ele>1175.2</ele><time>2026-03-27T14:40:05.984Z</time></trkpt><trkpt lat="46.0633233" lon="12.4776517"><ele>1178.4</ele><time>2026-03-27T14:40:06.983Z</time></trkpt><trkpt lat="46.0632283" lon="12.4776067"><ele>1181.6</ele><time>2026-03-27T14:40:07.983Z</time></trkpt><trkpt lat="46.0631283" lon="12.4775617"><ele>1184.8</ele><time>2026-03-27T14:40:08.984Z</time></trkpt><trkpt lat="46.0630233" lon="12.47752"><ele>1188.0</ele><time>2026-03-27T14:40:09.982Z</time></trkpt><trkpt lat="46.06292" lon="12.4774783"><ele>1188.0</ele><time>2026-03-27T14:40:10.983Z</time></trkpt><trkpt lat="46.06282" lon="12.4774267"><ele>1188.0</ele><time>2026-03-27T14:40:11.984Z</time></trkpt><trkpt lat="46.0627233" lon="12.477355"><ele>1188.0</ele><time>2026-03-27T14:40:12.984Z</time></trkpt><trkpt lat="46.0626267" lon="12.477275"><ele>1188.0</ele><time>2026-03-27T14:40:13.983Z</time></trkpt><trkpt lat="46.0625417" lon="12.4771983"><ele>1188.0</ele><time>2026-03-27T14:40:14.983Z</time></trkpt><trkpt lat="46.062475" lon="12.4771233"><ele>1190.0</ele><time>2026-03-27T14:40:15.982Z</time></trkpt><trkpt lat="46.062425" lon="12.4770517"><ele>1192.0</ele><time>2026-03-27T14:40:16.983Z</time></trkpt><trkpt lat="46.0623867" lon="12.4769733"><ele>1194.0</ele><time>2026-03-27T14:40:17.984Z</time></trkpt><trkpt lat="46.062335" lon="12.4769017"><ele>1196.0</ele><time>2026-03-27T14:40:18.983Z</time></trkpt><trkpt lat="46.06228" lon="12.4768383"><ele>1198.0</ele><time>2026-03-27T14:40:19.983Z</time></trkpt><trkpt lat="46.0622283" lon="12.476775"><ele>1200.0</ele><time>2026-03-27T14:40:21.068Z</time></trkpt><trkpt lat="46.0621333" lon="12.47668"><ele>1200.0</ele><time>2026-03-27T14:40:22.983Z</time></trkpt><trkpt lat="46.0621217" lon="12.4765617"><ele>1200.0</ele><time>2026-03-27T14:40:25.984Z</time></trkpt><trkpt lat="46.0622133" lon="12.47653"><ele>1200.0</ele><time>2026-03-27T14:40:28.982Z</time></trkpt><trkpt lat="46.0622783" lon="12.4765533"><ele>1200.0</ele><time>2026-03-27T14:40:30.984Z</time></trkpt><trkpt lat="46.0623367" lon="12.4766467"><ele>1200.0</ele><time>2026-03-27T14:40:32.988Z</time></trkpt><trkpt lat="46.0624183" lon="12.4767117"><ele>1200.0</ele><time>2026-03-27T14:43:00.984Z</time></trkpt><trkpt lat="46.0624817" lon="12.4767467"><ele>1201.1666666666667</ele><time>2026-03-27T14:43:01.985Z</time></trkpt><trkpt lat="46.0625483" lon="12.4767817"><ele>1202.3333333333333</ele><time>2026-03-27T14:43:02.984Z</time></trkpt><trkpt lat="46.0626217" lon="12.4768333"><ele>1203.5</ele><time>2026-03-27T14:43:03.982Z</time></trkpt><trkpt lat="46.062695" lon="12.476865"><ele>1204.6666666666665</ele><time>2026-03-27T14:43:04.982Z</time></trkpt><trkpt lat="46.062775" lon="12.4768917"><ele>1205.8333333333333</ele><time>2026-03-27T14:43:05.983Z</time></trkpt><trkpt lat="46.06286" lon="12.476895"><ele>1207.0</ele><time>2026-03-27T14:43:06.982Z</time></trkpt><trkpt lat="46.0629433" lon="12.4768917"><ele>1207.0</ele><time>2026-03-27T14:43:07.983Z</time></trkpt><trkpt lat="46.0630267" lon="12.47688"><ele>1207.0</ele><time>2026-03-27T14:43:08.984Z</time></trkpt><trkpt lat="46.0631067" lon="12.4768467"><ele>1207.0</ele><time>2026-03-27T14:43:09.983Z</time></trkpt><trkpt lat="46.0631833" lon="12.4768067"><ele>1207.0</ele><time>2026-03-27T14:43:10.983Z</time></trkpt><trkpt lat="46.063255" lon="12.4767483"><ele>1207.0</ele><time>2026-03-27T14:43:11.983Z</time></trkpt><trkpt lat="46.0633017" lon="12.4766583"><ele>1207.0</ele><time>2026-03-27T14:43:12.983Z</time></trkpt><trkpt lat="46.063355" lon="12.4765667"><ele>1208.0</ele><time>2026-03-27T14:43:13.982Z</time></trkpt><trkpt lat="46.0634133" lon="12.4764817"><ele>1209.0</ele><time>2026-03-27T14:43:14.983Z</time></trkpt><trkpt lat="46.0634867" lon="12.4764083"><ele>1210.0</ele><time>2026-03-27T14:43:15.984Z</time></trkpt><trkpt lat="46.0635717" lon="12.4763667"><ele>1211.0</ele><time>2026-03-27T14:43:16.983Z</time></trkpt><trkpt lat="46.0636567" lon="12.476365"><ele>1212.0</ele><time>2026-03-27T14:43:17.982Z</time></trkpt><trkpt lat="46.0637417" lon="12.4763967"><ele>1213.0</ele><time>2026-03-27T14:43:18.982Z</time></trkpt><trkpt lat="46.0638217" lon="12.4764517"><ele>1213.0</ele><time>2026-03-27T14:43:19.982Z</time></trkpt><trkpt lat="46.0639017" lon="12.476505"><ele>1213.0</ele><time>2026-03-27T14:43:20.987Z</time></trkpt><trkpt lat="46.0639783" lon="12.4765733"><ele>1213.0</ele><time>2026-03-27T14:43:21.982Z</time></trkpt><trkpt lat="46.0640467" lon="12.4766633"><ele>1213.0</ele><time>2026-03-27T14:43:22.983Z</time></trkpt><trkpt lat="46.0641133" lon="12.47677"><ele>1213.0</ele><time>2026-03-27T14:43:23.983Z</time></trkpt><trkpt lat="46.064175" lon="12.47688"><ele>1214.2</ele><time>2026-03-27T14:43:24.983Z</time></trkpt><trkpt lat="46.06424" lon="12.4770017"><ele>1215.4</ele><time>2026-03-27T14:43:25.982Z</time></trkpt><trkpt lat="46.0643017" lon="12.4771183"><ele>1216.6000000000001</ele><time>2026-03-27T14:43:26.988Z</time></trkpt><trkpt lat="46.064365" lon="12.477245"><ele>1217.8</ele><time>2026-03-27T14:43:27.982Z</time></trkpt><trkpt lat="46.0644283" lon="12.477375"><ele>1219.0</ele><time>2026-03-27T14:43:28.982Z</time></trkpt><trkpt lat="46.0644933" lon="12.4774967"><ele>1219.0</ele><time>2026-03-27T14:43:29.984Z</time></trkpt><trkpt lat="46.0645617" lon="12.4776067"><ele>1219.0</ele><time>2026-03-27T14:43:30.982Z</time></trkpt><trkpt lat="46.0646367" lon="12.4777233"><ele>1219.0</ele><time>2026-03-27T14:43:31.982Z</time></trkpt><trkpt lat="46.064715" lon="12.4778367"><ele>1219.0</ele><time>2026-03-27T14:43:32.984Z</time></trkpt><trkpt lat="46.0647933" lon="12.4779567"><ele>1219.0</ele><time>2026-03-27T14:43:33.984Z</time></trkpt><trkpt lat="46.0648733" lon="12.478075"><ele>1224.6000000000001</ele><time>2026-03-27T14:43:34.983Z</time></trkpt><trkpt lat="46.06495" lon="12.4781883"><ele>1230.2</ele><time>2026-03-27T14:43:35.983Z</time></trkpt><trkpt lat="46.0650267" lon="12.478295"><ele>1235.8000000000002</ele><time>2026-03-27T14:43:36.983Z</time></trkpt><trkpt lat="46.0651017" lon="12.478405"><ele>1241.4</ele><time>2026-03-27T14:43:37.983Z</time></trkpt><trkpt lat="46.0651817" lon="12.4785167"><ele>1247.0</ele><time>2026-03-27T14:43:38.984Z</time></trkpt><trkpt lat="46.0652667" lon="12.478625"><ele>1247.0</ele><time>2026-03-27T14:43:39.982Z</time></trkpt><trkpt lat="46.06536" lon="12.478725"><ele>1247.0</ele><time>2026-03-27T14:43:40.982Z</time></trkpt><trkpt lat="46.0654681" lon="12.4788147"><ele>1247.0</ele><time>2026-03-27T14:43:41.984Z</time></trkpt><trkpt lat="46.0655889" lon="12.4788899"><ele>1247.0</ele><time>2026-03-27T14:43:42.984Z</time></trkpt><trkpt lat="46.0657181" lon="12.4789567"><ele>1249.4</ele><time>2026-03-27T14:43:43.984Z</time></trkpt><trkpt lat="46.0658405" lon="12.4790153"><ele>1251.8000000000002</ele><time>2026-03-27T14:43:44.983Z</time></trkpt><trkpt lat="46.0659417" lon="12.4790648"><ele>1254.2</ele><time>2026-03-27T14:43:45.982Z</time></trkpt><trkpt lat="46.0660421" lon="12.4791104"><ele>1256.6000000000001</ele><time>2026-03-27T14:43:46.983Z</time></trkpt><trkpt lat="46.0661357" lon="12.4791577"><ele>1259.0</ele><time>2026-03-27T14:43:47.983Z</time></trkpt><trkpt lat="46.0662137" lon="12.4791916"><ele>1259.0</ele><time>2026-03-27T14:43:48.983Z</time></trkpt><trkpt lat="46.066282" lon="12.4791982"><ele>1259.0</ele><time>2026-03-27T14:43:49.984Z</time></trkpt><trkpt lat="46.0663478" lon="12.4791678"><ele>1259.0</ele><time>2026-03-27T14:43:50.984Z</time></trkpt><trkpt lat="46.0664101" lon="12.479078"><ele>1259.0</ele><time>2026-03-27T14:43:51.983Z</time></trkpt><trkpt lat="46.0664752" lon="12.4789436"><ele>1259.0</ele><time>2026-03-27T14:43:52.984Z</time></trkpt><trkpt lat="46.0665373" lon="12.4788179"><ele>1259.0</ele><time>2026-03-27T14:43:53.984Z</time></trkpt><trkpt lat="46.0665873" lon="12.4787125"><ele>1264.0</ele><time>2026-03-27T14:43:54.982Z</time></trkpt><trkpt lat="46.0666264" lon="12.4786271"><ele>1269.0</ele><time>2026-03-27T14:43:56.068Z</time></trkpt><trkpt lat="46.0666866" lon="12.4785198"><ele>1274.0</ele><time>2026-03-27T14:43:57.982Z</time></trkpt><trkpt lat="46.0667686" lon="12.4784885"><ele>1279.0</ele><time>2026-03-27T14:44:00.983Z</time></trkpt><trkpt lat="46.0668307" lon="12.4785283"><ele>1284.0</ele><time>2026-03-27T14:44:02.984Z</time></trkpt><trkpt lat="46.0669125" lon="12.4786283"><ele>1289.0</ele><time>2026-03-27T14:44:04.982Z</time></trkpt><trkpt lat="46.066964" lon="12.4787102"><ele>1286.1666666666667</ele><time>2026-03-27T14:44:05.984Z</time></trkpt><trkpt lat="46.0670165" lon="12.4787819"><ele>1283.3333333333335</ele><time>2026-03-27T14:44:06.982Z</time></trkpt><trkpt lat="46.0670675" lon="12.478877"><ele>1280.5</ele><time>2026-03-27T14:44:08.983Z</time></trkpt><trkpt lat="46.0671067" lon="12.4789517"><ele>1277.6666666666667</ele><time>2026-03-27T14:44:12.983Z</time></trkpt><trkpt lat="46.0671667" lon="12.4790867"><ele>1274.8333333333333</ele><time>2026-03-27T14:44:14.986Z</time></trkpt><trkpt lat="46.0672517" lon="12.4791717"><ele>1272.0</ele><time>2026-03-27T14:44:16.982Z</time></trkpt><trkpt lat="46.06734" lon="12.479195"><ele>1275.2</ele><time>2026-03-27T14:44:18.981Z</time></trkpt><trkpt lat="46.067445" lon="12.4791967"><ele>1278.4</ele><time>2026-03-27T14:44:20.983Z</time></trkpt><trkpt lat="46.0675117" lon="12.4791767"><ele>1281.6000000000001</ele><time>2026-03-27T14:44:22.984Z</time></trkpt><trkpt lat="46.0676117" lon="12.4791683"><ele>1284.8000000000002</ele><time>2026-03-27T14:44:24.983Z</time></trkpt><trkpt lat="46.067705" lon="12.4791617"><ele>1288.0</ele><time>2026-03-27T14:44:26.984Z</time></trkpt><trkpt lat="46.0677933" lon="12.4791567"><ele>1288.0</ele><time>2026-03-27T14:44:29.982Z</time></trkpt><trkpt lat="46.0678633" lon="12.4791183"><ele>1288.0</ele><time>2026-03-27T14:44:31.982Z</time></trkpt><trkpt lat="46.0679417" lon="12.47909"><ele>1288.0</ele><time>2026-03-27T14:44:33.982Z</time></trkpt><trkpt lat="46.0680483" lon="12.47906"><ele>1288.0</ele><time>2026-03-27T14:44:35.983Z</time></trkpt><trkpt lat="46.06811" lon="12.4790367"><ele>1288.0</ele><time>2026-03-27T14:44:36.983Z</time></trkpt><trkpt lat="46.0682267" lon="12.4789967"><ele>1288.0</ele><time>2026-03-27T14:44:38.986Z</time></trkpt><trkpt lat="46.0682967" lon="12.4789667"><ele>1292.8333333333333</ele><time>2026-03-27T14:44:39.983Z</time></trkpt><trkpt lat="46.0683817" lon="12.4789283"><ele>1297.6666666666665</ele><time>2026-03-27T14:44:40.984Z</time></trkpt><trkpt lat="46.06848" lon="12.4788883"><ele>1302.5</ele><time>2026-03-27T14:44:41.982Z</time></trkpt><trkpt lat="46.068575" lon="12.478855"><ele>1307.3333333333333</ele><time>2026-03-27T14:44:42.982Z</time></trkpt><trkpt lat="46.0686583" lon="12.4788417"><ele>1312.1666666666667</ele><time>2026-03-27T14:44:43.983Z</time></trkpt><trkpt lat="46.0687217" lon="12.478825"><ele>1317.0</ele><time>2026-03-27T14:44:44.985Z</time></trkpt><trkpt lat="46.0688" lon="12.4787983"><ele>1317.0</ele><time>2026-03-27T14:44:46.982Z</time></trkpt><trkpt lat="46.06885" lon="12.4786833"><ele>1317.0</ele><time>2026-03-27T14:44:49.983Z</time></trkpt><trkpt lat="46.068875" lon="12.478585"><ele>1317.0</ele><time>2026-03-27T14:44:51.982Z</time></trkpt><trkpt lat="46.068905" lon="12.4784417"><ele>1317.0</ele><time>2026-03-27T14:44:53.983Z</time></trkpt><trkpt lat="46.06895" lon="12.4783067"><ele>1317.0</ele><time>2026-03-27T14:44:55.982Z</time></trkpt><trkpt lat="46.0689" lon="12.47837"><ele>1317.0</ele><time>2026-03-27T14:45:38.985Z</time></trkpt><trkpt lat="46.068825" lon="12.4784883"><ele>1317.0</ele><time>2026-03-27T14:45:54.982Z</time></trkpt><trkpt lat="46.06879" lon="12.4785967"><ele>1317.0</ele><time>2026-03-27T14:45:57.983Z</time></trkpt><trkpt lat="46.0687467" lon="12.4786683"><ele>1317.0</ele><time>2026-03-27T14:46:00.987Z</time></trkpt><trkpt lat="46.0686733" lon="12.4787183"><ele>1317.0</ele><time>2026-03-27T14:46:02.984Z</time></trkpt><trkpt lat="46.0685783" lon="12.478745"><ele>1317.0</ele><time>2026-03-27T14:46:04.983Z</time></trkpt><trkpt lat="46.0684817" lon="12.4787867"><ele>1317.0</ele><time>2026-03-27T14:46:06.982Z</time></trkpt><trkpt lat="46.0683967" lon="12.47884"><ele>1317.0</ele><time>2026-03-27T14:46:08.983Z</time></trkpt><trkpt lat="46.0683283" lon="12.4788833"><ele>1317.0</ele><time>2026-03-27T14:46:10.982Z</time></trkpt><trkpt lat="46.0682517" lon="12.4789333"><ele>1317.0</ele><time>2026-03-27T14:46:12.982Z</time></trkpt><trkpt lat="46.0681883" lon="12.47896"><ele>1317.0</ele><time>2026-03-27T14:46:14.982Z</time></trkpt><trkpt lat="46.06812" lon="12.478995"><ele>1317.0</ele><time>2026-03-27T14:46:16.982Z</time></trkpt><trkpt lat="46.068035" lon="12.4790567"><ele>1317.0</ele><time>2026-03-27T14:46:18.983Z</time></trkpt><trkpt lat="46.0679583" lon="12.4791083"><ele>1311.1999999999998</ele><time>2026-03-27T14:46:20.984Z</time></trkpt><trkpt lat="46.06785" lon="12.47915"><ele>1305.4</ele><time>2026-03-27T14:46:22.986Z</time></trkpt><trkpt lat="46.0677883" lon="12.4791783"><ele>1299.6</ele><time>2026-03-27T14:46:23.984Z</time></trkpt><trkpt lat="46.0676667" lon="12.4792117"><ele>1293.8000000000002</ele><time>2026-03-27T14:46:25.984Z</time></trkpt><trkpt lat="46.06755" lon="12.47924"><ele>1288.0</ele><time>2026-03-27T14:46:27.981Z</time></trkpt><trkpt lat="46.0674883" lon="12.47926"><ele>1285.3333333333333</ele><time>2026-03-27T14:46:28.982Z</time></trkpt><trkpt lat="46.0673933" lon="12.4792917"><ele>1282.6666666666665</ele><time>2026-03-27T14:46:30.982Z</time></trkpt><trkpt lat="46.0673133" lon="12.4792883"><ele>1280.0</ele><time>2026-03-27T14:46:32.982Z</time></trkpt><trkpt lat="46.067245" lon="12.4792483"><ele>1277.3333333333333</ele><time>2026-03-27T14:46:34.982Z</time></trkpt><trkpt lat="46.0671833" lon="12.4791567"><ele>1274.6666666666667</ele><time>2026-03-27T14:46:37.983Z</time></trkpt><trkpt lat="46.067145" lon="12.4790433"><ele>1272.0</ele><time>2026-03-27T14:46:40.983Z</time></trkpt><trkpt lat="46.0671317" lon="12.4789533"><ele>1272.0</ele><time>2026-03-27T14:46:42.982Z</time></trkpt><trkpt lat="46.0671183" lon="12.4788333"><ele>1272.0</ele><time>2026-03-27T14:46:45.982Z</time></trkpt><trkpt lat="46.0670967" lon="12.4787217"><ele>1272.0</ele><time>2026-03-27T14:46:55.982Z</time></trkpt><trkpt lat="46.0670417" lon="12.478645"><ele>1272.0</ele><time>2026-03-27T14:46:57.983Z</time></trkpt><trkpt lat="46.06697" lon="12.478575"><ele>1272.0</ele><time>2026-03-27T14:46:59.984Z</time></trkpt><trkpt lat="46.0668883" lon="12.4785233"><ele>1272.0</ele><time>2026-03-27T14:47:01.983Z</time></trkpt><trkpt lat="46.0668024" lon="12.4785025"><ele>1268.75</ele><time>2026-03-27T14:47:07.083Z</time></trkpt><trkpt lat="46.0667079" lon="12.4785333"><ele>1265.5</ele><time>2026-03-27T14:47:08.985Z</time></trkpt><trkpt lat="46.0666277" lon="12.4786358"><ele>1262.25</ele><time>2026-03-27T14:47:11.016Z</time></trkpt><trkpt lat="46.0665463" lon="12.4787763"><ele>1259.0</ele><time>2026-03-27T14:47:11.983Z</time></trkpt><trkpt lat="46.066453" lon="12.4789364"><ele>1259.0</ele><time>2026-03-27T14:47:12.982Z</time></trkpt><trkpt lat="46.0663699" lon="12.4790655"><ele>1259.0</ele><time>2026-03-27T14:47:13.982Z</time></trkpt><trkpt lat="46.0663059" lon="12.4791653"><ele>1259.0</ele><time>2026-03-27T14:47:14.982Z</time></trkpt><trkpt lat="46.0662412" lon="12.4792112"><ele>1259.0</ele><time>2026-03-27T14:47:15.983Z</time></trkpt><trkpt lat="46.0661722" lon="12.4792202"><ele>1259.0</ele><time>2026-03-27T14:47:16.982Z</time></trkpt><trkpt lat="46.0661046" lon="12.4791923"><ele>1259.0</ele><time>2026-03-27T14:47:17.982Z</time></trkpt><trkpt lat="46.0660334" lon="12.4791543"><ele>1259.0</ele><time>2026-03-27T14:47:18.983Z</time></trkpt><trkpt lat="46.0659585" lon="12.4791152"><ele>1259.0</ele><time>2026-03-27T14:47:19.984Z</time></trkpt><trkpt lat="46.0658858" lon="12.4790713"><ele>1259.0</ele><time>2026-03-27T14:47:20.984Z</time></trkpt><trkpt lat="46.0658149" lon="12.4790242"><ele>1259.0</ele><time>2026-03-27T14:47:21.983Z</time></trkpt><trkpt lat="46.0657428" lon="12.4789808"><ele>1259.0</ele><time>2026-03-27T14:47:22.982Z</time></trkpt><trkpt lat="46.0656645" lon="12.4789478"><ele>1259.0</ele><time>2026-03-27T14:47:23.982Z</time></trkpt><trkpt lat="46.065586" lon="12.4789154"><ele>1257.0</ele><time>2026-03-27T14:47:24.982Z</time></trkpt><trkpt lat="46.0655101" lon="12.4788701"><ele>1255.0</ele><time>2026-03-27T14:47:25.982Z</time></trkpt><trkpt lat="46.0654335" lon="12.4788146"><ele>1253.0</ele><time>2026-03-27T14:47:26.982Z</time></trkpt><trkpt lat="46.0653619" lon="12.4787412"><ele>1251.0</ele><time>2026-03-27T14:47:27.983Z</time></trkpt><trkpt lat="46.0652945" lon="12.478655"><ele>1249.0</ele><time>2026-03-27T14:47:28.983Z</time></trkpt><trkpt lat="46.0652282" lon="12.4785636"><ele>1247.0</ele><time>2026-03-27T14:47:29.984Z</time></trkpt><trkpt lat="46.0651649" lon="12.4784703"><ele>1247.0</ele><time>2026-03-27T14:47:30.985Z</time></trkpt><trkpt lat="46.0651022" lon="12.4783784"><ele>1247.0</ele><time>2026-03-27T14:47:31.982Z</time></trkpt><trkpt lat="46.0650394" lon="12.4782844"><ele>1247.0</ele><time>2026-03-27T14:47:32.983Z</time></trkpt><trkpt lat="46.0649753" lon="12.4781913"><ele>1247.0</ele><time>2026-03-27T14:47:33.983Z</time></trkpt><trkpt lat="46.0649114" lon="12.4780953"><ele>1247.0</ele><time>2026-03-27T14:47:34.983Z</time></trkpt><trkpt lat="46.0648411" lon="12.4780014"><ele>1241.4</ele><time>2026-03-27T14:47:35.983Z</time></trkpt><trkpt lat="46.0647692" lon="12.4779064"><ele>1235.8000000000002</ele><time>2026-03-27T14:47:36.982Z</time></trkpt><trkpt lat="46.0646972" lon="12.4778083"><ele>1230.2</ele><time>2026-03-27T14:47:37.984Z</time></trkpt><trkpt lat="46.0646265" lon="12.4777084"><ele>1224.6000000000001</ele><time>2026-03-27T14:47:38.983Z</time></trkpt><trkpt lat="46.0645552" lon="12.4776053"><ele>1219.0</ele><time>2026-03-27T14:47:39.982Z</time></trkpt><trkpt lat="46.0644826" lon="12.4774945"><ele>1219.0</ele><time>2026-03-27T14:47:40.984Z</time></trkpt><trkpt lat="46.0644144" lon="12.4773767"><ele>1219.0</ele><time>2026-03-27T14:47:41.983Z</time></trkpt><trkpt lat="46.0643461" lon="12.4772523"><ele>1219.0</ele><time>2026-03-27T14:47:42.983Z</time></trkpt><trkpt lat="46.0642763" lon="12.4771237"><ele>1219.0</ele><time>2026-03-27T14:47:43.984Z</time></trkpt><trkpt lat="46.0642024" lon="12.4769971"><ele>1219.0</ele><time>2026-03-27T14:47:44.983Z</time></trkpt><trkpt lat="46.064127" lon="12.4768768"><ele>1217.8</ele><time>2026-03-27T14:47:45.982Z</time></trkpt><trkpt lat="46.064056" lon="12.4767699"><ele>1216.6000000000001</ele><time>2026-03-27T14:47:46.982Z</time></trkpt><trkpt lat="46.0639903" lon="12.476669"><ele>1215.4</ele><time>2026-03-27T14:47:47.983Z</time></trkpt><trkpt lat="46.0639188" lon="12.4765833"><ele>1214.2</ele><time>2026-03-27T14:47:48.982Z</time></trkpt><trkpt lat="46.0638369" lon="12.4765168"><ele>1213.0</ele><time>2026-03-27T14:47:49.982Z</time></trkpt><trkpt lat="46.0637501" lon="12.4764616"><ele>1213.0</ele><time>2026-03-27T14:47:50.983Z</time></trkpt><trkpt lat="46.0636696" lon="12.4764086"><ele>1213.0</ele><time>2026-03-27T14:47:51.982Z</time></trkpt><trkpt lat="46.0635938" lon="12.4763729"><ele>1213.0</ele><time>2026-03-27T14:47:52.985Z</time></trkpt><trkpt lat="46.0635149" lon="12.4763846"><ele>1213.0</ele><time>2026-03-27T14:47:53.984Z</time></trkpt><trkpt lat="46.0634288" lon="12.4764378"><ele>1213.0</ele><time>2026-03-27T14:47:54.983Z</time></trkpt><trkpt lat="46.063352" lon="12.4765177"><ele>1213.0</ele><time>2026-03-27T14:47:55.983Z</time></trkpt><trkpt lat="46.063289" lon="12.4766193"><ele>1211.8</ele><time>2026-03-27T14:47:56.982Z</time></trkpt><trkpt lat="46.063243" lon="12.4767285"><ele>1210.6</ele><time>2026-03-27T14:47:57.983Z</time></trkpt><trkpt lat="46.0632008" lon="12.4768371"><ele>1209.4</ele><time>2026-03-27T14:47:58.983Z</time></trkpt><trkpt lat="46.0631635" lon="12.4769351"><ele>1208.2</ele><time>2026-03-27T14:47:59.982Z</time></trkpt><trkpt lat="46.0630436" lon="12.47701"><ele>1207.0</ele><time>2026-03-27T14:48:01.984Z</time></trkpt><trkpt lat="46.0629541" lon="12.4770239"><ele>1207.0</ele><time>2026-03-27T14:48:02.983Z</time></trkpt><trkpt lat="46.0628525" lon="12.4770267"><ele>1207.0</ele><time>2026-03-27T14:48:03.982Z</time></trkpt><trkpt lat="46.0627478" lon="12.4770162"><ele>1207.0</ele><time>2026-03-27T14:48:04.983Z</time></trkpt><trkpt lat="46.0626486" lon="12.4769718"><ele>1207.0</ele><time>2026-03-27T14:48:05.982Z</time></trkpt><trkpt lat="46.0625522" lon="12.4768995"><ele>1207.0</ele><time>2026-03-27T14:48:06.983Z</time></trkpt><trkpt lat="46.0624598" lon="12.476817"><ele>1205.8333333333333</ele><time>2026-03-27T14:48:07.982Z</time></trkpt><trkpt lat="46.0623781" lon="12.4767371"><ele>1204.6666666666665</ele><time>2026-03-27T14:48:08.982Z</time></trkpt><trkpt lat="46.0623169" lon="12.4766721"><ele>1203.5</ele><time>2026-03-27T14:48:09.982Z</time></trkpt><trkpt lat="46.0622502" lon="12.4765614"><ele>1202.3333333333333</ele><time>2026-03-27T14:48:11.986Z</time></trkpt><trkpt lat="46.0621832" lon="12.4765093"><ele>1201.1666666666667</ele><time>2026-03-27T14:48:13.983Z</time></trkpt><trkpt lat="46.0621183" lon="12.4765083"><ele>1200.0</ele><time>2026-03-27T14:48:15.982Z</time></trkpt><trkpt lat="46.06209" lon="12.4765983"><ele>1200.0</ele><time>2026-03-27T14:48:20.984Z</time></trkpt><trkpt lat="46.06217" lon="12.47672"><ele>1200.0</ele><time>2026-03-27T14:48:22.983Z</time></trkpt><trkpt lat="46.0622417" lon="12.4767867"><ele>1200.0</ele><time>2026-03-27T14:48:23.982Z</time></trkpt><trkpt lat="46.0623133" lon="12.4768733"><ele>1200.0</ele><time>2026-03-27T14:48:24.985Z</time></trkpt><trkpt lat="46.062375" lon="12.4769617"><ele>1200.0</ele><time>2026-03-27T14:48:25.983Z</time></trkpt><trkpt lat="46.06242" lon="12.4770417"><ele>1197.6</ele><time>2026-03-27T14:48:26.982Z</time></trkpt><trkpt lat="46.0625167" lon="12.47713"><ele>1195.2</ele><time>2026-03-27T14:48:28.983Z</time></trkpt><trkpt lat="46.0625967" lon="12.47721"><ele>1192.8</ele><time>2026-03-27T14:48:30.982Z</time></trkpt><trkpt lat="46.062655" lon="12.4772717"><ele>1190.4</ele><time>2026-03-27T14:48:31.982Z</time></trkpt><trkpt lat="46.0627233" lon="12.4773283"><ele>1188.0</ele><time>2026-03-27T14:48:32.983Z</time></trkpt><trkpt lat="46.0628" lon="12.4773867"><ele>1188.0</ele><time>2026-03-27T14:48:33.986Z</time></trkpt><trkpt lat="46.0628833" lon="12.477435"><ele>1188.0</ele><time>2026-03-27T14:48:34.982Z</time></trkpt><trkpt lat="46.0629817" lon="12.4774683"><ele>1188.0</ele><time>2026-03-27T14:48:35.984Z</time></trkpt><trkpt lat="46.0630783" lon="12.477525"><ele>1188.0</ele><time>2026-03-27T14:48:36.981Z</time></trkpt><trkpt lat="46.0631667" lon="12.4775733"><ele>1188.0</ele><time>2026-03-27T14:48:37.982Z</time></trkpt><trkpt lat="46.0632433" lon="12.47763"><ele>1189.0</ele><time>2026-03-27T14:48:38.983Z</time></trkpt><trkpt lat="46.0633233" lon="12.4776883"><ele>1190.0</ele><time>2026-03-27T14:48:39.982Z</time></trkpt><trkpt lat="46.0634067" lon="12.477735"><ele>1191.0</ele><time>2026-03-27T14:48:40.983Z</time></trkpt><trkpt lat="46.063475" lon="12.4778017"><ele>1192.0</ele><time>2026-03-27T14:48:41.982Z</time></trkpt><trkpt lat="46.0635333" lon="12.4778683"><ele>1193.0</ele><time>2026-03-27T14:48:42.982Z</time></trkpt><trkpt lat="46.0635817" lon="12.47795"><ele>1194.0</ele><time>2026-03-27T14:48:43.983Z</time></trkpt><trkpt lat="46.063635" lon="12.478065"><ele>1189.6000000000001</ele><time>2026-03-27T14:48:44.984Z</time></trkpt><trkpt lat="46.0636767" lon="12.4782033"><ele>1185.2</ele><time>2026-03-27T14:48:45.982Z</time></trkpt><trkpt lat="46.0637183" lon="12.4783367"><ele>1180.8000000000002</ele><time>2026-03-27T14:48:46.982Z</time></trkpt><trkpt lat="46.0637633" lon="12.4784617"><ele>1176.4</ele><time>2026-03-27T14:48:47.983Z</time></trkpt><trkpt lat="46.0638017" lon="12.47859"><ele>1172.0</ele><time>2026-03-27T14:48:48.985Z</time></trkpt><trkpt lat="46.06383" lon="12.47873"><ele>1167.25</ele><time>2026-03-27T14:48:49.982Z</time></trkpt><trkpt lat="46.0638567" lon="12.4788783"><ele>1162.5</ele><time>2026-03-27T14:48:50.982Z</time></trkpt><trkpt lat="46.063885" lon="12.479035"><ele>1157.75</ele><time>2026-03-27T14:48:51.982Z</time></trkpt><trkpt lat="46.0639083" lon="12.4792067"><ele>1153.0</ele><time>2026-03-27T14:48:52.983Z</time></trkpt><trkpt lat="46.0639283" lon="12.4793933"><ele>1153.0</ele><time>2026-03-27T14:48:53.983Z</time></trkpt><trkpt lat="46.0639467" lon="12.4795733"><ele>1153.0</ele><time>2026-03-27T14:48:54.982Z</time></trkpt><trkpt lat="46.0639633" lon="12.4797483"><ele>1153.0</ele><time>2026-03-27T14:48:55.983Z</time></trkpt><trkpt lat="46.063975" lon="12.479925"><ele>1153.0</ele><time>2026-03-27T14:48:56.986Z</time></trkpt><trkpt lat="46.0639817" lon="12.4800867"><ele>1150.0</ele><time>2026-03-27T14:48:57.982Z</time></trkpt><trkpt lat="46.0639783" lon="12.480225"><ele>1147.0</ele><time>2026-03-27T14:48:58.982Z</time></trkpt><trkpt lat="46.0639733" lon="12.4803367"><ele>1144.0</ele><time>2026-03-27T14:48:59.982Z</time></trkpt><trkpt lat="46.06394" lon="12.4805083"><ele>1141.0</ele><time>2026-03-27T14:49:01.982Z</time></trkpt><trkpt lat="46.0639117" lon="12.4806183"><ele>1138.0</ele><time>2026-03-27T14:49:02.982Z</time></trkpt><trkpt lat="46.0638833" lon="12.4807533"><ele>1138.0</ele><time>2026-03-27T14:49:03.982Z</time></trkpt><trkpt lat="46.0638433" lon="12.48092"><ele>1138.0</ele><time>2026-03-27T14:49:04.982Z</time></trkpt><trkpt lat="46.0638017" lon="12.4810917"><ele>1138.0</ele><time>2026-03-27T14:49:05.982Z</time></trkpt><trkpt lat="46.0637583" lon="12.4812517"><ele>1138.0</ele><time>2026-03-27T14:49:06.982Z</time></trkpt><trkpt lat="46.0637167" lon="12.4814083"><ele>1138.0</ele><time>2026-03-27T14:49:07.983Z</time></trkpt><trkpt lat="46.0636733" lon="12.4815583"><ele>1138.0</ele><time>2026-03-27T14:49:08.984Z</time></trkpt><trkpt lat="46.0636267" lon="12.4817033"><ele>1138.0</ele><time>2026-03-27T14:49:09.982Z</time></trkpt><trkpt lat="46.0635733" lon="12.4818317"><ele>1138.0</ele><time>2026-03-27T14:49:10.983Z</time></trkpt><trkpt lat="46.0635167" lon="12.48195"><ele>1138.0</ele><time>2026-03-27T14:49:11.982Z</time></trkpt><trkpt lat="46.06347" lon="12.48206"><ele>1139.0</ele><time>2026-03-27T14:49:12.984Z</time></trkpt><trkpt lat="46.0634233" lon="12.4821917"><ele>1140.0</ele><time>2026-03-27T14:49:13.984Z</time></trkpt><trkpt lat="46.0633817" lon="12.482345"><ele>1141.0</ele><time>2026-03-27T14:49:14.982Z</time></trkpt><trkpt lat="46.0633417" lon="12.4825183"><ele>1142.0</ele><time>2026-03-27T14:49:15.982Z</time></trkpt><trkpt lat="46.0633017" lon="12.48269"><ele>1131.25</ele><time>2026-03-27T14:49:16.984Z</time></trkpt><trkpt lat="46.0632683" lon="12.4828583"><ele>1120.5</ele><time>2026-03-27T14:49:17.983Z</time></trkpt><trkpt lat="46.0632433" lon="12.4830333"><ele>1109.75</ele><time>2026-03-27T14:49:18.983Z</time></trkpt><trkpt lat="46.0632183" lon="12.4832067"><ele>1099.0</ele><time>2026-03-27T14:49:19.984Z</time></trkpt><trkpt lat="46.063185" lon="12.4833933"><ele>1099.0</ele><time>2026-03-27T14:49:20.987Z</time></trkpt><trkpt lat="46.0631467" lon="12.4836"><ele>1099.0</ele><time>2026-03-27T14:49:21.984Z</time></trkpt><trkpt lat="46.0630983" lon="12.483815"><ele>1099.0</ele><time>2026-03-27T14:49:22.983Z</time></trkpt><trkpt lat="46.06304" lon="12.484025"><ele>1099.5</ele><time>2026-03-27T14:49:23.982Z</time></trkpt><trkpt lat="46.0629783" lon="12.4842283"><ele>1100.0</ele><time>2026-03-27T14:49:24.983Z</time></trkpt><trkpt lat="46.062925" lon="12.4844217"><ele>1100.5</ele><time>2026-03-27T14:49:25.983Z</time></trkpt><trkpt lat="46.062875" lon="12.48461"><ele>1101.0</ele><time>2026-03-27T14:49:26.982Z</time></trkpt><trkpt lat="46.062825" lon="12.4847817"><ele>1101.0</ele><time>2026-03-27T14:49:27.983Z</time></trkpt><trkpt lat="46.0627883" lon="12.48493"><ele>1101.0</ele><time>2026-03-27T14:49:28.982Z</time></trkpt><trkpt lat="46.0627683" lon="12.4850717"><ele>1101.0</ele><time>2026-03-27T14:49:29.982Z</time></trkpt><trkpt lat="46.0627583" lon="12.4852017"><ele>1101.0</ele><time>2026-03-27T14:49:30.983Z</time></trkpt><trkpt lat="46.062765" lon="12.4853383"><ele>1101.0</ele><time>2026-03-27T14:49:31.982Z</time></trkpt><trkpt lat="46.0627717" lon="12.4854817"><ele>1100.25</ele><time>2026-03-27T14:49:32.983Z</time></trkpt><trkpt lat="46.0627733" lon="12.4856533"><ele>1099.5</ele><time>2026-03-27T14:49:33.982Z</time></trkpt><trkpt lat="46.0627817" lon="12.485845"><ele>1098.75</ele><time>2026-03-27T14:49:34.982Z</time></trkpt><trkpt lat="46.0627967" lon="12.4860433"><ele>1098.0</ele><time>2026-03-27T14:49:35.983Z</time></trkpt><trkpt lat="46.0628233" lon="12.4862117"><ele>1097.0</ele><time>2026-03-27T14:49:36.982Z</time></trkpt><trkpt lat="46.0628567" lon="12.4863567"><ele>1096.0</ele><time>2026-03-27T14:49:37.983Z</time></trkpt><trkpt lat="46.06288" lon="12.4864633"><ele>1095.0</ele><time>2026-03-27T14:49:38.983Z</time></trkpt><trkpt lat="46.0628633" lon="12.486595"><ele>1094.0</ele><time>2026-03-27T14:49:40.982Z</time></trkpt><trkpt lat="46.0627683" lon="12.4865417"><ele>1093.0</ele><time>2026-03-27T14:49:42.981Z</time></trkpt><trkpt lat="46.0627433" lon="12.4864533"><ele>1092.0</ele><time>2026-03-27T14:49:43.983Z</time></trkpt><trkpt lat="46.062725" lon="12.4863617"><ele>1092.0</ele><time>2026-03-27T14:49:44.983Z</time></trkpt><trkpt lat="46.062705" lon="12.486265"><ele>1092.0</ele><time>2026-03-27T14:49:45.982Z</time></trkpt><trkpt lat="46.0626767" lon="12.4861667"><ele>1092.0</ele><time>2026-03-27T14:49:46.984Z</time></trkpt><trkpt lat="46.06264" lon="12.48607"><ele>1092.0</ele><time>2026-03-27T14:49:47.982Z</time></trkpt><trkpt lat="46.0626067" lon="12.4859633"><ele>1092.0</ele><time>2026-03-27T14:49:48.982Z</time></trkpt><trkpt lat="46.0625733" lon="12.4858417"><ele>1092.0</ele><time>2026-03-27T14:49:49.982Z</time></trkpt><trkpt lat="46.062545" lon="12.4857017"><ele>1093.2</ele><time>2026-03-27T14:49:50.983Z</time></trkpt><trkpt lat="46.062525" lon="12.4855583"><ele>1094.4</ele><time>2026-03-27T14:49:51.982Z</time></trkpt><trkpt lat="46.06251" lon="12.485415"><ele>1095.6</ele><time>2026-03-27T14:49:52.983Z</time></trkpt><trkpt lat="46.0624833" lon="12.4852817"><ele>1096.8</ele><time>2026-03-27T14:49:53.983Z</time></trkpt><trkpt lat="46.0624633" lon="12.485135"><ele>1098.0</ele><time>2026-03-27T14:49:54.983Z</time></trkpt><trkpt lat="46.0624483" lon="12.4849767"><ele>1087.25</ele><time>2026-03-27T14:49:55.982Z</time></trkpt><trkpt lat="46.0624283" lon="12.4848133"><ele>1076.5</ele><time>2026-03-27T14:49:56.984Z</time></trkpt><trkpt lat="46.0624067" lon="12.484655"><ele>1065.75</ele><time>2026-03-27T14:49:57.982Z</time></trkpt><trkpt lat="46.0623867" lon="12.48449"><ele>1055.0</ele><time>2026-03-27T14:49:58.984Z</time></trkpt><trkpt lat="46.0623833" lon="12.4843083"><ele>1055.0</ele><time>2026-03-27T14:49:59.982Z</time></trkpt><trkpt lat="46.062395" lon="12.4841233"><ele>1055.0</ele><time>2026-03-27T14:50:00.982Z</time></trkpt><trkpt lat="46.06241" lon="12.4839383"><ele>1055.0</ele><time>2026-03-27T14:50:01.983Z</time></trkpt><trkpt lat="46.0624067" lon="12.483765"><ele>1055.0</ele><time>2026-03-27T14:50:02.982Z</time></trkpt><trkpt lat="46.06239" lon="12.4835983"><ele>1056.0</ele><time>2026-03-27T14:50:03.982Z</time></trkpt><trkpt lat="46.0623617" lon="12.4834333"><ele>1057.0</ele><time>2026-03-27T14:50:04.982Z</time></trkpt><trkpt lat="46.0623333" lon="12.4832733"><ele>1058.0</ele><time>2026-03-27T14:50:05.982Z</time></trkpt><trkpt lat="46.0623017" lon="12.483125"><ele>1059.0</ele><time>2026-03-27T14:50:06.982Z</time></trkpt><trkpt lat="46.0622667" lon="12.4829967"><ele>1060.0</ele><time>2026-03-27T14:50:07.983Z</time></trkpt><trkpt lat="46.06224" lon="12.48288"><ele>1062.0</ele><time>2026-03-27T14:50:08.983Z</time></trkpt><trkpt lat="46.0622167" lon="12.482765"><ele>1064.0</ele><time>2026-03-27T14:50:09.983Z</time></trkpt><trkpt lat="46.0622067" lon="12.4826333"><ele>1066.0</ele><time>2026-03-27T14:50:10.982Z</time></trkpt><trkpt lat="46.0622033" lon="12.4825067"><ele>1068.0</ele><time>2026-03-27T14:50:11.983Z</time></trkpt><trkpt lat="46.062205" lon="12.48239"><ele>1070.0</ele><time>2026-03-27T14:50:12.982Z</time></trkpt><trkpt lat="46.0622083" lon="12.482285"><ele>1072.0</ele><time>2026-03-27T14:50:13.983Z</time></trkpt><trkpt lat="46.0622067" lon="12.48219"><ele>1076.0</ele><time>2026-03-27T14:50:14.984Z</time></trkpt><trkpt lat="46.0621867" lon="12.4820533"><ele>1080.0</ele><time>2026-03-27T14:50:16.982Z</time></trkpt><trkpt lat="46.0621283" lon="12.48195"><ele>1084.0</ele><time>2026-03-27T14:50:18.982Z</time></trkpt><trkpt lat="46.0620167" lon="12.4819583"><ele>1088.0</ele><time>2026-03-27T14:50:20.982Z</time></trkpt><trkpt lat="46.0619083" lon="12.4819833"><ele>1092.0</ele><time>2026-03-27T14:50:22.983Z</time></trkpt><trkpt lat="46.0618317" lon="12.48203"><ele>1088.0</ele><time>2026-03-27T14:50:24.983Z</time></trkpt><trkpt lat="46.0617533" lon="12.4821417"><ele>1084.0</ele><time>2026-03-27T14:50:26.983Z</time></trkpt><trkpt lat="46.06169" lon="12.482205"><ele>1080.0</ele><time>2026-03-27T14:50:27.982Z</time></trkpt><trkpt lat="46.0616133" lon="12.48229"><ele>1076.0</ele><time>2026-03-27T14:50:28.983Z</time></trkpt><trkpt lat="46.0615167" lon="12.4823333"><ele>1072.0</ele><time>2026-03-27T14:50:29.984Z</time></trkpt><trkpt lat="46.061405" lon="12.4823783"><ele>1071.2</ele><time>2026-03-27T14:50:30.982Z</time></trkpt><trkpt lat="46.0612967" lon="12.48241"><ele>1070.4</ele><time>2026-03-27T14:50:31.983Z</time></trkpt><trkpt lat="46.061185" lon="12.4824267"><ele>1069.6</ele><time>2026-03-27T14:50:32.983Z</time></trkpt><trkpt lat="46.061085" lon="12.4824267"><ele>1068.8</ele><time>2026-03-27T14:50:33.981Z</time></trkpt><trkpt lat="46.0609967" lon="12.4824467"><ele>1068.0</ele><time>2026-03-27T14:50:34.983Z</time></trkpt><trkpt lat="46.0609283" lon="12.4825067"><ele>1068.0</ele><time>2026-03-27T14:50:35.985Z</time></trkpt><trkpt lat="46.0608867" lon="12.48261"><ele>1068.0</ele><time>2026-03-27T14:50:37.985Z</time></trkpt><trkpt lat="46.060935" lon="12.48271"><ele>1068.0</ele><time>2026-03-27T14:50:39.983Z</time></trkpt><trkpt lat="46.0610283" lon="12.48281"><ele>1068.0</ele><time>2026-03-27T14:50:41.984Z</time></trkpt><trkpt lat="46.061095" lon="12.4828567"><ele>1068.0</ele><time>2026-03-27T14:50:42.983Z</time></trkpt><trkpt lat="46.06117" lon="12.482915"><ele>1068.0</ele><time>2026-03-27T14:50:43.985Z</time></trkpt><trkpt lat="46.0612817" lon="12.483025"><ele>1062.0</ele><time>2026-03-27T14:50:45.982Z</time></trkpt><trkpt lat="46.0613317" lon="12.483115"><ele>1056.0</ele><time>2026-03-27T14:50:46.983Z</time></trkpt><trkpt lat="46.061365" lon="12.483225"><ele>1050.0</ele><time>2026-03-27T14:50:47.982Z</time></trkpt><trkpt lat="46.0613933" lon="12.483365"><ele>1044.0</ele><time>2026-03-27T14:50:48.982Z</time></trkpt><trkpt lat="46.06139" lon="12.4835567"><ele>1038.0</ele><time>2026-03-27T14:50:49.984Z</time></trkpt><trkpt lat="46.06138" lon="12.4837517"><ele>1031.3333333333333</ele><time>2026-03-27T14:50:50.983Z</time></trkpt><trkpt lat="46.0613633" lon="12.483965"><ele>1024.6666666666665</ele><time>2026-03-27T14:50:51.982Z</time></trkpt><trkpt lat="46.06134" lon="12.4841967"><ele>1018.0</ele><time>2026-03-27T14:50:52.983Z</time></trkpt><trkpt lat="46.06131" lon="12.4844417"><ele>1015.6666666666666</ele><time>2026-03-27T14:50:53.982Z</time></trkpt><trkpt lat="46.0612817" lon="12.484685"><ele>1013.3333333333333</ele><time>2026-03-27T14:50:54.982Z</time></trkpt><trkpt lat="46.0612567" lon="12.484945"><ele>1011.0</ele><time>2026-03-27T14:50:55.984Z</time></trkpt><trkpt lat="46.0612267" lon="12.4852167"><ele>1010.0</ele><time>2026-03-27T14:50:56.983Z</time></trkpt><trkpt lat="46.0612" lon="12.4855"><ele>1009.0</ele><time>2026-03-27T14:50:57.983Z</time></trkpt><trkpt lat="46.0611633" lon="12.4857867"><ele>1008.0</ele><time>2026-03-27T14:50:58.982Z</time></trkpt><trkpt lat="46.0611267" lon="12.4860683"><ele>1006.6666666666667</ele><time>2026-03-27T14:50:59.982Z</time></trkpt><trkpt lat="46.0610883" lon="12.4863417"><ele>1005.3333333333334</ele><time>2026-03-27T14:51:00.982Z</time></trkpt><trkpt lat="46.0610617" lon="12.4866217"><ele>1004.0</ele><time>2026-03-27T14:51:01.983Z</time></trkpt><trkpt lat="46.06102" lon="12.486885"><ele>1005.0</ele><time>2026-03-27T14:51:02.983Z</time></trkpt><trkpt lat="46.0609667" lon="12.4871483"><ele>1006.0</ele><time>2026-03-27T14:51:03.982Z</time></trkpt><trkpt lat="46.0609067" lon="12.4874117"><ele>1007.0</ele><time>2026-03-27T14:51:04.983Z</time></trkpt><trkpt lat="46.060835" lon="12.48764"><ele>1003.8</ele><time>2026-03-27T14:51:05.984Z</time></trkpt><trkpt lat="46.0607783" lon="12.4878167"><ele>1000.6</ele><time>2026-03-27T14:51:06.983Z</time></trkpt><trkpt lat="46.060735" lon="12.4879567"><ele>997.3999999999999</ele><time>2026-03-27T14:51:07.983Z</time></trkpt><trkpt lat="46.0606917" lon="12.4880633"><ele>994.1999999999999</ele><time>2026-03-27T14:51:08.983Z</time></trkpt><trkpt lat="46.0606467" lon="12.4881417"><ele>991.0</ele><time>2026-03-27T14:51:09.983Z</time></trkpt><trkpt lat="46.0605883" lon="12.48819"><ele>991.0</ele><time>2026-03-27T14:51:10.983Z</time></trkpt><trkpt lat="46.060515" lon="12.48822"><ele>990.9999999999999</ele><time>2026-03-27T14:51:11.984Z</time></trkpt><trkpt lat="46.0604117" lon="12.488255"><ele>990.9999999999999</ele><time>2026-03-27T14:51:12.983Z</time></trkpt><trkpt lat="46.0602833" lon="12.4883033"><ele>991.0</ele><time>2026-03-27T14:51:13.983Z</time></trkpt><trkpt lat="46.0601533" lon="12.4883517"><ele>991.0</ele><time>2026-03-27T14:51:14.983Z</time></trkpt><trkpt lat="46.06003" lon="12.488385"><ele>984.1999999999999</ele><time>2026-03-27T14:51:15.983Z</time></trkpt><trkpt lat="46.0599167" lon="12.4884183"><ele>977.3999999999999</ele><time>2026-03-27T14:51:16.983Z</time></trkpt><trkpt lat="46.059815" lon="12.4884583"><ele>970.6</ele><time>2026-03-27T14:51:17.985Z</time></trkpt><trkpt lat="46.059735" lon="12.4885017"><ele>963.8</ele><time>2026-03-27T14:51:18.983Z</time></trkpt><trkpt lat="46.05966" lon="12.4885733"><ele>957.0</ele><time>2026-03-27T14:51:19.983Z</time></trkpt><trkpt lat="46.0595967" lon="12.4886467"><ele>957.0</ele><time>2026-03-27T14:51:20.984Z</time></trkpt><trkpt lat="46.0595067" lon="12.4886933"><ele>957.0</ele><time>2026-03-27T14:51:22.986Z</time></trkpt><trkpt lat="46.059515" lon="12.4885183"><ele>957.0</ele><time>2026-03-27T14:51:24.983Z</time></trkpt><trkpt lat="46.059575" lon="12.4884217"><ele>957.0</ele><time>2026-03-27T14:51:25.983Z</time></trkpt><trkpt lat="46.0596633" lon="12.4883217"><ele>957.0</ele><time>2026-03-27T14:51:26.983Z</time></trkpt><trkpt lat="46.05976" lon="12.4882083"><ele>957.0</ele><time>2026-03-27T14:51:27.983Z</time></trkpt><trkpt lat="46.0598617" lon="12.4880883"><ele>957.0</ele><time>2026-03-27T14:51:28.985Z</time></trkpt><trkpt lat="46.0599667" lon="12.4879867"><ele>957.0</ele><time>2026-03-27T14:51:29.985Z</time></trkpt><trkpt lat="46.060055" lon="12.4879067"><ele>957.0</ele><time>2026-03-27T14:51:30.983Z</time></trkpt><trkpt lat="46.0601267" lon="12.4878583"><ele>957.0</ele><time>2026-03-27T14:51:31.986Z</time></trkpt><trkpt lat="46.060205" lon="12.48778"><ele>959.3333333333334</ele><time>2026-03-27T14:51:33.983Z</time></trkpt><trkpt lat="46.0601533" lon="12.48772"><ele>961.6666666666667</ele><time>2026-03-27T14:51:35.984Z</time></trkpt><trkpt lat="46.0600833" lon="12.487725"><ele>964.0</ele><time>2026-03-27T14:51:36.983Z</time></trkpt><trkpt lat="46.0600183" lon="12.487715"><ele>966.3333333333334</ele><time>2026-03-27T14:51:37.983Z</time></trkpt><trkpt lat="46.0599167" lon="12.48771"><ele>968.6666666666667</ele><time>2026-03-27T14:51:38.983Z</time></trkpt><trkpt lat="46.0597917" lon="12.48774"><ele>971.0</ele><time>2026-03-27T14:51:39.983Z</time></trkpt><trkpt lat="46.0596633" lon="12.48779"><ele>967.5</ele><time>2026-03-27T14:51:40.983Z</time></trkpt><trkpt lat="46.0595367" lon="12.48789"><ele>964.0</ele><time>2026-03-27T14:51:41.983Z</time></trkpt><trkpt lat="46.0594133" lon="12.4880067"><ele>960.5</ele><time>2026-03-27T14:51:42.984Z</time></trkpt><trkpt lat="46.0592967" lon="12.488125"><ele>957.0</ele><time>2026-03-27T14:51:43.984Z</time></trkpt><trkpt lat="46.0592033" lon="12.4882283"><ele>957.0</ele><time>2026-03-27T14:51:44.984Z</time></trkpt><trkpt lat="46.0591333" lon="12.48831"><ele>957.0</ele><time>2026-03-27T14:51:45.986Z</time></trkpt><trkpt lat="46.0590533" lon="12.4882917"><ele>957.0</ele><time>2026-03-27T14:51:47.983Z</time></trkpt><trkpt lat="46.0591017" lon="12.4882017"><ele>957.0</ele><time>2026-03-27T14:51:48.983Z</time></trkpt><trkpt lat="46.0591633" lon="12.4880983"><ele>957.0</ele><time>2026-03-27T14:51:49.983Z</time></trkpt><trkpt lat="46.05924" lon="12.4879683"><ele>952.0</ele><time>2026-03-27T14:51:50.985Z</time></trkpt><trkpt lat="46.059335" lon="12.487825"><ele>947.0</ele><time>2026-03-27T14:51:51.983Z</time></trkpt><trkpt lat="46.05944" lon="12.48768"><ele>942.0</ele><time>2026-03-27T14:51:52.983Z</time></trkpt><trkpt lat="46.0595433" lon="12.4875433"><ele>937.0</ele><time>2026-03-27T14:51:53.983Z</time></trkpt><trkpt lat="46.0596317" lon="12.48744"><ele>937.0</ele><time>2026-03-27T14:51:54.982Z</time></trkpt><trkpt lat="46.0597017" lon="12.4873633"><ele>937.0</ele><time>2026-03-27T14:51:55.984Z</time></trkpt><trkpt lat="46.0597583" lon="12.4872817"><ele>937.0</ele><time>2026-03-27T14:51:56.984Z</time></trkpt><trkpt lat="46.0597483" lon="12.4870833"><ele>937.0</ele><time>2026-03-27T14:51:58.983Z</time></trkpt><trkpt lat="46.0597433" lon="12.4869317"><ele>937.0</ele><time>2026-03-27T14:51:59.984Z</time></trkpt><trkpt lat="46.05974" lon="12.486745"><ele>934.6666666666666</ele><time>2026-03-27T14:52:00.984Z</time></trkpt><trkpt lat="46.0597317" lon="12.48653"><ele>932.3333333333333</ele><time>2026-03-27T14:52:01.984Z</time></trkpt><trkpt lat="46.0597033" lon="12.4863033"><ele>930.0</ele><time>2026-03-27T14:52:02.983Z</time></trkpt><trkpt lat="46.059675" lon="12.48609"><ele>930.0</ele><time>2026-03-27T14:52:03.984Z</time></trkpt><trkpt lat="46.05965" lon="12.485935"><ele>930.0</ele><time>2026-03-27T14:52:04.982Z</time></trkpt><trkpt lat="46.0596317" lon="12.4858233"><ele>930.0</ele><time>2026-03-27T14:52:05.985Z</time></trkpt><trkpt lat="46.0596017" lon="12.4857367"><ele>930.0</ele><time>2026-03-27T14:52:06.983Z</time></trkpt><trkpt lat="46.0595633" lon="12.485835"><ele>930.0</ele><time>2026-03-27T14:52:08.983Z</time></trkpt><trkpt lat="46.0595483" lon="12.4859667"><ele>930.0</ele><time>2026-03-27T14:52:10.067Z</time></trkpt><trkpt lat="46.0595283" lon="12.4861267"><ele>927.5</ele><time>2026-03-27T14:52:10.986Z</time></trkpt><trkpt lat="46.0594967" lon="12.4863233"><ele>925.0</ele><time>2026-03-27T14:52:11.983Z</time></trkpt><trkpt lat="46.0594583" lon="12.4865317"><ele>922.5</ele><time>2026-03-27T14:52:12.983Z</time></trkpt><trkpt lat="46.0594133" lon="12.4867333"><ele>920.0</ele><time>2026-03-27T14:52:13.984Z</time></trkpt><trkpt lat="46.0593617" lon="12.486895"><ele>920.0</ele><time>2026-03-27T14:52:14.983Z</time></trkpt><trkpt lat="46.0593217" lon="12.4870283"><ele>920.0</ele><time>2026-03-27T14:52:15.983Z</time></trkpt><trkpt lat="46.0592517" lon="12.4871017"><ele>920.0</ele><time>2026-03-27T14:52:16.983Z</time></trkpt><trkpt lat="46.0591517" lon="12.487145"><ele>920.0</ele><time>2026-03-27T14:52:17.983Z</time></trkpt><trkpt lat="46.0590367" lon="12.4871817"><ele>920.0</ele><time>2026-03-27T14:52:18.983Z</time></trkpt><trkpt lat="46.0589267" lon="12.4872417"><ele>917.6</ele><time>2026-03-27T14:52:19.983Z</time></trkpt><trkpt lat="46.0588133" lon="12.487305"><ele>915.2</ele><time>2026-03-27T14:52:20.984Z</time></trkpt><trkpt lat="46.0587017" lon="12.48739"><ele>912.8</ele><time>2026-03-27T14:52:21.984Z</time></trkpt><trkpt lat="46.0586133" lon="12.48746"><ele>910.4</ele><time>2026-03-27T14:52:22.983Z</time></trkpt><trkpt lat="46.05856" lon="12.48752"><ele>908.0</ele><time>2026-03-27T14:52:23.984Z</time></trkpt><trkpt lat="46.05849" lon="12.4875167"><ele>908.0</ele><time>2026-03-27T14:52:25.987Z</time></trkpt><trkpt lat="46.0586033" lon="12.4873967"><ele>908.0</ele><time>2026-03-27T14:52:27.982Z</time></trkpt><trkpt lat="46.0586917" lon="12.4873117"><ele>908.0</ele><time>2026-03-27T14:52:28.983Z</time></trkpt><trkpt lat="46.05879" lon="12.4871833"><ele>908.0</ele><time>2026-03-27T14:52:29.984Z</time></trkpt><trkpt lat="46.05889" lon="12.4870533"><ele>905.5999999999999</ele><time>2026-03-27T14:52:30.983Z</time></trkpt><trkpt lat="46.0589883" lon="12.48695"><ele>903.1999999999999</ele><time>2026-03-27T14:52:31.983Z</time></trkpt><trkpt lat="46.05908" lon="12.4868683"><ele>900.8</ele><time>2026-03-27T14:52:32.985Z</time></trkpt><trkpt lat="46.059125" lon="12.4867767"><ele>898.4</ele><time>2026-03-27T14:52:33.984Z</time></trkpt><trkpt lat="46.0591333" lon="12.4866717"><ele>896.0</ele><time>2026-03-27T14:52:34.984Z</time></trkpt><trkpt lat="46.0590867" lon="12.4865167"><ele>896.0</ele><time>2026-03-27T14:52:35.983Z</time></trkpt><trkpt lat="46.0590217" lon="12.4863867"><ele>896.0</ele><time>2026-03-27T14:52:36.983Z</time></trkpt><trkpt lat="46.05894" lon="12.4862983"><ele>896.0</ele><time>2026-03-27T14:52:37.983Z</time></trkpt><trkpt lat="46.0588267" lon="12.4862367"><ele>896.0</ele><time>2026-03-27T14:52:38.984Z</time></trkpt><trkpt lat="46.0586833" lon="12.48617"><ele>899.6666666666667</ele><time>2026-03-27T14:52:39.984Z</time></trkpt><trkpt lat="46.0585283" lon="12.4860733"><ele>903.3333333333333</ele><time>2026-03-27T14:52:40.983Z</time></trkpt><trkpt lat="46.0583567" lon="12.4859633"><ele>907.0</ele><time>2026-03-27T14:52:41.983Z</time></trkpt><trkpt lat="46.0581633" lon="12.485865"><ele>897.3333333333333</ele><time>2026-03-27T14:52:42.983Z</time></trkpt><trkpt lat="46.05795" lon="12.4857783"><ele>887.6666666666667</ele><time>2026-03-27T14:52:43.983Z</time></trkpt><trkpt lat="46.05773" lon="12.4857"><ele>878.0</ele><time>2026-03-27T14:52:44.985Z</time></trkpt><trkpt lat="46.057515" lon="12.4856317"><ele>869.6666666666667</ele><time>2026-03-27T14:52:45.983Z</time></trkpt><trkpt lat="46.0573167" lon="12.48558"><ele>861.3333333333333</ele><time>2026-03-27T14:52:46.983Z</time></trkpt><trkpt lat="46.0571567" lon="12.48553"><ele>853.0</ele><time>2026-03-27T14:52:47.983Z</time></trkpt><trkpt lat="46.057055" lon="12.4854633"><ele>853.0</ele><time>2026-03-27T14:52:48.985Z</time></trkpt><trkpt lat="46.05699" lon="12.4854117"><ele>853.0</ele><time>2026-03-27T14:52:49.982Z</time></trkpt><trkpt lat="46.0570217" lon="12.4855433"><ele>853.0</ele><time>2026-03-27T14:52:53.983Z</time></trkpt><trkpt lat="46.0571067" lon="12.48566"><ele>853.0</ele><time>2026-03-27T14:52:54.982Z</time></trkpt><trkpt lat="46.0572083" lon="12.485815"><ele>853.0</ele><time>2026-03-27T14:52:55.985Z</time></trkpt><trkpt lat="46.0572933" lon="12.4859583"><ele>852.9999999999999</ele><time>2026-03-27T14:52:56.985Z</time></trkpt><trkpt lat="46.05736" lon="12.4860667"><ele>853.0</ele><time>2026-03-27T14:52:57.982Z</time></trkpt><trkpt lat="46.057425" lon="12.4861233"><ele>853.0</ele><time>2026-03-27T14:52:58.983Z</time></trkpt><trkpt lat="46.05736" lon="12.4861883"><ele>853.0</ele><time>2026-03-27T14:53:01.986Z</time></trkpt><trkpt lat="46.0572933" lon="12.4861383"><ele>852.9999999999999</ele><time>2026-03-27T14:53:02.983Z</time></trkpt><trkpt lat="46.0571933" lon="12.4860517"><ele>853.0</ele><time>2026-03-27T14:53:03.984Z</time></trkpt><trkpt lat="46.05707" lon="12.48593"><ele>853.0</ele><time>2026-03-27T14:53:04.984Z</time></trkpt><trkpt lat="46.056945" lon="12.485805"><ele>853.0</ele><time>2026-03-27T14:53:05.983Z</time></trkpt><trkpt lat="46.0567983" lon="12.485695"><ele>853.0</ele><time>2026-03-27T14:53:06.985Z</time></trkpt><trkpt lat="46.0566417" lon="12.4855833"><ele>857.0</ele><time>2026-03-27T14:53:07.982Z</time></trkpt><trkpt lat="46.0564883" lon="12.4854717"><ele>861.0</ele><time>2026-03-27T14:53:08.984Z</time></trkpt><trkpt lat="46.05633" lon="12.4853833"><ele>865.0</ele><time>2026-03-27T14:53:09.984Z</time></trkpt><trkpt lat="46.0561667" lon="12.4853133"><ele>865.0</ele><time>2026-03-27T14:53:10.983Z</time></trkpt><trkpt lat="46.056" lon="12.4852583"><ele>865.0</ele><time>2026-03-27T14:53:11.984Z</time></trkpt><trkpt lat="46.0558383" lon="12.485225"><ele>865.0</ele><time>2026-03-27T14:53:12.983Z</time></trkpt><trkpt lat="46.0556783" lon="12.4852017"><ele>860.6666666666666</ele><time>2026-03-27T14:53:13.983Z</time></trkpt><trkpt lat="46.055515" lon="12.48516"><ele>856.3333333333333</ele><time>2026-03-27T14:53:14.983Z</time></trkpt><trkpt lat="46.05534" lon="12.4851117"><ele>852.0</ele><time>2026-03-27T14:53:15.983Z</time></trkpt><trkpt lat="46.055165" lon="12.4850767"><ele>852.0</ele><time>2026-03-27T14:53:16.983Z</time></trkpt><trkpt lat="46.0549833" lon="12.4850667"><ele>852.0</ele><time>2026-03-27T14:53:17.982Z</time></trkpt><trkpt lat="46.0548033" lon="12.48505"><ele>852.0</ele><time>2026-03-27T14:53:18.983Z</time></trkpt><trkpt lat="46.05464" lon="12.48503"><ele>849.6666666666667</ele><time>2026-03-27T14:53:19.986Z</time></trkpt><trkpt lat="46.054485" lon="12.485025"><ele>847.3333333333334</ele><time>2026-03-27T14:53:20.983Z</time></trkpt><trkpt lat="46.0543167" lon="12.4850567"><ele>845.0</ele><time>2026-03-27T14:53:21.983Z</time></trkpt><trkpt lat="46.05414" lon="12.4850867"><ele>841.0</ele><time>2026-03-27T14:53:22.982Z</time></trkpt><trkpt lat="46.0539517" lon="12.4851083"><ele>837.0</ele><time>2026-03-27T14:53:23.983Z</time></trkpt><trkpt lat="46.053755" lon="12.48513"><ele>833.0</ele><time>2026-03-27T14:53:24.983Z</time></trkpt><trkpt lat="46.053545" lon="12.4851533"><ele>833.0</ele><time>2026-03-27T14:53:25.982Z</time></trkpt><trkpt lat="46.053325" lon="12.485175"><ele>833.0</ele><time>2026-03-27T14:53:26.983Z</time></trkpt><trkpt lat="46.053095" lon="12.48519"><ele>830.0</ele><time>2026-03-27T14:53:27.983Z</time></trkpt><trkpt lat="46.0528583" lon="12.4852067"><ele>827.0</ele><time>2026-03-27T14:53:28.984Z</time></trkpt><trkpt lat="46.0526367" lon="12.4852133"><ele>820.3333333333334</ele><time>2026-03-27T14:53:29.983Z</time></trkpt><trkpt lat="46.0524433" lon="12.4852183"><ele>813.6666666666667</ele><time>2026-03-27T14:53:30.984Z</time></trkpt><trkpt lat="46.0522717" lon="12.4852067"><ele>807.0</ele><time>2026-03-27T14:53:31.983Z</time></trkpt><trkpt lat="46.052125" lon="12.485185"><ele>807.0</ele><time>2026-03-27T14:53:32.983Z</time></trkpt><trkpt lat="46.0519983" lon="12.4851517"><ele>807.0</ele><time>2026-03-27T14:53:33.984Z</time></trkpt><trkpt lat="46.0519" lon="12.4850883"><ele>807.0</ele><time>2026-03-27T14:53:34.983Z</time></trkpt><trkpt lat="46.0518083" lon="12.4850067"><ele>807.0</ele><time>2026-03-27T14:53:35.982Z</time></trkpt><trkpt lat="46.0517183" lon="12.4848917"><ele>808.0</ele><time>2026-03-27T14:53:36.983Z</time></trkpt><trkpt lat="46.0516233" lon="12.4847717"><ele>809.0</ele><time>2026-03-27T14:53:37.982Z</time></trkpt><trkpt lat="46.0515267" lon="12.4846567"><ele>810.0</ele><time>2026-03-27T14:53:38.983Z</time></trkpt><trkpt lat="46.0514267" lon="12.4845683"><ele>811.0</ele><time>2026-03-27T14:53:39.982Z</time></trkpt><trkpt lat="46.05134" lon="12.4845117"><ele>810.9999999999999</ele><time>2026-03-27T14:53:40.983Z</time></trkpt><trkpt lat="46.051265" lon="12.4844833"><ele>811.0</ele><time>2026-03-27T14:53:41.988Z</time></trkpt><trkpt lat="46.0511983" lon="12.48451"><ele>811.0</ele><time>2026-03-27T14:53:42.984Z</time></trkpt><trkpt lat="46.0511433" lon="12.4845567"><ele>811.0</ele><time>2026-03-27T14:53:43.982Z</time></trkpt><trkpt lat="46.0510717" lon="12.484635"><ele>810.9999999999999</ele><time>2026-03-27T14:53:44.983Z</time></trkpt><trkpt lat="46.0509917" lon="12.4846733"><ele>811.0</ele><time>2026-03-27T14:53:45.983Z</time></trkpt><trkpt lat="46.0509083" lon="12.4846633"><ele>810.9999999999999</ele><time>2026-03-27T14:53:46.985Z</time></trkpt><trkpt lat="46.0508433" lon="12.4846067"><ele>811.0</ele><time>2026-03-27T14:53:47.983Z</time></trkpt><trkpt lat="46.0508033" lon="12.4845133"><ele>811.0</ele><time>2026-03-27T14:53:48.983Z</time></trkpt><trkpt lat="46.0507567" lon="12.48445"><ele>811.0</ele><time>2026-03-27T14:53:49.983Z</time></trkpt><trkpt lat="46.0507083" lon="12.4845467"><ele>810.9999999999999</ele><time>2026-03-27T14:53:52.984Z</time></trkpt><trkpt lat="46.05074" lon="12.4846333"><ele>811.0</ele><time>2026-03-27T14:53:53.982Z</time></trkpt><trkpt lat="46.0507833" lon="12.4847583"><ele>806.5999999999999</ele><time>2026-03-27T14:53:54.984Z</time></trkpt><trkpt lat="46.0508533" lon="12.4848717"><ele>802.2</ele><time>2026-03-27T14:53:55.983Z</time></trkpt><trkpt lat="46.0509333" lon="12.4849517"><ele>797.8</ele><time>2026-03-27T14:53:56.985Z</time></trkpt><trkpt lat="46.0510217" lon="12.484995"><ele>793.4000000000001</ele><time>2026-03-27T14:53:57.984Z</time></trkpt><trkpt lat="46.0511117" lon="12.484995"><ele>789.0</ele><time>2026-03-27T14:53:58.984Z</time></trkpt><trkpt lat="46.0511967" lon="12.4849883"><ele>789.0</ele><time>2026-03-27T14:53:59.982Z</time></trkpt><trkpt lat="46.051275" lon="12.4850017"><ele>789.0</ele><time>2026-03-27T14:54:00.982Z</time></trkpt><trkpt lat="46.0513467" lon="12.4850367"><ele>789.0</ele><time>2026-03-27T14:54:01.985Z</time></trkpt><trkpt lat="46.0514133" lon="12.48511"><ele>789.0</ele><time>2026-03-27T14:54:02.984Z</time></trkpt><trkpt lat="46.0514783" lon="12.485205"><ele>789.0</ele><time>2026-03-27T14:54:03.983Z</time></trkpt><trkpt lat="46.0515533" lon="12.4852983"><ele>789.0</ele><time>2026-03-27T14:54:04.984Z</time></trkpt><trkpt lat="46.0516083" lon="12.4854233"><ele>788.5</ele><time>2026-03-27T14:54:05.983Z</time></trkpt><trkpt lat="46.0516467" lon="12.485545"><ele>788.0</ele><time>2026-03-27T14:54:06.983Z</time></trkpt><trkpt lat="46.0516917" lon="12.4856333"><ele>787.5</ele><time>2026-03-27T14:54:07.983Z</time></trkpt><trkpt lat="46.05174" lon="12.4857283"><ele>787.0</ele><time>2026-03-27T14:54:08.984Z</time></trkpt><trkpt lat="46.0517967" lon="12.4857883"><ele>786.5</ele><time>2026-03-27T14:54:09.983Z</time></trkpt><trkpt lat="46.051855" lon="12.4859333"><ele>786.0</ele><time>2026-03-27T14:54:11.982Z</time></trkpt><trkpt lat="46.0518567" lon="12.4860483"><ele>786.0</ele><time>2026-03-27T14:54:12.983Z</time></trkpt><trkpt lat="46.0518433" lon="12.48618"><ele>786.0</ele><time>2026-03-27T14:54:13.984Z</time></trkpt><trkpt lat="46.0518417" lon="12.4863133"><ele>786.0</ele><time>2026-03-27T14:54:14.984Z</time></trkpt><trkpt lat="46.0518633" lon="12.4864533"><ele>786.0</ele><time>2026-03-27T14:54:15.983Z</time></trkpt><trkpt lat="46.0518917" lon="12.4865517"><ele>786.0</ele><time>2026-03-27T14:54:16.983Z</time></trkpt><trkpt lat="46.051965" lon="12.4866317"><ele>784.1999999999999</ele><time>2026-03-27T14:54:18.983Z</time></trkpt><trkpt lat="46.0520317" lon="12.4866317"><ele>782.4</ele><time>2026-03-27T14:54:19.983Z</time></trkpt><trkpt lat="46.052125" lon="12.4866117"><ele>780.6</ele><time>2026-03-27T14:54:20.985Z</time></trkpt><trkpt lat="46.0522233" lon="12.4866117"><ele>778.8</ele><time>2026-03-27T14:54:21.982Z</time></trkpt><trkpt lat="46.0523317" lon="12.486625"><ele>777.0</ele><time>2026-03-27T14:54:22.983Z</time></trkpt><trkpt lat="46.0524633" lon="12.4866333"><ele>777.0</ele><time>2026-03-27T14:54:23.983Z</time></trkpt><trkpt lat="46.0526017" lon="12.4866367"><ele>777.0</ele><time>2026-03-27T14:54:24.983Z</time></trkpt><trkpt lat="46.0527383" lon="12.4866333"><ele>777.0</ele><time>2026-03-27T14:54:25.983Z</time></trkpt><trkpt lat="46.0528617" lon="12.4866117"><ele>777.0</ele><time>2026-03-27T14:54:26.987Z</time></trkpt><trkpt lat="46.05296" lon="12.486585"><ele>777.0</ele><time>2026-03-27T14:54:27.982Z</time></trkpt><trkpt lat="46.0530417" lon="12.486575"><ele>777.0</ele><time>2026-03-27T14:54:28.983Z</time></trkpt><trkpt lat="46.0530783" lon="12.4866683"><ele>777.0</ele><time>2026-03-27T14:54:30.982Z</time></trkpt><trkpt lat="46.0530067" lon="12.4867"><ele>777.0</ele><time>2026-03-27T14:54:31.983Z</time></trkpt><trkpt lat="46.0529217" lon="12.4867417"><ele>777.0</ele><time>2026-03-27T14:54:32.983Z</time></trkpt><trkpt lat="46.052805" lon="12.4868067"><ele>777.0</ele><time>2026-03-27T14:54:33.983Z</time></trkpt><trkpt lat="46.05268" lon="12.4868683"><ele>777.0</ele><time>2026-03-27T14:54:34.983Z</time></trkpt><trkpt lat="46.0525533" lon="12.48694"><ele>777.0</ele><time>2026-03-27T14:54:35.983Z</time></trkpt><trkpt lat="46.052425" lon="12.487045"><ele>777.0</ele><time>2026-03-27T14:54:36.982Z</time></trkpt><trkpt lat="46.0523217" lon="12.4871617"><ele>777.0</ele><time>2026-03-27T14:54:37.982Z</time></trkpt><trkpt lat="46.0522367" lon="12.4872733"><ele>771.8</ele><time>2026-03-27T14:54:38.984Z</time></trkpt><trkpt lat="46.0521667" lon="12.4873867"><ele>766.6</ele><time>2026-03-27T14:54:39.982Z</time></trkpt><trkpt lat="46.0521083" lon="12.487465"><ele>761.4</ele><time>2026-03-27T14:54:40.982Z</time></trkpt><trkpt lat="46.0520417" lon="12.4875117"><ele>756.1999999999999</ele><time>2026-03-27T14:54:41.983Z</time></trkpt><trkpt lat="46.0519483" lon="12.4875317"><ele>751.0</ele><time>2026-03-27T14:54:42.983Z</time></trkpt><trkpt lat="46.051835" lon="12.48754"><ele>751.0</ele><time>2026-03-27T14:54:43.984Z</time></trkpt><trkpt lat="46.0517217" lon="12.4875367"><ele>751.0</ele><time>2026-03-27T14:54:44.983Z</time></trkpt><trkpt lat="46.05162" lon="12.487515"><ele>751.0</ele><time>2026-03-27T14:54:45.982Z</time></trkpt><trkpt lat="46.0515283" lon="12.4874417"><ele>751.0</ele><time>2026-03-27T14:54:46.984Z</time></trkpt><trkpt lat="46.0514417" lon="12.487355"><ele>751.0</ele><time>2026-03-27T14:54:47.984Z</time></trkpt><trkpt lat="46.0513617" lon="12.48729"><ele>749.4</ele><time>2026-03-27T14:54:48.984Z</time></trkpt><trkpt lat="46.0512883" lon="12.487245"><ele>747.8</ele><time>2026-03-27T14:54:49.983Z</time></trkpt><trkpt lat="46.0511917" lon="12.487335"><ele>746.1999999999999</ele><time>2026-03-27T14:54:51.985Z</time></trkpt><trkpt lat="46.0512317" lon="12.4874783"><ele>744.5999999999999</ele><time>2026-03-27T14:54:52.983Z</time></trkpt><trkpt lat="46.05126" lon="12.4876133"><ele>743.0</ele><time>2026-03-27T14:54:53.982Z</time></trkpt><trkpt lat="46.051275" lon="12.487725"><ele>743.0</ele><time>2026-03-27T14:54:54.984Z</time></trkpt><trkpt lat="46.0513783" lon="12.48785"><ele>743.0</ele><time>2026-03-27T14:54:56.984Z</time></trkpt><trkpt lat="46.0514483" lon="12.4879667"><ele>743.0</ele><time>2026-03-27T14:54:58.982Z</time></trkpt><trkpt lat="46.0513717" lon="12.4880067"><ele>743.0</ele><time>2026-03-27T14:54:59.984Z</time></trkpt><trkpt lat="46.0512783" lon="12.4880383"><ele>743.0</ele><time>2026-03-27T14:55:00.982Z</time></trkpt><trkpt lat="46.0511783" lon="12.48806"><ele>743.0</ele><time>2026-03-27T14:55:01.983Z</time></trkpt><trkpt lat="46.0510833" lon="12.4880583"><ele>743.0</ele><time>2026-03-27T14:55:02.983Z</time></trkpt><trkpt lat="46.051" lon="12.4880267"><ele>743.0</ele><time>2026-03-27T14:55:03.983Z</time></trkpt><trkpt lat="46.050905" lon="12.4879667"><ele>743.0</ele><time>2026-03-27T14:55:04.985Z</time></trkpt><trkpt lat="46.0508167" lon="12.4878917"><ele>743.0</ele><time>2026-03-27T14:55:05.982Z</time></trkpt><trkpt lat="46.0507367" lon="12.487825"><ele>738.4</ele><time>2026-03-27T14:55:06.984Z</time></trkpt><trkpt lat="46.0506517" lon="12.4877783"><ele>733.8</ele><time>2026-03-27T14:55:07.983Z</time></trkpt><trkpt lat="46.0505333" lon="12.4877667"><ele>729.2</ele><time>2026-03-27T14:55:08.983Z</time></trkpt><trkpt lat="46.0504117" lon="12.48777"><ele>724.6</ele><time>2026-03-27T14:55:09.983Z</time></trkpt><trkpt lat="46.0503067" lon="12.4877433"><ele>720.0</ele><time>2026-03-27T14:55:10.983Z</time></trkpt><trkpt lat="46.0502167" lon="12.48768"><ele>720.0</ele><time>2026-03-27T14:55:11.982Z</time></trkpt><trkpt lat="46.050135" lon="12.4875767"><ele>720.0</ele><time>2026-03-27T14:55:12.982Z</time></trkpt><trkpt lat="46.0500567" lon="12.4874367"><ele>720.0</ele><time>2026-03-27T14:55:13.982Z</time></trkpt><trkpt lat="46.0499733" lon="12.4873117"><ele>720.0</ele><time>2026-03-27T14:55:14.983Z</time></trkpt><trkpt lat="46.0498717" lon="12.487215"><ele>716.0</ele><time>2026-03-27T14:55:15.983Z</time></trkpt><trkpt lat="46.04976" lon="12.4871317"><ele>712.0</ele><time>2026-03-27T14:55:16.982Z</time></trkpt><trkpt lat="46.04965" lon="12.48705"><ele>708.0</ele><time>2026-03-27T14:55:17.985Z</time></trkpt><trkpt lat="46.049545" lon="12.4869317"><ele>704.0</ele><time>2026-03-27T14:55:18.982Z</time></trkpt><trkpt lat="46.0494417" lon="12.48679"><ele>704.0</ele><time>2026-03-27T14:55:19.982Z</time></trkpt><trkpt lat="46.0493467" lon="12.4866133"><ele>704.0</ele><time>2026-03-27T14:55:20.985Z</time></trkpt><trkpt lat="46.0492683" lon="12.4864283"><ele>704.0</ele><time>2026-03-27T14:55:21.983Z</time></trkpt><trkpt lat="46.0491967" lon="12.4862633"><ele>704.0</ele><time>2026-03-27T14:55:22.983Z</time></trkpt><trkpt lat="46.0491133" lon="12.4861267"><ele>698.0</ele><time>2026-03-27T14:55:23.983Z</time></trkpt><trkpt lat="46.04903" lon="12.486"><ele>692.0</ele><time>2026-03-27T14:55:24.982Z</time></trkpt><trkpt lat="46.0489633" lon="12.48587"><ele>686.0</ele><time>2026-03-27T14:55:25.983Z</time></trkpt><trkpt lat="46.04892" lon="12.4857183"><ele>680.0</ele><time>2026-03-27T14:55:26.984Z</time></trkpt><trkpt lat="46.048895" lon="12.4855583"><ele>683.6</ele><time>2026-03-27T14:55:27.982Z</time></trkpt><trkpt lat="46.0488667" lon="12.4854267"><ele>687.2</ele><time>2026-03-27T14:55:28.982Z</time></trkpt><trkpt lat="46.048815" lon="12.48532"><ele>690.8</ele><time>2026-03-27T14:55:29.983Z</time></trkpt><trkpt lat="46.0487467" lon="12.4852333"><ele>694.4</ele><time>2026-03-27T14:55:30.982Z</time></trkpt><trkpt lat="46.0486567" lon="12.4851567"><ele>698.0</ele><time>2026-03-27T14:55:31.984Z</time></trkpt><trkpt lat="46.0485383" lon="12.4850733"><ele>698.0</ele><time>2026-03-27T14:55:32.982Z</time></trkpt><trkpt lat="46.0484233" lon="12.484995"><ele>698.0</ele><time>2026-03-27T14:55:33.983Z</time></trkpt><trkpt lat="46.048305" lon="12.4849517"><ele>698.0</ele><time>2026-03-27T14:55:34.982Z</time></trkpt><trkpt lat="46.048185" lon="12.48493"><ele>698.0</ele><time>2026-03-27T14:55:35.982Z</time></trkpt><trkpt lat="46.0480683" lon="12.484865"><ele>692.8</ele><time>2026-03-27T14:55:36.984Z</time></trkpt><trkpt lat="46.0479583" lon="12.4847867"><ele>687.5999999999999</ele><time>2026-03-27T14:55:37.982Z</time></trkpt><trkpt lat="46.047875" lon="12.4847183"><ele>682.4000000000001</ele><time>2026-03-27T14:55:38.983Z</time></trkpt><trkpt lat="46.04782" lon="12.4846517"><ele>677.2</ele><time>2026-03-27T14:55:39.984Z</time></trkpt><trkpt lat="46.047795" lon="12.4844733"><ele>672.0</ele><time>2026-03-27T14:55:41.982Z</time></trkpt><trkpt lat="46.0478067" lon="12.484355"><ele>672.0</ele><time>2026-03-27T14:55:42.982Z</time></trkpt><trkpt lat="46.0478067" lon="12.4841933"><ele>672.0</ele><time>2026-03-27T14:55:43.983Z</time></trkpt><trkpt lat="46.0478" lon="12.484005"><ele>672.0</ele><time>2026-03-27T14:55:44.983Z</time></trkpt><trkpt lat="46.0478033" lon="12.4837917"><ele>672.0</ele><time>2026-03-27T14:55:45.982Z</time></trkpt><trkpt lat="46.0478133" lon="12.4835683"><ele>669.75</ele><time>2026-03-27T14:55:46.984Z</time></trkpt><trkpt lat="46.0478367" lon="12.4833567"><ele>667.5</ele><time>2026-03-27T14:55:47.984Z</time></trkpt><trkpt lat="46.047885" lon="12.4831867"><ele>665.25</ele><time>2026-03-27T14:55:48.982Z</time></trkpt><trkpt lat="46.047945" lon="12.4830583"><ele>663.0</ele><time>2026-03-27T14:55:49.984Z</time></trkpt><trkpt lat="46.0480333" lon="12.482955"><ele>664.75</ele><time>2026-03-27T14:55:50.984Z</time></trkpt><trkpt lat="46.0481417" lon="12.4828383"><ele>666.5</ele><time>2026-03-27T14:55:51.983Z</time></trkpt><trkpt lat="46.048265" lon="12.482715"><ele>668.25</ele><time>2026-03-27T14:55:52.982Z</time></trkpt><trkpt lat="46.0483917" lon="12.4825817"><ele>670.0</ele><time>2026-03-27T14:55:53.983Z</time></trkpt><trkpt lat="46.0485067" lon="12.48244"><ele>670.0</ele><time>2026-03-27T14:55:54.986Z</time></trkpt><trkpt lat="46.0486083" lon="12.48228"><ele>670.0</ele><time>2026-03-27T14:55:55.983Z</time></trkpt><trkpt lat="46.0486833" lon="12.48211"><ele>670.0</ele><time>2026-03-27T14:55:56.986Z</time></trkpt><trkpt lat="46.0487533" lon="12.481965"><ele>670.0</ele><time>2026-03-27T14:55:57.983Z</time></trkpt><trkpt lat="46.048855" lon="12.48184"><ele>662.5</ele><time>2026-03-27T14:55:58.983Z</time></trkpt><trkpt lat="46.0489567" lon="12.4817117"><ele>655.0</ele><time>2026-03-27T14:55:59.982Z</time></trkpt><trkpt lat="46.049035" lon="12.4815783"><ele>647.5</ele><time>2026-03-27T14:56:00.982Z</time></trkpt><trkpt lat="46.0490783" lon="12.4814283"><ele>640.0</ele><time>2026-03-27T14:56:01.983Z</time></trkpt><trkpt lat="46.049075" lon="12.4812617"><ele>633.6666666666667</ele><time>2026-03-27T14:56:02.983Z</time></trkpt><trkpt lat="46.0490467" lon="12.481065"><ele>627.3333333333334</ele><time>2026-03-27T14:56:03.982Z</time></trkpt><trkpt lat="46.0490067" lon="12.48084"><ele>621.0</ele><time>2026-03-27T14:56:04.984Z</time></trkpt><trkpt lat="46.0489667" lon="12.4805933"><ele>619.25</ele><time>2026-03-27T14:56:05.983Z</time></trkpt><trkpt lat="46.0489267" lon="12.4803483"><ele>617.5</ele><time>2026-03-27T14:56:06.983Z</time></trkpt><trkpt lat="46.04889" lon="12.4801367"><ele>615.75</ele><time>2026-03-27T14:56:07.982Z</time></trkpt><trkpt lat="46.04887" lon="12.4799733"><ele>614.0</ele><time>2026-03-27T14:56:08.982Z</time></trkpt><trkpt lat="46.0488733" lon="12.4798233"><ele>614.0</ele><time>2026-03-27T14:56:09.982Z</time></trkpt><trkpt lat="46.0488933" lon="12.4796417"><ele>614.0</ele><time>2026-03-27T14:56:10.983Z</time></trkpt><trkpt lat="46.0489167" lon="12.4794333"><ele>614.0</ele><time>2026-03-27T14:56:11.982Z</time></trkpt><trkpt lat="46.048935" lon="12.4792033"><ele>614.0</ele><time>2026-03-27T14:56:12.984Z</time></trkpt><trkpt lat="46.048945" lon="12.4789533"><ele>611.75</ele><time>2026-03-27T14:56:13.982Z</time></trkpt><trkpt lat="46.0489483" lon="12.4787083"><ele>609.5</ele><time>2026-03-27T14:56:14.982Z</time></trkpt><trkpt lat="46.0489783" lon="12.4784933"><ele>607.25</ele><time>2026-03-27T14:56:15.982Z</time></trkpt><trkpt lat="46.0490167" lon="12.4783267"><ele>605.0</ele><time>2026-03-27T14:56:16.982Z</time></trkpt><trkpt lat="46.0490483" lon="12.4782183"><ele>605.0</ele><time>2026-03-27T14:56:17.983Z</time></trkpt><trkpt lat="46.049045" lon="12.4781"><ele>605.0</ele><time>2026-03-27T14:56:19.983Z</time></trkpt><trkpt lat="46.048965" lon="12.478245"><ele>605.0</ele><time>2026-03-27T14:56:22.982Z</time></trkpt><trkpt lat="46.048925" lon="12.47839"><ele>605.0</ele><time>2026-03-27T14:56:23.982Z</time></trkpt><trkpt lat="46.0488767" lon="12.47856"><ele>605.0</ele><time>2026-03-27T14:56:24.984Z</time></trkpt><trkpt lat="46.048825" lon="12.478755"><ele>605.6666666666666</ele><time>2026-03-27T14:56:25.983Z</time></trkpt><trkpt lat="46.0487633" lon="12.47896"><ele>606.3333333333334</ele><time>2026-03-27T14:56:26.982Z</time></trkpt><trkpt lat="46.0486967" lon="12.479165"><ele>607.0</ele><time>2026-03-27T14:56:27.983Z</time></trkpt><trkpt lat="46.0486183" lon="12.47937"><ele>607.0</ele><time>2026-03-27T14:56:28.983Z</time></trkpt><trkpt lat="46.048545" lon="12.4795467"><ele>607.0</ele><time>2026-03-27T14:56:29.983Z</time></trkpt><trkpt lat="46.0484883" lon="12.4796917"><ele>607.0</ele><time>2026-03-27T14:56:30.983Z</time></trkpt><trkpt lat="46.04845" lon="12.47984"><ele>607.0</ele><time>2026-03-27T14:56:31.984Z</time></trkpt><trkpt lat="46.048425" lon="12.4800267"><ele>609.3333333333334</ele><time>2026-03-27T14:56:32.983Z</time></trkpt><trkpt lat="46.0484" lon="12.480235"><ele>611.6666666666666</ele><time>2026-03-27T14:56:33.982Z</time></trkpt><trkpt lat="46.0483667" lon="12.480455"><ele>614.0</ele><time>2026-03-27T14:56:34.982Z</time></trkpt><trkpt lat="46.0483283" lon="12.4806633"><ele>605.25</ele><time>2026-03-27T14:56:35.982Z</time></trkpt><trkpt lat="46.0482883" lon="12.480835"><ele>596.5</ele><time>2026-03-27T14:56:36.982Z</time></trkpt><trkpt lat="46.048235" lon="12.4809683"><ele>587.75</ele><time>2026-03-27T14:56:37.981Z</time></trkpt><trkpt lat="46.04816" lon="12.4810833"><ele>579.0</ele><time>2026-03-27T14:56:38.984Z</time></trkpt><trkpt lat="46.048055" lon="12.481195"><ele>586.25</ele><time>2026-03-27T14:56:39.982Z</time></trkpt><trkpt lat="46.04793" lon="12.48131"><ele>593.5</ele><time>2026-03-27T14:56:40.983Z</time></trkpt><trkpt lat="46.0477967" lon="12.4814067"><ele>600.75</ele><time>2026-03-27T14:56:41.982Z</time></trkpt><trkpt lat="46.04766" lon="12.4814783"><ele>608.0</ele><time>2026-03-27T14:56:42.982Z</time></trkpt><trkpt lat="46.0475117" lon="12.4815367"><ele>594.6666666666666</ele><time>2026-03-27T14:56:43.982Z</time></trkpt><trkpt lat="46.0473633" lon="12.481595"><ele>581.3333333333334</ele><time>2026-03-27T14:56:44.984Z</time></trkpt><trkpt lat="46.0472183" lon="12.481665"><ele>568.0</ele><time>2026-03-27T14:56:45.984Z</time></trkpt><trkpt lat="46.047075" lon="12.4817533"><ele>568.0</ele><time>2026-03-27T14:56:46.985Z</time></trkpt><trkpt lat="46.046935" lon="12.4818683"><ele>568.0</ele><time>2026-03-27T14:56:47.982Z</time></trkpt><trkpt lat="46.0468017" lon="12.4819867"><ele>568.0</ele><time>2026-03-27T14:56:48.983Z</time></trkpt><trkpt lat="46.0466717" lon="12.4820917"><ele>564.5</ele><time>2026-03-27T14:56:49.986Z</time></trkpt><trkpt lat="46.0465533" lon="12.4821767"><ele>561.0</ele><time>2026-03-27T14:56:50.986Z</time></trkpt><trkpt lat="46.04644" lon="12.48227"><ele>557.5</ele><time>2026-03-27T14:56:51.983Z</time></trkpt><trkpt lat="46.046325" lon="12.4824033"><ele>554.0</ele><time>2026-03-27T14:56:52.983Z</time></trkpt><trkpt lat="46.0461983" lon="12.4825433"><ele>554.0</ele><time>2026-03-27T14:56:53.984Z</time></trkpt><trkpt lat="46.046065" lon="12.48269"><ele>554.0</ele><time>2026-03-27T14:56:54.983Z</time></trkpt><trkpt lat="46.0459433" lon="12.4828433"><ele>554.0</ele><time>2026-03-27T14:56:55.984Z</time></trkpt><trkpt lat="46.0458283" lon="12.48297"><ele>548.4</ele><time>2026-03-27T14:56:56.984Z</time></trkpt><trkpt lat="46.04572" lon="12.4830667"><ele>542.8</ele><time>2026-03-27T14:56:57.983Z</time></trkpt><trkpt lat="46.0456267" lon="12.4831517"><ele>537.2</ele><time>2026-03-27T14:56:58.983Z</time></trkpt><trkpt lat="46.0455667" lon="12.4832417"><ele>531.6</ele><time>2026-03-27T14:56:59.983Z</time></trkpt><trkpt lat="46.0455317" lon="12.483335"><ele>526.0</ele><time>2026-03-27T14:57:00.984Z</time></trkpt><trkpt lat="46.0455183" lon="12.4834667"><ele>526.0</ele><time>2026-03-27T14:57:01.983Z</time></trkpt><trkpt lat="46.0455283" lon="12.4836417"><ele>526.0</ele><time>2026-03-27T14:57:02.983Z</time></trkpt><trkpt lat="46.0455417" lon="12.483855"><ele>526.0</ele><time>2026-03-27T14:57:03.982Z</time></trkpt><trkpt lat="46.045555" lon="12.4840833"><ele>526.0</ele><time>2026-03-27T14:57:04.982Z</time></trkpt><trkpt lat="46.04555" lon="12.4843267"><ele>523.3333333333334</ele><time>2026-03-27T14:57:05.983Z</time></trkpt><trkpt lat="46.0455217" lon="12.4845717"><ele>520.6666666666666</ele><time>2026-03-27T14:57:06.983Z</time></trkpt><trkpt lat="46.04549" lon="12.484805"><ele>518.0</ele><time>2026-03-27T14:57:07.982Z</time></trkpt><trkpt lat="46.04547" lon="12.48503"><ele>518.0</ele><time>2026-03-27T14:57:08.983Z</time></trkpt><trkpt lat="46.0454583" lon="12.4852433"><ele>518.0</ele><time>2026-03-27T14:57:09.983Z</time></trkpt><trkpt lat="46.045455" lon="12.485455"><ele>518.0</ele><time>2026-03-27T14:57:10.983Z</time></trkpt><trkpt lat="46.0454733" lon="12.48567"><ele>518.0</ele><time>2026-03-27T14:57:11.983Z</time></trkpt><trkpt lat="46.045495" lon="12.4859017"><ele>516.3333333333333</ele><time>2026-03-27T14:57:12.984Z</time></trkpt><trkpt lat="46.0455183" lon="12.48613"><ele>514.6666666666666</ele><time>2026-03-27T14:57:13.985Z</time></trkpt><trkpt lat="46.0455433" lon="12.4863433"><ele>513.0</ele><time>2026-03-27T14:57:14.983Z</time></trkpt><trkpt lat="46.0455817" lon="12.4865533"><ele>507.66666666666663</ele><time>2026-03-27T14:57:15.982Z</time></trkpt><trkpt lat="46.0456333" lon="12.486785"><ele>502.3333333333333</ele><time>2026-03-27T14:57:16.983Z</time></trkpt><trkpt lat="46.0456983" lon="12.4870233"><ele>497.0</ele><time>2026-03-27T14:57:17.983Z</time></trkpt><trkpt lat="46.045775" lon="12.48727"><ele>498.5</ele><time>2026-03-27T14:57:18.982Z</time></trkpt><trkpt lat="46.0458517" lon="12.4874983"><ele>500.0</ele><time>2026-03-27T14:57:19.982Z</time></trkpt><trkpt lat="46.04592" lon="12.48768"><ele>501.5</ele><time>2026-03-27T14:57:20.984Z</time></trkpt><trkpt lat="46.0459983" lon="12.4878267"><ele>503.0</ele><time>2026-03-27T14:57:21.985Z</time></trkpt><trkpt lat="46.0460867" lon="12.4879567"><ele>503.0</ele><time>2026-03-27T14:57:22.983Z</time></trkpt><trkpt lat="46.0461817" lon="12.488085"><ele>503.0</ele><time>2026-03-27T14:57:23.983Z</time></trkpt><trkpt lat="46.0462683" lon="12.4882367"><ele>503.0</ele><time>2026-03-27T14:57:24.983Z</time></trkpt><trkpt lat="46.0463467" lon="12.4883983"><ele>503.0</ele><time>2026-03-27T14:57:25.982Z</time></trkpt><trkpt lat="46.04641" lon="12.4885967"><ele>505.66666666666663</ele><time>2026-03-27T14:57:26.983Z</time></trkpt><trkpt lat="46.0464817" lon="12.48883"><ele>508.33333333333337</ele><time>2026-03-27T14:57:27.983Z</time></trkpt><trkpt lat="46.0465633" lon="12.4890617"><ele>511.0</ele><time>2026-03-27T14:57:28.984Z</time></trkpt><trkpt lat="46.046655" lon="12.4892767"><ele>511.0</ele><time>2026-03-27T14:57:29.982Z</time></trkpt><trkpt lat="46.04676" lon="12.4894983"><ele>511.0</ele><time>2026-03-27T14:57:30.982Z</time></trkpt><trkpt lat="46.0468667" lon="12.4897333"><ele>511.0</ele><time>2026-03-27T14:57:31.982Z</time></trkpt><trkpt lat="46.0469717" lon="12.4899683"><ele>504.0</ele><time>2026-03-27T14:57:32.983Z</time></trkpt><trkpt lat="46.0470733" lon="12.4901783"><ele>497.0</ele><time>2026-03-27T14:57:33.983Z</time></trkpt><trkpt lat="46.0471617" lon="12.4903667"><ele>490.0</ele><time>2026-03-27T14:57:34.982Z</time></trkpt><trkpt lat="46.0472367" lon="12.4905533"><ele>485.75</ele><time>2026-03-27T14:57:35.982Z</time></trkpt><trkpt lat="46.0473" lon="12.490745"><ele>481.5</ele><time>2026-03-27T14:57:36.982Z</time></trkpt><trkpt lat="46.04735" lon="12.4909383"><ele>477.25</ele><time>2026-03-27T14:57:37.983Z</time></trkpt><trkpt lat="46.0473983" lon="12.49114"><ele>473.0</ele><time>2026-03-27T14:57:38.983Z</time></trkpt><trkpt lat="46.0474483" lon="12.4913367"><ele>476.5</ele><time>2026-03-27T14:57:39.982Z</time></trkpt><trkpt lat="46.0475017" lon="12.4915183"><ele>480.0</ele><time>2026-03-27T14:57:40.984Z</time></trkpt><trkpt lat="46.0475483" lon="12.49171"><ele>483.5</ele><time>2026-03-27T14:57:41.982Z</time></trkpt><trkpt lat="46.047595" lon="12.4918767"><ele>487.0</ele><time>2026-03-27T14:57:42.983Z</time></trkpt><trkpt lat="46.0476317" lon="12.4920267"><ele>483.20000000000005</ele><time>2026-03-27T14:57:43.983Z</time></trkpt><trkpt lat="46.0476583" lon="12.492145"><ele>479.40000000000003</ele><time>2026-03-27T14:57:44.982Z</time></trkpt><trkpt lat="46.047685" lon="12.492235"><ele>475.59999999999997</ele><time>2026-03-27T14:57:45.982Z</time></trkpt><trkpt lat="46.0475833" lon="12.4922283"><ele>471.79999999999995</ele><time>2026-03-27T14:57:48.983Z</time></trkpt><trkpt lat="46.04752" lon="12.4921317"><ele>468.0</ele><time>2026-03-27T14:57:49.982Z</time></trkpt><trkpt lat="46.0474483" lon="12.4920233"><ele>465.75</ele><time>2026-03-27T14:57:50.983Z</time></trkpt><trkpt lat="46.0473467" lon="12.4919617"><ele>463.5</ele><time>2026-03-27T14:57:51.983Z</time></trkpt><trkpt lat="46.047235" lon="12.4919233"><ele>461.25</ele><time>2026-03-27T14:57:52.984Z</time></trkpt><trkpt lat="46.0471033" lon="12.4918817"><ele>459.0</ele><time>2026-03-27T14:57:53.984Z</time></trkpt><trkpt lat="46.046975" lon="12.49183"><ele>459.0</ele><time>2026-03-27T14:57:54.982Z</time></trkpt><trkpt lat="46.0468633" lon="12.4917717"><ele>459.0</ele><time>2026-03-27T14:57:55.983Z</time></trkpt><trkpt lat="46.046775" lon="12.4917183"><ele>459.0</ele><time>2026-03-27T14:57:56.987Z</time></trkpt><trkpt lat="46.0467067" lon="12.4916717"><ele>459.0</ele><time>2026-03-27T14:57:57.982Z</time></trkpt><trkpt lat="46.0466467" lon="12.491745"><ele>459.0</ele><time>2026-03-27T14:57:59.983Z</time></trkpt><trkpt lat="46.0466733" lon="12.4919267"><ele>459.0</ele><time>2026-03-27T14:58:01.982Z</time></trkpt><trkpt lat="46.0466917" lon="12.4920167"><ele>459.0</ele><time>2026-03-27T14:58:02.984Z</time></trkpt><trkpt lat="46.0466733" lon="12.4921283"><ele>459.0</ele><time>2026-03-27T14:58:04.983Z</time></trkpt><trkpt lat="46.0465983" lon="12.4920967"><ele>459.0</ele><time>2026-03-27T14:58:06.986Z</time></trkpt><trkpt lat="46.04649" lon="12.4920017"><ele>459.0</ele><time>2026-03-27T14:58:08.982Z</time></trkpt><trkpt lat="46.0464267" lon="12.4919517"><ele>459.0</ele><time>2026-03-27T14:58:09.982Z</time></trkpt><trkpt lat="46.046355" lon="12.4919"><ele>456.8333333333333</ele><time>2026-03-27T14:58:10.982Z</time></trkpt><trkpt lat="46.046285" lon="12.4918467"><ele>454.66666666666663</ele><time>2026-03-27T14:58:11.982Z</time></trkpt><trkpt lat="46.0462117" lon="12.4917883"><ele>452.5</ele><time>2026-03-27T14:58:12.983Z</time></trkpt><trkpt lat="46.0461417" lon="12.491725"><ele>450.3333333333333</ele><time>2026-03-27T14:58:13.982Z</time></trkpt><trkpt lat="46.046075" lon="12.491665"><ele>448.16666666666663</ele><time>2026-03-27T14:58:14.983Z</time></trkpt><trkpt lat="46.046005" lon="12.4916117"><ele>446.0</ele><time>2026-03-27T14:58:15.982Z</time></trkpt><trkpt lat="46.04594" lon="12.4915533"><ele>445.99999999999994</ele><time>2026-03-27T14:58:16.982Z</time></trkpt><trkpt lat="46.0458817" lon="12.4914967"><ele>446.0</ele><time>2026-03-27T14:58:17.983Z</time></trkpt><trkpt lat="46.04582" lon="12.4914417"><ele>446.0</ele><time>2026-03-27T14:58:18.983Z</time></trkpt><trkpt lat="46.04575" lon="12.4913817"><ele>446.0</ele><time>2026-03-27T14:58:19.986Z</time></trkpt><trkpt lat="46.0456817" lon="12.491315"><ele>445.99999999999994</ele><time>2026-03-27T14:58:20.983Z</time></trkpt><trkpt lat="46.0456267" lon="12.4912183"><ele>446.0</ele><time>2026-03-27T14:58:21.982Z</time></trkpt><trkpt lat="46.0455833" lon="12.4911017"><ele>444.66666666666663</ele><time>2026-03-27T14:58:22.983Z</time></trkpt><trkpt lat="46.045545" lon="12.4909817"><ele>443.3333333333333</ele><time>2026-03-27T14:58:23.982Z</time></trkpt><trkpt lat="46.0455033" lon="12.4908683"><ele>442.0</ele><time>2026-03-27T14:58:24.982Z</time></trkpt><trkpt lat="46.045475" lon="12.4907683"><ele>440.66666666666663</ele><time>2026-03-27T14:58:25.983Z</time></trkpt><trkpt lat="46.045445" lon="12.4906767"><ele>439.3333333333333</ele><time>2026-03-27T14:58:26.983Z</time></trkpt><trkpt lat="46.045395" lon="12.4905283"><ele>438.0</ele><time>2026-03-27T14:58:28.982Z</time></trkpt><trkpt lat="46.0453517" lon="12.490415"><ele>438.0</ele><time>2026-03-27T14:58:30.982Z</time></trkpt><trkpt lat="46.0453383" lon="12.4903"><ele>438.0</ele><time>2026-03-27T14:58:32.982Z</time></trkpt><trkpt lat="46.045325" lon="12.4901733"><ele>438.0</ele><time>2026-03-27T14:58:34.982Z</time></trkpt><trkpt lat="46.04532" lon="12.4900517"><ele>438.0</ele><time>2026-03-27T14:58:36.982Z</time></trkpt><trkpt lat="46.0453033" lon="12.4899383"><ele>438.0</ele><time>2026-03-27T14:58:38.983Z</time></trkpt><trkpt lat="46.0452917" lon="12.48982"><ele>438.0</ele><time>2026-03-27T14:58:40.982Z</time></trkpt><trkpt lat="46.0452733" lon="12.48964"><ele>438.59999999999997</ele><time>2026-03-27T14:58:42.982Z</time></trkpt><trkpt lat="46.0452417" lon="12.489525"><ele>439.19999999999993</ele><time>2026-03-27T14:58:43.983Z</time></trkpt><trkpt lat="46.0452017" lon="12.48941"><ele>439.8</ele><time>2026-03-27T14:58:44.984Z</time></trkpt><trkpt lat="46.045165" lon="12.4892917"><ele>440.4</ele><time>2026-03-27T14:58:45.983Z</time></trkpt><trkpt lat="46.04514" lon="12.4891683"><ele>441.0</ele><time>2026-03-27T14:58:46.982Z</time></trkpt><trkpt lat="46.04512" lon="12.48903"><ele>441.0</ele><time>2026-03-27T14:58:47.982Z</time></trkpt><trkpt lat="46.0450967" lon="12.48887"><ele>441.0</ele><time>2026-03-27T14:58:48.983Z</time></trkpt><trkpt lat="46.045055" lon="12.4886983"><ele>441.0</ele><time>2026-03-27T14:58:49.982Z</time></trkpt><trkpt lat="46.0449967" lon="12.4885117"><ele>441.0</ele><time>2026-03-27T14:58:50.984Z</time></trkpt><trkpt lat="46.044925" lon="12.48832"><ele>437.25</ele><time>2026-03-27T14:58:51.982Z</time></trkpt><trkpt lat="46.0448533" lon="12.4881383"><ele>433.5</ele><time>2026-03-27T14:58:52.983Z</time></trkpt><trkpt lat="46.0447867" lon="12.487975"><ele>429.75</ele><time>2026-03-27T14:58:53.982Z</time></trkpt><trkpt lat="46.0447283" lon="12.487815"><ele>426.0</ele><time>2026-03-27T14:58:54.983Z</time></trkpt><trkpt lat="46.0446683" lon="12.487655"><ele>426.0</ele><time>2026-03-27T14:58:55.982Z</time></trkpt><trkpt lat="46.0446067" lon="12.4874917"><ele>426.0</ele><time>2026-03-27T14:58:56.983Z</time></trkpt><trkpt lat="46.0445483" lon="12.4873217"><ele>426.0</ele><time>2026-03-27T14:58:57.982Z</time></trkpt><trkpt lat="46.0444917" lon="12.48714"><ele>426.0</ele><time>2026-03-27T14:58:58.984Z</time></trkpt><trkpt lat="46.0444283" lon="12.4869533"><ele>430.25</ele><time>2026-03-27T14:58:59.983Z</time></trkpt><trkpt lat="46.0443667" lon="12.4867683"><ele>434.5</ele><time>2026-03-27T14:59:00.983Z</time></trkpt><trkpt lat="46.0442967" lon="12.486595"><ele>438.75</ele><time>2026-03-27T14:59:01.984Z</time></trkpt><trkpt lat="46.044215" lon="12.4864317"><ele>443.0</ele><time>2026-03-27T14:59:02.983Z</time></trkpt><trkpt lat="46.044125" lon="12.4862783"><ele>434.25</ele><time>2026-03-27T14:59:03.982Z</time></trkpt><trkpt lat="46.0440333" lon="12.4861283"><ele>425.5</ele><time>2026-03-27T14:59:04.983Z</time></trkpt><trkpt lat="46.0439567" lon="12.4859733"><ele>416.75</ele><time>2026-03-27T14:59:05.982Z</time></trkpt><trkpt lat="46.0439067" lon="12.4858017"><ele>408.0</ele><time>2026-03-27T14:59:06.982Z</time></trkpt><trkpt lat="46.0438867" lon="12.485615"><ele>407.75</ele><time>2026-03-27T14:59:07.984Z</time></trkpt><trkpt lat="46.0439" lon="12.485425"><ele>407.5</ele><time>2026-03-27T14:59:08.982Z</time></trkpt><trkpt lat="46.0439333" lon="12.4852383"><ele>407.25</ele><time>2026-03-27T14:59:09.982Z</time></trkpt><trkpt lat="46.04397" lon="12.4850433"><ele>407.0</ele><time>2026-03-27T14:59:10.983Z</time></trkpt><trkpt lat="46.0439883" lon="12.484845"><ele>407.0</ele><time>2026-03-27T14:59:12.065Z</time></trkpt><trkpt lat="46.0439833" lon="12.484635"><ele>407.0</ele><time>2026-03-27T14:59:12.983Z</time></trkpt><trkpt lat="46.0439583" lon="12.4844217"><ele>407.0</ele><time>2026-03-27T14:59:13.982Z</time></trkpt><trkpt lat="46.0439067" lon="12.4842167"><ele>407.0</ele><time>2026-03-27T14:59:14.983Z</time></trkpt><trkpt lat="46.0438383" lon="12.484015"><ele>409.0</ele><time>2026-03-27T14:59:15.984Z</time></trkpt><trkpt lat="46.0437567" lon="12.4838183"><ele>411.0</ele><time>2026-03-27T14:59:16.983Z</time></trkpt><trkpt lat="46.04368" lon="12.4836317"><ele>413.0</ele><time>2026-03-27T14:59:17.984Z</time></trkpt><trkpt lat="46.043605" lon="12.4834517"><ele>415.66666666666663</ele><time>2026-03-27T14:59:18.982Z</time></trkpt><trkpt lat="46.0435433" lon="12.48326"><ele>418.33333333333337</ele><time>2026-03-27T14:59:19.983Z</time></trkpt><trkpt lat="46.043495" lon="12.4830517"><ele>421.0</ele><time>2026-03-27T14:59:20.983Z</time></trkpt><trkpt lat="46.0434767" lon="12.48282"><ele>421.33333333333337</ele><time>2026-03-27T14:59:21.982Z</time></trkpt><trkpt lat="46.043475" lon="12.4825767"><ele>421.66666666666663</ele><time>2026-03-27T14:59:22.984Z</time></trkpt><trkpt lat="46.0434883" lon="12.4823417"><ele>422.0</ele><time>2026-03-27T14:59:23.982Z</time></trkpt><trkpt lat="46.0435317" lon="12.482115"><ele>418.3333333333333</ele><time>2026-03-27T14:59:24.982Z</time></trkpt><trkpt lat="46.0436047" lon="12.4818877"><ele>414.66666666666663</ele><time>2026-03-27T14:59:25.982Z</time></trkpt><trkpt lat="46.0436912" lon="12.4816655"><ele>411.0</ele><time>2026-03-27T14:59:26.982Z</time></trkpt><trkpt lat="46.0437889" lon="12.4814441"><ele>406.33333333333337</ele><time>2026-03-27T14:59:27.982Z</time></trkpt><trkpt lat="46.043905" lon="12.4812253"><ele>401.6666666666667</ele><time>2026-03-27T14:59:28.982Z</time></trkpt><trkpt lat="46.0440383" lon="12.4810016"><ele>397.0</ele><time>2026-03-27T14:59:29.982Z</time></trkpt><trkpt lat="46.0441785" lon="12.480781"><ele>400.6666666666667</ele><time>2026-03-27T14:59:30.983Z</time></trkpt><trkpt lat="46.0443187" lon="12.4805904"><ele>404.33333333333337</ele><time>2026-03-27T14:59:31.982Z</time></trkpt><trkpt lat="46.0444323" lon="12.4804401"><ele>408.0</ele><time>2026-03-27T14:59:32.984Z</time></trkpt><trkpt lat="46.0445238" lon="12.4802946"><ele>408.0</ele><time>2026-03-27T14:59:33.982Z</time></trkpt><trkpt lat="46.0445822" lon="12.4801225"><ele>408.0</ele><time>2026-03-27T14:59:34.984Z</time></trkpt><trkpt lat="46.0445971" lon="12.4799252"><ele>408.0</ele><time>2026-03-27T14:59:35.983Z</time></trkpt><trkpt lat="46.0445703" lon="12.4797164"><ele>408.0</ele><time>2026-03-27T14:59:36.982Z</time></trkpt><trkpt lat="46.0445005" lon="12.4795004"><ele>408.33333333333337</ele><time>2026-03-27T14:59:37.983Z</time></trkpt><trkpt lat="46.0444236" lon="12.4792551"><ele>408.6666666666667</ele><time>2026-03-27T14:59:38.984Z</time></trkpt><trkpt lat="46.0443657" lon="12.4789808"><ele>409.0</ele><time>2026-03-27T14:59:39.982Z</time></trkpt><trkpt lat="46.0443219" lon="12.4787044"><ele>409.0</ele><time>2026-03-27T14:59:40.982Z</time></trkpt><trkpt lat="46.0442408" lon="12.4784504"><ele>409.0</ele><time>2026-03-27T14:59:41.983Z</time></trkpt><trkpt lat="46.0441159" lon="12.4782164"><ele>409.0</ele><time>2026-03-27T14:59:42.983Z</time></trkpt><trkpt lat="46.0439796" lon="12.4779763"><ele>401.6666666666667</ele><time>2026-03-27T14:59:43.982Z</time></trkpt><trkpt lat="46.0438862" lon="12.4777274"><ele>394.33333333333337</ele><time>2026-03-27T14:59:44.983Z</time></trkpt><trkpt lat="46.0438179" lon="12.477508"><ele>387.0</ele><time>2026-03-27T14:59:45.984Z</time></trkpt><trkpt lat="46.0437748" lon="12.477337"><ele>387.0</ele><time>2026-03-27T14:59:46.982Z</time></trkpt><trkpt lat="46.0437317" lon="12.4772134"><ele>387.0</ele><time>2026-03-27T14:59:47.984Z</time></trkpt><trkpt lat="46.043675" lon="12.4771452"><ele>387.0</ele><time>2026-03-27T14:59:48.982Z</time></trkpt><trkpt lat="46.0436055" lon="12.4771564"><ele>387.0</ele><time>2026-03-27T14:59:49.983Z</time></trkpt><trkpt lat="46.0435472" lon="12.4772367"><ele>387.0</ele><time>2026-03-27T14:59:50.983Z</time></trkpt><trkpt lat="46.043525" lon="12.4773654"><ele>387.0</ele><time>2026-03-27T14:59:51.983Z</time></trkpt><trkpt lat="46.0435444" lon="12.4775437"><ele>387.0</ele><time>2026-03-27T14:59:52.982Z</time></trkpt><trkpt lat="46.0436006" lon="12.4777361"><ele>387.0</ele><time>2026-03-27T14:59:53.982Z</time></trkpt><trkpt lat="46.0436628" lon="12.4779247"><ele>387.0</ele><time>2026-03-27T14:59:54.984Z</time></trkpt><trkpt lat="46.0437045" lon="12.4780888"><ele>387.0</ele><time>2026-03-27T14:59:55.983Z</time></trkpt><trkpt lat="46.0437248" lon="12.4782274"><ele>384.8</ele><time>2026-03-27T14:59:56.982Z</time></trkpt><trkpt lat="46.043713" lon="12.4783385"><ele>382.6</ele><time>2026-03-27T14:59:57.984Z</time></trkpt><trkpt lat="46.0436333" lon="12.4783533"><ele>380.40000000000003</ele><time>2026-03-27T14:59:58.982Z</time></trkpt><trkpt lat="46.043565" lon="12.478325"><ele>378.20000000000005</ele><time>2026-03-27T14:59:59.983Z</time></trkpt><trkpt lat="46.0434883" lon="12.4781867"><ele>376.0</ele><time>2026-03-27T15:00:00.983Z</time></trkpt><trkpt lat="46.0434183" lon="12.4780767"><ele>376.0</ele><time>2026-03-27T15:00:01.982Z</time></trkpt><trkpt lat="46.043345" lon="12.477975"><ele>376.0</ele><time>2026-03-27T15:00:02.983Z</time></trkpt><trkpt lat="46.043285" lon="12.477815"><ele>376.0</ele><time>2026-03-27T15:00:03.982Z</time></trkpt><trkpt lat="46.043225" lon="12.477655"><ele>376.0</ele><time>2026-03-27T15:00:04.983Z</time></trkpt><trkpt lat="46.04316" lon="12.47749"><ele>374.75</ele><time>2026-03-27T15:00:05.983Z</time></trkpt><trkpt lat="46.0430883" lon="12.4773183"><ele>373.5</ele><time>2026-03-27T15:00:06.982Z</time></trkpt><trkpt lat="46.0429983" lon="12.4771433"><ele>372.25</ele><time>2026-03-27T15:00:07.983Z</time></trkpt><trkpt lat="46.0428917" lon="12.4769733"><ele>371.0</ele><time>2026-03-27T15:00:08.983Z</time></trkpt><trkpt lat="46.0427783" lon="12.4768133"><ele>371.0</ele><time>2026-03-27T15:00:09.984Z</time></trkpt><trkpt lat="46.04265" lon="12.4766783"><ele>371.0</ele><time>2026-03-27T15:00:10.984Z</time></trkpt><trkpt lat="46.042515" lon="12.4765667"><ele>371.0</ele><time>2026-03-27T15:00:11.982Z</time></trkpt><trkpt lat="46.042355" lon="12.4764883"><ele>368.0</ele><time>2026-03-27T15:00:12.983Z</time></trkpt><trkpt lat="46.0421867" lon="12.47643"><ele>365.0</ele><time>2026-03-27T15:00:13.982Z</time></trkpt><trkpt lat="46.0420183" lon="12.4763817"><ele>362.0</ele><time>2026-03-27T15:00:14.983Z</time></trkpt><trkpt lat="46.0418733" lon="12.476255"><ele>362.0</ele><time>2026-03-27T15:00:15.986Z</time></trkpt><trkpt lat="46.0417433" lon="12.4760667"><ele>362.0</ele><time>2026-03-27T15:00:16.982Z</time></trkpt><trkpt lat="46.0416217" lon="12.4758567"><ele>362.0</ele><time>2026-03-27T15:00:17.982Z</time></trkpt><trkpt lat="46.0415067" lon="12.4756733"><ele>361.75</ele><time>2026-03-27T15:00:18.984Z</time></trkpt><trkpt lat="46.0413933" lon="12.4755317"><ele>361.5</ele><time>2026-03-27T15:00:19.983Z</time></trkpt><trkpt lat="46.04128" lon="12.4754417"><ele>361.25</ele><time>2026-03-27T15:00:20.982Z</time></trkpt><trkpt lat="46.041165" lon="12.47539"><ele>361.0</ele><time>2026-03-27T15:00:21.983Z</time></trkpt><trkpt lat="46.0410533" lon="12.475375"><ele>361.0</ele><time>2026-03-27T15:00:22.983Z</time></trkpt><trkpt lat="46.0409367" lon="12.4753883"><ele>361.0</ele><time>2026-03-27T15:00:23.983Z</time></trkpt><trkpt lat="46.0408267" lon="12.4754033"><ele>361.0</ele><time>2026-03-27T15:00:24.983Z</time></trkpt><trkpt lat="46.0407167" lon="12.4754117"><ele>361.0</ele><time>2026-03-27T15:00:25.982Z</time></trkpt><trkpt lat="46.0406083" lon="12.4754083"><ele>361.0</ele><time>2026-03-27T15:00:26.982Z</time></trkpt><trkpt lat="46.0405033" lon="12.47539"><ele>358.3333333333333</ele><time>2026-03-27T15:00:27.982Z</time></trkpt><trkpt lat="46.040405" lon="12.475365"><ele>355.66666666666663</ele><time>2026-03-27T15:00:28.983Z</time></trkpt><trkpt lat="46.0403117" lon="12.4753417"><ele>353.0</ele><time>2026-03-27T15:00:29.984Z</time></trkpt><trkpt lat="46.040225" lon="12.4753417"><ele>350.3333333333333</ele><time>2026-03-27T15:00:30.982Z</time></trkpt><trkpt lat="46.0401483" lon="12.47537"><ele>347.6666666666667</ele><time>2026-03-27T15:00:31.982Z</time></trkpt><trkpt lat="46.040125" lon="12.47546"><ele>345.0</ele><time>2026-03-27T15:00:32.985Z</time></trkpt><trkpt lat="46.0401217" lon="12.4755733"><ele>341.75</ele><time>2026-03-27T15:00:33.983Z</time></trkpt><trkpt lat="46.0401567" lon="12.4756633"><ele>338.5</ele><time>2026-03-27T15:00:34.983Z</time></trkpt><trkpt lat="46.0402717" lon="12.475735"><ele>335.25</ele><time>2026-03-27T15:00:35.984Z</time></trkpt><trkpt lat="46.04041" lon="12.4757867"><ele>332.0</ele><time>2026-03-27T15:00:36.982Z</time></trkpt><trkpt lat="46.0405383" lon="12.475845"><ele>332.0</ele><time>2026-03-27T15:00:37.985Z</time></trkpt><trkpt lat="46.0406583" lon="12.4759117"><ele>332.0</ele><time>2026-03-27T15:00:38.983Z</time></trkpt><trkpt lat="46.04078" lon="12.4759867"><ele>332.0</ele><time>2026-03-27T15:00:39.983Z</time></trkpt><trkpt lat="46.0409033" lon="12.47606"><ele>332.0</ele><time>2026-03-27T15:00:40.982Z</time></trkpt><trkpt lat="46.04103" lon="12.47615"><ele>329.75</ele><time>2026-03-27T15:00:41.982Z</time></trkpt><trkpt lat="46.04115" lon="12.4762767"><ele>327.5</ele><time>2026-03-27T15:00:42.982Z</time></trkpt><trkpt lat="46.0412483" lon="12.4764383"><ele>325.25</ele><time>2026-03-27T15:00:43.983Z</time></trkpt><trkpt lat="46.04134" lon="12.4765717"><ele>323.0</ele><time>2026-03-27T15:00:44.983Z</time></trkpt><trkpt lat="46.04141" lon="12.4766983"><ele>323.0</ele><time>2026-03-27T15:00:45.983Z</time></trkpt><trkpt lat="46.0414433" lon="12.4768367"><ele>323.0</ele><time>2026-03-27T15:00:46.982Z</time></trkpt><trkpt lat="46.041415" lon="12.47695"><ele>323.0</ele><time>2026-03-27T15:00:47.982Z</time></trkpt><trkpt lat="46.0413367" lon="12.4769883"><ele>323.0</ele><time>2026-03-27T15:00:48.983Z</time></trkpt><trkpt lat="46.04124" lon="12.4769117"><ele>323.0</ele><time>2026-03-27T15:00:49.982Z</time></trkpt><trkpt lat="46.0411483" lon="12.4768083"><ele>323.0</ele><time>2026-03-27T15:00:50.982Z</time></trkpt><trkpt lat="46.041045" lon="12.4767217"><ele>323.0</ele><time>2026-03-27T15:00:51.983Z</time></trkpt><trkpt lat="46.0409183" lon="12.476655"><ele>323.0</ele><time>2026-03-27T15:00:52.983Z</time></trkpt><trkpt lat="46.0407683" lon="12.4766117"><ele>323.0</ele><time>2026-03-27T15:00:53.982Z</time></trkpt><trkpt lat="46.0406033" lon="12.4765933"><ele>320.0</ele><time>2026-03-27T15:00:54.982Z</time></trkpt><trkpt lat="46.0404367" lon="12.4765733"><ele>317.0</ele><time>2026-03-27T15:00:55.982Z</time></trkpt><trkpt lat="46.04026" lon="12.4765783"><ele>314.0</ele><time>2026-03-27T15:00:56.982Z</time></trkpt><trkpt lat="46.0400767" lon="12.4765983"><ele>311.33333333333337</ele><time>2026-03-27T15:00:57.983Z</time></trkpt><trkpt lat="46.0398933" lon="12.47662"><ele>308.6666666666667</ele><time>2026-03-27T15:00:58.982Z</time></trkpt><trkpt lat="46.03971" lon="12.476645"><ele>306.0</ele><time>2026-03-27T15:00:59.982Z</time></trkpt><trkpt lat="46.0395183" lon="12.47667"><ele>306.0</ele><time>2026-03-27T15:01:00.982Z</time></trkpt><trkpt lat="46.0393283" lon="12.47667"><ele>306.0</ele><time>2026-03-27T15:01:01.982Z</time></trkpt><trkpt lat="46.039155" lon="12.4766433"><ele>306.0</ele><time>2026-03-27T15:01:02.983Z</time></trkpt><trkpt lat="46.0390167" lon="12.4765833"><ele>303.0</ele><time>2026-03-27T15:01:03.982Z</time></trkpt><trkpt lat="46.0388983" lon="12.4765417"><ele>300.0</ele><time>2026-03-27T15:01:04.982Z</time></trkpt><trkpt lat="46.0388" lon="12.4765183"><ele>297.0</ele><time>2026-03-27T15:01:05.982Z</time></trkpt><trkpt lat="46.0387383" lon="12.476595"><ele>294.0</ele><time>2026-03-27T15:01:06.982Z</time></trkpt><trkpt lat="46.0387467" lon="12.4767083"><ele>291.0</ele><time>2026-03-27T15:01:07.983Z</time></trkpt><trkpt lat="46.03877" lon="12.476815"><ele>291.0</ele><time>2026-03-27T15:01:08.983Z</time></trkpt><trkpt lat="46.0387983" lon="12.476925"><ele>291.0</ele><time>2026-03-27T15:01:09.982Z</time></trkpt><trkpt lat="46.038895" lon="12.4770283"><ele>291.0</ele><time>2026-03-27T15:01:10.984Z</time></trkpt><trkpt lat="46.0390483" lon="12.4771333"><ele>291.0</ele><time>2026-03-27T15:01:11.982Z</time></trkpt><trkpt lat="46.0392567" lon="12.477245"><ele>290.0</ele><time>2026-03-27T15:01:12.983Z</time></trkpt><trkpt lat="46.0394383" lon="12.477365"><ele>289.0</ele><time>2026-03-27T15:01:13.983Z</time></trkpt><trkpt lat="46.0396067" lon="12.477505"><ele>288.0</ele><time>2026-03-27T15:01:14.984Z</time></trkpt><trkpt lat="46.0397683" lon="12.4776317"><ele>288.0</ele><time>2026-03-27T15:01:15.982Z</time></trkpt><trkpt lat="46.0399267" lon="12.477725"><ele>288.0</ele><time>2026-03-27T15:01:16.986Z</time></trkpt><trkpt lat="46.0400583" lon="12.47782"><ele>288.0</ele><time>2026-03-27T15:01:17.982Z</time></trkpt><trkpt lat="46.0401683" lon="12.477895"><ele>288.0</ele><time>2026-03-27T15:01:18.985Z</time></trkpt><trkpt lat="46.0402233" lon="12.47801"><ele>285.5</ele><time>2026-03-27T15:01:19.983Z</time></trkpt><trkpt lat="46.0402067" lon="12.4781467"><ele>283.0</ele><time>2026-03-27T15:01:20.983Z</time></trkpt><trkpt lat="46.04014" lon="12.4782533"><ele>280.5</ele><time>2026-03-27T15:01:21.982Z</time></trkpt><trkpt lat="46.0400233" lon="12.47829"><ele>278.0</ele><time>2026-03-27T15:01:22.983Z</time></trkpt><trkpt lat="46.0398733" lon="12.4782617"><ele>274.33333333333337</ele><time>2026-03-27T15:01:23.985Z</time></trkpt><trkpt lat="46.0397167" lon="12.4782867"><ele>270.6666666666667</ele><time>2026-03-27T15:01:24.982Z</time></trkpt><trkpt lat="46.0395133" lon="12.4782533"><ele>267.0</ele><time>2026-03-27T15:01:25.983Z</time></trkpt><trkpt lat="46.03931" lon="12.478235"><ele>264.3333333333333</ele><time>2026-03-27T15:01:26.983Z</time></trkpt><trkpt lat="46.0391017" lon="12.4782317"><ele>261.66666666666663</ele><time>2026-03-27T15:01:27.982Z</time></trkpt><trkpt lat="46.03888" lon="12.4782333"><ele>259.0</ele><time>2026-03-27T15:01:28.982Z</time></trkpt><trkpt lat="46.0386617" lon="12.4782317"><ele>259.0</ele><time>2026-03-27T15:01:29.982Z</time></trkpt><trkpt lat="46.0384633" lon="12.47821"><ele>259.0</ele><time>2026-03-27T15:01:30.981Z</time></trkpt><trkpt lat="46.03829" lon="12.4781733"><ele>259.0</ele><time>2026-03-27T15:01:31.987Z</time></trkpt><trkpt lat="46.038165" lon="12.47808"><ele>259.0</ele><time>2026-03-27T15:01:32.984Z</time></trkpt><trkpt lat="46.038075" lon="12.4779867"><ele>259.0</ele><time>2026-03-27T15:01:33.983Z</time></trkpt><trkpt lat="46.0379983" lon="12.4780083"><ele>259.0</ele><time>2026-03-27T15:01:34.982Z</time></trkpt><trkpt lat="46.0379517" lon="12.4780733"><ele>259.0</ele><time>2026-03-27T15:01:35.982Z</time></trkpt><trkpt lat="46.0378783" lon="12.4780567"><ele>259.0</ele><time>2026-03-27T15:01:38.982Z</time></trkpt><trkpt lat="46.0378317" lon="12.477975"><ele>259.0</ele><time>2026-03-27T15:01:40.983Z</time></trkpt><trkpt lat="46.03777" lon="12.4779083"><ele>259.0</ele><time>2026-03-27T15:01:42.982Z</time></trkpt><trkpt lat="46.03768" lon="12.477865"><ele>259.0</ele><time>2026-03-27T15:01:44.983Z</time></trkpt><trkpt lat="46.037565" lon="12.477815"><ele>259.0</ele><time>2026-03-27T15:01:46.982Z</time></trkpt><trkpt lat="46.0374783" lon="12.4777433"><ele>259.0</ele><time>2026-03-27T15:01:48.982Z</time></trkpt><trkpt lat="46.037405" lon="12.4776617"><ele>259.0</ele><time>2026-03-27T15:01:50.982Z</time></trkpt><trkpt lat="46.0373417" lon="12.4775867"><ele>255.2</ele><time>2026-03-27T15:01:53.982Z</time></trkpt><trkpt lat="46.03726" lon="12.4774233"><ele>251.39999999999998</ele><time>2026-03-27T15:02:22.982Z</time></trkpt><trkpt lat="46.0371617" lon="12.4774467"><ele>247.6</ele><time>2026-03-27T15:02:26.982Z</time></trkpt><trkpt lat="46.037085" lon="12.4775067"><ele>243.8</ele><time>2026-03-27T15:02:28.983Z</time></trkpt><trkpt lat="46.0370117" lon="12.4775333"><ele>240.0</ele><time>2026-03-27T15:02:30.982Z</time></trkpt><trkpt lat="46.0369283" lon="12.47756"><ele>240.0</ele><time>2026-03-27T15:02:32.983Z</time></trkpt><trkpt lat="46.03684" lon="12.4776033"><ele>240.0</ele><time>2026-03-27T15:02:34.982Z</time></trkpt><trkpt lat="46.03675" lon="12.4776267"><ele>240.0</ele><time>2026-03-27T15:02:36.982Z</time></trkpt><trkpt lat="46.0366817" lon="12.477635"><ele>240.0</ele><time>2026-03-27T15:02:38.983Z</time></trkpt><trkpt lat="46.036605" lon="12.4776567"><ele>240.0</ele><time>2026-03-27T15:02:40.984Z</time></trkpt><trkpt lat="46.0365333" lon="12.4776417"><ele>240.0</ele><time>2026-03-27T15:02:42.982Z</time></trkpt><trkpt lat="46.0364433" lon="12.4776283"><ele>236.83333333333334</ele><time>2026-03-27T15:02:44.984Z</time></trkpt><trkpt lat="46.0363783" lon="12.4776967"><ele>233.66666666666669</ele><time>2026-03-27T15:03:17.981Z</time></trkpt><trkpt lat="46.0363783" lon="12.4778467"><ele>230.5</ele><time>2026-03-27T15:03:19.982Z</time></trkpt><trkpt lat="46.03641" lon="12.4780167"><ele>227.33333333333334</ele><time>2026-03-27T15:03:21.982Z</time></trkpt><trkpt lat="46.0364383" lon="12.4781017"><ele>224.16666666666669</ele><time>2026-03-27T15:03:22.984Z</time></trkpt><trkpt lat="46.03647" lon="12.4781867"><ele>221.0</ele><time>2026-03-27T15:03:23.983Z</time></trkpt><trkpt lat="46.0365067" lon="12.478275"><ele>221.33333333333334</ele><time>2026-03-27T15:03:24.982Z</time></trkpt><trkpt lat="46.0365417" lon="12.4783767"><ele>221.66666666666669</ele><time>2026-03-27T15:03:25.984Z</time></trkpt><trkpt lat="46.03658" lon="12.47846"><ele>222.0</ele><time>2026-03-27T15:03:26.985Z</time></trkpt><trkpt lat="46.0366167" lon="12.4785583"><ele>222.33333333333331</ele><time>2026-03-27T15:03:27.982Z</time></trkpt><trkpt lat="46.0366533" lon="12.4786733"><ele>222.66666666666666</ele><time>2026-03-27T15:03:28.983Z</time></trkpt><trkpt lat="46.03669" lon="12.478795"><ele>223.0</ele><time>2026-03-27T15:03:29.983Z</time></trkpt><trkpt lat="46.0367233" lon="12.478885"><ele>223.0</ele><time>2026-03-27T15:03:30.982Z</time></trkpt><trkpt lat="46.0367533" lon="12.478985"><ele>223.0</ele><time>2026-03-27T15:03:31.983Z</time></trkpt><trkpt lat="46.0367883" lon="12.4791283"><ele>223.0</ele><time>2026-03-27T15:03:33.983Z</time></trkpt><trkpt lat="46.036825" lon="12.4792833"><ele>223.0</ele><time>2026-03-27T15:03:35.983Z</time></trkpt><trkpt lat="46.03687" lon="12.4794167"><ele>223.0</ele><time>2026-03-27T15:03:37.982Z</time></trkpt><trkpt lat="46.036915" lon="12.479525"><ele>223.0</ele><time>2026-03-27T15:03:39.982Z</time></trkpt><trkpt lat="46.03699" lon="12.4795667"><ele>223.0</ele><time>2026-03-27T15:03:49.982Z</time></trkpt><trkpt lat="46.037085" lon="12.4796533"><ele>223.0</ele><time>2026-03-27T15:03:51.984Z</time></trkpt><trkpt lat="46.0371467" lon="12.4797517"><ele>223.0</ele><time>2026-03-27T15:03:52.982Z</time></trkpt><trkpt lat="46.0372233" lon="12.479865"><ele>223.0</ele><time>2026-03-27T15:03:53.982Z</time></trkpt><trkpt lat="46.0373017" lon="12.4799767"><ele>221.5</ele><time>2026-03-27T15:03:54.983Z</time></trkpt><trkpt lat="46.037385" lon="12.4800983"><ele>220.0</ele><time>2026-03-27T15:03:55.983Z</time></trkpt><trkpt lat="46.0374583" lon="12.480235"><ele>218.5</ele><time>2026-03-27T15:03:56.983Z</time></trkpt><trkpt lat="46.0375333" lon="12.4803717"><ele>217.0</ele><time>2026-03-27T15:03:57.982Z</time></trkpt><trkpt lat="46.0376167" lon="12.480505"><ele>213.0</ele><time>2026-03-27T15:03:58.982Z</time></trkpt><trkpt lat="46.0377" lon="12.48064"><ele>209.0</ele><time>2026-03-27T15:03:59.985Z</time></trkpt><trkpt lat="46.0378" lon="12.4807367"><ele>205.0</ele><time>2026-03-27T15:04:00.982Z</time></trkpt><trkpt lat="46.0379" lon="12.4808267"><ele>201.0</ele><time>2026-03-27T15:04:01.982Z</time></trkpt><trkpt lat="46.03798" lon="12.4809167"><ele>201.0</ele><time>2026-03-27T15:04:02.984Z</time></trkpt><trkpt lat="46.0380217" lon="12.481025"><ele>201.0</ele><time>2026-03-27T15:04:03.982Z</time></trkpt><trkpt lat="46.0380167" lon="12.4811383"><ele>201.0</ele><time>2026-03-27T15:04:04.982Z</time></trkpt><trkpt lat="46.0379633" lon="12.48121"><ele>201.0</ele><time>2026-03-27T15:04:05.982Z</time></trkpt><trkpt lat="46.0378433" lon="12.4812167"><ele>201.0</ele><time>2026-03-27T15:04:06.983Z</time></trkpt><trkpt lat="46.03773" lon="12.481215"><ele>201.0</ele><time>2026-03-27T15:04:07.982Z</time></trkpt><trkpt lat="46.0376067" lon="12.4812067"><ele>201.0</ele><time>2026-03-27T15:04:08.982Z</time></trkpt><trkpt lat="46.03745" lon="12.4811367"><ele>201.0</ele><time>2026-03-27T15:04:09.983Z</time></trkpt><trkpt lat="46.0372983" lon="12.4810967"><ele>201.0</ele><time>2026-03-27T15:04:10.982Z</time></trkpt><trkpt lat="46.0371517" lon="12.4810883"><ele>199.0</ele><time>2026-03-27T15:04:11.982Z</time></trkpt><trkpt lat="46.0370133" lon="12.4810667"><ele>197.0</ele><time>2026-03-27T15:04:12.983Z</time></trkpt><trkpt lat="46.0368783" lon="12.4810417"><ele>195.0</ele><time>2026-03-27T15:04:13.982Z</time></trkpt><trkpt lat="46.0367417" lon="12.4810167"><ele>193.0</ele><time>2026-03-27T15:04:14.983Z</time></trkpt><trkpt lat="46.0366033" lon="12.4810267"><ele>191.0</ele><time>2026-03-27T15:04:15.982Z</time></trkpt><trkpt lat="46.0364667" lon="12.48108"><ele>189.0</ele><time>2026-03-27T15:04:16.982Z</time></trkpt><trkpt lat="46.0363317" lon="12.481175"><ele>187.0</ele><time>2026-03-27T15:04:17.981Z</time></trkpt><trkpt lat="46.0362" lon="12.4812583"><ele>185.0</ele><time>2026-03-27T15:04:18.982Z</time></trkpt><trkpt lat="46.0360517" lon="12.4812667"><ele>185.0</ele><time>2026-03-27T15:04:19.982Z</time></trkpt><trkpt lat="46.03589" lon="12.4812233"><ele>185.0</ele><time>2026-03-27T15:04:20.983Z</time></trkpt><trkpt lat="46.035715" lon="12.4811867"><ele>185.0</ele><time>2026-03-27T15:04:21.983Z</time></trkpt><trkpt lat="46.03554" lon="12.4811017"><ele>179.0</ele><time>2026-03-27T15:04:22.984Z</time></trkpt><trkpt lat="46.0353583" lon="12.481"><ele>173.0</ele><time>2026-03-27T15:04:23.983Z</time></trkpt><trkpt lat="46.03517" lon="12.4809133"><ele>167.0</ele><time>2026-03-27T15:04:24.982Z</time></trkpt><trkpt lat="46.0349833" lon="12.4808167"><ele>161.0</ele><time>2026-03-27T15:04:25.982Z</time></trkpt><trkpt lat="46.0348217" lon="12.480685"><ele>155.0</ele><time>2026-03-27T15:04:26.983Z</time></trkpt><trkpt lat="46.034705" lon="12.480525"><ele>149.0</ele><time>2026-03-27T15:04:27.982Z</time></trkpt><trkpt lat="46.0346267" lon="12.4803917"><ele>149.0</ele><time>2026-03-27T15:04:28.983Z</time></trkpt><trkpt lat="46.0345667" lon="12.4803317"><ele>149.0</ele><time>2026-03-27T15:04:29.982Z</time></trkpt><trkpt lat="46.0345067" lon="12.4804"><ele>149.0</ele><time>2026-03-27T15:04:30.983Z</time></trkpt><trkpt lat="46.0344833" lon="12.48052"><ele>149.0</ele><time>2026-03-27T15:04:31.982Z</time></trkpt><trkpt lat="46.0344867" lon="12.4806733"><ele>149.0</ele><time>2026-03-27T15:04:32.986Z</time></trkpt><trkpt lat="46.0345" lon="12.4808433"><ele>148.0</ele><time>2026-03-27T15:04:33.982Z</time></trkpt><trkpt lat="46.03458" lon="12.481055"><ele>147.0</ele><time>2026-03-27T15:04:34.984Z</time></trkpt><trkpt lat="46.0346383" lon="12.4812717"><ele>146.0</ele><time>2026-03-27T15:04:35.982Z</time></trkpt><trkpt lat="46.0347317" lon="12.4814733"><ele>144.66666666666666</ele><time>2026-03-27T15:04:36.983Z</time></trkpt><trkpt lat="46.0348333" lon="12.48167"><ele>143.33333333333334</ele><time>2026-03-27T15:04:37.982Z</time></trkpt><trkpt lat="46.0349533" lon="12.4818583"><ele>142.0</ele><time>2026-03-27T15:04:38.983Z</time></trkpt><trkpt lat="46.0351017" lon="12.48204"><ele>143.0</ele><time>2026-03-27T15:04:39.983Z</time></trkpt><trkpt lat="46.0352083" lon="12.4822583"><ele>144.0</ele><time>2026-03-27T15:04:40.982Z</time></trkpt><trkpt lat="46.03528" lon="12.4825067"><ele>145.0</ele><time>2026-03-27T15:04:41.984Z</time></trkpt><trkpt lat="46.0353517" lon="12.4827333"><ele>141.66666666666669</ele><time>2026-03-27T15:04:42.983Z</time></trkpt><trkpt lat="46.0354183" lon="12.4829367"><ele>138.33333333333334</ele><time>2026-03-27T15:04:43.982Z</time></trkpt><trkpt lat="46.0354683" lon="12.4831367"><ele>135.0</ele><time>2026-03-27T15:04:44.983Z</time></trkpt><trkpt lat="46.0355133" lon="12.4833383"><ele>135.0</ele><time>2026-03-27T15:04:45.984Z</time></trkpt><trkpt lat="46.0355583" lon="12.4835483"><ele>135.0</ele><time>2026-03-27T15:04:46.985Z</time></trkpt><trkpt lat="46.0356017" lon="12.483775"><ele>135.0</ele><time>2026-03-27T15:04:47.985Z</time></trkpt><trkpt lat="46.0356617" lon="12.4840067"><ele>132.66666666666666</ele><time>2026-03-27T15:04:48.982Z</time></trkpt><trkpt lat="46.03571" lon="12.48425"><ele>130.33333333333331</ele><time>2026-03-27T15:04:49.982Z</time></trkpt><trkpt lat="46.0357583" lon="12.4844983"><ele>128.0</ele><time>2026-03-27T15:04:50.982Z</time></trkpt><trkpt lat="46.0358083" lon="12.4847383"><ele>128.0</ele><time>2026-03-27T15:04:51.982Z</time></trkpt><trkpt lat="46.035855" lon="12.48497"><ele>128.0</ele><time>2026-03-27T15:04:52.982Z</time></trkpt><trkpt lat="46.035905" lon="12.48519"><ele>128.0</ele><time>2026-03-27T15:04:53.982Z</time></trkpt><trkpt lat="46.0359867" lon="12.48538"><ele>125.33333333333333</ele><time>2026-03-27T15:04:54.983Z</time></trkpt><trkpt lat="46.0361183" lon="12.4855367"><ele>122.66666666666666</ele><time>2026-03-27T15:04:55.983Z</time></trkpt><trkpt lat="46.0362017" lon="12.485715"><ele>120.0</ele><time>2026-03-27T15:04:56.983Z</time></trkpt><trkpt lat="46.0362133" lon="12.48593"><ele>120.0</ele><time>2026-03-27T15:04:57.982Z</time></trkpt><trkpt lat="46.0361617" lon="12.48616"><ele>120.0</ele><time>2026-03-27T15:04:58.983Z</time></trkpt><trkpt lat="46.036105" lon="12.4863667"><ele>120.0</ele><time>2026-03-27T15:04:59.983Z</time></trkpt><trkpt lat="46.0360517" lon="12.48654"><ele>119.16666666666667</ele><time>2026-03-27T15:05:00.982Z</time></trkpt><trkpt lat="46.036005" lon="12.4866867"><ele>118.33333333333334</ele><time>2026-03-27T15:05:01.982Z</time></trkpt><trkpt lat="46.0359683" lon="12.4868017"><ele>117.5</ele><time>2026-03-27T15:05:02.982Z</time></trkpt><trkpt lat="46.0359433" lon="12.4868983"><ele>116.66666666666667</ele><time>2026-03-27T15:05:03.982Z</time></trkpt><trkpt lat="46.0359217" lon="12.4869917"><ele>115.83333333333334</ele><time>2026-03-27T15:05:04.982Z</time></trkpt><trkpt lat="46.0359017" lon="12.487085"><ele>115.0</ele><time>2026-03-27T15:05:05.982Z</time></trkpt><trkpt lat="46.035855" lon="12.487235"><ele>111.6</ele><time>2026-03-27T15:05:07.983Z</time></trkpt><trkpt lat="46.0357883" lon="12.4873783"><ele>108.2</ele><time>2026-03-27T15:05:09.982Z</time></trkpt><trkpt lat="46.035705" lon="12.4875183"><ele>104.80000000000001</ele><time>2026-03-27T15:05:11.982Z</time></trkpt><trkpt lat="46.0356533" lon="12.4875917"><ele>101.4</ele><time>2026-03-27T15:05:12.982Z</time></trkpt><trkpt lat="46.0355983" lon="12.4876633"><ele>98.0</ele><time>2026-03-27T15:05:13.982Z</time></trkpt><trkpt lat="46.0355433" lon="12.48773"><ele>97.99999999999999</ele><time>2026-03-27T15:05:14.983Z</time></trkpt><trkpt lat="46.035485" lon="12.4877933"><ele>98.0</ele><time>2026-03-27T15:05:15.982Z</time></trkpt><trkpt lat="46.0354283" lon="12.4878533"><ele>98.0</ele><time>2026-03-27T15:05:16.982Z</time></trkpt><trkpt lat="46.03538" lon="12.487915"><ele>98.0</ele><time>2026-03-27T15:05:17.982Z</time></trkpt><trkpt lat="46.0352917" lon="12.48805"><ele>97.99999999999999</ele><time>2026-03-27T15:05:19.983Z</time></trkpt><trkpt lat="46.0352467" lon="12.48812"><ele>98.0</ele><time>2026-03-27T15:05:20.983Z</time></trkpt><trkpt lat="46.0352" lon="12.4881867"><ele>96.99999999999999</ele><time>2026-03-27T15:05:21.982Z</time></trkpt><trkpt lat="46.0351533" lon="12.4882567"><ele>96.0</ele><time>2026-03-27T15:05:22.984Z</time></trkpt><trkpt lat="46.0351017" lon="12.48834"><ele>95.0</ele><time>2026-03-27T15:05:23.983Z</time></trkpt><trkpt lat="46.03505" lon="12.4884167"><ele>94.0</ele><time>2026-03-27T15:05:24.984Z</time></trkpt><trkpt lat="46.0349967" lon="12.4884967"><ele>93.0</ele><time>2026-03-27T15:05:25.982Z</time></trkpt><trkpt lat="46.0349433" lon="12.4885733"><ele>92.0</ele><time>2026-03-27T15:05:26.982Z</time></trkpt><trkpt lat="46.0348867" lon="12.4886567"><ele>90.83333333333334</ele><time>2026-03-27T15:05:27.982Z</time></trkpt><trkpt lat="46.03483" lon="12.488745"><ele>89.66666666666667</ele><time>2026-03-27T15:05:28.982Z</time></trkpt><trkpt lat="46.034775" lon="12.4888267"><ele>88.5</ele><time>2026-03-27T15:05:29.983Z</time></trkpt><trkpt lat="46.0347233" lon="12.48891"><ele>87.33333333333333</ele><time>2026-03-27T15:05:30.982Z</time></trkpt><trkpt lat="46.034675" lon="12.48899"><ele>86.16666666666666</ele><time>2026-03-27T15:05:31.982Z</time></trkpt><trkpt lat="46.0346083" lon="12.4891117"><ele>85.0</ele><time>2026-03-27T15:05:33.982Z</time></trkpt><trkpt lat="46.0345733" lon="12.4891983"><ele>85.0</ele><time>2026-03-27T15:05:35.981Z</time></trkpt><trkpt lat="46.0345817" lon="12.489295"><ele>85.0</ele><time>2026-03-27T15:05:46.986Z</time></trkpt><trkpt lat="46.0346567" lon="12.489395"><ele>85.0</ele><time>2026-03-27T15:05:54.982Z</time></trkpt><trkpt lat="46.0347917" lon="12.4894833"><ele>85.0</ele><time>2026-03-27T15:05:56.983Z</time></trkpt><trkpt lat="46.0349" lon="12.4894883"><ele>85.0</ele><time>2026-03-27T15:05:57.983Z</time></trkpt><trkpt lat="46.0350033" lon="12.48951"><ele>85.0</ele><time>2026-03-27T15:05:58.982Z</time></trkpt><trkpt lat="46.0350983" lon="12.4895183"><ele>85.0</ele><time>2026-03-27T15:05:59.983Z</time></trkpt><trkpt lat="46.03518" lon="12.4895317"><ele>85.0</ele><time>2026-03-27T15:06:00.982Z</time></trkpt><trkpt lat="46.0352483" lon="12.4895533"><ele>85.0</ele><time>2026-03-27T15:06:01.982Z</time></trkpt><trkpt lat="46.035305" lon="12.4896017"><ele>85.0</ele><time>2026-03-27T15:06:02.983Z</time></trkpt><trkpt lat="46.0353683" lon="12.4896733"><ele>85.0</ele><time>2026-03-27T15:06:03.982Z</time></trkpt><trkpt lat="46.03543" lon="12.489785"><ele>84.0</ele><time>2026-03-27T15:06:04.984Z</time></trkpt><trkpt lat="46.035475" lon="12.4899233"><ele>83.0</ele><time>2026-03-27T15:06:05.982Z</time></trkpt><trkpt lat="46.0355033" lon="12.4900783"><ele>82.0</ele><time>2026-03-27T15:06:06.983Z</time></trkpt><trkpt lat="46.0355267" lon="12.490225"><ele>81.0</ele><time>2026-03-27T15:06:07.983Z</time></trkpt><trkpt lat="46.0355417" lon="12.4903467"><ele>80.0</ele><time>2026-03-27T15:06:08.983Z</time></trkpt><trkpt lat="46.0355383" lon="12.490455"><ele>78.6</ele><time>2026-03-27T15:06:09.984Z</time></trkpt><trkpt lat="46.0355217" lon="12.49057"><ele>77.2</ele><time>2026-03-27T15:06:10.983Z</time></trkpt><trkpt lat="46.0354883" lon="12.4906983"><ele>75.8</ele><time>2026-03-27T15:06:11.985Z</time></trkpt><trkpt lat="46.0354333" lon="12.4908383"><ele>74.4</ele><time>2026-03-27T15:06:12.983Z</time></trkpt><trkpt lat="46.0353817" lon="12.4909783"><ele>73.0</ele><time>2026-03-27T15:06:13.983Z</time></trkpt><trkpt lat="46.0353333" lon="12.4911133"><ele>73.0</ele><time>2026-03-27T15:06:14.986Z</time></trkpt><trkpt lat="46.03528" lon="12.4912433"><ele>73.0</ele><time>2026-03-27T15:06:15.984Z</time></trkpt><trkpt lat="46.03521" lon="12.49137"><ele>73.0</ele><time>2026-03-27T15:06:16.984Z</time></trkpt><trkpt lat="46.0351367" lon="12.4914983"><ele>73.0</ele><time>2026-03-27T15:06:17.983Z</time></trkpt><trkpt lat="46.03507" lon="12.4916217"><ele>73.0</ele><time>2026-03-27T15:06:18.982Z</time></trkpt><trkpt lat="46.0350117" lon="12.4917667"><ele>71.0</ele><time>2026-03-27T15:06:19.986Z</time></trkpt><trkpt lat="46.0349617" lon="12.491925"><ele>69.0</ele><time>2026-03-27T15:06:20.983Z</time></trkpt><trkpt lat="46.034915" lon="12.4920817"><ele>67.0</ele><time>2026-03-27T15:06:21.983Z</time></trkpt><trkpt lat="46.0348633" lon="12.4922267"><ele>65.0</ele><time>2026-03-27T15:06:22.983Z</time></trkpt><trkpt lat="46.034815" lon="12.4923633"><ele>64.0</ele><time>2026-03-27T15:06:23.983Z</time></trkpt><trkpt lat="46.0347667" lon="12.4924917"><ele>63.0</ele><time>2026-03-27T15:06:24.984Z</time></trkpt><trkpt lat="46.0347183" lon="12.49261"><ele>62.0</ele><time>2026-03-27T15:06:25.985Z</time></trkpt><trkpt lat="46.0346617" lon="12.49272"><ele>61.0</ele><time>2026-03-27T15:06:26.984Z</time></trkpt><trkpt lat="46.03459" lon="12.4928067"><ele>60.0</ele><time>2026-03-27T15:06:27.983Z</time></trkpt><trkpt lat="46.03451" lon="12.4928767"><ele>59.333333333333336</ele><time>2026-03-27T15:06:28.983Z</time></trkpt><trkpt lat="46.03444" lon="12.49294"><ele>58.66666666666667</ele><time>2026-03-27T15:06:29.984Z</time></trkpt><trkpt lat="46.03436" lon="12.49303"><ele>58.0</ele><time>2026-03-27T15:06:31.982Z</time></trkpt><trkpt lat="46.03429" lon="12.4931433"><ele>57.333333333333336</ele><time>2026-03-27T15:06:33.984Z</time></trkpt><trkpt lat="46.0342467" lon="12.493235"><ele>56.66666666666667</ele><time>2026-03-27T15:06:34.984Z</time></trkpt><trkpt lat="46.0342033" lon="12.49333"><ele>56.0</ele><time>2026-03-27T15:06:35.983Z</time></trkpt><trkpt lat="46.03416" lon="12.4934267"><ele>55.57142857142857</ele><time>2026-03-27T15:06:36.983Z</time></trkpt><trkpt lat="46.0341133" lon="12.493515"><ele>55.14285714285714</ele><time>2026-03-27T15:06:37.984Z</time></trkpt><trkpt lat="46.0340633" lon="12.493595"><ele>54.714285714285715</ele><time>2026-03-27T15:06:38.984Z</time></trkpt><trkpt lat="46.0340083" lon="12.4936683"><ele>54.285714285714285</ele><time>2026-03-27T15:06:39.984Z</time></trkpt><trkpt lat="46.0339483" lon="12.4937367"><ele>53.857142857142854</ele><time>2026-03-27T15:06:40.983Z</time></trkpt><trkpt lat="46.033895" lon="12.49381"><ele>53.42857142857143</ele><time>2026-03-27T15:06:41.983Z</time></trkpt><trkpt lat="46.0338433" lon="12.49387"><ele>53.0</ele><time>2026-03-27T15:06:42.983Z</time></trkpt><trkpt lat="46.0337767" lon="12.4939167"><ele>52.85714285714286</ele><time>2026-03-27T15:06:43.984Z</time></trkpt><trkpt lat="46.0336917" lon="12.49392"><ele>52.71428571428571</ele><time>2026-03-27T15:06:44.984Z</time></trkpt><trkpt lat="46.03361" lon="12.493895"><ele>52.57142857142857</ele><time>2026-03-27T15:06:45.983Z</time></trkpt><trkpt lat="46.03354" lon="12.49389"><ele>52.42857142857143</ele><time>2026-03-27T15:06:46.983Z</time></trkpt><trkpt lat="46.033475" lon="12.4938767"><ele>52.28571428571429</ele><time>2026-03-27T15:06:47.983Z</time></trkpt><trkpt lat="46.0334183" lon="12.493925"><ele>52.14285714285714</ele><time>2026-03-27T15:06:48.985Z</time></trkpt><trkpt lat="46.03336" lon="12.4939917"><ele>52.0</ele><time>2026-03-27T15:06:49.983Z</time></trkpt><trkpt lat="46.0332917" lon="12.49407"><ele>51.2</ele><time>2026-03-27T15:06:50.983Z</time></trkpt><trkpt lat="46.0332083" lon="12.4941267"><ele>50.400000000000006</ele><time>2026-03-27T15:06:51.983Z</time></trkpt><trkpt lat="46.03312" lon="12.49418"><ele>49.599999999999994</ele><time>2026-03-27T15:06:52.983Z</time></trkpt><trkpt lat="46.0330233" lon="12.494225"><ele>48.8</ele><time>2026-03-27T15:06:53.983Z</time></trkpt><trkpt lat="46.03292" lon="12.4942567"><ele>48.0</ele><time>2026-03-27T15:06:54.983Z</time></trkpt><trkpt lat="46.0328083" lon="12.4942733"><ele>48.0</ele><time>2026-03-27T15:06:55.988Z</time></trkpt><trkpt lat="46.0326933" lon="12.4943033"><ele>48.0</ele><time>2026-03-27T15:06:56.983Z</time></trkpt><trkpt lat="46.0325783" lon="12.4943483"><ele>48.0</ele><time>2026-03-27T15:06:57.986Z</time></trkpt><trkpt lat="46.0324633" lon="12.4944167"><ele>48.0</ele><time>2026-03-27T15:06:58.983Z</time></trkpt><trkpt lat="46.0323467" lon="12.4945317"><ele>47.0</ele><time>2026-03-27T15:06:59.983Z</time></trkpt><trkpt lat="46.0322333" lon="12.494685"><ele>46.0</ele><time>2026-03-27T15:07:00.983Z</time></trkpt><trkpt lat="46.0321183" lon="12.49485"><ele>45.0</ele><time>2026-03-27T15:07:01.982Z</time></trkpt><trkpt lat="46.0320133" lon="12.49501"><ele>45.0</ele><time>2026-03-27T15:07:02.984Z</time></trkpt><trkpt lat="46.0319133" lon="12.4951667"><ele>45.0</ele><time>2026-03-27T15:07:03.983Z</time></trkpt><trkpt lat="46.0318433" lon="12.4953617"><ele>45.0</ele><time>2026-03-27T15:07:04.984Z</time></trkpt><trkpt lat="46.0317933" lon="12.4955883"><ele>45.25</ele><time>2026-03-27T15:07:05.983Z</time></trkpt><trkpt lat="46.0317483" lon="12.4958033"><ele>45.5</ele><time>2026-03-27T15:07:06.982Z</time></trkpt><trkpt lat="46.0317033" lon="12.4959933"><ele>45.75</ele><time>2026-03-27T15:07:07.983Z</time></trkpt><trkpt lat="46.0316417" lon="12.49614"><ele>46.0</ele><time>2026-03-27T15:07:08.983Z</time></trkpt><trkpt lat="46.0315583" lon="12.4962583"><ele>46.0</ele><time>2026-03-27T15:07:09.983Z</time></trkpt><trkpt lat="46.0314583" lon="12.4963617"><ele>46.0</ele><time>2026-03-27T15:07:10.983Z</time></trkpt><trkpt lat="46.031345" lon="12.4964667"><ele>46.0</ele><time>2026-03-27T15:07:11.984Z</time></trkpt><trkpt lat="46.0312333" lon="12.4965917"><ele>46.0</ele><time>2026-03-27T15:07:12.984Z</time></trkpt><trkpt lat="46.0311083" lon="12.4967"><ele>46.0</ele><time>2026-03-27T15:07:13.983Z</time></trkpt><trkpt lat="46.0309683" lon="12.4968067"><ele>46.0</ele><time>2026-03-27T15:07:14.983Z</time></trkpt><trkpt lat="46.03082" lon="12.4969283"><ele>46.0</ele><time>2026-03-27T15:07:15.983Z</time></trkpt><trkpt lat="46.0306867" lon="12.4970667"><ele>45.0</ele><time>2026-03-27T15:07:16.983Z</time></trkpt><trkpt lat="46.03057" lon="12.4971983"><ele>44.0</ele><time>2026-03-27T15:07:17.983Z</time></trkpt><trkpt lat="46.03048" lon="12.4973133"><ele>43.0</ele><time>2026-03-27T15:07:18.984Z</time></trkpt><trkpt lat="46.0304" lon="12.4973983"><ele>42.0</ele><time>2026-03-27T15:07:19.983Z</time></trkpt><trkpt lat="46.0303117" lon="12.497465"><ele>42.0</ele><time>2026-03-27T15:07:20.985Z</time></trkpt><trkpt lat="46.03021" lon="12.4975267"><ele>42.0</ele><time>2026-03-27T15:07:21.983Z</time></trkpt><trkpt lat="46.0301" lon="12.4976183"><ele>42.0</ele><time>2026-03-27T15:07:22.987Z</time></trkpt><trkpt lat="46.029985" lon="12.4977483"><ele>42.0</ele><time>2026-03-27T15:07:23.983Z</time></trkpt><trkpt lat="46.02986" lon="12.497895"><ele>41.75</ele><time>2026-03-27T15:07:24.984Z</time></trkpt><trkpt lat="46.0297367" lon="12.498045"><ele>41.5</ele><time>2026-03-27T15:07:25.983Z</time></trkpt><trkpt lat="46.0296283" lon="12.4981783"><ele>41.25</ele><time>2026-03-27T15:07:26.983Z</time></trkpt><trkpt lat="46.02954" lon="12.4982833"><ele>41.0</ele><time>2026-03-27T15:07:27.984Z</time></trkpt><trkpt lat="46.0294717" lon="12.498365"><ele>41.0</ele><time>2026-03-27T15:07:28.985Z</time></trkpt><trkpt lat="46.0293717" lon="12.4984417"><ele>41.0</ele><time>2026-03-27T15:07:30.983Z</time></trkpt><trkpt lat="46.0293883" lon="12.4985683"><ele>41.0</ele><time>2026-03-27T15:07:32.984Z</time></trkpt><trkpt lat="46.029445" lon="12.49865"><ele>41.0</ele><time>2026-03-27T15:07:33.983Z</time></trkpt><trkpt lat="46.0295483" lon="12.4987367"><ele>41.0</ele><time>2026-03-27T15:07:34.983Z</time></trkpt><trkpt lat="46.0296817" lon="12.4988383"><ele>42.0</ele><time>2026-03-27T15:07:35.984Z</time></trkpt><trkpt lat="46.0298117" lon="12.498945"><ele>43.0</ele><time>2026-03-27T15:07:36.984Z</time></trkpt><trkpt lat="46.029935" lon="12.499045"><ele>44.0</ele><time>2026-03-27T15:07:37.983Z</time></trkpt><trkpt lat="46.0300417" lon="12.499135"><ele>45.0</ele><time>2026-03-27T15:07:38.984Z</time></trkpt><trkpt lat="46.0301217" lon="12.499225"><ele>45.0</ele><time>2026-03-27T15:07:39.983Z</time></trkpt><trkpt lat="46.0301767" lon="12.4993317"><ele>45.0</ele><time>2026-03-27T15:07:40.983Z</time></trkpt><trkpt lat="46.030205" lon="12.4994767"><ele>45.0</ele><time>2026-03-27T15:07:41.985Z</time></trkpt><trkpt lat="46.0302117" lon="12.49965"><ele>45.0</ele><time>2026-03-27T15:07:42.983Z</time></trkpt><trkpt lat="46.0302183" lon="12.4998467"><ele>44.5</ele><time>2026-03-27T15:07:43.984Z</time></trkpt><trkpt lat="46.0302317" lon="12.5000567"><ele>44.0</ele><time>2026-03-27T15:07:44.983Z</time></trkpt><trkpt lat="46.0302533" lon="12.5002617"><ele>43.5</ele><time>2026-03-27T15:07:45.983Z</time></trkpt><trkpt lat="46.030275" lon="12.5004383"><ele>43.0</ele><time>2026-03-27T15:07:46.984Z</time></trkpt><trkpt lat="46.0302983" lon="12.50059"><ele>43.0</ele><time>2026-03-27T15:07:47.983Z</time></trkpt><trkpt lat="46.0303217" lon="12.500715"><ele>43.0</ele><time>2026-03-27T15:07:48.984Z</time></trkpt><trkpt lat="46.0303633" lon="12.5008167"><ele>43.0</ele><time>2026-03-27T15:07:49.983Z</time></trkpt><trkpt lat="46.0304217" lon="12.5009133"><ele>43.0</ele><time>2026-03-27T15:07:50.985Z</time></trkpt><trkpt lat="46.03048" lon="12.5010033"><ele>43.0</ele><time>2026-03-27T15:07:51.983Z</time></trkpt><trkpt lat="46.0305367" lon="12.501085"><ele>43.0</ele><time>2026-03-27T15:07:52.984Z</time></trkpt><trkpt lat="46.03061" lon="12.501225"><ele>43.2</ele><time>2026-03-27T15:07:54.984Z</time></trkpt><trkpt lat="46.03062" lon="12.50141"><ele>43.4</ele><time>2026-03-27T15:07:56.984Z</time></trkpt><trkpt lat="46.030615" lon="12.501505"><ele>43.6</ele><time>2026-03-27T15:07:57.983Z</time></trkpt><trkpt lat="46.0306067" lon="12.501665"><ele>43.800000000000004</ele><time>2026-03-27T15:07:59.983Z</time></trkpt><trkpt lat="46.03061" lon="12.50179"><ele>44.0</ele><time>2026-03-27T15:08:02.986Z</time></trkpt><trkpt lat="46.03069" lon="12.5018183"><ele>44.400000000000006</ele><time>2026-03-27T15:08:05.984Z</time></trkpt><trkpt lat="46.03081" lon="12.50183"><ele>44.8</ele><time>2026-03-27T15:16:12.982Z</time></trkpt><trkpt lat="46.0309133" lon="12.5017967"><ele>45.2</ele><time>2026-03-27T15:22:21.982Z</time></trkpt><trkpt lat="46.0309967" lon="12.5018333"><ele>45.599999999999994</ele><time>2026-03-27T15:22:23.982Z</time></trkpt><trkpt lat="46.0310617" lon="12.5018483"><ele>46.0</ele><time>2026-03-27T15:22:25.983Z</time></trkpt><trkpt lat="46.0311333" lon="12.5018433"><ele>46.0</ele><time>2026-03-27T15:22:28.983Z</time></trkpt><trkpt lat="46.03119" lon="12.5017683"><ele>46.0</ele><time>2026-03-27T15:22:32.983Z</time></trkpt><trkpt lat="46.03127" lon="12.5018767"><ele>46.0</ele><time>2026-03-27T15:22:37.983Z</time></trkpt><trkpt lat="46.031315" lon="12.5019417"><ele>46.0</ele><time>2026-03-27T15:22:38.983Z</time></trkpt><trkpt lat="46.0314033" lon="12.502005"><ele>46.0</ele><time>2026-03-27T15:22:40.983Z</time></trkpt><trkpt lat="46.03151" lon="12.5020833"><ele>46.4</ele><time>2026-03-27T15:22:42.983Z</time></trkpt><trkpt lat="46.0315667" lon="12.5021283"><ele>46.8</ele><time>2026-03-27T15:22:43.983Z</time></trkpt><trkpt lat="46.031645" lon="12.5021883"><ele>47.199999999999996</ele><time>2026-03-27T15:22:44.985Z</time></trkpt><trkpt lat="46.03173" lon="12.5022717"><ele>47.599999999999994</ele><time>2026-03-27T15:22:45.983Z</time></trkpt><trkpt lat="46.031815" lon="12.502355"><ele>48.0</ele><time>2026-03-27T15:22:46.982Z</time></trkpt><trkpt lat="46.0318983" lon="12.50244"><ele>48.0</ele><time>2026-03-27T15:22:47.984Z</time></trkpt><trkpt lat="46.0319817" lon="12.5025167"><ele>48.0</ele><time>2026-03-27T15:22:48.983Z</time></trkpt><trkpt lat="46.0320633" lon="12.5026083"><ele>48.0</ele><time>2026-03-27T15:22:49.984Z</time></trkpt><trkpt lat="46.032145" lon="12.50271"><ele>48.0</ele><time>2026-03-27T15:22:50.984Z</time></trkpt><trkpt lat="46.0322217" lon="12.5028117"><ele>48.0</ele><time>2026-03-27T15:22:51.985Z</time></trkpt><trkpt lat="46.03227" lon="12.5029167"><ele>48.0</ele><time>2026-03-27T15:22:52.983Z</time></trkpt><trkpt lat="46.032325" lon="12.5030283"><ele>48.0</ele><time>2026-03-27T15:22:53.986Z</time></trkpt><trkpt lat="46.0323967" lon="12.5031183"><ele>48.0</ele><time>2026-03-27T15:22:54.984Z</time></trkpt><trkpt lat="46.0324617" lon="12.5032217"><ele>48.0</ele><time>2026-03-27T15:22:55.984Z</time></trkpt><trkpt lat="46.0325233" lon="12.5033133"><ele>48.0</ele><time>2026-03-27T15:22:56.983Z</time></trkpt><trkpt lat="46.0325883" lon="12.5034083"><ele>48.0</ele><time>2026-03-27T15:22:57.983Z</time></trkpt><trkpt lat="46.0326567" lon="12.50348"><ele>48.0</ele><time>2026-03-27T15:22:58.983Z</time></trkpt><trkpt lat="46.0327267" lon="12.5035267"><ele>48.0</ele><time>2026-03-27T15:22:59.983Z</time></trkpt><trkpt lat="46.0328017" lon="12.5035483"><ele>48.0</ele><time>2026-03-27T15:23:00.984Z</time></trkpt><trkpt lat="46.0328917" lon="12.5035367"><ele>48.0</ele><time>2026-03-27T15:23:01.984Z</time></trkpt><trkpt lat="46.0329867" lon="12.5035033"><ele>48.0</ele><time>2026-03-27T15:23:02.984Z</time></trkpt><trkpt lat="46.0330717" lon="12.503465"><ele>48.0</ele><time>2026-03-27T15:23:03.983Z</time></trkpt><trkpt lat="46.0331317" lon="12.5035033"><ele>48.0</ele><time>2026-03-27T15:23:05.983Z</time></trkpt><trkpt lat="46.03312" lon="12.5036317"><ele>48.0</ele><time>2026-03-27T15:23:07.983Z</time></trkpt><trkpt lat="46.0330983" lon="12.50376"><ele>48.0</ele><time>2026-03-27T15:23:09.984Z</time></trkpt><trkpt lat="46.0330717" lon="12.5038683"><ele>48.0</ele><time>2026-03-27T15:23:12.986Z</time></trkpt><trkpt lat="46.0331317" lon="12.5037567"><ele>48.0</ele><time>2026-03-27T15:23:29.984Z</time></trkpt><trkpt lat="46.033135" lon="12.50361"><ele>48.0</ele><time>2026-03-27T15:23:31.983Z</time></trkpt><trkpt lat="46.0331333" lon="12.5035133"><ele>48.0</ele><time>2026-03-27T15:23:33.981Z</time></trkpt><trkpt lat="46.033135" lon="12.503415"><ele>48.0</ele><time>2026-03-27T15:23:36.983Z</time></trkpt><trkpt lat="46.0332333" lon="12.5033683"><ele>48.0</ele><time>2026-03-27T15:23:38.983Z</time></trkpt><trkpt lat="46.0333117" lon="12.5033467"><ele>48.0</ele><time>2026-03-27T15:23:39.983Z</time></trkpt><trkpt lat="46.033405" lon="12.50331"><ele>48.0</ele><time>2026-03-27T15:23:40.983Z</time></trkpt><trkpt lat="46.033505" lon="12.5032667"><ele>48.0</ele><time>2026-03-27T15:23:41.982Z</time></trkpt><trkpt lat="46.0336083" lon="12.5032383"><ele>48.0</ele><time>2026-03-27T15:23:42.982Z</time></trkpt><trkpt lat="46.0337133" lon="12.503235"><ele>48.0</ele><time>2026-03-27T15:23:43.983Z</time></trkpt><trkpt lat="46.0338217" lon="12.50323"><ele>48.0</ele><time>2026-03-27T15:23:44.984Z</time></trkpt><trkpt lat="46.0339283" lon="12.503225"><ele>48.0</ele><time>2026-03-27T15:23:45.982Z</time></trkpt><trkpt lat="46.0340383" lon="12.5032183"><ele>48.8</ele><time>2026-03-27T15:23:46.982Z</time></trkpt><trkpt lat="46.0341483" lon="12.503215"><ele>49.599999999999994</ele><time>2026-03-27T15:23:47.983Z</time></trkpt><trkpt lat="46.0342567" lon="12.5032233"><ele>50.400000000000006</ele><time>2026-03-27T15:23:48.983Z</time></trkpt><trkpt lat="46.0343617" lon="12.5032517"><ele>51.2</ele><time>2026-03-27T15:23:49.986Z</time></trkpt><trkpt lat="46.0344667" lon="12.5033067"><ele>52.0</ele><time>2026-03-27T15:23:50.985Z</time></trkpt><trkpt lat="46.0345567" lon="12.5034017"><ele>52.0</ele><time>2026-03-27T15:23:51.984Z</time></trkpt><trkpt lat="46.03465" lon="12.5035167"><ele>52.0</ele><time>2026-03-27T15:23:52.984Z</time></trkpt><trkpt lat="46.0347433" lon="12.503635"><ele>52.0</ele><time>2026-03-27T15:23:53.984Z</time></trkpt><trkpt lat="46.03483" lon="12.5037567"><ele>52.0</ele><time>2026-03-27T15:23:54.983Z</time></trkpt><trkpt lat="46.0349167" lon="12.5038767"><ele>54.0</ele><time>2026-03-27T15:23:55.983Z</time></trkpt><trkpt lat="46.0350017" lon="12.504005"><ele>56.0</ele><time>2026-03-27T15:23:56.983Z</time></trkpt><trkpt lat="46.0350783" lon="12.50414"><ele>58.0</ele><time>2026-03-27T15:23:57.983Z</time></trkpt><trkpt lat="46.0351483" lon="12.5042917"><ele>60.0</ele><time>2026-03-27T15:23:58.984Z</time></trkpt><trkpt lat="46.035215" lon="12.5044567"><ele>60.0</ele><time>2026-03-27T15:23:59.983Z</time></trkpt><trkpt lat="46.0352817" lon="12.5046183"><ele>60.0</ele><time>2026-03-27T15:24:00.984Z</time></trkpt><trkpt lat="46.03535" lon="12.5047783"><ele>60.0</ele><time>2026-03-27T15:24:01.983Z</time></trkpt><trkpt lat="46.0354183" lon="12.5049367"><ele>60.0</ele><time>2026-03-27T15:24:02.984Z</time></trkpt><trkpt lat="46.035485" lon="12.5050983"><ele>60.0</ele><time>2026-03-27T15:24:03.983Z</time></trkpt><trkpt lat="46.0355533" lon="12.5052617"><ele>60.0</ele><time>2026-03-27T15:24:04.985Z</time></trkpt><trkpt lat="46.0356283" lon="12.5054167"><ele>60.0</ele><time>2026-03-27T15:24:05.983Z</time></trkpt><trkpt lat="46.035695" lon="12.50557"><ele>60.0</ele><time>2026-03-27T15:24:06.982Z</time></trkpt><trkpt lat="46.0357633" lon="12.5057167"><ele>61.0</ele><time>2026-03-27T15:24:07.983Z</time></trkpt><trkpt lat="46.0358417" lon="12.5058567"><ele>62.0</ele><time>2026-03-27T15:24:08.984Z</time></trkpt><trkpt lat="46.0359233" lon="12.5059933"><ele>63.0</ele><time>2026-03-27T15:24:09.982Z</time></trkpt><trkpt lat="46.036" lon="12.5061283"><ele>64.0</ele><time>2026-03-27T15:24:10.989Z</time></trkpt><trkpt lat="46.0360983" lon="12.50624"><ele>64.0</ele><time>2026-03-27T15:24:11.982Z</time></trkpt><trkpt lat="46.0362017" lon="12.5063483"><ele>64.0</ele><time>2026-03-27T15:24:12.982Z</time></trkpt><trkpt lat="46.0363183" lon="12.5064483"><ele>64.0</ele><time>2026-03-27T15:24:13.983Z</time></trkpt><trkpt lat="46.0364283" lon="12.5065567"><ele>64.0</ele><time>2026-03-27T15:24:14.985Z</time></trkpt><trkpt lat="46.0365283" lon="12.506685"><ele>64.0</ele><time>2026-03-27T15:24:15.982Z</time></trkpt><trkpt lat="46.03663" lon="12.5068033"><ele>64.0</ele><time>2026-03-27T15:24:16.984Z</time></trkpt><trkpt lat="46.0367117" lon="12.5069233"><ele>64.0</ele><time>2026-03-27T15:24:17.984Z</time></trkpt><trkpt lat="46.0367867" lon="12.507015"><ele>64.0</ele><time>2026-03-27T15:24:18.983Z</time></trkpt><trkpt lat="46.03684" lon="12.50709"><ele>64.0</ele><time>2026-03-27T15:24:19.983Z</time></trkpt><trkpt lat="46.036905" lon="12.507235"><ele>64.4</ele><time>2026-03-27T15:24:21.982Z</time></trkpt><trkpt lat="46.0369317" lon="12.5073233"><ele>64.80000000000001</ele><time>2026-03-27T15:24:22.983Z</time></trkpt><trkpt lat="46.0369833" lon="12.5074117"><ele>65.19999999999999</ele><time>2026-03-27T15:24:23.982Z</time></trkpt><trkpt lat="46.0370467" lon="12.5075067"><ele>65.6</ele><time>2026-03-27T15:24:24.983Z</time></trkpt><trkpt lat="46.037115" lon="12.5076217"><ele>66.0</ele><time>2026-03-27T15:24:25.984Z</time></trkpt><trkpt lat="46.03718" lon="12.5077433"><ele>66.0</ele><time>2026-03-27T15:24:26.985Z</time></trkpt><trkpt lat="46.0372467" lon="12.507865"><ele>66.0</ele><time>2026-03-27T15:24:27.983Z</time></trkpt><trkpt lat="46.03731" lon="12.5079967"><ele>66.0</ele><time>2026-03-27T15:24:28.982Z</time></trkpt><trkpt lat="46.0373783" lon="12.5081083"><ele>66.0</ele><time>2026-03-27T15:24:29.983Z</time></trkpt><trkpt lat="46.0374396" lon="12.5082089"><ele>66.0</ele><time>2026-03-27T15:24:30.984Z</time></trkpt><trkpt lat="46.0374716" lon="12.5083189"><ele>67.2</ele><time>2026-03-27T15:24:31.985Z</time></trkpt><trkpt lat="46.0374872" lon="12.5084407"><ele>68.39999999999999</ele><time>2026-03-27T15:24:32.984Z</time></trkpt><trkpt lat="46.0375051" lon="12.5085655"><ele>69.6</ele><time>2026-03-27T15:24:33.984Z</time></trkpt><trkpt lat="46.0375284" lon="12.5086942"><ele>70.8</ele><time>2026-03-27T15:24:34.983Z</time></trkpt><trkpt lat="46.0375565" lon="12.508828"><ele>72.0</ele><time>2026-03-27T15:24:35.984Z</time></trkpt><trkpt lat="46.0375931" lon="12.508956"><ele>72.0</ele><time>2026-03-27T15:24:36.984Z</time></trkpt><trkpt lat="46.0376398" lon="12.5090761"><ele>72.0</ele><time>2026-03-27T15:24:37.983Z</time></trkpt><trkpt lat="46.0376964" lon="12.5091862"><ele>72.0</ele><time>2026-03-27T15:24:38.984Z</time></trkpt><trkpt lat="46.0377568" lon="12.50929"><ele>72.0</ele><time>2026-03-27T15:24:39.983Z</time></trkpt><trkpt lat="46.0378102" lon="12.5094016"><ele>72.0</ele><time>2026-03-27T15:24:40.983Z</time></trkpt><trkpt lat="46.0378481" lon="12.5095215"><ele>72.5</ele><time>2026-03-27T15:24:41.984Z</time></trkpt><trkpt lat="46.0378686" lon="12.5096414"><ele>73.0</ele><time>2026-03-27T15:24:42.984Z</time></trkpt><trkpt lat="46.037868" lon="12.5097592"><ele>73.5</ele><time>2026-03-27T15:24:43.985Z</time></trkpt><trkpt lat="46.0378501" lon="12.5098782"><ele>74.0</ele><time>2026-03-27T15:24:44.983Z</time></trkpt><trkpt lat="46.037827" lon="12.5099812"><ele>74.5</ele><time>2026-03-27T15:24:45.982Z</time></trkpt><trkpt lat="46.0378034" lon="12.5100737"><ele>75.0</ele><time>2026-03-27T15:24:46.985Z</time></trkpt><trkpt lat="46.0377631" lon="12.5102414"><ele>75.0</ele><time>2026-03-27T15:24:48.985Z</time></trkpt><trkpt lat="46.0377679" lon="12.5103701"><ele>75.0</ele><time>2026-03-27T15:24:50.983Z</time></trkpt><trkpt lat="46.0378529" lon="12.5103891"><ele>75.0</ele><time>2026-03-27T15:24:52.984Z</time></trkpt><trkpt lat="46.0379249" lon="12.5103925"><ele>75.0</ele><time>2026-03-27T15:24:53.983Z</time></trkpt><trkpt lat="46.038012" lon="12.5104008"><ele>75.0</ele><time>2026-03-27T15:24:54.983Z</time></trkpt><trkpt lat="46.0381135" lon="12.5103999"><ele>75.0</ele><time>2026-03-27T15:24:55.983Z</time></trkpt><trkpt lat="46.0382224" lon="12.5104019"><ele>75.0</ele><time>2026-03-27T15:24:56.983Z</time></trkpt><trkpt lat="46.0383259" lon="12.5104025"><ele>75.0</ele><time>2026-03-27T15:24:57.983Z</time></trkpt><trkpt lat="46.0384177" lon="12.5104105"><ele>75.0</ele><time>2026-03-27T15:24:58.982Z</time></trkpt><trkpt lat="46.0384977" lon="12.5104268"><ele>75.0</ele><time>2026-03-27T15:24:59.985Z</time></trkpt><trkpt lat="46.0385639" lon="12.5104212"><ele>75.0</ele><time>2026-03-27T15:25:00.983Z</time></trkpt><trkpt lat="46.0386538" lon="12.510469"><ele>75.0</ele><time>2026-03-27T15:25:02.983Z</time></trkpt><trkpt lat="46.0387083" lon="12.5105733"><ele>76.0</ele><time>2026-03-27T15:25:04.985Z</time></trkpt><trkpt lat="46.038805" lon="12.51062"><ele>77.0</ele><time>2026-03-27T15:25:06.983Z</time></trkpt><trkpt lat="46.0389133" lon="12.5106083"><ele>78.0</ele><time>2026-03-27T15:25:08.984Z</time></trkpt><trkpt lat="46.03902" lon="12.510655"><ele>79.0</ele><time>2026-03-27T15:25:10.983Z</time></trkpt><trkpt lat="46.0391233" lon="12.5107233"><ele>80.0</ele><time>2026-03-27T15:25:12.983Z</time></trkpt><trkpt lat="46.0391867" lon="12.510755"><ele>80.0</ele><time>2026-03-27T15:25:13.984Z</time></trkpt><trkpt lat="46.0392683" lon="12.5107883"><ele>80.0</ele><time>2026-03-27T15:25:14.984Z</time></trkpt><trkpt lat="46.0393533" lon="12.510835"><ele>80.0</ele><time>2026-03-27T15:25:15.982Z</time></trkpt><trkpt lat="46.0394383" lon="12.510885"><ele>80.0</ele><time>2026-03-27T15:25:16.983Z</time></trkpt><trkpt lat="46.0395133" lon="12.5109517"><ele>80.0</ele><time>2026-03-27T15:25:17.984Z</time></trkpt><trkpt lat="46.03958" lon="12.511025"><ele>80.0</ele><time>2026-03-27T15:25:18.983Z</time></trkpt><trkpt lat="46.0396483" lon="12.5111133"><ele>80.0</ele><time>2026-03-27T15:25:19.983Z</time></trkpt><trkpt lat="46.03972" lon="12.5112233"><ele>80.0</ele><time>2026-03-27T15:25:20.984Z</time></trkpt><trkpt lat="46.0397733" lon="12.5113233"><ele>80.0</ele><time>2026-03-27T15:25:21.984Z</time></trkpt><trkpt lat="46.0398167" lon="12.511405"><ele>80.0</ele><time>2026-03-27T15:25:22.984Z</time></trkpt><trkpt lat="46.0398683" lon="12.5114767"><ele>80.0</ele><time>2026-03-27T15:25:23.983Z</time></trkpt><trkpt lat="46.0399233" lon="12.51155"><ele>80.0</ele><time>2026-03-27T15:25:24.983Z</time></trkpt><trkpt lat="46.0399667" lon="12.5116367"><ele>81.5</ele><time>2026-03-27T15:25:25.984Z</time></trkpt><trkpt lat="46.0400217" lon="12.5117333"><ele>83.0</ele><time>2026-03-27T15:25:26.983Z</time></trkpt><trkpt lat="46.0400717" lon="12.5118267"><ele>84.5</ele><time>2026-03-27T15:25:27.982Z</time></trkpt><trkpt lat="46.040115" lon="12.5118983"><ele>86.0</ele><time>2026-03-27T15:25:28.984Z</time></trkpt><trkpt lat="46.040175" lon="12.5119733"><ele>87.5</ele><time>2026-03-27T15:25:30.983Z</time></trkpt><trkpt lat="46.040255" lon="12.5119983"><ele>89.0</ele><time>2026-03-27T15:25:33.983Z</time></trkpt><trkpt lat="46.04033" lon="12.51199"><ele>89.0</ele><time>2026-03-27T15:25:35.983Z</time></trkpt><trkpt lat="46.0403917" lon="12.5120533"><ele>89.0</ele><time>2026-03-27T15:25:37.983Z</time></trkpt><trkpt lat="46.0404767" lon="12.5121783"><ele>89.0</ele><time>2026-03-27T15:25:39.983Z</time></trkpt><trkpt lat="46.04052" lon="12.5122533"><ele>89.0</ele><time>2026-03-27T15:25:40.985Z</time></trkpt><trkpt lat="46.040565" lon="12.5123367"><ele>89.0</ele><time>2026-03-27T15:25:41.983Z</time></trkpt><trkpt lat="46.0406167" lon="12.5124283"><ele>89.0</ele><time>2026-03-27T15:25:42.984Z</time></trkpt><trkpt lat="46.04067" lon="12.5125133"><ele>88.4</ele><time>2026-03-27T15:25:43.984Z</time></trkpt><trkpt lat="46.04072" lon="12.51259"><ele>87.80000000000001</ele><time>2026-03-27T15:25:44.984Z</time></trkpt><trkpt lat="46.0408167" lon="12.5126933"><ele>87.19999999999999</ele><time>2026-03-27T15:25:46.983Z</time></trkpt><trkpt lat="46.0409083" lon="12.5127767"><ele>86.6</ele><time>2026-03-27T15:25:48.984Z</time></trkpt><trkpt lat="46.04099" lon="12.512845"><ele>86.0</ele><time>2026-03-27T15:25:50.983Z</time></trkpt><trkpt lat="46.0410633" lon="12.5129117"><ele>87.0</ele><time>2026-03-27T15:25:52.989Z</time></trkpt><trkpt lat="46.0411417" lon="12.5129833"><ele>88.0</ele><time>2026-03-27T15:25:54.983Z</time></trkpt><trkpt lat="46.0412" lon="12.5130633"><ele>89.0</ele><time>2026-03-27T15:25:56.983Z</time></trkpt><trkpt lat="46.0411817" lon="12.5132067"><ele>90.0</ele><time>2026-03-27T15:25:59.984Z</time></trkpt><trkpt lat="46.041185" lon="12.5133117"><ele>91.0</ele><time>2026-03-27T15:26:01.984Z</time></trkpt><trkpt lat="46.0412433" lon="12.5134"><ele>92.0</ele><time>2026-03-27T15:26:03.983Z</time></trkpt><trkpt lat="46.0413383" lon="12.5134383"><ele>92.0</ele><time>2026-03-27T15:26:05.983Z</time></trkpt><trkpt lat="46.0414267" lon="12.513475"><ele>92.0</ele><time>2026-03-27T15:26:07.983Z</time></trkpt><trkpt lat="46.0415033" lon="12.5135483"><ele>92.0</ele><time>2026-03-27T15:26:09.984Z</time></trkpt><trkpt lat="46.0415383" lon="12.5136517"><ele>92.0</ele><time>2026-03-27T15:26:11.983Z</time></trkpt><trkpt lat="46.041585" lon="12.513765"><ele>92.0</ele><time>2026-03-27T15:26:13.984Z</time></trkpt><trkpt lat="46.0416033" lon="12.5138667"><ele>92.0</ele><time>2026-03-27T15:26:15.983Z</time></trkpt><trkpt lat="46.0416133" lon="12.513985"><ele>91.8</ele><time>2026-03-27T15:26:17.984Z</time></trkpt><trkpt lat="46.0416483" lon="12.5140633"><ele>91.6</ele><time>2026-03-27T15:26:19.985Z</time></trkpt><trkpt lat="46.0417183" lon="12.5141217"><ele>91.39999999999999</ele><time>2026-03-27T15:26:21.983Z</time></trkpt><trkpt lat="46.0418367" lon="12.514225"><ele>91.19999999999999</ele><time>2026-03-27T15:26:23.984Z</time></trkpt><trkpt lat="46.0419283" lon="12.5143117"><ele>91.0</ele><time>2026-03-27T15:26:24.982Z</time></trkpt><trkpt lat="46.042005" lon="12.5143933"><ele>91.0</ele><time>2026-03-27T15:26:25.984Z</time></trkpt><trkpt lat="46.04207" lon="12.5144817"><ele>91.0</ele><time>2026-03-27T15:26:26.983Z</time></trkpt><trkpt lat="46.04213" lon="12.51456"><ele>91.0</ele><time>2026-03-27T15:26:27.983Z</time></trkpt><trkpt lat="46.042185" lon="12.5146133"><ele>91.0</ele><time>2026-03-27T15:26:28.984Z</time></trkpt><trkpt lat="46.0422617" lon="12.5146983"><ele>91.0</ele><time>2026-03-27T15:26:30.987Z</time></trkpt><trkpt lat="46.04231" lon="12.5147617"><ele>91.0</ele><time>2026-03-27T15:26:31.987Z</time></trkpt><trkpt lat="46.0423633" lon="12.5148417"><ele>92.19999999999999</ele><time>2026-03-27T15:26:32.984Z</time></trkpt><trkpt lat="46.0424133" lon="12.5149383"><ele>93.39999999999999</ele><time>2026-03-27T15:26:33.984Z</time></trkpt><trkpt lat="46.04245" lon="12.5150733"><ele>94.6</ele><time>2026-03-27T15:26:34.983Z</time></trkpt><trkpt lat="46.0424717" lon="12.5152167"><ele>95.8</ele><time>2026-03-27T15:26:35.983Z</time></trkpt><trkpt lat="46.0424983" lon="12.5153467"><ele>97.0</ele><time>2026-03-27T15:26:36.984Z</time></trkpt><trkpt lat="46.042525" lon="12.51546"><ele>97.14285714285714</ele><time>2026-03-27T15:26:37.984Z</time></trkpt><trkpt lat="46.0425417" lon="12.5155567"><ele>97.28571428571429</ele><time>2026-03-27T15:26:38.985Z</time></trkpt><trkpt lat="46.0425417" lon="12.51565"><ele>97.42857142857143</ele><time>2026-03-27T15:26:39.986Z</time></trkpt><trkpt lat="46.0425367" lon="12.51576"><ele>97.57142857142857</ele><time>2026-03-27T15:26:41.983Z</time></trkpt><trkpt lat="46.0425717" lon="12.515855"><ele>97.71428571428572</ele><time>2026-03-27T15:26:44.983Z</time></trkpt><trkpt lat="46.042615" lon="12.5159683"><ele>97.85714285714286</ele><time>2026-03-27T15:26:46.983Z</time></trkpt><trkpt lat="46.0426483" lon="12.51605"><ele>98.0</ele><time>2026-03-27T15:26:47.982Z</time></trkpt><trkpt lat="46.04268" lon="12.5161317"><ele>98.0</ele><time>2026-03-27T15:26:48.982Z</time></trkpt><trkpt lat="46.0427083" lon="12.5162217"><ele>98.0</ele><time>2026-03-27T15:26:49.984Z</time></trkpt><trkpt lat="46.0427783" lon="12.5163617"><ele>98.0</ele><time>2026-03-27T15:26:51.982Z</time></trkpt><trkpt lat="46.0428383" lon="12.51649"><ele>98.0</ele><time>2026-03-27T15:26:53.982Z</time></trkpt><trkpt lat="46.042895" lon="12.51664"><ele>98.0</ele><time>2026-03-27T15:26:55.982Z</time></trkpt><trkpt lat="46.042945" lon="12.5167633"><ele>98.80000000000001</ele><time>2026-03-27T15:26:57.982Z</time></trkpt><trkpt lat="46.0430167" lon="12.5168933"><ele>99.6</ele><time>2026-03-27T15:26:59.982Z</time></trkpt><trkpt lat="46.04308" lon="12.5169967"><ele>100.4</ele><time>2026-03-27T15:27:01.983Z</time></trkpt><trkpt lat="46.0431183" lon="12.5171467"><ele>101.19999999999999</ele><time>2026-03-27T15:27:03.982Z</time></trkpt><trkpt lat="46.04317" lon="12.5172983"><ele>102.0</ele><time>2026-03-27T15:27:05.982Z</time></trkpt><trkpt lat="46.0432033" lon="12.5173933"><ele>102.5</ele><time>2026-03-27T15:27:06.982Z</time></trkpt><trkpt lat="46.0432417" lon="12.5174817"><ele>103.0</ele><time>2026-03-27T15:27:07.982Z</time></trkpt><trkpt lat="46.043275" lon="12.5175817"><ele>103.5</ele><time>2026-03-27T15:27:08.984Z</time></trkpt><trkpt lat="46.0432983" lon="12.5176917"><ele>104.0</ele><time>2026-03-27T15:27:09.982Z</time></trkpt><trkpt lat="46.0433117" lon="12.5178017"><ele>104.5</ele><time>2026-03-27T15:27:10.985Z</time></trkpt><trkpt lat="46.0433233" lon="12.5179217"><ele>105.0</ele><time>2026-03-27T15:27:11.984Z</time></trkpt><trkpt lat="46.0433317" lon="12.5180267"><ele>105.4</ele><time>2026-03-27T15:27:12.982Z</time></trkpt><trkpt lat="46.0433233" lon="12.5181633"><ele>105.8</ele><time>2026-03-27T15:27:14.984Z</time></trkpt><trkpt lat="46.0432667" lon="12.5182733"><ele>106.19999999999999</ele><time>2026-03-27T15:27:17.983Z</time></trkpt><trkpt lat="46.0432606" lon="12.5183811"><ele>106.6</ele><time>2026-03-27T15:27:19.983Z</time></trkpt><trkpt lat="46.0432943" lon="12.518557"><ele>107.0</ele><time>2026-03-27T15:27:21.982Z</time></trkpt><trkpt lat="46.0433231" lon="12.5186621"><ele>107.39999999999999</ele><time>2026-03-27T15:27:22.985Z</time></trkpt><trkpt lat="46.0433526" lon="12.5187781"><ele>107.79999999999998</ele><time>2026-03-27T15:27:23.982Z</time></trkpt><trkpt lat="46.043384" lon="12.5188995"><ele>108.2</ele><time>2026-03-27T15:27:24.983Z</time></trkpt><trkpt lat="46.0434149" lon="12.5190298"><ele>108.6</ele><time>2026-03-27T15:27:25.985Z</time></trkpt><trkpt lat="46.0434434" lon="12.5191613"><ele>109.0</ele><time>2026-03-27T15:27:26.983Z</time></trkpt><trkpt lat="46.0434724" lon="12.5192887"><ele>109.0</ele><time>2026-03-27T15:27:27.983Z</time></trkpt><trkpt lat="46.043509" lon="12.5194054"><ele>109.0</ele><time>2026-03-27T15:27:28.981Z</time></trkpt><trkpt lat="46.0435621" lon="12.5195378"><ele>109.0</ele><time>2026-03-27T15:27:29.982Z</time></trkpt><trkpt lat="46.0436237" lon="12.5196622"><ele>109.0</ele><time>2026-03-27T15:27:30.982Z</time></trkpt><trkpt lat="46.0436902" lon="12.5197794"><ele>109.0</ele><time>2026-03-27T15:27:31.982Z</time></trkpt><trkpt lat="46.0437472" lon="12.5198821"><ele>110.00000000000001</ele><time>2026-03-27T15:27:32.983Z</time></trkpt><trkpt lat="46.0437817" lon="12.5199749"><ele>111.0</ele><time>2026-03-27T15:27:33.984Z</time></trkpt><trkpt lat="46.0437979" lon="12.5201322"><ele>112.0</ele><time>2026-03-27T15:27:35.984Z</time></trkpt><trkpt lat="46.0438239" lon="12.5202384"><ele>113.0</ele><time>2026-03-27T15:27:37.983Z</time></trkpt><trkpt lat="46.0439057" lon="12.5202762"><ele>114.00000000000001</ele><time>2026-03-27T15:27:39.983Z</time></trkpt><trkpt lat="46.0439723" lon="12.520288"><ele>115.0</ele><time>2026-03-27T15:27:40.982Z</time></trkpt><trkpt lat="46.0440484" lon="12.5203075"><ele>115.0</ele><time>2026-03-27T15:27:41.982Z</time></trkpt><trkpt lat="46.0441262" lon="12.5203515"><ele>115.0</ele><time>2026-03-27T15:27:42.982Z</time></trkpt><trkpt lat="46.044197" lon="12.5204351"><ele>115.0</ele><time>2026-03-27T15:27:43.983Z</time></trkpt><trkpt lat="46.0442645" lon="12.5205562"><ele>115.0</ele><time>2026-03-27T15:27:44.982Z</time></trkpt><trkpt lat="46.044328" lon="12.5206979"><ele>115.0</ele><time>2026-03-27T15:27:45.983Z</time></trkpt><trkpt lat="46.0443852" lon="12.5208343"><ele>115.50000000000001</ele><time>2026-03-27T15:27:46.982Z</time></trkpt><trkpt lat="46.0444344" lon="12.5209634"><ele>116.0</ele><time>2026-03-27T15:27:47.982Z</time></trkpt><trkpt lat="46.0444688" lon="12.5210782"><ele>116.5</ele><time>2026-03-27T15:27:48.982Z</time></trkpt><trkpt lat="46.0444982" lon="12.5211891"><ele>117.0</ele><time>2026-03-27T15:27:49.986Z</time></trkpt><trkpt lat="46.044537" lon="12.5213014"><ele>117.50000000000001</ele><time>2026-03-27T15:27:50.982Z</time></trkpt><trkpt lat="46.044581" lon="12.5214077"><ele>118.0</ele><time>2026-03-27T15:27:51.982Z</time></trkpt><trkpt lat="46.0446328" lon="12.5215004"><ele>118.57142857142857</ele><time>2026-03-27T15:27:52.981Z</time></trkpt><trkpt lat="46.0446731" lon="12.5215854"><ele>119.14285714285714</ele><time>2026-03-27T15:27:53.983Z</time></trkpt><trkpt lat="46.0447048" lon="12.5216701"><ele>119.71428571428571</ele><time>2026-03-27T15:27:54.982Z</time></trkpt><trkpt lat="46.0447333" lon="12.5217538"><ele>120.28571428571428</ele><time>2026-03-27T15:27:55.982Z</time></trkpt><trkpt lat="46.0447607" lon="12.5218564"><ele>120.85714285714286</ele><time>2026-03-27T15:27:57.982Z</time></trkpt><trkpt lat="46.0447649" lon="12.5219691"><ele>121.42857142857142</ele><time>2026-03-27T15:28:00.983Z</time></trkpt><trkpt lat="46.0447467" lon="12.521845"><ele>121.99999999999999</ele><time>2026-03-27T15:28:37.981Z</time></trkpt><trkpt lat="46.0447121" lon="12.5216613"><ele>121.99999999999999</ele><time>2026-03-27T15:29:01.982Z</time></trkpt><trkpt lat="46.0446665" lon="12.5215757"><ele>122.0</ele><time>2026-03-27T15:29:08.988Z</time></trkpt><trkpt lat="46.0447435" lon="12.5215353"><ele>122.0</ele><time>2026-03-27T15:29:18.983Z</time></trkpt><trkpt lat="46.0448135" lon="12.5215277"><ele>122.0</ele><time>2026-03-27T15:29:21.057Z</time></trkpt><trkpt lat="46.0448839" lon="12.521567"><ele>121.99999999999999</ele><time>2026-03-27T15:29:23.056Z</time></trkpt><trkpt lat="46.04496" lon="12.5216083"><ele>122.0</ele><time>2026-03-27T15:29:24.985Z</time></trkpt><trkpt lat="46.0450317" lon="12.52175"><ele>121.99999999999999</ele><time>2026-03-27T15:29:25.982Z</time></trkpt><trkpt lat="46.045065" lon="12.5218333"><ele>122.0</ele><time>2026-03-27T15:29:27.981Z</time></trkpt><trkpt lat="46.045145" lon="12.5218883"><ele>122.0</ele><time>2026-03-27T15:29:37.982Z</time></trkpt><trkpt lat="46.04518" lon="12.521975"><ele>122.0</ele><time>2026-03-27T15:29:38.983Z</time></trkpt><trkpt lat="46.0452217" lon="12.522085"><ele>121.99999999999999</ele><time>2026-03-27T15:29:39.983Z</time></trkpt><trkpt lat="46.0452717" lon="12.5222117"><ele>122.0</ele><time>2026-03-27T15:29:41.984Z</time></trkpt><trkpt lat="46.0453417" lon="12.52232"><ele>121.99999999999999</ele><time>2026-03-27T15:29:43.982Z</time></trkpt><trkpt lat="46.0453867" lon="12.5223967"><ele>122.0</ele><time>2026-03-27T15:29:44.982Z</time></trkpt><trkpt lat="46.0454383" lon="12.5224567"><ele>122.0</ele><time>2026-03-27T15:29:45.982Z</time></trkpt><trkpt lat="46.04552" lon="12.5225367"><ele>122.0</ele><time>2026-03-27T15:29:47.982Z</time></trkpt><trkpt lat="46.045605" lon="12.52258"><ele>121.99999999999999</ele><time>2026-03-27T15:29:49.982Z</time></trkpt><trkpt lat="46.04568" lon="12.5226117"><ele>122.0</ele><time>2026-03-27T15:29:51.982Z</time></trkpt><trkpt lat="46.045745" lon="12.5225883"><ele>121.99999999999999</ele><time>2026-03-27T15:29:53.983Z</time></trkpt><trkpt lat="46.0457617" lon="12.52243"><ele>122.0</ele><time>2026-03-27T15:29:56.984Z</time></trkpt><trkpt lat="46.0457" lon="12.52231"><ele>122.0</ele><time>2026-03-27T15:29:58.983Z</time></trkpt><trkpt lat="46.0456483" lon="12.5222533"><ele>122.0</ele><time>2026-03-27T15:29:59.983Z</time></trkpt><trkpt lat="46.0455983" lon="12.5221917"><ele>121.99999999999999</ele><time>2026-03-27T15:30:00.982Z</time></trkpt><trkpt lat="46.045555" lon="12.5220617"><ele>122.0</ele><time>2026-03-27T15:30:02.984Z</time></trkpt><trkpt lat="46.045595" lon="12.52198"><ele>121.83333333333333</ele><time>2026-03-27T15:30:04.982Z</time></trkpt><trkpt lat="46.04566" lon="12.5219883"><ele>121.66666666666666</ele><time>2026-03-27T15:30:05.985Z</time></trkpt><trkpt lat="46.0457467" lon="12.5220383"><ele>121.5</ele><time>2026-03-27T15:30:06.984Z</time></trkpt><trkpt lat="46.0458133" lon="12.522095"><ele>121.33333333333334</ele><time>2026-03-27T15:30:07.985Z</time></trkpt><trkpt lat="46.0458883" lon="12.5221667"><ele>121.16666666666667</ele><time>2026-03-27T15:30:09.983Z</time></trkpt><trkpt lat="46.0459867" lon="12.52227"><ele>121.0</ele><time>2026-03-27T15:32:09.981Z</time></trkpt><trkpt lat="46.0460383" lon="12.5223417"><ele>123.0</ele><time>2026-03-27T15:32:10.982Z</time></trkpt><trkpt lat="46.046105" lon="12.52243"><ele>125.0</ele><time>2026-03-27T15:32:11.982Z</time></trkpt><trkpt lat="46.0461817" lon="12.5225367"><ele>127.0</ele><time>2026-03-27T15:32:12.984Z</time></trkpt><trkpt lat="46.04626" lon="12.5226683"><ele>129.0</ele><time>2026-03-27T15:32:13.982Z</time></trkpt><trkpt lat="46.0463417" lon="12.5228267"><ele>128.8</ele><time>2026-03-27T15:32:14.984Z</time></trkpt><trkpt lat="46.0464133" lon="12.522975"><ele>128.60000000000002</ele><time>2026-03-27T15:32:15.984Z</time></trkpt><trkpt lat="46.0464633" lon="12.5230867"><ele>128.4</ele><time>2026-03-27T15:32:16.983Z</time></trkpt><trkpt lat="46.0465167" lon="12.52318"><ele>128.20000000000002</ele><time>2026-03-27T15:32:17.981Z</time></trkpt><trkpt lat="46.04659" lon="12.5232633"><ele>128.0</ele><time>2026-03-27T15:32:18.982Z</time></trkpt><trkpt lat="46.0466883" lon="12.52333"><ele>129.33333333333331</ele><time>2026-03-27T15:32:19.984Z</time></trkpt><trkpt lat="46.0468083" lon="12.523395"><ele>130.66666666666666</ele><time>2026-03-27T15:32:20.983Z</time></trkpt><trkpt lat="46.046955" lon="12.523465"><ele>132.0</ele><time>2026-03-27T15:32:21.983Z</time></trkpt><trkpt lat="46.047115" lon="12.523545"><ele>132.0</ele><time>2026-03-27T15:32:22.982Z</time></trkpt><trkpt lat="46.04727" lon="12.5236367"><ele>132.0</ele><time>2026-03-27T15:32:23.984Z</time></trkpt><trkpt lat="46.0474033" lon="12.52373"><ele>132.0</ele><time>2026-03-27T15:32:24.983Z</time></trkpt><trkpt lat="46.0475117" lon="12.5238133"><ele>132.0</ele><time>2026-03-27T15:32:25.982Z</time></trkpt><trkpt lat="46.047595" lon="12.5238733"><ele>133.28571428571428</ele><time>2026-03-27T15:32:26.983Z</time></trkpt><trkpt lat="46.0476667" lon="12.523905"><ele>134.57142857142858</ele><time>2026-03-27T15:32:27.982Z</time></trkpt><trkpt lat="46.0477233" lon="12.523945"><ele>135.85714285714286</ele><time>2026-03-27T15:32:28.982Z</time></trkpt><trkpt lat="46.047785" lon="12.5239967"><ele>137.14285714285714</ele><time>2026-03-27T15:32:29.984Z</time></trkpt><trkpt lat="46.0478417" lon="12.5240667"><ele>138.42857142857142</ele><time>2026-03-27T15:32:30.982Z</time></trkpt><trkpt lat="46.0478933" lon="12.5241517"><ele>139.71428571428572</ele><time>2026-03-27T15:32:31.984Z</time></trkpt><trkpt lat="46.047935" lon="12.5242333"><ele>141.0</ele><time>2026-03-27T15:32:32.983Z</time></trkpt><trkpt lat="46.047975" lon="12.524305"><ele>141.0</ele><time>2026-03-27T15:32:33.982Z</time></trkpt><trkpt lat="46.04806" lon="12.5244"><ele>141.0</ele><time>2026-03-27T15:32:35.986Z</time></trkpt><trkpt lat="46.0481283" lon="12.5244867"><ele>141.0</ele><time>2026-03-27T15:32:37.985Z</time></trkpt><trkpt lat="46.0482017" lon="12.524595"><ele>141.0</ele><time>2026-03-27T15:32:39.982Z</time></trkpt><trkpt lat="46.0482283" lon="12.5246883"><ele>141.0</ele><time>2026-03-27T15:32:41.982Z</time></trkpt><trkpt lat="46.048225" lon="12.5248183"><ele>141.33333333333334</ele><time>2026-03-27T15:32:44.984Z</time></trkpt><trkpt lat="46.0482252" lon="12.524945"><ele>141.66666666666666</ele><time>2026-03-27T15:32:48.959Z</time></trkpt><trkpt lat="46.0482376" lon="12.5250557"><ele>142.0</ele><time>2026-03-27T15:32:50.986Z</time></trkpt><trkpt lat="46.0482572" lon="12.5251528"><ele>142.33333333333331</ele><time>2026-03-27T15:32:55.066Z</time></trkpt><trkpt lat="46.0482158" lon="12.5252327"><ele>142.66666666666666</ele><time>2026-03-27T15:32:58.015Z</time></trkpt><trkpt lat="46.0481606" lon="12.525295"><ele>143.0</ele><time>2026-03-27T15:33:00.983Z</time></trkpt><trkpt lat="46.0481533" lon="12.5254033"><ele>143.8</ele><time>2026-03-27T15:33:03.982Z</time></trkpt><trkpt lat="46.04822" lon="12.52548"><ele>144.60000000000002</ele><time>2026-03-27T15:33:06.984Z</time></trkpt><trkpt lat="46.0482883" lon="12.52555"><ele>145.39999999999998</ele><time>2026-03-27T15:33:08.983Z</time></trkpt><trkpt lat="46.04839" lon="12.5256133"><ele>146.2</ele><time>2026-03-27T15:33:10.985Z</time></trkpt><trkpt lat="46.0485117" lon="12.5256683"><ele>147.0</ele><time>2026-03-27T15:33:12.982Z</time></trkpt><trkpt lat="46.0486756" lon="12.5257166"><ele>147.16666666666666</ele><time>2026-03-27T15:33:14.985Z</time></trkpt><trkpt lat="46.0487615" lon="12.5257329"><ele>147.33333333333334</ele><time>2026-03-27T15:33:15.982Z</time></trkpt><trkpt lat="46.048851" lon="12.5257449"><ele>147.5</ele><time>2026-03-27T15:33:16.983Z</time></trkpt><trkpt lat="46.0489282" lon="12.5257579"><ele>147.66666666666669</ele><time>2026-03-27T15:33:17.983Z</time></trkpt><trkpt lat="46.0490036" lon="12.5257709"><ele>147.83333333333334</ele><time>2026-03-27T15:33:18.982Z</time></trkpt><trkpt lat="46.049082" lon="12.5257766"><ele>148.0</ele><time>2026-03-27T15:33:19.983Z</time></trkpt><trkpt lat="46.0491509" lon="12.5257747"><ele>148.6</ele><time>2026-03-27T15:33:20.983Z</time></trkpt><trkpt lat="46.0492451" lon="12.5257968"><ele>149.20000000000002</ele><time>2026-03-27T15:33:22.984Z</time></trkpt><trkpt lat="46.0492853" lon="12.5259184"><ele>149.8</ele><time>2026-03-27T15:33:25.982Z</time></trkpt><trkpt lat="46.0492741" lon="12.526063"><ele>150.4</ele><time>2026-03-27T15:33:27.983Z</time></trkpt><trkpt lat="46.049265" lon="12.5261847"><ele>151.0</ele><time>2026-03-27T15:33:29.982Z</time></trkpt><trkpt lat="46.0492549" lon="12.5262981"><ele>151.66666666666669</ele><time>2026-03-27T15:33:32.984Z</time></trkpt><trkpt lat="46.0493217" lon="12.5263433"><ele>152.33333333333334</ele><time>2026-03-27T15:33:35.983Z</time></trkpt><trkpt lat="46.0494033" lon="12.5263983"><ele>153.0</ele><time>2026-03-27T15:33:37.983Z</time></trkpt><trkpt lat="46.0494533" lon="12.5265017"><ele>153.66666666666666</ele><time>2026-03-27T15:33:39.982Z</time></trkpt><trkpt lat="46.04948" lon="12.5265983"><ele>154.33333333333331</ele><time>2026-03-27T15:33:41.982Z</time></trkpt><trkpt lat="46.0495267" lon="12.52666"><ele>155.0</ele><time>2026-03-27T15:33:43.983Z</time></trkpt><trkpt lat="46.049585" lon="12.5267033"><ele>155.0</ele><time>2026-03-27T15:33:45.982Z</time></trkpt><trkpt lat="46.0496717" lon="12.52676"><ele>155.0</ele><time>2026-03-27T15:33:47.981Z</time></trkpt><trkpt lat="46.0497083" lon="12.52686"><ele>155.0</ele><time>2026-03-27T15:33:49.982Z</time></trkpt><trkpt lat="46.0497134" lon="12.5269814"><ele>155.0</ele><time>2026-03-27T15:33:52.983Z</time></trkpt><trkpt lat="46.0497684" lon="12.5270524"><ele>155.0</ele><time>2026-03-27T15:33:54.983Z</time></trkpt><trkpt lat="46.0498167" lon="12.5271617"><ele>155.0</ele><time>2026-03-27T15:33:56.982Z</time></trkpt><trkpt lat="46.04986" lon="12.527275"><ele>155.33333333333331</ele><time>2026-03-27T15:33:58.983Z</time></trkpt><trkpt lat="46.0499033" lon="12.527365"><ele>155.66666666666666</ele><time>2026-03-27T15:34:00.982Z</time></trkpt><trkpt lat="46.049965" lon="12.5274733"><ele>156.0</ele><time>2026-03-27T15:34:02.985Z</time></trkpt><trkpt lat="46.0500267" lon="12.5275983"><ele>156.33333333333334</ele><time>2026-03-27T15:34:04.984Z</time></trkpt><trkpt lat="46.0500733" lon="12.5276817"><ele>156.66666666666669</ele><time>2026-03-27T15:34:06.982Z</time></trkpt><trkpt lat="46.0501167" lon="12.5277917"><ele>157.0</ele><time>2026-03-27T15:34:09.982Z</time></trkpt><trkpt lat="46.0501483" lon="12.5278767"><ele>158.16666666666669</ele><time>2026-03-27T15:34:11.983Z</time></trkpt><trkpt lat="46.0501867" lon="12.5279567"><ele>159.33333333333334</ele><time>2026-03-27T15:34:13.982Z</time></trkpt><trkpt lat="46.0502167" lon="12.528065"><ele>160.5</ele><time>2026-03-27T15:34:15.982Z</time></trkpt><trkpt lat="46.05022" lon="12.5281783"><ele>161.66666666666666</ele><time>2026-03-27T15:34:17.982Z</time></trkpt><trkpt lat="46.0502317" lon="12.5282867"><ele>162.83333333333331</ele><time>2026-03-27T15:34:19.982Z</time></trkpt><trkpt lat="46.0502117" lon="12.5284383"><ele>164.0</ele><time>2026-03-27T15:34:21.982Z</time></trkpt><trkpt lat="46.0501983" lon="12.528565"><ele>163.99999999999997</ele><time>2026-03-27T15:34:23.983Z</time></trkpt><trkpt lat="46.0501917" lon="12.52868"><ele>164.0</ele><time>2026-03-27T15:34:25.985Z</time></trkpt><trkpt lat="46.0501767" lon="12.528785"><ele>164.0</ele><time>2026-03-27T15:34:27.982Z</time></trkpt><trkpt lat="46.0501833" lon="12.5289033"><ele>164.0</ele><time>2026-03-27T15:34:29.983Z</time></trkpt><trkpt lat="46.0502067" lon="12.52899"><ele>164.0</ele><time>2026-03-27T15:34:33.982Z</time></trkpt><trkpt lat="46.0502083" lon="12.5290817"><ele>163.99999999999997</ele><time>2026-03-27T15:34:35.982Z</time></trkpt><trkpt lat="46.0501933" lon="12.5291883"><ele>164.0</ele><time>2026-03-27T15:34:37.982Z</time></trkpt><trkpt lat="46.0501883" lon="12.529295"><ele>164.79999999999998</ele><time>2026-03-27T15:34:39.982Z</time></trkpt><trkpt lat="46.0502567" lon="12.5293267"><ele>165.6</ele><time>2026-03-27T15:34:43.984Z</time></trkpt><trkpt lat="46.0503383" lon="12.5293317"><ele>166.4</ele><time>2026-03-27T15:34:50.983Z</time></trkpt><trkpt lat="46.0504783" lon="12.5293633"><ele>167.2</ele><time>2026-03-27T15:34:52.984Z</time></trkpt><trkpt lat="46.0505683" lon="12.52938"><ele>168.0</ele><time>2026-03-27T15:34:53.983Z</time></trkpt><trkpt lat="46.0506767" lon="12.5294017"><ele>168.5</ele><time>2026-03-27T15:34:54.983Z</time></trkpt><trkpt lat="46.0508083" lon="12.5294217"><ele>169.0</ele><time>2026-03-27T15:34:55.983Z</time></trkpt><trkpt lat="46.0509483" lon="12.5294483"><ele>169.5</ele><time>2026-03-27T15:34:56.983Z</time></trkpt><trkpt lat="46.0511033" lon="12.52948"><ele>170.0</ele><time>2026-03-27T15:34:57.983Z</time></trkpt><trkpt lat="46.0512583" lon="12.5295217"><ele>170.0</ele><time>2026-03-27T15:34:58.985Z</time></trkpt><trkpt lat="46.051385" lon="12.529555"><ele>170.0</ele><time>2026-03-27T15:34:59.983Z</time></trkpt><trkpt lat="46.051485" lon="12.5295817"><ele>170.0</ele><time>2026-03-27T15:35:00.983Z</time></trkpt><trkpt lat="46.0515667" lon="12.5296017"><ele>170.0</ele><time>2026-03-27T15:35:01.984Z</time></trkpt><trkpt lat="46.051635" lon="12.5296367"><ele>170.0</ele><time>2026-03-27T15:35:02.984Z</time></trkpt><trkpt lat="46.0516917" lon="12.5296783"><ele>170.0</ele><time>2026-03-27T15:35:03.982Z</time></trkpt><trkpt lat="46.0517217" lon="12.529785"><ele>170.83333333333331</ele><time>2026-03-27T15:35:05.985Z</time></trkpt><trkpt lat="46.05168" lon="12.5299367"><ele>171.66666666666666</ele><time>2026-03-27T15:35:07.983Z</time></trkpt><trkpt lat="46.051635" lon="12.5300383"><ele>172.5</ele><time>2026-03-27T15:35:08.983Z</time></trkpt><trkpt lat="46.0516033" lon="12.5301283"><ele>173.33333333333334</ele><time>2026-03-27T15:35:09.983Z</time></trkpt><trkpt lat="46.0515783" lon="12.5302267"><ele>174.16666666666669</ele><time>2026-03-27T15:35:10.983Z</time></trkpt><trkpt lat="46.051565" lon="12.5303283"><ele>175.0</ele><time>2026-03-27T15:35:11.982Z</time></trkpt><trkpt lat="46.0516267" lon="12.53051"><ele>177.2</ele><time>2026-03-27T15:35:13.983Z</time></trkpt><trkpt lat="46.0516983" lon="12.53062"><ele>179.4</ele><time>2026-03-27T15:35:14.983Z</time></trkpt><trkpt lat="46.0517783" lon="12.53073"><ele>181.60000000000002</ele><time>2026-03-27T15:35:15.982Z</time></trkpt><trkpt lat="46.0518533" lon="12.53083"><ele>183.8</ele><time>2026-03-27T15:35:16.983Z</time></trkpt><trkpt lat="46.0519283" lon="12.5309367"><ele>186.0</ele><time>2026-03-27T15:35:17.982Z</time></trkpt><trkpt lat="46.0520017" lon="12.5310117"><ele>186.0</ele><time>2026-03-27T15:35:18.982Z</time></trkpt><trkpt lat="46.0520683" lon="12.5310933"><ele>186.0</ele><time>2026-03-27T15:35:19.987Z</time></trkpt><trkpt lat="46.0521317" lon="12.5311517"><ele>186.0</ele><time>2026-03-27T15:35:20.983Z</time></trkpt><trkpt lat="46.0522017" lon="12.5312267"><ele>186.0</ele><time>2026-03-27T15:35:21.982Z</time></trkpt><trkpt lat="46.0522767" lon="12.53129"><ele>186.0</ele><time>2026-03-27T15:35:22.985Z</time></trkpt><trkpt lat="46.0523483" lon="12.5313483"><ele>186.0</ele><time>2026-03-27T15:35:23.985Z</time></trkpt><trkpt lat="46.0524117" lon="12.5313983"><ele>186.83333333333334</ele><time>2026-03-27T15:35:24.982Z</time></trkpt><trkpt lat="46.05247" lon="12.5314483"><ele>187.66666666666666</ele><time>2026-03-27T15:35:25.984Z</time></trkpt><trkpt lat="46.052565" lon="12.531555"><ele>188.5</ele><time>2026-03-27T15:35:27.982Z</time></trkpt><trkpt lat="46.0526367" lon="12.5316483"><ele>189.33333333333331</ele><time>2026-03-27T15:35:29.983Z</time></trkpt><trkpt lat="46.052695" lon="12.531695"><ele>190.16666666666666</ele><time>2026-03-27T15:35:32.983Z</time></trkpt><trkpt lat="46.0527117" lon="12.5315983"><ele>191.0</ele><time>2026-03-27T15:35:34.984Z</time></trkpt><trkpt lat="46.0527" lon="12.5314517"><ele>191.0</ele><time>2026-03-27T15:35:36.982Z</time></trkpt><trkpt lat="46.0527067" lon="12.53135"><ele>191.0</ele><time>2026-03-27T15:35:37.983Z</time></trkpt><trkpt lat="46.0527267" lon="12.5311983"><ele>191.0</ele><time>2026-03-27T15:35:39.984Z</time></trkpt><trkpt lat="46.0527483" lon="12.531095"><ele>191.0</ele><time>2026-03-27T15:35:41.983Z</time></trkpt><trkpt lat="46.05278" lon="12.5309683"><ele>191.0</ele><time>2026-03-27T15:35:43.983Z</time></trkpt><trkpt lat="46.0528217" lon="12.5308283"><ele>192.2857142857143</ele><time>2026-03-27T15:35:45.982Z</time></trkpt><trkpt lat="46.052865" lon="12.53075"><ele>193.57142857142856</ele><time>2026-03-27T15:35:46.984Z</time></trkpt><trkpt lat="46.05291" lon="12.5306667"><ele>194.85714285714286</ele><time>2026-03-27T15:35:47.984Z</time></trkpt><trkpt lat="46.0529683" lon="12.530595"><ele>196.14285714285717</ele><time>2026-03-27T15:35:48.984Z</time></trkpt><trkpt lat="46.0530183" lon="12.5305233"><ele>197.42857142857144</ele><time>2026-03-27T15:35:49.986Z</time></trkpt><trkpt lat="46.0530733" lon="12.5304383"><ele>198.71428571428572</ele><time>2026-03-27T15:35:50.983Z</time></trkpt><trkpt lat="46.0531333" lon="12.5303683"><ele>200.0</ele><time>2026-03-27T15:35:51.982Z</time></trkpt><trkpt lat="46.0531867" lon="12.530305"><ele>200.4</ele><time>2026-03-27T15:35:52.983Z</time></trkpt><trkpt lat="46.05326" lon="12.5301667"><ele>200.8</ele><time>2026-03-27T15:35:54.983Z</time></trkpt><trkpt lat="46.053335" lon="12.5300133"><ele>201.2</ele><time>2026-03-27T15:35:56.984Z</time></trkpt><trkpt lat="46.0533617" lon="12.52992"><ele>201.6</ele><time>2026-03-27T15:35:57.982Z</time></trkpt><trkpt lat="46.0533783" lon="12.5298217"><ele>202.0</ele><time>2026-03-27T15:35:58.983Z</time></trkpt><trkpt lat="46.0533883" lon="12.529705"><ele>203.14285714285714</ele><time>2026-03-27T15:35:59.984Z</time></trkpt><trkpt lat="46.0534017" lon="12.5296017"><ele>204.28571428571428</ele><time>2026-03-27T15:36:00.982Z</time></trkpt><trkpt lat="46.0533983" lon="12.5295"><ele>205.42857142857144</ele><time>2026-03-27T15:36:01.982Z</time></trkpt><trkpt lat="46.0533967" lon="12.5293983"><ele>206.57142857142856</ele><time>2026-03-27T15:36:02.984Z</time></trkpt><trkpt lat="46.0533933" lon="12.529295"><ele>207.71428571428572</ele><time>2026-03-27T15:36:03.982Z</time></trkpt><trkpt lat="46.053395" lon="12.52919"><ele>208.85714285714286</ele><time>2026-03-27T15:36:04.983Z</time></trkpt><trkpt lat="46.0533883" lon="12.5290817"><ele>210.0</ele><time>2026-03-27T15:36:05.983Z</time></trkpt><trkpt lat="46.053385" lon="12.52898"><ele>210.85714285714286</ele><time>2026-03-27T15:36:06.985Z</time></trkpt><trkpt lat="46.0533867" lon="12.5288833"><ele>211.71428571428572</ele><time>2026-03-27T15:36:07.985Z</time></trkpt><trkpt lat="46.0534033" lon="12.5287933"><ele>212.57142857142856</ele><time>2026-03-27T15:36:08.984Z</time></trkpt><trkpt lat="46.0534017" lon="12.5286817"><ele>213.42857142857144</ele><time>2026-03-27T15:36:09.983Z</time></trkpt><trkpt lat="46.0534117" lon="12.528585"><ele>214.28571428571428</ele><time>2026-03-27T15:36:10.982Z</time></trkpt><trkpt lat="46.0534317" lon="12.5284933"><ele>215.14285714285714</ele><time>2026-03-27T15:36:11.982Z</time></trkpt><trkpt lat="46.0534767" lon="12.5284233"><ele>216.0</ele><time>2026-03-27T15:36:12.983Z</time></trkpt><trkpt lat="46.0535517" lon="12.52828"><ele>216.33333333333334</ele><time>2026-03-27T15:36:14.983Z</time></trkpt><trkpt lat="46.0535867" lon="12.52819"><ele>216.66666666666669</ele><time>2026-03-27T15:36:15.983Z</time></trkpt><trkpt lat="46.053635" lon="12.528115"><ele>217.0</ele><time>2026-03-27T15:36:16.982Z</time></trkpt><trkpt lat="46.0537233" lon="12.5279917"><ele>217.33333333333334</ele><time>2026-03-27T15:36:18.983Z</time></trkpt><trkpt lat="46.0537767" lon="12.5279383"><ele>217.66666666666669</ele><time>2026-03-27T15:36:19.983Z</time></trkpt><trkpt lat="46.0538233" lon="12.527855"><ele>218.0</ele><time>2026-03-27T15:36:20.983Z</time></trkpt><trkpt lat="46.05386" lon="12.5277467"><ele>218.66666666666669</ele><time>2026-03-27T15:36:21.982Z</time></trkpt><trkpt lat="46.0538917" lon="12.5276433"><ele>219.33333333333334</ele><time>2026-03-27T15:36:22.983Z</time></trkpt><trkpt lat="46.05394" lon="12.5275283"><ele>220.0</ele><time>2026-03-27T15:36:24.982Z</time></trkpt><trkpt lat="46.05396" lon="12.5274083"><ele>220.66666666666669</ele><time>2026-03-27T15:36:26.983Z</time></trkpt><trkpt lat="46.0539417" lon="12.5272817"><ele>221.33333333333334</ele><time>2026-03-27T15:36:29.983Z</time></trkpt><trkpt lat="46.0538917" lon="12.5271733"><ele>222.0</ele><time>2026-03-27T15:36:31.983Z</time></trkpt><trkpt lat="46.053845" lon="12.5270567"><ele>223.6</ele><time>2026-03-27T15:36:33.982Z</time></trkpt><trkpt lat="46.0538033" lon="12.526925"><ele>225.2</ele><time>2026-03-27T15:36:35.983Z</time></trkpt><trkpt lat="46.0537567" lon="12.5267833"><ele>226.8</ele><time>2026-03-27T15:36:37.983Z</time></trkpt><trkpt lat="46.0537533" lon="12.5266417"><ele>228.4</ele><time>2026-03-27T15:36:39.983Z</time></trkpt><trkpt lat="46.0537417" lon="12.5265383"><ele>230.0</ele><time>2026-03-27T15:36:40.982Z</time></trkpt><trkpt lat="46.05376" lon="12.526415"><ele>230.00000000000003</ele><time>2026-03-27T15:36:42.982Z</time></trkpt><trkpt lat="46.0537367" lon="12.5263217"><ele>230.0</ele><time>2026-03-27T15:36:43.982Z</time></trkpt><trkpt lat="46.0537167" lon="12.5261817"><ele>230.0</ele><time>2026-03-27T15:36:45.982Z</time></trkpt><trkpt lat="46.0537033" lon="12.5260467"><ele>230.0</ele><time>2026-03-27T15:36:47.984Z</time></trkpt><trkpt lat="46.0537117" lon="12.5259333"><ele>230.00000000000003</ele><time>2026-03-27T15:36:49.985Z</time></trkpt><trkpt lat="46.05372" lon="12.5257817"><ele>230.0</ele><time>2026-03-27T15:36:51.982Z</time></trkpt><trkpt lat="46.0536983" lon="12.525645"><ele>231.6</ele><time>2026-03-27T15:36:53.985Z</time></trkpt><trkpt lat="46.0537133" lon="12.5255033"><ele>233.2</ele><time>2026-03-27T15:36:55.983Z</time></trkpt><trkpt lat="46.053705" lon="12.525325"><ele>234.8</ele><time>2026-03-27T15:36:57.983Z</time></trkpt><trkpt lat="46.0537067" lon="12.5251783"><ele>236.4</ele><time>2026-03-27T15:36:59.983Z</time></trkpt><trkpt lat="46.05372" lon="12.5250633"><ele>238.0</ele><time>2026-03-27T15:37:01.983Z</time></trkpt><trkpt lat="46.0537149" lon="12.5255957"><ele>239.5</ele><time>2026-03-27T15:37:03.049Z</time></trkpt><trkpt lat="46.0537301" lon="12.5250401"><ele>241.0</ele><time>2026-03-27T15:37:04.067Z</time></trkpt><trkpt lat="46.053755" lon="12.5249422"><ele>241.0</ele><time>2026-03-27T15:37:04.983Z</time></trkpt><trkpt lat="46.0537837" lon="12.5248016"><ele>241.00000000000003</ele><time>2026-03-27T15:37:07.029Z</time></trkpt><trkpt lat="46.0538191" lon="12.5246998"><ele>241.00000000000003</ele><time>2026-03-27T15:37:09.063Z</time></trkpt><trkpt lat="46.0537945" lon="12.5246137"><ele>241.0</ele><time>2026-03-27T15:37:14.02Z</time></trkpt><trkpt lat="46.0537736" lon="12.5245128"><ele>241.0</ele><time>2026-03-27T15:37:23.985Z</time></trkpt><trkpt lat="46.0537581" lon="12.5243166"><ele>240.0</ele><time>2026-03-27T15:37:25.65Z</time></trkpt><trkpt lat="46.0537612" lon="12.5241233"><ele>239.0</ele><time>2026-03-27T15:37:27.024Z</time></trkpt><trkpt lat="46.05376" lon="12.5239417"><ele>238.0</ele><time>2026-03-27T15:37:27.982Z</time></trkpt><trkpt lat="46.0537667" lon="12.5237783"><ele>237.0</ele><time>2026-03-27T15:37:29.982Z</time></trkpt><trkpt lat="46.05377" lon="12.5236217"><ele>236.66666666666666</ele><time>2026-03-27T15:37:31.982Z</time></trkpt><trkpt lat="46.0537783" lon="12.5235133"><ele>236.33333333333331</ele><time>2026-03-27T15:37:33.982Z</time></trkpt><trkpt lat="46.053815" lon="12.5234367"><ele>236.0</ele><time>2026-03-27T15:37:35.982Z</time></trkpt><trkpt lat="46.053915" lon="12.5234867"><ele>235.66666666666666</ele><time>2026-03-27T15:37:46.984Z</time></trkpt><trkpt lat="46.0539833" lon="12.52351"><ele>235.33333333333331</ele><time>2026-03-27T15:37:48.983Z</time></trkpt><trkpt lat="46.05408" lon="12.5235517"><ele>235.0</ele><time>2026-03-27T15:37:51.982Z</time></trkpt><trkpt lat="46.0541517" lon="12.523635"><ele>238.6</ele><time>2026-03-27T15:37:53.982Z</time></trkpt><trkpt lat="46.0542483" lon="12.52369"><ele>242.2</ele><time>2026-03-27T15:37:55.982Z</time></trkpt><trkpt lat="46.0543267" lon="12.5237417"><ele>245.8</ele><time>2026-03-27T15:37:57.982Z</time></trkpt><trkpt lat="46.05442" lon="12.52378"><ele>249.4</ele><time>2026-03-27T15:38:00.983Z</time></trkpt><trkpt lat="46.0545" lon="12.5238067"><ele>253.0</ele><time>2026-03-27T15:38:02.984Z</time></trkpt><trkpt lat="46.0545967" lon="12.523835"><ele>253.0</ele><time>2026-03-27T15:38:04.983Z</time></trkpt><trkpt lat="46.054705" lon="12.5238667"><ele>253.0</ele><time>2026-03-27T15:38:06.983Z</time></trkpt><trkpt lat="46.0548067" lon="12.5239367"><ele>253.0</ele><time>2026-03-27T15:38:08.983Z</time></trkpt><trkpt lat="46.0548983" lon="12.5239967"><ele>253.0</ele><time>2026-03-27T15:38:10.983Z</time></trkpt><trkpt lat="46.0549767" lon="12.524105"><ele>253.0</ele><time>2026-03-27T15:38:12.983Z</time></trkpt><trkpt lat="46.0550183" lon="12.5241733"><ele>256.2</ele><time>2026-03-27T15:38:13.985Z</time></trkpt><trkpt lat="46.0551025" lon="12.5242848"><ele>259.4</ele><time>2026-03-27T15:38:15.982Z</time></trkpt><trkpt lat="46.055183" lon="12.5243847"><ele>262.59999999999997</ele><time>2026-03-27T15:38:17.982Z</time></trkpt><trkpt lat="46.05526" lon="12.52445"><ele>265.8</ele><time>2026-03-27T15:38:19.983Z</time></trkpt><trkpt lat="46.0553567" lon="12.52448"><ele>269.0</ele><time>2026-03-27T15:38:21.984Z</time></trkpt><trkpt lat="46.0553967" lon="12.5245533"><ele>269.0</ele><time>2026-03-27T15:38:31.983Z</time></trkpt><trkpt lat="46.0554433" lon="12.5246317"><ele>269.0</ele><time>2026-03-27T15:38:33.982Z</time></trkpt><trkpt lat="46.0554917" lon="12.5247167"><ele>269.0</ele><time>2026-03-27T15:38:35.983Z</time></trkpt><trkpt lat="46.0555683" lon="12.5247667"><ele>269.0</ele><time>2026-03-27T15:38:38.984Z</time></trkpt><trkpt lat="46.055635" lon="12.52464"><ele>269.0</ele><time>2026-03-27T15:38:41.983Z</time></trkpt><trkpt lat="46.0556917" lon="12.5245067"><ele>269.0</ele><time>2026-03-27T15:38:43.983Z</time></trkpt><trkpt lat="46.05573" lon="12.52443"><ele>269.0</ele><time>2026-03-27T15:38:44.983Z</time></trkpt><trkpt lat="46.055785" lon="12.5243583"><ele>269.0</ele><time>2026-03-27T15:38:45.983Z</time></trkpt><trkpt lat="46.055845" lon="12.524295"><ele>269.0</ele><time>2026-03-27T15:38:46.982Z</time></trkpt><trkpt lat="46.0559033" lon="12.5242233"><ele>269.0</ele><time>2026-03-27T15:38:47.982Z</time></trkpt><trkpt lat="46.055965" lon="12.5241433"><ele>269.0</ele><time>2026-03-27T15:38:48.982Z</time></trkpt><trkpt lat="46.056025" lon="12.52406"><ele>268.6666666666667</ele><time>2026-03-27T15:38:49.984Z</time></trkpt><trkpt lat="46.05608" lon="12.5239883"><ele>268.33333333333337</ele><time>2026-03-27T15:38:50.984Z</time></trkpt><trkpt lat="46.0561367" lon="12.5239283"><ele>268.0</ele><time>2026-03-27T15:38:51.982Z</time></trkpt><trkpt lat="46.0561933" lon="12.5238617"><ele>267.6666666666667</ele><time>2026-03-27T15:38:52.983Z</time></trkpt><trkpt lat="46.0562567" lon="12.5237767"><ele>267.3333333333333</ele><time>2026-03-27T15:38:53.983Z</time></trkpt><trkpt lat="46.0563233" lon="12.5237167"><ele>267.0</ele><time>2026-03-27T15:38:54.984Z</time></trkpt><trkpt lat="46.0564017" lon="12.523675"><ele>267.0</ele><time>2026-03-27T15:38:55.983Z</time></trkpt><trkpt lat="46.05649" lon="12.523625"><ele>267.0</ele><time>2026-03-27T15:38:56.984Z</time></trkpt><trkpt lat="46.056585" lon="12.5235467"><ele>267.0</ele><time>2026-03-27T15:38:57.983Z</time></trkpt><trkpt lat="46.0566817" lon="12.5234883"><ele>267.0</ele><time>2026-03-27T15:38:58.985Z</time></trkpt><trkpt lat="46.056765" lon="12.5234233"><ele>267.0</ele><time>2026-03-27T15:38:59.984Z</time></trkpt><trkpt lat="46.0568467" lon="12.5233667"><ele>266.4</ele><time>2026-03-27T15:39:00.982Z</time></trkpt><trkpt lat="46.05692" lon="12.5233183"><ele>265.79999999999995</ele><time>2026-03-27T15:39:01.984Z</time></trkpt><trkpt lat="46.0569867" lon="12.5232467"><ele>265.2</ele><time>2026-03-27T15:39:02.985Z</time></trkpt><trkpt lat="46.057055" lon="12.523125"><ele>264.59999999999997</ele><time>2026-03-27T15:39:03.984Z</time></trkpt><trkpt lat="46.0571533" lon="12.5229933"><ele>264.0</ele><time>2026-03-27T15:39:04.983Z</time></trkpt><trkpt lat="46.057255" lon="12.5228717"><ele>264.0</ele><time>2026-03-27T15:39:05.984Z</time></trkpt><trkpt lat="46.0573483" lon="12.5227717"><ele>264.0</ele><time>2026-03-27T15:39:06.983Z</time></trkpt><trkpt lat="46.0574433" lon="12.522685"><ele>264.0</ele><time>2026-03-27T15:39:07.989Z</time></trkpt><trkpt lat="46.0575283" lon="12.5226033"><ele>264.0</ele><time>2026-03-27T15:39:08.984Z</time></trkpt><trkpt lat="46.0575983" lon="12.522545"><ele>264.0</ele><time>2026-03-27T15:39:09.982Z</time></trkpt><trkpt lat="46.05767" lon="12.5224783"><ele>265.2</ele><time>2026-03-27T15:39:10.985Z</time></trkpt><trkpt lat="46.0577717" lon="12.5224317"><ele>266.4</ele><time>2026-03-27T15:39:12.983Z</time></trkpt><trkpt lat="46.05785" lon="12.5224417"><ele>267.6</ele><time>2026-03-27T15:39:14.986Z</time></trkpt><trkpt lat="46.057925" lon="12.5224517"><ele>268.8</ele><time>2026-03-27T15:39:16.982Z</time></trkpt><trkpt lat="46.0580167" lon="12.52239"><ele>270.0</ele><time>2026-03-27T15:39:18.983Z</time></trkpt><trkpt lat="46.05813" lon="12.522335"><ele>270.0</ele><time>2026-03-27T15:39:20.983Z</time></trkpt><trkpt lat="46.0582317" lon="12.52233"><ele>270.0</ele><time>2026-03-27T15:39:22.985Z</time></trkpt><trkpt lat="46.0583683" lon="12.522405"><ele>270.0</ele><time>2026-03-27T15:39:24.985Z</time></trkpt><trkpt lat="46.0584483" lon="12.5224483"><ele>270.0</ele><time>2026-03-27T15:39:25.984Z</time></trkpt><trkpt lat="46.05852" lon="12.52249"><ele>270.0</ele><time>2026-03-27T15:39:26.984Z</time></trkpt><trkpt lat="46.0585817" lon="12.5225267"><ele>270.4</ele><time>2026-03-27T15:39:27.982Z</time></trkpt><trkpt lat="46.0586417" lon="12.522555"><ele>270.8</ele><time>2026-03-27T15:39:28.987Z</time></trkpt><trkpt lat="46.0587167" lon="12.5225517"><ele>271.2</ele><time>2026-03-27T15:39:30.982Z</time></trkpt><trkpt lat="46.0587883" lon="12.5224433"><ele>271.6</ele><time>2026-03-27T15:39:32.983Z</time></trkpt><trkpt lat="46.058875" lon="12.5223467"><ele>272.0</ele><time>2026-03-27T15:39:33.982Z</time></trkpt><trkpt lat="46.058955" lon="12.52225"><ele>272.0</ele><time>2026-03-27T15:39:34.983Z</time></trkpt><trkpt lat="46.0590383" lon="12.5221583"><ele>272.0</ele><time>2026-03-27T15:39:35.984Z</time></trkpt><trkpt lat="46.059115" lon="12.5220567"><ele>272.0</ele><time>2026-03-27T15:39:36.982Z</time></trkpt><trkpt lat="46.0591983" lon="12.5219567"><ele>272.0</ele><time>2026-03-27T15:39:37.984Z</time></trkpt><trkpt lat="46.0592717" lon="12.5218367"><ele>272.0</ele><time>2026-03-27T15:39:38.983Z</time></trkpt><trkpt lat="46.0593467" lon="12.5217017"><ele>272.5</ele><time>2026-03-27T15:39:39.983Z</time></trkpt><trkpt lat="46.059425" lon="12.5215667"><ele>273.0</ele><time>2026-03-27T15:39:40.982Z</time></trkpt><trkpt lat="46.0595033" lon="12.5214417"><ele>273.5</ele><time>2026-03-27T15:39:41.982Z</time></trkpt><trkpt lat="46.0595867" lon="12.521305"><ele>274.0</ele><time>2026-03-27T15:39:42.983Z</time></trkpt><trkpt lat="46.0596717" lon="12.5211667"><ele>275.75</ele><time>2026-03-27T15:39:43.986Z</time></trkpt><trkpt lat="46.0597583" lon="12.5210267"><ele>277.5</ele><time>2026-03-27T15:39:44.984Z</time></trkpt><trkpt lat="46.0598417" lon="12.5208917"><ele>279.25</ele><time>2026-03-27T15:39:45.983Z</time></trkpt><trkpt lat="46.0599267" lon="12.5207517"><ele>281.0</ele><time>2026-03-27T15:39:46.985Z</time></trkpt><trkpt lat="46.0600083" lon="12.5206083"><ele>281.0</ele><time>2026-03-27T15:39:47.982Z</time></trkpt><trkpt lat="46.060085" lon="12.5204733"><ele>281.0</ele><time>2026-03-27T15:39:48.982Z</time></trkpt><trkpt lat="46.060165" lon="12.5203467"><ele>281.0</ele><time>2026-03-27T15:39:49.983Z</time></trkpt><trkpt lat="46.0602383" lon="12.5202167"><ele>281.0</ele><time>2026-03-27T15:39:50.984Z</time></trkpt><trkpt lat="46.06031" lon="12.5200833"><ele>282.75</ele><time>2026-03-27T15:39:51.982Z</time></trkpt><trkpt lat="46.06039" lon="12.519955"><ele>284.5</ele><time>2026-03-27T15:39:52.984Z</time></trkpt><trkpt lat="46.0604783" lon="12.5198383"><ele>286.25</ele><time>2026-03-27T15:39:53.982Z</time></trkpt><trkpt lat="46.0605617" lon="12.5197217"><ele>288.0</ele><time>2026-03-27T15:39:54.982Z</time></trkpt><trkpt lat="46.060645" lon="12.5196067"><ele>289.0</ele><time>2026-03-27T15:39:55.983Z</time></trkpt><trkpt lat="46.0607283" lon="12.5194833"><ele>290.0</ele><time>2026-03-27T15:39:56.984Z</time></trkpt><trkpt lat="46.0608117" lon="12.51937"><ele>291.0</ele><time>2026-03-27T15:39:57.982Z</time></trkpt><trkpt lat="46.0608967" lon="12.5192567"><ele>292.0</ele><time>2026-03-27T15:39:58.982Z</time></trkpt><trkpt lat="46.0609767" lon="12.51914"><ele>292.0</ele><time>2026-03-27T15:39:59.983Z</time></trkpt><trkpt lat="46.06106" lon="12.519025"><ele>292.0</ele><time>2026-03-27T15:40:00.982Z</time></trkpt><trkpt lat="46.061145" lon="12.518915"><ele>292.0</ele><time>2026-03-27T15:40:01.982Z</time></trkpt><trkpt lat="46.06123" lon="12.5188067"><ele>292.0</ele><time>2026-03-27T15:40:02.984Z</time></trkpt><trkpt lat="46.06131" lon="12.5186917"><ele>294.0</ele><time>2026-03-27T15:40:03.982Z</time></trkpt><trkpt lat="46.0614" lon="12.518585"><ele>296.0</ele><time>2026-03-27T15:40:04.983Z</time></trkpt><trkpt lat="46.0614833" lon="12.5184717"><ele>298.0</ele><time>2026-03-27T15:40:05.982Z</time></trkpt><trkpt lat="46.06157" lon="12.5183617"><ele>300.0</ele><time>2026-03-27T15:40:06.982Z</time></trkpt><trkpt lat="46.061655" lon="12.5182417"><ele>300.0</ele><time>2026-03-27T15:40:07.984Z</time></trkpt><trkpt lat="46.06174" lon="12.5181333"><ele>300.0</ele><time>2026-03-27T15:40:08.983Z</time></trkpt><trkpt lat="46.061815" lon="12.5180317"><ele>300.0</ele><time>2026-03-27T15:40:09.983Z</time></trkpt><trkpt lat="46.06189" lon="12.5179433"><ele>300.0</ele><time>2026-03-27T15:40:10.983Z</time></trkpt><trkpt lat="46.061961" lon="12.5178584"><ele>300.0</ele><time>2026-03-27T15:40:11.985Z</time></trkpt><trkpt lat="46.062029" lon="12.5177646"><ele>303.0</ele><time>2026-03-27T15:40:12.984Z</time></trkpt><trkpt lat="46.0621001" lon="12.5176724"><ele>306.0</ele><time>2026-03-27T15:40:13.984Z</time></trkpt><trkpt lat="46.0621742" lon="12.5175824"><ele>309.0</ele><time>2026-03-27T15:40:14.983Z</time></trkpt><trkpt lat="46.0622555" lon="12.5174917"><ele>312.0</ele><time>2026-03-27T15:40:15.984Z</time></trkpt><trkpt lat="46.0623323" lon="12.5173947"><ele>315.0</ele><time>2026-03-27T15:40:16.982Z</time></trkpt><trkpt lat="46.0624052" lon="12.5172984"><ele>314.1666666666667</ele><time>2026-03-27T15:40:17.982Z</time></trkpt><trkpt lat="46.0624738" lon="12.5172126"><ele>313.3333333333333</ele><time>2026-03-27T15:40:18.983Z</time></trkpt><trkpt lat="46.062539" lon="12.5171266"><ele>312.5</ele><time>2026-03-27T15:40:19.982Z</time></trkpt><trkpt lat="46.0626065" lon="12.5170373"><ele>311.66666666666663</ele><time>2026-03-27T15:40:20.984Z</time></trkpt><trkpt lat="46.0626738" lon="12.516954"><ele>310.8333333333333</ele><time>2026-03-27T15:40:21.982Z</time></trkpt><trkpt lat="46.0627407" lon="12.5168699"><ele>310.0</ele><time>2026-03-27T15:40:22.983Z</time></trkpt><trkpt lat="46.0628045" lon="12.5167825"><ele>312.16666666666663</ele><time>2026-03-27T15:40:23.982Z</time></trkpt><trkpt lat="46.0628688" lon="12.5166948"><ele>314.3333333333333</ele><time>2026-03-27T15:40:24.982Z</time></trkpt><trkpt lat="46.0629363" lon="12.5166106"><ele>316.5</ele><time>2026-03-27T15:40:25.982Z</time></trkpt><trkpt lat="46.0630044" lon="12.5165339"><ele>318.6666666666667</ele><time>2026-03-27T15:40:26.986Z</time></trkpt><trkpt lat="46.0630701" lon="12.516456"><ele>320.83333333333337</ele><time>2026-03-27T15:40:27.983Z</time></trkpt><trkpt lat="46.0631425" lon="12.5163671"><ele>323.0</ele><time>2026-03-27T15:40:28.982Z</time></trkpt><trkpt lat="46.0632193" lon="12.5162677"><ele>327.5</ele><time>2026-03-27T15:40:29.982Z</time></trkpt><trkpt lat="46.0633019" lon="12.5161642"><ele>332.0</ele><time>2026-03-27T15:40:30.982Z</time></trkpt><trkpt lat="46.0633867" lon="12.5160538"><ele>336.5</ele><time>2026-03-27T15:40:31.981Z</time></trkpt><trkpt lat="46.0634693" lon="12.5159379"><ele>341.0</ele><time>2026-03-27T15:40:32.983Z</time></trkpt><trkpt lat="46.0635545" lon="12.5158259"><ele>341.0</ele><time>2026-03-27T15:40:33.982Z</time></trkpt><trkpt lat="46.0636428" lon="12.5157138"><ele>341.0</ele><time>2026-03-27T15:40:34.984Z</time></trkpt><trkpt lat="46.063735" lon="12.5155979"><ele>341.0</ele><time>2026-03-27T15:40:35.983Z</time></trkpt><trkpt lat="46.0638293" lon="12.5154817"><ele>341.0</ele><time>2026-03-27T15:40:36.983Z</time></trkpt><trkpt lat="46.0639211" lon="12.5153642"><ele>342.20000000000005</ele><time>2026-03-27T15:40:37.983Z</time></trkpt><trkpt lat="46.0640061" lon="12.5152543"><ele>343.40000000000003</ele><time>2026-03-27T15:40:38.985Z</time></trkpt><trkpt lat="46.0640881" lon="12.5151487"><ele>344.6</ele><time>2026-03-27T15:40:39.982Z</time></trkpt><trkpt lat="46.0641709" lon="12.5150548"><ele>345.8</ele><time>2026-03-27T15:40:40.984Z</time></trkpt><trkpt lat="46.0642375" lon="12.5149805"><ele>347.0</ele><time>2026-03-27T15:40:41.983Z</time></trkpt><trkpt lat="46.0643232" lon="12.5149341"><ele>347.0</ele><time>2026-03-27T15:40:43.983Z</time></trkpt><trkpt lat="46.0642513" lon="12.5150038"><ele>347.0</ele><time>2026-03-27T15:40:50.983Z</time></trkpt><trkpt lat="46.064185" lon="12.5151167"><ele>347.0</ele><time>2026-03-27T15:41:13.982Z</time></trkpt><trkpt lat="46.0640717" lon="12.515205"><ele>347.0</ele><time>2026-03-27T15:41:15.983Z</time></trkpt><trkpt lat="46.063985" lon="12.51529"><ele>347.0</ele><time>2026-03-27T15:41:16.982Z</time></trkpt><trkpt lat="46.0638817" lon="12.5154033"><ele>345.5</ele><time>2026-03-27T15:41:17.983Z</time></trkpt><trkpt lat="46.0637767" lon="12.5155417"><ele>344.0</ele><time>2026-03-27T15:41:18.982Z</time></trkpt><trkpt lat="46.0636733" lon="12.5156833"><ele>342.5</ele><time>2026-03-27T15:41:19.982Z</time></trkpt><trkpt lat="46.06357" lon="12.5158167"><ele>341.0</ele><time>2026-03-27T15:41:20.984Z</time></trkpt><trkpt lat="46.0634617" lon="12.5159417"><ele>341.0</ele><time>2026-03-27T15:41:21.983Z</time></trkpt><trkpt lat="46.0633467" lon="12.516085"><ele>341.0</ele><time>2026-03-27T15:41:22.982Z</time></trkpt><trkpt lat="46.0632333" lon="12.5162283"><ele>341.0</ele><time>2026-03-27T15:41:23.983Z</time></trkpt><trkpt lat="46.06312" lon="12.5163583"><ele>341.0</ele><time>2026-03-27T15:41:24.982Z</time></trkpt><trkpt lat="46.063005" lon="12.51649"><ele>336.5</ele><time>2026-03-27T15:41:25.983Z</time></trkpt><trkpt lat="46.0628967" lon="12.5166233"><ele>332.0</ele><time>2026-03-27T15:41:26.983Z</time></trkpt><trkpt lat="46.062795" lon="12.5167517"><ele>327.5</ele><time>2026-03-27T15:41:27.983Z</time></trkpt><trkpt lat="46.0626933" lon="12.5168783"><ele>323.0</ele><time>2026-03-27T15:41:28.982Z</time></trkpt><trkpt lat="46.0625917" lon="12.51701"><ele>321.0</ele><time>2026-03-27T15:41:29.984Z</time></trkpt><trkpt lat="46.0624817" lon="12.5171483"><ele>319.0</ele><time>2026-03-27T15:41:30.983Z</time></trkpt><trkpt lat="46.06237" lon="12.517285"><ele>317.0</ele><time>2026-03-27T15:41:31.983Z</time></trkpt><trkpt lat="46.0622633" lon="12.5174117"><ele>315.0</ele><time>2026-03-27T15:41:32.983Z</time></trkpt><trkpt lat="46.0621617" lon="12.5175333"><ele>315.0</ele><time>2026-03-27T15:41:33.982Z</time></trkpt><trkpt lat="46.0620683" lon="12.5176483"><ele>315.0</ele><time>2026-03-27T15:41:34.982Z</time></trkpt><trkpt lat="46.06198" lon="12.5177617"><ele>315.0</ele><time>2026-03-27T15:41:35.982Z</time></trkpt><trkpt lat="46.0618983" lon="12.51787"><ele>315.0</ele><time>2026-03-27T15:41:36.982Z</time></trkpt><trkpt lat="46.0618283" lon="12.5179533"><ele>315.0</ele><time>2026-03-27T15:41:37.983Z</time></trkpt><trkpt lat="46.0617767" lon="12.51801"><ele>313.0</ele><time>2026-03-27T15:41:38.983Z</time></trkpt><trkpt lat="46.0617083" lon="12.5180767"><ele>311.0</ele><time>2026-03-27T15:41:40.984Z</time></trkpt><trkpt lat="46.0616533" lon="12.518155"><ele>309.0</ele><time>2026-03-27T15:41:42.982Z</time></trkpt><trkpt lat="46.06157" lon="12.5182817"><ele>307.0</ele><time>2026-03-27T15:41:44.982Z</time></trkpt><trkpt lat="46.0615" lon="12.5183767"><ele>305.0</ele><time>2026-03-27T15:41:45.983Z</time></trkpt><trkpt lat="46.0614333" lon="12.5184883"><ele>305.0</ele><time>2026-03-27T15:41:46.982Z</time></trkpt><trkpt lat="46.0613633" lon="12.5185883"><ele>305.0</ele><time>2026-03-27T15:41:47.982Z</time></trkpt><trkpt lat="46.0613" lon="12.5186783"><ele>305.0</ele><time>2026-03-27T15:41:48.983Z</time></trkpt><trkpt lat="46.061235" lon="12.518765"><ele>305.0</ele><time>2026-03-27T15:41:49.983Z</time></trkpt><trkpt lat="46.0611617" lon="12.51885"><ele>305.0</ele><time>2026-03-27T15:41:50.983Z</time></trkpt><trkpt lat="46.0610917" lon="12.5189433"><ele>304.1666666666667</ele><time>2026-03-27T15:41:51.982Z</time></trkpt><trkpt lat="46.0610333" lon="12.5190333"><ele>303.33333333333337</ele><time>2026-03-27T15:41:52.983Z</time></trkpt><trkpt lat="46.060975" lon="12.5191183"><ele>302.5</ele><time>2026-03-27T15:41:53.984Z</time></trkpt><trkpt lat="46.0609183" lon="12.5191917"><ele>301.6666666666667</ele><time>2026-03-27T15:41:54.982Z</time></trkpt><trkpt lat="46.0608567" lon="12.5192567"><ele>300.8333333333333</ele><time>2026-03-27T15:41:55.982Z</time></trkpt><trkpt lat="46.0607867" lon="12.51933"><ele>300.0</ele><time>2026-03-27T15:41:56.983Z</time></trkpt><trkpt lat="46.0607183" lon="12.51941"><ele>300.0</ele><time>2026-03-27T15:41:57.983Z</time></trkpt><trkpt lat="46.060645" lon="12.5195033"><ele>300.0</ele><time>2026-03-27T15:41:58.982Z</time></trkpt><trkpt lat="46.0605767" lon="12.5195983"><ele>300.0</ele><time>2026-03-27T15:41:59.983Z</time></trkpt><trkpt lat="46.0605217" lon="12.5196883"><ele>300.0</ele><time>2026-03-27T15:42:00.983Z</time></trkpt><trkpt lat="46.0604717" lon="12.519765"><ele>300.0</ele><time>2026-03-27T15:42:01.983Z</time></trkpt><trkpt lat="46.0604267" lon="12.5198383"><ele>300.0</ele><time>2026-03-27T15:42:02.984Z</time></trkpt><trkpt lat="46.06038" lon="12.519915"><ele>298.0</ele><time>2026-03-27T15:42:03.982Z</time></trkpt><trkpt lat="46.0603367" lon="12.52"><ele>296.0</ele><time>2026-03-27T15:42:04.987Z</time></trkpt><trkpt lat="46.0602883" lon="12.520085"><ele>294.0</ele><time>2026-03-27T15:42:05.983Z</time></trkpt><trkpt lat="46.060235" lon="12.5201733"><ele>292.0</ele><time>2026-03-27T15:42:06.983Z</time></trkpt><trkpt lat="46.0601833" lon="12.5202717"><ele>290.0</ele><time>2026-03-27T15:42:07.982Z</time></trkpt><trkpt lat="46.0601333" lon="12.5203817"><ele>288.0</ele><time>2026-03-27T15:42:08.984Z</time></trkpt><trkpt lat="46.0600717" lon="12.520495"><ele>287.8</ele><time>2026-03-27T15:42:09.982Z</time></trkpt><trkpt lat="46.060005" lon="12.520615"><ele>287.6</ele><time>2026-03-27T15:42:10.984Z</time></trkpt><trkpt lat="46.0599367" lon="12.5207383"><ele>287.4</ele><time>2026-03-27T15:42:11.983Z</time></trkpt><trkpt lat="46.0598633" lon="12.520865"><ele>287.2</ele><time>2026-03-27T15:42:12.982Z</time></trkpt><trkpt lat="46.0597867" lon="12.520995"><ele>287.0</ele><time>2026-03-27T15:42:13.983Z</time></trkpt><trkpt lat="46.0597117" lon="12.5211333"><ele>283.75</ele><time>2026-03-27T15:42:14.985Z</time></trkpt><trkpt lat="46.0596367" lon="12.52128"><ele>280.5</ele><time>2026-03-27T15:42:15.982Z</time></trkpt><trkpt lat="46.0595583" lon="12.521425"><ele>277.25</ele><time>2026-03-27T15:42:16.983Z</time></trkpt><trkpt lat="46.05947" lon="12.521565"><ele>274.0</ele><time>2026-03-27T15:42:17.983Z</time></trkpt><trkpt lat="46.0593933" lon="12.5217033"><ele>274.0</ele><time>2026-03-27T15:42:18.983Z</time></trkpt><trkpt lat="46.05932" lon="12.5218333"><ele>274.0</ele><time>2026-03-27T15:42:19.985Z</time></trkpt><trkpt lat="46.0592483" lon="12.5219567"><ele>274.0</ele><time>2026-03-27T15:42:20.983Z</time></trkpt><trkpt lat="46.05918" lon="12.5220783"><ele>274.0</ele><time>2026-03-27T15:42:21.985Z</time></trkpt><trkpt lat="46.0591083" lon="12.5222017"><ele>274.0</ele><time>2026-03-27T15:42:22.983Z</time></trkpt><trkpt lat="46.059035" lon="12.5223333"><ele>273.59999999999997</ele><time>2026-03-27T15:42:23.983Z</time></trkpt><trkpt lat="46.0589633" lon="12.5224633"><ele>273.2</ele><time>2026-03-27T15:42:24.983Z</time></trkpt><trkpt lat="46.0589" lon="12.52259"><ele>272.79999999999995</ele><time>2026-03-27T15:42:25.983Z</time></trkpt><trkpt lat="46.05884" lon="12.52272"><ele>272.4</ele><time>2026-03-27T15:42:26.984Z</time></trkpt><trkpt lat="46.0587833" lon="12.5228617"><ele>272.0</ele><time>2026-03-27T15:42:27.983Z</time></trkpt><trkpt lat="46.0587317" lon="12.523015"><ele>271.5</ele><time>2026-03-27T15:42:28.982Z</time></trkpt><trkpt lat="46.0586733" lon="12.5231967"><ele>271.0</ele><time>2026-03-27T15:42:29.985Z</time></trkpt><trkpt lat="46.0586117" lon="12.523395"><ele>270.5</ele><time>2026-03-27T15:42:30.982Z</time></trkpt><trkpt lat="46.0585483" lon="12.523605"><ele>270.0</ele><time>2026-03-27T15:42:31.983Z</time></trkpt><trkpt lat="46.0584867" lon="12.5238317"><ele>269.3333333333333</ele><time>2026-03-27T15:42:32.984Z</time></trkpt><trkpt lat="46.05843" lon="12.524075"><ele>268.66666666666663</ele><time>2026-03-27T15:42:33.982Z</time></trkpt><trkpt lat="46.05838" lon="12.5243233"><ele>268.0</ele><time>2026-03-27T15:42:34.984Z</time></trkpt><trkpt lat="46.05833" lon="12.524585"><ele>266.66666666666663</ele><time>2026-03-27T15:42:35.983Z</time></trkpt><trkpt lat="46.0582933" lon="12.524855"><ele>265.3333333333333</ele><time>2026-03-27T15:42:36.982Z</time></trkpt><trkpt lat="46.058265" lon="12.5251233"><ele>264.0</ele><time>2026-03-27T15:42:37.983Z</time></trkpt><trkpt lat="46.0582367" lon="12.5254033"><ele>273.3333333333333</ele><time>2026-03-27T15:42:38.983Z</time></trkpt><trkpt lat="46.0582167" lon="12.525695"><ele>282.66666666666663</ele><time>2026-03-27T15:42:39.983Z</time></trkpt><trkpt lat="46.0581933" lon="12.5259867"><ele>292.0</ele><time>2026-03-27T15:42:40.982Z</time></trkpt><trkpt lat="46.0581717" lon="12.5262833"><ele>292.0</ele><time>2026-03-27T15:42:41.983Z</time></trkpt><trkpt lat="46.058175" lon="12.52658"><ele>292.0</ele><time>2026-03-27T15:42:42.982Z</time></trkpt><trkpt lat="46.0581967" lon="12.5268767"><ele>292.0</ele><time>2026-03-27T15:42:43.983Z</time></trkpt><trkpt lat="46.0582483" lon="12.5271667"><ele>280.0</ele><time>2026-03-27T15:42:44.984Z</time></trkpt><trkpt lat="46.0582933" lon="12.5274383"><ele>268.0</ele><time>2026-03-27T15:42:45.983Z</time></trkpt><trkpt lat="46.05833" lon="12.5277"><ele>256.0</ele><time>2026-03-27T15:42:46.984Z</time></trkpt><trkpt lat="46.0583567" lon="12.5279533"><ele>256.0</ele><time>2026-03-27T15:42:47.983Z</time></trkpt><trkpt lat="46.0583933" lon="12.52819"><ele>256.0</ele><time>2026-03-27T15:42:48.982Z</time></trkpt><trkpt lat="46.0584232" lon="12.528427"><ele>256.0</ele><time>2026-03-27T15:42:49.983Z</time></trkpt><trkpt lat="46.0584494" lon="12.5286666"><ele>255.66666666666666</ele><time>2026-03-27T15:42:50.982Z</time></trkpt><trkpt lat="46.0584772" lon="12.5289007"><ele>255.33333333333331</ele><time>2026-03-27T15:42:51.982Z</time></trkpt><trkpt lat="46.0584977" lon="12.529125"><ele>255.0</ele><time>2026-03-27T15:42:52.983Z</time></trkpt><trkpt lat="46.0585116" lon="12.529341"><ele>255.0</ele><time>2026-03-27T15:42:53.984Z</time></trkpt><trkpt lat="46.058521" lon="12.5295537"><ele>255.0</ele><time>2026-03-27T15:42:54.985Z</time></trkpt><trkpt lat="46.0585137" lon="12.5297729"><ele>255.0</ele><time>2026-03-27T15:42:55.982Z</time></trkpt><trkpt lat="46.0584836" lon="12.5299951"><ele>253.0</ele><time>2026-03-27T15:42:56.983Z</time></trkpt><trkpt lat="46.0584394" lon="12.5301976"><ele>251.0</ele><time>2026-03-27T15:42:57.982Z</time></trkpt><trkpt lat="46.0583912" lon="12.530366"><ele>249.0</ele><time>2026-03-27T15:42:58.982Z</time></trkpt><trkpt lat="46.0583486" lon="12.5305031"><ele>247.0</ele><time>2026-03-27T15:42:59.984Z</time></trkpt><trkpt lat="46.0583177" lon="12.5306112"><ele>246.99999999999997</ele><time>2026-03-27T15:43:00.986Z</time></trkpt><trkpt lat="46.0582958" lon="12.5306978"><ele>247.0</ele><time>2026-03-27T15:43:01.983Z</time></trkpt><trkpt lat="46.0583025" lon="12.530801"><ele>247.0</ele><time>2026-03-27T15:43:03.982Z</time></trkpt><trkpt lat="46.0583737" lon="12.5306798"><ele>247.0</ele><time>2026-03-27T15:43:05.983Z</time></trkpt><trkpt lat="46.0584254" lon="12.5305478"><ele>246.99999999999997</ele><time>2026-03-27T15:43:07.982Z</time></trkpt><trkpt lat="46.0584666" lon="12.5304566"><ele>247.0</ele><time>2026-03-27T15:43:09.984Z</time></trkpt><trkpt lat="46.0585127" lon="12.5303394"><ele>246.99999999999997</ele><time>2026-03-27T15:43:11.983Z</time></trkpt><trkpt lat="46.0585718" lon="12.5301738"><ele>247.0</ele><time>2026-03-27T15:43:13.983Z</time></trkpt><trkpt lat="46.0586018" lon="12.530077"><ele>247.0</ele><time>2026-03-27T15:43:14.984Z</time></trkpt><trkpt lat="46.0586318" lon="12.5299911"><ele>247.0</ele><time>2026-03-27T15:43:15.982Z</time></trkpt><trkpt lat="46.0586809" lon="12.5299077"><ele>246.99999999999997</ele><time>2026-03-27T15:43:17.982Z</time></trkpt><trkpt lat="46.0587488" lon="12.5299644"><ele>247.0</ele><time>2026-03-27T15:43:20.984Z</time></trkpt><trkpt lat="46.0587984" lon="12.5300979"><ele>246.99999999999997</ele><time>2026-03-27T15:43:22.984Z</time></trkpt><trkpt lat="46.0588137" lon="12.5301899"><ele>247.0</ele><time>2026-03-27T15:43:23.986Z</time></trkpt><trkpt lat="46.0588117" lon="12.5303433"><ele>247.0</ele><time>2026-03-27T15:43:25.983Z</time></trkpt><trkpt lat="46.0588" lon="12.530475"><ele>247.0</ele><time>2026-03-27T15:43:27.982Z</time></trkpt><trkpt lat="46.0587917" lon="12.530585"><ele>246.99999999999997</ele><time>2026-03-27T15:43:29.982Z</time></trkpt><trkpt lat="46.0588083" lon="12.5307233"><ele>247.0</ele><time>2026-03-27T15:43:31.982Z</time></trkpt><trkpt lat="46.0588067" lon="12.5308667"><ele>245.0</ele><time>2026-03-27T15:43:33.982Z</time></trkpt><trkpt lat="46.0588017" lon="12.53096"><ele>243.0</ele><time>2026-03-27T15:43:34.982Z</time></trkpt><trkpt lat="46.0588067" lon="12.5310583"><ele>241.0</ele><time>2026-03-27T15:43:35.982Z</time></trkpt><trkpt lat="46.0588083" lon="12.5311583"><ele>239.0</ele><time>2026-03-27T15:43:36.982Z</time></trkpt><trkpt lat="46.0588217" lon="12.5312533"><ele>237.0</ele><time>2026-03-27T15:43:37.983Z</time></trkpt><trkpt lat="46.05885" lon="12.5313433"><ele>235.0</ele><time>2026-03-27T15:43:38.983Z</time></trkpt><trkpt lat="46.0588917" lon="12.531415"><ele>233.0</ele><time>2026-03-27T15:43:39.982Z</time></trkpt><trkpt lat="46.0589817" lon="12.531505"><ele>231.50000000000003</ele><time>2026-03-27T15:43:41.983Z</time></trkpt><trkpt lat="46.0590717" lon="12.5315683"><ele>230.0</ele><time>2026-03-27T15:43:43.982Z</time></trkpt><trkpt lat="46.0591567" lon="12.5316283"><ele>228.5</ele><time>2026-03-27T15:43:45.983Z</time></trkpt><trkpt lat="46.05924" lon="12.5316217"><ele>227.0</ele><time>2026-03-27T15:43:48.983Z</time></trkpt><trkpt lat="46.0593183" lon="12.5315967"><ele>225.50000000000003</ele><time>2026-03-27T15:43:50.982Z</time></trkpt><trkpt lat="46.0593917" lon="12.5316067"><ele>224.0</ele><time>2026-03-27T15:43:54.982Z</time></trkpt><trkpt lat="46.0594367" lon="12.5317033"><ele>224.00000000000003</ele><time>2026-03-27T15:43:56.983Z</time></trkpt><trkpt lat="46.05945" lon="12.5318217"><ele>224.0</ele><time>2026-03-27T15:43:58.983Z</time></trkpt><trkpt lat="46.059445" lon="12.5319383"><ele>224.0</ele><time>2026-03-27T15:44:00.982Z</time></trkpt><trkpt lat="46.0594167" lon="12.532065"><ele>224.0</ele><time>2026-03-27T15:44:02.983Z</time></trkpt><trkpt lat="46.0593667" lon="12.532165"><ele>224.00000000000003</ele><time>2026-03-27T15:44:10.983Z</time></trkpt><trkpt lat="46.0593583" lon="12.53229"><ele>224.0</ele><time>2026-03-27T15:44:13.984Z</time></trkpt><trkpt lat="46.0593333" lon="12.5323783"><ele>224.00000000000003</ele><time>2026-03-27T15:44:15.982Z</time></trkpt><trkpt lat="46.0592967" lon="12.5324617"><ele>224.0</ele><time>2026-03-27T15:44:17.983Z</time></trkpt><trkpt lat="46.0592567" lon="12.5325683"><ele>224.0</ele><time>2026-03-27T15:44:19.984Z</time></trkpt><trkpt lat="46.0592367" lon="12.5326983"><ele>224.0</ele><time>2026-03-27T15:44:21.982Z</time></trkpt><trkpt lat="46.05919" lon="12.53284"><ele>224.00000000000003</ele><time>2026-03-27T15:44:23.983Z</time></trkpt><trkpt lat="46.0591317" lon="12.5329067"><ele>224.0</ele><time>2026-03-27T15:44:24.982Z</time></trkpt><trkpt lat="46.0590483" lon="12.5330067"><ele>222.16666666666669</ele><time>2026-03-27T15:44:26.982Z</time></trkpt><trkpt lat="46.0590017" lon="12.53309"><ele>220.33333333333334</ele><time>2026-03-27T15:44:27.982Z</time></trkpt><trkpt lat="46.0589683" lon="12.5331717"><ele>218.5</ele><time>2026-03-27T15:44:28.982Z</time></trkpt><trkpt lat="46.0589283" lon="12.53328"><ele>216.66666666666669</ele><time>2026-03-27T15:44:29.984Z</time></trkpt><trkpt lat="46.05888" lon="12.5333767"><ele>214.83333333333334</ele><time>2026-03-27T15:44:30.982Z</time></trkpt><trkpt lat="46.058835" lon="12.533455"><ele>213.0</ele><time>2026-03-27T15:44:31.982Z</time></trkpt><trkpt lat="46.058765" lon="12.5335583"><ele>213.0</ele><time>2026-03-27T15:44:33.983Z</time></trkpt><trkpt lat="46.058745" lon="12.5336533"><ele>213.0</ele><time>2026-03-27T15:44:36.983Z</time></trkpt><trkpt lat="46.0587567" lon="12.533745"><ele>213.0</ele><time>2026-03-27T15:44:39.983Z</time></trkpt><trkpt lat="46.0588267" lon="12.5337667"><ele>213.0</ele><time>2026-03-27T15:44:43.984Z</time></trkpt><trkpt lat="46.05888" lon="12.5338283"><ele>213.0</ele><time>2026-03-27T15:44:45.982Z</time></trkpt><trkpt lat="46.0589467" lon="12.53393"><ele>213.0</ele><time>2026-03-27T15:44:47.985Z</time></trkpt><trkpt lat="46.0590033" lon="12.53406"><ele>213.16666666666666</ele><time>2026-03-27T15:44:49.983Z</time></trkpt><trkpt lat="46.0590383" lon="12.534215"><ele>213.33333333333331</ele><time>2026-03-27T15:44:51.983Z</time></trkpt><trkpt lat="46.0590417" lon="12.5343117"><ele>213.5</ele><time>2026-03-27T15:44:52.984Z</time></trkpt><trkpt lat="46.059015" lon="12.5344183"><ele>213.66666666666666</ele><time>2026-03-27T15:44:53.982Z</time></trkpt><trkpt lat="46.0589783" lon="12.53455"><ele>213.83333333333331</ele><time>2026-03-27T15:44:54.982Z</time></trkpt><trkpt lat="46.0589617" lon="12.5346617"><ele>214.0</ele><time>2026-03-27T15:44:55.983Z</time></trkpt><trkpt lat="46.0589317" lon="12.5348"><ele>214.33333333333331</ele><time>2026-03-27T15:44:57.982Z</time></trkpt><trkpt lat="46.0588583" lon="12.53486"><ele>214.66666666666666</ele><time>2026-03-27T15:44:59.983Z</time></trkpt><trkpt lat="46.058785" lon="12.5349767"><ele>215.0</ele><time>2026-03-27T15:45:01.983Z</time></trkpt><trkpt lat="46.0587283" lon="12.53503"><ele>215.33333333333331</ele><time>2026-03-27T15:45:02.984Z</time></trkpt><trkpt lat="46.058665" lon="12.5351067"><ele>215.66666666666666</ele><time>2026-03-27T15:45:03.983Z</time></trkpt><trkpt lat="46.058605" lon="12.53519"><ele>216.0</ele><time>2026-03-27T15:45:04.984Z</time></trkpt><trkpt lat="46.0585417" lon="12.5352883"><ele>216.0</ele><time>2026-03-27T15:45:05.983Z</time></trkpt><trkpt lat="46.0584867" lon="12.5353883"><ele>216.0</ele><time>2026-03-27T15:45:06.983Z</time></trkpt><trkpt lat="46.0584433" lon="12.5354983"><ele>216.0</ele><time>2026-03-27T15:45:07.983Z</time></trkpt><trkpt lat="46.0583983" lon="12.5356017"><ele>216.0</ele><time>2026-03-27T15:45:08.983Z</time></trkpt><trkpt lat="46.0583633" lon="12.5357067"><ele>216.0</ele><time>2026-03-27T15:45:09.982Z</time></trkpt><trkpt lat="46.0583333" lon="12.535805"><ele>216.0</ele><time>2026-03-27T15:45:10.982Z</time></trkpt><trkpt lat="46.058315" lon="12.5359183"><ele>216.0</ele><time>2026-03-27T15:45:11.985Z</time></trkpt><trkpt lat="46.0583017" lon="12.5360267"><ele>216.0</ele><time>2026-03-27T15:45:12.983Z</time></trkpt><trkpt lat="46.0582883" lon="12.5361417"><ele>216.0</ele><time>2026-03-27T15:45:13.983Z</time></trkpt><trkpt lat="46.0582817" lon="12.5362617"><ele>216.0</ele><time>2026-03-27T15:45:14.983Z</time></trkpt><trkpt lat="46.0582817" lon="12.5363717"><ele>216.0</ele><time>2026-03-27T15:45:15.982Z</time></trkpt><trkpt lat="46.0582683" lon="12.5365417"><ele>216.0</ele><time>2026-03-27T15:45:17.982Z</time></trkpt><trkpt lat="46.0582217" lon="12.5366817"><ele>213.4</ele><time>2026-03-27T15:45:19.985Z</time></trkpt><trkpt lat="46.0581233" lon="12.5367567"><ele>210.8</ele><time>2026-03-27T15:45:21.983Z</time></trkpt><trkpt lat="46.0580483" lon="12.53683"><ele>208.20000000000002</ele><time>2026-03-27T15:45:24.983Z</time></trkpt><trkpt lat="46.0579717" lon="12.5369383"><ele>205.60000000000002</ele><time>2026-03-27T15:45:27.984Z</time></trkpt><trkpt lat="46.0579483" lon="12.5370383"><ele>203.0</ele><time>2026-03-27T15:45:28.984Z</time></trkpt><trkpt lat="46.0579267" lon="12.53716"><ele>203.0</ele><time>2026-03-27T15:45:29.982Z</time></trkpt><trkpt lat="46.0579167" lon="12.5372917"><ele>203.0</ele><time>2026-03-27T15:45:30.982Z</time></trkpt><trkpt lat="46.0579067" lon="12.5374233"><ele>203.0</ele><time>2026-03-27T15:45:31.983Z</time></trkpt><trkpt lat="46.0579" lon="12.53756"><ele>203.0</ele><time>2026-03-27T15:45:32.983Z</time></trkpt><trkpt lat="46.0578983" lon="12.5376833"><ele>203.0</ele><time>2026-03-27T15:45:33.983Z</time></trkpt><trkpt lat="46.0578917" lon="12.5378817"><ele>202.60000000000002</ele><time>2026-03-27T15:45:35.986Z</time></trkpt><trkpt lat="46.057875" lon="12.5380033"><ele>202.20000000000002</ele><time>2026-03-27T15:45:36.982Z</time></trkpt><trkpt lat="46.057855" lon="12.538125"><ele>201.8</ele><time>2026-03-27T15:45:37.983Z</time></trkpt><trkpt lat="46.05783" lon="12.53825"><ele>201.4</ele><time>2026-03-27T15:45:38.983Z</time></trkpt><trkpt lat="46.057815" lon="12.5383933"><ele>201.0</ele><time>2026-03-27T15:45:39.983Z</time></trkpt><trkpt lat="46.0578" lon="12.5385217"><ele>201.0</ele><time>2026-03-27T15:45:40.983Z</time></trkpt><trkpt lat="46.0577767" lon="12.5387167"><ele>201.0</ele><time>2026-03-27T15:45:42.983Z</time></trkpt><trkpt lat="46.0577483" lon="12.5388417"><ele>201.0</ele><time>2026-03-27T15:45:43.984Z</time></trkpt><trkpt lat="46.0577183" lon="12.538965"><ele>201.0</ele><time>2026-03-27T15:45:44.984Z</time></trkpt><trkpt lat="46.0576933" lon="12.539105"><ele>201.0</ele><time>2026-03-27T15:45:45.982Z</time></trkpt><trkpt lat="46.0576667" lon="12.5392483"><ele>200.0</ele><time>2026-03-27T15:45:46.982Z</time></trkpt><trkpt lat="46.05764" lon="12.5393783"><ele>199.0</ele><time>2026-03-27T15:45:47.983Z</time></trkpt><trkpt lat="46.0576133" lon="12.5395083"><ele>198.0</ele><time>2026-03-27T15:45:48.982Z</time></trkpt><trkpt lat="46.0575846" lon="12.5396156"><ele>197.0</ele><time>2026-03-27T15:45:49.984Z</time></trkpt><trkpt lat="46.0575557" lon="12.5397122"><ele>196.0</ele><time>2026-03-27T15:45:50.985Z</time></trkpt><trkpt lat="46.0575172" lon="12.5398723"><ele>195.83333333333331</ele><time>2026-03-27T15:45:52.982Z</time></trkpt><trkpt lat="46.0574613" lon="12.5400187"><ele>195.66666666666666</ele><time>2026-03-27T15:45:54.983Z</time></trkpt><trkpt lat="46.0574283" lon="12.5400981"><ele>195.5</ele><time>2026-03-27T15:45:55.983Z</time></trkpt><trkpt lat="46.0573904" lon="12.54019"><ele>195.33333333333331</ele><time>2026-03-27T15:45:56.983Z</time></trkpt><trkpt lat="46.0573596" lon="12.5402905"><ele>195.16666666666666</ele><time>2026-03-27T15:45:57.983Z</time></trkpt><trkpt lat="46.0573334" lon="12.5403976"><ele>195.0</ele><time>2026-03-27T15:45:58.982Z</time></trkpt><trkpt lat="46.0573097" lon="12.5405116"><ele>192.25</ele><time>2026-03-27T15:45:59.982Z</time></trkpt><trkpt lat="46.0572914" lon="12.5406393"><ele>189.5</ele><time>2026-03-27T15:46:00.983Z</time></trkpt><trkpt lat="46.0572829" lon="12.5408285"><ele>186.75</ele><time>2026-03-27T15:46:01.983Z</time></trkpt><trkpt lat="46.057296" lon="12.5410618"><ele>184.0</ele><time>2026-03-27T15:46:02.985Z</time></trkpt><trkpt lat="46.0573148" lon="12.5412875"><ele>184.0</ele><time>2026-03-27T15:46:03.982Z</time></trkpt><trkpt lat="46.0573311" lon="12.5414881"><ele>184.0</ele><time>2026-03-27T15:46:04.985Z</time></trkpt><trkpt lat="46.0573409" lon="12.5416675"><ele>184.0</ele><time>2026-03-27T15:46:05.984Z</time></trkpt><trkpt lat="46.0573457" lon="12.5418087"><ele>184.0</ele><time>2026-03-27T15:46:06.982Z</time></trkpt><trkpt lat="46.0573473" lon="12.5419236"><ele>184.0</ele><time>2026-03-27T15:46:07.983Z</time></trkpt><trkpt lat="46.0573458" lon="12.5420235"><ele>183.5</ele><time>2026-03-27T15:46:08.983Z</time></trkpt><trkpt lat="46.0573636" lon="12.5421924"><ele>183.0</ele><time>2026-03-27T15:46:10.982Z</time></trkpt><trkpt lat="46.057398" lon="12.5422842"><ele>182.5</ele><time>2026-03-27T15:46:11.982Z</time></trkpt><trkpt lat="46.0574526" lon="12.5423574"><ele>182.0</ele><time>2026-03-27T15:46:12.982Z</time></trkpt><trkpt lat="46.0575227" lon="12.5424055"><ele>181.5</ele><time>2026-03-27T15:46:13.983Z</time></trkpt><trkpt lat="46.057623" lon="12.5424025"><ele>181.0</ele><time>2026-03-27T15:46:14.984Z</time></trkpt><trkpt lat="46.057772" lon="12.5423743"><ele>182.5</ele><time>2026-03-27T15:46:15.982Z</time></trkpt><trkpt lat="46.0579312" lon="12.5423388"><ele>184.0</ele><time>2026-03-27T15:46:16.983Z</time></trkpt><trkpt lat="46.0580745" lon="12.5423128"><ele>185.5</ele><time>2026-03-27T15:46:17.982Z</time></trkpt><trkpt lat="46.0581906" lon="12.5422974"><ele>187.0</ele><time>2026-03-27T15:46:18.982Z</time></trkpt><trkpt lat="46.0582851" lon="12.5422808"><ele>187.33333333333334</ele><time>2026-03-27T15:46:19.983Z</time></trkpt><trkpt lat="46.0583714" lon="12.5422495"><ele>187.66666666666669</ele><time>2026-03-27T15:46:20.984Z</time></trkpt><trkpt lat="46.05845" lon="12.54221"><ele>188.0</ele><time>2026-03-27T15:46:21.984Z</time></trkpt><trkpt lat="46.0585333" lon="12.5421867"><ele>188.33333333333334</ele><time>2026-03-27T15:46:22.982Z</time></trkpt><trkpt lat="46.0586033" lon="12.542165"><ele>188.66666666666666</ele><time>2026-03-27T15:46:23.982Z</time></trkpt><trkpt lat="46.058675" lon="12.5421383"><ele>189.0</ele><time>2026-03-27T15:46:24.983Z</time></trkpt><trkpt lat="46.0587467" lon="12.5421183"><ele>189.0</ele><time>2026-03-27T15:46:25.982Z</time></trkpt><trkpt lat="46.0588117" lon="12.5420967"><ele>189.0</ele><time>2026-03-27T15:46:26.984Z</time></trkpt><trkpt lat="46.0589267" lon="12.5421233"><ele>189.0</ele><time>2026-03-27T15:46:28.987Z</time></trkpt><trkpt lat="46.05899" lon="12.5422783"><ele>189.0</ele><time>2026-03-27T15:46:30.982Z</time></trkpt><trkpt lat="46.05901" lon="12.5424233"><ele>189.0</ele><time>2026-03-27T15:46:32.983Z</time></trkpt><trkpt lat="46.059" lon="12.5425283"><ele>189.0</ele><time>2026-03-27T15:46:33.983Z</time></trkpt><trkpt lat="46.058995" lon="12.5427183"><ele>189.0</ele><time>2026-03-27T15:46:35.983Z</time></trkpt><trkpt lat="46.0589917" lon="12.5428133"><ele>189.0</ele><time>2026-03-27T15:46:36.984Z</time></trkpt><trkpt lat="46.058965" lon="12.5430083"><ele>189.0</ele><time>2026-03-27T15:46:38.983Z</time></trkpt><trkpt lat="46.0589617" lon="12.543125"><ele>189.0</ele><time>2026-03-27T15:46:39.985Z</time></trkpt><trkpt lat="46.0589833" lon="12.54325"><ele>188.2</ele><time>2026-03-27T15:46:40.983Z</time></trkpt><trkpt lat="46.0590083" lon="12.5433833"><ele>187.39999999999998</ele><time>2026-03-27T15:46:41.982Z</time></trkpt><trkpt lat="46.059025" lon="12.543535"><ele>186.6</ele><time>2026-03-27T15:46:42.983Z</time></trkpt><trkpt lat="46.05903" lon="12.54371"><ele>185.8</ele><time>2026-03-27T15:46:43.988Z</time></trkpt><trkpt lat="46.059035" lon="12.5438667"><ele>185.0</ele><time>2026-03-27T15:46:44.983Z</time></trkpt><trkpt lat="46.0590433" lon="12.544025"><ele>184.4</ele><time>2026-03-27T15:46:45.982Z</time></trkpt><trkpt lat="46.059055" lon="12.544175"><ele>183.8</ele><time>2026-03-27T15:46:46.982Z</time></trkpt><trkpt lat="46.05907" lon="12.54433"><ele>183.2</ele><time>2026-03-27T15:46:47.983Z</time></trkpt><trkpt lat="46.059095" lon="12.544465"><ele>182.6</ele><time>2026-03-27T15:46:48.982Z</time></trkpt><trkpt lat="46.05913" lon="12.54457"><ele>182.0</ele><time>2026-03-27T15:46:49.983Z</time></trkpt><trkpt lat="46.05915" lon="12.54468"><ele>182.0</ele><time>2026-03-27T15:46:50.983Z</time></trkpt><trkpt lat="46.0591783" lon="12.5447917"><ele>182.0</ele><time>2026-03-27T15:46:51.982Z</time></trkpt><trkpt lat="46.0592133" lon="12.5448817"><ele>182.0</ele><time>2026-03-27T15:46:52.982Z</time></trkpt><trkpt lat="46.059235" lon="12.5449717"><ele>182.0</ele><time>2026-03-27T15:46:53.983Z</time></trkpt><trkpt lat="46.0592833" lon="12.5450767"><ele>182.0</ele><time>2026-03-27T15:46:54.983Z</time></trkpt><trkpt lat="46.0593317" lon="12.5451617"><ele>182.0</ele><time>2026-03-27T15:46:55.982Z</time></trkpt><trkpt lat="46.059375" lon="12.54523"><ele>182.0</ele><time>2026-03-27T15:46:56.983Z</time></trkpt><trkpt lat="46.0594133" lon="12.5453117"><ele>181.0</ele><time>2026-03-27T15:46:58.982Z</time></trkpt><trkpt lat="46.0594267" lon="12.5454133"><ele>180.0</ele><time>2026-03-27T15:47:01.982Z</time></trkpt><trkpt lat="46.059495" lon="12.5454483"><ele>179.0</ele><time>2026-03-27T15:47:03.982Z</time></trkpt><trkpt lat="46.0595617" lon="12.5455117"><ele>178.0</ele><time>2026-03-27T15:47:05.983Z</time></trkpt><trkpt lat="46.0596033" lon="12.545585"><ele>177.0</ele><time>2026-03-27T15:47:07.982Z</time></trkpt><trkpt lat="46.059655" lon="12.545725"><ele>176.0</ele><time>2026-03-27T15:47:09.982Z</time></trkpt><trkpt lat="46.059685" lon="12.54582"><ele>176.0</ele><time>2026-03-27T15:47:10.983Z</time></trkpt><trkpt lat="46.0597183" lon="12.54592"><ele>176.0</ele><time>2026-03-27T15:47:11.983Z</time></trkpt><trkpt lat="46.0597567" lon="12.5460267"><ele>176.0</ele><time>2026-03-27T15:47:12.982Z</time></trkpt><trkpt lat="46.0597967" lon="12.54612"><ele>176.0</ele><time>2026-03-27T15:47:13.982Z</time></trkpt><trkpt lat="46.0598567" lon="12.546235"><ele>176.0</ele><time>2026-03-27T15:47:14.983Z</time></trkpt><trkpt lat="46.05995" lon="12.5463533"><ele>176.60000000000002</ele><time>2026-03-27T15:47:15.983Z</time></trkpt><trkpt lat="46.06004" lon="12.546465"><ele>177.2</ele><time>2026-03-27T15:47:16.982Z</time></trkpt><trkpt lat="46.060115" lon="12.5465583"><ele>177.8</ele><time>2026-03-27T15:47:17.984Z</time></trkpt><trkpt lat="46.06019" lon="12.5466483"><ele>178.39999999999998</ele><time>2026-03-27T15:47:18.983Z</time></trkpt><trkpt lat="46.0602633" lon="12.54672"><ele>179.0</ele><time>2026-03-27T15:47:19.984Z</time></trkpt><trkpt lat="46.06035" lon="12.5467917"><ele>179.0</ele><time>2026-03-27T15:47:20.984Z</time></trkpt><trkpt lat="46.0604433" lon="12.5468817"><ele>179.0</ele><time>2026-03-27T15:47:21.983Z</time></trkpt><trkpt lat="46.0605233" lon="12.5469783"><ele>179.0</ele><time>2026-03-27T15:47:22.983Z</time></trkpt><trkpt lat="46.060595" lon="12.54706"><ele>179.0</ele><time>2026-03-27T15:47:23.984Z</time></trkpt><trkpt lat="46.0606667" lon="12.5471667"><ele>179.0</ele><time>2026-03-27T15:47:24.982Z</time></trkpt><trkpt lat="46.0607283" lon="12.5472783"><ele>178.2</ele><time>2026-03-27T15:47:25.983Z</time></trkpt><trkpt lat="46.0607917" lon="12.5473917"><ele>177.39999999999998</ele><time>2026-03-27T15:47:26.983Z</time></trkpt><trkpt lat="46.0608483" lon="12.5475017"><ele>176.6</ele><time>2026-03-27T15:47:27.982Z</time></trkpt><trkpt lat="46.0608933" lon="12.5476117"><ele>175.8</ele><time>2026-03-27T15:47:28.984Z</time></trkpt><trkpt lat="46.060935" lon="12.547725"><ele>175.0</ele><time>2026-03-27T15:47:29.982Z</time></trkpt><trkpt lat="46.0609883" lon="12.5478467"><ele>173.4</ele><time>2026-03-27T15:47:30.983Z</time></trkpt><trkpt lat="46.0610467" lon="12.5479667"><ele>171.8</ele><time>2026-03-27T15:47:31.983Z</time></trkpt><trkpt lat="46.0610983" lon="12.5480533"><ele>170.2</ele><time>2026-03-27T15:47:32.983Z</time></trkpt><trkpt lat="46.06114" lon="12.5482083"><ele>168.6</ele><time>2026-03-27T15:47:34.982Z</time></trkpt><trkpt lat="46.0611583" lon="12.5483583"><ele>167.0</ele><time>2026-03-27T15:47:36.983Z</time></trkpt><trkpt lat="46.06125" lon="12.5485017"><ele>167.0</ele><time>2026-03-27T15:47:38.984Z</time></trkpt><trkpt lat="46.0613467" lon="12.548615"><ele>167.0</ele><time>2026-03-27T15:47:39.982Z</time></trkpt><trkpt lat="46.061495" lon="12.5487767"><ele>167.0</ele><time>2026-03-27T15:47:40.984Z</time></trkpt><trkpt lat="46.0616067" lon="12.54894"><ele>166.0</ele><time>2026-03-27T15:47:41.983Z</time></trkpt><trkpt lat="46.06171" lon="12.5490867"><ele>165.0</ele><time>2026-03-27T15:47:42.983Z</time></trkpt><trkpt lat="46.0617917" lon="12.5492033"><ele>164.0</ele><time>2026-03-27T15:47:43.982Z</time></trkpt><trkpt lat="46.0618517" lon="12.54929"><ele>163.0</ele><time>2026-03-27T15:47:44.983Z</time></trkpt><trkpt lat="46.0618933" lon="12.5493833"><ele>162.0</ele><time>2026-03-27T15:47:45.984Z</time></trkpt><trkpt lat="46.0619233" lon="12.5495117"><ele>160.75</ele><time>2026-03-27T15:47:46.982Z</time></trkpt><trkpt lat="46.0619317" lon="12.5496683"><ele>159.5</ele><time>2026-03-27T15:47:47.987Z</time></trkpt><trkpt lat="46.0619083" lon="12.5498233"><ele>158.25</ele><time>2026-03-27T15:47:48.983Z</time></trkpt><trkpt lat="46.0618867" lon="12.54999"><ele>157.0</ele><time>2026-03-27T15:47:49.982Z</time></trkpt><trkpt lat="46.061885" lon="12.550175"><ele>155.66666666666669</ele><time>2026-03-27T15:47:50.982Z</time></trkpt><trkpt lat="46.0618967" lon="12.550395"><ele>154.33333333333334</ele><time>2026-03-27T15:47:51.982Z</time></trkpt><trkpt lat="46.0619083" lon="12.550635"><ele>153.0</ele><time>2026-03-27T15:47:52.983Z</time></trkpt><trkpt lat="46.06191" lon="12.55088"><ele>153.0</ele><time>2026-03-27T15:47:53.982Z</time></trkpt><trkpt lat="46.0619067" lon="12.5510667"><ele>153.0</ele><time>2026-03-27T15:47:54.982Z</time></trkpt><trkpt lat="46.061895" lon="12.5512217"><ele>153.0</ele><time>2026-03-27T15:47:55.983Z</time></trkpt><trkpt lat="46.0618767" lon="12.5513367"><ele>153.0</ele><time>2026-03-27T15:47:56.982Z</time></trkpt><trkpt lat="46.0618667" lon="12.5514283"><ele>153.0</ele><time>2026-03-27T15:47:57.982Z</time></trkpt><trkpt lat="46.06188" lon="12.551535"><ele>153.0</ele><time>2026-03-27T15:47:59.982Z</time></trkpt><trkpt lat="46.0619283" lon="12.551595"><ele>153.0</ele><time>2026-03-27T15:48:01.982Z</time></trkpt><trkpt lat="46.0619483" lon="12.5517017"><ele>153.0</ele><time>2026-03-27T15:48:04.982Z</time></trkpt><trkpt lat="46.0620183" lon="12.55182"><ele>153.0</ele><time>2026-03-27T15:48:06.986Z</time></trkpt><trkpt lat="46.06206" lon="12.5519517"><ele>153.0</ele><time>2026-03-27T15:48:07.982Z</time></trkpt><trkpt lat="46.0621" lon="12.5520683"><ele>153.0</ele><time>2026-03-27T15:48:08.982Z</time></trkpt><trkpt lat="46.06214" lon="12.5522133"><ele>152.6</ele><time>2026-03-27T15:48:09.982Z</time></trkpt><trkpt lat="46.0621833" lon="12.5523583"><ele>152.20000000000002</ele><time>2026-03-27T15:48:10.983Z</time></trkpt><trkpt lat="46.0622217" lon="12.5524867"><ele>151.8</ele><time>2026-03-27T15:48:11.982Z</time></trkpt><trkpt lat="46.06226" lon="12.55261"><ele>151.4</ele><time>2026-03-27T15:48:12.982Z</time></trkpt><trkpt lat="46.0622867" lon="12.5527383"><ele>151.0</ele><time>2026-03-27T15:48:13.983Z</time></trkpt><trkpt lat="46.062305" lon="12.55288"><ele>151.0</ele><time>2026-03-27T15:48:14.986Z</time></trkpt><trkpt lat="46.0623217" lon="12.5530383"><ele>151.0</ele><time>2026-03-27T15:48:15.985Z</time></trkpt><trkpt lat="46.0623367" lon="12.5531883"><ele>151.0</ele><time>2026-03-27T15:48:16.984Z</time></trkpt><trkpt lat="46.0623517" lon="12.5533317"><ele>151.0</ele><time>2026-03-27T15:48:17.983Z</time></trkpt><trkpt lat="46.062365" lon="12.55346"><ele>151.0</ele><time>2026-03-27T15:48:18.982Z</time></trkpt><trkpt lat="46.0623883" lon="12.5535983"><ele>150.83333333333334</ele><time>2026-03-27T15:48:19.983Z</time></trkpt><trkpt lat="46.062415" lon="12.5537283"><ele>150.66666666666669</ele><time>2026-03-27T15:48:20.983Z</time></trkpt><trkpt lat="46.0624467" lon="12.55384"><ele>150.5</ele><time>2026-03-27T15:48:21.982Z</time></trkpt><trkpt lat="46.0624833" lon="12.5539317"><ele>150.33333333333334</ele><time>2026-03-27T15:48:22.983Z</time></trkpt><trkpt lat="46.0625233" lon="12.55401"><ele>150.16666666666666</ele><time>2026-03-27T15:48:23.982Z</time></trkpt><trkpt lat="46.0625683" lon="12.554085"><ele>150.0</ele><time>2026-03-27T15:48:24.982Z</time></trkpt><trkpt lat="46.0626167" lon="12.5541717"><ele>151.0</ele><time>2026-03-27T15:48:25.983Z</time></trkpt><trkpt lat="46.0626633" lon="12.5542617"><ele>152.0</ele><time>2026-03-27T15:48:26.984Z</time></trkpt><trkpt lat="46.0627017" lon="12.5543667"><ele>153.0</ele><time>2026-03-27T15:48:27.982Z</time></trkpt><trkpt lat="46.0627283" lon="12.55448"><ele>154.0</ele><time>2026-03-27T15:48:28.983Z</time></trkpt><trkpt lat="46.06276" lon="12.55458"><ele>155.0</ele><time>2026-03-27T15:48:29.982Z</time></trkpt><trkpt lat="46.0627967" lon="12.55469"><ele>156.0</ele><time>2026-03-27T15:48:30.982Z</time></trkpt><trkpt lat="46.06283" lon="12.5548"><ele>156.0</ele><time>2026-03-27T15:48:31.984Z</time></trkpt><trkpt lat="46.0628817" lon="12.55492"><ele>156.0</ele><time>2026-03-27T15:48:32.982Z</time></trkpt><trkpt lat="46.062935" lon="12.5550167"><ele>156.0</ele><time>2026-03-27T15:48:33.982Z</time></trkpt><trkpt lat="46.0629817" lon="12.5550967"><ele>156.0</ele><time>2026-03-27T15:48:34.985Z</time></trkpt><trkpt lat="46.0630317" lon="12.555165"><ele>156.0</ele><time>2026-03-27T15:48:35.983Z</time></trkpt><trkpt lat="46.063085" lon="12.5552367"><ele>156.0</ele><time>2026-03-27T15:48:36.982Z</time></trkpt><trkpt lat="46.0631483" lon="12.5552733"><ele>156.0</ele><time>2026-03-27T15:48:37.982Z</time></trkpt><trkpt lat="46.06321" lon="12.555325"><ele>156.0</ele><time>2026-03-27T15:48:38.983Z</time></trkpt><trkpt lat="46.0632783" lon="12.5553717"><ele>156.0</ele><time>2026-03-27T15:48:39.983Z</time></trkpt><trkpt lat="46.0633683" lon="12.5554933"><ele>156.0</ele><time>2026-03-27T15:48:41.983Z</time></trkpt><trkpt lat="46.0634417" lon="12.5555583"><ele>156.0</ele><time>2026-03-27T15:48:43.983Z</time></trkpt><trkpt lat="46.0635017" lon="12.5556383"><ele>156.0</ele><time>2026-03-27T15:48:45.982Z</time></trkpt><trkpt lat="46.0635767" lon="12.555765"><ele>160.2</ele><time>2026-03-27T15:48:47.982Z</time></trkpt><trkpt lat="46.06365" lon="12.5559067"><ele>164.39999999999998</ele><time>2026-03-27T15:48:49.983Z</time></trkpt><trkpt lat="46.06367" lon="12.5560017"><ele>168.6</ele><time>2026-03-27T15:48:50.983Z</time></trkpt><trkpt lat="46.06368" lon="12.55611"><ele>172.79999999999998</ele><time>2026-03-27T15:48:51.982Z</time></trkpt><trkpt lat="46.0636967" lon="12.55621"><ele>177.0</ele><time>2026-03-27T15:48:52.982Z</time></trkpt><trkpt lat="46.0637067" lon="12.5563717"><ele>177.16666666666666</ele><time>2026-03-27T15:48:54.983Z</time></trkpt><trkpt lat="46.0637183" lon="12.5565017"><ele>177.33333333333334</ele><time>2026-03-27T15:48:57.982Z</time></trkpt><trkpt lat="46.0637083" lon="12.5566267"><ele>177.5</ele><time>2026-03-27T15:48:59.982Z</time></trkpt><trkpt lat="46.0636783" lon="12.556735"><ele>177.66666666666669</ele><time>2026-03-27T15:49:01.983Z</time></trkpt><trkpt lat="46.063695" lon="12.556865"><ele>177.83333333333334</ele><time>2026-03-27T15:49:04.985Z</time></trkpt><trkpt lat="46.063745" lon="12.5569767"><ele>178.0</ele><time>2026-03-27T15:49:06.982Z</time></trkpt><trkpt lat="46.063785" lon="12.5570933"><ele>178.16666666666669</ele><time>2026-03-27T15:49:08.982Z</time></trkpt><trkpt lat="46.0638067" lon="12.5571933"><ele>178.33333333333334</ele><time>2026-03-27T15:49:10.984Z</time></trkpt><trkpt lat="46.06385" lon="12.557315"><ele>178.5</ele><time>2026-03-27T15:49:12.982Z</time></trkpt><trkpt lat="46.0638917" lon="12.5574433"><ele>178.66666666666666</ele><time>2026-03-27T15:49:14.985Z</time></trkpt><trkpt lat="46.06393" lon="12.5575767"><ele>178.83333333333331</ele><time>2026-03-27T15:49:16.982Z</time></trkpt><trkpt lat="46.06395" lon="12.5576817"><ele>179.0</ele><time>2026-03-27T15:49:18.982Z</time></trkpt><trkpt lat="46.063955" lon="12.5577883"><ele>178.66666666666666</ele><time>2026-03-27T15:49:20.983Z</time></trkpt><trkpt lat="46.0639567" lon="12.5579033"><ele>178.33333333333331</ele><time>2026-03-27T15:49:22.982Z</time></trkpt><trkpt lat="46.0639967" lon="12.5580133"><ele>178.0</ele><time>2026-03-27T15:49:25.983Z</time></trkpt><trkpt lat="46.0640683" lon="12.5580317"><ele>177.66666666666666</ele><time>2026-03-27T15:49:27.983Z</time></trkpt><trkpt lat="46.064165" lon="12.55804"><ele>177.33333333333334</ele><time>2026-03-27T15:49:29.982Z</time></trkpt><trkpt lat="46.0642533" lon="12.5580383"><ele>177.0</ele><time>2026-03-27T15:49:31.983Z</time></trkpt><trkpt lat="46.0643317" lon="12.558045"><ele>180.2</ele><time>2026-03-27T15:49:33.982Z</time></trkpt><trkpt lat="46.0643967" lon="12.55806"><ele>183.39999999999998</ele><time>2026-03-27T15:49:35.983Z</time></trkpt><trkpt lat="46.0644717" lon="12.558065"><ele>186.60000000000002</ele><time>2026-03-27T15:49:37.985Z</time></trkpt><trkpt lat="46.06458" lon="12.5581017"><ele>189.8</ele><time>2026-03-27T15:49:39.984Z</time></trkpt><trkpt lat="46.0646767" lon="12.5581767"><ele>193.0</ele><time>2026-03-27T15:49:41.984Z</time></trkpt><trkpt lat="46.0647767" lon="12.55827"><ele>192.99999999999997</ele><time>2026-03-27T15:49:43.983Z</time></trkpt><trkpt lat="46.064885" lon="12.5583267"><ele>193.0</ele><time>2026-03-27T15:49:45.982Z</time></trkpt><trkpt lat="46.0649583" lon="12.55836"><ele>193.0</ele><time>2026-03-27T15:49:46.983Z</time></trkpt><trkpt lat="46.0650317" lon="12.558415"><ele>193.0</ele><time>2026-03-27T15:49:47.983Z</time></trkpt><trkpt lat="46.0651" lon="12.5584683"><ele>192.99999999999997</ele><time>2026-03-27T15:49:48.982Z</time></trkpt><trkpt lat="46.06517" lon="12.5585117"><ele>193.0</ele><time>2026-03-27T15:49:49.985Z</time></trkpt><trkpt lat="46.065265" lon="12.5585683"><ele>192.49999999999997</ele><time>2026-03-27T15:49:51.982Z</time></trkpt><trkpt lat="46.065355" lon="12.5586033"><ele>192.0</ele><time>2026-03-27T15:49:53.984Z</time></trkpt><trkpt lat="46.0654367" lon="12.5586183"><ele>191.5</ele><time>2026-03-27T15:49:55.982Z</time></trkpt><trkpt lat="46.0655333" lon="12.5586483"><ele>191.0</ele><time>2026-03-27T15:49:58.983Z</time></trkpt><trkpt lat="46.0655967" lon="12.55868"><ele>190.5</ele><time>2026-03-27T15:50:00.982Z</time></trkpt><trkpt lat="46.0656417" lon="12.558775"><ele>190.0</ele><time>2026-03-27T15:50:02.983Z</time></trkpt><trkpt lat="46.06571" lon="12.55887"><ele>190.0</ele><time>2026-03-27T15:50:04.982Z</time></trkpt><trkpt lat="46.065775" lon="12.5589867"><ele>190.0</ele><time>2026-03-27T15:50:06.983Z</time></trkpt><trkpt lat="46.0658333" lon="12.55905"><ele>190.0</ele><time>2026-03-27T15:50:08.982Z</time></trkpt><trkpt lat="46.0658933" lon="12.55917"><ele>190.0</ele><time>2026-03-27T15:50:11.983Z</time></trkpt><trkpt lat="46.0659667" lon="12.55925"><ele>190.0</ele><time>2026-03-27T15:50:13.982Z</time></trkpt><trkpt lat="46.066005" lon="12.5593283"><ele>190.0</ele><time>2026-03-27T15:50:15.982Z</time></trkpt><trkpt lat="46.0660367" lon="12.5594117"><ele>191.5</ele><time>2026-03-27T15:50:17.984Z</time></trkpt><trkpt lat="46.0660417" lon="12.5595117"><ele>193.0</ele><time>2026-03-27T15:50:20.984Z</time></trkpt><trkpt lat="46.0660333" lon="12.559625"><ele>194.5</ele><time>2026-03-27T15:50:22.982Z</time></trkpt><trkpt lat="46.0660283" lon="12.5597367"><ele>196.0</ele><time>2026-03-27T15:50:24.982Z</time></trkpt><trkpt lat="46.0660267" lon="12.559835"><ele>197.49999999999997</ele><time>2026-03-27T15:50:26.983Z</time></trkpt><trkpt lat="46.066015" lon="12.5599917"><ele>199.0</ele><time>2026-03-27T15:50:28.982Z</time></trkpt><trkpt lat="46.0659983" lon="12.5600833"><ele>199.16666666666666</ele><time>2026-03-27T15:50:29.983Z</time></trkpt><trkpt lat="46.0659917" lon="12.5601983"><ele>199.33333333333331</ele><time>2026-03-27T15:50:31.982Z</time></trkpt><trkpt lat="46.066" lon="12.5603067"><ele>199.5</ele><time>2026-03-27T15:50:33.982Z</time></trkpt><trkpt lat="46.066015" lon="12.5604083"><ele>199.66666666666669</ele><time>2026-03-27T15:50:35.982Z</time></trkpt><trkpt lat="46.0660233" lon="12.5605017"><ele>199.83333333333334</ele><time>2026-03-27T15:50:38.984Z</time></trkpt><trkpt lat="46.0660717" lon="12.5606417"><ele>200.0</ele><time>2026-03-27T15:50:41.983Z</time></trkpt><trkpt lat="46.0661033" lon="12.5607283"><ele>199.66666666666669</ele><time>2026-03-27T15:50:42.982Z</time></trkpt><trkpt lat="46.0661317" lon="12.56081"><ele>199.33333333333334</ele><time>2026-03-27T15:50:43.983Z</time></trkpt><trkpt lat="46.0661583" lon="12.56091"><ele>199.0</ele><time>2026-03-27T15:50:44.982Z</time></trkpt><trkpt lat="46.0661883" lon="12.56106"><ele>198.66666666666669</ele><time>2026-03-27T15:50:46.982Z</time></trkpt><trkpt lat="46.066175" lon="12.5612117"><ele>198.33333333333334</ele><time>2026-03-27T15:50:48.984Z</time></trkpt><trkpt lat="46.0661083" lon="12.5613083"><ele>198.0</ele><time>2026-03-27T15:50:50.983Z</time></trkpt><trkpt lat="46.066015" lon="12.56144"><ele>196.60000000000002</ele><time>2026-03-27T15:50:52.987Z</time></trkpt><trkpt lat="46.06598" lon="12.5615917"><ele>195.20000000000002</ele><time>2026-03-27T15:50:54.982Z</time></trkpt><trkpt lat="46.0660317" lon="12.5617567"><ele>193.8</ele><time>2026-03-27T15:50:56.983Z</time></trkpt><trkpt lat="46.0660867" lon="12.56183"><ele>192.4</ele><time>2026-03-27T15:50:57.983Z</time></trkpt><trkpt lat="46.06612" lon="12.5619267"><ele>191.0</ele><time>2026-03-27T15:50:58.983Z</time></trkpt><trkpt lat="46.0661467" lon="12.5620267"><ele>190.5</ele><time>2026-03-27T15:50:59.984Z</time></trkpt><trkpt lat="46.0661483" lon="12.562135"><ele>190.0</ele><time>2026-03-27T15:51:00.982Z</time></trkpt><trkpt lat="46.0661267" lon="12.5622367"><ele>189.5</ele><time>2026-03-27T15:51:01.983Z</time></trkpt><trkpt lat="46.0660967" lon="12.5623717"><ele>189.0</ele><time>2026-03-27T15:51:03.985Z</time></trkpt><trkpt lat="46.0661317" lon="12.5624817"><ele>188.5</ele><time>2026-03-27T15:51:06.982Z</time></trkpt><trkpt lat="46.0661967" lon="12.562615"><ele>188.0</ele><time>2026-03-27T15:51:08.984Z</time></trkpt><trkpt lat="46.06624" lon="12.5627117"><ele>188.0</ele><time>2026-03-27T15:51:10.983Z</time></trkpt><trkpt lat="46.0663067" lon="12.5627933"><ele>188.0</ele><time>2026-03-27T15:51:12.984Z</time></trkpt><trkpt lat="46.066395" lon="12.5628667"><ele>188.0</ele><time>2026-03-27T15:51:14.984Z</time></trkpt><trkpt lat="46.066445" lon="12.5629933"><ele>188.0</ele><time>2026-03-27T15:51:26.983Z</time></trkpt><trkpt lat="46.0664333" lon="12.5631483"><ele>188.0</ele><time>2026-03-27T15:51:28.983Z</time></trkpt><trkpt lat="46.06643" lon="12.5632417"><ele>187.16666666666666</ele><time>2026-03-27T15:51:31.984Z</time></trkpt><trkpt lat="46.0664383" lon="12.563335"><ele>186.33333333333331</ele><time>2026-03-27T15:51:33.982Z</time></trkpt><trkpt lat="46.0664667" lon="12.56347"><ele>185.5</ele><time>2026-03-27T15:51:35.983Z</time></trkpt><trkpt lat="46.0664917" lon="12.5636"><ele>184.66666666666666</ele><time>2026-03-27T15:51:37.982Z</time></trkpt><trkpt lat="46.0665033" lon="12.5637433"><ele>183.83333333333334</ele><time>2026-03-27T15:51:39.982Z</time></trkpt><trkpt lat="46.0665117" lon="12.56384"><ele>183.0</ele><time>2026-03-27T15:51:40.982Z</time></trkpt><trkpt lat="46.06653" lon="12.56394"><ele>182.5</ele><time>2026-03-27T15:51:41.983Z</time></trkpt><trkpt lat="46.066545" lon="12.5640333"><ele>182.0</ele><time>2026-03-27T15:51:43.983Z</time></trkpt><trkpt lat="46.0666117" lon="12.5640367"><ele>181.5</ele><time>2026-03-27T15:52:01.983Z</time></trkpt><trkpt lat="46.06667" lon="12.5639933"><ele>181.0</ele><time>2026-03-27T15:52:05.983Z</time></trkpt><trkpt lat="46.0667467" lon="12.563915"><ele>180.5</ele><time>2026-03-27T15:52:08.982Z</time></trkpt><trkpt lat="46.0668317" lon="12.56383"><ele>180.0</ele><time>2026-03-27T15:52:10.982Z</time></trkpt><trkpt lat="46.0669167" lon="12.5637133"><ele>181.4</ele><time>2026-03-27T15:52:12.983Z</time></trkpt><trkpt lat="46.0669667" lon="12.5635817"><ele>182.8</ele><time>2026-03-27T15:52:14.983Z</time></trkpt><trkpt lat="46.0670333" lon="12.563445"><ele>184.2</ele><time>2026-03-27T15:52:16.982Z</time></trkpt><trkpt lat="46.0671017" lon="12.56333"><ele>185.6</ele><time>2026-03-27T15:52:18.983Z</time></trkpt><trkpt lat="46.0671833" lon="12.563365"><ele>187.0</ele><time>2026-03-27T15:52:20.983Z</time></trkpt><trkpt lat="46.0672783" lon="12.5634517"><ele>187.0</ele><time>2026-03-27T15:52:22.983Z</time></trkpt><trkpt lat="46.0673433" lon="12.563475"><ele>187.0</ele><time>2026-03-27T15:52:23.983Z</time></trkpt><trkpt lat="46.067445" lon="12.5635617"><ele>187.0</ele><time>2026-03-27T15:52:25.984Z</time></trkpt><trkpt lat="46.0675" lon="12.56366"><ele>187.0</ele><time>2026-03-27T15:52:27.982Z</time></trkpt><trkpt lat="46.067545" lon="12.5638117"><ele>187.0</ele><time>2026-03-27T15:52:29.982Z</time></trkpt><trkpt lat="46.0676" lon="12.5639533"><ele>186.33333333333334</ele><time>2026-03-27T15:52:31.983Z</time></trkpt><trkpt lat="46.0676467" lon="12.5640217"><ele>185.66666666666669</ele><time>2026-03-27T15:52:32.982Z</time></trkpt><trkpt lat="46.0677117" lon="12.564075"><ele>185.0</ele><time>2026-03-27T15:52:33.983Z</time></trkpt><trkpt lat="46.0677867" lon="12.564125"><ele>184.33333333333334</ele><time>2026-03-27T15:52:34.985Z</time></trkpt><trkpt lat="46.067865" lon="12.5641583"><ele>183.66666666666666</ele><time>2026-03-27T15:52:35.982Z</time></trkpt><trkpt lat="46.06794" lon="12.5641917"><ele>183.0</ele><time>2026-03-27T15:52:36.983Z</time></trkpt><trkpt lat="46.0680133" lon="12.5642183"><ele>183.0</ele><time>2026-03-27T15:52:37.984Z</time></trkpt><trkpt lat="46.0680767" lon="12.5642383"><ele>183.0</ele><time>2026-03-27T15:52:38.983Z</time></trkpt><trkpt lat="46.068195" lon="12.5642667"><ele>183.0</ele><time>2026-03-27T15:52:40.982Z</time></trkpt><trkpt lat="46.0682883" lon="12.5643283"><ele>183.0</ele><time>2026-03-27T15:52:42.984Z</time></trkpt><trkpt lat="46.0683683" lon="12.5644067"><ele>183.0</ele><time>2026-03-27T15:52:44.984Z</time></trkpt><trkpt lat="46.068455" lon="12.56447"><ele>183.8</ele><time>2026-03-27T15:52:46.982Z</time></trkpt><trkpt lat="46.0685383" lon="12.5645283"><ele>184.60000000000002</ele><time>2026-03-27T15:52:48.982Z</time></trkpt><trkpt lat="46.0686417" lon="12.5646017"><ele>185.39999999999998</ele><time>2026-03-27T15:52:50.985Z</time></trkpt><trkpt lat="46.0686867" lon="12.5647317"><ele>186.2</ele><time>2026-03-27T15:52:52.984Z</time></trkpt><trkpt lat="46.0687167" lon="12.5648467"><ele>187.0</ele><time>2026-03-27T15:52:54.982Z</time></trkpt><trkpt lat="46.0687583" lon="12.5650117"><ele>187.0</ele><time>2026-03-27T15:52:56.984Z</time></trkpt><trkpt lat="46.0688133" lon="12.5651717"><ele>187.0</ele><time>2026-03-27T15:52:58.982Z</time></trkpt><trkpt lat="46.06887" lon="12.5653383"><ele>187.0</ele><time>2026-03-27T15:53:00.982Z</time></trkpt><trkpt lat="46.0688933" lon="12.5654417"><ele>187.0</ele><time>2026-03-27T15:53:01.983Z</time></trkpt><trkpt lat="46.0689267" lon="12.5655517"><ele>187.0</ele><time>2026-03-27T15:53:02.983Z</time></trkpt><trkpt lat="46.0689417" lon="12.5656617"><ele>186.66666666666669</ele><time>2026-03-27T15:53:03.982Z</time></trkpt><trkpt lat="46.0689633" lon="12.5657683"><ele>186.33333333333334</ele><time>2026-03-27T15:53:04.982Z</time></trkpt><trkpt lat="46.0689783" lon="12.5658583"><ele>186.0</ele><time>2026-03-27T15:53:05.985Z</time></trkpt><trkpt lat="46.0689983" lon="12.5660367"><ele>185.66666666666666</ele><time>2026-03-27T15:53:07.983Z</time></trkpt><trkpt lat="46.0690117" lon="12.566155"><ele>185.33333333333331</ele><time>2026-03-27T15:53:08.986Z</time></trkpt><trkpt lat="46.06903" lon="12.566265"><ele>185.0</ele><time>2026-03-27T15:53:09.982Z</time></trkpt><trkpt lat="46.0690417" lon="12.56639"><ele>184.0</ele><time>2026-03-27T15:53:10.982Z</time></trkpt><trkpt lat="46.0690567" lon="12.5665"><ele>183.0</ele><time>2026-03-27T15:53:11.984Z</time></trkpt><trkpt lat="46.06906" lon="12.5666583"><ele>182.0</ele><time>2026-03-27T15:53:13.983Z</time></trkpt><trkpt lat="46.06907" lon="12.5668417"><ele>181.0</ele><time>2026-03-27T15:53:15.986Z</time></trkpt><trkpt lat="46.0690783" lon="12.5669317"><ele>180.0</ele><time>2026-03-27T15:53:16.983Z</time></trkpt><trkpt lat="46.069075" lon="12.5670267"><ele>179.0</ele><time>2026-03-27T15:53:17.984Z</time></trkpt><trkpt lat="46.0690517" lon="12.5671217"><ele>177.6</ele><time>2026-03-27T15:53:18.984Z</time></trkpt><trkpt lat="46.0689983" lon="12.567225"><ele>176.2</ele><time>2026-03-27T15:53:19.982Z</time></trkpt><trkpt lat="46.06895" lon="12.567345"><ele>174.79999999999998</ele><time>2026-03-27T15:53:20.983Z</time></trkpt><trkpt lat="46.0689033" lon="12.5674517"><ele>173.39999999999998</ele><time>2026-03-27T15:53:21.982Z</time></trkpt><trkpt lat="46.0688133" lon="12.5675867"><ele>172.0</ele><time>2026-03-27T15:53:23.984Z</time></trkpt><trkpt lat="46.0687633" lon="12.5676467"><ele>172.0</ele><time>2026-03-27T15:53:24.982Z</time></trkpt><trkpt lat="46.0687033" lon="12.5677083"><ele>172.0</ele><time>2026-03-27T15:53:25.982Z</time></trkpt><trkpt lat="46.0685917" lon="12.5678067"><ele>172.0</ele><time>2026-03-27T15:53:27.982Z</time></trkpt><trkpt lat="46.06847" lon="12.567895"><ele>172.0</ele><time>2026-03-27T15:53:29.982Z</time></trkpt><trkpt lat="46.0684033" lon="12.5679683"><ele>172.0</ele><time>2026-03-27T15:53:30.983Z</time></trkpt><trkpt lat="46.06835" lon="12.5680217"><ele>168.79999999999998</ele><time>2026-03-27T15:53:31.984Z</time></trkpt><trkpt lat="46.06826" lon="12.568025"><ele>165.6</ele><time>2026-03-27T15:53:33.982Z</time></trkpt><trkpt lat="46.0681667" lon="12.5680717"><ele>162.39999999999998</ele><time>2026-03-27T15:53:36.982Z</time></trkpt><trkpt lat="46.0681083" lon="12.5682117"><ele>159.2</ele><time>2026-03-27T15:53:38.984Z</time></trkpt><trkpt lat="46.0680567" lon="12.5683383"><ele>156.0</ele><time>2026-03-27T15:53:40.984Z</time></trkpt><trkpt lat="46.0680317" lon="12.5684283"><ele>156.0</ele><time>2026-03-27T15:53:43.983Z</time></trkpt><trkpt lat="46.0679883" lon="12.5685183"><ele>156.0</ele><time>2026-03-27T15:53:46.988Z</time></trkpt><trkpt lat="46.0679233" lon="12.568635"><ele>156.0</ele><time>2026-03-27T15:54:19.983Z</time></trkpt><trkpt lat="46.0679117" lon="12.5687617"><ele>156.0</ele><time>2026-03-27T15:54:45.982Z</time></trkpt><trkpt lat="46.0679033" lon="12.5688567"><ele>156.0</ele><time>2026-03-27T15:54:48.983Z</time></trkpt><trkpt lat="46.067945" lon="12.568925"><ele>156.0</ele><time>2026-03-27T15:55:57.983Z</time></trkpt><trkpt lat="46.0680267" lon="12.5689467"><ele>156.0</ele><time>2026-03-27T15:55:59.983Z</time></trkpt><trkpt lat="46.0681267" lon="12.5689683"><ele>156.0</ele><time>2026-03-27T15:56:01.984Z</time></trkpt><trkpt lat="46.0682183" lon="12.56901"><ele>156.0</ele><time>2026-03-27T15:56:03.984Z</time></trkpt><trkpt lat="46.068325" lon="12.5690833"><ele>156.0</ele><time>2026-03-27T15:56:05.984Z</time></trkpt><trkpt lat="46.0684083" lon="12.56915"><ele>156.0</ele><time>2026-03-27T15:56:07.982Z</time></trkpt><trkpt lat="46.0684367" lon="12.5692367"><ele>156.0</ele><time>2026-03-27T15:56:09.982Z</time></trkpt><trkpt lat="46.06844" lon="12.5693317"><ele>156.0</ele><time>2026-03-27T15:56:11.985Z</time></trkpt><trkpt lat="46.06846" lon="12.5694433"><ele>156.0</ele><time>2026-03-27T15:56:13.983Z</time></trkpt><trkpt lat="46.068505" lon="12.5696033"><ele>156.0</ele><time>2026-03-27T15:56:15.982Z</time></trkpt><trkpt lat="46.0685633" lon="12.5697233"><ele>156.0</ele><time>2026-03-27T15:56:16.982Z</time></trkpt><trkpt lat="46.06862" lon="12.5698483"><ele>155.66666666666666</ele><time>2026-03-27T15:56:17.983Z</time></trkpt><trkpt lat="46.068665" lon="12.569945"><ele>155.33333333333334</ele><time>2026-03-27T15:56:18.982Z</time></trkpt><trkpt lat="46.0687117" lon="12.5700483"><ele>155.0</ele><time>2026-03-27T15:56:19.983Z</time></trkpt><trkpt lat="46.0687533" lon="12.57016"><ele>154.66666666666669</ele><time>2026-03-27T15:56:20.983Z</time></trkpt><trkpt lat="46.0687917" lon="12.570285"><ele>154.33333333333334</ele><time>2026-03-27T15:56:21.983Z</time></trkpt><trkpt lat="46.0688317" lon="12.5703983"><ele>154.0</ele><time>2026-03-27T15:56:22.982Z</time></trkpt><trkpt lat="46.0688783" lon="12.5704983"><ele>153.5</ele><time>2026-03-27T15:56:23.982Z</time></trkpt><trkpt lat="46.0689167" lon="12.5705883"><ele>153.0</ele><time>2026-03-27T15:56:24.985Z</time></trkpt><trkpt lat="46.06892" lon="12.5707367"><ele>152.5</ele><time>2026-03-27T15:56:26.983Z</time></trkpt><trkpt lat="46.0688567" lon="12.570835"><ele>152.0</ele><time>2026-03-27T15:56:28.982Z</time></trkpt><trkpt lat="46.0687917" lon="12.57085"><ele>151.5</ele><time>2026-03-27T15:56:29.984Z</time></trkpt><trkpt lat="46.06872" lon="12.57088"><ele>151.0</ele><time>2026-03-27T15:56:30.983Z</time></trkpt><trkpt lat="46.0686583" lon="12.5709133"><ele>151.0</ele><time>2026-03-27T15:56:31.983Z</time></trkpt><trkpt lat="46.0685583" lon="12.57103"><ele>151.0</ele><time>2026-03-27T15:56:33.982Z</time></trkpt><trkpt lat="46.0684983" lon="12.571105"><ele>151.0</ele><time>2026-03-27T15:56:34.983Z</time></trkpt><trkpt lat="46.0684367" lon="12.5711867"><ele>151.0</ele><time>2026-03-27T15:56:35.982Z</time></trkpt><trkpt lat="46.0683817" lon="12.571255"><ele>151.0</ele><time>2026-03-27T15:56:36.984Z</time></trkpt><trkpt lat="46.06832" lon="12.5713517"><ele>151.33333333333334</ele><time>2026-03-27T15:56:38.984Z</time></trkpt><trkpt lat="46.068315" lon="12.5715083"><ele>151.66666666666669</ele><time>2026-03-27T15:56:47.982Z</time></trkpt><trkpt lat="46.068375" lon="12.5715767"><ele>152.0</ele><time>2026-03-27T15:56:48.983Z</time></trkpt><trkpt lat="46.0684467" lon="12.571625"><ele>152.33333333333334</ele><time>2026-03-27T15:56:49.982Z</time></trkpt><trkpt lat="46.06852" lon="12.571675"><ele>152.66666666666666</ele><time>2026-03-27T15:56:50.985Z</time></trkpt><trkpt lat="46.0686017" lon="12.57173"><ele>153.0</ele><time>2026-03-27T15:56:51.984Z</time></trkpt><trkpt lat="46.068695" lon="12.571775"><ele>153.0</ele><time>2026-03-27T15:56:52.983Z</time></trkpt><trkpt lat="46.068795" lon="12.5718117"><ele>153.0</ele><time>2026-03-27T15:56:53.983Z</time></trkpt><trkpt lat="46.0688967" lon="12.57183"><ele>153.0</ele><time>2026-03-27T15:56:54.982Z</time></trkpt><trkpt lat="46.069005" lon="12.5718483"><ele>153.0</ele><time>2026-03-27T15:56:55.982Z</time></trkpt><trkpt lat="46.06912" lon="12.5718633"><ele>153.0</ele><time>2026-03-27T15:56:56.985Z</time></trkpt><trkpt lat="46.0692367" lon="12.5718617"><ele>154.25</ele><time>2026-03-27T15:56:57.983Z</time></trkpt><trkpt lat="46.0693583" lon="12.5718567"><ele>155.5</ele><time>2026-03-27T15:56:58.982Z</time></trkpt><trkpt lat="46.0694833" lon="12.57185"><ele>156.75</ele><time>2026-03-27T15:56:59.987Z</time></trkpt><trkpt lat="46.0696083" lon="12.5718367"><ele>158.0</ele><time>2026-03-27T15:57:00.984Z</time></trkpt><trkpt lat="46.0697333" lon="12.5718267"><ele>158.0</ele><time>2026-03-27T15:57:01.983Z</time></trkpt><trkpt lat="46.069855" lon="12.57182"><ele>158.0</ele><time>2026-03-27T15:57:02.982Z</time></trkpt><trkpt lat="46.0699767" lon="12.5718"><ele>158.0</ele><time>2026-03-27T15:57:03.987Z</time></trkpt><trkpt lat="46.0701017" lon="12.57179"><ele>158.0</ele><time>2026-03-27T15:57:04.982Z</time></trkpt><trkpt lat="46.07023" lon="12.5717983"><ele>158.0</ele><time>2026-03-27T15:57:05.982Z</time></trkpt><trkpt lat="46.0703583" lon="12.5718233"><ele>158.0</ele><time>2026-03-27T15:57:06.984Z</time></trkpt><trkpt lat="46.070485" lon="12.5718767"><ele>158.0</ele><time>2026-03-27T15:57:07.983Z</time></trkpt><trkpt lat="46.07061" lon="12.5719483"><ele>158.0</ele><time>2026-03-27T15:57:08.983Z</time></trkpt><trkpt lat="46.07073" lon="12.572045"><ele>158.5</ele><time>2026-03-27T15:57:09.982Z</time></trkpt><trkpt lat="46.0708433" lon="12.5721617"><ele>159.0</ele><time>2026-03-27T15:57:10.982Z</time></trkpt><trkpt lat="46.0709483" lon="12.5722983"><ele>159.5</ele><time>2026-03-27T15:57:11.982Z</time></trkpt><trkpt lat="46.071045" lon="12.5724567"><ele>160.0</ele><time>2026-03-27T15:57:12.982Z</time></trkpt><trkpt lat="46.0711267" lon="12.57264"><ele>160.0</ele><time>2026-03-27T15:57:13.982Z</time></trkpt><trkpt lat="46.0712017" lon="12.572835"><ele>160.0</ele><time>2026-03-27T15:57:14.982Z</time></trkpt><trkpt lat="46.0712783" lon="12.573025"><ele>160.0</ele><time>2026-03-27T15:57:15.984Z</time></trkpt><trkpt lat="46.0713567" lon="12.57321"><ele>159.75</ele><time>2026-03-27T15:57:16.983Z</time></trkpt><trkpt lat="46.071425" lon="12.57339"><ele>159.5</ele><time>2026-03-27T15:57:17.982Z</time></trkpt><trkpt lat="46.0714917" lon="12.57356"><ele>159.25</ele><time>2026-03-27T15:57:18.984Z</time></trkpt><trkpt lat="46.0715533" lon="12.573725"><ele>159.0</ele><time>2026-03-27T15:57:19.982Z</time></trkpt><trkpt lat="46.071615" lon="12.5738967"><ele>159.75</ele><time>2026-03-27T15:57:20.983Z</time></trkpt><trkpt lat="46.071685" lon="12.574075"><ele>160.5</ele><time>2026-03-27T15:57:21.982Z</time></trkpt><trkpt lat="46.0717567" lon="12.574265"><ele>161.25</ele><time>2026-03-27T15:57:22.983Z</time></trkpt><trkpt lat="46.0718267" lon="12.5744633"><ele>162.0</ele><time>2026-03-27T15:57:23.983Z</time></trkpt><trkpt lat="46.0719" lon="12.5746633"><ele>162.33333333333334</ele><time>2026-03-27T15:57:24.982Z</time></trkpt><trkpt lat="46.0719767" lon="12.57487"><ele>162.66666666666669</ele><time>2026-03-27T15:57:25.988Z</time></trkpt><trkpt lat="46.072055" lon="12.5750783"><ele>163.0</ele><time>2026-03-27T15:57:26.982Z</time></trkpt><trkpt lat="46.0721333" lon="12.5752933"><ele>163.0</ele><time>2026-03-27T15:57:27.983Z</time></trkpt><trkpt lat="46.0722117" lon="12.5755033"><ele>163.0</ele><time>2026-03-27T15:57:28.982Z</time></trkpt><trkpt lat="46.07229" lon="12.5757133"><ele>163.0</ele><time>2026-03-27T15:57:29.984Z</time></trkpt><trkpt lat="46.0723794" lon="12.575918"><ele>164.66666666666669</ele><time>2026-03-27T15:57:30.982Z</time></trkpt><trkpt lat="46.0724857" lon="12.5761116"><ele>166.33333333333334</ele><time>2026-03-27T15:57:31.983Z</time></trkpt><trkpt lat="46.0726083" lon="12.5762925"><ele>168.0</ele><time>2026-03-27T15:57:32.984Z</time></trkpt><trkpt lat="46.072744" lon="12.5764539"><ele>168.0</ele><time>2026-03-27T15:57:33.983Z</time></trkpt><trkpt lat="46.0728921" lon="12.5765999"><ele>168.0</ele><time>2026-03-27T15:57:34.982Z</time></trkpt><trkpt lat="46.0730451" lon="12.5767416"><ele>168.0</ele><time>2026-03-27T15:57:35.982Z</time></trkpt><trkpt lat="46.0731947" lon="12.5768934"><ele>170.0</ele><time>2026-03-27T15:57:36.983Z</time></trkpt><trkpt lat="46.0733416" lon="12.577051"><ele>172.0</ele><time>2026-03-27T15:57:37.982Z</time></trkpt><trkpt lat="46.0734938" lon="12.5772032"><ele>174.0</ele><time>2026-03-27T15:57:38.983Z</time></trkpt><trkpt lat="46.0736475" lon="12.5773603"><ele>174.0</ele><time>2026-03-27T15:57:39.984Z</time></trkpt><trkpt lat="46.0738022" lon="12.5775199"><ele>174.0</ele><time>2026-03-27T15:57:40.984Z</time></trkpt><trkpt lat="46.0739593" lon="12.5776823"><ele>174.0</ele><time>2026-03-27T15:57:41.983Z</time></trkpt><trkpt lat="46.074124" lon="12.5778374"><ele>174.66666666666666</ele><time>2026-03-27T15:57:42.983Z</time></trkpt><trkpt lat="46.0742956" lon="12.5779728"><ele>175.33333333333331</ele><time>2026-03-27T15:57:43.982Z</time></trkpt><trkpt lat="46.0744804" lon="12.5780496"><ele>176.0</ele><time>2026-03-27T15:57:44.984Z</time></trkpt><trkpt lat="46.0746731" lon="12.5780637"><ele>176.0</ele><time>2026-03-27T15:57:45.982Z</time></trkpt><trkpt lat="46.0748649" lon="12.5780384"><ele>176.0</ele><time>2026-03-27T15:57:46.984Z</time></trkpt><trkpt lat="46.075053" lon="12.5779725"><ele>176.0</ele><time>2026-03-27T15:57:47.986Z</time></trkpt><trkpt lat="46.0752339" lon="12.5778634"><ele>177.33333333333331</ele><time>2026-03-27T15:57:48.983Z</time></trkpt><trkpt lat="46.0754022" lon="12.5777203"><ele>178.66666666666666</ele><time>2026-03-27T15:57:49.982Z</time></trkpt><trkpt lat="46.0755649" lon="12.5775883"><ele>180.0</ele><time>2026-03-27T15:57:50.982Z</time></trkpt><trkpt lat="46.0757234" lon="12.5774655"><ele>180.66666666666666</ele><time>2026-03-27T15:57:51.985Z</time></trkpt><trkpt lat="46.0758763" lon="12.5773455"><ele>181.33333333333331</ele><time>2026-03-27T15:57:52.983Z</time></trkpt><trkpt lat="46.0760261" lon="12.577223"><ele>182.0</ele><time>2026-03-27T15:57:53.982Z</time></trkpt><trkpt lat="46.0761763" lon="12.5770956"><ele>183.0</ele><time>2026-03-27T15:57:54.982Z</time></trkpt><trkpt lat="46.0763269" lon="12.5769653"><ele>184.0</ele><time>2026-03-27T15:57:55.982Z</time></trkpt><trkpt lat="46.0764815" lon="12.5768438"><ele>185.0</ele><time>2026-03-27T15:57:56.984Z</time></trkpt><trkpt lat="46.0766396" lon="12.5767342"><ele>185.66666666666666</ele><time>2026-03-27T15:57:57.982Z</time></trkpt><trkpt lat="46.076806" lon="12.5766499"><ele>186.33333333333334</ele><time>2026-03-27T15:57:58.984Z</time></trkpt><trkpt lat="46.0769808" lon="12.5766047"><ele>187.0</ele><time>2026-03-27T15:57:59.984Z</time></trkpt><trkpt lat="46.0771615" lon="12.5765952"><ele>187.0</ele><time>2026-03-27T15:58:00.982Z</time></trkpt><trkpt lat="46.0773428" lon="12.5765982"><ele>187.0</ele><time>2026-03-27T15:58:01.984Z</time></trkpt><trkpt lat="46.0775244" lon="12.5766046"><ele>187.0</ele><time>2026-03-27T15:58:02.983Z</time></trkpt><trkpt lat="46.0777062" lon="12.5766046"><ele>188.0</ele><time>2026-03-27T15:58:03.983Z</time></trkpt><trkpt lat="46.0778886" lon="12.576606"><ele>189.0</ele><time>2026-03-27T15:58:04.982Z</time></trkpt><trkpt lat="46.0780732" lon="12.5766033"><ele>190.0</ele><time>2026-03-27T15:58:05.983Z</time></trkpt><trkpt lat="46.0782584" lon="12.5766045"><ele>191.33333333333334</ele><time>2026-03-27T15:58:06.983Z</time></trkpt><trkpt lat="46.0784448" lon="12.576612"><ele>192.66666666666669</ele><time>2026-03-27T15:58:07.983Z</time></trkpt><trkpt lat="46.0786291" lon="12.5766223"><ele>194.0</ele><time>2026-03-27T15:58:08.983Z</time></trkpt><trkpt lat="46.0788149" lon="12.5766242"><ele>194.0</ele><time>2026-03-27T15:58:09.983Z</time></trkpt><trkpt lat="46.0789999" lon="12.5766213"><ele>194.0</ele><time>2026-03-27T15:58:10.984Z</time></trkpt><trkpt lat="46.0791867" lon="12.5766295"><ele>194.0</ele><time>2026-03-27T15:58:11.983Z</time></trkpt><trkpt lat="46.0793735" lon="12.5766334"><ele>196.0</ele><time>2026-03-27T15:58:12.982Z</time></trkpt><trkpt lat="46.0795599" lon="12.5766451"><ele>198.0</ele><time>2026-03-27T15:58:13.983Z</time></trkpt><trkpt lat="46.0797467" lon="12.5766569"><ele>200.0</ele><time>2026-03-27T15:58:14.984Z</time></trkpt><trkpt lat="46.0799333" lon="12.5766663"><ele>201.66666666666669</ele><time>2026-03-27T15:58:15.982Z</time></trkpt><trkpt lat="46.0801185" lon="12.5766737"><ele>203.33333333333331</ele><time>2026-03-27T15:58:16.982Z</time></trkpt><trkpt lat="46.0803048" lon="12.5766847"><ele>205.0</ele><time>2026-03-27T15:58:17.982Z</time></trkpt><trkpt lat="46.0804886" lon="12.5767157"><ele>205.0</ele><time>2026-03-27T15:58:18.983Z</time></trkpt><trkpt lat="46.0806653" lon="12.5767943"><ele>205.0</ele><time>2026-03-27T15:58:19.983Z</time></trkpt><trkpt lat="46.0808348" lon="12.5769062"><ele>205.0</ele><time>2026-03-27T15:58:20.983Z</time></trkpt><trkpt lat="46.0809975" lon="12.5770394"><ele>205.66666666666666</ele><time>2026-03-27T15:58:21.983Z</time></trkpt><trkpt lat="46.081164" lon="12.5771728"><ele>206.33333333333331</ele><time>2026-03-27T15:58:22.984Z</time></trkpt><trkpt lat="46.0813302" lon="12.5773002"><ele>207.0</ele><time>2026-03-27T15:58:23.983Z</time></trkpt><trkpt lat="46.081495" lon="12.5774249"><ele>208.66666666666669</ele><time>2026-03-27T15:58:24.982Z</time></trkpt><trkpt lat="46.0816541" lon="12.5775524"><ele>210.33333333333334</ele><time>2026-03-27T15:58:25.982Z</time></trkpt><trkpt lat="46.0818042" lon="12.5776697"><ele>212.0</ele><time>2026-03-27T15:58:26.983Z</time></trkpt><trkpt lat="46.0819387" lon="12.5777748"><ele>211.8</ele><time>2026-03-27T15:58:27.984Z</time></trkpt><trkpt lat="46.082055" lon="12.5778675"><ele>211.6</ele><time>2026-03-27T15:58:28.983Z</time></trkpt><trkpt lat="46.0821541" lon="12.5779464"><ele>211.4</ele><time>2026-03-27T15:58:29.983Z</time></trkpt><trkpt lat="46.0822407" lon="12.5780079"><ele>211.20000000000002</ele><time>2026-03-27T15:58:30.982Z</time></trkpt><trkpt lat="46.0822949" lon="12.5781056"><ele>211.0</ele><time>2026-03-27T15:58:31.982Z</time></trkpt><trkpt lat="46.0823041" lon="12.5782376"><ele>211.0</ele><time>2026-03-27T15:58:32.983Z</time></trkpt><trkpt lat="46.0822872" lon="12.5783649"><ele>211.0</ele><time>2026-03-27T15:58:33.982Z</time></trkpt><trkpt lat="46.0822417" lon="12.5784847"><ele>211.0</ele><time>2026-03-27T15:58:34.982Z</time></trkpt><trkpt lat="46.0821679" lon="12.5786001"><ele>211.0</ele><time>2026-03-27T15:58:35.982Z</time></trkpt><trkpt lat="46.0820948" lon="12.5787291"><ele>211.0</ele><time>2026-03-27T15:58:36.982Z</time></trkpt><trkpt lat="46.0820144" lon="12.5788759"><ele>210.25</ele><time>2026-03-27T15:58:37.982Z</time></trkpt><trkpt lat="46.081926" lon="12.5790305"><ele>209.5</ele><time>2026-03-27T15:58:38.982Z</time></trkpt><trkpt lat="46.0818362" lon="12.5791891"><ele>208.75</ele><time>2026-03-27T15:58:39.985Z</time></trkpt><trkpt lat="46.0817483" lon="12.5793561"><ele>208.0</ele><time>2026-03-27T15:58:40.983Z</time></trkpt><trkpt lat="46.0816606" lon="12.579529"><ele>206.33333333333331</ele><time>2026-03-27T15:58:41.982Z</time></trkpt><trkpt lat="46.0815637" lon="12.5797035"><ele>204.66666666666669</ele><time>2026-03-27T15:58:42.983Z</time></trkpt><trkpt lat="46.0814654" lon="12.5798744"><ele>203.0</ele><time>2026-03-27T15:58:43.983Z</time></trkpt><trkpt lat="46.0813722" lon="12.5800441"><ele>203.0</ele><time>2026-03-27T15:58:44.983Z</time></trkpt><trkpt lat="46.0812783" lon="12.5802122"><ele>203.0</ele><time>2026-03-27T15:58:46.068Z</time></trkpt><trkpt lat="46.0811915" lon="12.5803757"><ele>203.0</ele><time>2026-03-27T15:58:46.982Z</time></trkpt><trkpt lat="46.0810935" lon="12.5805539"><ele>202.66666666666669</ele><time>2026-03-27T15:58:47.983Z</time></trkpt><trkpt lat="46.0809945" lon="12.580736"><ele>202.33333333333331</ele><time>2026-03-27T15:58:48.985Z</time></trkpt><trkpt lat="46.0808984" lon="12.5809151"><ele>202.0</ele><time>2026-03-27T15:58:49.982Z</time></trkpt><trkpt lat="46.0808063" lon="12.581086"><ele>200.75</ele><time>2026-03-27T15:58:50.983Z</time></trkpt><trkpt lat="46.0807204" lon="12.5812489"><ele>199.5</ele><time>2026-03-27T15:58:51.983Z</time></trkpt><trkpt lat="46.0806332" lon="12.5814168"><ele>198.25</ele><time>2026-03-27T15:58:52.982Z</time></trkpt><trkpt lat="46.0805427" lon="12.581588"><ele>197.0</ele><time>2026-03-27T15:58:53.982Z</time></trkpt><trkpt lat="46.0804549" lon="12.5817626"><ele>197.0</ele><time>2026-03-27T15:58:54.982Z</time></trkpt><trkpt lat="46.0803671" lon="12.5819298"><ele>197.0</ele><time>2026-03-27T15:58:55.985Z</time></trkpt><trkpt lat="46.080282" lon="12.582088"><ele>197.0</ele><time>2026-03-27T15:58:56.982Z</time></trkpt><trkpt lat="46.0802013" lon="12.5822363"><ele>197.0</ele><time>2026-03-27T15:58:57.982Z</time></trkpt><trkpt lat="46.0801253" lon="12.5823846"><ele>196.25</ele><time>2026-03-27T15:58:58.982Z</time></trkpt><trkpt lat="46.0800505" lon="12.5825289"><ele>195.5</ele><time>2026-03-27T15:58:59.982Z</time></trkpt><trkpt lat="46.0799762" lon="12.5826679"><ele>194.75</ele><time>2026-03-27T15:59:00.982Z</time></trkpt><trkpt lat="46.0799012" lon="12.5828127"><ele>194.0</ele><time>2026-03-27T15:59:01.985Z</time></trkpt><trkpt lat="46.0798247" lon="12.5829632"><ele>192.75</ele><time>2026-03-27T15:59:02.986Z</time></trkpt><trkpt lat="46.0797483" lon="12.5831133"><ele>191.5</ele><time>2026-03-27T15:59:03.982Z</time></trkpt><trkpt lat="46.0796746" lon="12.5832563"><ele>190.25</ele><time>2026-03-27T15:59:04.982Z</time></trkpt><trkpt lat="46.0796053" lon="12.5833881"><ele>189.0</ele><time>2026-03-27T15:59:05.984Z</time></trkpt><trkpt lat="46.0795376" lon="12.5835025"><ele>189.0</ele><time>2026-03-27T15:59:06.984Z</time></trkpt><trkpt lat="46.0794771" lon="12.5836097"><ele>189.0</ele><time>2026-03-27T15:59:07.983Z</time></trkpt><trkpt lat="46.0794234" lon="12.5837085"><ele>189.0</ele><time>2026-03-27T15:59:08.982Z</time></trkpt><trkpt lat="46.0793931" lon="12.5838062"><ele>189.0</ele><time>2026-03-27T15:59:09.982Z</time></trkpt><trkpt lat="46.0794003" lon="12.5839003"><ele>189.0</ele><time>2026-03-27T15:59:10.983Z</time></trkpt><trkpt lat="46.0794503" lon="12.583978"><ele>189.0</ele><time>2026-03-27T15:59:11.982Z</time></trkpt><trkpt lat="46.0795472" lon="12.5840453"><ele>188.5</ele><time>2026-03-27T15:59:12.982Z</time></trkpt><trkpt lat="46.0796498" lon="12.584125"><ele>188.0</ele><time>2026-03-27T15:59:13.983Z</time></trkpt><trkpt lat="46.0797559" lon="12.5842133"><ele>187.5</ele><time>2026-03-27T15:59:14.983Z</time></trkpt><trkpt lat="46.0798698" lon="12.5843149"><ele>187.0</ele><time>2026-03-27T15:59:15.983Z</time></trkpt><trkpt lat="46.079988" lon="12.5844292"><ele>186.5</ele><time>2026-03-27T15:59:16.984Z</time></trkpt><trkpt lat="46.0801054" lon="12.5845482"><ele>186.0</ele><time>2026-03-27T15:59:17.982Z</time></trkpt><trkpt lat="46.0802113" lon="12.5846613"><ele>185.5</ele><time>2026-03-27T15:59:18.982Z</time></trkpt><trkpt lat="46.0803079" lon="12.5847677"><ele>185.0</ele><time>2026-03-27T15:59:19.982Z</time></trkpt><trkpt lat="46.0804014" lon="12.584872"><ele>185.0</ele><time>2026-03-27T15:59:20.984Z</time></trkpt><trkpt lat="46.0804984" lon="12.5849827"><ele>185.0</ele><time>2026-03-27T15:59:21.982Z</time></trkpt><trkpt lat="46.0805954" lon="12.5850991"><ele>185.0</ele><time>2026-03-27T15:59:22.982Z</time></trkpt><trkpt lat="46.0806895" lon="12.5852129"><ele>185.0</ele><time>2026-03-27T15:59:23.982Z</time></trkpt><trkpt lat="46.0807845" lon="12.5853067"><ele>184.2</ele><time>2026-03-27T15:59:24.982Z</time></trkpt><trkpt lat="46.0808916" lon="12.5853547"><ele>183.4</ele><time>2026-03-27T15:59:25.983Z</time></trkpt><trkpt lat="46.0810061" lon="12.5853585"><ele>182.60000000000002</ele><time>2026-03-27T15:59:26.984Z</time></trkpt><trkpt lat="46.081107" lon="12.5853794"><ele>181.8</ele><time>2026-03-27T15:59:27.982Z</time></trkpt><trkpt lat="46.0811818" lon="12.5854338"><ele>181.0</ele><time>2026-03-27T15:59:28.982Z</time></trkpt><trkpt lat="46.0812185" lon="12.585526"><ele>181.0</ele><time>2026-03-27T15:59:29.984Z</time></trkpt><trkpt lat="46.0812132" lon="12.5856662"><ele>181.0</ele><time>2026-03-27T15:59:30.982Z</time></trkpt><trkpt lat="46.0811972" lon="12.5858314"><ele>181.0</ele><time>2026-03-27T15:59:31.982Z</time></trkpt><trkpt lat="46.0811858" lon="12.5860048"><ele>181.0</ele><time>2026-03-27T15:59:32.983Z</time></trkpt><trkpt lat="46.0811801" lon="12.5861901"><ele>180.0</ele><time>2026-03-27T15:59:33.983Z</time></trkpt><trkpt lat="46.0811666" lon="12.5863783"><ele>179.0</ele><time>2026-03-27T15:59:34.982Z</time></trkpt><trkpt lat="46.0811519" lon="12.5865592"><ele>178.0</ele><time>2026-03-27T15:59:35.983Z</time></trkpt><trkpt lat="46.0811428" lon="12.5867438"><ele>177.0</ele><time>2026-03-27T15:59:36.982Z</time></trkpt><trkpt lat="46.0811643" lon="12.586936"><ele>177.0</ele><time>2026-03-27T15:59:37.983Z</time></trkpt><trkpt lat="46.0812118" lon="12.5871358"><ele>177.0</ele><time>2026-03-27T15:59:38.983Z</time></trkpt><trkpt lat="46.0812707" lon="12.5873465"><ele>177.0</ele><time>2026-03-27T15:59:39.983Z</time></trkpt><trkpt lat="46.0813353" lon="12.5875644"><ele>177.0</ele><time>2026-03-27T15:59:40.983Z</time></trkpt><trkpt lat="46.0813757" lon="12.5877975"><ele>177.0</ele><time>2026-03-27T15:59:41.982Z</time></trkpt><trkpt lat="46.0813852" lon="12.588045"><ele>177.0</ele><time>2026-03-27T15:59:42.983Z</time></trkpt><trkpt lat="46.0813952" lon="12.5882918"><ele>176.66666666666666</ele><time>2026-03-27T15:59:43.983Z</time></trkpt><trkpt lat="46.0814111" lon="12.5885425"><ele>176.33333333333331</ele><time>2026-03-27T15:59:44.982Z</time></trkpt><trkpt lat="46.0814326" lon="12.5887976"><ele>176.0</ele><time>2026-03-27T15:59:45.983Z</time></trkpt><trkpt lat="46.0814756" lon="12.5890502"><ele>175.66666666666666</ele><time>2026-03-27T15:59:46.984Z</time></trkpt><trkpt lat="46.0815472" lon="12.5892955"><ele>175.33333333333334</ele><time>2026-03-27T15:59:47.983Z</time></trkpt><trkpt lat="46.0816208" lon="12.5895423"><ele>175.0</ele><time>2026-03-27T15:59:48.982Z</time></trkpt><trkpt lat="46.081682" lon="12.589796"><ele>175.66666666666669</ele><time>2026-03-27T15:59:49.986Z</time></trkpt><trkpt lat="46.0817319" lon="12.5900445"><ele>176.33333333333334</ele><time>2026-03-27T15:59:50.982Z</time></trkpt><trkpt lat="46.0817637" lon="12.5902783"><ele>177.0</ele><time>2026-03-27T15:59:51.982Z</time></trkpt><trkpt lat="46.0817782" lon="12.5904926"><ele>177.25</ele><time>2026-03-27T15:59:52.982Z</time></trkpt><trkpt lat="46.0817804" lon="12.5906832"><ele>177.5</ele><time>2026-03-27T15:59:53.983Z</time></trkpt><trkpt lat="46.0817718" lon="12.5908614"><ele>177.75</ele><time>2026-03-27T15:59:54.983Z</time></trkpt><trkpt lat="46.0817348" lon="12.5910379"><ele>178.0</ele><time>2026-03-27T15:59:55.983Z</time></trkpt><trkpt lat="46.0816724" lon="12.5912105"><ele>178.75</ele><time>2026-03-27T15:59:56.983Z</time></trkpt><trkpt lat="46.0816026" lon="12.5913762"><ele>179.5</ele><time>2026-03-27T15:59:57.983Z</time></trkpt><trkpt lat="46.0815332" lon="12.5915404"><ele>180.25</ele><time>2026-03-27T15:59:58.986Z</time></trkpt><trkpt lat="46.0814677" lon="12.5916999"><ele>181.0</ele><time>2026-03-27T15:59:59.982Z</time></trkpt><trkpt lat="46.0814077" lon="12.5918556"><ele>181.0</ele><time>2026-03-27T16:00:00.982Z</time></trkpt><trkpt lat="46.0813425" lon="12.5919983"><ele>181.0</ele><time>2026-03-27T16:00:01.982Z</time></trkpt><trkpt lat="46.0812812" lon="12.5921264"><ele>181.0</ele><time>2026-03-27T16:00:02.984Z</time></trkpt><trkpt lat="46.0812236" lon="12.5922439"><ele>181.0</ele><time>2026-03-27T16:00:03.983Z</time></trkpt><trkpt lat="46.0811674" lon="12.5923342"><ele>181.0</ele><time>2026-03-27T16:00:04.982Z</time></trkpt><trkpt lat="46.0811215" lon="12.5923971"><ele>181.4</ele><time>2026-03-27T16:00:05.984Z</time></trkpt><trkpt lat="46.0810679" lon="12.592474"><ele>181.8</ele><time>2026-03-27T16:00:07.983Z</time></trkpt><trkpt lat="46.081124" lon="12.5925729"><ele>182.20000000000002</ele><time>2026-03-27T16:00:11.982Z</time></trkpt><trkpt lat="46.0812135" lon="12.5926335"><ele>182.60000000000002</ele><time>2026-03-27T16:00:12.982Z</time></trkpt><trkpt lat="46.0813098" lon="12.5927021"><ele>183.0</ele><time>2026-03-27T16:00:13.983Z</time></trkpt><trkpt lat="46.0814054" lon="12.5927933"><ele>183.25</ele><time>2026-03-27T16:00:14.983Z</time></trkpt><trkpt lat="46.0815081" lon="12.5928848"><ele>183.5</ele><time>2026-03-27T16:00:15.982Z</time></trkpt><trkpt lat="46.0816138" lon="12.5929835"><ele>183.75</ele><time>2026-03-27T16:00:16.984Z</time></trkpt><trkpt lat="46.0817163" lon="12.5930866"><ele>184.0</ele><time>2026-03-27T16:00:17.982Z</time></trkpt><trkpt lat="46.0818077" lon="12.59318"><ele>184.6</ele><time>2026-03-27T16:00:18.985Z</time></trkpt><trkpt lat="46.0818904" lon="12.5932511"><ele>185.2</ele><time>2026-03-27T16:00:19.982Z</time></trkpt><trkpt lat="46.0819673" lon="12.5932969"><ele>185.79999999999998</ele><time>2026-03-27T16:00:20.983Z</time></trkpt><trkpt lat="46.0820312" lon="12.5933315"><ele>186.39999999999998</ele><time>2026-03-27T16:00:21.983Z</time></trkpt><trkpt lat="46.0821028" lon="12.5934145"><ele>187.0</ele><time>2026-03-27T16:00:23.982Z</time></trkpt><trkpt lat="46.0821009" lon="12.5936076"><ele>187.0</ele><time>2026-03-27T16:00:25.982Z</time></trkpt><trkpt lat="46.0820894" lon="12.5937313"><ele>187.0</ele><time>2026-03-27T16:00:26.986Z</time></trkpt><trkpt lat="46.0820849" lon="12.5938608"><ele>187.0</ele><time>2026-03-27T16:00:27.982Z</time></trkpt><trkpt lat="46.082095" lon="12.5939798"><ele>187.0</ele><time>2026-03-27T16:00:28.983Z</time></trkpt><trkpt lat="46.0820999" lon="12.5940857"><ele>187.0</ele><time>2026-03-27T16:00:29.982Z</time></trkpt><trkpt lat="46.0821131" lon="12.5941822"><ele>187.0</ele><time>2026-03-27T16:00:30.983Z</time></trkpt><trkpt lat="46.0821272" lon="12.5942738"><ele>187.0</ele><time>2026-03-27T16:00:31.982Z</time></trkpt><trkpt lat="46.0821436" lon="12.594372"><ele>187.0</ele><time>2026-03-27T16:00:32.983Z</time></trkpt><trkpt lat="46.0821577" lon="12.5944878"><ele>187.0</ele><time>2026-03-27T16:00:33.982Z</time></trkpt><trkpt lat="46.0821686" lon="12.5946201"><ele>187.0</ele><time>2026-03-27T16:00:34.982Z</time></trkpt><trkpt lat="46.0821827" lon="12.5947707"><ele>187.0</ele><time>2026-03-27T16:00:35.985Z</time></trkpt><trkpt lat="46.0822063" lon="12.5949346"><ele>185.5</ele><time>2026-03-27T16:00:36.983Z</time></trkpt><trkpt lat="46.0822382" lon="12.5951161"><ele>184.0</ele><time>2026-03-27T16:00:37.982Z</time></trkpt><trkpt lat="46.0822712" lon="12.5953073"><ele>182.5</ele><time>2026-03-27T16:00:38.984Z</time></trkpt><trkpt lat="46.0823047" lon="12.5955019"><ele>181.0</ele><time>2026-03-27T16:00:39.986Z</time></trkpt><trkpt lat="46.0823369" lon="12.595693"><ele>180.0</ele><time>2026-03-27T16:00:40.984Z</time></trkpt><trkpt lat="46.0823717" lon="12.5958851"><ele>179.0</ele><time>2026-03-27T16:00:41.983Z</time></trkpt><trkpt lat="46.0824084" lon="12.5960815"><ele>178.0</ele><time>2026-03-27T16:00:42.984Z</time></trkpt><trkpt lat="46.0824493" lon="12.5962798"><ele>177.0</ele><time>2026-03-27T16:00:43.984Z</time></trkpt><trkpt lat="46.082484" lon="12.5964715"><ele>177.0</ele><time>2026-03-27T16:00:44.983Z</time></trkpt><trkpt lat="46.082504" lon="12.5966576"><ele>177.0</ele><time>2026-03-27T16:00:45.982Z</time></trkpt><trkpt lat="46.082508" lon="12.5968543"><ele>177.0</ele><time>2026-03-27T16:00:46.982Z</time></trkpt><trkpt lat="46.0824969" lon="12.5970655"><ele>177.0</ele><time>2026-03-27T16:00:47.983Z</time></trkpt><trkpt lat="46.0824757" lon="12.5972929"><ele>176.0</ele><time>2026-03-27T16:00:48.983Z</time></trkpt><trkpt lat="46.0824493" lon="12.5975438"><ele>175.0</ele><time>2026-03-27T16:00:49.982Z</time></trkpt><trkpt lat="46.0824162" lon="12.5978055"><ele>174.0</ele><time>2026-03-27T16:00:50.983Z</time></trkpt><trkpt lat="46.0823685" lon="12.5980535"><ele>173.66666666666666</ele><time>2026-03-27T16:00:51.982Z</time></trkpt><trkpt lat="46.0823211" lon="12.5982982"><ele>173.33333333333331</ele><time>2026-03-27T16:00:52.982Z</time></trkpt><trkpt lat="46.0822685" lon="12.5985529"><ele>173.0</ele><time>2026-03-27T16:00:53.982Z</time></trkpt><trkpt lat="46.0822178" lon="12.598824"><ele>173.0</ele><time>2026-03-27T16:00:54.982Z</time></trkpt><trkpt lat="46.0821725" lon="12.5991077"><ele>173.0</ele><time>2026-03-27T16:00:55.984Z</time></trkpt><trkpt lat="46.0821351" lon="12.599384"><ele>173.0</ele><time>2026-03-27T16:00:56.992Z</time></trkpt><trkpt lat="46.0821048" lon="12.599633"><ele>173.25</ele><time>2026-03-27T16:00:57.982Z</time></trkpt><trkpt lat="46.082075" lon="12.5998544"><ele>173.5</ele><time>2026-03-27T16:00:58.982Z</time></trkpt><trkpt lat="46.0820424" lon="12.6000453"><ele>173.75</ele><time>2026-03-27T16:00:59.985Z</time></trkpt><trkpt lat="46.0820091" lon="12.6002105"><ele>174.0</ele><time>2026-03-27T16:01:00.982Z</time></trkpt><trkpt lat="46.0819782" lon="12.6003576"><ele>174.5</ele><time>2026-03-27T16:01:01.983Z</time></trkpt><trkpt lat="46.0819437" lon="12.6005094"><ele>175.0</ele><time>2026-03-27T16:01:02.983Z</time></trkpt><trkpt lat="46.0819043" lon="12.6006849"><ele>175.5</ele><time>2026-03-27T16:01:03.983Z</time></trkpt><trkpt lat="46.0818641" lon="12.6008761"><ele>176.0</ele><time>2026-03-27T16:01:04.984Z</time></trkpt><trkpt lat="46.0818244" lon="12.6010624"><ele>175.75</ele><time>2026-03-27T16:01:05.984Z</time></trkpt><trkpt lat="46.0817855" lon="12.6012495"><ele>175.5</ele><time>2026-03-27T16:01:06.984Z</time></trkpt><trkpt lat="46.0817436" lon="12.6014333"><ele>175.25</ele><time>2026-03-27T16:01:07.984Z</time></trkpt><trkpt lat="46.0816978" lon="12.6016109"><ele>175.0</ele><time>2026-03-27T16:01:08.983Z</time></trkpt><trkpt lat="46.0816452" lon="12.6017889"><ele>175.25</ele><time>2026-03-27T16:01:09.982Z</time></trkpt><trkpt lat="46.0815839" lon="12.6019687"><ele>175.5</ele><time>2026-03-27T16:01:10.982Z</time></trkpt><trkpt lat="46.0815156" lon="12.6021503"><ele>175.75</ele><time>2026-03-27T16:01:11.984Z</time></trkpt><trkpt lat="46.0814343" lon="12.6023354"><ele>176.0</ele><time>2026-03-27T16:01:12.982Z</time></trkpt><trkpt lat="46.0813411" lon="12.6025441"><ele>175.66666666666666</ele><time>2026-03-27T16:01:13.983Z</time></trkpt><trkpt lat="46.0812407" lon="12.6027648"><ele>175.33333333333334</ele><time>2026-03-27T16:01:14.984Z</time></trkpt><trkpt lat="46.0811337" lon="12.602998"><ele>175.0</ele><time>2026-03-27T16:01:15.984Z</time></trkpt><trkpt lat="46.0810162" lon="12.6032447"><ele>175.0</ele><time>2026-03-27T16:01:16.982Z</time></trkpt><trkpt lat="46.0808999" lon="12.6034866"><ele>175.0</ele><time>2026-03-27T16:01:17.982Z</time></trkpt><trkpt lat="46.0808038" lon="12.6036918"><ele>175.0</ele><time>2026-03-27T16:01:18.982Z</time></trkpt><trkpt lat="46.0807269" lon="12.6038671"><ele>174.83333333333334</ele><time>2026-03-27T16:01:19.983Z</time></trkpt><trkpt lat="46.0806685" lon="12.6040064"><ele>174.66666666666669</ele><time>2026-03-27T16:01:20.984Z</time></trkpt><trkpt lat="46.080635" lon="12.6041017"><ele>174.5</ele><time>2026-03-27T16:01:21.982Z</time></trkpt><trkpt lat="46.080605" lon="12.6041833"><ele>174.33333333333334</ele><time>2026-03-27T16:01:22.983Z</time></trkpt><trkpt lat="46.080585" lon="12.604315"><ele>174.16666666666666</ele><time>2026-03-27T16:01:24.982Z</time></trkpt><trkpt lat="46.08058" lon="12.6044133"><ele>174.0</ele><time>2026-03-27T16:01:25.983Z</time></trkpt><trkpt lat="46.08057" lon="12.60452"><ele>173.6</ele><time>2026-03-27T16:01:26.983Z</time></trkpt><trkpt lat="46.0805517" lon="12.6046167"><ele>173.2</ele><time>2026-03-27T16:01:27.982Z</time></trkpt><trkpt lat="46.0805117" lon="12.604775"><ele>172.79999999999998</ele><time>2026-03-27T16:01:29.983Z</time></trkpt><trkpt lat="46.0804633" lon="12.6048983"><ele>172.39999999999998</ele><time>2026-03-27T16:01:31.982Z</time></trkpt><trkpt lat="46.08042" lon="12.6050033"><ele>172.0</ele><time>2026-03-27T16:01:33.983Z</time></trkpt><trkpt lat="46.080345" lon="12.60515"><ele>172.0</ele><time>2026-03-27T16:01:35.983Z</time></trkpt><trkpt lat="46.0803017" lon="12.6052383"><ele>172.0</ele><time>2026-03-27T16:01:36.982Z</time></trkpt><trkpt lat="46.080255" lon="12.6053383"><ele>172.0</ele><time>2026-03-27T16:01:37.986Z</time></trkpt><trkpt lat="46.0802067" lon="12.60548"><ele>172.0</ele><time>2026-03-27T16:01:38.984Z</time></trkpt><trkpt lat="46.0801483" lon="12.6056533"><ele>172.0</ele><time>2026-03-27T16:01:39.982Z</time></trkpt><trkpt lat="46.08008" lon="12.6058517"><ele>172.0</ele><time>2026-03-27T16:01:40.983Z</time></trkpt><trkpt lat="46.08" lon="12.6060633"><ele>172.0</ele><time>2026-03-27T16:01:41.982Z</time></trkpt><trkpt lat="46.0799117" lon="12.6062783"><ele>172.0</ele><time>2026-03-27T16:01:42.983Z</time></trkpt><trkpt lat="46.0798317" lon="12.606455"><ele>172.2</ele><time>2026-03-27T16:01:43.982Z</time></trkpt><trkpt lat="46.07976" lon="12.60662"><ele>172.39999999999998</ele><time>2026-03-27T16:01:44.984Z</time></trkpt><trkpt lat="46.0797" lon="12.6067633"><ele>172.60000000000002</ele><time>2026-03-27T16:01:45.983Z</time></trkpt><trkpt lat="46.079665" lon="12.606875"><ele>172.8</ele><time>2026-03-27T16:01:46.982Z</time></trkpt><trkpt lat="46.079645" lon="12.6069733"><ele>173.0</ele><time>2026-03-27T16:01:47.984Z</time></trkpt><trkpt lat="46.079625" lon="12.607065"><ele>173.25</ele><time>2026-03-27T16:01:48.982Z</time></trkpt><trkpt lat="46.0795883" lon="12.6071767"><ele>173.5</ele><time>2026-03-27T16:01:50.983Z</time></trkpt><trkpt lat="46.0795467" lon="12.60737"><ele>173.75</ele><time>2026-03-27T16:01:52.981Z</time></trkpt><trkpt lat="46.0795083" lon="12.6075183"><ele>174.0</ele><time>2026-03-27T16:01:53.983Z</time></trkpt><trkpt lat="46.0794533" lon="12.6077183"><ele>174.33333333333334</ele><time>2026-03-27T16:01:54.982Z</time></trkpt><trkpt lat="46.0793933" lon="12.6079317"><ele>174.66666666666669</ele><time>2026-03-27T16:01:55.984Z</time></trkpt><trkpt lat="46.0793333" lon="12.608165"><ele>175.0</ele><time>2026-03-27T16:01:56.985Z</time></trkpt><trkpt lat="46.0792783" lon="12.6084183"><ele>174.33333333333334</ele><time>2026-03-27T16:01:57.983Z</time></trkpt><trkpt lat="46.07922" lon="12.6086867"><ele>173.66666666666666</ele><time>2026-03-27T16:01:58.982Z</time></trkpt><trkpt lat="46.079155" lon="12.6089667"><ele>173.0</ele><time>2026-03-27T16:01:59.984Z</time></trkpt><trkpt lat="46.0790983" lon="12.6092167"><ele>172.8</ele><time>2026-03-27T16:02:00.982Z</time></trkpt><trkpt lat="46.07905" lon="12.6094067"><ele>172.60000000000002</ele><time>2026-03-27T16:02:01.983Z</time></trkpt><trkpt lat="46.0790067" lon="12.60956"><ele>172.39999999999998</ele><time>2026-03-27T16:02:02.982Z</time></trkpt><trkpt lat="46.0789767" lon="12.60967"><ele>172.2</ele><time>2026-03-27T16:02:03.984Z</time></trkpt><trkpt lat="46.0789317" lon="12.6098167"><ele>172.0</ele><time>2026-03-27T16:02:05.982Z</time></trkpt><trkpt lat="46.0789083" lon="12.6099067"><ele>172.5</ele><time>2026-03-27T16:02:06.982Z</time></trkpt><trkpt lat="46.0788767" lon="12.610035"><ele>173.0</ele><time>2026-03-27T16:02:07.982Z</time></trkpt><trkpt lat="46.07882" lon="12.6102067"><ele>173.5</ele><time>2026-03-27T16:02:08.985Z</time></trkpt><trkpt lat="46.078755" lon="12.6104"><ele>174.0</ele><time>2026-03-27T16:02:09.986Z</time></trkpt><trkpt lat="46.0786933" lon="12.610585"><ele>174.25</ele><time>2026-03-27T16:02:10.982Z</time></trkpt><trkpt lat="46.07865" lon="12.6107567"><ele>174.5</ele><time>2026-03-27T16:02:11.983Z</time></trkpt><trkpt lat="46.0786167" lon="12.6109217"><ele>174.75</ele><time>2026-03-27T16:02:12.982Z</time></trkpt><trkpt lat="46.078585" lon="12.6110883"><ele>175.0</ele><time>2026-03-27T16:02:13.982Z</time></trkpt><trkpt lat="46.0785533" lon="12.6112733"><ele>175.33333333333334</ele><time>2026-03-27T16:02:14.983Z</time></trkpt><trkpt lat="46.0785283" lon="12.6114783"><ele>175.66666666666666</ele><time>2026-03-27T16:02:15.982Z</time></trkpt><trkpt lat="46.0785033" lon="12.6116983"><ele>176.0</ele><time>2026-03-27T16:02:16.986Z</time></trkpt><trkpt lat="46.0784833" lon="12.6119433"><ele>176.0</ele><time>2026-03-27T16:02:17.982Z</time></trkpt><trkpt lat="46.07845" lon="12.6121967"><ele>176.0</ele><time>2026-03-27T16:02:18.982Z</time></trkpt><trkpt lat="46.0784" lon="12.61246"><ele>176.0</ele><time>2026-03-27T16:02:19.983Z</time></trkpt><trkpt lat="46.0783383" lon="12.6127367"><ele>175.66666666666666</ele><time>2026-03-27T16:02:20.984Z</time></trkpt><trkpt lat="46.07828" lon="12.6130317"><ele>175.33333333333334</ele><time>2026-03-27T16:02:21.99Z</time></trkpt><trkpt lat="46.0782333" lon="12.61331"><ele>175.0</ele><time>2026-03-27T16:02:22.985Z</time></trkpt><trkpt lat="46.0782017" lon="12.6135317"><ele>174.8</ele><time>2026-03-27T16:02:23.982Z</time></trkpt><trkpt lat="46.0781817" lon="12.6136983"><ele>174.6</ele><time>2026-03-27T16:02:24.982Z</time></trkpt><trkpt lat="46.078165" lon="12.6138433"><ele>174.39999999999998</ele><time>2026-03-27T16:02:25.982Z</time></trkpt><trkpt lat="46.0781483" lon="12.6139883"><ele>174.2</ele><time>2026-03-27T16:02:26.986Z</time></trkpt><trkpt lat="46.0781333" lon="12.6141383"><ele>174.0</ele><time>2026-03-27T16:02:27.984Z</time></trkpt><trkpt lat="46.078115" lon="12.6142983"><ele>174.0</ele><time>2026-03-27T16:02:28.983Z</time></trkpt><trkpt lat="46.0780933" lon="12.6144667"><ele>174.0</ele><time>2026-03-27T16:02:29.984Z</time></trkpt><trkpt lat="46.0780733" lon="12.6146383"><ele>174.0</ele><time>2026-03-27T16:02:30.983Z</time></trkpt><trkpt lat="46.0780517" lon="12.6148033"><ele>174.0</ele><time>2026-03-27T16:02:31.983Z</time></trkpt><trkpt lat="46.0780283" lon="12.6149683"><ele>174.0</ele><time>2026-03-27T16:02:32.983Z</time></trkpt><trkpt lat="46.078005" lon="12.6151367"><ele>174.0</ele><time>2026-03-27T16:02:33.982Z</time></trkpt><trkpt lat="46.0779783" lon="12.61533"><ele>174.0</ele><time>2026-03-27T16:02:34.983Z</time></trkpt><trkpt lat="46.0779383" lon="12.6155367"><ele>174.0</ele><time>2026-03-27T16:02:35.984Z</time></trkpt><trkpt lat="46.077885" lon="12.6157483"><ele>174.33333333333334</ele><time>2026-03-27T16:02:36.982Z</time></trkpt><trkpt lat="46.0778217" lon="12.6159633"><ele>174.66666666666669</ele><time>2026-03-27T16:02:37.982Z</time></trkpt><trkpt lat="46.0777517" lon="12.616175"><ele>175.0</ele><time>2026-03-27T16:02:38.983Z</time></trkpt><trkpt lat="46.0776833" lon="12.6163833"><ele>175.25</ele><time>2026-03-27T16:02:39.982Z</time></trkpt><trkpt lat="46.0776233" lon="12.6165783"><ele>175.5</ele><time>2026-03-27T16:02:40.982Z</time></trkpt><trkpt lat="46.0775717" lon="12.61676"><ele>175.75</ele><time>2026-03-27T16:02:41.982Z</time></trkpt><trkpt lat="46.07753" lon="12.6169133"><ele>176.0</ele><time>2026-03-27T16:02:42.985Z</time></trkpt><trkpt lat="46.0775" lon="12.6170417"><ele>176.0</ele><time>2026-03-27T16:02:43.982Z</time></trkpt><trkpt lat="46.0774717" lon="12.61715"><ele>176.0</ele><time>2026-03-27T16:02:44.982Z</time></trkpt><trkpt lat="46.07744" lon="12.61724"><ele>176.0</ele><time>2026-03-27T16:02:45.983Z</time></trkpt><trkpt lat="46.077375" lon="12.61738"><ele>176.0</ele><time>2026-03-27T16:02:47.985Z</time></trkpt><trkpt lat="46.07734" lon="12.61746"><ele>176.0</ele><time>2026-03-27T16:02:48.982Z</time></trkpt><trkpt lat="46.0772967" lon="12.6175667"><ele>176.0</ele><time>2026-03-27T16:02:49.982Z</time></trkpt><trkpt lat="46.0772533" lon="12.6176733"><ele>175.66666666666666</ele><time>2026-03-27T16:02:50.984Z</time></trkpt><trkpt lat="46.0772167" lon="12.6177517"><ele>175.33333333333331</ele><time>2026-03-27T16:02:51.982Z</time></trkpt><trkpt lat="46.077165" lon="12.617875"><ele>175.0</ele><time>2026-03-27T16:02:53.982Z</time></trkpt><trkpt lat="46.0772233" lon="12.6180017"><ele>174.66666666666666</ele><time>2026-03-27T16:02:55.983Z</time></trkpt><trkpt lat="46.0772667" lon="12.6180733"><ele>174.33333333333334</ele><time>2026-03-27T16:02:56.983Z</time></trkpt><trkpt lat="46.0773233" lon="12.618165"><ele>174.0</ele><time>2026-03-27T16:02:57.982Z</time></trkpt><trkpt lat="46.0773883" lon="12.6182667"><ele>174.25</ele><time>2026-03-27T16:02:58.983Z</time></trkpt><trkpt lat="46.0774567" lon="12.6183833"><ele>174.5</ele><time>2026-03-27T16:02:59.983Z</time></trkpt><trkpt lat="46.07753" lon="12.6185167"><ele>174.75</ele><time>2026-03-27T16:03:00.983Z</time></trkpt><trkpt lat="46.07761" lon="12.6186617"><ele>175.0</ele><time>2026-03-27T16:03:01.983Z</time></trkpt><trkpt lat="46.0776933" lon="12.6188183"><ele>175.0</ele><time>2026-03-27T16:03:02.984Z</time></trkpt><trkpt lat="46.0777817" lon="12.618985"><ele>175.0</ele><time>2026-03-27T16:03:03.983Z</time></trkpt><trkpt lat="46.077875" lon="12.6191567"><ele>175.0</ele><time>2026-03-27T16:03:04.983Z</time></trkpt><trkpt lat="46.07797" lon="12.6193283"><ele>175.0</ele><time>2026-03-27T16:03:05.982Z</time></trkpt><trkpt lat="46.0780633" lon="12.6195"><ele>175.5</ele><time>2026-03-27T16:03:06.983Z</time></trkpt><trkpt lat="46.0781517" lon="12.6196633"><ele>176.0</ele><time>2026-03-27T16:03:07.983Z</time></trkpt><trkpt lat="46.0782467" lon="12.6198183"><ele>176.5</ele><time>2026-03-27T16:03:08.984Z</time></trkpt><trkpt lat="46.0783417" lon="12.619965"><ele>177.0</ele><time>2026-03-27T16:03:09.982Z</time></trkpt><trkpt lat="46.0784433" lon="12.6201033"><ele>177.0</ele><time>2026-03-27T16:03:10.983Z</time></trkpt><trkpt lat="46.0785533" lon="12.6202367"><ele>177.0</ele><time>2026-03-27T16:03:11.983Z</time></trkpt><trkpt lat="46.0786683" lon="12.6203667"><ele>177.0</ele><time>2026-03-27T16:03:12.982Z</time></trkpt><trkpt lat="46.07877" lon="12.6204817"><ele>177.0</ele><time>2026-03-27T16:03:13.982Z</time></trkpt><trkpt lat="46.0788583" lon="12.6205817"><ele>177.0</ele><time>2026-03-27T16:03:14.984Z</time></trkpt><trkpt lat="46.078935" lon="12.620675"><ele>177.0</ele><time>2026-03-27T16:03:15.983Z</time></trkpt><trkpt lat="46.0789983" lon="12.6207683"><ele>177.0</ele><time>2026-03-27T16:03:16.982Z</time></trkpt><trkpt lat="46.0790383" lon="12.6208667"><ele>177.0</ele><time>2026-03-27T16:03:17.982Z</time></trkpt><trkpt lat="46.0790633" lon="12.62098"><ele>177.0</ele><time>2026-03-27T16:03:18.983Z</time></trkpt><trkpt lat="46.0790783" lon="12.6211167"><ele>177.0</ele><time>2026-03-27T16:03:19.983Z</time></trkpt><trkpt lat="46.079075" lon="12.621285"><ele>177.0</ele><time>2026-03-27T16:03:20.985Z</time></trkpt><trkpt lat="46.07907" lon="12.621455"><ele>177.0</ele><time>2026-03-27T16:03:21.983Z</time></trkpt><trkpt lat="46.0790683" lon="12.6215983"><ele>177.0</ele><time>2026-03-27T16:03:22.982Z</time></trkpt><trkpt lat="46.0790683" lon="12.6217283"><ele>177.0</ele><time>2026-03-27T16:03:23.984Z</time></trkpt><trkpt lat="46.079075" lon="12.6218533"><ele>177.0</ele><time>2026-03-27T16:03:24.984Z</time></trkpt><trkpt lat="46.0790867" lon="12.621965"><ele>177.6</ele><time>2026-03-27T16:03:25.982Z</time></trkpt><trkpt lat="46.0791033" lon="12.622055"><ele>178.2</ele><time>2026-03-27T16:03:26.984Z</time></trkpt><trkpt lat="46.079165" lon="12.622215"><ele>178.8</ele><time>2026-03-27T16:03:28.982Z</time></trkpt><trkpt lat="46.0792083" lon="12.622315"><ele>179.4</ele><time>2026-03-27T16:03:29.983Z</time></trkpt><trkpt lat="46.07927" lon="12.6224417"><ele>180.0</ele><time>2026-03-27T16:03:30.983Z</time></trkpt><trkpt lat="46.079345" lon="12.6225967"><ele>180.0</ele><time>2026-03-27T16:03:31.982Z</time></trkpt><trkpt lat="46.0794283" lon="12.6227483"><ele>180.0</ele><time>2026-03-27T16:03:32.983Z</time></trkpt><trkpt lat="46.07952" lon="12.6228867"><ele>180.0</ele><time>2026-03-27T16:03:33.982Z</time></trkpt><trkpt lat="46.07961" lon="12.6230183"><ele>180.0</ele><time>2026-03-27T16:03:34.983Z</time></trkpt><trkpt lat="46.0796783" lon="12.6231267"><ele>180.0</ele><time>2026-03-27T16:03:35.983Z</time></trkpt><trkpt lat="46.07972" lon="12.6232117"><ele>180.0</ele><time>2026-03-27T16:03:36.982Z</time></trkpt><trkpt lat="46.0797717" lon="12.623325"><ele>180.0</ele><time>2026-03-27T16:03:38.983Z</time></trkpt><trkpt lat="46.0797917" lon="12.62342"><ele>180.0</ele><time>2026-03-27T16:03:40.983Z</time></trkpt><trkpt lat="46.079735" lon="12.62357"><ele>180.0</ele><time>2026-03-27T16:03:42.984Z</time></trkpt><trkpt lat="46.0796633" lon="12.623705"><ele>181.0</ele><time>2026-03-27T16:03:43.982Z</time></trkpt><trkpt lat="46.07956" lon="12.623895"><ele>182.0</ele><time>2026-03-27T16:03:44.985Z</time></trkpt><trkpt lat="46.0794517" lon="12.6240933"><ele>183.0</ele><time>2026-03-27T16:03:45.982Z</time></trkpt><trkpt lat="46.0793517" lon="12.6242933"><ele>183.0</ele><time>2026-03-27T16:03:46.981Z</time></trkpt><trkpt lat="46.0792567" lon="12.6244767"><ele>183.0</ele><time>2026-03-27T16:03:47.982Z</time></trkpt><trkpt lat="46.0791633" lon="12.6246517"><ele>183.0</ele><time>2026-03-27T16:03:48.982Z</time></trkpt><trkpt lat="46.07908" lon="12.6248033"><ele>183.0</ele><time>2026-03-27T16:03:49.985Z</time></trkpt><trkpt lat="46.079" lon="12.6249467"><ele>182.5</ele><time>2026-03-27T16:03:50.982Z</time></trkpt><trkpt lat="46.0789283" lon="12.62511"><ele>182.0</ele><time>2026-03-27T16:03:51.983Z</time></trkpt><trkpt lat="46.0788633" lon="12.6252883"><ele>181.5</ele><time>2026-03-27T16:03:52.984Z</time></trkpt><trkpt lat="46.07881" lon="12.625455"><ele>181.0</ele><time>2026-03-27T16:03:53.985Z</time></trkpt><trkpt lat="46.07877" lon="12.62562"><ele>181.0</ele><time>2026-03-27T16:03:54.982Z</time></trkpt><trkpt lat="46.078735" lon="12.6258"><ele>181.0</ele><time>2026-03-27T16:03:55.982Z</time></trkpt><trkpt lat="46.078715" lon="12.625985"><ele>181.0</ele><time>2026-03-27T16:03:56.983Z</time></trkpt><trkpt lat="46.0787017" lon="12.626165"><ele>181.0</ele><time>2026-03-27T16:03:57.982Z</time></trkpt><trkpt lat="46.0786883" lon="12.6263633"><ele>181.66666666666669</ele><time>2026-03-27T16:03:58.982Z</time></trkpt><trkpt lat="46.0786683" lon="12.62659"><ele>182.33333333333334</ele><time>2026-03-27T16:03:59.984Z</time></trkpt><trkpt lat="46.0786433" lon="12.626835"><ele>183.0</ele><time>2026-03-27T16:04:00.983Z</time></trkpt><trkpt lat="46.0786167" lon="12.6270983"><ele>183.0</ele><time>2026-03-27T16:04:01.983Z</time></trkpt><trkpt lat="46.0785867" lon="12.6273633"><ele>183.0</ele><time>2026-03-27T16:04:02.984Z</time></trkpt><trkpt lat="46.078555" lon="12.6276133"><ele>183.0</ele><time>2026-03-27T16:04:03.982Z</time></trkpt><trkpt lat="46.07852" lon="12.6278533"><ele>182.75</ele><time>2026-03-27T16:04:04.983Z</time></trkpt><trkpt lat="46.0784883" lon="12.6280667"><ele>182.5</ele><time>2026-03-27T16:04:05.983Z</time></trkpt><trkpt lat="46.078455" lon="12.62825"><ele>182.25</ele><time>2026-03-27T16:04:06.983Z</time></trkpt><trkpt lat="46.0784133" lon="12.6284217"><ele>182.0</ele><time>2026-03-27T16:04:07.984Z</time></trkpt><trkpt lat="46.0783617" lon="12.628575"><ele>182.0</ele><time>2026-03-27T16:04:08.985Z</time></trkpt><trkpt lat="46.0783083" lon="12.6287017"><ele>182.0</ele><time>2026-03-27T16:04:09.982Z</time></trkpt><trkpt lat="46.0782633" lon="12.6288117"><ele>182.0</ele><time>2026-03-27T16:04:10.983Z</time></trkpt><trkpt lat="46.07822" lon="12.6289317"><ele>182.0</ele><time>2026-03-27T16:04:11.983Z</time></trkpt><trkpt lat="46.07818" lon="12.6290517"><ele>182.0</ele><time>2026-03-27T16:04:12.983Z</time></trkpt><trkpt lat="46.0781583" lon="12.6291517"><ele>181.39999999999998</ele><time>2026-03-27T16:04:13.984Z</time></trkpt><trkpt lat="46.078145" lon="12.629295"><ele>180.79999999999998</ele><time>2026-03-27T16:04:15.983Z</time></trkpt><trkpt lat="46.07809" lon="12.6294233"><ele>180.2</ele><time>2026-03-27T16:04:18.981Z</time></trkpt><trkpt lat="46.078005" lon="12.6295883"><ele>179.6</ele><time>2026-03-27T16:04:20.983Z</time></trkpt><trkpt lat="46.0779617" lon="12.62968"><ele>179.0</ele><time>2026-03-27T16:04:21.983Z</time></trkpt><trkpt lat="46.0779233" lon="12.62976"><ele>179.0</ele><time>2026-03-27T16:04:22.983Z</time></trkpt><trkpt lat="46.0778883" lon="12.6298383"><ele>179.0</ele><time>2026-03-27T16:04:23.982Z</time></trkpt><trkpt lat="46.0778567" lon="12.6299283"><ele>179.0</ele><time>2026-03-27T16:04:24.982Z</time></trkpt><trkpt lat="46.0778217" lon="12.6300383"><ele>179.0</ele><time>2026-03-27T16:04:25.982Z</time></trkpt><trkpt lat="46.077775" lon="12.630165"><ele>179.0</ele><time>2026-03-27T16:04:26.984Z</time></trkpt><trkpt lat="46.0777167" lon="12.63031"><ele>179.0</ele><time>2026-03-27T16:04:27.982Z</time></trkpt><trkpt lat="46.0776483" lon="12.63048"><ele>179.0</ele><time>2026-03-27T16:04:28.982Z</time></trkpt><trkpt lat="46.077575" lon="12.6306667"><ele>179.0</ele><time>2026-03-27T16:04:29.982Z</time></trkpt><trkpt lat="46.0774867" lon="12.6308833"><ele>179.0</ele><time>2026-03-27T16:04:30.983Z</time></trkpt><trkpt lat="46.0773833" lon="12.6311133"><ele>178.33333333333331</ele><time>2026-03-27T16:04:31.983Z</time></trkpt><trkpt lat="46.0772617" lon="12.63135"><ele>177.66666666666666</ele><time>2026-03-27T16:04:32.983Z</time></trkpt><trkpt lat="46.0771283" lon="12.6315933"><ele>177.0</ele><time>2026-03-27T16:04:33.983Z</time></trkpt><trkpt lat="46.07699" lon="12.6318317"><ele>177.66666666666666</ele><time>2026-03-27T16:04:34.982Z</time></trkpt><trkpt lat="46.0768633" lon="12.6320533"><ele>178.33333333333331</ele><time>2026-03-27T16:04:35.983Z</time></trkpt><trkpt lat="46.0767517" lon="12.6322433"><ele>179.0</ele><time>2026-03-27T16:04:36.982Z</time></trkpt><trkpt lat="46.0766767" lon="12.6323817"><ele>179.0</ele><time>2026-03-27T16:04:37.983Z</time></trkpt><trkpt lat="46.0766267" lon="12.63248"><ele>179.0</ele><time>2026-03-27T16:04:38.983Z</time></trkpt><trkpt lat="46.07659" lon="12.6325617"><ele>179.0</ele><time>2026-03-27T16:04:39.982Z</time></trkpt><trkpt lat="46.07656" lon="12.6326517"><ele>179.0</ele><time>2026-03-27T16:04:40.982Z</time></trkpt><trkpt lat="46.076535" lon="12.6327717"><ele>179.0</ele><time>2026-03-27T16:04:41.983Z</time></trkpt><trkpt lat="46.0764983" lon="12.632895"><ele>179.0</ele><time>2026-03-27T16:04:42.983Z</time></trkpt><trkpt lat="46.0764567" lon="12.6330117"><ele>178.79999999999998</ele><time>2026-03-27T16:04:43.982Z</time></trkpt><trkpt lat="46.07641" lon="12.63314"><ele>178.6</ele><time>2026-03-27T16:04:44.986Z</time></trkpt><trkpt lat="46.076365" lon="12.63327"><ele>178.4</ele><time>2026-03-27T16:04:45.982Z</time></trkpt><trkpt lat="46.07632" lon="12.633385"><ele>178.2</ele><time>2026-03-27T16:04:46.983Z</time></trkpt><trkpt lat="46.0762733" lon="12.6335083"><ele>178.0</ele><time>2026-03-27T16:04:47.982Z</time></trkpt><trkpt lat="46.0762267" lon="12.6336433"><ele>178.0</ele><time>2026-03-27T16:04:48.982Z</time></trkpt><trkpt lat="46.0761783" lon="12.6337817"><ele>178.0</ele><time>2026-03-27T16:04:49.982Z</time></trkpt><trkpt lat="46.0761267" lon="12.633925"><ele>178.0</ele><time>2026-03-27T16:04:50.983Z</time></trkpt><trkpt lat="46.0760783" lon="12.6340683"><ele>178.0</ele><time>2026-03-27T16:04:51.982Z</time></trkpt><trkpt lat="46.0760367" lon="12.6341933"><ele>178.0</ele><time>2026-03-27T16:04:52.983Z</time></trkpt><trkpt lat="46.075995" lon="12.6343083"><ele>178.0</ele><time>2026-03-27T16:04:53.983Z</time></trkpt><trkpt lat="46.07596" lon="12.634405"><ele>178.0</ele><time>2026-03-27T16:04:54.982Z</time></trkpt><trkpt lat="46.0759033" lon="12.6345267"><ele>178.0</ele><time>2026-03-27T16:04:56.983Z</time></trkpt><trkpt lat="46.0758283" lon="12.63449"><ele>178.0</ele><time>2026-03-27T16:04:59.984Z</time></trkpt><trkpt lat="46.075765" lon="12.6343567"><ele>178.0</ele><time>2026-03-27T16:05:01.986Z</time></trkpt><trkpt lat="46.07573" lon="12.634245"><ele>177.60000000000002</ele><time>2026-03-27T16:05:02.983Z</time></trkpt><trkpt lat="46.0756883" lon="12.6341167"><ele>177.20000000000002</ele><time>2026-03-27T16:05:03.983Z</time></trkpt><trkpt lat="46.0756417" lon="12.63398"><ele>176.8</ele><time>2026-03-27T16:05:04.983Z</time></trkpt><trkpt lat="46.07559" lon="12.6338417"><ele>176.4</ele><time>2026-03-27T16:05:05.983Z</time></trkpt><trkpt lat="46.0755367" lon="12.6336917"><ele>176.0</ele><time>2026-03-27T16:05:06.982Z</time></trkpt><trkpt lat="46.0754767" lon="12.6335333"><ele>176.0</ele><time>2026-03-27T16:05:07.983Z</time></trkpt><trkpt lat="46.075405" lon="12.6333767"><ele>176.0</ele><time>2026-03-27T16:05:08.983Z</time></trkpt><trkpt lat="46.075325" lon="12.6332267"><ele>176.0</ele><time>2026-03-27T16:05:09.982Z</time></trkpt><trkpt lat="46.0752383" lon="12.6330717"><ele>176.0</ele><time>2026-03-27T16:05:10.984Z</time></trkpt><trkpt lat="46.07514" lon="12.63292"><ele>175.33333333333331</ele><time>2026-03-27T16:05:11.982Z</time></trkpt><trkpt lat="46.07504" lon="12.6327617"><ele>174.66666666666666</ele><time>2026-03-27T16:05:12.982Z</time></trkpt><trkpt lat="46.0749417" lon="12.6325967"><ele>174.0</ele><time>2026-03-27T16:05:13.986Z</time></trkpt><trkpt lat="46.0748417" lon="12.6324233"><ele>174.0</ele><time>2026-03-27T16:05:14.984Z</time></trkpt><trkpt lat="46.0747367" lon="12.6322483"><ele>174.0</ele><time>2026-03-27T16:05:15.982Z</time></trkpt><trkpt lat="46.0746333" lon="12.632065"><ele>174.0</ele><time>2026-03-27T16:05:16.982Z</time></trkpt><trkpt lat="46.0745233" lon="12.63188"><ele>174.0</ele><time>2026-03-27T16:05:17.982Z</time></trkpt><trkpt lat="46.0744083" lon="12.631695"><ele>174.0</ele><time>2026-03-27T16:05:18.983Z</time></trkpt><trkpt lat="46.0742867" lon="12.6315017"><ele>174.0</ele><time>2026-03-27T16:05:19.982Z</time></trkpt><trkpt lat="46.0741683" lon="12.631305"><ele>173.66666666666666</ele><time>2026-03-27T16:05:20.983Z</time></trkpt><trkpt lat="46.0740483" lon="12.6311"><ele>173.33333333333331</ele><time>2026-03-27T16:05:21.982Z</time></trkpt><trkpt lat="46.073925" lon="12.6308933"><ele>173.0</ele><time>2026-03-27T16:05:22.982Z</time></trkpt><trkpt lat="46.0738" lon="12.6306933"><ele>173.0</ele><time>2026-03-27T16:05:23.984Z</time></trkpt><trkpt lat="46.0736817" lon="12.6304933"><ele>173.0</ele><time>2026-03-27T16:05:24.984Z</time></trkpt><trkpt lat="46.0735583" lon="12.6302867"><ele>173.0</ele><time>2026-03-27T16:05:25.983Z</time></trkpt><trkpt lat="46.073435" lon="12.6300817"><ele>173.0</ele><time>2026-03-27T16:05:26.983Z</time></trkpt><trkpt lat="46.073315" lon="12.6298783"><ele>173.0</ele><time>2026-03-27T16:05:27.985Z</time></trkpt><trkpt lat="46.0731967" lon="12.6296867"><ele>173.0</ele><time>2026-03-27T16:05:28.982Z</time></trkpt><trkpt lat="46.0730883" lon="12.629505"><ele>172.25</ele><time>2026-03-27T16:05:29.982Z</time></trkpt><trkpt lat="46.0729867" lon="12.6293333"><ele>171.5</ele><time>2026-03-27T16:05:30.982Z</time></trkpt><trkpt lat="46.0729233" lon="12.629145"><ele>170.75</ele><time>2026-03-27T16:05:31.983Z</time></trkpt><trkpt lat="46.0729017" lon="12.6289533"><ele>170.0</ele><time>2026-03-27T16:05:32.985Z</time></trkpt><trkpt lat="46.0729167" lon="12.628765"><ele>169.75</ele><time>2026-03-27T16:05:33.982Z</time></trkpt><trkpt lat="46.072955" lon="12.6285817"><ele>169.5</ele><time>2026-03-27T16:05:34.982Z</time></trkpt><trkpt lat="46.0729883" lon="12.6283917"><ele>169.25</ele><time>2026-03-27T16:05:35.983Z</time></trkpt><trkpt lat="46.07301" lon="12.6281917"><ele>169.0</ele><time>2026-03-27T16:05:36.982Z</time></trkpt><trkpt lat="46.0730267" lon="12.6279783"><ele>169.66666666666669</ele><time>2026-03-27T16:05:37.982Z</time></trkpt><trkpt lat="46.0730467" lon="12.6277567"><ele>170.33333333333334</ele><time>2026-03-27T16:05:38.982Z</time></trkpt><trkpt lat="46.07307" lon="12.62753"><ele>171.0</ele><time>2026-03-27T16:05:39.983Z</time></trkpt><trkpt lat="46.073105" lon="12.6272983"><ele>171.0</ele><time>2026-03-27T16:05:40.982Z</time></trkpt><trkpt lat="46.0731317" lon="12.6270567"><ele>171.0</ele><time>2026-03-27T16:05:41.982Z</time></trkpt><trkpt lat="46.073175" lon="12.6268217"><ele>171.0</ele><time>2026-03-27T16:05:42.982Z</time></trkpt><trkpt lat="46.0732183" lon="12.6266067"><ele>171.0</ele><time>2026-03-27T16:05:43.983Z</time></trkpt><trkpt lat="46.073255" lon="12.626395"><ele>171.0</ele><time>2026-03-27T16:05:44.982Z</time></trkpt><trkpt lat="46.0732533" lon="12.62618"><ele>171.0</ele><time>2026-03-27T16:05:45.982Z</time></trkpt><trkpt lat="46.0732133" lon="12.6259617"><ele>171.0</ele><time>2026-03-27T16:05:46.982Z</time></trkpt><trkpt lat="46.0731322" lon="12.6257567"><ele>171.0</ele><time>2026-03-27T16:05:47.984Z</time></trkpt><trkpt lat="46.0730258" lon="12.6255592"><ele>171.0</ele><time>2026-03-27T16:05:48.982Z</time></trkpt><trkpt lat="46.0729158" lon="12.6253652"><ele>171.33333333333334</ele><time>2026-03-27T16:05:49.982Z</time></trkpt><trkpt lat="46.0727557" lon="12.6252343"><ele>171.66666666666669</ele><time>2026-03-27T16:05:50.983Z</time></trkpt><trkpt lat="46.0725601" lon="12.6251628"><ele>172.0</ele><time>2026-03-27T16:05:51.982Z</time></trkpt><trkpt lat="46.0723652" lon="12.6250956"><ele>172.0</ele><time>2026-03-27T16:05:52.982Z</time></trkpt><trkpt lat="46.0721757" lon="12.6250141"><ele>172.0</ele><time>2026-03-27T16:05:53.982Z</time></trkpt><trkpt lat="46.0719846" lon="12.6249199"><ele>172.0</ele><time>2026-03-27T16:05:54.982Z</time></trkpt><trkpt lat="46.0717997" lon="12.6248099"><ele>172.0</ele><time>2026-03-27T16:05:55.982Z</time></trkpt><trkpt lat="46.0716288" lon="12.6246838"><ele>172.0</ele><time>2026-03-27T16:05:56.983Z</time></trkpt><trkpt lat="46.0714686" lon="12.6245253"><ele>172.0</ele><time>2026-03-27T16:05:57.982Z</time></trkpt><trkpt lat="46.0713238" lon="12.6243352"><ele>172.0</ele><time>2026-03-27T16:05:58.984Z</time></trkpt><trkpt lat="46.0711935" lon="12.6241229"><ele>172.0</ele><time>2026-03-27T16:05:59.983Z</time></trkpt><trkpt lat="46.0710771" lon="12.6238924"><ele>172.0</ele><time>2026-03-27T16:06:00.982Z</time></trkpt><trkpt lat="46.0709734" lon="12.6236491"><ele>172.33333333333334</ele><time>2026-03-27T16:06:01.983Z</time></trkpt><trkpt lat="46.0708859" lon="12.6233877"><ele>172.66666666666666</ele><time>2026-03-27T16:06:02.985Z</time></trkpt><trkpt lat="46.0708145" lon="12.6231131"><ele>173.0</ele><time>2026-03-27T16:06:03.983Z</time></trkpt><trkpt lat="46.070756" lon="12.6228351"><ele>171.33333333333331</ele><time>2026-03-27T16:06:04.984Z</time></trkpt><trkpt lat="46.0707052" lon="12.6225703"><ele>169.66666666666666</ele><time>2026-03-27T16:06:05.983Z</time></trkpt><trkpt lat="46.0706579" lon="12.6223165"><ele>168.0</ele><time>2026-03-27T16:06:06.983Z</time></trkpt><trkpt lat="46.0706107" lon="12.6220766"><ele>168.33333333333334</ele><time>2026-03-27T16:06:07.983Z</time></trkpt><trkpt lat="46.0705649" lon="12.6218524"><ele>168.66666666666669</ele><time>2026-03-27T16:06:08.983Z</time></trkpt><trkpt lat="46.0705245" lon="12.621641"><ele>169.0</ele><time>2026-03-27T16:06:09.982Z</time></trkpt><trkpt lat="46.0704852" lon="12.6214371"><ele>169.0</ele><time>2026-03-27T16:06:10.983Z</time></trkpt><trkpt lat="46.0704465" lon="12.6212267"><ele>169.0</ele><time>2026-03-27T16:06:11.982Z</time></trkpt><trkpt lat="46.0704043" lon="12.6210116"><ele>169.0</ele><time>2026-03-27T16:06:12.984Z</time></trkpt><trkpt lat="46.0703648" lon="12.620799"><ele>169.0</ele><time>2026-03-27T16:06:13.984Z</time></trkpt><trkpt lat="46.0703307" lon="12.6205965"><ele>169.0</ele><time>2026-03-27T16:06:14.985Z</time></trkpt><trkpt lat="46.0702934" lon="12.6204026"><ele>169.0</ele><time>2026-03-27T16:06:15.984Z</time></trkpt><trkpt lat="46.0702575" lon="12.6202176"><ele>169.0</ele><time>2026-03-27T16:06:16.983Z</time></trkpt><trkpt lat="46.0702217" lon="12.6200452"><ele>169.0</ele><time>2026-03-27T16:06:17.983Z</time></trkpt><trkpt lat="46.0701877" lon="12.6198914"><ele>169.0</ele><time>2026-03-27T16:06:18.982Z</time></trkpt><trkpt lat="46.0701568" lon="12.6197706"><ele>169.0</ele><time>2026-03-27T16:06:19.982Z</time></trkpt><trkpt lat="46.0701217" lon="12.6196828"><ele>169.0</ele><time>2026-03-27T16:06:20.983Z</time></trkpt><trkpt lat="46.0700533" lon="12.6196762"><ele>169.0</ele><time>2026-03-27T16:06:22.983Z</time></trkpt><trkpt lat="46.0699827" lon="12.6198524"><ele>168.75</ele><time>2026-03-27T16:06:24.983Z</time></trkpt><trkpt lat="46.0699336" lon="12.6200099"><ele>168.5</ele><time>2026-03-27T16:06:25.982Z</time></trkpt><trkpt lat="46.0698787" lon="12.6201715"><ele>168.25</ele><time>2026-03-27T16:06:26.982Z</time></trkpt><trkpt lat="46.0698187" lon="12.6203375"><ele>168.0</ele><time>2026-03-27T16:06:27.983Z</time></trkpt><trkpt lat="46.069754" lon="12.6205174"><ele>168.0</ele><time>2026-03-27T16:06:28.983Z</time></trkpt><trkpt lat="46.0696924" lon="12.6207141"><ele>168.0</ele><time>2026-03-27T16:06:29.982Z</time></trkpt><trkpt lat="46.0696391" lon="12.6209266"><ele>168.0</ele><time>2026-03-27T16:06:30.982Z</time></trkpt><trkpt lat="46.0695896" lon="12.6211546"><ele>168.0</ele><time>2026-03-27T16:06:31.983Z</time></trkpt><trkpt lat="46.0695417" lon="12.6213919"><ele>168.0</ele><time>2026-03-27T16:06:32.984Z</time></trkpt><trkpt lat="46.0694909" lon="12.621638"><ele>168.0</ele><time>2026-03-27T16:06:33.983Z</time></trkpt><trkpt lat="46.069438" lon="12.6218892"><ele>167.66666666666666</ele><time>2026-03-27T16:06:34.983Z</time></trkpt><trkpt lat="46.0693832" lon="12.6221445"><ele>167.33333333333331</ele><time>2026-03-27T16:06:35.983Z</time></trkpt><trkpt lat="46.0693275" lon="12.6224033"><ele>167.0</ele><time>2026-03-27T16:06:36.983Z</time></trkpt><trkpt lat="46.0692736" lon="12.6226564"><ele>167.0</ele><time>2026-03-27T16:06:37.983Z</time></trkpt><trkpt lat="46.0692232" lon="12.6228924"><ele>167.0</ele><time>2026-03-27T16:06:38.983Z</time></trkpt><trkpt lat="46.0691746" lon="12.6231124"><ele>167.0</ele><time>2026-03-27T16:06:39.982Z</time></trkpt><trkpt lat="46.0691324" lon="12.6233256"><ele>166.33333333333331</ele><time>2026-03-27T16:06:40.983Z</time></trkpt><trkpt lat="46.0690861" lon="12.623543"><ele>165.66666666666666</ele><time>2026-03-27T16:06:41.983Z</time></trkpt><trkpt lat="46.0690245" lon="12.6237711"><ele>165.0</ele><time>2026-03-27T16:06:42.982Z</time></trkpt><trkpt lat="46.0689456" lon="12.6240032"><ele>164.66666666666666</ele><time>2026-03-27T16:06:43.983Z</time></trkpt><trkpt lat="46.0688636" lon="12.6242263"><ele>164.33333333333331</ele><time>2026-03-27T16:06:44.985Z</time></trkpt><trkpt lat="46.0687972" lon="12.6244456"><ele>164.0</ele><time>2026-03-27T16:06:45.982Z</time></trkpt><trkpt lat="46.0687485" lon="12.6246854"><ele>164.0</ele><time>2026-03-27T16:06:46.982Z</time></trkpt><trkpt lat="46.0687144" lon="12.6249329"><ele>164.0</ele><time>2026-03-27T16:06:47.983Z</time></trkpt><trkpt lat="46.068684" lon="12.6251731"><ele>164.0</ele><time>2026-03-27T16:06:48.982Z</time></trkpt><trkpt lat="46.068645" lon="12.6254148"><ele>165.0</ele><time>2026-03-27T16:06:49.984Z</time></trkpt><trkpt lat="46.0685968" lon="12.625652"><ele>166.0</ele><time>2026-03-27T16:06:50.985Z</time></trkpt><trkpt lat="46.0685341" lon="12.6258847"><ele>167.0</ele><time>2026-03-27T16:06:51.983Z</time></trkpt><trkpt lat="46.0684515" lon="12.6261261"><ele>166.66666666666666</ele><time>2026-03-27T16:06:52.983Z</time></trkpt><trkpt lat="46.0683544" lon="12.6263768"><ele>166.33333333333334</ele><time>2026-03-27T16:06:53.982Z</time></trkpt><trkpt lat="46.0682528" lon="12.6266395"><ele>166.0</ele><time>2026-03-27T16:06:54.984Z</time></trkpt><trkpt lat="46.0681531" lon="12.6269025"><ele>165.33333333333334</ele><time>2026-03-27T16:06:55.982Z</time></trkpt><trkpt lat="46.0680567" lon="12.6271378"><ele>164.66666666666666</ele><time>2026-03-27T16:06:56.987Z</time></trkpt><trkpt lat="46.0679656" lon="12.6273277"><ele>164.0</ele><time>2026-03-27T16:06:57.983Z</time></trkpt><trkpt lat="46.0678752" lon="12.6274817"><ele>164.0</ele><time>2026-03-27T16:06:58.986Z</time></trkpt><trkpt lat="46.0677694" lon="12.6276015"><ele>164.0</ele><time>2026-03-27T16:06:59.983Z</time></trkpt><trkpt lat="46.0676538" lon="12.6276908"><ele>164.0</ele><time>2026-03-27T16:07:00.983Z</time></trkpt><trkpt lat="46.0675461" lon="12.6277646"><ele>164.0</ele><time>2026-03-27T16:07:01.982Z</time></trkpt><trkpt lat="46.0674544" lon="12.6278515"><ele>163.5</ele><time>2026-03-27T16:07:02.983Z</time></trkpt><trkpt lat="46.0673806" lon="12.6279763"><ele>163.0</ele><time>2026-03-27T16:07:03.982Z</time></trkpt><trkpt lat="46.0673099" lon="12.6281436"><ele>162.5</ele><time>2026-03-27T16:07:04.982Z</time></trkpt><trkpt lat="46.0672357" lon="12.6283326"><ele>162.0</ele><time>2026-03-27T16:07:05.982Z</time></trkpt><trkpt lat="46.0671643" lon="12.6285181"><ele>162.25</ele><time>2026-03-27T16:07:06.982Z</time></trkpt><trkpt lat="46.0671017" lon="12.6286909"><ele>162.5</ele><time>2026-03-27T16:07:07.983Z</time></trkpt><trkpt lat="46.0670409" lon="12.6288428"><ele>162.75</ele><time>2026-03-27T16:07:08.983Z</time></trkpt><trkpt lat="46.0669742" lon="12.6289783"><ele>163.0</ele><time>2026-03-27T16:07:09.983Z</time></trkpt><trkpt lat="46.0669029" lon="12.6290975"><ele>163.0</ele><time>2026-03-27T16:07:10.982Z</time></trkpt><trkpt lat="46.0668318" lon="12.6292146"><ele>163.0</ele><time>2026-03-27T16:07:11.982Z</time></trkpt><trkpt lat="46.0667533" lon="12.6293353"><ele>163.0</ele><time>2026-03-27T16:07:12.982Z</time></trkpt><trkpt lat="46.0666659" lon="12.6294446"><ele>163.0</ele><time>2026-03-27T16:07:13.982Z</time></trkpt><trkpt lat="46.0665729" lon="12.6295403"><ele>163.0</ele><time>2026-03-27T16:07:14.983Z</time></trkpt><trkpt lat="46.0664842" lon="12.6296265"><ele>163.0</ele><time>2026-03-27T16:07:15.988Z</time></trkpt><trkpt lat="46.066408" lon="12.6297125"><ele>163.0</ele><time>2026-03-27T16:07:16.983Z</time></trkpt><trkpt lat="46.0663586" lon="12.6298071"><ele>163.0</ele><time>2026-03-27T16:07:17.986Z</time></trkpt><trkpt lat="46.0663347" lon="12.6299108"><ele>163.0</ele><time>2026-03-27T16:07:18.982Z</time></trkpt><trkpt lat="46.0663367" lon="12.6300247"><ele>163.0</ele><time>2026-03-27T16:07:19.983Z</time></trkpt><trkpt lat="46.0664097" lon="12.6301688"><ele>163.0</ele><time>2026-03-27T16:07:20.982Z</time></trkpt><trkpt lat="46.0665061" lon="12.6303064"><ele>163.0</ele><time>2026-03-27T16:07:21.982Z</time></trkpt><trkpt lat="46.0665958" lon="12.6304356"><ele>163.0</ele><time>2026-03-27T16:07:22.983Z</time></trkpt><trkpt lat="46.0666767" lon="12.630562"><ele>163.0</ele><time>2026-03-27T16:07:23.984Z</time></trkpt><trkpt lat="46.066739" lon="12.6306808"><ele>163.25</ele><time>2026-03-27T16:07:24.982Z</time></trkpt><trkpt lat="46.066777" lon="12.6308151"><ele>163.5</ele><time>2026-03-27T16:07:25.982Z</time></trkpt><trkpt lat="46.0667938" lon="12.6309798"><ele>163.75</ele><time>2026-03-27T16:07:26.982Z</time></trkpt><trkpt lat="46.0667717" lon="12.6311917"><ele>164.0</ele><time>2026-03-27T16:07:27.982Z</time></trkpt><trkpt lat="46.066735" lon="12.6314183"><ele>164.0</ele><time>2026-03-27T16:07:28.983Z</time></trkpt><trkpt lat="46.066685" lon="12.6316633"><ele>164.0</ele><time>2026-03-27T16:07:29.984Z</time></trkpt><trkpt lat="46.0666317" lon="12.6319283"><ele>164.0</ele><time>2026-03-27T16:07:30.982Z</time></trkpt><trkpt lat="46.0665783" lon="12.63219"><ele>163.75</ele><time>2026-03-27T16:07:31.982Z</time></trkpt><trkpt lat="46.066535" lon="12.632425"><ele>163.5</ele><time>2026-03-27T16:07:32.983Z</time></trkpt><trkpt lat="46.0664967" lon="12.632635"><ele>163.25</ele><time>2026-03-27T16:07:33.982Z</time></trkpt><trkpt lat="46.066465" lon="12.63281"><ele>163.0</ele><time>2026-03-27T16:07:34.982Z</time></trkpt><trkpt lat="46.0664433" lon="12.6329383"><ele>162.60000000000002</ele><time>2026-03-27T16:07:35.982Z</time></trkpt><trkpt lat="46.06641" lon="12.6330417"><ele>162.20000000000002</ele><time>2026-03-27T16:07:36.983Z</time></trkpt><trkpt lat="46.0663517" lon="12.6331183"><ele>161.8</ele><time>2026-03-27T16:07:37.984Z</time></trkpt><trkpt lat="46.06625" lon="12.633175"><ele>161.4</ele><time>2026-03-27T16:07:38.985Z</time></trkpt><trkpt lat="46.0661367" lon="12.633225"><ele>161.0</ele><time>2026-03-27T16:07:39.985Z</time></trkpt><trkpt lat="46.0660383" lon="12.6333033"><ele>161.0</ele><time>2026-03-27T16:07:40.985Z</time></trkpt><trkpt lat="46.0659433" lon="12.6334133"><ele>161.0</ele><time>2026-03-27T16:07:41.983Z</time></trkpt><trkpt lat="46.0658533" lon="12.6335417"><ele>161.0</ele><time>2026-03-27T16:07:42.983Z</time></trkpt><trkpt lat="46.06577" lon="12.6337033"><ele>161.0</ele><time>2026-03-27T16:07:43.984Z</time></trkpt><trkpt lat="46.065675" lon="12.6338967"><ele>161.33333333333331</ele><time>2026-03-27T16:07:44.984Z</time></trkpt><trkpt lat="46.0655683" lon="12.6340883"><ele>161.66666666666666</ele><time>2026-03-27T16:07:45.982Z</time></trkpt><trkpt lat="46.06547" lon="12.6342583"><ele>162.0</ele><time>2026-03-27T16:07:46.982Z</time></trkpt><trkpt lat="46.06539" lon="12.6344183"><ele>162.5</ele><time>2026-03-27T16:07:47.982Z</time></trkpt><trkpt lat="46.0653133" lon="12.634585"><ele>163.0</ele><time>2026-03-27T16:07:48.982Z</time></trkpt><trkpt lat="46.0652367" lon="12.6347517"><ele>163.5</ele><time>2026-03-27T16:07:49.983Z</time></trkpt><trkpt lat="46.0651667" lon="12.634915"><ele>164.0</ele><time>2026-03-27T16:07:50.983Z</time></trkpt><trkpt lat="46.0651067" lon="12.6350517"><ele>164.0</ele><time>2026-03-27T16:07:51.983Z</time></trkpt><trkpt lat="46.065065" lon="12.6351733"><ele>164.0</ele><time>2026-03-27T16:07:52.982Z</time></trkpt><trkpt lat="46.0650433" lon="12.6352817"><ele>164.0</ele><time>2026-03-27T16:07:53.982Z</time></trkpt><trkpt lat="46.0650367" lon="12.6353767"><ele>164.0</ele><time>2026-03-27T16:07:54.983Z</time></trkpt><trkpt lat="46.0650317" lon="12.6354733"><ele>164.0</ele><time>2026-03-27T16:07:55.983Z</time></trkpt><trkpt lat="46.065005" lon="12.63557"><ele>164.0</ele><time>2026-03-27T16:07:56.983Z</time></trkpt><trkpt lat="46.0649617" lon="12.6356733"><ele>163.33333333333331</ele><time>2026-03-27T16:07:57.982Z</time></trkpt><trkpt lat="46.0649133" lon="12.635785"><ele>162.66666666666666</ele><time>2026-03-27T16:07:58.982Z</time></trkpt><trkpt lat="46.0648717" lon="12.6359"><ele>162.0</ele><time>2026-03-27T16:07:59.982Z</time></trkpt><trkpt lat="46.0648467" lon="12.63602"><ele>161.33333333333334</ele><time>2026-03-27T16:08:00.982Z</time></trkpt><trkpt lat="46.064835" lon="12.636145"><ele>160.66666666666669</ele><time>2026-03-27T16:08:01.983Z</time></trkpt><trkpt lat="46.0648267" lon="12.636275"><ele>160.0</ele><time>2026-03-27T16:08:02.985Z</time></trkpt><trkpt lat="46.06482" lon="12.6364033"><ele>160.0</ele><time>2026-03-27T16:08:03.982Z</time></trkpt><trkpt lat="46.0648133" lon="12.6365367"><ele>160.0</ele><time>2026-03-27T16:08:04.985Z</time></trkpt><trkpt lat="46.0648083" lon="12.6366783"><ele>160.0</ele><time>2026-03-27T16:08:05.982Z</time></trkpt><trkpt lat="46.0648" lon="12.6368267"><ele>160.0</ele><time>2026-03-27T16:08:06.982Z</time></trkpt><trkpt lat="46.0647883" lon="12.6369833"><ele>160.0</ele><time>2026-03-27T16:08:07.982Z</time></trkpt><trkpt lat="46.0647783" lon="12.6371433"><ele>160.2</ele><time>2026-03-27T16:08:08.984Z</time></trkpt><trkpt lat="46.06477" lon="12.637295"><ele>160.4</ele><time>2026-03-27T16:08:09.983Z</time></trkpt><trkpt lat="46.06476" lon="12.6374417"><ele>160.60000000000002</ele><time>2026-03-27T16:08:10.982Z</time></trkpt><trkpt lat="46.0647533" lon="12.6375917"><ele>160.8</ele><time>2026-03-27T16:08:11.983Z</time></trkpt><trkpt lat="46.064745" lon="12.6377417"><ele>161.0</ele><time>2026-03-27T16:08:12.982Z</time></trkpt><trkpt lat="46.0647367" lon="12.63789"><ele>161.20000000000002</ele><time>2026-03-27T16:08:13.982Z</time></trkpt><trkpt lat="46.0647283" lon="12.638035"><ele>161.4</ele><time>2026-03-27T16:08:14.983Z</time></trkpt><trkpt lat="46.0647217" lon="12.6381783"><ele>161.6</ele><time>2026-03-27T16:08:15.983Z</time></trkpt><trkpt lat="46.0647133" lon="12.6383233"><ele>161.8</ele><time>2026-03-27T16:08:16.983Z</time></trkpt><trkpt lat="46.06471" lon="12.6384717"><ele>162.0</ele><time>2026-03-27T16:08:17.982Z</time></trkpt><trkpt lat="46.064705" lon="12.6386183"><ele>161.6</ele><time>2026-03-27T16:08:18.986Z</time></trkpt><trkpt lat="46.064695" lon="12.6387633"><ele>161.2</ele><time>2026-03-27T16:08:19.982Z</time></trkpt><trkpt lat="46.064685" lon="12.6389067"><ele>160.8</ele><time>2026-03-27T16:08:20.982Z</time></trkpt><trkpt lat="46.0646767" lon="12.6390483"><ele>160.4</ele><time>2026-03-27T16:08:21.984Z</time></trkpt><trkpt lat="46.06467" lon="12.6391967"><ele>160.0</ele><time>2026-03-27T16:08:22.982Z</time></trkpt><trkpt lat="46.0646633" lon="12.6393417"><ele>160.4</ele><time>2026-03-27T16:08:23.983Z</time></trkpt><trkpt lat="46.0646583" lon="12.6394883"><ele>160.8</ele><time>2026-03-27T16:08:24.983Z</time></trkpt><trkpt lat="46.06465" lon="12.6396333"><ele>161.2</ele><time>2026-03-27T16:08:25.984Z</time></trkpt><trkpt lat="46.0646417" lon="12.639775"><ele>161.6</ele><time>2026-03-27T16:08:26.985Z</time></trkpt><trkpt lat="46.0646383" lon="12.6399167"><ele>162.0</ele><time>2026-03-27T16:08:27.982Z</time></trkpt><trkpt lat="46.0646283" lon="12.6400633"><ele>162.0</ele><time>2026-03-27T16:08:28.983Z</time></trkpt><trkpt lat="46.0646167" lon="12.6402067"><ele>162.0</ele><time>2026-03-27T16:08:29.983Z</time></trkpt><trkpt lat="46.064605" lon="12.6403417"><ele>162.0</ele><time>2026-03-27T16:08:30.984Z</time></trkpt><trkpt lat="46.0645933" lon="12.6404767"><ele>162.0</ele><time>2026-03-27T16:08:31.984Z</time></trkpt><trkpt lat="46.0645833" lon="12.640605"><ele>162.0</ele><time>2026-03-27T16:08:32.988Z</time></trkpt><trkpt lat="46.0645767" lon="12.640715"><ele>162.16666666666666</ele><time>2026-03-27T16:08:33.982Z</time></trkpt><trkpt lat="46.0645717" lon="12.6408117"><ele>162.33333333333334</ele><time>2026-03-27T16:08:34.983Z</time></trkpt><trkpt lat="46.06456" lon="12.6409733"><ele>162.5</ele><time>2026-03-27T16:08:36.983Z</time></trkpt><trkpt lat="46.0645467" lon="12.641085"><ele>162.66666666666669</ele><time>2026-03-27T16:08:38.983Z</time></trkpt><trkpt lat="46.06449" lon="12.6411433"><ele>162.83333333333334</ele><time>2026-03-27T16:08:41.984Z</time></trkpt><trkpt lat="46.0644283" lon="12.641115"><ele>163.0</ele><time>2026-03-27T16:08:43.983Z</time></trkpt><trkpt lat="46.0643583" lon="12.6410733"><ele>163.0</ele><time>2026-03-27T16:08:45.985Z</time></trkpt><trkpt lat="46.06429" lon="12.641045"><ele>163.0</ele><time>2026-03-27T16:08:47.982Z</time></trkpt><trkpt lat="46.0642067" lon="12.6409967"><ele>163.0</ele><time>2026-03-27T16:08:49.984Z</time></trkpt><trkpt lat="46.0641183" lon="12.640955"><ele>163.0</ele><time>2026-03-27T16:08:51.982Z</time></trkpt><trkpt lat="46.06402" lon="12.6409317"><ele>163.0</ele><time>2026-03-27T16:08:53.983Z</time></trkpt><trkpt lat="46.0639133" lon="12.6408983"><ele>162.60000000000002</ele><time>2026-03-27T16:08:55.982Z</time></trkpt><trkpt lat="46.0638033" lon="12.6408417"><ele>162.20000000000002</ele><time>2026-03-27T16:08:57.983Z</time></trkpt><trkpt lat="46.063685" lon="12.6407833"><ele>161.8</ele><time>2026-03-27T16:08:59.983Z</time></trkpt><trkpt lat="46.06362" lon="12.640765"><ele>161.4</ele><time>2026-03-27T16:09:00.983Z</time></trkpt><trkpt lat="46.0634967" lon="12.64073"><ele>161.0</ele><time>2026-03-27T16:09:02.983Z</time></trkpt><trkpt lat="46.0634333" lon="12.6407133"><ele>161.0</ele><time>2026-03-27T16:09:03.982Z</time></trkpt><trkpt lat="46.0633683" lon="12.6407"><ele>161.0</ele><time>2026-03-27T16:09:04.982Z</time></trkpt><trkpt lat="46.0632967" lon="12.640685"><ele>161.0</ele><time>2026-03-27T16:09:05.984Z</time></trkpt><trkpt lat="46.0632233" lon="12.64067"><ele>161.0</ele><time>2026-03-27T16:09:06.983Z</time></trkpt><trkpt lat="46.0631483" lon="12.640655"><ele>161.0</ele><time>2026-03-27T16:09:07.982Z</time></trkpt><trkpt lat="46.0630733" lon="12.6406333"><ele>161.0</ele><time>2026-03-27T16:09:08.983Z</time></trkpt><trkpt lat="46.0629933" lon="12.6406233"><ele>161.0</ele><time>2026-03-27T16:09:09.983Z</time></trkpt><trkpt lat="46.062915" lon="12.6406133"><ele>161.0</ele><time>2026-03-27T16:09:10.982Z</time></trkpt><trkpt lat="46.0628333" lon="12.6406067"><ele>161.0</ele><time>2026-03-27T16:09:11.982Z</time></trkpt><trkpt lat="46.0627517" lon="12.6405967"><ele>161.0</ele><time>2026-03-27T16:09:12.982Z</time></trkpt><trkpt lat="46.0626683" lon="12.6405883"><ele>161.0</ele><time>2026-03-27T16:09:13.983Z</time></trkpt><trkpt lat="46.06258" lon="12.640585"><ele>161.0</ele><time>2026-03-27T16:09:14.984Z</time></trkpt><trkpt lat="46.0624917" lon="12.6405733"><ele>161.0</ele><time>2026-03-27T16:09:15.982Z</time></trkpt><trkpt lat="46.062405" lon="12.64055"><ele>160.60000000000002</ele><time>2026-03-27T16:09:16.983Z</time></trkpt><trkpt lat="46.0623167" lon="12.6405217"><ele>160.20000000000002</ele><time>2026-03-27T16:09:17.982Z</time></trkpt><trkpt lat="46.0622267" lon="12.640495"><ele>159.8</ele><time>2026-03-27T16:09:18.987Z</time></trkpt><trkpt lat="46.0621367" lon="12.6404667"><ele>159.4</ele><time>2026-03-27T16:09:19.983Z</time></trkpt><trkpt lat="46.0620467" lon="12.64044"><ele>159.0</ele><time>2026-03-27T16:09:20.984Z</time></trkpt><trkpt lat="46.0619583" lon="12.64041"><ele>159.0</ele><time>2026-03-27T16:09:21.983Z</time></trkpt><trkpt lat="46.0618667" lon="12.6403833"><ele>159.0</ele><time>2026-03-27T16:09:22.982Z</time></trkpt><trkpt lat="46.0617717" lon="12.6403567"><ele>159.0</ele><time>2026-03-27T16:09:23.982Z</time></trkpt><trkpt lat="46.0616783" lon="12.6403333"><ele>159.0</ele><time>2026-03-27T16:09:24.982Z</time></trkpt><trkpt lat="46.061585" lon="12.6403133"><ele>159.0</ele><time>2026-03-27T16:09:25.983Z</time></trkpt><trkpt lat="46.0614933" lon="12.640295"><ele>158.8</ele><time>2026-03-27T16:09:26.983Z</time></trkpt><trkpt lat="46.0614033" lon="12.6402717"><ele>158.60000000000002</ele><time>2026-03-27T16:09:27.983Z</time></trkpt><trkpt lat="46.0613117" lon="12.640245"><ele>158.4</ele><time>2026-03-27T16:09:28.982Z</time></trkpt><trkpt lat="46.0612167" lon="12.6402183"><ele>158.20000000000002</ele><time>2026-03-27T16:09:29.984Z</time></trkpt><trkpt lat="46.0611183" lon="12.6401883"><ele>158.0</ele><time>2026-03-27T16:09:30.982Z</time></trkpt><trkpt lat="46.06102" lon="12.640165"><ele>158.0</ele><time>2026-03-27T16:09:31.983Z</time></trkpt><trkpt lat="46.06092" lon="12.640145"><ele>158.0</ele><time>2026-03-27T16:09:32.983Z</time></trkpt><trkpt lat="46.0608254" lon="12.640127"><ele>158.0</ele><time>2026-03-27T16:09:33.982Z</time></trkpt><trkpt lat="46.0607341" lon="12.6401089"><ele>158.0</ele><time>2026-03-27T16:09:34.983Z</time></trkpt><trkpt lat="46.0606432" lon="12.6400928"><ele>158.0</ele><time>2026-03-27T16:09:35.983Z</time></trkpt><trkpt lat="46.0605509" lon="12.6400839"><ele>157.8</ele><time>2026-03-27T16:09:36.982Z</time></trkpt><trkpt lat="46.0604571" lon="12.6400777"><ele>157.60000000000002</ele><time>2026-03-27T16:09:37.984Z</time></trkpt><trkpt lat="46.0603662" lon="12.6400654"><ele>157.39999999999998</ele><time>2026-03-27T16:09:38.983Z</time></trkpt><trkpt lat="46.0602768" lon="12.6400453"><ele>157.2</ele><time>2026-03-27T16:09:39.983Z</time></trkpt><trkpt lat="46.0601882" lon="12.6400281"><ele>157.0</ele><time>2026-03-27T16:09:40.983Z</time></trkpt><trkpt lat="46.0601029" lon="12.6400132"><ele>157.0</ele><time>2026-03-27T16:09:41.982Z</time></trkpt><trkpt lat="46.0600192" lon="12.6400048"><ele>157.0</ele><time>2026-03-27T16:09:42.982Z</time></trkpt><trkpt lat="46.0599294" lon="12.64"><ele>157.0</ele><time>2026-03-27T16:09:43.982Z</time></trkpt><trkpt lat="46.0598361" lon="12.6399998"><ele>157.0</ele><time>2026-03-27T16:09:44.983Z</time></trkpt><trkpt lat="46.0597435" lon="12.6400021"><ele>157.0</ele><time>2026-03-27T16:09:45.982Z</time></trkpt><trkpt lat="46.0596481" lon="12.6400099"><ele>156.6</ele><time>2026-03-27T16:09:46.982Z</time></trkpt><trkpt lat="46.0595459" lon="12.6400229"><ele>156.2</ele><time>2026-03-27T16:09:47.983Z</time></trkpt><trkpt lat="46.0594422" lon="12.6400314"><ele>155.8</ele><time>2026-03-27T16:09:48.982Z</time></trkpt><trkpt lat="46.0593341" lon="12.6400428"><ele>155.4</ele><time>2026-03-27T16:09:49.983Z</time></trkpt><trkpt lat="46.0592264" lon="12.640051"><ele>155.0</ele><time>2026-03-27T16:09:50.986Z</time></trkpt><trkpt lat="46.0591215" lon="12.640057"><ele>155.0</ele><time>2026-03-27T16:09:51.982Z</time></trkpt><trkpt lat="46.0590115" lon="12.6400636"><ele>155.0</ele><time>2026-03-27T16:09:52.982Z</time></trkpt><trkpt lat="46.0588983" lon="12.6400686"><ele>155.0</ele><time>2026-03-27T16:09:53.983Z</time></trkpt><trkpt lat="46.0587873" lon="12.6400681"><ele>155.0</ele><time>2026-03-27T16:09:54.982Z</time></trkpt><trkpt lat="46.0586787" lon="12.6400592"><ele>155.0</ele><time>2026-03-27T16:09:55.982Z</time></trkpt><trkpt lat="46.0585672" lon="12.6400383"><ele>155.0</ele><time>2026-03-27T16:09:56.983Z</time></trkpt><trkpt lat="46.0584511" lon="12.6400061"><ele>155.0</ele><time>2026-03-27T16:09:57.982Z</time></trkpt><trkpt lat="46.0583354" lon="12.6399638"><ele>155.0</ele><time>2026-03-27T16:09:58.984Z</time></trkpt><trkpt lat="46.0582181" lon="12.6399143"><ele>155.0</ele><time>2026-03-27T16:09:59.983Z</time></trkpt><trkpt lat="46.0581022" lon="12.6398574"><ele>154.75</ele><time>2026-03-27T16:10:00.982Z</time></trkpt><trkpt lat="46.0579898" lon="12.6397977"><ele>154.5</ele><time>2026-03-27T16:10:01.982Z</time></trkpt><trkpt lat="46.0578726" lon="12.6397326"><ele>154.25</ele><time>2026-03-27T16:10:02.984Z</time></trkpt><trkpt lat="46.0577526" lon="12.6396668"><ele>154.0</ele><time>2026-03-27T16:10:03.982Z</time></trkpt><trkpt lat="46.0576318" lon="12.6395986"><ele>154.0</ele><time>2026-03-27T16:10:04.983Z</time></trkpt><trkpt lat="46.0575102" lon="12.6395295"><ele>154.0</ele><time>2026-03-27T16:10:05.983Z</time></trkpt><trkpt lat="46.0573883" lon="12.6394585"><ele>154.0</ele><time>2026-03-27T16:10:06.983Z</time></trkpt><trkpt lat="46.0572624" lon="12.6393863"><ele>154.0</ele><time>2026-03-27T16:10:07.982Z</time></trkpt><trkpt lat="46.057137" lon="12.6393114"><ele>153.5</ele><time>2026-03-27T16:10:08.983Z</time></trkpt><trkpt lat="46.0570078" lon="12.6392392"><ele>153.0</ele><time>2026-03-27T16:10:09.984Z</time></trkpt><trkpt lat="46.0568747" lon="12.639167"><ele>152.5</ele><time>2026-03-27T16:10:10.983Z</time></trkpt><trkpt lat="46.0567403" lon="12.6390931"><ele>152.0</ele><time>2026-03-27T16:10:11.982Z</time></trkpt><trkpt lat="46.0566041" lon="12.6390139"><ele>151.5</ele><time>2026-03-27T16:10:12.983Z</time></trkpt><trkpt lat="46.0564694" lon="12.6389327"><ele>151.0</ele><time>2026-03-27T16:10:13.982Z</time></trkpt><trkpt lat="46.0563365" lon="12.6388564"><ele>150.5</ele><time>2026-03-27T16:10:14.982Z</time></trkpt><trkpt lat="46.0562051" lon="12.6387846"><ele>150.0</ele><time>2026-03-27T16:10:15.983Z</time></trkpt><trkpt lat="46.0560723" lon="12.638713"><ele>150.0</ele><time>2026-03-27T16:10:16.982Z</time></trkpt><trkpt lat="46.0559359" lon="12.6386442"><ele>150.0</ele><time>2026-03-27T16:10:17.984Z</time></trkpt><trkpt lat="46.0557978" lon="12.6385803"><ele>150.0</ele><time>2026-03-27T16:10:18.983Z</time></trkpt><trkpt lat="46.0556585" lon="12.638523"><ele>150.0</ele><time>2026-03-27T16:10:19.982Z</time></trkpt><trkpt lat="46.0555227" lon="12.6384616"><ele>150.0</ele><time>2026-03-27T16:10:20.983Z</time></trkpt><trkpt lat="46.0553883" lon="12.6383957"><ele>150.0</ele><time>2026-03-27T16:10:21.983Z</time></trkpt><trkpt lat="46.0552563" lon="12.6383379"><ele>150.0</ele><time>2026-03-27T16:10:22.983Z</time></trkpt><trkpt lat="46.0551279" lon="12.6382895"><ele>150.0</ele><time>2026-03-27T16:10:23.982Z</time></trkpt><trkpt lat="46.0549993" lon="12.6382472"><ele>149.75</ele><time>2026-03-27T16:10:24.983Z</time></trkpt><trkpt lat="46.0548683" lon="12.6382097"><ele>149.5</ele><time>2026-03-27T16:10:25.982Z</time></trkpt><trkpt lat="46.0547424" lon="12.6381702"><ele>149.25</ele><time>2026-03-27T16:10:26.982Z</time></trkpt><trkpt lat="46.0546252" lon="12.638132"><ele>149.0</ele><time>2026-03-27T16:10:27.984Z</time></trkpt><trkpt lat="46.0545097" lon="12.638094"><ele>149.0</ele><time>2026-03-27T16:10:28.983Z</time></trkpt><trkpt lat="46.0543905" lon="12.638059"><ele>149.0</ele><time>2026-03-27T16:10:29.982Z</time></trkpt><trkpt lat="46.0542785" lon="12.6380151"><ele>149.0</ele><time>2026-03-27T16:10:30.982Z</time></trkpt><trkpt lat="46.0541783" lon="12.6379699"><ele>149.0</ele><time>2026-03-27T16:10:31.983Z</time></trkpt><trkpt lat="46.0540896" lon="12.6379256"><ele>149.0</ele><time>2026-03-27T16:10:32.982Z</time></trkpt><trkpt lat="46.0540066" lon="12.6378916"><ele>148.5</ele><time>2026-03-27T16:10:33.984Z</time></trkpt><trkpt lat="46.053928" lon="12.6378706"><ele>148.0</ele><time>2026-03-27T16:10:34.982Z</time></trkpt><trkpt lat="46.0538649" lon="12.6378574"><ele>147.5</ele><time>2026-03-27T16:10:35.984Z</time></trkpt><trkpt lat="46.0537917" lon="12.6378467"><ele>147.0</ele><time>2026-03-27T16:10:37.984Z</time></trkpt><trkpt lat="46.0537183" lon="12.6378583"><ele>146.5</ele><time>2026-03-27T16:10:45.981Z</time></trkpt><trkpt lat="46.0536867" lon="12.63803"><ele>146.0</ele><time>2026-03-27T16:10:47.984Z</time></trkpt><trkpt lat="46.0536833" lon="12.6381583"><ele>146.0</ele><time>2026-03-27T16:10:48.982Z</time></trkpt><trkpt lat="46.0536917" lon="12.6383017"><ele>146.0</ele><time>2026-03-27T16:10:49.982Z</time></trkpt><trkpt lat="46.05369" lon="12.6384567"><ele>146.0</ele><time>2026-03-27T16:10:50.986Z</time></trkpt><trkpt lat="46.0536817" lon="12.6386167"><ele>146.0</ele><time>2026-03-27T16:10:51.985Z</time></trkpt><trkpt lat="46.05367" lon="12.6387817"><ele>146.0</ele><time>2026-03-27T16:10:52.982Z</time></trkpt><trkpt lat="46.0536617" lon="12.6389583"><ele>146.25</ele><time>2026-03-27T16:10:53.982Z</time></trkpt><trkpt lat="46.0536617" lon="12.6391467"><ele>146.5</ele><time>2026-03-27T16:10:54.984Z</time></trkpt><trkpt lat="46.05368" lon="12.63934"><ele>146.75</ele><time>2026-03-27T16:10:55.982Z</time></trkpt><trkpt lat="46.0537033" lon="12.6395433"><ele>147.0</ele><time>2026-03-27T16:10:56.983Z</time></trkpt><trkpt lat="46.0537333" lon="12.6397517"><ele>147.66666666666666</ele><time>2026-03-27T16:10:57.983Z</time></trkpt><trkpt lat="46.0537617" lon="12.6399667"><ele>148.33333333333331</ele><time>2026-03-27T16:10:58.982Z</time></trkpt><trkpt lat="46.053785" lon="12.6401817"><ele>149.0</ele><time>2026-03-27T16:10:59.983Z</time></trkpt><trkpt lat="46.0538117" lon="12.6403933"><ele>149.33333333333331</ele><time>2026-03-27T16:11:00.982Z</time></trkpt><trkpt lat="46.0538417" lon="12.6406067"><ele>149.66666666666666</ele><time>2026-03-27T16:11:01.987Z</time></trkpt><trkpt lat="46.05387" lon="12.6408317"><ele>150.0</ele><time>2026-03-27T16:11:02.983Z</time></trkpt><trkpt lat="46.0538967" lon="12.6410667"><ele>149.66666666666666</ele><time>2026-03-27T16:11:03.982Z</time></trkpt><trkpt lat="46.0539217" lon="12.641315"><ele>149.33333333333331</ele><time>2026-03-27T16:11:04.982Z</time></trkpt><trkpt lat="46.05395" lon="12.6415733"><ele>149.0</ele><time>2026-03-27T16:11:05.984Z</time></trkpt><trkpt lat="46.0539806" lon="12.6418378"><ele>148.0</ele><time>2026-03-27T16:11:06.983Z</time></trkpt><trkpt lat="46.0540045" lon="12.6421094"><ele>147.0</ele><time>2026-03-27T16:11:07.983Z</time></trkpt><trkpt lat="46.0540246" lon="12.6423828"><ele>146.0</ele><time>2026-03-27T16:11:08.984Z</time></trkpt><trkpt lat="46.0540392" lon="12.6426559"><ele>146.66666666666666</ele><time>2026-03-27T16:11:09.982Z</time></trkpt><trkpt lat="46.054052" lon="12.6429325"><ele>147.33333333333334</ele><time>2026-03-27T16:11:10.983Z</time></trkpt><trkpt lat="46.0540585" lon="12.6432173"><ele>148.0</ele><time>2026-03-27T16:11:11.983Z</time></trkpt><trkpt lat="46.054064" lon="12.6435055"><ele>148.0</ele><time>2026-03-27T16:11:12.983Z</time></trkpt><trkpt lat="46.0540669" lon="12.6437972"><ele>148.0</ele><time>2026-03-27T16:11:13.982Z</time></trkpt><trkpt lat="46.054068" lon="12.6440923"><ele>148.0</ele><time>2026-03-27T16:11:14.984Z</time></trkpt><trkpt lat="46.0540671" lon="12.6443877"><ele>148.0</ele><time>2026-03-27T16:11:15.982Z</time></trkpt><trkpt lat="46.0540668" lon="12.6446834"><ele>148.0</ele><time>2026-03-27T16:11:16.982Z</time></trkpt><trkpt lat="46.0540656" lon="12.6449805"><ele>148.0</ele><time>2026-03-27T16:11:17.982Z</time></trkpt><trkpt lat="46.0540663" lon="12.6452798"><ele>148.0</ele><time>2026-03-27T16:11:18.982Z</time></trkpt><trkpt lat="46.0540573" lon="12.6455805"><ele>148.0</ele><time>2026-03-27T16:11:19.983Z</time></trkpt><trkpt lat="46.0540409" lon="12.645882"><ele>148.0</ele><time>2026-03-27T16:11:20.983Z</time></trkpt><trkpt lat="46.0540163" lon="12.6461851"><ele>147.33333333333334</ele><time>2026-03-27T16:11:21.983Z</time></trkpt><trkpt lat="46.0539879" lon="12.6464888"><ele>146.66666666666666</ele><time>2026-03-27T16:11:22.983Z</time></trkpt><trkpt lat="46.053956" lon="12.6467921"><ele>146.0</ele><time>2026-03-27T16:11:23.982Z</time></trkpt><trkpt lat="46.0539164" lon="12.6470912"><ele>146.0</ele><time>2026-03-27T16:11:24.982Z</time></trkpt><trkpt lat="46.0538787" lon="12.6473815"><ele>146.0</ele><time>2026-03-27T16:11:25.984Z</time></trkpt><trkpt lat="46.0538416" lon="12.6476474"><ele>146.0</ele><time>2026-03-27T16:11:26.984Z</time></trkpt><trkpt lat="46.0538078" lon="12.6478909"><ele>146.75</ele><time>2026-03-27T16:11:27.983Z</time></trkpt><trkpt lat="46.0537797" lon="12.648117"><ele>147.5</ele><time>2026-03-27T16:11:28.982Z</time></trkpt><trkpt lat="46.0537585" lon="12.6483267"><ele>148.25</ele><time>2026-03-27T16:11:29.984Z</time></trkpt><trkpt lat="46.0537409" lon="12.6485108"><ele>149.0</ele><time>2026-03-27T16:11:30.982Z</time></trkpt><trkpt lat="46.0537258" lon="12.6486653"><ele>149.0</ele><time>2026-03-27T16:11:31.982Z</time></trkpt><trkpt lat="46.0537138" lon="12.6487788"><ele>149.0</ele><time>2026-03-27T16:11:32.983Z</time></trkpt><trkpt lat="46.0536332" lon="12.6488803"><ele>149.0</ele><time>2026-03-27T16:11:34.982Z</time></trkpt><trkpt lat="46.0535585" lon="12.648901"><ele>149.0</ele><time>2026-03-27T16:11:35.983Z</time></trkpt><trkpt lat="46.0534557" lon="12.6489103"><ele>149.0</ele><time>2026-03-27T16:11:36.986Z</time></trkpt><trkpt lat="46.0533385" lon="12.6489157"><ele>148.75</ele><time>2026-03-27T16:11:37.983Z</time></trkpt><trkpt lat="46.053214" lon="12.648931"><ele>148.5</ele><time>2026-03-27T16:11:38.982Z</time></trkpt><trkpt lat="46.05308" lon="12.6489587"><ele>148.25</ele><time>2026-03-27T16:11:39.982Z</time></trkpt><trkpt lat="46.0529499" lon="12.6489872"><ele>148.0</ele><time>2026-03-27T16:11:40.983Z</time></trkpt><trkpt lat="46.052823" lon="12.649013"><ele>148.0</ele><time>2026-03-27T16:11:41.982Z</time></trkpt><trkpt lat="46.0526863" lon="12.6490188"><ele>148.0</ele><time>2026-03-27T16:11:42.983Z</time></trkpt><trkpt lat="46.0525392" lon="12.6489957"><ele>148.0</ele><time>2026-03-27T16:11:43.983Z</time></trkpt><trkpt lat="46.052381" lon="12.6489517"><ele>148.0</ele><time>2026-03-27T16:11:44.982Z</time></trkpt><trkpt lat="46.0522263" lon="12.6489005"><ele>147.5</ele><time>2026-03-27T16:11:45.984Z</time></trkpt><trkpt lat="46.0520836" lon="12.6488541"><ele>147.0</ele><time>2026-03-27T16:11:46.982Z</time></trkpt><trkpt lat="46.0519542" lon="12.6487981"><ele>146.5</ele><time>2026-03-27T16:11:47.983Z</time></trkpt><trkpt lat="46.0518308" lon="12.6487116"><ele>146.0</ele><time>2026-03-27T16:11:48.984Z</time></trkpt><trkpt lat="46.0517019" lon="12.6485942"><ele>146.0</ele><time>2026-03-27T16:11:49.982Z</time></trkpt><trkpt lat="46.0515696" lon="12.6484696"><ele>146.0</ele><time>2026-03-27T16:11:50.983Z</time></trkpt><trkpt lat="46.0514323" lon="12.6483442"><ele>146.0</ele><time>2026-03-27T16:11:51.983Z</time></trkpt><trkpt lat="46.0512865" lon="12.648223"><ele>146.0</ele><time>2026-03-27T16:11:52.983Z</time></trkpt><trkpt lat="46.051126" lon="12.6481171"><ele>146.0</ele><time>2026-03-27T16:11:53.982Z</time></trkpt><trkpt lat="46.0509568" lon="12.6480265"><ele>146.0</ele><time>2026-03-27T16:11:54.982Z</time></trkpt><trkpt lat="46.0507843" lon="12.6479399"><ele>145.0</ele><time>2026-03-27T16:11:55.982Z</time></trkpt><trkpt lat="46.0506107" lon="12.6478573"><ele>144.0</ele><time>2026-03-27T16:11:56.983Z</time></trkpt><trkpt lat="46.0504328" lon="12.64778"><ele>143.0</ele><time>2026-03-27T16:11:57.983Z</time></trkpt><trkpt lat="46.0502526" lon="12.6477185"><ele>143.0</ele><time>2026-03-27T16:11:58.983Z</time></trkpt><trkpt lat="46.0500724" lon="12.6476714"><ele>143.0</ele><time>2026-03-27T16:11:59.983Z</time></trkpt><trkpt lat="46.0499003" lon="12.6476314"><ele>143.0</ele><time>2026-03-27T16:12:00.982Z</time></trkpt><trkpt lat="46.0497398" lon="12.6475948"><ele>142.75</ele><time>2026-03-27T16:12:01.983Z</time></trkpt><trkpt lat="46.0495877" lon="12.6475644"><ele>142.5</ele><time>2026-03-27T16:12:02.984Z</time></trkpt><trkpt lat="46.0494446" lon="12.6475383"><ele>142.25</ele><time>2026-03-27T16:12:03.982Z</time></trkpt><trkpt lat="46.0493107" lon="12.6475167"><ele>142.0</ele><time>2026-03-27T16:12:04.982Z</time></trkpt><trkpt lat="46.0491861" lon="12.6474993"><ele>142.0</ele><time>2026-03-27T16:12:05.982Z</time></trkpt><trkpt lat="46.0490592" lon="12.6474852"><ele>142.0</ele><time>2026-03-27T16:12:06.982Z</time></trkpt><trkpt lat="46.048925" lon="12.6474612"><ele>142.0</ele><time>2026-03-27T16:12:07.983Z</time></trkpt><trkpt lat="46.0487871" lon="12.6474156"><ele>142.0</ele><time>2026-03-27T16:12:08.982Z</time></trkpt><trkpt lat="46.0486556" lon="12.6473626"><ele>142.0</ele><time>2026-03-27T16:12:09.982Z</time></trkpt><trkpt lat="46.0485374" lon="12.6473078"><ele>142.0</ele><time>2026-03-27T16:12:10.982Z</time></trkpt><trkpt lat="46.0484303" lon="12.6472383"><ele>142.0</ele><time>2026-03-27T16:12:11.984Z</time></trkpt><trkpt lat="46.0483265" lon="12.6471314"><ele>142.0</ele><time>2026-03-27T16:12:12.983Z</time></trkpt><trkpt lat="46.0482252" lon="12.6470002"><ele>141.5</ele><time>2026-03-27T16:12:13.982Z</time></trkpt><trkpt lat="46.0481311" lon="12.646876"><ele>141.0</ele><time>2026-03-27T16:12:14.984Z</time></trkpt><trkpt lat="46.0480348" lon="12.6467715"><ele>140.5</ele><time>2026-03-27T16:12:15.982Z</time></trkpt><trkpt lat="46.0479238" lon="12.6466892"><ele>140.0</ele><time>2026-03-27T16:12:16.983Z</time></trkpt><trkpt lat="46.0477953" lon="12.6466225"><ele>140.0</ele><time>2026-03-27T16:12:17.983Z</time></trkpt><trkpt lat="46.0476619" lon="12.6465624"><ele>140.0</ele><time>2026-03-27T16:12:18.984Z</time></trkpt><trkpt lat="46.0475332" lon="12.6465111"><ele>140.0</ele><time>2026-03-27T16:12:19.983Z</time></trkpt><trkpt lat="46.0474054" lon="12.6464644"><ele>140.0</ele><time>2026-03-27T16:12:20.982Z</time></trkpt><trkpt lat="46.0472591" lon="12.6464308"><ele>139.66666666666666</ele><time>2026-03-27T16:12:21.982Z</time></trkpt><trkpt lat="46.047093" lon="12.6464183"><ele>139.33333333333334</ele><time>2026-03-27T16:12:22.982Z</time></trkpt><trkpt lat="46.0469171" lon="12.6464166"><ele>139.0</ele><time>2026-03-27T16:12:23.983Z</time></trkpt><trkpt lat="46.0467379" lon="12.646415"><ele>138.33333333333334</ele><time>2026-03-27T16:12:24.983Z</time></trkpt><trkpt lat="46.0465559" lon="12.6464076"><ele>137.66666666666666</ele><time>2026-03-27T16:12:25.982Z</time></trkpt><trkpt lat="46.0463827" lon="12.6463972"><ele>137.0</ele><time>2026-03-27T16:12:26.983Z</time></trkpt><trkpt lat="46.0462373" lon="12.6463862"><ele>137.0</ele><time>2026-03-27T16:12:27.983Z</time></trkpt><trkpt lat="46.0461218" lon="12.6463635"><ele>137.0</ele><time>2026-03-27T16:12:28.982Z</time></trkpt><trkpt lat="46.0460246" lon="12.6463089"><ele>137.0</ele><time>2026-03-27T16:12:29.983Z</time></trkpt><trkpt lat="46.0459318" lon="12.6462029"><ele>137.0</ele><time>2026-03-27T16:12:30.983Z</time></trkpt><trkpt lat="46.045835" lon="12.6460717"><ele>136.33333333333331</ele><time>2026-03-27T16:12:31.986Z</time></trkpt><trkpt lat="46.0457292" lon="12.6459586"><ele>135.66666666666666</ele><time>2026-03-27T16:12:32.982Z</time></trkpt><trkpt lat="46.0455944" lon="12.6458761"><ele>135.0</ele><time>2026-03-27T16:12:33.982Z</time></trkpt><trkpt lat="46.045424" lon="12.6458303"><ele>135.0</ele><time>2026-03-27T16:12:34.984Z</time></trkpt><trkpt lat="46.0452284" lon="12.6458115"><ele>135.0</ele><time>2026-03-27T16:12:35.982Z</time></trkpt><trkpt lat="46.0450165" lon="12.6458009"><ele>135.0</ele><time>2026-03-27T16:12:36.982Z</time></trkpt><trkpt lat="46.0447949" lon="12.6457814"><ele>136.5</ele><time>2026-03-27T16:12:37.983Z</time></trkpt><trkpt lat="46.0445616" lon="12.6457539"><ele>138.0</ele><time>2026-03-27T16:12:38.983Z</time></trkpt><trkpt lat="46.0443244" lon="12.6457201"><ele>137.33333333333334</ele><time>2026-03-27T16:12:39.982Z</time></trkpt><trkpt lat="46.0441119" lon="12.6456868"><ele>136.66666666666669</ele><time>2026-03-27T16:12:40.982Z</time></trkpt><trkpt lat="46.043941" lon="12.6456681"><ele>136.0</ele><time>2026-03-27T16:12:41.982Z</time></trkpt><trkpt lat="46.0438033" lon="12.6456607"><ele>136.0</ele><time>2026-03-27T16:12:42.984Z</time></trkpt><trkpt lat="46.043684" lon="12.6456561"><ele>136.0</ele><time>2026-03-27T16:12:43.983Z</time></trkpt><trkpt lat="46.0435802" lon="12.6456591"><ele>136.0</ele><time>2026-03-27T16:12:44.982Z</time></trkpt><trkpt lat="46.0434953" lon="12.6456546"><ele>136.0</ele><time>2026-03-27T16:12:45.982Z</time></trkpt><trkpt lat="46.0434206" lon="12.6456263"><ele>136.0</ele><time>2026-03-27T16:12:46.983Z</time></trkpt><trkpt lat="46.0433365" lon="12.6455715"><ele>135.75</ele><time>2026-03-27T16:12:47.982Z</time></trkpt><trkpt lat="46.0432267" lon="12.6455125"><ele>135.5</ele><time>2026-03-27T16:12:48.982Z</time></trkpt><trkpt lat="46.0430874" lon="12.6454635"><ele>135.25</ele><time>2026-03-27T16:12:49.983Z</time></trkpt><trkpt lat="46.0429372" lon="12.6454242"><ele>135.0</ele><time>2026-03-27T16:12:50.984Z</time></trkpt><trkpt lat="46.0427851" lon="12.6453947"><ele>135.0</ele><time>2026-03-27T16:12:51.984Z</time></trkpt><trkpt lat="46.0426405" lon="12.6453713"><ele>135.0</ele><time>2026-03-27T16:12:52.982Z</time></trkpt><trkpt lat="46.042509" lon="12.6453629"><ele>135.0</ele><time>2026-03-27T16:12:53.983Z</time></trkpt><trkpt lat="46.0423818" lon="12.6453865"><ele>135.0</ele><time>2026-03-27T16:12:54.983Z</time></trkpt><trkpt lat="46.0422563" lon="12.645432"><ele>134.6</ele><time>2026-03-27T16:12:55.982Z</time></trkpt><trkpt lat="46.0421432" lon="12.6454772"><ele>134.2</ele><time>2026-03-27T16:12:56.983Z</time></trkpt><trkpt lat="46.0420462" lon="12.6455059"><ele>133.8</ele><time>2026-03-27T16:12:57.983Z</time></trkpt><trkpt lat="46.0419563" lon="12.6455047"><ele>133.4</ele><time>2026-03-27T16:12:58.983Z</time></trkpt><trkpt lat="46.0418578" lon="12.645464"><ele>133.0</ele><time>2026-03-27T16:12:59.983Z</time></trkpt><trkpt lat="46.0417455" lon="12.6453897"><ele>133.0</ele><time>2026-03-27T16:13:00.984Z</time></trkpt><trkpt lat="46.0416346" lon="12.6453087"><ele>133.0</ele><time>2026-03-27T16:13:01.983Z</time></trkpt><trkpt lat="46.0415278" lon="12.6452368"><ele>133.0</ele><time>2026-03-27T16:13:02.983Z</time></trkpt><trkpt lat="46.0414157" lon="12.6451702"><ele>133.0</ele><time>2026-03-27T16:13:03.982Z</time></trkpt><trkpt lat="46.0412994" lon="12.6451133"><ele>132.5</ele><time>2026-03-27T16:13:04.986Z</time></trkpt><trkpt lat="46.0411855" lon="12.6450799"><ele>132.0</ele><time>2026-03-27T16:13:05.988Z</time></trkpt><trkpt lat="46.0410774" lon="12.6450573"><ele>131.5</ele><time>2026-03-27T16:13:06.982Z</time></trkpt><trkpt lat="46.040962" lon="12.6450435"><ele>131.0</ele><time>2026-03-27T16:13:07.982Z</time></trkpt><trkpt lat="46.040843" lon="12.645033"><ele>130.8</ele><time>2026-03-27T16:13:08.983Z</time></trkpt><trkpt lat="46.0407301" lon="12.6450195"><ele>130.6</ele><time>2026-03-27T16:13:09.984Z</time></trkpt><trkpt lat="46.0406266" lon="12.6449993"><ele>130.4</ele><time>2026-03-27T16:13:10.984Z</time></trkpt><trkpt lat="46.0405342" lon="12.6449749"><ele>130.2</ele><time>2026-03-27T16:13:11.984Z</time></trkpt><trkpt lat="46.0404593" lon="12.6449503"><ele>130.0</ele><time>2026-03-27T16:13:12.982Z</time></trkpt><trkpt lat="46.0403825" lon="12.644892"><ele>130.0</ele><time>2026-03-27T16:13:14.982Z</time></trkpt><trkpt lat="46.0403067" lon="12.644895"><ele>130.0</ele><time>2026-03-27T16:13:17.982Z</time></trkpt><trkpt lat="46.0402283" lon="12.644915"><ele>130.0</ele><time>2026-03-27T16:13:20.983Z</time></trkpt><trkpt lat="46.0402133" lon="12.64506"><ele>130.0</ele><time>2026-03-27T16:13:31.982Z</time></trkpt><trkpt lat="46.0402317" lon="12.645155"><ele>130.0</ele><time>2026-03-27T16:13:32.986Z</time></trkpt><trkpt lat="46.040245" lon="12.645305"><ele>130.0</ele><time>2026-03-27T16:13:34.984Z</time></trkpt><trkpt lat="46.040275" lon="12.645405"><ele>130.0</ele><time>2026-03-27T16:13:37.982Z</time></trkpt><trkpt lat="46.0403083" lon="12.645485"><ele>130.0</ele><time>2026-03-27T16:13:39.983Z</time></trkpt><trkpt lat="46.0402933" lon="12.6455883"><ele>130.0</ele><time>2026-03-27T16:13:41.982Z</time></trkpt><trkpt lat="46.04027" lon="12.6457333"><ele>130.0</ele><time>2026-03-27T16:13:43.982Z</time></trkpt><trkpt lat="46.040275" lon="12.6458583"><ele>130.0</ele><time>2026-03-27T16:13:45.982Z</time></trkpt><trkpt lat="46.0402933" lon="12.64603"><ele>130.0</ele><time>2026-03-27T16:13:47.981Z</time></trkpt><trkpt lat="46.0403033" lon="12.6461367"><ele>130.0</ele><time>2026-03-27T16:13:48.982Z</time></trkpt><trkpt lat="46.0403167" lon="12.646255"><ele>130.0</ele><time>2026-03-27T16:13:49.981Z</time></trkpt><trkpt lat="46.04033" lon="12.646385"><ele>130.0</ele><time>2026-03-27T16:13:50.984Z</time></trkpt><trkpt lat="46.0403417" lon="12.6465217"><ele>130.0</ele><time>2026-03-27T16:13:51.983Z</time></trkpt><trkpt lat="46.040355" lon="12.6466583"><ele>130.0</ele><time>2026-03-27T16:13:52.982Z</time></trkpt><trkpt lat="46.04037" lon="12.6467967"><ele>130.0</ele><time>2026-03-27T16:13:53.982Z</time></trkpt><trkpt lat="46.040385" lon="12.646935"><ele>130.0</ele><time>2026-03-27T16:13:54.983Z</time></trkpt><trkpt lat="46.0403983" lon="12.6470733"><ele>130.0</ele><time>2026-03-27T16:13:55.982Z</time></trkpt><trkpt lat="46.04041" lon="12.647215"><ele>130.0</ele><time>2026-03-27T16:13:56.982Z</time></trkpt><trkpt lat="46.0404267" lon="12.6473583"><ele>130.0</ele><time>2026-03-27T16:13:57.984Z</time></trkpt><trkpt lat="46.040445" lon="12.6475067"><ele>129.75</ele><time>2026-03-27T16:13:58.982Z</time></trkpt><trkpt lat="46.0404617" lon="12.64766"><ele>129.5</ele><time>2026-03-27T16:13:59.983Z</time></trkpt><trkpt lat="46.04048" lon="12.6478183"><ele>129.25</ele><time>2026-03-27T16:14:00.984Z</time></trkpt><trkpt lat="46.0404967" lon="12.6479817"><ele>129.0</ele><time>2026-03-27T16:14:01.984Z</time></trkpt><trkpt lat="46.0405167" lon="12.6481533"><ele>129.25</ele><time>2026-03-27T16:14:02.983Z</time></trkpt><trkpt lat="46.0405367" lon="12.6483267"><ele>129.5</ele><time>2026-03-27T16:14:03.982Z</time></trkpt><trkpt lat="46.040555" lon="12.6485017"><ele>129.75</ele><time>2026-03-27T16:14:04.982Z</time></trkpt><trkpt lat="46.0405717" lon="12.648675"><ele>130.0</ele><time>2026-03-27T16:14:05.982Z</time></trkpt><trkpt lat="46.0405883" lon="12.6488467"><ele>130.0</ele><time>2026-03-27T16:14:06.983Z</time></trkpt><trkpt lat="46.0406067" lon="12.649015"><ele>130.0</ele><time>2026-03-27T16:14:07.982Z</time></trkpt><trkpt lat="46.040625" lon="12.649185"><ele>130.0</ele><time>2026-03-27T16:14:08.984Z</time></trkpt><trkpt lat="46.04064" lon="12.6493533"><ele>130.0</ele><time>2026-03-27T16:14:09.983Z</time></trkpt><trkpt lat="46.040655" lon="12.649525"><ele>130.0</ele><time>2026-03-27T16:14:10.983Z</time></trkpt><trkpt lat="46.0406717" lon="12.6496983"><ele>130.0</ele><time>2026-03-27T16:14:11.983Z</time></trkpt><trkpt lat="46.04069" lon="12.649875"><ele>130.0</ele><time>2026-03-27T16:14:12.982Z</time></trkpt><trkpt lat="46.0407083" lon="12.6500533"><ele>130.0</ele><time>2026-03-27T16:14:13.982Z</time></trkpt><trkpt lat="46.0407283" lon="12.6502367"><ele>130.5</ele><time>2026-03-27T16:14:14.982Z</time></trkpt><trkpt lat="46.040745" lon="12.6504217"><ele>131.0</ele><time>2026-03-27T16:14:15.982Z</time></trkpt><trkpt lat="46.0407667" lon="12.6506117"><ele>131.5</ele><time>2026-03-27T16:14:16.982Z</time></trkpt><trkpt lat="46.0407867" lon="12.6508017"><ele>132.0</ele><time>2026-03-27T16:14:17.982Z</time></trkpt><trkpt lat="46.0408067" lon="12.650995"><ele>132.0</ele><time>2026-03-27T16:14:18.983Z</time></trkpt><trkpt lat="46.040825" lon="12.65119"><ele>132.0</ele><time>2026-03-27T16:14:19.982Z</time></trkpt><trkpt lat="46.040845" lon="12.6513867"><ele>132.0</ele><time>2026-03-27T16:14:20.982Z</time></trkpt><trkpt lat="46.0408683" lon="12.6515833"><ele>132.0</ele><time>2026-03-27T16:14:21.982Z</time></trkpt><trkpt lat="46.0408933" lon="12.6517767"><ele>131.75</ele><time>2026-03-27T16:14:22.984Z</time></trkpt><trkpt lat="46.0409183" lon="12.6519683"><ele>131.5</ele><time>2026-03-27T16:14:23.984Z</time></trkpt><trkpt lat="46.0409417" lon="12.6521583"><ele>131.25</ele><time>2026-03-27T16:14:24.982Z</time></trkpt><trkpt lat="46.0409633" lon="12.6523433"><ele>131.0</ele><time>2026-03-27T16:14:25.982Z</time></trkpt><trkpt lat="46.0409817" lon="12.65253"><ele>131.0</ele><time>2026-03-27T16:14:26.984Z</time></trkpt><trkpt lat="46.0410033" lon="12.6527133"><ele>131.0</ele><time>2026-03-27T16:14:27.982Z</time></trkpt><trkpt lat="46.0410283" lon="12.6528983"><ele>131.0</ele><time>2026-03-27T16:14:28.982Z</time></trkpt><trkpt lat="46.0410567" lon="12.65308"><ele>131.0</ele><time>2026-03-27T16:14:29.982Z</time></trkpt><trkpt lat="46.04109" lon="12.6532583"><ele>131.0</ele><time>2026-03-27T16:14:30.984Z</time></trkpt><trkpt lat="46.041125" lon="12.6534417"><ele>131.0</ele><time>2026-03-27T16:14:31.982Z</time></trkpt><trkpt lat="46.041165" lon="12.6536233"><ele>131.0</ele><time>2026-03-27T16:14:32.983Z</time></trkpt><trkpt lat="46.0412017" lon="12.6538083"><ele>131.0</ele><time>2026-03-27T16:14:33.983Z</time></trkpt><trkpt lat="46.04124" lon="12.65399"><ele>130.8</ele><time>2026-03-27T16:14:34.982Z</time></trkpt><trkpt lat="46.0412767" lon="12.6541633"><ele>130.6</ele><time>2026-03-27T16:14:35.982Z</time></trkpt><trkpt lat="46.0413067" lon="12.65432"><ele>130.4</ele><time>2026-03-27T16:14:36.983Z</time></trkpt><trkpt lat="46.0413333" lon="12.6544667"><ele>130.2</ele><time>2026-03-27T16:14:37.982Z</time></trkpt><trkpt lat="46.0413617" lon="12.654605"><ele>130.0</ele><time>2026-03-27T16:14:38.982Z</time></trkpt><trkpt lat="46.04139" lon="12.6547433"><ele>130.0</ele><time>2026-03-27T16:14:39.983Z</time></trkpt><trkpt lat="46.0414233" lon="12.6548817"><ele>130.0</ele><time>2026-03-27T16:14:40.982Z</time></trkpt><trkpt lat="46.0414517" lon="12.6550133"><ele>130.0</ele><time>2026-03-27T16:14:41.982Z</time></trkpt><trkpt lat="46.0414767" lon="12.655135"><ele>130.0</ele><time>2026-03-27T16:14:42.982Z</time></trkpt><trkpt lat="46.041495" lon="12.6552333"><ele>130.0</ele><time>2026-03-27T16:14:43.983Z</time></trkpt><trkpt lat="46.0415" lon="12.6553367"><ele>130.0</ele><time>2026-03-27T16:14:45.984Z</time></trkpt><trkpt lat="46.0414996" lon="12.6554297"><ele>130.0</ele><time>2026-03-27T16:14:48.982Z</time></trkpt><trkpt lat="46.0415543" lon="12.6554907"><ele>130.0</ele><time>2026-03-27T16:14:50.983Z</time></trkpt><trkpt lat="46.0415767" lon="12.6555867"><ele>130.0</ele><time>2026-03-27T16:14:52.983Z</time></trkpt><trkpt lat="46.041575" lon="12.655695"><ele>130.0</ele><time>2026-03-27T16:14:54.983Z</time></trkpt><trkpt lat="46.0415883" lon="12.655825"><ele>130.0</ele><time>2026-03-27T16:14:56.983Z</time></trkpt><trkpt lat="46.0416017" lon="12.6559483"><ele>130.0</ele><time>2026-03-27T16:14:58.983Z</time></trkpt><trkpt lat="46.0415933" lon="12.6560633"><ele>130.0</ele><time>2026-03-27T16:15:00.982Z</time></trkpt><trkpt lat="46.0415317" lon="12.6562283"><ele>130.0</ele><time>2026-03-27T16:15:02.984Z</time></trkpt><trkpt lat="46.0414767" lon="12.656305"><ele>130.0</ele><time>2026-03-27T16:15:03.982Z</time></trkpt><trkpt lat="46.0414" lon="12.656355"><ele>130.0</ele><time>2026-03-27T16:15:04.982Z</time></trkpt><trkpt lat="46.0413033" lon="12.6563683"><ele>130.0</ele><time>2026-03-27T16:15:05.981Z</time></trkpt><trkpt lat="46.0411917" lon="12.65633"><ele>130.0</ele><time>2026-03-27T16:15:06.982Z</time></trkpt><trkpt lat="46.041075" lon="12.6562583"><ele>130.0</ele><time>2026-03-27T16:15:07.985Z</time></trkpt><trkpt lat="46.0409633" lon="12.6562033"><ele>130.0</ele><time>2026-03-27T16:15:08.983Z</time></trkpt><trkpt lat="46.0408483" lon="12.65613"><ele>130.0</ele><time>2026-03-27T16:15:09.982Z</time></trkpt><trkpt lat="46.0407267" lon="12.65607"><ele>130.25</ele><time>2026-03-27T16:15:10.982Z</time></trkpt><trkpt lat="46.0405967" lon="12.65602"><ele>130.5</ele><time>2026-03-27T16:15:11.982Z</time></trkpt><trkpt lat="46.0404617" lon="12.655985"><ele>130.75</ele><time>2026-03-27T16:15:12.983Z</time></trkpt><trkpt lat="46.04032" lon="12.6559483"><ele>131.0</ele><time>2026-03-27T16:15:13.982Z</time></trkpt><trkpt lat="46.040175" lon="12.6559033"><ele>131.0</ele><time>2026-03-27T16:15:14.982Z</time></trkpt><trkpt lat="46.0400267" lon="12.655855"><ele>131.0</ele><time>2026-03-27T16:15:15.983Z</time></trkpt><trkpt lat="46.0398733" lon="12.6558033"><ele>131.0</ele><time>2026-03-27T16:15:16.982Z</time></trkpt><trkpt lat="46.039715" lon="12.655755"><ele>130.33333333333331</ele><time>2026-03-27T16:15:17.986Z</time></trkpt><trkpt lat="46.0395517" lon="12.65571"><ele>129.66666666666666</ele><time>2026-03-27T16:15:18.982Z</time></trkpt><trkpt lat="46.039385" lon="12.655665"><ele>129.0</ele><time>2026-03-27T16:15:19.982Z</time></trkpt><trkpt lat="46.0392167" lon="12.6556083"><ele>128.66666666666666</ele><time>2026-03-27T16:15:20.983Z</time></trkpt><trkpt lat="46.0390467" lon="12.655555"><ele>128.33333333333331</ele><time>2026-03-27T16:15:21.982Z</time></trkpt><trkpt lat="46.0388717" lon="12.655495"><ele>128.0</ele><time>2026-03-27T16:15:22.982Z</time></trkpt><trkpt lat="46.038695" lon="12.6554333"><ele>128.0</ele><time>2026-03-27T16:15:23.983Z</time></trkpt><trkpt lat="46.0385167" lon="12.655365"><ele>128.0</ele><time>2026-03-27T16:15:24.982Z</time></trkpt><trkpt lat="46.038335" lon="12.6552933"><ele>128.0</ele><time>2026-03-27T16:15:25.982Z</time></trkpt><trkpt lat="46.03815" lon="12.65522"><ele>127.66666666666666</ele><time>2026-03-27T16:15:26.983Z</time></trkpt><trkpt lat="46.037965" lon="12.65516"><ele>127.33333333333334</ele><time>2026-03-27T16:15:27.984Z</time></trkpt><trkpt lat="46.0377783" lon="12.6551"><ele>127.0</ele><time>2026-03-27T16:15:28.983Z</time></trkpt><trkpt lat="46.0375933" lon="12.6550433"><ele>127.0</ele><time>2026-03-27T16:15:29.984Z</time></trkpt><trkpt lat="46.0374083" lon="12.654985"><ele>127.0</ele><time>2026-03-27T16:15:30.983Z</time></trkpt><trkpt lat="46.037225" lon="12.6549217"><ele>127.0</ele><time>2026-03-27T16:15:31.983Z</time></trkpt><trkpt lat="46.0370367" lon="12.654865"><ele>127.0</ele><time>2026-03-27T16:15:32.983Z</time></trkpt><trkpt lat="46.03685" lon="12.6547983"><ele>127.0</ele><time>2026-03-27T16:15:33.982Z</time></trkpt><trkpt lat="46.0366617" lon="12.6547333"><ele>127.0</ele><time>2026-03-27T16:15:34.982Z</time></trkpt><trkpt lat="46.0364733" lon="12.6546533"><ele>127.0</ele><time>2026-03-27T16:15:35.984Z</time></trkpt><trkpt lat="46.0362817" lon="12.6545817"><ele>127.0</ele><time>2026-03-27T16:15:36.982Z</time></trkpt><trkpt lat="46.0360933" lon="12.6545083"><ele>127.0</ele><time>2026-03-27T16:15:37.984Z</time></trkpt><trkpt lat="46.0359033" lon="12.65444"><ele>126.33333333333334</ele><time>2026-03-27T16:15:38.983Z</time></trkpt><trkpt lat="46.03572" lon="12.6543717"><ele>125.66666666666666</ele><time>2026-03-27T16:15:39.984Z</time></trkpt><trkpt lat="46.0355383" lon="12.6543017"><ele>125.0</ele><time>2026-03-27T16:15:40.982Z</time></trkpt><trkpt lat="46.035355" lon="12.6542233"><ele>125.0</ele><time>2026-03-27T16:15:41.983Z</time></trkpt><trkpt lat="46.03517" lon="12.6541517"><ele>125.0</ele><time>2026-03-27T16:15:42.984Z</time></trkpt><trkpt lat="46.0349867" lon="12.654075"><ele>125.0</ele><time>2026-03-27T16:15:43.982Z</time></trkpt><trkpt lat="46.034805" lon="12.654"><ele>124.33333333333333</ele><time>2026-03-27T16:15:44.982Z</time></trkpt><trkpt lat="46.0346233" lon="12.653925"><ele>123.66666666666666</ele><time>2026-03-27T16:15:45.983Z</time></trkpt><trkpt lat="46.0344433" lon="12.6538483"><ele>123.0</ele><time>2026-03-27T16:15:46.982Z</time></trkpt><trkpt lat="46.0342617" lon="12.6537717"><ele>123.33333333333334</ele><time>2026-03-27T16:15:47.982Z</time></trkpt><trkpt lat="46.0340817" lon="12.6536933"><ele>123.66666666666667</ele><time>2026-03-27T16:15:48.983Z</time></trkpt><trkpt lat="46.0339017" lon="12.6536183"><ele>124.0</ele><time>2026-03-27T16:15:49.984Z</time></trkpt><trkpt lat="46.0337233" lon="12.653545"><ele>123.0</ele><time>2026-03-27T16:15:50.984Z</time></trkpt><trkpt lat="46.033545" lon="12.6534733"><ele>122.0</ele><time>2026-03-27T16:15:51.982Z</time></trkpt><trkpt lat="46.033365" lon="12.653405"><ele>121.0</ele><time>2026-03-27T16:15:52.982Z</time></trkpt><trkpt lat="46.0331867" lon="12.6533367"><ele>121.0</ele><time>2026-03-27T16:15:53.983Z</time></trkpt><trkpt lat="46.0330067" lon="12.6532633"><ele>121.0</ele><time>2026-03-27T16:15:54.983Z</time></trkpt><trkpt lat="46.0328283" lon="12.6531867"><ele>121.0</ele><time>2026-03-27T16:15:55.983Z</time></trkpt><trkpt lat="46.0326483" lon="12.65311"><ele>120.66666666666667</ele><time>2026-03-27T16:15:56.982Z</time></trkpt><trkpt lat="46.032465" lon="12.6530433"><ele>120.33333333333334</ele><time>2026-03-27T16:15:57.983Z</time></trkpt><trkpt lat="46.0322833" lon="12.65297"><ele>120.0</ele><time>2026-03-27T16:15:58.984Z</time></trkpt><trkpt lat="46.032105" lon="12.65291"><ele>120.0</ele><time>2026-03-27T16:15:59.982Z</time></trkpt><trkpt lat="46.0319233" lon="12.65287"><ele>120.0</ele><time>2026-03-27T16:16:00.982Z</time></trkpt><trkpt lat="46.03174" lon="12.6528483"><ele>120.0</ele><time>2026-03-27T16:16:01.982Z</time></trkpt><trkpt lat="46.0315533" lon="12.6528267"><ele>119.66666666666666</ele><time>2026-03-27T16:16:02.983Z</time></trkpt><trkpt lat="46.0313667" lon="12.652815"><ele>119.33333333333333</ele><time>2026-03-27T16:16:03.983Z</time></trkpt><trkpt lat="46.0311783" lon="12.6527983"><ele>119.0</ele><time>2026-03-27T16:16:04.982Z</time></trkpt><trkpt lat="46.03099" lon="12.6527783"><ele>118.66666666666666</ele><time>2026-03-27T16:16:05.983Z</time></trkpt><trkpt lat="46.0308017" lon="12.6527617"><ele>118.33333333333334</ele><time>2026-03-27T16:16:06.982Z</time></trkpt><trkpt lat="46.03061" lon="12.65274"><ele>118.0</ele><time>2026-03-27T16:16:07.983Z</time></trkpt><trkpt lat="46.0304217" lon="12.6527217"><ele>118.0</ele><time>2026-03-27T16:16:08.983Z</time></trkpt><trkpt lat="46.0302367" lon="12.6527067"><ele>118.0</ele><time>2026-03-27T16:16:09.984Z</time></trkpt><trkpt lat="46.0300533" lon="12.6526883"><ele>118.0</ele><time>2026-03-27T16:16:10.982Z</time></trkpt><trkpt lat="46.02987" lon="12.6526767"><ele>117.33333333333334</ele><time>2026-03-27T16:16:11.982Z</time></trkpt><trkpt lat="46.0296883" lon="12.6526767"><ele>116.66666666666666</ele><time>2026-03-27T16:16:12.983Z</time></trkpt><trkpt lat="46.0295067" lon="12.6526983"><ele>116.0</ele><time>2026-03-27T16:16:13.982Z</time></trkpt><trkpt lat="46.0293233" lon="12.65272"><ele>116.0</ele><time>2026-03-27T16:16:14.983Z</time></trkpt><trkpt lat="46.0291367" lon="12.652745"><ele>116.0</ele><time>2026-03-27T16:16:15.983Z</time></trkpt><trkpt lat="46.0289517" lon="12.6527733"><ele>116.0</ele><time>2026-03-27T16:16:16.982Z</time></trkpt><trkpt lat="46.028765" lon="12.65279"><ele>115.66666666666666</ele><time>2026-03-27T16:16:17.983Z</time></trkpt><trkpt lat="46.0285783" lon="12.6528033"><ele>115.33333333333334</ele><time>2026-03-27T16:16:18.983Z</time></trkpt><trkpt lat="46.0283917" lon="12.6528233"><ele>115.0</ele><time>2026-03-27T16:16:19.982Z</time></trkpt><trkpt lat="46.028205" lon="12.6528517"><ele>114.66666666666667</ele><time>2026-03-27T16:16:20.986Z</time></trkpt><trkpt lat="46.02802" lon="12.65288"><ele>114.33333333333334</ele><time>2026-03-27T16:16:21.984Z</time></trkpt><trkpt lat="46.02784" lon="12.6529"><ele>114.0</ele><time>2026-03-27T16:16:22.982Z</time></trkpt><trkpt lat="46.02766" lon="12.6529167"><ele>114.0</ele><time>2026-03-27T16:16:23.982Z</time></trkpt><trkpt lat="46.0274783" lon="12.65293"><ele>114.0</ele><time>2026-03-27T16:16:24.982Z</time></trkpt><trkpt lat="46.0272967" lon="12.652935"><ele>114.0</ele><time>2026-03-27T16:16:25.982Z</time></trkpt><trkpt lat="46.0271133" lon="12.6529367"><ele>114.33333333333334</ele><time>2026-03-27T16:16:26.983Z</time></trkpt><trkpt lat="46.0269283" lon="12.6529417"><ele>114.66666666666667</ele><time>2026-03-27T16:16:27.983Z</time></trkpt><trkpt lat="46.02674" lon="12.6529517"><ele>115.0</ele><time>2026-03-27T16:16:28.982Z</time></trkpt><trkpt lat="46.0265517" lon="12.6529533"><ele>114.0</ele><time>2026-03-27T16:16:29.985Z</time></trkpt><trkpt lat="46.0263633" lon="12.6529617"><ele>113.0</ele><time>2026-03-27T16:16:30.982Z</time></trkpt><trkpt lat="46.0261783" lon="12.6529633"><ele>112.0</ele><time>2026-03-27T16:16:31.982Z</time></trkpt><trkpt lat="46.0259983" lon="12.65297"><ele>112.0</ele><time>2026-03-27T16:16:32.984Z</time></trkpt><trkpt lat="46.0258167" lon="12.6529783"><ele>112.0</ele><time>2026-03-27T16:16:33.982Z</time></trkpt><trkpt lat="46.0256333" lon="12.6529733"><ele>112.0</ele><time>2026-03-27T16:16:34.983Z</time></trkpt><trkpt lat="46.02545" lon="12.6529667"><ele>111.66666666666667</ele><time>2026-03-27T16:16:35.985Z</time></trkpt><trkpt lat="46.0252633" lon="12.6529617"><ele>111.33333333333334</ele><time>2026-03-27T16:16:36.984Z</time></trkpt><trkpt lat="46.0250767" lon="12.6529533"><ele>111.0</ele><time>2026-03-27T16:16:37.982Z</time></trkpt><trkpt lat="46.0248983" lon="12.65294"><ele>110.33333333333334</ele><time>2026-03-27T16:16:38.983Z</time></trkpt><trkpt lat="46.0247217" lon="12.6529283"><ele>109.66666666666667</ele><time>2026-03-27T16:16:39.983Z</time></trkpt><trkpt lat="46.024545" lon="12.6529167"><ele>109.0</ele><time>2026-03-27T16:16:40.982Z</time></trkpt><trkpt lat="46.0243667" lon="12.652905"><ele>109.0</ele><time>2026-03-27T16:16:41.983Z</time></trkpt><trkpt lat="46.02419" lon="12.65289"><ele>109.0</ele><time>2026-03-27T16:16:42.982Z</time></trkpt><trkpt lat="46.024015" lon="12.6528733"><ele>109.0</ele><time>2026-03-27T16:16:43.982Z</time></trkpt><trkpt lat="46.0238433" lon="12.652865"><ele>109.33333333333334</ele><time>2026-03-27T16:16:44.983Z</time></trkpt><trkpt lat="46.0236717" lon="12.6528567"><ele>109.66666666666666</ele><time>2026-03-27T16:16:45.983Z</time></trkpt><trkpt lat="46.0235017" lon="12.6528517"><ele>110.0</ele><time>2026-03-27T16:16:46.982Z</time></trkpt><trkpt lat="46.0233333" lon="12.6528467"><ele>109.33333333333333</ele><time>2026-03-27T16:16:47.981Z</time></trkpt><trkpt lat="46.0231717" lon="12.6528333"><ele>108.66666666666666</ele><time>2026-03-27T16:16:48.982Z</time></trkpt><trkpt lat="46.0230117" lon="12.652825"><ele>108.0</ele><time>2026-03-27T16:16:49.982Z</time></trkpt><trkpt lat="46.02285" lon="12.6528217"><ele>108.0</ele><time>2026-03-27T16:16:50.982Z</time></trkpt><trkpt lat="46.0226917" lon="12.6528133"><ele>108.0</ele><time>2026-03-27T16:16:51.982Z</time></trkpt><trkpt lat="46.0225383" lon="12.6527933"><ele>108.0</ele><time>2026-03-27T16:16:52.982Z</time></trkpt><trkpt lat="46.0223867" lon="12.652765"><ele>107.5</ele><time>2026-03-27T16:16:53.982Z</time></trkpt><trkpt lat="46.0222367" lon="12.6527367"><ele>107.0</ele><time>2026-03-27T16:16:54.983Z</time></trkpt><trkpt lat="46.0220933" lon="12.65271"><ele>106.5</ele><time>2026-03-27T16:16:55.983Z</time></trkpt><trkpt lat="46.0219617" lon="12.6526717"><ele>106.0</ele><time>2026-03-27T16:16:56.984Z</time></trkpt><trkpt lat="46.0218383" lon="12.6526217"><ele>106.0</ele><time>2026-03-27T16:16:57.982Z</time></trkpt><trkpt lat="46.0217233" lon="12.6525667"><ele>106.0</ele><time>2026-03-27T16:16:58.982Z</time></trkpt><trkpt lat="46.0216167" lon="12.6525083"><ele>106.0</ele><time>2026-03-27T16:16:59.982Z</time></trkpt><trkpt lat="46.0215167" lon="12.6524533"><ele>106.0</ele><time>2026-03-27T16:17:00.982Z</time></trkpt><trkpt lat="46.02143" lon="12.6524067"><ele>106.0</ele><time>2026-03-27T16:17:01.982Z</time></trkpt><trkpt lat="46.0213567" lon="12.6523617"><ele>105.83333333333334</ele><time>2026-03-27T16:17:02.983Z</time></trkpt><trkpt lat="46.0213" lon="12.652305"><ele>105.66666666666667</ele><time>2026-03-27T16:17:03.982Z</time></trkpt><trkpt lat="46.0212583" lon="12.6522333"><ele>105.5</ele><time>2026-03-27T16:17:04.983Z</time></trkpt><trkpt lat="46.021215" lon="12.6520633"><ele>105.33333333333334</ele><time>2026-03-27T16:17:06.982Z</time></trkpt><trkpt lat="46.0211883" lon="12.6519633"><ele>105.16666666666667</ele><time>2026-03-27T16:17:07.983Z</time></trkpt><trkpt lat="46.021155" lon="12.6518617"><ele>105.0</ele><time>2026-03-27T16:17:08.983Z</time></trkpt><trkpt lat="46.0211067" lon="12.6517683"><ele>104.8</ele><time>2026-03-27T16:17:09.982Z</time></trkpt><trkpt lat="46.0210317" lon="12.65169"><ele>104.6</ele><time>2026-03-27T16:17:10.983Z</time></trkpt><trkpt lat="46.02094" lon="12.6516383"><ele>104.4</ele><time>2026-03-27T16:17:11.983Z</time></trkpt><trkpt lat="46.0208417" lon="12.6516117"><ele>104.2</ele><time>2026-03-27T16:17:12.984Z</time></trkpt><trkpt lat="46.0207417" lon="12.6516067"><ele>104.0</ele><time>2026-03-27T16:17:13.982Z</time></trkpt><trkpt lat="46.020655" lon="12.6515567"><ele>103.75</ele><time>2026-03-27T16:17:14.982Z</time></trkpt><trkpt lat="46.0205883" lon="12.65145"><ele>103.5</ele><time>2026-03-27T16:17:15.982Z</time></trkpt><trkpt lat="46.0205383" lon="12.6513133"><ele>103.25</ele><time>2026-03-27T16:17:16.983Z</time></trkpt><trkpt lat="46.0204883" lon="12.651155"><ele>103.0</ele><time>2026-03-27T16:17:17.982Z</time></trkpt><trkpt lat="46.02043" lon="12.6509833"><ele>102.66666666666667</ele><time>2026-03-27T16:17:18.982Z</time></trkpt><trkpt lat="46.0203617" lon="12.6508067"><ele>102.33333333333334</ele><time>2026-03-27T16:17:19.982Z</time></trkpt><trkpt lat="46.020285" lon="12.65061"><ele>102.0</ele><time>2026-03-27T16:17:20.982Z</time></trkpt><trkpt lat="46.0202067" lon="12.6503767"><ele>101.66666666666666</ele><time>2026-03-27T16:17:21.982Z</time></trkpt><trkpt lat="46.020135" lon="12.6501217"><ele>101.33333333333333</ele><time>2026-03-27T16:17:22.984Z</time></trkpt><trkpt lat="46.020065" lon="12.649855"><ele>101.0</ele><time>2026-03-27T16:17:23.983Z</time></trkpt><trkpt lat="46.0199983" lon="12.6495683"><ele>101.33333333333333</ele><time>2026-03-27T16:17:24.983Z</time></trkpt><trkpt lat="46.0199217" lon="12.6492817"><ele>101.66666666666666</ele><time>2026-03-27T16:17:25.981Z</time></trkpt><trkpt lat="46.0198433" lon="12.6489917"><ele>102.0</ele><time>2026-03-27T16:17:26.984Z</time></trkpt><trkpt lat="46.0197567" lon="12.6486967"><ele>102.0</ele><time>2026-03-27T16:17:27.983Z</time></trkpt><trkpt lat="46.0196467" lon="12.648395"><ele>102.0</ele><time>2026-03-27T16:17:28.982Z</time></trkpt><trkpt lat="46.01956" lon="12.64808"><ele>102.0</ele><time>2026-03-27T16:17:29.982Z</time></trkpt><trkpt lat="46.0194833" lon="12.64775"><ele>102.0</ele><time>2026-03-27T16:17:30.982Z</time></trkpt><trkpt lat="46.019395" lon="12.6474217"><ele>102.0</ele><time>2026-03-27T16:17:31.982Z</time></trkpt><trkpt lat="46.01931" lon="12.647085"><ele>102.0</ele><time>2026-03-27T16:17:32.982Z</time></trkpt><trkpt lat="46.0192233" lon="12.6467467"><ele>101.5</ele><time>2026-03-27T16:17:33.983Z</time></trkpt><trkpt lat="46.019135" lon="12.646405"><ele>101.0</ele><time>2026-03-27T16:17:34.984Z</time></trkpt><trkpt lat="46.0190433" lon="12.6460617"><ele>102.5</ele><time>2026-03-27T16:17:35.982Z</time></trkpt><trkpt lat="46.0189517" lon="12.64572"><ele>104.0</ele><time>2026-03-27T16:17:36.983Z</time></trkpt><trkpt lat="46.01886" lon="12.6453767"><ele>103.5</ele><time>2026-03-27T16:17:37.983Z</time></trkpt><trkpt lat="46.018765" lon="12.6450317"><ele>103.0</ele><time>2026-03-27T16:17:38.983Z</time></trkpt><trkpt lat="46.0186667" lon="12.64469"><ele>102.5</ele><time>2026-03-27T16:17:39.982Z</time></trkpt><trkpt lat="46.018565" lon="12.6443467"><ele>102.0</ele><time>2026-03-27T16:17:40.982Z</time></trkpt><trkpt lat="46.0184583" lon="12.644005"><ele>102.0</ele><time>2026-03-27T16:17:41.982Z</time></trkpt><trkpt lat="46.0183483" lon="12.643665"><ele>102.0</ele><time>2026-03-27T16:17:42.982Z</time></trkpt><trkpt lat="46.018235" lon="12.6433233"><ele>101.5</ele><time>2026-03-27T16:17:43.982Z</time></trkpt><trkpt lat="46.0181217" lon="12.6429783"><ele>101.0</ele><time>2026-03-27T16:17:44.983Z</time></trkpt><trkpt lat="46.018005" lon="12.6426317"><ele>101.0</ele><time>2026-03-27T16:17:45.982Z</time></trkpt><trkpt lat="46.0178867" lon="12.642285"><ele>101.0</ele><time>2026-03-27T16:17:46.983Z</time></trkpt><trkpt lat="46.017765" lon="12.6419333"><ele>101.0</ele><time>2026-03-27T16:17:47.983Z</time></trkpt><trkpt lat="46.017645" lon="12.64158"><ele>101.0</ele><time>2026-03-27T16:17:48.985Z</time></trkpt><trkpt lat="46.0175267" lon="12.6412317"><ele>101.0</ele><time>2026-03-27T16:17:49.982Z</time></trkpt><trkpt lat="46.0174117" lon="12.6408867"><ele>101.0</ele><time>2026-03-27T16:17:50.984Z</time></trkpt><trkpt lat="46.0172967" lon="12.6405483"><ele>101.0</ele><time>2026-03-27T16:17:51.982Z</time></trkpt><trkpt lat="46.0171833" lon="12.64021"><ele>101.0</ele><time>2026-03-27T16:17:52.983Z</time></trkpt><trkpt lat="46.017065" lon="12.6398733"><ele>101.0</ele><time>2026-03-27T16:17:53.983Z</time></trkpt><trkpt lat="46.0169483" lon="12.6395367"><ele>101.0</ele><time>2026-03-27T16:17:54.982Z</time></trkpt><trkpt lat="46.0168317" lon="12.6392017"><ele>101.0</ele><time>2026-03-27T16:17:55.983Z</time></trkpt><trkpt lat="46.0167167" lon="12.6388667"><ele>101.0</ele><time>2026-03-27T16:17:56.983Z</time></trkpt><trkpt lat="46.0166017" lon="12.6385333"><ele>100.0</ele><time>2026-03-27T16:17:57.982Z</time></trkpt><trkpt lat="46.016485" lon="12.6381983"><ele>99.0</ele><time>2026-03-27T16:17:58.983Z</time></trkpt><trkpt lat="46.0163667" lon="12.63786"><ele>99.5</ele><time>2026-03-27T16:17:59.983Z</time></trkpt><trkpt lat="46.01625" lon="12.6375233"><ele>100.0</ele><time>2026-03-27T16:18:00.983Z</time></trkpt><trkpt lat="46.016135" lon="12.637185"><ele>99.5</ele><time>2026-03-27T16:18:01.982Z</time></trkpt><trkpt lat="46.0160183" lon="12.6368467"><ele>99.0</ele><time>2026-03-27T16:18:02.984Z</time></trkpt><trkpt lat="46.0159" lon="12.6365067"><ele>98.5</ele><time>2026-03-27T16:18:03.983Z</time></trkpt><trkpt lat="46.0157817" lon="12.6361667"><ele>98.0</ele><time>2026-03-27T16:18:04.982Z</time></trkpt><trkpt lat="46.0156683" lon="12.6358283"><ele>98.0</ele><time>2026-03-27T16:18:05.982Z</time></trkpt><trkpt lat="46.0155517" lon="12.6354917"><ele>98.0</ele><time>2026-03-27T16:18:06.983Z</time></trkpt><trkpt lat="46.0154333" lon="12.6351583"><ele>98.0</ele><time>2026-03-27T16:18:07.983Z</time></trkpt><trkpt lat="46.0153117" lon="12.6348217"><ele>98.0</ele><time>2026-03-27T16:18:08.983Z</time></trkpt><trkpt lat="46.0151933" lon="12.6344833"><ele>98.5</ele><time>2026-03-27T16:18:09.982Z</time></trkpt><trkpt lat="46.0150783" lon="12.6341433"><ele>99.0</ele><time>2026-03-27T16:18:10.982Z</time></trkpt><trkpt lat="46.0149633" lon="12.6338033"><ele>97.0</ele><time>2026-03-27T16:18:11.984Z</time></trkpt><trkpt lat="46.01485" lon="12.6334633"><ele>95.0</ele><time>2026-03-27T16:18:12.984Z</time></trkpt><trkpt lat="46.0147317" lon="12.6331183"><ele>96.0</ele><time>2026-03-27T16:18:13.983Z</time></trkpt><trkpt lat="46.0146217" lon="12.63277"><ele>97.0</ele><time>2026-03-27T16:18:14.983Z</time></trkpt><trkpt lat="46.0145183" lon="12.6324217"><ele>97.0</ele><time>2026-03-27T16:18:15.985Z</time></trkpt><trkpt lat="46.0144183" lon="12.63207"><ele>97.0</ele><time>2026-03-27T16:18:16.982Z</time></trkpt><trkpt lat="46.01432" lon="12.6317167"><ele>98.0</ele><time>2026-03-27T16:18:17.982Z</time></trkpt><trkpt lat="46.01422" lon="12.6313617"><ele>99.0</ele><time>2026-03-27T16:18:18.982Z</time></trkpt><trkpt lat="46.0141167" lon="12.631005"><ele>98.5</ele><time>2026-03-27T16:18:19.983Z</time></trkpt><trkpt lat="46.0140117" lon="12.630645"><ele>98.0</ele><time>2026-03-27T16:18:20.982Z</time></trkpt><trkpt lat="46.0139062" lon="12.6302844"><ele>98.0</ele><time>2026-03-27T16:18:21.983Z</time></trkpt><trkpt lat="46.0138047" lon="12.6299325"><ele>98.0</ele><time>2026-03-27T16:18:22.982Z</time></trkpt><trkpt lat="46.013712" lon="12.6296063"><ele>99.0</ele><time>2026-03-27T16:18:23.982Z</time></trkpt><trkpt lat="46.0136264" lon="12.6293028"><ele>100.0</ele><time>2026-03-27T16:18:24.982Z</time></trkpt><trkpt lat="46.0135435" lon="12.629017"><ele>101.0</ele><time>2026-03-27T16:18:25.982Z</time></trkpt><trkpt lat="46.0134595" lon="12.6287354"><ele>100.66666666666666</ele><time>2026-03-27T16:18:26.983Z</time></trkpt><trkpt lat="46.0133743" lon="12.6284561"><ele>100.33333333333334</ele><time>2026-03-27T16:18:27.982Z</time></trkpt><trkpt lat="46.0132938" lon="12.6281666"><ele>100.0</ele><time>2026-03-27T16:18:28.983Z</time></trkpt><trkpt lat="46.0132277" lon="12.6278733"><ele>99.33333333333334</ele><time>2026-03-27T16:18:29.982Z</time></trkpt><trkpt lat="46.0131857" lon="12.6275866"><ele>98.66666666666666</ele><time>2026-03-27T16:18:30.983Z</time></trkpt><trkpt lat="46.0131682" lon="12.6273138"><ele>98.0</ele><time>2026-03-27T16:18:31.982Z</time></trkpt><trkpt lat="46.0131691" lon="12.6270548"><ele>98.33333333333333</ele><time>2026-03-27T16:18:32.985Z</time></trkpt><trkpt lat="46.0131761" lon="12.6268093"><ele>98.66666666666666</ele><time>2026-03-27T16:18:33.982Z</time></trkpt><trkpt lat="46.0131853" lon="12.6265763"><ele>99.0</ele><time>2026-03-27T16:18:34.982Z</time></trkpt><trkpt lat="46.0131936" lon="12.6263562"><ele>99.0</ele><time>2026-03-27T16:18:35.983Z</time></trkpt><trkpt lat="46.0131996" lon="12.6261468"><ele>99.0</ele><time>2026-03-27T16:18:36.982Z</time></trkpt><trkpt lat="46.0132041" lon="12.6259415"><ele>99.0</ele><time>2026-03-27T16:18:37.984Z</time></trkpt><trkpt lat="46.0132102" lon="12.6257386"><ele>99.0</ele><time>2026-03-27T16:18:38.983Z</time></trkpt><trkpt lat="46.0132174" lon="12.6255404"><ele>99.0</ele><time>2026-03-27T16:18:39.982Z</time></trkpt><trkpt lat="46.0132276" lon="12.6253454"><ele>99.0</ele><time>2026-03-27T16:18:40.983Z</time></trkpt><trkpt lat="46.013236" lon="12.6251578"><ele>99.0</ele><time>2026-03-27T16:18:41.982Z</time></trkpt><trkpt lat="46.0132419" lon="12.6249855"><ele>99.0</ele><time>2026-03-27T16:18:42.982Z</time></trkpt><trkpt lat="46.013248" lon="12.6248276"><ele>99.0</ele><time>2026-03-27T16:18:43.984Z</time></trkpt><trkpt lat="46.0132523" lon="12.624681"><ele>99.0</ele><time>2026-03-27T16:18:44.982Z</time></trkpt><trkpt lat="46.0132559" lon="12.6245489"><ele>99.0</ele><time>2026-03-27T16:18:45.983Z</time></trkpt><trkpt lat="46.0132569" lon="12.624431"><ele>99.0</ele><time>2026-03-27T16:18:46.985Z</time></trkpt><trkpt lat="46.0132579" lon="12.6243246"><ele>99.0</ele><time>2026-03-27T16:18:47.985Z</time></trkpt><trkpt lat="46.01326" lon="12.6242303"><ele>99.0</ele><time>2026-03-27T16:18:48.982Z</time></trkpt><trkpt lat="46.0132644" lon="12.6240599"><ele>99.0</ele><time>2026-03-27T16:18:50.983Z</time></trkpt><trkpt lat="46.0132864" lon="12.6239033"><ele>99.0</ele><time>2026-03-27T16:18:52.983Z</time></trkpt><trkpt lat="46.013306" lon="12.6237441"><ele>99.0</ele><time>2026-03-27T16:18:54.982Z</time></trkpt><trkpt lat="46.0133338" lon="12.6235966"><ele>99.0</ele><time>2026-03-27T16:18:56.982Z</time></trkpt><trkpt lat="46.0133931" lon="12.6234356"><ele>99.2</ele><time>2026-03-27T16:18:58.982Z</time></trkpt><trkpt lat="46.0134173" lon="12.6233518"><ele>99.4</ele><time>2026-03-27T16:18:59.983Z</time></trkpt><trkpt lat="46.0133484" lon="12.6232295"><ele>99.6</ele><time>2026-03-27T16:19:01.984Z</time></trkpt><trkpt lat="46.0132779" lon="12.6232257"><ele>99.8</ele><time>2026-03-27T16:19:02.985Z</time></trkpt><trkpt lat="46.0131907" lon="12.6232751"><ele>100.0</ele><time>2026-03-27T16:19:03.982Z</time></trkpt><trkpt lat="46.0130869" lon="12.6233544"><ele>99.25</ele><time>2026-03-27T16:19:04.982Z</time></trkpt><trkpt lat="46.01296" lon="12.6234233"><ele>98.5</ele><time>2026-03-27T16:19:05.982Z</time></trkpt><trkpt lat="46.012828" lon="12.623476"><ele>97.75</ele><time>2026-03-27T16:19:06.983Z</time></trkpt><trkpt lat="46.012698" lon="12.623524"><ele>97.0</ele><time>2026-03-27T16:19:07.982Z</time></trkpt><trkpt lat="46.0125749" lon="12.6235661"><ele>97.0</ele><time>2026-03-27T16:19:08.982Z</time></trkpt><trkpt lat="46.0124613" lon="12.623601"><ele>97.0</ele><time>2026-03-27T16:19:09.985Z</time></trkpt><trkpt lat="46.0123492" lon="12.6236345"><ele>97.0</ele><time>2026-03-27T16:19:10.982Z</time></trkpt><trkpt lat="46.0122397" lon="12.6236755"><ele>97.0</ele><time>2026-03-27T16:19:11.982Z</time></trkpt><trkpt lat="46.0121357" lon="12.6237213"><ele>97.19999999999999</ele><time>2026-03-27T16:19:12.983Z</time></trkpt><trkpt lat="46.0120347" lon="12.6237553"><ele>97.4</ele><time>2026-03-27T16:19:13.984Z</time></trkpt><trkpt lat="46.0119323" lon="12.6237895"><ele>97.6</ele><time>2026-03-27T16:19:14.983Z</time></trkpt><trkpt lat="46.011826" lon="12.6238233"><ele>97.80000000000001</ele><time>2026-03-27T16:19:15.985Z</time></trkpt><trkpt lat="46.0117103" lon="12.6238685"><ele>98.0</ele><time>2026-03-27T16:19:16.982Z</time></trkpt><trkpt lat="46.0115865" lon="12.6239234"><ele>97.25</ele><time>2026-03-27T16:19:17.983Z</time></trkpt><trkpt lat="46.0114563" lon="12.6239736"><ele>96.5</ele><time>2026-03-27T16:19:18.982Z</time></trkpt><trkpt lat="46.0113189" lon="12.6240234"><ele>95.75</ele><time>2026-03-27T16:19:19.982Z</time></trkpt><trkpt lat="46.0111824" lon="12.6240698"><ele>95.0</ele><time>2026-03-27T16:19:20.983Z</time></trkpt><trkpt lat="46.011046" lon="12.6241212"><ele>95.0</ele><time>2026-03-27T16:19:21.982Z</time></trkpt><trkpt lat="46.0109019" lon="12.6241696"><ele>95.0</ele><time>2026-03-27T16:19:22.982Z</time></trkpt><trkpt lat="46.0107504" lon="12.6242212"><ele>95.0</ele><time>2026-03-27T16:19:23.982Z</time></trkpt><trkpt lat="46.0105946" lon="12.6242854"><ele>95.33333333333334</ele><time>2026-03-27T16:19:24.982Z</time></trkpt><trkpt lat="46.0104372" lon="12.6243498"><ele>95.66666666666667</ele><time>2026-03-27T16:19:25.983Z</time></trkpt><trkpt lat="46.0102758" lon="12.6244125"><ele>96.0</ele><time>2026-03-27T16:19:26.983Z</time></trkpt><trkpt lat="46.0101081" lon="12.6244768"><ele>95.33333333333333</ele><time>2026-03-27T16:19:27.983Z</time></trkpt><trkpt lat="46.0099371" lon="12.6245483"><ele>94.66666666666666</ele><time>2026-03-27T16:19:28.982Z</time></trkpt><trkpt lat="46.0097666" lon="12.6246177"><ele>94.0</ele><time>2026-03-27T16:19:29.981Z</time></trkpt><trkpt lat="46.0095936" lon="12.6246779"><ele>94.0</ele><time>2026-03-27T16:19:30.983Z</time></trkpt><trkpt lat="46.0094176" lon="12.624736"><ele>94.0</ele><time>2026-03-27T16:19:31.982Z</time></trkpt><trkpt lat="46.0092405" lon="12.6248025"><ele>94.0</ele><time>2026-03-27T16:19:32.983Z</time></trkpt><trkpt lat="46.0090621" lon="12.6248664"><ele>94.0</ele><time>2026-03-27T16:19:33.982Z</time></trkpt><trkpt lat="46.0088782" lon="12.6249292"><ele>94.0</ele><time>2026-03-27T16:19:34.984Z</time></trkpt><trkpt lat="46.008693" lon="12.6250003"><ele>94.0</ele><time>2026-03-27T16:19:35.982Z</time></trkpt><trkpt lat="46.0085021" lon="12.6250695"><ele>93.66666666666666</ele><time>2026-03-27T16:19:36.982Z</time></trkpt><trkpt lat="46.0083115" lon="12.6251346"><ele>93.33333333333333</ele><time>2026-03-27T16:19:37.986Z</time></trkpt><trkpt lat="46.0081284" lon="12.6251931"><ele>93.0</ele><time>2026-03-27T16:19:38.984Z</time></trkpt><trkpt lat="46.007953" lon="12.6252498"><ele>93.0</ele><time>2026-03-27T16:19:39.983Z</time></trkpt><trkpt lat="46.007784" lon="12.6253082"><ele>93.0</ele><time>2026-03-27T16:19:40.982Z</time></trkpt><trkpt lat="46.0076163" lon="12.6253631"><ele>93.0</ele><time>2026-03-27T16:19:41.984Z</time></trkpt><trkpt lat="46.0074514" lon="12.6254205"><ele>93.0</ele><time>2026-03-27T16:19:42.985Z</time></trkpt><trkpt lat="46.0072879" lon="12.625481"><ele>93.0</ele><time>2026-03-27T16:19:43.982Z</time></trkpt><trkpt lat="46.0071206" lon="12.6255429"><ele>93.0</ele><time>2026-03-27T16:19:44.982Z</time></trkpt><trkpt lat="46.0069549" lon="12.6256088"><ele>93.0</ele><time>2026-03-27T16:19:45.983Z</time></trkpt><trkpt lat="46.0067927" lon="12.6256727"><ele>93.0</ele><time>2026-03-27T16:19:46.983Z</time></trkpt><trkpt lat="46.006637" lon="12.6257299"><ele>93.0</ele><time>2026-03-27T16:19:47.983Z</time></trkpt><trkpt lat="46.0064827" lon="12.6257835"><ele>92.0</ele><time>2026-03-27T16:19:48.982Z</time></trkpt><trkpt lat="46.0063268" lon="12.6258384"><ele>91.0</ele><time>2026-03-27T16:19:49.982Z</time></trkpt><trkpt lat="46.0061719" lon="12.6258922"><ele>90.0</ele><time>2026-03-27T16:19:50.983Z</time></trkpt><trkpt lat="46.0060216" lon="12.6259464"><ele>90.0</ele><time>2026-03-27T16:19:51.982Z</time></trkpt><trkpt lat="46.0058746" lon="12.6259971"><ele>90.0</ele><time>2026-03-27T16:19:52.984Z</time></trkpt><trkpt lat="46.0057238" lon="12.6260495"><ele>90.0</ele><time>2026-03-27T16:19:53.983Z</time></trkpt><trkpt lat="46.0055694" lon="12.6261044"><ele>89.0</ele><time>2026-03-27T16:19:54.982Z</time></trkpt><trkpt lat="46.005414" lon="12.6261594"><ele>88.0</ele><time>2026-03-27T16:19:55.982Z</time></trkpt><trkpt lat="46.0052557" lon="12.6262182"><ele>87.0</ele><time>2026-03-27T16:19:56.983Z</time></trkpt><trkpt lat="46.0050971" lon="12.6262795"><ele>87.0</ele><time>2026-03-27T16:19:57.983Z</time></trkpt><trkpt lat="46.0049415" lon="12.6263402"><ele>87.0</ele><time>2026-03-27T16:19:58.982Z</time></trkpt><trkpt lat="46.0047878" lon="12.6264018"><ele>87.0</ele><time>2026-03-27T16:19:59.984Z</time></trkpt><trkpt lat="46.0046369" lon="12.6264609"><ele>87.0</ele><time>2026-03-27T16:20:00.984Z</time></trkpt><trkpt lat="46.0044889" lon="12.6265228"><ele>87.0</ele><time>2026-03-27T16:20:01.982Z</time></trkpt><trkpt lat="46.0043473" lon="12.6265767"><ele>87.0</ele><time>2026-03-27T16:20:02.983Z</time></trkpt><trkpt lat="46.00421" lon="12.6266257"><ele>87.0</ele><time>2026-03-27T16:20:03.982Z</time></trkpt><trkpt lat="46.0040737" lon="12.626675"><ele>87.0</ele><time>2026-03-27T16:20:04.982Z</time></trkpt><trkpt lat="46.0039433" lon="12.6267149"><ele>87.0</ele><time>2026-03-27T16:20:05.982Z</time></trkpt><trkpt lat="46.0038227" lon="12.6267553"><ele>87.0</ele><time>2026-03-27T16:20:06.984Z</time></trkpt><trkpt lat="46.0037058" lon="12.626787"><ele>87.0</ele><time>2026-03-27T16:20:07.983Z</time></trkpt><trkpt lat="46.0035922" lon="12.6268144"><ele>87.0</ele><time>2026-03-27T16:20:08.983Z</time></trkpt><trkpt lat="46.0034854" lon="12.6268351"><ele>87.0</ele><time>2026-03-27T16:20:09.982Z</time></trkpt><trkpt lat="46.0033906" lon="12.6268427"><ele>87.0</ele><time>2026-03-27T16:20:10.983Z</time></trkpt><trkpt lat="46.003309" lon="12.6268477"><ele>87.0</ele><time>2026-03-27T16:20:11.982Z</time></trkpt><trkpt lat="46.0032388" lon="12.6268502"><ele>87.0</ele><time>2026-03-27T16:20:12.983Z</time></trkpt><trkpt lat="46.0031697" lon="12.6268323"><ele>87.0</ele><time>2026-03-27T16:20:13.984Z</time></trkpt><trkpt lat="46.0031021" lon="12.6267713"><ele>86.6</ele><time>2026-03-27T16:20:14.984Z</time></trkpt><trkpt lat="46.0030308" lon="12.6267155"><ele>86.19999999999999</ele><time>2026-03-27T16:20:15.982Z</time></trkpt><trkpt lat="46.0029536" lon="12.6266915"><ele>85.8</ele><time>2026-03-27T16:20:16.983Z</time></trkpt><trkpt lat="46.0028639" lon="12.6266768"><ele>85.4</ele><time>2026-03-27T16:20:17.982Z</time></trkpt><trkpt lat="46.0027683" lon="12.6266377"><ele>85.0</ele><time>2026-03-27T16:20:18.983Z</time></trkpt><trkpt lat="46.0026694" lon="12.6265509"><ele>85.0</ele><time>2026-03-27T16:20:19.982Z</time></trkpt><trkpt lat="46.0025663" lon="12.6264402"><ele>85.0</ele><time>2026-03-27T16:20:20.982Z</time></trkpt><trkpt lat="46.0024483" lon="12.6263491"><ele>85.0</ele><time>2026-03-27T16:20:21.983Z</time></trkpt><trkpt lat="46.0023108" lon="12.6262922"><ele>85.0</ele><time>2026-03-27T16:20:22.982Z</time></trkpt><trkpt lat="46.0021589" lon="12.6262535"><ele>84.0</ele><time>2026-03-27T16:20:23.982Z</time></trkpt><trkpt lat="46.001998" lon="12.6262334"><ele>83.0</ele><time>2026-03-27T16:20:24.983Z</time></trkpt><trkpt lat="46.001837" lon="12.6262068"><ele>82.0</ele><time>2026-03-27T16:20:25.982Z</time></trkpt><trkpt lat="46.0016745" lon="12.6261768"><ele>82.0</ele><time>2026-03-27T16:20:26.982Z</time></trkpt><trkpt lat="46.0015093" lon="12.626147"><ele>82.0</ele><time>2026-03-27T16:20:27.982Z</time></trkpt><trkpt lat="46.0013396" lon="12.6261171"><ele>82.0</ele><time>2026-03-27T16:20:28.982Z</time></trkpt><trkpt lat="46.0011677" lon="12.6260864"><ele>82.0</ele><time>2026-03-27T16:20:29.983Z</time></trkpt><trkpt lat="46.0009929" lon="12.626052"><ele>82.0</ele><time>2026-03-27T16:20:30.983Z</time></trkpt><trkpt lat="46.0008163" lon="12.6260192"><ele>82.0</ele><time>2026-03-27T16:20:31.983Z</time></trkpt><trkpt lat="46.0006391" lon="12.6259862"><ele>81.66666666666666</ele><time>2026-03-27T16:20:32.982Z</time></trkpt><trkpt lat="46.0004633" lon="12.6259576"><ele>81.33333333333333</ele><time>2026-03-27T16:20:33.982Z</time></trkpt><trkpt lat="46.000295" lon="12.6259339"><ele>81.0</ele><time>2026-03-27T16:20:34.982Z</time></trkpt><trkpt lat="46.0001442" lon="12.6259105"><ele>81.0</ele><time>2026-03-27T16:20:35.982Z</time></trkpt><trkpt lat="46.0000037" lon="12.6258874"><ele>81.0</ele><time>2026-03-27T16:20:36.982Z</time></trkpt><trkpt lat="45.9998674" lon="12.6258692"><ele>81.0</ele><time>2026-03-27T16:20:37.983Z</time></trkpt><trkpt lat="45.9997316" lon="12.6258469"><ele>81.0</ele><time>2026-03-27T16:20:38.982Z</time></trkpt><trkpt lat="45.9995914" lon="12.6258221"><ele>81.0</ele><time>2026-03-27T16:20:39.982Z</time></trkpt><trkpt lat="45.9994484" lon="12.6257941"><ele>81.0</ele><time>2026-03-27T16:20:40.982Z</time></trkpt><trkpt lat="45.9993049" lon="12.625768"><ele>81.0</ele><time>2026-03-27T16:20:41.982Z</time></trkpt><trkpt lat="45.9991602" lon="12.6257419"><ele>81.0</ele><time>2026-03-27T16:20:42.982Z</time></trkpt><trkpt lat="45.9990112" lon="12.6257172"><ele>80.33333333333333</ele><time>2026-03-27T16:20:43.982Z</time></trkpt><trkpt lat="45.998858" lon="12.6257047"><ele>79.66666666666666</ele><time>2026-03-27T16:20:44.984Z</time></trkpt><trkpt lat="45.9987027" lon="12.6256946"><ele>79.0</ele><time>2026-03-27T16:20:45.982Z</time></trkpt><trkpt lat="45.9985432" lon="12.6256816"><ele>79.0</ele><time>2026-03-27T16:20:46.982Z</time></trkpt><trkpt lat="45.9983839" lon="12.6256635"><ele>79.0</ele><time>2026-03-27T16:20:47.982Z</time></trkpt><trkpt lat="45.9982225" lon="12.6256423"><ele>79.0</ele><time>2026-03-27T16:20:48.982Z</time></trkpt><trkpt lat="45.998059" lon="12.6256218"><ele>79.0</ele><time>2026-03-27T16:20:49.983Z</time></trkpt><trkpt lat="45.9978938" lon="12.6255979"><ele>79.0</ele><time>2026-03-27T16:20:50.983Z</time></trkpt><trkpt lat="45.9977258" lon="12.6255844"><ele>79.0</ele><time>2026-03-27T16:20:51.983Z</time></trkpt><trkpt lat="45.9975557" lon="12.6255749"><ele>77.25</ele><time>2026-03-27T16:20:52.983Z</time></trkpt><trkpt lat="45.9973911" lon="12.6255638"><ele>75.5</ele><time>2026-03-27T16:20:53.983Z</time></trkpt><trkpt lat="45.9972461" lon="12.6255458"><ele>73.75</ele><time>2026-03-27T16:20:54.983Z</time></trkpt><trkpt lat="45.9971371" lon="12.6255352"><ele>72.0</ele><time>2026-03-27T16:20:55.982Z</time></trkpt><trkpt lat="45.9970657" lon="12.6255298"><ele>72.0</ele><time>2026-03-27T16:20:56.983Z</time></trkpt><trkpt lat="45.9969383" lon="12.625515"><ele>72.0</ele><time>2026-03-27T16:21:29.982Z</time></trkpt><trkpt lat="45.9968433" lon="12.6255083"><ele>72.0</ele><time>2026-03-27T16:21:30.983Z</time></trkpt><trkpt lat="45.9967433" lon="12.6254983"><ele>72.0</ele><time>2026-03-27T16:21:31.983Z</time></trkpt><trkpt lat="45.996635" lon="12.6254833"><ele>72.0</ele><time>2026-03-27T16:21:32.984Z</time></trkpt><trkpt lat="45.9965233" lon="12.6254733"><ele>72.0</ele><time>2026-03-27T16:21:33.983Z</time></trkpt><trkpt lat="45.9964033" lon="12.6254633"><ele>72.0</ele><time>2026-03-27T16:21:34.982Z</time></trkpt><trkpt lat="45.9963182" lon="12.6254564"><ele>72.0</ele><time>2026-03-27T16:21:35.983Z</time></trkpt><trkpt lat="45.9961586" lon="12.6254443"><ele>72.0</ele><time>2026-03-27T16:21:36.984Z</time></trkpt><trkpt lat="45.9960115" lon="12.6254325"><ele>72.0</ele><time>2026-03-27T16:21:37.981Z</time></trkpt><trkpt lat="45.9958637" lon="12.6254151"><ele>72.0</ele><time>2026-03-27T16:21:38.982Z</time></trkpt><trkpt lat="45.9957125" lon="12.6254033"><ele>72.0</ele><time>2026-03-27T16:21:39.984Z</time></trkpt><trkpt lat="45.9955611" lon="12.6253875"><ele>73.0</ele><time>2026-03-27T16:21:40.984Z</time></trkpt><trkpt lat="45.9954067" lon="12.6253756"><ele>74.0</ele><time>2026-03-27T16:21:41.983Z</time></trkpt><trkpt lat="45.995248" lon="12.6253677"><ele>75.0</ele><time>2026-03-27T16:21:42.982Z</time></trkpt><trkpt lat="45.9950861" lon="12.6253586"><ele>74.66666666666667</ele><time>2026-03-27T16:21:43.982Z</time></trkpt><trkpt lat="45.9949239" lon="12.6253493"><ele>74.33333333333334</ele><time>2026-03-27T16:21:44.983Z</time></trkpt><trkpt lat="45.9947625" lon="12.6253438"><ele>74.0</ele><time>2026-03-27T16:21:45.983Z</time></trkpt><trkpt lat="45.9946007" lon="12.6253373"><ele>74.0</ele><time>2026-03-27T16:21:46.983Z</time></trkpt><trkpt lat="45.9944385" lon="12.6253263"><ele>74.0</ele><time>2026-03-27T16:21:47.982Z</time></trkpt><trkpt lat="45.9942737" lon="12.6253103"><ele>74.0</ele><time>2026-03-27T16:21:48.983Z</time></trkpt><trkpt lat="45.9941058" lon="12.625296"><ele>73.66666666666667</ele><time>2026-03-27T16:21:49.982Z</time></trkpt><trkpt lat="45.9939358" lon="12.6252834"><ele>73.33333333333333</ele><time>2026-03-27T16:21:50.982Z</time></trkpt><trkpt lat="45.9937636" lon="12.6252738"><ele>73.0</ele><time>2026-03-27T16:21:51.982Z</time></trkpt><trkpt lat="45.9935874" lon="12.6252683"><ele>73.0</ele><time>2026-03-27T16:21:52.982Z</time></trkpt><trkpt lat="45.9934114" lon="12.6252563"><ele>73.0</ele><time>2026-03-27T16:21:53.982Z</time></trkpt><trkpt lat="45.9932364" lon="12.62524"><ele>73.0</ele><time>2026-03-27T16:21:54.982Z</time></trkpt><trkpt lat="45.99306" lon="12.6252209"><ele>73.33333333333333</ele><time>2026-03-27T16:21:55.982Z</time></trkpt><trkpt lat="45.9928818" lon="12.6252033"><ele>73.66666666666667</ele><time>2026-03-27T16:21:56.983Z</time></trkpt><trkpt lat="45.9927021" lon="12.6251863"><ele>74.0</ele><time>2026-03-27T16:21:57.982Z</time></trkpt><trkpt lat="45.9925216" lon="12.6251601"><ele>73.66666666666667</ele><time>2026-03-27T16:21:58.982Z</time></trkpt><trkpt lat="45.9923399" lon="12.6251311"><ele>73.33333333333333</ele><time>2026-03-27T16:21:59.982Z</time></trkpt><trkpt lat="45.9921581" lon="12.6251023"><ele>73.0</ele><time>2026-03-27T16:22:00.982Z</time></trkpt><trkpt lat="45.9919792" lon="12.625067"><ele>73.0</ele><time>2026-03-27T16:22:01.983Z</time></trkpt><trkpt lat="45.9917995" lon="12.6250304"><ele>73.0</ele><time>2026-03-27T16:22:02.983Z</time></trkpt><trkpt lat="45.9916198" lon="12.6249892"><ele>73.0</ele><time>2026-03-27T16:22:03.982Z</time></trkpt><trkpt lat="45.9914398" lon="12.6249408"><ele>72.66666666666666</ele><time>2026-03-27T16:22:04.982Z</time></trkpt><trkpt lat="45.9912599" lon="12.6248975"><ele>72.33333333333333</ele><time>2026-03-27T16:22:05.983Z</time></trkpt><trkpt lat="45.9910801" lon="12.6248496"><ele>72.0</ele><time>2026-03-27T16:22:06.983Z</time></trkpt><trkpt lat="45.9909039" lon="12.6247931"><ele>71.25</ele><time>2026-03-27T16:22:07.982Z</time></trkpt><trkpt lat="45.9907416" lon="12.6247385"><ele>70.5</ele><time>2026-03-27T16:22:08.982Z</time></trkpt><trkpt lat="45.9906014" lon="12.6246877"><ele>69.75</ele><time>2026-03-27T16:22:09.982Z</time></trkpt><trkpt lat="45.9904762" lon="12.6246493"><ele>69.0</ele><time>2026-03-27T16:22:10.982Z</time></trkpt><trkpt lat="45.9903696" lon="12.624614"><ele>69.0</ele><time>2026-03-27T16:22:11.984Z</time></trkpt><trkpt lat="45.9902862" lon="12.6245793"><ele>69.0</ele><time>2026-03-27T16:22:12.982Z</time></trkpt><trkpt lat="45.990226" lon="12.6245376"><ele>69.0</ele><time>2026-03-27T16:22:13.982Z</time></trkpt><trkpt lat="45.9901409" lon="12.6244717"><ele>69.0</ele><time>2026-03-27T16:22:15.983Z</time></trkpt><trkpt lat="45.9900047" lon="12.6244821"><ele>69.0</ele><time>2026-03-27T16:22:17.984Z</time></trkpt><trkpt lat="45.9898974" lon="12.6244483"><ele>68.25</ele><time>2026-03-27T16:22:18.982Z</time></trkpt><trkpt lat="45.9897753" lon="12.6244056"><ele>67.5</ele><time>2026-03-27T16:22:19.983Z</time></trkpt><trkpt lat="45.9896408" lon="12.6243606"><ele>66.75</ele><time>2026-03-27T16:22:20.984Z</time></trkpt><trkpt lat="45.9894955" lon="12.6243171"><ele>66.0</ele><time>2026-03-27T16:22:21.984Z</time></trkpt><trkpt lat="45.9893418" lon="12.6242785"><ele>66.0</ele><time>2026-03-27T16:22:22.984Z</time></trkpt><trkpt lat="45.9891826" lon="12.6242407"><ele>66.0</ele><time>2026-03-27T16:22:23.982Z</time></trkpt><trkpt lat="45.9890188" lon="12.6241974"><ele>66.0</ele><time>2026-03-27T16:22:24.982Z</time></trkpt><trkpt lat="45.9888568" lon="12.6241436"><ele>66.0</ele><time>2026-03-27T16:22:25.981Z</time></trkpt><trkpt lat="45.9886905" lon="12.6240947"><ele>66.0</ele><time>2026-03-27T16:22:26.982Z</time></trkpt><trkpt lat="45.988527" lon="12.6240412"><ele>66.0</ele><time>2026-03-27T16:22:27.982Z</time></trkpt><trkpt lat="45.9883593" lon="12.6239889"><ele>66.33333333333333</ele><time>2026-03-27T16:22:28.983Z</time></trkpt><trkpt lat="45.9881866" lon="12.6239304"><ele>66.66666666666666</ele><time>2026-03-27T16:22:29.982Z</time></trkpt><trkpt lat="45.98801" lon="12.6238676"><ele>67.0</ele><time>2026-03-27T16:22:30.982Z</time></trkpt><trkpt lat="45.98783" lon="12.6238063"><ele>67.0</ele><time>2026-03-27T16:22:31.984Z</time></trkpt><trkpt lat="45.9876495" lon="12.6237469"><ele>67.0</ele><time>2026-03-27T16:22:32.982Z</time></trkpt><trkpt lat="45.9874663" lon="12.6236856"><ele>67.0</ele><time>2026-03-27T16:22:33.982Z</time></trkpt><trkpt lat="45.9872837" lon="12.6236263"><ele>67.0</ele><time>2026-03-27T16:22:34.982Z</time></trkpt><trkpt lat="45.9870975" lon="12.623565"><ele>67.0</ele><time>2026-03-27T16:22:35.982Z</time></trkpt><trkpt lat="45.9869103" lon="12.623502"><ele>67.0</ele><time>2026-03-27T16:22:36.982Z</time></trkpt><trkpt lat="45.9867232" lon="12.6234375"><ele>66.0</ele><time>2026-03-27T16:22:37.982Z</time></trkpt><trkpt lat="45.9865308" lon="12.6233707"><ele>65.0</ele><time>2026-03-27T16:22:38.984Z</time></trkpt><trkpt lat="45.9863359" lon="12.6233026"><ele>64.0</ele><time>2026-03-27T16:22:39.982Z</time></trkpt><trkpt lat="45.9861405" lon="12.6232374"><ele>64.0</ele><time>2026-03-27T16:22:40.982Z</time></trkpt><trkpt lat="45.9859511" lon="12.6231711"><ele>64.0</ele><time>2026-03-27T16:22:41.982Z</time></trkpt><trkpt lat="45.9857725" lon="12.6231073"><ele>64.0</ele><time>2026-03-27T16:22:42.983Z</time></trkpt><trkpt lat="45.9856052" lon="12.6230442"><ele>63.0</ele><time>2026-03-27T16:22:43.982Z</time></trkpt><trkpt lat="45.9854582" lon="12.6229831"><ele>62.00000000000001</ele><time>2026-03-27T16:22:44.985Z</time></trkpt><trkpt lat="45.9853404" lon="12.6229376"><ele>61.00000000000001</ele><time>2026-03-27T16:22:45.985Z</time></trkpt><trkpt lat="45.9852483" lon="12.6229155"><ele>60.0</ele><time>2026-03-27T16:22:46.982Z</time></trkpt><trkpt lat="45.9851742" lon="12.6229011"><ele>59.0</ele><time>2026-03-27T16:22:47.982Z</time></trkpt><trkpt lat="45.9850864" lon="12.6228941"><ele>58.800000000000004</ele><time>2026-03-27T16:22:49.982Z</time></trkpt><trkpt lat="45.9850794" lon="12.622712"><ele>58.60000000000001</ele><time>2026-03-27T16:22:52.982Z</time></trkpt><trkpt lat="45.9850981" lon="12.6226031"><ele>58.4</ele><time>2026-03-27T16:22:53.983Z</time></trkpt><trkpt lat="45.9850883" lon="12.6225002"><ele>58.2</ele><time>2026-03-27T16:22:54.982Z</time></trkpt><trkpt lat="45.9850478" lon="12.6223901"><ele>58.0</ele><time>2026-03-27T16:22:55.983Z</time></trkpt><trkpt lat="45.9849793" lon="12.6222736"><ele>58.75</ele><time>2026-03-27T16:22:56.983Z</time></trkpt><trkpt lat="45.9848804" lon="12.6221647"><ele>59.5</ele><time>2026-03-27T16:22:57.982Z</time></trkpt><trkpt lat="45.9847565" lon="12.6220649"><ele>60.25</ele><time>2026-03-27T16:22:58.983Z</time></trkpt><trkpt lat="45.9846164" lon="12.621977"><ele>61.0</ele><time>2026-03-27T16:22:59.984Z</time></trkpt><trkpt lat="45.9844735" lon="12.6219028"><ele>61.0</ele><time>2026-03-27T16:23:00.983Z</time></trkpt><trkpt lat="45.9843358" lon="12.6218405"><ele>61.0</ele><time>2026-03-27T16:23:01.982Z</time></trkpt><trkpt lat="45.9842012" lon="12.621785"><ele>61.0</ele><time>2026-03-27T16:23:02.982Z</time></trkpt><trkpt lat="45.9840731" lon="12.6217339"><ele>61.0</ele><time>2026-03-27T16:23:03.982Z</time></trkpt><trkpt lat="45.9839519" lon="12.6216872"><ele>60.75</ele><time>2026-03-27T16:23:04.984Z</time></trkpt><trkpt lat="45.9838311" lon="12.6216411"><ele>60.5</ele><time>2026-03-27T16:23:05.984Z</time></trkpt><trkpt lat="45.9837142" lon="12.6215988"><ele>60.25</ele><time>2026-03-27T16:23:06.982Z</time></trkpt><trkpt lat="45.9836025" lon="12.6215551"><ele>60.0</ele><time>2026-03-27T16:23:07.983Z</time></trkpt><trkpt lat="45.9834982" lon="12.6215049"><ele>60.0</ele><time>2026-03-27T16:23:08.983Z</time></trkpt><trkpt lat="45.9833981" lon="12.6214552"><ele>60.0</ele><time>2026-03-27T16:23:09.982Z</time></trkpt><trkpt lat="45.9833033" lon="12.6214107"><ele>60.0</ele><time>2026-03-27T16:23:10.982Z</time></trkpt><trkpt lat="45.9832064" lon="12.6213672"><ele>60.0</ele><time>2026-03-27T16:23:11.982Z</time></trkpt><trkpt lat="45.9831001" lon="12.6213249"><ele>60.0</ele><time>2026-03-27T16:23:12.983Z</time></trkpt><trkpt lat="45.9829887" lon="12.6212735"><ele>60.0</ele><time>2026-03-27T16:23:13.982Z</time></trkpt><trkpt lat="45.9828734" lon="12.6212105"><ele>60.0</ele><time>2026-03-27T16:23:14.984Z</time></trkpt><trkpt lat="45.9827545" lon="12.6211422"><ele>60.0</ele><time>2026-03-27T16:23:15.982Z</time></trkpt><trkpt lat="45.9826357" lon="12.6210816"><ele>60.0</ele><time>2026-03-27T16:23:16.983Z</time></trkpt><trkpt lat="45.9825203" lon="12.6210348"><ele>59.0</ele><time>2026-03-27T16:23:17.983Z</time></trkpt><trkpt lat="45.9824066" lon="12.6209947"><ele>58.0</ele><time>2026-03-27T16:23:18.982Z</time></trkpt><trkpt lat="45.9822918" lon="12.6209625"><ele>57.0</ele><time>2026-03-27T16:23:19.982Z</time></trkpt><trkpt lat="45.9821823" lon="12.6209296"><ele>56.0</ele><time>2026-03-27T16:23:20.984Z</time></trkpt><trkpt lat="45.9820771" lon="12.6208906"><ele>56.0</ele><time>2026-03-27T16:23:21.985Z</time></trkpt><trkpt lat="45.9819739" lon="12.6208389"><ele>56.0</ele><time>2026-03-27T16:23:22.983Z</time></trkpt><trkpt lat="45.9818694" lon="12.6207733"><ele>56.0</ele><time>2026-03-27T16:23:23.983Z</time></trkpt><trkpt lat="45.9817616" lon="12.6207013"><ele>56.0</ele><time>2026-03-27T16:23:24.983Z</time></trkpt><trkpt lat="45.981653" lon="12.6206236"><ele>56.25</ele><time>2026-03-27T16:23:25.983Z</time></trkpt><trkpt lat="45.981546" lon="12.6205448"><ele>56.5</ele><time>2026-03-27T16:23:26.985Z</time></trkpt><trkpt lat="45.9814413" lon="12.6204683"><ele>56.75</ele><time>2026-03-27T16:23:27.984Z</time></trkpt><trkpt lat="45.9813366" lon="12.6203937"><ele>57.0</ele><time>2026-03-27T16:23:28.984Z</time></trkpt><trkpt lat="45.9812329" lon="12.6203187"><ele>56.75</ele><time>2026-03-27T16:23:29.983Z</time></trkpt><trkpt lat="45.9811253" lon="12.6202401"><ele>56.5</ele><time>2026-03-27T16:23:30.984Z</time></trkpt><trkpt lat="45.9810118" lon="12.6201711"><ele>56.25</ele><time>2026-03-27T16:23:31.984Z</time></trkpt><trkpt lat="45.9808948" lon="12.6201019"><ele>56.0</ele><time>2026-03-27T16:23:32.983Z</time></trkpt><trkpt lat="45.9807816" lon="12.6200256"><ele>56.0</ele><time>2026-03-27T16:23:33.983Z</time></trkpt><trkpt lat="45.9806682" lon="12.6199515"><ele>56.0</ele><time>2026-03-27T16:23:34.984Z</time></trkpt><trkpt lat="45.9805559" lon="12.6198752"><ele>56.0</ele><time>2026-03-27T16:23:35.985Z</time></trkpt><trkpt lat="45.9804441" lon="12.619793"><ele>56.0</ele><time>2026-03-27T16:23:36.983Z</time></trkpt><trkpt lat="45.9803319" lon="12.6197051"><ele>56.0</ele><time>2026-03-27T16:23:37.983Z</time></trkpt><trkpt lat="45.9802164" lon="12.6196308"><ele>56.0</ele><time>2026-03-27T16:23:38.983Z</time></trkpt><trkpt lat="45.9801009" lon="12.6195567"><ele>56.0</ele><time>2026-03-27T16:23:39.983Z</time></trkpt><trkpt lat="45.9799842" lon="12.6194783"><ele>56.0</ele><time>2026-03-27T16:23:40.984Z</time></trkpt><trkpt lat="45.9798683" lon="12.6193907"><ele>55.75</ele><time>2026-03-27T16:23:41.983Z</time></trkpt><trkpt lat="45.9797503" lon="12.6193044"><ele>55.5</ele><time>2026-03-27T16:23:42.983Z</time></trkpt><trkpt lat="45.9796304" lon="12.6192231"><ele>55.25</ele><time>2026-03-27T16:23:43.982Z</time></trkpt><trkpt lat="45.9795061" lon="12.6191421"><ele>55.0</ele><time>2026-03-27T16:23:44.983Z</time></trkpt><trkpt lat="45.9793808" lon="12.6190607"><ele>55.0</ele><time>2026-03-27T16:23:45.983Z</time></trkpt><trkpt lat="45.9792565" lon="12.61898"><ele>55.0</ele><time>2026-03-27T16:23:46.984Z</time></trkpt><trkpt lat="45.9791302" lon="12.618897"><ele>55.0</ele><time>2026-03-27T16:23:47.984Z</time></trkpt><trkpt lat="45.9790035" lon="12.6188109"><ele>55.0</ele><time>2026-03-27T16:23:48.984Z</time></trkpt><trkpt lat="45.9788776" lon="12.6187219"><ele>55.25</ele><time>2026-03-27T16:23:49.983Z</time></trkpt><trkpt lat="45.9787496" lon="12.6186331"><ele>55.5</ele><time>2026-03-27T16:23:50.983Z</time></trkpt><trkpt lat="45.9786227" lon="12.6185454"><ele>55.75</ele><time>2026-03-27T16:23:51.984Z</time></trkpt><trkpt lat="45.9784965" lon="12.6184614"><ele>56.0</ele><time>2026-03-27T16:23:52.983Z</time></trkpt><trkpt lat="45.9783713" lon="12.6183806"><ele>55.5</ele><time>2026-03-27T16:23:53.984Z</time></trkpt><trkpt lat="45.9782469" lon="12.6182978"><ele>55.0</ele><time>2026-03-27T16:23:54.984Z</time></trkpt><trkpt lat="45.9781265" lon="12.6182206"><ele>54.5</ele><time>2026-03-27T16:23:55.983Z</time></trkpt><trkpt lat="45.9780126" lon="12.6181516"><ele>54.0</ele><time>2026-03-27T16:23:56.983Z</time></trkpt><trkpt lat="45.9779073" lon="12.6180856"><ele>54.0</ele><time>2026-03-27T16:23:57.982Z</time></trkpt><trkpt lat="45.9778093" lon="12.6180247"><ele>54.00000000000001</ele><time>2026-03-27T16:23:58.983Z</time></trkpt><trkpt lat="45.9777262" lon="12.6179536"><ele>54.00000000000001</ele><time>2026-03-27T16:23:59.983Z</time></trkpt><trkpt lat="45.9776646" lon="12.6178601"><ele>54.0</ele><time>2026-03-27T16:24:00.983Z</time></trkpt><trkpt lat="45.9776304" lon="12.6177329"><ele>54.0</ele><time>2026-03-27T16:24:01.984Z</time></trkpt><trkpt lat="45.9776025" lon="12.6175907"><ele>53.5</ele><time>2026-03-27T16:24:02.985Z</time></trkpt><trkpt lat="45.9775338" lon="12.6174876"><ele>53.0</ele><time>2026-03-27T16:24:03.983Z</time></trkpt><trkpt lat="45.9774232" lon="12.6174233"><ele>52.5</ele><time>2026-03-27T16:24:04.983Z</time></trkpt><trkpt lat="45.9772995" lon="12.6173676"><ele>52.0</ele><time>2026-03-27T16:24:05.983Z</time></trkpt><trkpt lat="45.9771713" lon="12.6173072"><ele>51.25</ele><time>2026-03-27T16:24:06.983Z</time></trkpt><trkpt lat="45.9770393" lon="12.6172445"><ele>50.5</ele><time>2026-03-27T16:24:07.983Z</time></trkpt><trkpt lat="45.9769115" lon="12.6171721"><ele>49.75</ele><time>2026-03-27T16:24:08.984Z</time></trkpt><trkpt lat="45.976795" lon="12.6171102"><ele>49.0</ele><time>2026-03-27T16:24:09.982Z</time></trkpt><trkpt lat="45.9766891" lon="12.6170431"><ele>49.2</ele><time>2026-03-27T16:24:10.985Z</time></trkpt><trkpt lat="45.9765898" lon="12.6169857"><ele>49.400000000000006</ele><time>2026-03-27T16:24:11.982Z</time></trkpt><trkpt lat="45.9765011" lon="12.6169242"><ele>49.6</ele><time>2026-03-27T16:24:12.984Z</time></trkpt><trkpt lat="45.9764244" lon="12.6168581"><ele>49.8</ele><time>2026-03-27T16:24:13.986Z</time></trkpt><trkpt lat="45.9763623" lon="12.616798"><ele>50.0</ele><time>2026-03-27T16:24:14.984Z</time></trkpt><trkpt lat="45.9762899" lon="12.6167019"><ele>50.0</ele><time>2026-03-27T16:24:16.983Z</time></trkpt><trkpt lat="45.9762913" lon="12.6165954"><ele>50.0</ele><time>2026-03-27T16:24:18.982Z</time></trkpt><trkpt lat="45.9763228" lon="12.6164029"><ele>50.0</ele><time>2026-03-27T16:24:20.984Z</time></trkpt><trkpt lat="45.9763555" lon="12.6162774"><ele>50.0</ele><time>2026-03-27T16:24:21.983Z</time></trkpt><trkpt lat="45.976388" lon="12.6161344"><ele>50.0</ele><time>2026-03-27T16:24:22.983Z</time></trkpt><trkpt lat="45.9764173" lon="12.6159904"><ele>50.00000000000001</ele><time>2026-03-27T16:24:23.983Z</time></trkpt><trkpt lat="45.9764462" lon="12.6158654"><ele>50.0</ele><time>2026-03-27T16:24:24.983Z</time></trkpt><trkpt lat="45.9764741" lon="12.61576"><ele>50.0</ele><time>2026-03-27T16:24:25.983Z</time></trkpt><trkpt lat="45.9764968" lon="12.6156641"><ele>50.0</ele><time>2026-03-27T16:24:26.983Z</time></trkpt><trkpt lat="45.976516" lon="12.6155772"><ele>50.00000000000001</ele><time>2026-03-27T16:24:27.983Z</time></trkpt><trkpt lat="45.9765424" lon="12.6154458"><ele>50.0</ele><time>2026-03-27T16:24:29.983Z</time></trkpt><trkpt lat="45.976564" lon="12.6153406"><ele>50.00000000000001</ele><time>2026-03-27T16:24:32.984Z</time></trkpt><trkpt lat="45.9765883" lon="12.615235"><ele>50.0</ele><time>2026-03-27T16:25:08.983Z</time></trkpt><trkpt lat="45.9766033" lon="12.615125"><ele>50.0</ele><time>2026-03-27T16:25:09.983Z</time></trkpt><trkpt lat="45.9765983" lon="12.615015"><ele>50.0</ele><time>2026-03-27T16:25:10.984Z</time></trkpt><trkpt lat="45.9765667" lon="12.6149233"><ele>50.00000000000001</ele><time>2026-03-27T16:25:11.984Z</time></trkpt><trkpt lat="45.97651" lon="12.614845"><ele>50.0</ele><time>2026-03-27T16:25:12.983Z</time></trkpt><trkpt lat="45.9763983" lon="12.6148133"><ele>50.0</ele><time>2026-03-27T16:25:13.984Z</time></trkpt><trkpt lat="45.976275" lon="12.6148083"><ele>50.0</ele><time>2026-03-27T16:25:14.984Z</time></trkpt><trkpt lat="45.97615" lon="12.6147817"><ele>50.0</ele><time>2026-03-27T16:25:15.983Z</time></trkpt><trkpt lat="45.9760217" lon="12.61474"><ele>50.0</ele><time>2026-03-27T16:25:16.984Z</time></trkpt><trkpt lat="45.9758933" lon="12.6146967"><ele>49.75</ele><time>2026-03-27T16:25:17.984Z</time></trkpt><trkpt lat="45.9757633" lon="12.614655"><ele>49.5</ele><time>2026-03-27T16:25:18.985Z</time></trkpt><trkpt lat="45.9756267" lon="12.6146183"><ele>49.25</ele><time>2026-03-27T16:25:19.983Z</time></trkpt><trkpt lat="45.9754867" lon="12.61458"><ele>49.0</ele><time>2026-03-27T16:25:20.983Z</time></trkpt><trkpt lat="45.975345" lon="12.6145333"><ele>49.0</ele><time>2026-03-27T16:25:21.984Z</time></trkpt><trkpt lat="45.9752017" lon="12.6144917"><ele>49.0</ele><time>2026-03-27T16:25:22.983Z</time></trkpt><trkpt lat="45.9750633" lon="12.6144467"><ele>49.0</ele><time>2026-03-27T16:25:23.983Z</time></trkpt><trkpt lat="45.9749217" lon="12.6144183"><ele>49.0</ele><time>2026-03-27T16:25:24.983Z</time></trkpt><trkpt lat="45.9747867" lon="12.6143833"><ele>48.75</ele><time>2026-03-27T16:25:25.984Z</time></trkpt><trkpt lat="45.9746533" lon="12.6143467"><ele>48.5</ele><time>2026-03-27T16:25:26.983Z</time></trkpt><trkpt lat="45.9745217" lon="12.6143067"><ele>48.25</ele><time>2026-03-27T16:25:27.984Z</time></trkpt><trkpt lat="45.9743867" lon="12.6142633"><ele>48.0</ele><time>2026-03-27T16:25:28.984Z</time></trkpt><trkpt lat="45.97425" lon="12.6142233"><ele>47.75</ele><time>2026-03-27T16:25:29.984Z</time></trkpt><trkpt lat="45.97411" lon="12.61418"><ele>47.5</ele><time>2026-03-27T16:25:30.983Z</time></trkpt><trkpt lat="45.9739717" lon="12.614135"><ele>47.25</ele><time>2026-03-27T16:25:31.984Z</time></trkpt><trkpt lat="45.973835" lon="12.614085"><ele>47.0</ele><time>2026-03-27T16:25:32.984Z</time></trkpt><trkpt lat="45.9737067" lon="12.61404"><ele>47.0</ele><time>2026-03-27T16:25:33.984Z</time></trkpt><trkpt lat="45.973585" lon="12.6139983"><ele>47.0</ele><time>2026-03-27T16:25:34.983Z</time></trkpt><trkpt lat="45.9734717" lon="12.61396"><ele>47.0</ele><time>2026-03-27T16:25:35.983Z</time></trkpt><trkpt lat="45.9733667" lon="12.6139283"><ele>47.0</ele><time>2026-03-27T16:25:36.984Z</time></trkpt><trkpt lat="45.9732717" lon="12.6139017"><ele>47.0</ele><time>2026-03-27T16:25:37.984Z</time></trkpt><trkpt lat="45.9731867" lon="12.6138683"><ele>46.400000000000006</ele><time>2026-03-27T16:25:38.984Z</time></trkpt><trkpt lat="45.9731067" lon="12.6138317"><ele>45.800000000000004</ele><time>2026-03-27T16:25:39.983Z</time></trkpt><trkpt lat="45.9730267" lon="12.6138017"><ele>45.2</ele><time>2026-03-27T16:25:40.983Z</time></trkpt><trkpt lat="45.9729333" lon="12.6137867"><ele>44.6</ele><time>2026-03-27T16:25:41.984Z</time></trkpt><trkpt lat="45.97283" lon="12.6137783"><ele>44.0</ele><time>2026-03-27T16:25:42.983Z</time></trkpt><trkpt lat="45.9727133" lon="12.61376"><ele>44.0</ele><time>2026-03-27T16:25:43.983Z</time></trkpt><trkpt lat="45.9725933" lon="12.6137333"><ele>44.0</ele><time>2026-03-27T16:25:44.984Z</time></trkpt><trkpt lat="45.97247" lon="12.6136967"><ele>44.0</ele><time>2026-03-27T16:25:45.983Z</time></trkpt><trkpt lat="45.9723417" lon="12.613665"><ele>44.0</ele><time>2026-03-27T16:25:46.983Z</time></trkpt><trkpt lat="45.9722083" lon="12.6136383"><ele>44.0</ele><time>2026-03-27T16:25:47.984Z</time></trkpt><trkpt lat="45.9720717" lon="12.6136"><ele>44.0</ele><time>2026-03-27T16:25:48.983Z</time></trkpt><trkpt lat="45.9719333" lon="12.613565"><ele>44.0</ele><time>2026-03-27T16:25:49.984Z</time></trkpt><trkpt lat="45.9717933" lon="12.613535"><ele>44.0</ele><time>2026-03-27T16:25:50.983Z</time></trkpt><trkpt lat="45.97165" lon="12.6135067"><ele>44.0</ele><time>2026-03-27T16:25:51.983Z</time></trkpt><trkpt lat="45.9715083" lon="12.61348"><ele>44.0</ele><time>2026-03-27T16:25:52.984Z</time></trkpt><trkpt lat="45.9713783" lon="12.6134583"><ele>44.0</ele><time>2026-03-27T16:25:53.985Z</time></trkpt><trkpt lat="45.97126" lon="12.6134383"><ele>44.0</ele><time>2026-03-27T16:25:54.983Z</time></trkpt><trkpt lat="45.9711483" lon="12.6134167"><ele>44.0</ele><time>2026-03-27T16:25:55.983Z</time></trkpt><trkpt lat="45.9710517" lon="12.6134017"><ele>44.0</ele><time>2026-03-27T16:25:56.983Z</time></trkpt><trkpt lat="45.9709767" lon="12.6133967"><ele>44.0</ele><time>2026-03-27T16:25:57.983Z</time></trkpt><trkpt lat="45.9708783" lon="12.613405"><ele>44.0</ele><time>2026-03-27T16:26:07.983Z</time></trkpt><trkpt lat="45.970765" lon="12.6133983"><ele>44.0</ele><time>2026-03-27T16:26:09.983Z</time></trkpt><trkpt lat="45.9706417" lon="12.6133883"><ele>43.800000000000004</ele><time>2026-03-27T16:26:11.985Z</time></trkpt><trkpt lat="45.970555" lon="12.613395"><ele>43.6</ele><time>2026-03-27T16:26:12.983Z</time></trkpt><trkpt lat="45.9704567" lon="12.6133983"><ele>43.4</ele><time>2026-03-27T16:26:13.984Z</time></trkpt><trkpt lat="45.9703567" lon="12.61341"><ele>43.2</ele><time>2026-03-27T16:26:14.983Z</time></trkpt><trkpt lat="45.9702567" lon="12.6134283"><ele>43.0</ele><time>2026-03-27T16:26:15.983Z</time></trkpt><trkpt lat="45.9701683" lon="12.6134333"><ele>43.0</ele><time>2026-03-27T16:26:16.984Z</time></trkpt><trkpt lat="45.97009" lon="12.61344"><ele>43.0</ele><time>2026-03-27T16:26:17.984Z</time></trkpt><trkpt lat="45.9700183" lon="12.613455"><ele>43.0</ele><time>2026-03-27T16:26:18.983Z</time></trkpt><trkpt lat="45.96994" lon="12.6134783"><ele>43.0</ele><time>2026-03-27T16:26:19.983Z</time></trkpt><trkpt lat="45.9698517" lon="12.6134983"><ele>43.0</ele><time>2026-03-27T16:26:20.984Z</time></trkpt><trkpt lat="45.969765" lon="12.613515"><ele>43.0</ele><time>2026-03-27T16:26:21.983Z</time></trkpt><trkpt lat="45.96969" lon="12.6135267"><ele>42.8</ele><time>2026-03-27T16:26:22.983Z</time></trkpt><trkpt lat="45.9695917" lon="12.6135417"><ele>42.599999999999994</ele><time>2026-03-27T16:26:24.984Z</time></trkpt><trkpt lat="45.9695183" lon="12.6135167"><ele>42.400000000000006</ele><time>2026-03-27T16:26:26.983Z</time></trkpt><trkpt lat="45.9694033" lon="12.61355"><ele>42.2</ele><time>2026-03-27T16:26:28.984Z</time></trkpt><trkpt lat="45.969355" lon="12.61343"><ele>42.0</ele><time>2026-03-27T16:26:30.983Z</time></trkpt><trkpt lat="45.969315" lon="12.6132833"><ele>42.0</ele><time>2026-03-27T16:26:32.983Z</time></trkpt><trkpt lat="45.9692483" lon="12.6132367"><ele>42.0</ele><time>2026-03-27T16:26:33.983Z</time></trkpt><trkpt lat="45.9691533" lon="12.6132083"><ele>42.0</ele><time>2026-03-27T16:26:34.985Z</time></trkpt><trkpt lat="45.96906" lon="12.6131817"><ele>42.0</ele><time>2026-03-27T16:26:35.983Z</time></trkpt><trkpt lat="45.9689833" lon="12.61316"><ele>42.0</ele><time>2026-03-27T16:26:36.984Z</time></trkpt><trkpt lat="45.9689083" lon="12.613085"><ele>42.0</ele><time>2026-03-27T16:26:38.984Z</time></trkpt><trkpt lat="45.968925" lon="12.6129583"><ele>42.0</ele><time>2026-03-27T16:26:40.982Z</time></trkpt><trkpt lat="45.9689333" lon="12.6128617"><ele>42.0</ele><time>2026-03-27T16:26:41.984Z</time></trkpt><trkpt lat="45.9689433" lon="12.6127467"><ele>42.0</ele><time>2026-03-27T16:26:42.984Z</time></trkpt><trkpt lat="45.9689533" lon="12.61263"><ele>42.0</ele><time>2026-03-27T16:26:43.983Z</time></trkpt><trkpt lat="45.9689717" lon="12.6125017"><ele>42.0</ele><time>2026-03-27T16:26:44.985Z</time></trkpt><trkpt lat="45.9689883" lon="12.6123617"><ele>42.0</ele><time>2026-03-27T16:26:45.984Z</time></trkpt><trkpt lat="45.969005" lon="12.61221"><ele>42.0</ele><time>2026-03-27T16:26:46.983Z</time></trkpt><trkpt lat="45.9690183" lon="12.6120667"><ele>42.0</ele><time>2026-03-27T16:26:47.983Z</time></trkpt><trkpt lat="45.9690333" lon="12.61194"><ele>42.0</ele><time>2026-03-27T16:26:48.985Z</time></trkpt><trkpt lat="45.96905" lon="12.611835"><ele>42.0</ele><time>2026-03-27T16:26:49.984Z</time></trkpt><trkpt lat="45.96909" lon="12.6117583"><ele>42.0</ele><time>2026-03-27T16:26:50.983Z</time></trkpt><trkpt lat="45.96915" lon="12.6117233"><ele>42.0</ele><time>2026-03-27T16:26:51.983Z</time></trkpt><trkpt lat="45.9692267" lon="12.6117183"><ele>42.400000000000006</ele><time>2026-03-27T16:26:52.984Z</time></trkpt><trkpt lat="45.9693283" lon="12.611765"><ele>42.800000000000004</ele><time>2026-03-27T16:26:53.983Z</time></trkpt><trkpt lat="45.96942" lon="12.6117883"><ele>43.2</ele><time>2026-03-27T16:26:54.983Z</time></trkpt><trkpt lat="45.9695033" lon="12.6118067"><ele>43.6</ele><time>2026-03-27T16:26:55.983Z</time></trkpt><trkpt lat="45.9695333" lon="12.611695"><ele>44.0</ele><time>2026-03-27T16:26:57.983Z</time></trkpt><trkpt lat="45.9694617" lon="12.61163"><ele>44.0</ele><time>2026-03-27T16:26:58.983Z</time></trkpt><trkpt lat="45.96937" lon="12.6116083"><ele>44.0</ele><time>2026-03-27T16:26:59.987Z</time></trkpt><trkpt lat="45.96928" lon="12.6115917"><ele>44.0</ele><time>2026-03-27T16:27:00.983Z</time></trkpt><trkpt lat="45.9691967" lon="12.6115567"><ele>44.0</ele><time>2026-03-27T16:27:01.983Z</time></trkpt><trkpt lat="45.969125" lon="12.61152"><ele>44.0</ele><time>2026-03-27T16:27:02.983Z</time></trkpt><trkpt lat="45.9690217" lon="12.61147"><ele>43.83333333333333</ele><time>2026-03-27T16:27:04.984Z</time></trkpt><trkpt lat="45.9689267" lon="12.61136"><ele>43.666666666666664</ele><time>2026-03-27T16:27:06.984Z</time></trkpt><trkpt lat="45.9688767" lon="12.6112917"><ele>43.5</ele><time>2026-03-27T16:27:07.985Z</time></trkpt><trkpt lat="45.9688267" lon="12.6112283"><ele>43.333333333333336</ele><time>2026-03-27T16:27:08.983Z</time></trkpt><trkpt lat="45.9687667" lon="12.6111883"><ele>43.16666666666667</ele><time>2026-03-27T16:27:09.984Z</time></trkpt><trkpt lat="45.9686817" lon="12.611185"><ele>43.0</ele><time>2026-03-27T16:27:10.984Z</time></trkpt><trkpt lat="45.9685833" lon="12.6111917"><ele>43.0</ele><time>2026-03-27T16:27:11.983Z</time></trkpt><trkpt lat="45.9684783" lon="12.6111983"><ele>43.0</ele><time>2026-03-27T16:27:12.983Z</time></trkpt><trkpt lat="45.9683633" lon="12.611205"><ele>43.0</ele><time>2026-03-27T16:27:13.983Z</time></trkpt><trkpt lat="45.96824" lon="12.611215"><ele>43.0</ele><time>2026-03-27T16:27:14.984Z</time></trkpt><trkpt lat="45.9681083" lon="12.611235"><ele>42.75</ele><time>2026-03-27T16:27:15.983Z</time></trkpt><trkpt lat="45.967975" lon="12.611235"><ele>42.5</ele><time>2026-03-27T16:27:16.983Z</time></trkpt><trkpt lat="45.9678383" lon="12.611235"><ele>42.25</ele><time>2026-03-27T16:27:17.984Z</time></trkpt><trkpt lat="45.9676883" lon="12.6112467"><ele>42.0</ele><time>2026-03-27T16:27:18.984Z</time></trkpt><trkpt lat="45.9675367" lon="12.6112483"><ele>41.333333333333336</ele><time>2026-03-27T16:27:19.983Z</time></trkpt><trkpt lat="45.9673767" lon="12.6112567"><ele>40.66666666666667</ele><time>2026-03-27T16:27:20.984Z</time></trkpt><trkpt lat="45.967215" lon="12.6112633"><ele>40.0</ele><time>2026-03-27T16:27:21.982Z</time></trkpt><trkpt lat="45.9670533" lon="12.6112717"><ele>40.0</ele><time>2026-03-27T16:27:22.983Z</time></trkpt><trkpt lat="45.9668983" lon="12.6112783"><ele>40.0</ele><time>2026-03-27T16:27:23.983Z</time></trkpt><trkpt lat="45.9667383" lon="12.6113"><ele>40.0</ele><time>2026-03-27T16:27:24.983Z</time></trkpt><trkpt lat="45.966585" lon="12.6113067"><ele>39.75</ele><time>2026-03-27T16:27:25.985Z</time></trkpt><trkpt lat="45.9664383" lon="12.61131"><ele>39.5</ele><time>2026-03-27T16:27:26.985Z</time></trkpt><trkpt lat="45.966295" lon="12.611305"><ele>39.25</ele><time>2026-03-27T16:27:27.983Z</time></trkpt><trkpt lat="45.9661533" lon="12.6113017"><ele>39.0</ele><time>2026-03-27T16:27:28.982Z</time></trkpt><trkpt lat="45.9660117" lon="12.6113133"><ele>39.0</ele><time>2026-03-27T16:27:29.984Z</time></trkpt><trkpt lat="45.9658667" lon="12.6113267"><ele>39.0</ele><time>2026-03-27T16:27:30.984Z</time></trkpt><trkpt lat="45.9657217" lon="12.6113367"><ele>39.0</ele><time>2026-03-27T16:27:31.983Z</time></trkpt><trkpt lat="45.9655783" lon="12.6113467"><ele>39.0</ele><time>2026-03-27T16:27:32.984Z</time></trkpt><trkpt lat="45.965445" lon="12.61135"><ele>38.8</ele><time>2026-03-27T16:27:33.983Z</time></trkpt><trkpt lat="45.9653283" lon="12.6113533"><ele>38.599999999999994</ele><time>2026-03-27T16:27:34.982Z</time></trkpt><trkpt lat="45.9652217" lon="12.6113583"><ele>38.4</ele><time>2026-03-27T16:27:35.984Z</time></trkpt><trkpt lat="45.9651283" lon="12.6113667"><ele>38.199999999999996</ele><time>2026-03-27T16:27:36.984Z</time></trkpt><trkpt lat="45.9650483" lon="12.6113733"><ele>38.0</ele><time>2026-03-27T16:27:37.982Z</time></trkpt><trkpt lat="45.9649767" lon="12.61138"><ele>37.857142857142854</ele><time>2026-03-27T16:27:38.983Z</time></trkpt><trkpt lat="45.9649067" lon="12.6113833"><ele>37.714285714285715</ele><time>2026-03-27T16:27:39.984Z</time></trkpt><trkpt lat="45.96484" lon="12.6113867"><ele>37.57142857142857</ele><time>2026-03-27T16:27:40.983Z</time></trkpt><trkpt lat="45.9647733" lon="12.6113883"><ele>37.42857142857143</ele><time>2026-03-27T16:27:41.983Z</time></trkpt><trkpt lat="45.9647033" lon="12.6113867"><ele>37.285714285714285</ele><time>2026-03-27T16:27:42.983Z</time></trkpt><trkpt lat="45.9646233" lon="12.61139"><ele>37.142857142857146</ele><time>2026-03-27T16:27:43.984Z</time></trkpt><trkpt lat="45.9645317" lon="12.6113983"><ele>37.0</ele><time>2026-03-27T16:27:44.984Z</time></trkpt><trkpt lat="45.9644283" lon="12.6114117"><ele>37.0</ele><time>2026-03-27T16:27:45.985Z</time></trkpt><trkpt lat="45.964325" lon="12.61142"><ele>37.0</ele><time>2026-03-27T16:27:46.984Z</time></trkpt><trkpt lat="45.9642333" lon="12.6114167"><ele>37.0</ele><time>2026-03-27T16:27:47.984Z</time></trkpt><trkpt lat="45.9641617" lon="12.611405"><ele>37.0</ele><time>2026-03-27T16:27:48.983Z</time></trkpt><trkpt lat="45.9641183" lon="12.6113233"><ele>37.0</ele><time>2026-03-27T16:27:50.985Z</time></trkpt><trkpt lat="45.9641883" lon="12.6112867"><ele>37.0</ele><time>2026-03-27T16:27:52.984Z</time></trkpt><trkpt lat="45.9642867" lon="12.611285"><ele>37.0</ele><time>2026-03-27T16:27:54.983Z</time></trkpt><trkpt lat="45.9643967" lon="12.61129"><ele>37.0</ele><time>2026-03-27T16:27:56.984Z</time></trkpt><trkpt lat="45.9644817" lon="12.61127"><ele>37.0</ele><time>2026-03-27T16:27:58.982Z</time></trkpt><trkpt lat="45.9645383" lon="12.61117"><ele>37.0</ele><time>2026-03-27T16:28:00.983Z</time></trkpt><trkpt lat="45.964575" lon="12.611065"><ele>37.0</ele><time>2026-03-27T16:28:02.987Z</time></trkpt><trkpt lat="45.96459" lon="12.610975"><ele>37.0</ele><time>2026-03-27T16:28:04.984Z</time></trkpt></trkseg></trk></gpx>